<?xml version="1.0" encoding="UTF-8" standalone="no" ?>
<gpx xmlns="http://www.topografix.com/GPX/1/1" xmlns:xsi="http://www.w3.org/2001/XMLSchema-instance" xsi:schemaLocation="http://www.topografix.com/GPX/1/1 http://www.topografix.com/GPX/1/1/gpx.xsd" version="1.1" creator="VisuGPX - https://www.visugpx.com">
  <metadata>
    <name>Le rocher de l'homme </name>
  </metadata>
  <trk>
    <name><![CDATA[Le rocher de l'homme _1]]></name>
    <trkseg>
      <trkpt lat="45.19558" lon="5.93521">
        <ele>1277.8</ele>
        <time>2026-07-19T06:17:55Z</time>
      </trkpt>
      <trkpt lat="45.19566" lon="5.93511">
        <ele>1279</ele>
        <time>2026-07-19T06:17:58Z</time>
      </trkpt>
      <trkpt lat="45.19568" lon="5.93517">
        <ele>1280.2</ele>
        <time>2026-07-19T06:18:00Z</time>
      </trkpt>
      <trkpt lat="45.19567" lon="5.93524">
        <ele>1281.4</ele>
        <time>2026-07-19T06:18:02Z</time>
      </trkpt>
      <trkpt lat="45.19568" lon="5.93531">
        <ele>1282.6</ele>
        <time>2026-07-19T06:18:04Z</time>
      </trkpt>
      <trkpt lat="45.19568" lon="5.93535">
        <ele>1283.2</ele>
        <time>2026-07-19T06:18:05Z</time>
      </trkpt>
      <trkpt lat="45.19568" lon="5.93539">
        <ele>1283.8</ele>
        <time>2026-07-19T06:18:06Z</time>
      </trkpt>
      <trkpt lat="45.1957" lon="5.93545">
        <ele>1285</ele>
        <time>2026-07-19T06:18:08Z</time>
      </trkpt>
      <trkpt lat="45.19572" lon="5.93553">
        <ele>1286.6</ele>
        <time>2026-07-19T06:18:11Z</time>
      </trkpt>
      <trkpt lat="45.19574" lon="5.93558">
        <ele>1287.8</ele>
        <time>2026-07-19T06:18:13Z</time>
      </trkpt>
      <trkpt lat="45.19576" lon="5.93562">
        <ele>1289</ele>
        <time>2026-07-19T06:18:15Z</time>
      </trkpt>
      <trkpt lat="45.1958" lon="5.93569">
        <ele>1290.8</ele>
        <time>2026-07-19T06:18:18Z</time>
      </trkpt>
      <trkpt lat="45.19581" lon="5.93571">
        <ele>1291.4</ele>
        <time>2026-07-19T06:18:19Z</time>
      </trkpt>
      <trkpt lat="45.19582" lon="5.93574">
        <ele>1292</ele>
        <time>2026-07-19T06:18:20Z</time>
      </trkpt>
      <trkpt lat="45.19583" lon="5.93579">
        <ele>1293.2</ele>
        <time>2026-07-19T06:18:22Z</time>
      </trkpt>
      <trkpt lat="45.19584" lon="5.93587">
        <ele>1294.8</ele>
        <time>2026-07-19T06:18:25Z</time>
      </trkpt>
      <trkpt lat="45.19585" lon="5.93589">
        <ele>1295.4</ele>
        <time>2026-07-19T06:18:26Z</time>
      </trkpt>
      <trkpt lat="45.19585" lon="5.93592">
        <ele>1296</ele>
        <time>2026-07-19T06:18:27Z</time>
      </trkpt>
      <trkpt lat="45.19586" lon="5.93597">
        <ele>1297.2</ele>
        <time>2026-07-19T06:18:29Z</time>
      </trkpt>
      <trkpt lat="45.19588" lon="5.93602">
        <ele>1298.4</ele>
        <time>2026-07-19T06:18:31Z</time>
      </trkpt>
      <trkpt lat="45.19591" lon="5.93608">
        <ele>1300</ele>
        <time>2026-07-19T06:18:34Z</time>
      </trkpt>
      <trkpt lat="45.19594" lon="5.93613">
        <ele>1301.2</ele>
        <time>2026-07-19T06:18:36Z</time>
      </trkpt>
      <trkpt lat="45.19596" lon="5.93614">
        <ele>1301.8</ele>
        <time>2026-07-19T06:18:37Z</time>
      </trkpt>
      <trkpt lat="45.19597" lon="5.93616">
        <ele>1302.4</ele>
        <time>2026-07-19T06:18:38Z</time>
      </trkpt>
      <trkpt lat="45.19598" lon="5.93617">
        <ele>1303</ele>
        <time>2026-07-19T06:18:39Z</time>
      </trkpt>
      <trkpt lat="45.19599" lon="5.9362">
        <ele>1303.6</ele>
        <time>2026-07-19T06:18:40Z</time>
      </trkpt>
      <trkpt lat="45.19602" lon="5.93623">
        <ele>1304.8</ele>
        <time>2026-07-19T06:18:42Z</time>
      </trkpt>
      <trkpt lat="45.19605" lon="5.93628">
        <ele>1306</ele>
        <time>2026-07-19T06:18:44Z</time>
      </trkpt>
      <trkpt lat="45.19607" lon="5.93632">
        <ele>1307</ele>
        <time>2026-07-19T06:18:46Z</time>
      </trkpt>
      <trkpt lat="45.19609" lon="5.93636">
        <ele>1308.2</ele>
        <time>2026-07-19T06:18:48Z</time>
      </trkpt>
      <trkpt lat="45.1961" lon="5.9364">
        <ele>1309.4</ele>
        <time>2026-07-19T06:18:50Z</time>
      </trkpt>
      <trkpt lat="45.19612" lon="5.93645">
        <ele>1310.6</ele>
        <time>2026-07-19T06:18:52Z</time>
      </trkpt>
      <trkpt lat="45.19613" lon="5.93647">
        <ele>1311.2</ele>
        <time>2026-07-19T06:18:53Z</time>
      </trkpt>
      <trkpt lat="45.19613" lon="5.9365">
        <ele>1311.8</ele>
        <time>2026-07-19T06:18:54Z</time>
      </trkpt>
      <trkpt lat="45.19615" lon="5.93657">
        <ele>1313.4</ele>
        <time>2026-07-19T06:18:57Z</time>
      </trkpt>
      <trkpt lat="45.19617" lon="5.93661">
        <ele>1314.6</ele>
        <time>2026-07-19T06:18:59Z</time>
      </trkpt>
      <trkpt lat="45.1962" lon="5.93665">
        <ele>1315.8</ele>
        <time>2026-07-19T06:19:01Z</time>
      </trkpt>
      <trkpt lat="45.19623" lon="5.93669">
        <ele>1317</ele>
        <time>2026-07-19T06:19:03Z</time>
      </trkpt>
      <trkpt lat="45.19626" lon="5.93672">
        <ele>1318.2</ele>
        <time>2026-07-19T06:19:05Z</time>
      </trkpt>
      <trkpt lat="45.19627" lon="5.93677">
        <ele>1319.4</ele>
        <time>2026-07-19T06:19:07Z</time>
      </trkpt>
      <trkpt lat="45.19628" lon="5.9368">
        <ele>1320</ele>
        <time>2026-07-19T06:19:08Z</time>
      </trkpt>
      <trkpt lat="45.1963" lon="5.93682">
        <ele>1320.6</ele>
        <time>2026-07-19T06:19:09Z</time>
      </trkpt>
      <trkpt lat="45.19634" lon="5.93688">
        <ele>1322.4</ele>
        <time>2026-07-19T06:19:12Z</time>
      </trkpt>
      <trkpt lat="45.19637" lon="5.93692">
        <ele>1323.6</ele>
        <time>2026-07-19T06:19:14Z</time>
      </trkpt>
      <trkpt lat="45.19639" lon="5.93697">
        <ele>1324.8</ele>
        <time>2026-07-19T06:19:16Z</time>
      </trkpt>
      <trkpt lat="45.19642" lon="5.93701">
        <ele>1326</ele>
        <time>2026-07-19T06:19:18Z</time>
      </trkpt>
      <trkpt lat="45.19645" lon="5.93704">
        <ele>1327.2</ele>
        <time>2026-07-19T06:19:20Z</time>
      </trkpt>
      <trkpt lat="45.19646" lon="5.93709">
        <ele>1328.4</ele>
        <time>2026-07-19T06:19:22Z</time>
      </trkpt>
      <trkpt lat="45.19647" lon="5.93711">
        <ele>1329</ele>
        <time>2026-07-19T06:19:23Z</time>
      </trkpt>
      <trkpt lat="45.19648" lon="5.93713">
        <ele>1329.6</ele>
        <time>2026-07-19T06:19:24Z</time>
      </trkpt>
      <trkpt lat="45.1965" lon="5.93716">
        <ele>1330.8</ele>
        <time>2026-07-19T06:19:26Z</time>
      </trkpt>
      <trkpt lat="45.19652" lon="5.93719">
        <ele>1332</ele>
        <time>2026-07-19T06:19:28Z</time>
      </trkpt>
      <trkpt lat="45.19653" lon="5.93723">
        <ele>1333.4</ele>
        <time>2026-07-19T06:19:30Z</time>
      </trkpt>
      <trkpt lat="45.19653" lon="5.93727">
        <ele>1334.6</ele>
        <time>2026-07-19T06:19:32Z</time>
      </trkpt>
      <trkpt lat="45.19655" lon="5.9373">
        <ele>1335.8</ele>
        <time>2026-07-19T06:19:34Z</time>
      </trkpt>
      <trkpt lat="45.19657" lon="5.93733">
        <ele>1337</ele>
        <time>2026-07-19T06:19:36Z</time>
      </trkpt>
      <trkpt lat="45.19658" lon="5.93736">
        <ele>1338.4</ele>
        <time>2026-07-19T06:19:38Z</time>
      </trkpt>
      <trkpt lat="45.19659" lon="5.93738">
        <ele>1339</ele>
        <time>2026-07-19T06:19:39Z</time>
      </trkpt>
      <trkpt lat="45.1966" lon="5.93739">
        <ele>1339.6</ele>
        <time>2026-07-19T06:19:40Z</time>
      </trkpt>
      <trkpt lat="45.19661" lon="5.93742">
        <ele>1340.8</ele>
        <time>2026-07-19T06:19:42Z</time>
      </trkpt>
      <trkpt lat="45.19662" lon="5.93744">
        <ele>1342.2</ele>
        <time>2026-07-19T06:19:44Z</time>
      </trkpt>
      <trkpt lat="45.19663" lon="5.93748">
        <ele>1343.4</ele>
        <time>2026-07-19T06:19:46Z</time>
      </trkpt>
      <trkpt lat="45.19663" lon="5.93749">
        <ele>1344</ele>
        <time>2026-07-19T06:19:47Z</time>
      </trkpt>
      <trkpt lat="45.19664" lon="5.93751">
        <ele>1344.8</ele>
        <time>2026-07-19T06:19:48Z</time>
      </trkpt>
      <trkpt lat="45.19665" lon="5.93754">
        <ele>1346</ele>
        <time>2026-07-19T06:19:50Z</time>
      </trkpt>
      <trkpt lat="45.19666" lon="5.93758">
        <ele>1347.4</ele>
        <time>2026-07-19T06:19:52Z</time>
      </trkpt>
      <trkpt lat="45.19667" lon="5.93761">
        <ele>1348.6</ele>
        <time>2026-07-19T06:19:54Z</time>
      </trkpt>
      <trkpt lat="45.19669" lon="5.93765">
        <ele>1350</ele>
        <time>2026-07-19T06:19:56Z</time>
      </trkpt>
      <trkpt lat="45.19669" lon="5.93767">
        <ele>1350.6</ele>
        <time>2026-07-19T06:19:57Z</time>
      </trkpt>
      <trkpt lat="45.19669" lon="5.93769">
        <ele>1351.2</ele>
        <time>2026-07-19T06:19:58Z</time>
      </trkpt>
      <trkpt lat="45.1967" lon="5.93771">
        <ele>1352.6</ele>
        <time>2026-07-19T06:20:00Z</time>
      </trkpt>
      <trkpt lat="45.19669" lon="5.93774">
        <ele>1353.8</ele>
        <time>2026-07-19T06:20:02Z</time>
      </trkpt>
      <trkpt lat="45.19669" lon="5.93777">
        <ele>1355.2</ele>
        <time>2026-07-19T06:20:04Z</time>
      </trkpt>
      <trkpt lat="45.19667" lon="5.93779">
        <ele>1356.4</ele>
        <time>2026-07-19T06:20:06Z</time>
      </trkpt>
      <trkpt lat="45.19667" lon="5.93782">
        <ele>1357.8</ele>
        <time>2026-07-19T06:20:08Z</time>
      </trkpt>
      <trkpt lat="45.19668" lon="5.93785">
        <ele>1359.2</ele>
        <time>2026-07-19T06:20:10Z</time>
      </trkpt>
      <trkpt lat="45.19669" lon="5.93788">
        <ele>1360.6</ele>
        <time>2026-07-19T06:20:12Z</time>
      </trkpt>
      <trkpt lat="45.19669" lon="5.93792">
        <ele>1361.8</ele>
        <time>2026-07-19T06:20:14Z</time>
      </trkpt>
      <trkpt lat="45.19669" lon="5.93795">
        <ele>1363.2</ele>
        <time>2026-07-19T06:20:16Z</time>
      </trkpt>
      <trkpt lat="45.19671" lon="5.93799">
        <ele>1364.4</ele>
        <time>2026-07-19T06:20:18Z</time>
      </trkpt>
      <trkpt lat="45.19674" lon="5.93804">
        <ele>1365.8</ele>
        <time>2026-07-19T06:20:20Z</time>
      </trkpt>
      <trkpt lat="45.19676" lon="5.93809">
        <ele>1367</ele>
        <time>2026-07-19T06:20:22Z</time>
      </trkpt>
      <trkpt lat="45.19677" lon="5.93813">
        <ele>1368.4</ele>
        <time>2026-07-19T06:20:24Z</time>
      </trkpt>
      <trkpt lat="45.19679" lon="5.93817">
        <ele>1369.8</ele>
        <time>2026-07-19T06:20:26Z</time>
      </trkpt>
      <trkpt lat="45.19682" lon="5.93819">
        <ele>1371</ele>
        <time>2026-07-19T06:20:28Z</time>
      </trkpt>
      <trkpt lat="45.19683" lon="5.93822">
        <ele>1372.4</ele>
        <time>2026-07-19T06:20:30Z</time>
      </trkpt>
      <trkpt lat="45.19685" lon="5.93826">
        <ele>1373.6</ele>
        <time>2026-07-19T06:20:32Z</time>
      </trkpt>
      <trkpt lat="45.19688" lon="5.93828">
        <ele>1374.8</ele>
        <time>2026-07-19T06:20:34Z</time>
      </trkpt>
      <trkpt lat="45.1969" lon="5.9383">
        <ele>1376.2</ele>
        <time>2026-07-19T06:20:36Z</time>
      </trkpt>
      <trkpt lat="45.19693" lon="5.93832">
        <ele>1377.4</ele>
        <time>2026-07-19T06:20:38Z</time>
      </trkpt>
      <trkpt lat="45.19695" lon="5.93835">
        <ele>1378.8</ele>
        <time>2026-07-19T06:20:40Z</time>
      </trkpt>
      <trkpt lat="45.19695" lon="5.93839">
        <ele>1380</ele>
        <time>2026-07-19T06:20:42Z</time>
      </trkpt>
      <trkpt lat="45.19695" lon="5.93841">
        <ele>1380.6</ele>
        <time>2026-07-19T06:20:43Z</time>
      </trkpt>
      <trkpt lat="45.19695" lon="5.93843">
        <ele>1381.4</ele>
        <time>2026-07-19T06:20:44Z</time>
      </trkpt>
      <trkpt lat="45.19695" lon="5.93845">
        <ele>1382.6</ele>
        <time>2026-07-19T06:20:46Z</time>
      </trkpt>
      <trkpt lat="45.19694" lon="5.93847">
        <ele>1384</ele>
        <time>2026-07-19T06:20:48Z</time>
      </trkpt>
      <trkpt lat="45.19694" lon="5.93849">
        <ele>1385.2</ele>
        <time>2026-07-19T06:20:50Z</time>
      </trkpt>
      <trkpt lat="45.19693" lon="5.93852">
        <ele>1386.6</ele>
        <time>2026-07-19T06:20:52Z</time>
      </trkpt>
      <trkpt lat="45.19691" lon="5.93855">
        <ele>1387.8</ele>
        <time>2026-07-19T06:20:54Z</time>
      </trkpt>
      <trkpt lat="45.19691" lon="5.93857">
        <ele>1389.2</ele>
        <time>2026-07-19T06:20:56Z</time>
      </trkpt>
      <trkpt lat="45.19692" lon="5.9386">
        <ele>1389.8</ele>
        <time>2026-07-19T06:20:57Z</time>
      </trkpt>
      <trkpt lat="45.19694" lon="5.93863">
        <ele>1390.4</ele>
        <time>2026-07-19T06:20:58Z</time>
      </trkpt>
      <trkpt lat="45.19695" lon="5.93866">
        <ele>1391.8</ele>
        <time>2026-07-19T06:21:00Z</time>
      </trkpt>
      <trkpt lat="45.19695" lon="5.9387">
        <ele>1393.2</ele>
        <time>2026-07-19T06:21:02Z</time>
      </trkpt>
      <trkpt lat="45.19695" lon="5.93873">
        <ele>1394.4</ele>
        <time>2026-07-19T06:21:04Z</time>
      </trkpt>
      <trkpt lat="45.19694" lon="5.93877">
        <ele>1395.8</ele>
        <time>2026-07-19T06:21:06Z</time>
      </trkpt>
      <trkpt lat="45.19694" lon="5.93878">
        <ele>1396.4</ele>
        <time>2026-07-19T06:21:07Z</time>
      </trkpt>
      <trkpt lat="45.19694" lon="5.9388">
        <ele>1397</ele>
        <time>2026-07-19T06:21:08Z</time>
      </trkpt>
      <trkpt lat="45.19694" lon="5.93883">
        <ele>1398.4</ele>
        <time>2026-07-19T06:21:10Z</time>
      </trkpt>
      <trkpt lat="45.19695" lon="5.93888">
        <ele>1399.8</ele>
        <time>2026-07-19T06:21:12Z</time>
      </trkpt>
      <trkpt lat="45.19696" lon="5.93891">
        <ele>1401</ele>
        <time>2026-07-19T06:21:14Z</time>
      </trkpt>
      <trkpt lat="45.19697" lon="5.93893">
        <ele>1401.6</ele>
        <time>2026-07-19T06:21:15Z</time>
      </trkpt>
      <trkpt lat="45.19696" lon="5.93895">
        <ele>1402.2</ele>
        <time>2026-07-19T06:21:16Z</time>
      </trkpt>
      <trkpt lat="45.19696" lon="5.93898">
        <ele>1403.6</ele>
        <time>2026-07-19T06:21:18Z</time>
      </trkpt>
      <trkpt lat="45.19697" lon="5.93901">
        <ele>1404.8</ele>
        <time>2026-07-19T06:21:20Z</time>
      </trkpt>
      <trkpt lat="45.19699" lon="5.93906">
        <ele>1406</ele>
        <time>2026-07-19T06:21:22Z</time>
      </trkpt>
      <trkpt lat="45.197" lon="5.93911">
        <ele>1407.2</ele>
        <time>2026-07-19T06:21:24Z</time>
      </trkpt>
      <trkpt lat="45.19701" lon="5.93915">
        <ele>1408.6</ele>
        <time>2026-07-19T06:21:26Z</time>
      </trkpt>
      <trkpt lat="45.19702" lon="5.93919">
        <ele>1409.8</ele>
        <time>2026-07-19T06:21:28Z</time>
      </trkpt>
      <trkpt lat="45.19702" lon="5.93921">
        <ele>1410.4</ele>
        <time>2026-07-19T06:21:29Z</time>
      </trkpt>
      <trkpt lat="45.19703" lon="5.93923">
        <ele>1411</ele>
        <time>2026-07-19T06:21:30Z</time>
      </trkpt>
      <trkpt lat="45.19705" lon="5.93929">
        <ele>1412.2</ele>
        <time>2026-07-19T06:21:32Z</time>
      </trkpt>
      <trkpt lat="45.19707" lon="5.93935">
        <ele>1413.4</ele>
        <time>2026-07-19T06:21:34Z</time>
      </trkpt>
      <trkpt lat="45.19707" lon="5.9394">
        <ele>1414</ele>
        <time>2026-07-19T06:21:35Z</time>
      </trkpt>
      <trkpt lat="45.19707" lon="5.93944">
        <ele>1414.8</ele>
        <time>2026-07-19T06:21:36Z</time>
      </trkpt>
      <trkpt lat="45.1971" lon="5.93953">
        <ele>1416</ele>
        <time>2026-07-19T06:21:38Z</time>
      </trkpt>
      <trkpt lat="45.19713" lon="5.93963">
        <ele>1417.2</ele>
        <time>2026-07-19T06:21:40Z</time>
      </trkpt>
      <trkpt lat="45.19716" lon="5.93972">
        <ele>1418.4</ele>
        <time>2026-07-19T06:21:42Z</time>
      </trkpt>
      <trkpt lat="45.19719" lon="5.9398">
        <ele>1419.6</ele>
        <time>2026-07-19T06:21:44Z</time>
      </trkpt>
      <trkpt lat="45.19721" lon="5.93988">
        <ele>1421</ele>
        <time>2026-07-19T06:21:46Z</time>
      </trkpt>
      <trkpt lat="45.19722" lon="5.9399">
        <ele>1421.6</ele>
        <time>2026-07-19T06:21:47Z</time>
      </trkpt>
      <trkpt lat="45.19722" lon="5.93993">
        <ele>1422.2</ele>
        <time>2026-07-19T06:21:48Z</time>
      </trkpt>
      <trkpt lat="45.19724" lon="5.94">
        <ele>1423.4</ele>
        <time>2026-07-19T06:21:50Z</time>
      </trkpt>
      <trkpt lat="45.19725" lon="5.94008">
        <ele>1424.6</ele>
        <time>2026-07-19T06:21:52Z</time>
      </trkpt>
      <trkpt lat="45.19725" lon="5.94015">
        <ele>1425.8</ele>
        <time>2026-07-19T06:21:54Z</time>
      </trkpt>
      <trkpt lat="45.19725" lon="5.94023">
        <ele>1427</ele>
        <time>2026-07-19T06:21:56Z</time>
      </trkpt>
      <trkpt lat="45.19726" lon="5.9403">
        <ele>1428.2</ele>
        <time>2026-07-19T06:21:58Z</time>
      </trkpt>
      <trkpt lat="45.19726" lon="5.94034">
        <ele>1428.8</ele>
        <time>2026-07-19T06:21:59Z</time>
      </trkpt>
      <trkpt lat="45.19726" lon="5.94037">
        <ele>1429.4</ele>
        <time>2026-07-19T06:22:00Z</time>
      </trkpt>
      <trkpt lat="45.19726" lon="5.94045">
        <ele>1430.6</ele>
        <time>2026-07-19T06:22:02Z</time>
      </trkpt>
      <trkpt lat="45.19727" lon="5.94053">
        <ele>1432</ele>
        <time>2026-07-19T06:22:04Z</time>
      </trkpt>
      <trkpt lat="45.19728" lon="5.94056">
        <ele>1432.6</ele>
        <time>2026-07-19T06:22:05Z</time>
      </trkpt>
      <trkpt lat="45.19728" lon="5.9406">
        <ele>1433.4</ele>
        <time>2026-07-19T06:22:06Z</time>
      </trkpt>
      <trkpt lat="45.19611" lon="5.94762">
        <ele>1428.8</ele>
        <time>2026-07-19T06:29:26Z</time>
      </trkpt>
      <trkpt lat="45.19611" lon="5.94765">
        <ele>1428.2</ele>
        <time>2026-07-19T06:29:28Z</time>
      </trkpt>
      <trkpt lat="45.19611" lon="5.94766">
        <ele>1427.4</ele>
        <time>2026-07-19T06:29:29Z</time>
      </trkpt>
      <trkpt lat="45.19615" lon="5.94774">
        <ele>1426.2</ele>
        <time>2026-07-19T06:29:36Z</time>
      </trkpt>
      <trkpt lat="45.19617" lon="5.94778">
        <ele>1424.6</ele>
        <time>2026-07-19T06:29:38Z</time>
      </trkpt>
      <trkpt lat="45.19619" lon="5.94779">
        <ele>1424.2</ele>
        <time>2026-07-19T06:29:39Z</time>
      </trkpt>
      <trkpt lat="45.19622" lon="5.94781">
        <ele>1423</ele>
        <time>2026-07-19T06:29:41Z</time>
      </trkpt>
      <trkpt lat="45.19624" lon="5.94783">
        <ele>1422.4</ele>
        <time>2026-07-19T06:29:43Z</time>
      </trkpt>
      <trkpt lat="45.19626" lon="5.94787">
        <ele>1421.6</ele>
        <time>2026-07-19T06:29:45Z</time>
      </trkpt>
      <trkpt lat="45.19629" lon="5.94797">
        <ele>1422.4</ele>
        <time>2026-07-19T06:29:51Z</time>
      </trkpt>
      <trkpt lat="45.1963" lon="5.94806">
        <ele>1421</ele>
        <time>2026-07-19T06:29:56Z</time>
      </trkpt>
      <trkpt lat="45.19629" lon="5.94811">
        <ele>1420</ele>
        <time>2026-07-19T06:29:58Z</time>
      </trkpt>
      <trkpt lat="45.19628" lon="5.94815">
        <ele>1418.6</ele>
        <time>2026-07-19T06:30:00Z</time>
      </trkpt>
      <trkpt lat="45.19627" lon="5.94819">
        <ele>1417.6</ele>
        <time>2026-07-19T06:30:02Z</time>
      </trkpt>
      <trkpt lat="45.19627" lon="5.94821">
        <ele>1417.6</ele>
        <time>2026-07-19T06:30:03Z</time>
      </trkpt>
      <trkpt lat="45.19627" lon="5.9483">
        <ele>1418</ele>
        <time>2026-07-19T06:30:07Z</time>
      </trkpt>
      <trkpt lat="45.19627" lon="5.94833">
        <ele>1417.2</ele>
        <time>2026-07-19T06:30:09Z</time>
      </trkpt>
      <trkpt lat="45.19627" lon="5.94837">
        <ele>1418.4</ele>
        <time>2026-07-19T06:30:12Z</time>
      </trkpt>
      <trkpt lat="45.19627" lon="5.94837">
        <ele>1418.4</ele>
        <time>2026-07-19T06:30:13Z</time>
      </trkpt>
      <trkpt lat="45.19628" lon="5.94839">
        <ele>1418.4</ele>
        <time>2026-07-19T06:30:15Z</time>
      </trkpt>
      <trkpt lat="45.19629" lon="5.94843">
        <ele>1419</ele>
        <time>2026-07-19T06:30:17Z</time>
      </trkpt>
      <trkpt lat="45.19631" lon="5.9485">
        <ele>1419.4</ele>
        <time>2026-07-19T06:30:21Z</time>
      </trkpt>
      <trkpt lat="45.19632" lon="5.94853">
        <ele>1421</ele>
        <time>2026-07-19T06:30:23Z</time>
      </trkpt>
      <trkpt lat="45.19632" lon="5.94855">
        <ele>1421.4</ele>
        <time>2026-07-19T06:30:24Z</time>
      </trkpt>
      <trkpt lat="45.19632" lon="5.94856">
        <ele>1422.2</ele>
        <time>2026-07-19T06:30:25Z</time>
      </trkpt>
      <trkpt lat="45.19631" lon="5.94858">
        <ele>1423.4</ele>
        <time>2026-07-19T06:30:27Z</time>
      </trkpt>
      <trkpt lat="45.19631" lon="5.94861">
        <ele>1425.4</ele>
        <time>2026-07-19T06:30:29Z</time>
      </trkpt>
      <trkpt lat="45.19631" lon="5.94864">
        <ele>1426.8</ele>
        <time>2026-07-19T06:30:32Z</time>
      </trkpt>
      <trkpt lat="45.19632" lon="5.94864">
        <ele>1428.2</ele>
        <time>2026-07-19T06:30:33Z</time>
      </trkpt>
      <trkpt lat="45.19632" lon="5.94865">
        <ele>1428.8</ele>
        <time>2026-07-19T06:30:34Z</time>
      </trkpt>
      <trkpt lat="45.19632" lon="5.94865">
        <ele>1429.6</ele>
        <time>2026-07-19T06:30:35Z</time>
      </trkpt>
      <trkpt lat="45.19632" lon="5.94866">
        <ele>1430.8</ele>
        <time>2026-07-19T06:30:36Z</time>
      </trkpt>
      <trkpt lat="45.19632" lon="5.9487">
        <ele>1431.8</ele>
        <time>2026-07-19T06:30:39Z</time>
      </trkpt>
      <trkpt lat="45.19633" lon="5.94873">
        <ele>1431.8</ele>
        <time>2026-07-19T06:30:41Z</time>
      </trkpt>
      <trkpt lat="45.19635" lon="5.94879">
        <ele>1432</ele>
        <time>2026-07-19T06:30:45Z</time>
      </trkpt>
      <trkpt lat="45.19636" lon="5.9488">
        <ele>1432.4</ele>
        <time>2026-07-19T06:30:46Z</time>
      </trkpt>
      <trkpt lat="45.1964" lon="5.94888">
        <ele>1433.4</ele>
        <time>2026-07-19T06:30:52Z</time>
      </trkpt>
      <trkpt lat="45.19641" lon="5.94889">
        <ele>1433.8</ele>
        <time>2026-07-19T06:30:53Z</time>
      </trkpt>
      <trkpt lat="45.19641" lon="5.94896">
        <ele>1433.6</ele>
        <time>2026-07-19T06:30:59Z</time>
      </trkpt>
      <trkpt lat="45.19639" lon="5.94898">
        <ele>1434.6</ele>
        <time>2026-07-19T06:31:04Z</time>
      </trkpt>
      <trkpt lat="45.19638" lon="5.949">
        <ele>1434.2</ele>
        <time>2026-07-19T06:31:09Z</time>
      </trkpt>
      <trkpt lat="45.19637" lon="5.949">
        <ele>1433.2</ele>
        <time>2026-07-19T06:31:15Z</time>
      </trkpt>
      <trkpt lat="45.19636" lon="5.94901">
        <ele>1431.8</ele>
        <time>2026-07-19T06:31:17Z</time>
      </trkpt>
      <trkpt lat="45.19632" lon="5.94904">
        <ele>1427.6</ele>
        <time>2026-07-19T06:31:19Z</time>
      </trkpt>
      <trkpt lat="45.19632" lon="5.94905">
        <ele>1427.4</ele>
        <time>2026-07-19T06:31:20Z</time>
      </trkpt>
      <trkpt lat="45.19632" lon="5.94907">
        <ele>1427.6</ele>
        <time>2026-07-19T06:31:27Z</time>
      </trkpt>
      <trkpt lat="45.19631" lon="5.94908">
        <ele>1426.2</ele>
        <time>2026-07-19T06:31:33Z</time>
      </trkpt>
      <trkpt lat="45.19631" lon="5.94908">
        <ele>1425.8</ele>
        <time>2026-07-19T06:31:35Z</time>
      </trkpt>
      <trkpt lat="45.19629" lon="5.94909">
        <ele>1424</ele>
        <time>2026-07-19T06:31:41Z</time>
      </trkpt>
      <trkpt lat="45.19627" lon="5.94911">
        <ele>1421.4</ele>
        <time>2026-07-19T06:31:42Z</time>
      </trkpt>
      <trkpt lat="45.19629" lon="5.94911">
        <ele>1422.6</ele>
        <time>2026-07-19T06:31:44Z</time>
      </trkpt>
      <trkpt lat="45.19629" lon="5.94911">
        <ele>1422.6</ele>
        <time>2026-07-19T06:31:45Z</time>
      </trkpt>
      <trkpt lat="45.19631" lon="5.94909">
        <ele>1423.6</ele>
        <time>2026-07-19T06:31:47Z</time>
      </trkpt>
      <trkpt lat="45.19631" lon="5.94909">
        <ele>1424.8</ele>
        <time>2026-07-19T06:31:52Z</time>
      </trkpt>
      <trkpt lat="45.19632" lon="5.94911">
        <ele>1426.6</ele>
        <time>2026-07-19T06:31:53Z</time>
      </trkpt>
      <trkpt lat="45.19632" lon="5.94914">
        <ele>1427.8</ele>
        <time>2026-07-19T06:31:54Z</time>
      </trkpt>
      <trkpt lat="45.19633" lon="5.94918">
        <ele>1429</ele>
        <time>2026-07-19T06:31:56Z</time>
      </trkpt>
      <trkpt lat="45.19634" lon="5.94919">
        <ele>1430.2</ele>
        <time>2026-07-19T06:31:57Z</time>
      </trkpt>
      <trkpt lat="45.19636" lon="5.94921">
        <ele>1430.4</ele>
        <time>2026-07-19T06:32:00Z</time>
      </trkpt>
      <trkpt lat="45.1964" lon="5.94922">
        <ele>1431.6</ele>
        <time>2026-07-19T06:32:02Z</time>
      </trkpt>
      <trkpt lat="45.19644" lon="5.94925">
        <ele>1430.8</ele>
        <time>2026-07-19T06:32:06Z</time>
      </trkpt>
      <trkpt lat="45.19644" lon="5.94926">
        <ele>1430.4</ele>
        <time>2026-07-19T06:32:07Z</time>
      </trkpt>
      <trkpt lat="45.19643" lon="5.94927">
        <ele>1429.4</ele>
        <time>2026-07-19T06:32:09Z</time>
      </trkpt>
      <trkpt lat="45.19643" lon="5.94929">
        <ele>1429.2</ele>
        <time>2026-07-19T06:32:10Z</time>
      </trkpt>
      <trkpt lat="45.19642" lon="5.9493">
        <ele>1429.2</ele>
        <time>2026-07-19T06:32:12Z</time>
      </trkpt>
      <trkpt lat="45.19644" lon="5.94931">
        <ele>1430.4</ele>
        <time>2026-07-19T06:32:13Z</time>
      </trkpt>
      <trkpt lat="45.19644" lon="5.94934">
        <ele>1431</ele>
        <time>2026-07-19T06:32:15Z</time>
      </trkpt>
      <trkpt lat="45.19644" lon="5.94938">
        <ele>1429.2</ele>
        <time>2026-07-19T06:32:18Z</time>
      </trkpt>
      <trkpt lat="45.19644" lon="5.94939">
        <ele>1428.8</ele>
        <time>2026-07-19T06:32:19Z</time>
      </trkpt>
      <trkpt lat="45.19642" lon="5.94942">
        <ele>1427</ele>
        <time>2026-07-19T06:32:20Z</time>
      </trkpt>
      <trkpt lat="45.1964" lon="5.94945">
        <ele>1425.2</ele>
        <time>2026-07-19T06:32:22Z</time>
      </trkpt>
      <trkpt lat="45.19639" lon="5.94947">
        <ele>1423.4</ele>
        <time>2026-07-19T06:32:23Z</time>
      </trkpt>
      <trkpt lat="45.19637" lon="5.94952">
        <ele>1421.8</ele>
        <time>2026-07-19T06:32:25Z</time>
      </trkpt>
      <trkpt lat="45.19634" lon="5.94958">
        <ele>1420.6</ele>
        <time>2026-07-19T06:32:27Z</time>
      </trkpt>
      <trkpt lat="45.19632" lon="5.94971">
        <ele>1420.8</ele>
        <time>2026-07-19T06:32:33Z</time>
      </trkpt>
      <trkpt lat="45.19632" lon="5.94973">
        <ele>1421.8</ele>
        <time>2026-07-19T06:32:34Z</time>
      </trkpt>
      <trkpt lat="45.19633" lon="5.94981">
        <ele>1422.4</ele>
        <time>2026-07-19T06:32:38Z</time>
      </trkpt>
      <trkpt lat="45.19631" lon="5.94994">
        <ele>1422.8</ele>
        <time>2026-07-19T06:32:44Z</time>
      </trkpt>
      <trkpt lat="45.19632" lon="5.94995">
        <ele>1422.8</ele>
        <time>2026-07-19T06:32:46Z</time>
      </trkpt>
      <trkpt lat="45.19632" lon="5.94998">
        <ele>1423</ele>
        <time>2026-07-19T06:32:47Z</time>
      </trkpt>
      <trkpt lat="45.19633" lon="5.95002">
        <ele>1423.2</ele>
        <time>2026-07-19T06:32:49Z</time>
      </trkpt>
      <trkpt lat="45.19632" lon="5.95004">
        <ele>1422.4</ele>
        <time>2026-07-19T06:32:50Z</time>
      </trkpt>
      <trkpt lat="45.19631" lon="5.95008">
        <ele>1421.8</ele>
        <time>2026-07-19T06:32:52Z</time>
      </trkpt>
      <trkpt lat="45.19629" lon="5.95011">
        <ele>1420.2</ele>
        <time>2026-07-19T06:32:54Z</time>
      </trkpt>
      <trkpt lat="45.19626" lon="5.95016">
        <ele>1418.2</ele>
        <time>2026-07-19T06:32:57Z</time>
      </trkpt>
      <trkpt lat="45.19623" lon="5.95019">
        <ele>1416.2</ele>
        <time>2026-07-19T06:32:59Z</time>
      </trkpt>
      <trkpt lat="45.19624" lon="5.95021">
        <ele>1416.2</ele>
        <time>2026-07-19T06:33:01Z</time>
      </trkpt>
      <trkpt lat="45.19623" lon="5.95023">
        <ele>1416</ele>
        <time>2026-07-19T06:33:02Z</time>
      </trkpt>
      <trkpt lat="45.19617" lon="5.95033">
        <ele>1416</ele>
        <time>2026-07-19T06:33:08Z</time>
      </trkpt>
      <trkpt lat="45.19613" lon="5.95037">
        <ele>1415.6</ele>
        <time>2026-07-19T06:33:11Z</time>
      </trkpt>
      <trkpt lat="45.19612" lon="5.95041">
        <ele>1416.6</ele>
        <time>2026-07-19T06:33:13Z</time>
      </trkpt>
      <trkpt lat="45.19612" lon="5.95043">
        <ele>1417.8</ele>
        <time>2026-07-19T06:33:14Z</time>
      </trkpt>
      <trkpt lat="45.1961" lon="5.95047">
        <ele>1419</ele>
        <time>2026-07-19T06:33:18Z</time>
      </trkpt>
      <trkpt lat="45.1961" lon="5.95049">
        <ele>1420.4</ele>
        <time>2026-07-19T06:33:20Z</time>
      </trkpt>
      <trkpt lat="45.1961" lon="5.95051">
        <ele>1421.6</ele>
        <time>2026-07-19T06:33:22Z</time>
      </trkpt>
      <trkpt lat="45.19612" lon="5.95055">
        <ele>1421.6</ele>
        <time>2026-07-19T06:33:25Z</time>
      </trkpt>
      <trkpt lat="45.19613" lon="5.95057">
        <ele>1422.2</ele>
        <time>2026-07-19T06:33:26Z</time>
      </trkpt>
      <trkpt lat="45.19615" lon="5.95063">
        <ele>1423</ele>
        <time>2026-07-19T06:33:30Z</time>
      </trkpt>
      <trkpt lat="45.19618" lon="5.95066">
        <ele>1424.8</ele>
        <time>2026-07-19T06:33:33Z</time>
      </trkpt>
      <trkpt lat="45.19619" lon="5.95068">
        <ele>1426.6</ele>
        <time>2026-07-19T06:33:35Z</time>
      </trkpt>
      <trkpt lat="45.1962" lon="5.95069">
        <ele>1427.8</ele>
        <time>2026-07-19T06:33:36Z</time>
      </trkpt>
      <trkpt lat="45.19621" lon="5.95071">
        <ele>1429.2</ele>
        <time>2026-07-19T06:33:38Z</time>
      </trkpt>
      <trkpt lat="45.19623" lon="5.95071">
        <ele>1429.8</ele>
        <time>2026-07-19T06:33:39Z</time>
      </trkpt>
      <trkpt lat="45.19624" lon="5.95072">
        <ele>1430.2</ele>
        <time>2026-07-19T06:33:40Z</time>
      </trkpt>
      <trkpt lat="45.19624" lon="5.95072">
        <ele>1430.6</ele>
        <time>2026-07-19T06:33:41Z</time>
      </trkpt>
      <trkpt lat="45.19624" lon="5.95072">
        <ele>1431.2</ele>
        <time>2026-07-19T06:33:42Z</time>
      </trkpt>
      <trkpt lat="45.19626" lon="5.95073">
        <ele>1432</ele>
        <time>2026-07-19T06:33:45Z</time>
      </trkpt>
      <trkpt lat="45.19629" lon="5.95074">
        <ele>1433.6</ele>
        <time>2026-07-19T06:33:47Z</time>
      </trkpt>
      <trkpt lat="45.19633" lon="5.95075">
        <ele>1434.8</ele>
        <time>2026-07-19T06:33:50Z</time>
      </trkpt>
      <trkpt lat="45.19635" lon="5.95075">
        <ele>1435.6</ele>
        <time>2026-07-19T06:33:51Z</time>
      </trkpt>
      <trkpt lat="45.19637" lon="5.95077">
        <ele>1437.8</ele>
        <time>2026-07-19T06:33:53Z</time>
      </trkpt>
      <trkpt lat="45.19638" lon="5.95078">
        <ele>1438</ele>
        <time>2026-07-19T06:33:54Z</time>
      </trkpt>
      <trkpt lat="45.19643" lon="5.95082">
        <ele>1438.8</ele>
        <time>2026-07-19T06:33:58Z</time>
      </trkpt>
      <trkpt lat="45.19644" lon="5.95083">
        <ele>1439.2</ele>
        <time>2026-07-19T06:33:59Z</time>
      </trkpt>
      <trkpt lat="45.19644" lon="5.95084">
        <ele>1439.2</ele>
        <time>2026-07-19T06:34:00Z</time>
      </trkpt>
      <trkpt lat="45.19648" lon="5.95088">
        <ele>1437.8</ele>
        <time>2026-07-19T06:34:03Z</time>
      </trkpt>
      <trkpt lat="45.1965" lon="5.95091">
        <ele>1437.4</ele>
        <time>2026-07-19T06:34:05Z</time>
      </trkpt>
      <trkpt lat="45.19651" lon="5.95094">
        <ele>1437</ele>
        <time>2026-07-19T06:34:07Z</time>
      </trkpt>
      <trkpt lat="45.19651" lon="5.95097">
        <ele>1436</ele>
        <time>2026-07-19T06:34:09Z</time>
      </trkpt>
      <trkpt lat="45.19651" lon="5.95099">
        <ele>1435.2</ele>
        <time>2026-07-19T06:34:10Z</time>
      </trkpt>
      <trkpt lat="45.19651" lon="5.95101">
        <ele>1434</ele>
        <time>2026-07-19T06:34:11Z</time>
      </trkpt>
      <trkpt lat="45.1965" lon="5.95104">
        <ele>1432.2</ele>
        <time>2026-07-19T06:34:13Z</time>
      </trkpt>
      <trkpt lat="45.1965" lon="5.95105">
        <ele>1432</ele>
        <time>2026-07-19T06:34:14Z</time>
      </trkpt>
      <trkpt lat="45.1965" lon="5.95106">
        <ele>1431.8</ele>
        <time>2026-07-19T06:34:15Z</time>
      </trkpt>
      <trkpt lat="45.1965" lon="5.95112">
        <ele>1433.4</ele>
        <time>2026-07-19T06:34:18Z</time>
      </trkpt>
      <trkpt lat="45.19649" lon="5.95117">
        <ele>1433</ele>
        <time>2026-07-19T06:34:22Z</time>
      </trkpt>
      <trkpt lat="45.1965" lon="5.95119">
        <ele>1433.4</ele>
        <time>2026-07-19T06:34:23Z</time>
      </trkpt>
      <trkpt lat="45.19652" lon="5.95122">
        <ele>1433.6</ele>
        <time>2026-07-19T06:34:26Z</time>
      </trkpt>
      <trkpt lat="45.19653" lon="5.95123">
        <ele>1433.6</ele>
        <time>2026-07-19T06:34:27Z</time>
      </trkpt>
      <trkpt lat="45.19654" lon="5.95125">
        <ele>1434.6</ele>
        <time>2026-07-19T06:34:28Z</time>
      </trkpt>
      <trkpt lat="45.19654" lon="5.95127">
        <ele>1435.6</ele>
        <time>2026-07-19T06:34:29Z</time>
      </trkpt>
      <trkpt lat="45.19655" lon="5.95129">
        <ele>1437</ele>
        <time>2026-07-19T06:34:31Z</time>
      </trkpt>
      <trkpt lat="45.19656" lon="5.9513">
        <ele>1438.6</ele>
        <time>2026-07-19T06:34:32Z</time>
      </trkpt>
      <trkpt lat="45.19655" lon="5.95132">
        <ele>1439.6</ele>
        <time>2026-07-19T06:34:33Z</time>
      </trkpt>
      <trkpt lat="45.19656" lon="5.95133">
        <ele>1440.6</ele>
        <time>2026-07-19T06:34:34Z</time>
      </trkpt>
      <trkpt lat="45.19657" lon="5.95136">
        <ele>1442.2</ele>
        <time>2026-07-19T06:34:36Z</time>
      </trkpt>
      <trkpt lat="45.19658" lon="5.95137">
        <ele>1443.8</ele>
        <time>2026-07-19T06:34:37Z</time>
      </trkpt>
      <trkpt lat="45.19659" lon="5.9514">
        <ele>1445</ele>
        <time>2026-07-19T06:34:39Z</time>
      </trkpt>
      <trkpt lat="45.19659" lon="5.95141">
        <ele>1446</ele>
        <time>2026-07-19T06:34:40Z</time>
      </trkpt>
      <trkpt lat="45.19663" lon="5.95146">
        <ele>1443.8</ele>
        <time>2026-07-19T06:34:43Z</time>
      </trkpt>
      <trkpt lat="45.19661" lon="5.95151">
        <ele>1442.8</ele>
        <time>2026-07-19T06:34:46Z</time>
      </trkpt>
      <trkpt lat="45.19661" lon="5.95153">
        <ele>1443</ele>
        <time>2026-07-19T06:34:47Z</time>
      </trkpt>
      <trkpt lat="45.19658" lon="5.95162">
        <ele>1443</ele>
        <time>2026-07-19T06:34:52Z</time>
      </trkpt>
      <trkpt lat="45.19652" lon="5.95173">
        <ele>1442.4</ele>
        <time>2026-07-19T06:34:57Z</time>
      </trkpt>
      <trkpt lat="45.19643" lon="5.95185">
        <ele>1441.6</ele>
        <time>2026-07-19T06:35:03Z</time>
      </trkpt>
      <trkpt lat="45.19641" lon="5.95186">
        <ele>1441.2</ele>
        <time>2026-07-19T06:35:04Z</time>
      </trkpt>
      <trkpt lat="45.19639" lon="5.95189">
        <ele>1439.4</ele>
        <time>2026-07-19T06:35:06Z</time>
      </trkpt>
      <trkpt lat="45.19637" lon="5.95192">
        <ele>1437.8</ele>
        <time>2026-07-19T06:35:08Z</time>
      </trkpt>
      <trkpt lat="45.19634" lon="5.95195">
        <ele>1436.8</ele>
        <time>2026-07-19T06:35:10Z</time>
      </trkpt>
      <trkpt lat="45.19633" lon="5.95195">
        <ele>1435.8</ele>
        <time>2026-07-19T06:35:11Z</time>
      </trkpt>
      <trkpt lat="45.1963" lon="5.95203">
        <ele>1437</ele>
        <time>2026-07-19T06:35:15Z</time>
      </trkpt>
      <trkpt lat="45.19629" lon="5.95205">
        <ele>1437.2</ele>
        <time>2026-07-19T06:35:16Z</time>
      </trkpt>
      <trkpt lat="45.19627" lon="5.95212">
        <ele>1438.4</ele>
        <time>2026-07-19T06:35:19Z</time>
      </trkpt>
      <trkpt lat="45.19624" lon="5.9522">
        <ele>1439.4</ele>
        <time>2026-07-19T06:35:24Z</time>
      </trkpt>
      <trkpt lat="45.19623" lon="5.95222">
        <ele>1439.8</ele>
        <time>2026-07-19T06:35:25Z</time>
      </trkpt>
      <trkpt lat="45.19622" lon="5.95229">
        <ele>1441.2</ele>
        <time>2026-07-19T06:35:28Z</time>
      </trkpt>
      <trkpt lat="45.19619" lon="5.95234">
        <ele>1440.6</ele>
        <time>2026-07-19T06:35:31Z</time>
      </trkpt>
      <trkpt lat="45.19617" lon="5.95237">
        <ele>1440</ele>
        <time>2026-07-19T06:35:33Z</time>
      </trkpt>
      <trkpt lat="45.19616" lon="5.95243">
        <ele>1441.8</ele>
        <time>2026-07-19T06:35:37Z</time>
      </trkpt>
      <trkpt lat="45.19617" lon="5.95246">
        <ele>1443</ele>
        <time>2026-07-19T06:35:39Z</time>
      </trkpt>
      <trkpt lat="45.19618" lon="5.95251">
        <ele>1444.4</ele>
        <time>2026-07-19T06:35:42Z</time>
      </trkpt>
      <trkpt lat="45.19618" lon="5.95254">
        <ele>1445</ele>
        <time>2026-07-19T06:35:44Z</time>
      </trkpt>
      <trkpt lat="45.19619" lon="5.95258">
        <ele>1445.8</ele>
        <time>2026-07-19T06:35:46Z</time>
      </trkpt>
      <trkpt lat="45.1962" lon="5.95267">
        <ele>1446.8</ele>
        <time>2026-07-19T06:35:52Z</time>
      </trkpt>
      <trkpt lat="45.19621" lon="5.95268">
        <ele>1447</ele>
        <time>2026-07-19T06:35:53Z</time>
      </trkpt>
      <trkpt lat="45.1962" lon="5.95269">
        <ele>1446.8</ele>
        <time>2026-07-19T06:35:54Z</time>
      </trkpt>
      <trkpt lat="45.1962" lon="5.95271">
        <ele>1447</ele>
        <time>2026-07-19T06:35:56Z</time>
      </trkpt>
      <trkpt lat="45.1962" lon="5.95274">
        <ele>1447.6</ele>
        <time>2026-07-19T06:35:59Z</time>
      </trkpt>
      <trkpt lat="45.1962" lon="5.95275">
        <ele>1447.2</ele>
        <time>2026-07-19T06:36:00Z</time>
      </trkpt>
      <trkpt lat="45.19619" lon="5.95277">
        <ele>1446.6</ele>
        <time>2026-07-19T06:36:02Z</time>
      </trkpt>
      <trkpt lat="45.19618" lon="5.9528">
        <ele>1446.2</ele>
        <time>2026-07-19T06:36:04Z</time>
      </trkpt>
      <trkpt lat="45.19618" lon="5.95281">
        <ele>1446.2</ele>
        <time>2026-07-19T06:36:06Z</time>
      </trkpt>
      <trkpt lat="45.19618" lon="5.95285">
        <ele>1448</ele>
        <time>2026-07-19T06:36:09Z</time>
      </trkpt>
      <trkpt lat="45.19617" lon="5.95291">
        <ele>1447.8</ele>
        <time>2026-07-19T06:36:12Z</time>
      </trkpt>
      <trkpt lat="45.19616" lon="5.95297">
        <ele>1447</ele>
        <time>2026-07-19T06:36:15Z</time>
      </trkpt>
      <trkpt lat="45.19617" lon="5.953">
        <ele>1449</ele>
        <time>2026-07-19T06:36:17Z</time>
      </trkpt>
      <trkpt lat="45.19617" lon="5.95302">
        <ele>1448.4</ele>
        <time>2026-07-19T06:36:19Z</time>
      </trkpt>
      <trkpt lat="45.19616" lon="5.95304">
        <ele>1447</ele>
        <time>2026-07-19T06:36:20Z</time>
      </trkpt>
      <trkpt lat="45.19615" lon="5.95308">
        <ele>1445.2</ele>
        <time>2026-07-19T06:36:22Z</time>
      </trkpt>
      <trkpt lat="45.19615" lon="5.95312">
        <ele>1443</ele>
        <time>2026-07-19T06:36:24Z</time>
      </trkpt>
      <trkpt lat="45.19615" lon="5.95315">
        <ele>1442.2</ele>
        <time>2026-07-19T06:36:25Z</time>
      </trkpt>
      <trkpt lat="45.19614" lon="5.95318">
        <ele>1441.8</ele>
        <time>2026-07-19T06:36:26Z</time>
      </trkpt>
      <trkpt lat="45.19613" lon="5.95333">
        <ele>1440.2</ele>
        <time>2026-07-19T06:36:30Z</time>
      </trkpt>
      <trkpt lat="45.19612" lon="5.95336">
        <ele>1439</ele>
        <time>2026-07-19T06:36:31Z</time>
      </trkpt>
      <trkpt lat="45.19608" lon="5.9534">
        <ele>1437.8</ele>
        <time>2026-07-19T06:36:34Z</time>
      </trkpt>
      <trkpt lat="45.19607" lon="5.95342">
        <ele>1437.6</ele>
        <time>2026-07-19T06:36:35Z</time>
      </trkpt>
      <trkpt lat="45.19605" lon="5.95344">
        <ele>1435.8</ele>
        <time>2026-07-19T06:36:37Z</time>
      </trkpt>
      <trkpt lat="45.19603" lon="5.95344">
        <ele>1435.4</ele>
        <time>2026-07-19T06:36:40Z</time>
      </trkpt>
      <trkpt lat="45.19602" lon="5.95347">
        <ele>1434</ele>
        <time>2026-07-19T06:36:42Z</time>
      </trkpt>
      <trkpt lat="45.196" lon="5.95348">
        <ele>1432.8</ele>
        <time>2026-07-19T06:36:44Z</time>
      </trkpt>
      <trkpt lat="45.19599" lon="5.95349">
        <ele>1433</ele>
        <time>2026-07-19T06:36:45Z</time>
      </trkpt>
      <trkpt lat="45.19595" lon="5.9535">
        <ele>1431.2</ele>
        <time>2026-07-19T06:36:47Z</time>
      </trkpt>
      <trkpt lat="45.19589" lon="5.95356">
        <ele>1429.2</ele>
        <time>2026-07-19T06:36:49Z</time>
      </trkpt>
      <trkpt lat="45.19585" lon="5.95359">
        <ele>1427.4</ele>
        <time>2026-07-19T06:36:50Z</time>
      </trkpt>
      <trkpt lat="45.19582" lon="5.95362">
        <ele>1426.2</ele>
        <time>2026-07-19T06:36:51Z</time>
      </trkpt>
      <trkpt lat="45.19579" lon="5.95364">
        <ele>1424.4</ele>
        <time>2026-07-19T06:36:52Z</time>
      </trkpt>
      <trkpt lat="45.19577" lon="5.95366">
        <ele>1422.8</ele>
        <time>2026-07-19T06:36:53Z</time>
      </trkpt>
      <trkpt lat="45.19574" lon="5.95368">
        <ele>1421.4</ele>
        <time>2026-07-19T06:36:54Z</time>
      </trkpt>
      <trkpt lat="45.19572" lon="5.9537">
        <ele>1419.4</ele>
        <time>2026-07-19T06:36:55Z</time>
      </trkpt>
      <trkpt lat="45.19569" lon="5.95373">
        <ele>1417.2</ele>
        <time>2026-07-19T06:36:56Z</time>
      </trkpt>
      <trkpt lat="45.19567" lon="5.95375">
        <ele>1415.4</ele>
        <time>2026-07-19T06:36:57Z</time>
      </trkpt>
      <trkpt lat="45.19562" lon="5.95378">
        <ele>1412.4</ele>
        <time>2026-07-19T06:36:59Z</time>
      </trkpt>
      <trkpt lat="45.1956" lon="5.95378">
        <ele>1411</ele>
        <time>2026-07-19T06:37:00Z</time>
      </trkpt>
      <trkpt lat="45.19557" lon="5.95378">
        <ele>1408.6</ele>
        <time>2026-07-19T06:37:01Z</time>
      </trkpt>
      <trkpt lat="45.19556" lon="5.95378">
        <ele>1407.8</ele>
        <time>2026-07-19T06:37:02Z</time>
      </trkpt>
      <trkpt lat="45.19547" lon="5.95382">
        <ele>1406</ele>
        <time>2026-07-19T06:37:06Z</time>
      </trkpt>
      <trkpt lat="45.19542" lon="5.95381">
        <ele>1405.4</ele>
        <time>2026-07-19T06:37:08Z</time>
      </trkpt>
      <trkpt lat="45.1954" lon="5.95381">
        <ele>1404.2</ele>
        <time>2026-07-19T06:37:09Z</time>
      </trkpt>
      <trkpt lat="45.19538" lon="5.95381">
        <ele>1403</ele>
        <time>2026-07-19T06:37:10Z</time>
      </trkpt>
      <trkpt lat="45.19532" lon="5.95384">
        <ele>1404.4</ele>
        <time>2026-07-19T06:37:14Z</time>
      </trkpt>
      <trkpt lat="45.1953" lon="5.95386">
        <ele>1405.2</ele>
        <time>2026-07-19T06:37:15Z</time>
      </trkpt>
      <trkpt lat="45.1952" lon="5.95387">
        <ele>1403.6</ele>
        <time>2026-07-19T06:37:21Z</time>
      </trkpt>
      <trkpt lat="45.19518" lon="5.95391">
        <ele>1406</ele>
        <time>2026-07-19T06:37:23Z</time>
      </trkpt>
      <trkpt lat="45.19516" lon="5.95394">
        <ele>1407.4</ele>
        <time>2026-07-19T06:37:24Z</time>
      </trkpt>
      <trkpt lat="45.19513" lon="5.95397">
        <ele>1409.2</ele>
        <time>2026-07-19T06:37:26Z</time>
      </trkpt>
      <trkpt lat="45.19512" lon="5.95399">
        <ele>1410.4</ele>
        <time>2026-07-19T06:37:27Z</time>
      </trkpt>
      <trkpt lat="45.19511" lon="5.954">
        <ele>1411.2</ele>
        <time>2026-07-19T06:37:28Z</time>
      </trkpt>
      <trkpt lat="45.19509" lon="5.95402">
        <ele>1412.8</ele>
        <time>2026-07-19T06:37:29Z</time>
      </trkpt>
      <trkpt lat="45.19505" lon="5.95406">
        <ele>1416.6</ele>
        <time>2026-07-19T06:37:31Z</time>
      </trkpt>
      <trkpt lat="45.19504" lon="5.95409">
        <ele>1419.8</ele>
        <time>2026-07-19T06:37:32Z</time>
      </trkpt>
      <trkpt lat="45.19503" lon="5.95411">
        <ele>1422</ele>
        <time>2026-07-19T06:37:33Z</time>
      </trkpt>
      <trkpt lat="45.19502" lon="5.95413">
        <ele>1423.8</ele>
        <time>2026-07-19T06:37:34Z</time>
      </trkpt>
      <trkpt lat="45.19498" lon="5.95416">
        <ele>1425.4</ele>
        <time>2026-07-19T06:37:36Z</time>
      </trkpt>
      <trkpt lat="45.19497" lon="5.95418">
        <ele>1427.2</ele>
        <time>2026-07-19T06:37:37Z</time>
      </trkpt>
      <trkpt lat="45.19496" lon="5.9542">
        <ele>1427.8</ele>
        <time>2026-07-19T06:37:38Z</time>
      </trkpt>
      <trkpt lat="45.19494" lon="5.95421">
        <ele>1427.6</ele>
        <time>2026-07-19T06:37:39Z</time>
      </trkpt>
      <trkpt lat="45.19493" lon="5.95423">
        <ele>1429.2</ele>
        <time>2026-07-19T06:37:40Z</time>
      </trkpt>
      <trkpt lat="45.19484" lon="5.95434">
        <ele>1430.4</ele>
        <time>2026-07-19T06:37:44Z</time>
      </trkpt>
      <trkpt lat="45.19482" lon="5.95435">
        <ele>1429.4</ele>
        <time>2026-07-19T06:37:45Z</time>
      </trkpt>
      <trkpt lat="45.1948" lon="5.95438">
        <ele>1428.4</ele>
        <time>2026-07-19T06:37:46Z</time>
      </trkpt>
      <trkpt lat="45.19477" lon="5.95443">
        <ele>1429.6</ele>
        <time>2026-07-19T06:37:48Z</time>
      </trkpt>
      <trkpt lat="45.19475" lon="5.9545">
        <ele>1429.4</ele>
        <time>2026-07-19T06:37:50Z</time>
      </trkpt>
      <trkpt lat="45.19473" lon="5.95453">
        <ele>1428</ele>
        <time>2026-07-19T06:37:51Z</time>
      </trkpt>
      <trkpt lat="45.19471" lon="5.95454">
        <ele>1426</ele>
        <time>2026-07-19T06:37:52Z</time>
      </trkpt>
      <trkpt lat="45.19472" lon="5.95456">
        <ele>1426.2</ele>
        <time>2026-07-19T06:37:53Z</time>
      </trkpt>
      <trkpt lat="45.19472" lon="5.95463">
        <ele>1427.8</ele>
        <time>2026-07-19T06:37:55Z</time>
      </trkpt>
      <trkpt lat="45.19472" lon="5.95467">
        <ele>1429.6</ele>
        <time>2026-07-19T06:37:56Z</time>
      </trkpt>
      <trkpt lat="45.19472" lon="5.95473">
        <ele>1432.6</ele>
        <time>2026-07-19T06:37:57Z</time>
      </trkpt>
      <trkpt lat="45.1947" lon="5.95477">
        <ele>1430</ele>
        <time>2026-07-19T06:37:58Z</time>
      </trkpt>
      <trkpt lat="45.19468" lon="5.95479">
        <ele>1428.6</ele>
        <time>2026-07-19T06:37:59Z</time>
      </trkpt>
      <trkpt lat="45.19466" lon="5.95482">
        <ele>1427.4</ele>
        <time>2026-07-19T06:38:00Z</time>
      </trkpt>
      <trkpt lat="45.19465" lon="5.95483">
        <ele>1426</ele>
        <time>2026-07-19T06:38:01Z</time>
      </trkpt>
      <trkpt lat="45.19463" lon="5.95484">
        <ele>1424.4</ele>
        <time>2026-07-19T06:38:03Z</time>
      </trkpt>
      <trkpt lat="45.19462" lon="5.95484">
        <ele>1423.4</ele>
        <time>2026-07-19T06:38:04Z</time>
      </trkpt>
      <trkpt lat="45.19461" lon="5.95485">
        <ele>1423.2</ele>
        <time>2026-07-19T06:38:05Z</time>
      </trkpt>
      <trkpt lat="45.19458" lon="5.9549">
        <ele>1425.2</ele>
        <time>2026-07-19T06:38:12Z</time>
      </trkpt>
      <trkpt lat="45.19459" lon="5.95491">
        <ele>1426.8</ele>
        <time>2026-07-19T06:38:13Z</time>
      </trkpt>
      <trkpt lat="45.1946" lon="5.95492">
        <ele>1428.4</ele>
        <time>2026-07-19T06:38:14Z</time>
      </trkpt>
      <trkpt lat="45.19461" lon="5.95493">
        <ele>1429.6</ele>
        <time>2026-07-19T06:38:15Z</time>
      </trkpt>
      <trkpt lat="45.19462" lon="5.95494">
        <ele>1431</ele>
        <time>2026-07-19T06:38:17Z</time>
      </trkpt>
      <trkpt lat="45.19462" lon="5.95493">
        <ele>1430</ele>
        <time>2026-07-19T06:38:20Z</time>
      </trkpt>
      <trkpt lat="45.19461" lon="5.95493">
        <ele>1429.6</ele>
        <time>2026-07-19T06:38:21Z</time>
      </trkpt>
      <trkpt lat="45.19459" lon="5.95493">
        <ele>1428.4</ele>
        <time>2026-07-19T06:38:23Z</time>
      </trkpt>
      <trkpt lat="45.19457" lon="5.95493">
        <ele>1426.8</ele>
        <time>2026-07-19T06:38:26Z</time>
      </trkpt>
      <trkpt lat="45.19455" lon="5.95493">
        <ele>1425.2</ele>
        <time>2026-07-19T06:38:28Z</time>
      </trkpt>
      <trkpt lat="45.19452" lon="5.95495">
        <ele>1423.6</ele>
        <time>2026-07-19T06:38:30Z</time>
      </trkpt>
      <trkpt lat="45.19451" lon="5.95496">
        <ele>1422.6</ele>
        <time>2026-07-19T06:38:34Z</time>
      </trkpt>
      <trkpt lat="45.1945" lon="5.95496">
        <ele>1421.6</ele>
        <time>2026-07-19T06:38:36Z</time>
      </trkpt>
      <trkpt lat="45.1945" lon="5.95496">
        <ele>1421.2</ele>
        <time>2026-07-19T06:38:37Z</time>
      </trkpt>
      <trkpt lat="45.19445" lon="5.95498">
        <ele>1421.8</ele>
        <time>2026-07-19T06:38:42Z</time>
      </trkpt>
      <trkpt lat="45.19439" lon="5.95497">
        <ele>1422</ele>
        <time>2026-07-19T06:38:47Z</time>
      </trkpt>
      <trkpt lat="45.19436" lon="5.95497">
        <ele>1422.6</ele>
        <time>2026-07-19T06:38:48Z</time>
      </trkpt>
      <trkpt lat="45.19435" lon="5.95496">
        <ele>1423.8</ele>
        <time>2026-07-19T06:38:49Z</time>
      </trkpt>
      <trkpt lat="45.1943" lon="5.95493">
        <ele>1425.4</ele>
        <time>2026-07-19T06:38:52Z</time>
      </trkpt>
      <trkpt lat="45.19423" lon="5.95487">
        <ele>1425.6</ele>
        <time>2026-07-19T06:38:57Z</time>
      </trkpt>
      <trkpt lat="45.19419" lon="5.95485">
        <ele>1426.4</ele>
        <time>2026-07-19T06:39:00Z</time>
      </trkpt>
      <trkpt lat="45.19419" lon="5.95485">
        <ele>1428.2</ele>
        <time>2026-07-19T06:39:02Z</time>
      </trkpt>
      <trkpt lat="45.19419" lon="5.95484">
        <ele>1429</ele>
        <time>2026-07-19T06:39:03Z</time>
      </trkpt>
      <trkpt lat="45.19418" lon="5.95482">
        <ele>1429</ele>
        <time>2026-07-19T06:39:04Z</time>
      </trkpt>
      <trkpt lat="45.19418" lon="5.95481">
        <ele>1429.4</ele>
        <time>2026-07-19T06:39:05Z</time>
      </trkpt>
      <trkpt lat="45.19414" lon="5.95475">
        <ele>1427.8</ele>
        <time>2026-07-19T06:39:09Z</time>
      </trkpt>
      <trkpt lat="45.19414" lon="5.95473">
        <ele>1428.2</ele>
        <time>2026-07-19T06:39:10Z</time>
      </trkpt>
      <trkpt lat="45.19412" lon="5.95472">
        <ele>1426.6</ele>
        <time>2026-07-19T06:39:11Z</time>
      </trkpt>
      <trkpt lat="45.1941" lon="5.9547">
        <ele>1424.6</ele>
        <time>2026-07-19T06:39:12Z</time>
      </trkpt>
      <trkpt lat="45.19408" lon="5.95468">
        <ele>1423.4</ele>
        <time>2026-07-19T06:39:13Z</time>
      </trkpt>
      <trkpt lat="45.19405" lon="5.95466">
        <ele>1422</ele>
        <time>2026-07-19T06:39:15Z</time>
      </trkpt>
      <trkpt lat="45.19402" lon="5.95464">
        <ele>1419.8</ele>
        <time>2026-07-19T06:39:17Z</time>
      </trkpt>
      <trkpt lat="45.194" lon="5.95462">
        <ele>1418</ele>
        <time>2026-07-19T06:39:18Z</time>
      </trkpt>
      <trkpt lat="45.1939" lon="5.95461">
        <ele>1416.6</ele>
        <time>2026-07-19T06:39:22Z</time>
      </trkpt>
      <trkpt lat="45.19387" lon="5.95458">
        <ele>1417</ele>
        <time>2026-07-19T06:39:24Z</time>
      </trkpt>
      <trkpt lat="45.19387" lon="5.95457">
        <ele>1418.2</ele>
        <time>2026-07-19T06:39:25Z</time>
      </trkpt>
      <trkpt lat="45.19387" lon="5.95457">
        <ele>1419.8</ele>
        <time>2026-07-19T06:39:26Z</time>
      </trkpt>
      <trkpt lat="45.19386" lon="5.95457">
        <ele>1420.2</ele>
        <time>2026-07-19T06:39:27Z</time>
      </trkpt>
      <trkpt lat="45.19386" lon="5.95456">
        <ele>1420</ele>
        <time>2026-07-19T06:39:30Z</time>
      </trkpt>
      <trkpt lat="45.19385" lon="5.95455">
        <ele>1418.2</ele>
        <time>2026-07-19T06:39:32Z</time>
      </trkpt>
      <trkpt lat="45.19384" lon="5.95453">
        <ele>1416.6</ele>
        <time>2026-07-19T06:39:34Z</time>
      </trkpt>
      <trkpt lat="45.19384" lon="5.95451">
        <ele>1414.8</ele>
        <time>2026-07-19T06:39:35Z</time>
      </trkpt>
      <trkpt lat="45.19383" lon="5.9545">
        <ele>1413.4</ele>
        <time>2026-07-19T06:39:36Z</time>
      </trkpt>
      <trkpt lat="45.19382" lon="5.95448">
        <ele>1411.4</ele>
        <time>2026-07-19T06:39:38Z</time>
      </trkpt>
      <trkpt lat="45.19381" lon="5.95448">
        <ele>1410.2</ele>
        <time>2026-07-19T06:39:40Z</time>
      </trkpt>
      <trkpt lat="45.19378" lon="5.95456">
        <ele>1408.6</ele>
        <time>2026-07-19T06:39:44Z</time>
      </trkpt>
      <trkpt lat="45.19373" lon="5.95466">
        <ele>1409.2</ele>
        <time>2026-07-19T06:39:48Z</time>
      </trkpt>
      <trkpt lat="45.19369" lon="5.95473">
        <ele>1407.4</ele>
        <time>2026-07-19T06:39:53Z</time>
      </trkpt>
      <trkpt lat="45.19368" lon="5.95471">
        <ele>1408.4</ele>
        <time>2026-07-19T06:39:55Z</time>
      </trkpt>
      <trkpt lat="45.19368" lon="5.9547">
        <ele>1411.2</ele>
        <time>2026-07-19T06:39:57Z</time>
      </trkpt>
      <trkpt lat="45.19369" lon="5.9547">
        <ele>1412.6</ele>
        <time>2026-07-19T06:39:58Z</time>
      </trkpt>
      <trkpt lat="45.19368" lon="5.95469">
        <ele>1414</ele>
        <time>2026-07-19T06:40:00Z</time>
      </trkpt>
      <trkpt lat="45.19366" lon="5.95466">
        <ele>1414.4</ele>
        <time>2026-07-19T06:40:02Z</time>
      </trkpt>
      <trkpt lat="45.19366" lon="5.95462">
        <ele>1415.8</ele>
        <time>2026-07-19T06:40:05Z</time>
      </trkpt>
      <trkpt lat="45.19365" lon="5.95459">
        <ele>1417.4</ele>
        <time>2026-07-19T06:40:07Z</time>
      </trkpt>
      <trkpt lat="45.19365" lon="5.95458">
        <ele>1418.4</ele>
        <time>2026-07-19T06:40:08Z</time>
      </trkpt>
      <trkpt lat="45.19364" lon="5.95457">
        <ele>1418.8</ele>
        <time>2026-07-19T06:40:09Z</time>
      </trkpt>
      <trkpt lat="45.19364" lon="5.95457">
        <ele>1420.8</ele>
        <time>2026-07-19T06:40:10Z</time>
      </trkpt>
      <trkpt lat="45.19365" lon="5.95457">
        <ele>1422</ele>
        <time>2026-07-19T06:40:11Z</time>
      </trkpt>
      <trkpt lat="45.19365" lon="5.95456">
        <ele>1422.6</ele>
        <time>2026-07-19T06:40:12Z</time>
      </trkpt>
      <trkpt lat="45.19365" lon="5.95456">
        <ele>1423.2</ele>
        <time>2026-07-19T06:40:13Z</time>
      </trkpt>
      <trkpt lat="45.19365" lon="5.95455">
        <ele>1423.6</ele>
        <time>2026-07-19T06:40:14Z</time>
      </trkpt>
      <trkpt lat="45.19364" lon="5.95454">
        <ele>1423.6</ele>
        <time>2026-07-19T06:40:16Z</time>
      </trkpt>
      <trkpt lat="45.19362" lon="5.95447">
        <ele>1422</ele>
        <time>2026-07-19T06:40:19Z</time>
      </trkpt>
      <trkpt lat="45.19361" lon="5.95444">
        <ele>1422.6</ele>
        <time>2026-07-19T06:40:21Z</time>
      </trkpt>
      <trkpt lat="45.19361" lon="5.95442">
        <ele>1424</ele>
        <time>2026-07-19T06:40:24Z</time>
      </trkpt>
      <trkpt lat="45.19361" lon="5.95441">
        <ele>1425.2</ele>
        <time>2026-07-19T06:40:25Z</time>
      </trkpt>
      <trkpt lat="45.19362" lon="5.95443">
        <ele>1427.6</ele>
        <time>2026-07-19T06:40:27Z</time>
      </trkpt>
      <trkpt lat="45.19363" lon="5.95443">
        <ele>1428.8</ele>
        <time>2026-07-19T06:40:28Z</time>
      </trkpt>
      <trkpt lat="45.19363" lon="5.95444">
        <ele>1430.2</ele>
        <time>2026-07-19T06:40:30Z</time>
      </trkpt>
      <trkpt lat="45.19363" lon="5.95445">
        <ele>1432.6</ele>
        <time>2026-07-19T06:40:32Z</time>
      </trkpt>
      <trkpt lat="45.19363" lon="5.95445">
        <ele>1434.4</ele>
        <time>2026-07-19T06:40:34Z</time>
      </trkpt>
      <trkpt lat="45.19363" lon="5.95445">
        <ele>1434.8</ele>
        <time>2026-07-19T06:40:35Z</time>
      </trkpt>
      <trkpt lat="45.19363" lon="5.95446">
        <ele>1437</ele>
        <time>2026-07-19T06:40:36Z</time>
      </trkpt>
      <trkpt lat="45.19363" lon="5.95447">
        <ele>1439</ele>
        <time>2026-07-19T06:40:37Z</time>
      </trkpt>
      <trkpt lat="45.19364" lon="5.95447">
        <ele>1440.4</ele>
        <time>2026-07-19T06:40:38Z</time>
      </trkpt>
      <trkpt lat="45.19364" lon="5.95448">
        <ele>1442.8</ele>
        <time>2026-07-19T06:40:39Z</time>
      </trkpt>
      <trkpt lat="45.19364" lon="5.95447">
        <ele>1445.4</ele>
        <time>2026-07-19T06:40:41Z</time>
      </trkpt>
      <trkpt lat="45.19363" lon="5.95447">
        <ele>1445.8</ele>
        <time>2026-07-19T06:40:42Z</time>
      </trkpt>
      <trkpt lat="45.19363" lon="5.95446">
        <ele>1447.2</ele>
        <time>2026-07-19T06:40:44Z</time>
      </trkpt>
      <trkpt lat="45.19363" lon="5.95442">
        <ele>1448</ele>
        <time>2026-07-19T06:40:49Z</time>
      </trkpt>
      <trkpt lat="45.19363" lon="5.9544">
        <ele>1448.4</ele>
        <time>2026-07-19T06:40:52Z</time>
      </trkpt>
      <trkpt lat="45.19364" lon="5.9544">
        <ele>1451</ele>
        <time>2026-07-19T06:40:55Z</time>
      </trkpt>
      <trkpt lat="45.19365" lon="5.9544">
        <ele>1453.6</ele>
        <time>2026-07-19T06:40:56Z</time>
      </trkpt>
      <trkpt lat="45.19367" lon="5.95441">
        <ele>1457.6</ele>
        <time>2026-07-19T06:40:57Z</time>
      </trkpt>
      <trkpt lat="45.19368" lon="5.95441">
        <ele>1461.8</ele>
        <time>2026-07-19T06:40:58Z</time>
      </trkpt>
      <trkpt lat="45.19371" lon="5.95442">
        <ele>1466.4</ele>
        <time>2026-07-19T06:40:59Z</time>
      </trkpt>
      <trkpt lat="45.19373" lon="5.95444">
        <ele>1471.4</ele>
        <time>2026-07-19T06:41:00Z</time>
      </trkpt>
      <trkpt lat="45.19374" lon="5.95445">
        <ele>1475</ele>
        <time>2026-07-19T06:41:01Z</time>
      </trkpt>
      <trkpt lat="45.19375" lon="5.95446">
        <ele>1477.6</ele>
        <time>2026-07-19T06:41:02Z</time>
      </trkpt>
      <trkpt lat="45.19376" lon="5.95447">
        <ele>1479</ele>
        <time>2026-07-19T06:41:03Z</time>
      </trkpt>
      <trkpt lat="45.19376" lon="5.95447">
        <ele>1480.4</ele>
        <time>2026-07-19T06:41:05Z</time>
      </trkpt>
      <trkpt lat="45.19377" lon="5.95448">
        <ele>1481.2</ele>
        <time>2026-07-19T06:41:08Z</time>
      </trkpt>
      <trkpt lat="45.19377" lon="5.95448">
        <ele>1481.8</ele>
        <time>2026-07-19T06:41:09Z</time>
      </trkpt>
      <trkpt lat="45.19375" lon="5.95449">
        <ele>1480.6</ele>
        <time>2026-07-19T06:41:13Z</time>
      </trkpt>
      <trkpt lat="45.19373" lon="5.95454">
        <ele>1479.2</ele>
        <time>2026-07-19T06:41:15Z</time>
      </trkpt>
      <trkpt lat="45.19372" lon="5.95457">
        <ele>1479.6</ele>
        <time>2026-07-19T06:41:17Z</time>
      </trkpt>
      <trkpt lat="45.1937" lon="5.95459">
        <ele>1478</ele>
        <time>2026-07-19T06:41:21Z</time>
      </trkpt>
      <trkpt lat="45.19371" lon="5.95459">
        <ele>1479.6</ele>
        <time>2026-07-19T06:41:23Z</time>
      </trkpt>
      <trkpt lat="45.19371" lon="5.9546">
        <ele>1480.4</ele>
        <time>2026-07-19T06:41:24Z</time>
      </trkpt>
      <trkpt lat="45.19371" lon="5.9546">
        <ele>1481</ele>
        <time>2026-07-19T06:41:25Z</time>
      </trkpt>
      <trkpt lat="45.19372" lon="5.95462">
        <ele>1482.6</ele>
        <time>2026-07-19T06:41:28Z</time>
      </trkpt>
      <trkpt lat="45.19375" lon="5.95461">
        <ele>1483.8</ele>
        <time>2026-07-19T06:41:32Z</time>
      </trkpt>
      <trkpt lat="45.19375" lon="5.9546">
        <ele>1482.6</ele>
        <time>2026-07-19T06:41:33Z</time>
      </trkpt>
      <trkpt lat="45.19374" lon="5.95459">
        <ele>1480.8</ele>
        <time>2026-07-19T06:41:34Z</time>
      </trkpt>
      <trkpt lat="45.19373" lon="5.95457">
        <ele>1478.8</ele>
        <time>2026-07-19T06:41:35Z</time>
      </trkpt>
      <trkpt lat="45.19375" lon="5.95456">
        <ele>1479.6</ele>
        <time>2026-07-19T06:41:40Z</time>
      </trkpt>
      <trkpt lat="45.19376" lon="5.95454">
        <ele>1480.2</ele>
        <time>2026-07-19T06:41:41Z</time>
      </trkpt>
      <trkpt lat="45.19378" lon="5.95446">
        <ele>1478</ele>
        <time>2026-07-19T06:41:46Z</time>
      </trkpt>
      <trkpt lat="45.19377" lon="5.95445">
        <ele>1476.8</ele>
        <time>2026-07-19T06:41:47Z</time>
      </trkpt>
      <trkpt lat="45.19376" lon="5.95445">
        <ele>1475.4</ele>
        <time>2026-07-19T06:41:48Z</time>
      </trkpt>
      <trkpt lat="45.19376" lon="5.95442">
        <ele>1473.4</ele>
        <time>2026-07-19T06:41:50Z</time>
      </trkpt>
      <trkpt lat="45.19378" lon="5.95439">
        <ele>1471.8</ele>
        <time>2026-07-19T06:41:53Z</time>
      </trkpt>
      <trkpt lat="45.19378" lon="5.95439">
        <ele>1471.4</ele>
        <time>2026-07-19T06:41:54Z</time>
      </trkpt>
      <trkpt lat="45.19377" lon="5.95438">
        <ele>1470.2</ele>
        <time>2026-07-19T06:41:56Z</time>
      </trkpt>
      <trkpt lat="45.19376" lon="5.95437">
        <ele>1468.8</ele>
        <time>2026-07-19T06:41:57Z</time>
      </trkpt>
      <trkpt lat="45.19376" lon="5.95437">
        <ele>1467.2</ele>
        <time>2026-07-19T06:41:58Z</time>
      </trkpt>
      <trkpt lat="45.19376" lon="5.95437">
        <ele>1465.8</ele>
        <time>2026-07-19T06:41:59Z</time>
      </trkpt>
      <trkpt lat="45.19376" lon="5.95436">
        <ele>1464.2</ele>
        <time>2026-07-19T06:42:01Z</time>
      </trkpt>
      <trkpt lat="45.19376" lon="5.95436">
        <ele>1463.6</ele>
        <time>2026-07-19T06:42:02Z</time>
      </trkpt>
      <trkpt lat="45.19376" lon="5.95436">
        <ele>1462.6</ele>
        <time>2026-07-19T06:42:03Z</time>
      </trkpt>
      <trkpt lat="45.19376" lon="5.95436">
        <ele>1461</ele>
        <time>2026-07-19T06:42:04Z</time>
      </trkpt>
      <trkpt lat="45.19375" lon="5.95436">
        <ele>1459.6</ele>
        <time>2026-07-19T06:42:05Z</time>
      </trkpt>
      <trkpt lat="45.19374" lon="5.95436">
        <ele>1458.2</ele>
        <time>2026-07-19T06:42:07Z</time>
      </trkpt>
      <trkpt lat="45.19373" lon="5.95436">
        <ele>1456.6</ele>
        <time>2026-07-19T06:42:09Z</time>
      </trkpt>
      <trkpt lat="45.19371" lon="5.95437">
        <ele>1454.6</ele>
        <time>2026-07-19T06:42:10Z</time>
      </trkpt>
      <trkpt lat="45.1937" lon="5.95438">
        <ele>1453.2</ele>
        <time>2026-07-19T06:42:11Z</time>
      </trkpt>
      <trkpt lat="45.19367" lon="5.9544">
        <ele>1451</ele>
        <time>2026-07-19T06:42:12Z</time>
      </trkpt>
      <trkpt lat="45.19366" lon="5.95442">
        <ele>1449.8</ele>
        <time>2026-07-19T06:42:13Z</time>
      </trkpt>
      <trkpt lat="45.19365" lon="5.95445">
        <ele>1448.6</ele>
        <time>2026-07-19T06:42:14Z</time>
      </trkpt>
      <trkpt lat="45.19363" lon="5.95451">
        <ele>1447.4</ele>
        <time>2026-07-19T06:42:15Z</time>
      </trkpt>
      <trkpt lat="45.19363" lon="5.95455">
        <ele>1446.2</ele>
        <time>2026-07-19T06:42:17Z</time>
      </trkpt>
      <trkpt lat="45.19364" lon="5.95456">
        <ele>1446.2</ele>
        <time>2026-07-19T06:42:18Z</time>
      </trkpt>
      <trkpt lat="45.19365" lon="5.95456">
        <ele>1447.6</ele>
        <time>2026-07-19T06:42:20Z</time>
      </trkpt>
      <trkpt lat="45.19367" lon="5.95456">
        <ele>1449.4</ele>
        <time>2026-07-19T06:42:22Z</time>
      </trkpt>
      <trkpt lat="45.19369" lon="5.95458">
        <ele>1451.2</ele>
        <time>2026-07-19T06:42:25Z</time>
      </trkpt>
      <trkpt lat="45.1937" lon="5.95459">
        <ele>1452.2</ele>
        <time>2026-07-19T06:42:26Z</time>
      </trkpt>
      <trkpt lat="45.1937" lon="5.95463">
        <ele>1453.8</ele>
        <time>2026-07-19T06:42:28Z</time>
      </trkpt>
      <trkpt lat="45.19369" lon="5.95465">
        <ele>1455</ele>
        <time>2026-07-19T06:42:30Z</time>
      </trkpt>
      <trkpt lat="45.19366" lon="5.95473">
        <ele>1453.8</ele>
        <time>2026-07-19T06:42:35Z</time>
      </trkpt>
      <trkpt lat="45.19365" lon="5.95474">
        <ele>1452.6</ele>
        <time>2026-07-19T06:42:36Z</time>
      </trkpt>
      <trkpt lat="45.19362" lon="5.95477">
        <ele>1451.2</ele>
        <time>2026-07-19T06:42:38Z</time>
      </trkpt>
      <trkpt lat="45.19361" lon="5.95478">
        <ele>1450.2</ele>
        <time>2026-07-19T06:42:39Z</time>
      </trkpt>
      <trkpt lat="45.19359" lon="5.95479">
        <ele>1447.8</ele>
        <time>2026-07-19T06:42:41Z</time>
      </trkpt>
      <trkpt lat="45.19358" lon="5.9548">
        <ele>1446</ele>
        <time>2026-07-19T06:42:42Z</time>
      </trkpt>
      <trkpt lat="45.19356" lon="5.95481">
        <ele>1444</ele>
        <time>2026-07-19T06:42:43Z</time>
      </trkpt>
      <trkpt lat="45.19355" lon="5.95482">
        <ele>1442.6</ele>
        <time>2026-07-19T06:42:44Z</time>
      </trkpt>
      <trkpt lat="45.19354" lon="5.95483">
        <ele>1441</ele>
        <time>2026-07-19T06:42:45Z</time>
      </trkpt>
      <trkpt lat="45.19353" lon="5.95485">
        <ele>1439.6</ele>
        <time>2026-07-19T06:42:46Z</time>
      </trkpt>
      <trkpt lat="45.19352" lon="5.95486">
        <ele>1438</ele>
        <time>2026-07-19T06:42:47Z</time>
      </trkpt>
      <trkpt lat="45.1935" lon="5.95487">
        <ele>1436.2</ele>
        <time>2026-07-19T06:42:48Z</time>
      </trkpt>
      <trkpt lat="45.19349" lon="5.95489">
        <ele>1434.8</ele>
        <time>2026-07-19T06:42:49Z</time>
      </trkpt>
      <trkpt lat="45.19348" lon="5.9549">
        <ele>1433.4</ele>
        <time>2026-07-19T06:42:50Z</time>
      </trkpt>
      <trkpt lat="45.19347" lon="5.95492">
        <ele>1432.2</ele>
        <time>2026-07-19T06:42:51Z</time>
      </trkpt>
      <trkpt lat="45.19346" lon="5.95497">
        <ele>1431</ele>
        <time>2026-07-19T06:42:53Z</time>
      </trkpt>
      <trkpt lat="45.19344" lon="5.95502">
        <ele>1430</ele>
        <time>2026-07-19T06:42:55Z</time>
      </trkpt>
      <trkpt lat="45.19344" lon="5.95505">
        <ele>1432.8</ele>
        <time>2026-07-19T06:42:57Z</time>
      </trkpt>
      <trkpt lat="45.19344" lon="5.95507">
        <ele>1434.4</ele>
        <time>2026-07-19T06:42:58Z</time>
      </trkpt>
      <trkpt lat="45.19344" lon="5.95512">
        <ele>1435.8</ele>
        <time>2026-07-19T06:43:00Z</time>
      </trkpt>
      <trkpt lat="45.19349" lon="5.95501">
        <ele>1437</ele>
        <time>2026-07-19T06:43:04Z</time>
      </trkpt>
      <trkpt lat="45.19352" lon="5.95499">
        <ele>1438.2</ele>
        <time>2026-07-19T06:43:07Z</time>
      </trkpt>
      <trkpt lat="45.19355" lon="5.95495">
        <ele>1439.4</ele>
        <time>2026-07-19T06:43:12Z</time>
      </trkpt>
      <trkpt lat="45.19356" lon="5.95492">
        <ele>1439.2</ele>
        <time>2026-07-19T06:43:14Z</time>
      </trkpt>
      <trkpt lat="45.19359" lon="5.95477">
        <ele>1438.2</ele>
        <time>2026-07-19T06:43:20Z</time>
      </trkpt>
      <trkpt lat="45.19362" lon="5.95468">
        <ele>1437.2</ele>
        <time>2026-07-19T06:43:24Z</time>
      </trkpt>
      <trkpt lat="45.19365" lon="5.95462">
        <ele>1437</ele>
        <time>2026-07-19T06:43:28Z</time>
      </trkpt>
      <trkpt lat="45.19365" lon="5.95458">
        <ele>1434.8</ele>
        <time>2026-07-19T06:43:32Z</time>
      </trkpt>
      <trkpt lat="45.19365" lon="5.95457">
        <ele>1433.4</ele>
        <time>2026-07-19T06:43:33Z</time>
      </trkpt>
      <trkpt lat="45.19364" lon="5.95453">
        <ele>1434.6</ele>
        <time>2026-07-19T06:43:41Z</time>
      </trkpt>
      <trkpt lat="45.19364" lon="5.95451">
        <ele>1433</ele>
        <time>2026-07-19T06:43:43Z</time>
      </trkpt>
      <trkpt lat="45.19364" lon="5.95449">
        <ele>1431.4</ele>
        <time>2026-07-19T06:43:45Z</time>
      </trkpt>
      <trkpt lat="45.19365" lon="5.95448">
        <ele>1430.2</ele>
        <time>2026-07-19T06:43:48Z</time>
      </trkpt>
      <trkpt lat="45.19365" lon="5.95446">
        <ele>1428.8</ele>
        <time>2026-07-19T06:43:51Z</time>
      </trkpt>
      <trkpt lat="45.19366" lon="5.95442">
        <ele>1430.4</ele>
        <time>2026-07-19T06:44:00Z</time>
      </trkpt>
      <trkpt lat="45.19365" lon="5.95445">
        <ele>1432.2</ele>
        <time>2026-07-19T06:44:03Z</time>
      </trkpt>
      <trkpt lat="45.19365" lon="5.95448">
        <ele>1433.8</ele>
        <time>2026-07-19T06:44:05Z</time>
      </trkpt>
      <trkpt lat="45.19366" lon="5.9545">
        <ele>1436</ele>
        <time>2026-07-19T06:44:07Z</time>
      </trkpt>
      <trkpt lat="45.19367" lon="5.9545">
        <ele>1437.8</ele>
        <time>2026-07-19T06:44:09Z</time>
      </trkpt>
      <trkpt lat="45.19367" lon="5.9545">
        <ele>1438.6</ele>
        <time>2026-07-19T06:44:10Z</time>
      </trkpt>
      <trkpt lat="45.19367" lon="5.95452">
        <ele>1439</ele>
        <time>2026-07-19T06:44:11Z</time>
      </trkpt>
      <trkpt lat="45.19367" lon="5.95456">
        <ele>1440.2</ele>
        <time>2026-07-19T06:44:13Z</time>
      </trkpt>
      <trkpt lat="45.19367" lon="5.95459">
        <ele>1441.6</ele>
        <time>2026-07-19T06:44:15Z</time>
      </trkpt>
      <trkpt lat="45.19365" lon="5.95471">
        <ele>1442.6</ele>
        <time>2026-07-19T06:44:19Z</time>
      </trkpt>
      <trkpt lat="45.19363" lon="5.95477">
        <ele>1443.2</ele>
        <time>2026-07-19T06:44:26Z</time>
      </trkpt>
      <trkpt lat="45.19363" lon="5.9548">
        <ele>1445</ele>
        <time>2026-07-19T06:44:28Z</time>
      </trkpt>
      <trkpt lat="45.19363" lon="5.95482">
        <ele>1447</ele>
        <time>2026-07-19T06:44:30Z</time>
      </trkpt>
      <trkpt lat="45.19363" lon="5.95485">
        <ele>1449.6</ele>
        <time>2026-07-19T06:44:32Z</time>
      </trkpt>
      <trkpt lat="45.19363" lon="5.95488">
        <ele>1451.2</ele>
        <time>2026-07-19T06:44:33Z</time>
      </trkpt>
      <trkpt lat="45.19363" lon="5.95492">
        <ele>1452.8</ele>
        <time>2026-07-19T06:44:34Z</time>
      </trkpt>
      <trkpt lat="45.19362" lon="5.95495">
        <ele>1454.4</ele>
        <time>2026-07-19T06:44:35Z</time>
      </trkpt>
      <trkpt lat="45.19362" lon="5.95499">
        <ele>1456.2</ele>
        <time>2026-07-19T06:44:36Z</time>
      </trkpt>
      <trkpt lat="45.19362" lon="5.95502">
        <ele>1457.2</ele>
        <time>2026-07-19T06:44:37Z</time>
      </trkpt>
      <trkpt lat="45.1936" lon="5.9551">
        <ele>1458.8</ele>
        <time>2026-07-19T06:44:39Z</time>
      </trkpt>
      <trkpt lat="45.19359" lon="5.95516">
        <ele>1460</ele>
        <time>2026-07-19T06:44:40Z</time>
      </trkpt>
      <trkpt lat="45.19359" lon="5.95518">
        <ele>1460.2</ele>
        <time>2026-07-19T06:44:41Z</time>
      </trkpt>
      <trkpt lat="45.19358" lon="5.95521">
        <ele>1460.4</ele>
        <time>2026-07-19T06:44:43Z</time>
      </trkpt>
      <trkpt lat="45.19358" lon="5.95521">
        <ele>1462</ele>
        <time>2026-07-19T06:44:45Z</time>
      </trkpt>
      <trkpt lat="45.19358" lon="5.95521">
        <ele>1462.4</ele>
        <time>2026-07-19T06:44:46Z</time>
      </trkpt>
      <trkpt lat="45.1936" lon="5.95515">
        <ele>1463</ele>
        <time>2026-07-19T06:44:55Z</time>
      </trkpt>
      <trkpt lat="45.19361" lon="5.95513">
        <ele>1463.2</ele>
        <time>2026-07-19T06:44:56Z</time>
      </trkpt>
      <trkpt lat="45.19358" lon="5.9552">
        <ele>1462.2</ele>
        <time>2026-07-19T06:45:02Z</time>
      </trkpt>
      <trkpt lat="45.19356" lon="5.95524">
        <ele>1460.4</ele>
        <time>2026-07-19T06:45:04Z</time>
      </trkpt>
      <trkpt lat="45.19356" lon="5.95522">
        <ele>1459.2</ele>
        <time>2026-07-19T06:45:05Z</time>
      </trkpt>
      <trkpt lat="45.19355" lon="5.95519">
        <ele>1457.2</ele>
        <time>2026-07-19T06:45:07Z</time>
      </trkpt>
      <trkpt lat="45.19357" lon="5.95509">
        <ele>1456.2</ele>
        <time>2026-07-19T06:45:08Z</time>
      </trkpt>
      <trkpt lat="45.1936" lon="5.95494">
        <ele>1454.8</ele>
        <time>2026-07-19T06:45:10Z</time>
      </trkpt>
      <trkpt lat="45.19362" lon="5.95485">
        <ele>1453.4</ele>
        <time>2026-07-19T06:45:12Z</time>
      </trkpt>
      <trkpt lat="45.19362" lon="5.95483">
        <ele>1451.8</ele>
        <time>2026-07-19T06:45:14Z</time>
      </trkpt>
      <trkpt lat="45.19362" lon="5.95481">
        <ele>1449.6</ele>
        <time>2026-07-19T06:45:16Z</time>
      </trkpt>
      <trkpt lat="45.19362" lon="5.95478">
        <ele>1448.6</ele>
        <time>2026-07-19T06:45:18Z</time>
      </trkpt>
      <trkpt lat="45.19363" lon="5.95477">
        <ele>1448</ele>
        <time>2026-07-19T06:45:19Z</time>
      </trkpt>
      <trkpt lat="45.19363" lon="5.95469">
        <ele>1446.2</ele>
        <time>2026-07-19T06:45:25Z</time>
      </trkpt>
      <trkpt lat="45.19364" lon="5.95467">
        <ele>1445.2</ele>
        <time>2026-07-19T06:45:26Z</time>
      </trkpt>
      <trkpt lat="45.19364" lon="5.95467">
        <ele>1445.2</ele>
        <time>2026-07-19T06:45:27Z</time>
      </trkpt>
      <trkpt lat="45.19364" lon="5.95462">
        <ele>1442.6</ele>
        <time>2026-07-19T06:45:28Z</time>
      </trkpt>
      <trkpt lat="45.19364" lon="5.95459">
        <ele>1440.8</ele>
        <time>2026-07-19T06:45:30Z</time>
      </trkpt>
      <trkpt lat="45.19364" lon="5.95456">
        <ele>1439.6</ele>
        <time>2026-07-19T06:45:33Z</time>
      </trkpt>
      <trkpt lat="45.19363" lon="5.95453">
        <ele>1438.4</ele>
        <time>2026-07-19T06:45:36Z</time>
      </trkpt>
      <trkpt lat="45.19361" lon="5.95448">
        <ele>1436.4</ele>
        <time>2026-07-19T06:45:42Z</time>
      </trkpt>
      <trkpt lat="45.1936" lon="5.95448">
        <ele>1435.2</ele>
        <time>2026-07-19T06:45:44Z</time>
      </trkpt>
      <trkpt lat="45.1936" lon="5.95448">
        <ele>1434.4</ele>
        <time>2026-07-19T06:45:45Z</time>
      </trkpt>
      <trkpt lat="45.1936" lon="5.95447">
        <ele>1433.6</ele>
        <time>2026-07-19T06:45:46Z</time>
      </trkpt>
      <trkpt lat="45.19362" lon="5.95446">
        <ele>1433.2</ele>
        <time>2026-07-19T06:45:54Z</time>
      </trkpt>
      <trkpt lat="45.19363" lon="5.95447">
        <ele>1435.2</ele>
        <time>2026-07-19T06:45:57Z</time>
      </trkpt>
      <trkpt lat="45.19364" lon="5.9545">
        <ele>1436.8</ele>
        <time>2026-07-19T06:45:59Z</time>
      </trkpt>
      <trkpt lat="45.19365" lon="5.95451">
        <ele>1438</ele>
        <time>2026-07-19T06:46:00Z</time>
      </trkpt>
      <trkpt lat="45.19366" lon="5.95453">
        <ele>1441.2</ele>
        <time>2026-07-19T06:46:03Z</time>
      </trkpt>
      <trkpt lat="45.19366" lon="5.95454">
        <ele>1442.4</ele>
        <time>2026-07-19T06:46:04Z</time>
      </trkpt>
      <trkpt lat="45.19367" lon="5.95457">
        <ele>1443.8</ele>
        <time>2026-07-19T06:46:06Z</time>
      </trkpt>
      <trkpt lat="45.19367" lon="5.95459">
        <ele>1445</ele>
        <time>2026-07-19T06:46:08Z</time>
      </trkpt>
      <trkpt lat="45.19368" lon="5.9546">
        <ele>1446.2</ele>
        <time>2026-07-19T06:46:09Z</time>
      </trkpt>
      <trkpt lat="45.19368" lon="5.9546">
        <ele>1447.8</ele>
        <time>2026-07-19T06:46:10Z</time>
      </trkpt>
      <trkpt lat="45.19369" lon="5.95457">
        <ele>1448</ele>
        <time>2026-07-19T06:46:11Z</time>
      </trkpt>
      <trkpt lat="45.1937" lon="5.95457">
        <ele>1450</ele>
        <time>2026-07-19T06:46:14Z</time>
      </trkpt>
      <trkpt lat="45.1937" lon="5.95457">
        <ele>1452.6</ele>
        <time>2026-07-19T06:46:15Z</time>
      </trkpt>
      <trkpt lat="45.1937" lon="5.95456">
        <ele>1454.6</ele>
        <time>2026-07-19T06:46:16Z</time>
      </trkpt>
      <trkpt lat="45.19371" lon="5.95456">
        <ele>1456</ele>
        <time>2026-07-19T06:46:17Z</time>
      </trkpt>
      <trkpt lat="45.19371" lon="5.95456">
        <ele>1458.4</ele>
        <time>2026-07-19T06:46:19Z</time>
      </trkpt>
      <trkpt lat="45.19371" lon="5.95456">
        <ele>1459.6</ele>
        <time>2026-07-19T06:46:20Z</time>
      </trkpt>
      <trkpt lat="45.19371" lon="5.95455">
        <ele>1460.8</ele>
        <time>2026-07-19T06:46:22Z</time>
      </trkpt>
      <trkpt lat="45.19372" lon="5.95455">
        <ele>1462.2</ele>
        <time>2026-07-19T06:46:23Z</time>
      </trkpt>
      <trkpt lat="45.19372" lon="5.95455">
        <ele>1463.2</ele>
        <time>2026-07-19T06:46:24Z</time>
      </trkpt>
      <trkpt lat="45.19371" lon="5.95454">
        <ele>1463.6</ele>
        <time>2026-07-19T06:46:26Z</time>
      </trkpt>
      <trkpt lat="45.19372" lon="5.95454">
        <ele>1465.6</ele>
        <time>2026-07-19T06:46:28Z</time>
      </trkpt>
      <trkpt lat="45.19372" lon="5.95455">
        <ele>1467</ele>
        <time>2026-07-19T06:46:29Z</time>
      </trkpt>
      <trkpt lat="45.1937" lon="5.95454">
        <ele>1468.2</ele>
        <time>2026-07-19T06:46:31Z</time>
      </trkpt>
      <trkpt lat="45.19369" lon="5.95452">
        <ele>1471.2</ele>
        <time>2026-07-19T06:46:34Z</time>
      </trkpt>
      <trkpt lat="45.19365" lon="5.95449">
        <ele>1470</ele>
        <time>2026-07-19T06:46:37Z</time>
      </trkpt>
      <trkpt lat="45.19364" lon="5.95447">
        <ele>1467.8</ele>
        <time>2026-07-19T06:46:38Z</time>
      </trkpt>
      <trkpt lat="45.19363" lon="5.95446">
        <ele>1467.4</ele>
        <time>2026-07-19T06:46:39Z</time>
      </trkpt>
      <trkpt lat="45.19361" lon="5.95446">
        <ele>1466.6</ele>
        <time>2026-07-19T06:46:41Z</time>
      </trkpt>
      <trkpt lat="45.19359" lon="5.95447">
        <ele>1467.4</ele>
        <time>2026-07-19T06:46:43Z</time>
      </trkpt>
      <trkpt lat="45.19357" lon="5.95446">
        <ele>1465.2</ele>
        <time>2026-07-19T06:46:45Z</time>
      </trkpt>
      <trkpt lat="45.19355" lon="5.95446">
        <ele>1463.2</ele>
        <time>2026-07-19T06:46:46Z</time>
      </trkpt>
      <trkpt lat="45.19354" lon="5.95446">
        <ele>1461.2</ele>
        <time>2026-07-19T06:46:48Z</time>
      </trkpt>
      <trkpt lat="45.19353" lon="5.95446">
        <ele>1459</ele>
        <time>2026-07-19T06:46:49Z</time>
      </trkpt>
      <trkpt lat="45.1935" lon="5.95447">
        <ele>1457.4</ele>
        <time>2026-07-19T06:46:51Z</time>
      </trkpt>
      <trkpt lat="45.1935" lon="5.95447">
        <ele>1457.4</ele>
        <time>2026-07-19T06:46:52Z</time>
      </trkpt>
      <trkpt lat="45.19348" lon="5.95446">
        <ele>1456.4</ele>
        <time>2026-07-19T06:46:55Z</time>
      </trkpt>
      <trkpt lat="45.19347" lon="5.95446">
        <ele>1455.8</ele>
        <time>2026-07-19T06:46:56Z</time>
      </trkpt>
      <trkpt lat="45.19346" lon="5.95444">
        <ele>1453.4</ele>
        <time>2026-07-19T06:46:57Z</time>
      </trkpt>
      <trkpt lat="45.19344" lon="5.95443">
        <ele>1451.8</ele>
        <time>2026-07-19T06:46:58Z</time>
      </trkpt>
      <trkpt lat="45.19343" lon="5.95442">
        <ele>1450.6</ele>
        <time>2026-07-19T06:46:59Z</time>
      </trkpt>
      <trkpt lat="45.1934" lon="5.95442">
        <ele>1448.8</ele>
        <time>2026-07-19T06:47:01Z</time>
      </trkpt>
      <trkpt lat="45.19339" lon="5.95442">
        <ele>1447.4</ele>
        <time>2026-07-19T06:47:02Z</time>
      </trkpt>
      <trkpt lat="45.19338" lon="5.9544">
        <ele>1447.6</ele>
        <time>2026-07-19T06:47:04Z</time>
      </trkpt>
      <trkpt lat="45.19337" lon="5.95438">
        <ele>1446.6</ele>
        <time>2026-07-19T06:47:06Z</time>
      </trkpt>
      <trkpt lat="45.19335" lon="5.95437">
        <ele>1445.4</ele>
        <time>2026-07-19T06:47:07Z</time>
      </trkpt>
      <trkpt lat="45.19333" lon="5.95435">
        <ele>1444</ele>
        <time>2026-07-19T06:47:09Z</time>
      </trkpt>
      <trkpt lat="45.19332" lon="5.95433">
        <ele>1443.8</ele>
        <time>2026-07-19T06:47:11Z</time>
      </trkpt>
      <trkpt lat="45.19325" lon="5.95426">
        <ele>1442.4</ele>
        <time>2026-07-19T06:47:18Z</time>
      </trkpt>
      <trkpt lat="45.19323" lon="5.95425">
        <ele>1440.6</ele>
        <time>2026-07-19T06:47:19Z</time>
      </trkpt>
      <trkpt lat="45.19322" lon="5.95425">
        <ele>1439.6</ele>
        <time>2026-07-19T06:47:20Z</time>
      </trkpt>
      <trkpt lat="45.19319" lon="5.95424">
        <ele>1437.6</ele>
        <time>2026-07-19T06:47:22Z</time>
      </trkpt>
      <trkpt lat="45.19315" lon="5.95423">
        <ele>1436.2</ele>
        <time>2026-07-19T06:47:25Z</time>
      </trkpt>
      <trkpt lat="45.19309" lon="5.95421">
        <ele>1437.4</ele>
        <time>2026-07-19T06:47:29Z</time>
      </trkpt>
      <trkpt lat="45.19306" lon="5.95421">
        <ele>1438</ele>
        <time>2026-07-19T06:47:31Z</time>
      </trkpt>
      <trkpt lat="45.19304" lon="5.9542">
        <ele>1438.8</ele>
        <time>2026-07-19T06:47:33Z</time>
      </trkpt>
      <trkpt lat="45.19302" lon="5.95418">
        <ele>1440</ele>
        <time>2026-07-19T06:47:37Z</time>
      </trkpt>
      <trkpt lat="45.19301" lon="5.95417">
        <ele>1439.6</ele>
        <time>2026-07-19T06:47:38Z</time>
      </trkpt>
      <trkpt lat="45.19295" lon="5.95413">
        <ele>1438.4</ele>
        <time>2026-07-19T06:47:43Z</time>
      </trkpt>
      <trkpt lat="45.19294" lon="5.95412">
        <ele>1437.4</ele>
        <time>2026-07-19T06:47:44Z</time>
      </trkpt>
      <trkpt lat="45.19293" lon="5.9541">
        <ele>1437</ele>
        <time>2026-07-19T06:47:45Z</time>
      </trkpt>
      <trkpt lat="45.19287" lon="5.95406">
        <ele>1437</ele>
        <time>2026-07-19T06:47:50Z</time>
      </trkpt>
      <trkpt lat="45.19285" lon="5.95405">
        <ele>1438.2</ele>
        <time>2026-07-19T06:47:53Z</time>
      </trkpt>
      <trkpt lat="45.19283" lon="5.95404">
        <ele>1440.2</ele>
        <time>2026-07-19T06:47:55Z</time>
      </trkpt>
      <trkpt lat="45.19282" lon="5.95403">
        <ele>1440.6</ele>
        <time>2026-07-19T06:47:56Z</time>
      </trkpt>
      <trkpt lat="45.19281" lon="5.95401">
        <ele>1441.4</ele>
        <time>2026-07-19T06:47:58Z</time>
      </trkpt>
      <trkpt lat="45.1928" lon="5.95401">
        <ele>1442.6</ele>
        <time>2026-07-19T06:47:59Z</time>
      </trkpt>
      <trkpt lat="45.19279" lon="5.95399">
        <ele>1443.6</ele>
        <time>2026-07-19T06:48:00Z</time>
      </trkpt>
      <trkpt lat="45.19275" lon="5.95397">
        <ele>1443.6</ele>
        <time>2026-07-19T06:48:03Z</time>
      </trkpt>
      <trkpt lat="45.19274" lon="5.95396">
        <ele>1444</ele>
        <time>2026-07-19T06:48:04Z</time>
      </trkpt>
      <trkpt lat="45.19273" lon="5.95396">
        <ele>1444.2</ele>
        <time>2026-07-19T06:48:05Z</time>
      </trkpt>
      <trkpt lat="45.19269" lon="5.95396">
        <ele>1444.4</ele>
        <time>2026-07-19T06:48:08Z</time>
      </trkpt>
      <trkpt lat="45.19267" lon="5.95395">
        <ele>1444.8</ele>
        <time>2026-07-19T06:48:10Z</time>
      </trkpt>
      <trkpt lat="45.19267" lon="5.95395">
        <ele>1445.4</ele>
        <time>2026-07-19T06:48:11Z</time>
      </trkpt>
      <trkpt lat="45.19266" lon="5.95395">
        <ele>1445.6</ele>
        <time>2026-07-19T06:48:12Z</time>
      </trkpt>
      <trkpt lat="45.19264" lon="5.95394">
        <ele>1446.4</ele>
        <time>2026-07-19T06:48:17Z</time>
      </trkpt>
      <trkpt lat="45.19264" lon="5.95394">
        <ele>1446.6</ele>
        <time>2026-07-19T06:48:18Z</time>
      </trkpt>
      <trkpt lat="45.19264" lon="5.95393">
        <ele>1447</ele>
        <time>2026-07-19T06:48:20Z</time>
      </trkpt>
      <trkpt lat="45.1926" lon="5.95392">
        <ele>1445.6</ele>
        <time>2026-07-19T06:48:23Z</time>
      </trkpt>
      <trkpt lat="45.19258" lon="5.95392">
        <ele>1445.2</ele>
        <time>2026-07-19T06:48:24Z</time>
      </trkpt>
      <trkpt lat="45.19252" lon="5.9539">
        <ele>1445.4</ele>
        <time>2026-07-19T06:48:30Z</time>
      </trkpt>
      <trkpt lat="45.19251" lon="5.9539">
        <ele>1445</ele>
        <time>2026-07-19T06:48:31Z</time>
      </trkpt>
      <trkpt lat="45.1925" lon="5.95391">
        <ele>1444.2</ele>
        <time>2026-07-19T06:48:32Z</time>
      </trkpt>
      <trkpt lat="45.19249" lon="5.95391">
        <ele>1444.6</ele>
        <time>2026-07-19T06:48:33Z</time>
      </trkpt>
      <trkpt lat="45.19248" lon="5.95391">
        <ele>1446.2</ele>
        <time>2026-07-19T06:48:34Z</time>
      </trkpt>
      <trkpt lat="45.19248" lon="5.9539">
        <ele>1446.8</ele>
        <time>2026-07-19T06:48:35Z</time>
      </trkpt>
      <trkpt lat="45.19247" lon="5.9539">
        <ele>1447.8</ele>
        <time>2026-07-19T06:48:37Z</time>
      </trkpt>
      <trkpt lat="45.19247" lon="5.9539">
        <ele>1448.6</ele>
        <time>2026-07-19T06:48:38Z</time>
      </trkpt>
      <trkpt lat="45.19244" lon="5.9539">
        <ele>1449</ele>
        <time>2026-07-19T06:48:40Z</time>
      </trkpt>
      <trkpt lat="45.19242" lon="5.95388">
        <ele>1447.6</ele>
        <time>2026-07-19T06:48:41Z</time>
      </trkpt>
      <trkpt lat="45.1924" lon="5.95387">
        <ele>1445.2</ele>
        <time>2026-07-19T06:48:42Z</time>
      </trkpt>
      <trkpt lat="45.19236" lon="5.95385">
        <ele>1444.4</ele>
        <time>2026-07-19T06:48:45Z</time>
      </trkpt>
      <trkpt lat="45.19233" lon="5.95386">
        <ele>1446.8</ele>
        <time>2026-07-19T06:48:48Z</time>
      </trkpt>
      <trkpt lat="45.19232" lon="5.95387">
        <ele>1448.6</ele>
        <time>2026-07-19T06:48:49Z</time>
      </trkpt>
      <trkpt lat="45.1923" lon="5.95387">
        <ele>1450.4</ele>
        <time>2026-07-19T06:48:51Z</time>
      </trkpt>
      <trkpt lat="45.19229" lon="5.95388">
        <ele>1451.6</ele>
        <time>2026-07-19T06:48:52Z</time>
      </trkpt>
      <trkpt lat="45.19228" lon="5.95388">
        <ele>1453.2</ele>
        <time>2026-07-19T06:48:53Z</time>
      </trkpt>
      <trkpt lat="45.19228" lon="5.95389">
        <ele>1454.6</ele>
        <time>2026-07-19T06:48:54Z</time>
      </trkpt>
      <trkpt lat="45.19229" lon="5.95391">
        <ele>1456.8</ele>
        <time>2026-07-19T06:48:55Z</time>
      </trkpt>
      <trkpt lat="45.19226" lon="5.95392">
        <ele>1458.6</ele>
        <time>2026-07-19T06:48:57Z</time>
      </trkpt>
      <trkpt lat="45.19221" lon="5.95393">
        <ele>1457.4</ele>
        <time>2026-07-19T06:49:03Z</time>
      </trkpt>
      <trkpt lat="45.1922" lon="5.95394">
        <ele>1457.6</ele>
        <time>2026-07-19T06:49:05Z</time>
      </trkpt>
      <trkpt lat="45.1922" lon="5.95395">
        <ele>1458.2</ele>
        <time>2026-07-19T06:49:06Z</time>
      </trkpt>
      <trkpt lat="45.19219" lon="5.95396">
        <ele>1459.4</ele>
        <time>2026-07-19T06:49:07Z</time>
      </trkpt>
      <trkpt lat="45.19216" lon="5.95395">
        <ele>1458.8</ele>
        <time>2026-07-19T06:49:09Z</time>
      </trkpt>
      <trkpt lat="45.19213" lon="5.95398">
        <ele>1458.8</ele>
        <time>2026-07-19T06:49:11Z</time>
      </trkpt>
      <trkpt lat="45.19211" lon="5.954">
        <ele>1457.8</ele>
        <time>2026-07-19T06:49:13Z</time>
      </trkpt>
      <trkpt lat="45.19207" lon="5.954">
        <ele>1456</ele>
        <time>2026-07-19T06:49:15Z</time>
      </trkpt>
      <trkpt lat="45.19205" lon="5.95399">
        <ele>1455.4</ele>
        <time>2026-07-19T06:49:17Z</time>
      </trkpt>
      <trkpt lat="45.19203" lon="5.95398">
        <ele>1454.8</ele>
        <time>2026-07-19T06:49:19Z</time>
      </trkpt>
      <trkpt lat="45.192" lon="5.95399">
        <ele>1456.8</ele>
        <time>2026-07-19T06:49:22Z</time>
      </trkpt>
      <trkpt lat="45.19199" lon="5.95399">
        <ele>1457</ele>
        <time>2026-07-19T06:49:23Z</time>
      </trkpt>
      <trkpt lat="45.19199" lon="5.954">
        <ele>1458.4</ele>
        <time>2026-07-19T06:49:25Z</time>
      </trkpt>
      <trkpt lat="45.19198" lon="5.954">
        <ele>1459</ele>
        <time>2026-07-19T06:49:26Z</time>
      </trkpt>
      <trkpt lat="45.19197" lon="5.95402">
        <ele>1459</ele>
        <time>2026-07-19T06:49:28Z</time>
      </trkpt>
      <trkpt lat="45.19196" lon="5.95402">
        <ele>1458.8</ele>
        <time>2026-07-19T06:49:32Z</time>
      </trkpt>
      <trkpt lat="45.19195" lon="5.95402">
        <ele>1460.4</ele>
        <time>2026-07-19T06:49:34Z</time>
      </trkpt>
      <trkpt lat="45.19194" lon="5.95403">
        <ele>1460.6</ele>
        <time>2026-07-19T06:49:35Z</time>
      </trkpt>
      <trkpt lat="45.19192" lon="5.95405">
        <ele>1462.2</ele>
        <time>2026-07-19T06:49:38Z</time>
      </trkpt>
      <trkpt lat="45.1919" lon="5.95408">
        <ele>1464.4</ele>
        <time>2026-07-19T06:49:41Z</time>
      </trkpt>
      <trkpt lat="45.1919" lon="5.95408">
        <ele>1465</ele>
        <time>2026-07-19T06:49:42Z</time>
      </trkpt>
      <trkpt lat="45.1919" lon="5.95408">
        <ele>1466.2</ele>
        <time>2026-07-19T06:49:43Z</time>
      </trkpt>
      <trkpt lat="45.1919" lon="5.95408">
        <ele>1466.8</ele>
        <time>2026-07-19T06:49:44Z</time>
      </trkpt>
      <trkpt lat="45.19188" lon="5.95409">
        <ele>1468.4</ele>
        <time>2026-07-19T06:49:46Z</time>
      </trkpt>
      <trkpt lat="45.19187" lon="5.9541">
        <ele>1470</ele>
        <time>2026-07-19T06:49:47Z</time>
      </trkpt>
      <trkpt lat="45.19186" lon="5.95411">
        <ele>1471.2</ele>
        <time>2026-07-19T06:49:48Z</time>
      </trkpt>
      <trkpt lat="45.19178" lon="5.95416">
        <ele>1470</ele>
        <time>2026-07-19T06:49:53Z</time>
      </trkpt>
      <trkpt lat="45.19176" lon="5.95417">
        <ele>1468.6</ele>
        <time>2026-07-19T06:49:55Z</time>
      </trkpt>
      <trkpt lat="45.19173" lon="5.95418">
        <ele>1467.2</ele>
        <time>2026-07-19T06:49:57Z</time>
      </trkpt>
      <trkpt lat="45.19171" lon="5.95419">
        <ele>1466</ele>
        <time>2026-07-19T06:49:58Z</time>
      </trkpt>
      <trkpt lat="45.19167" lon="5.95421">
        <ele>1463.8</ele>
        <time>2026-07-19T06:50:00Z</time>
      </trkpt>
      <trkpt lat="45.19163" lon="5.95422">
        <ele>1462.2</ele>
        <time>2026-07-19T06:50:02Z</time>
      </trkpt>
      <trkpt lat="45.19157" lon="5.95423">
        <ele>1461</ele>
        <time>2026-07-19T06:50:05Z</time>
      </trkpt>
      <trkpt lat="45.1915" lon="5.95428">
        <ele>1460</ele>
        <time>2026-07-19T06:50:09Z</time>
      </trkpt>
      <trkpt lat="45.19149" lon="5.95428">
        <ele>1459.8</ele>
        <time>2026-07-19T06:50:10Z</time>
      </trkpt>
      <trkpt lat="45.1914" lon="5.95431">
        <ele>1459.8</ele>
        <time>2026-07-19T06:50:15Z</time>
      </trkpt>
      <trkpt lat="45.19137" lon="5.95433">
        <ele>1462</ele>
        <time>2026-07-19T06:50:17Z</time>
      </trkpt>
      <trkpt lat="45.19136" lon="5.95436">
        <ele>1462.2</ele>
        <time>2026-07-19T06:50:20Z</time>
      </trkpt>
      <trkpt lat="45.19135" lon="5.95438">
        <ele>1461.4</ele>
        <time>2026-07-19T06:50:21Z</time>
      </trkpt>
      <trkpt lat="45.19133" lon="5.9544">
        <ele>1464</ele>
        <time>2026-07-19T06:50:26Z</time>
      </trkpt>
      <trkpt lat="45.19132" lon="5.9544">
        <ele>1464.8</ele>
        <time>2026-07-19T06:50:27Z</time>
      </trkpt>
      <trkpt lat="45.19132" lon="5.9544">
        <ele>1465.2</ele>
        <time>2026-07-19T06:50:28Z</time>
      </trkpt>
      <trkpt lat="45.19127" lon="5.95443">
        <ele>1467.4</ele>
        <time>2026-07-19T06:50:33Z</time>
      </trkpt>
      <trkpt lat="45.19126" lon="5.95444">
        <ele>1467.8</ele>
        <time>2026-07-19T06:50:34Z</time>
      </trkpt>
      <trkpt lat="45.19124" lon="5.95447">
        <ele>1467</ele>
        <time>2026-07-19T06:50:35Z</time>
      </trkpt>
      <trkpt lat="45.19118" lon="5.95453">
        <ele>1469</ele>
        <time>2026-07-19T06:50:39Z</time>
      </trkpt>
      <trkpt lat="45.19117" lon="5.95454">
        <ele>1469.6</ele>
        <time>2026-07-19T06:50:40Z</time>
      </trkpt>
      <trkpt lat="45.19108" lon="5.95462">
        <ele>1467.6</ele>
        <time>2026-07-19T06:50:47Z</time>
      </trkpt>
      <trkpt lat="45.19107" lon="5.95464">
        <ele>1467.4</ele>
        <time>2026-07-19T06:50:48Z</time>
      </trkpt>
      <trkpt lat="45.19102" lon="5.95472">
        <ele>1468.8</ele>
        <time>2026-07-19T06:50:56Z</time>
      </trkpt>
      <trkpt lat="45.19101" lon="5.95474">
        <ele>1470</ele>
        <time>2026-07-19T06:50:58Z</time>
      </trkpt>
      <trkpt lat="45.19101" lon="5.95475">
        <ele>1471.4</ele>
        <time>2026-07-19T06:51:00Z</time>
      </trkpt>
      <trkpt lat="45.191" lon="5.95475">
        <ele>1471.8</ele>
        <time>2026-07-19T06:51:01Z</time>
      </trkpt>
      <trkpt lat="45.19099" lon="5.95476">
        <ele>1472.6</ele>
        <time>2026-07-19T06:51:02Z</time>
      </trkpt>
      <trkpt lat="45.19098" lon="5.95476">
        <ele>1472.8</ele>
        <time>2026-07-19T06:51:03Z</time>
      </trkpt>
      <trkpt lat="45.19096" lon="5.95477">
        <ele>1473.8</ele>
        <time>2026-07-19T06:51:05Z</time>
      </trkpt>
      <trkpt lat="45.19092" lon="5.95479">
        <ele>1475</ele>
        <time>2026-07-19T06:51:08Z</time>
      </trkpt>
      <trkpt lat="45.19091" lon="5.9548">
        <ele>1475.6</ele>
        <time>2026-07-19T06:51:09Z</time>
      </trkpt>
      <trkpt lat="45.19088" lon="5.95483">
        <ele>1476</ele>
        <time>2026-07-19T06:51:11Z</time>
      </trkpt>
      <trkpt lat="45.19081" lon="5.95488">
        <ele>1476.2</ele>
        <time>2026-07-19T06:51:16Z</time>
      </trkpt>
      <trkpt lat="45.19079" lon="5.9549">
        <ele>1477.2</ele>
        <time>2026-07-19T06:51:18Z</time>
      </trkpt>
      <trkpt lat="45.19075" lon="5.95492">
        <ele>1478.4</ele>
        <time>2026-07-19T06:51:22Z</time>
      </trkpt>
      <trkpt lat="45.19074" lon="5.95492">
        <ele>1478.4</ele>
        <time>2026-07-19T06:51:23Z</time>
      </trkpt>
      <trkpt lat="45.19071" lon="5.95495">
        <ele>1477</ele>
        <time>2026-07-19T06:51:27Z</time>
      </trkpt>
      <trkpt lat="45.1907" lon="5.95498">
        <ele>1478.2</ele>
        <time>2026-07-19T06:51:30Z</time>
      </trkpt>
      <trkpt lat="45.19069" lon="5.955">
        <ele>1479.4</ele>
        <time>2026-07-19T06:51:32Z</time>
      </trkpt>
      <trkpt lat="45.19068" lon="5.95501">
        <ele>1480.6</ele>
        <time>2026-07-19T06:51:33Z</time>
      </trkpt>
      <trkpt lat="45.19067" lon="5.95504">
        <ele>1481.8</ele>
        <time>2026-07-19T06:51:35Z</time>
      </trkpt>
      <trkpt lat="45.19067" lon="5.95507">
        <ele>1483</ele>
        <time>2026-07-19T06:51:36Z</time>
      </trkpt>
      <trkpt lat="45.19066" lon="5.95509">
        <ele>1483.8</ele>
        <time>2026-07-19T06:51:38Z</time>
      </trkpt>
      <trkpt lat="45.19066" lon="5.95511">
        <ele>1485.4</ele>
        <time>2026-07-19T06:51:39Z</time>
      </trkpt>
      <trkpt lat="45.19062" lon="5.95514">
        <ele>1486.6</ele>
        <time>2026-07-19T06:51:43Z</time>
      </trkpt>
      <trkpt lat="45.19062" lon="5.95514">
        <ele>1487.4</ele>
        <time>2026-07-19T06:51:44Z</time>
      </trkpt>
      <trkpt lat="45.19062" lon="5.95514">
        <ele>1487.6</ele>
        <time>2026-07-19T06:51:45Z</time>
      </trkpt>
      <trkpt lat="45.19061" lon="5.95514">
        <ele>1487.8</ele>
        <time>2026-07-19T06:51:46Z</time>
      </trkpt>
      <trkpt lat="45.19061" lon="5.95514">
        <ele>1487.8</ele>
        <time>2026-07-19T06:51:47Z</time>
      </trkpt>
      <trkpt lat="45.1906" lon="5.95515">
        <ele>1488.8</ele>
        <time>2026-07-19T06:51:49Z</time>
      </trkpt>
      <trkpt lat="45.1906" lon="5.95518">
        <ele>1488</ele>
        <time>2026-07-19T06:51:51Z</time>
      </trkpt>
      <trkpt lat="45.19061" lon="5.95521">
        <ele>1488</ele>
        <time>2026-07-19T06:51:52Z</time>
      </trkpt>
      <trkpt lat="45.19057" lon="5.95527">
        <ele>1487.4</ele>
        <time>2026-07-19T06:51:55Z</time>
      </trkpt>
      <trkpt lat="45.19056" lon="5.95529">
        <ele>1487.8</ele>
        <time>2026-07-19T06:51:57Z</time>
      </trkpt>
      <trkpt lat="45.19056" lon="5.95529">
        <ele>1488.4</ele>
        <time>2026-07-19T06:51:59Z</time>
      </trkpt>
      <trkpt lat="45.19054" lon="5.9553">
        <ele>1487.8</ele>
        <time>2026-07-19T06:52:01Z</time>
      </trkpt>
      <trkpt lat="45.19053" lon="5.9553">
        <ele>1487.4</ele>
        <time>2026-07-19T06:52:03Z</time>
      </trkpt>
      <trkpt lat="45.19052" lon="5.9553">
        <ele>1487.6</ele>
        <time>2026-07-19T06:52:05Z</time>
      </trkpt>
      <trkpt lat="45.19051" lon="5.95528">
        <ele>1488.6</ele>
        <time>2026-07-19T06:52:08Z</time>
      </trkpt>
      <trkpt lat="45.1905" lon="5.95527">
        <ele>1489</ele>
        <time>2026-07-19T06:52:10Z</time>
      </trkpt>
      <trkpt lat="45.19048" lon="5.95526">
        <ele>1491.2</ele>
        <time>2026-07-19T06:52:13Z</time>
      </trkpt>
      <trkpt lat="45.19048" lon="5.95527">
        <ele>1491.8</ele>
        <time>2026-07-19T06:52:14Z</time>
      </trkpt>
      <trkpt lat="45.19046" lon="5.95533">
        <ele>1491</ele>
        <time>2026-07-19T06:52:19Z</time>
      </trkpt>
      <trkpt lat="45.19047" lon="5.95535">
        <ele>1489.8</ele>
        <time>2026-07-19T06:52:21Z</time>
      </trkpt>
      <trkpt lat="45.19047" lon="5.95536">
        <ele>1488.8</ele>
        <time>2026-07-19T06:52:22Z</time>
      </trkpt>
      <trkpt lat="45.19048" lon="5.95538">
        <ele>1490</ele>
        <time>2026-07-19T06:52:24Z</time>
      </trkpt>
      <trkpt lat="45.19047" lon="5.95542">
        <ele>1490.2</ele>
        <time>2026-07-19T06:52:26Z</time>
      </trkpt>
      <trkpt lat="45.19044" lon="5.95547">
        <ele>1490.6</ele>
        <time>2026-07-19T06:52:32Z</time>
      </trkpt>
      <trkpt lat="45.19043" lon="5.95548">
        <ele>1491.2</ele>
        <time>2026-07-19T06:52:33Z</time>
      </trkpt>
      <trkpt lat="45.19041" lon="5.95549">
        <ele>1491.8</ele>
        <time>2026-07-19T06:52:37Z</time>
      </trkpt>
      <trkpt lat="45.1904" lon="5.95549">
        <ele>1492.4</ele>
        <time>2026-07-19T06:52:38Z</time>
      </trkpt>
      <trkpt lat="45.1904" lon="5.9555">
        <ele>1492.2</ele>
        <time>2026-07-19T06:52:39Z</time>
      </trkpt>
      <trkpt lat="45.1904" lon="5.9555">
        <ele>1492</ele>
        <time>2026-07-19T06:52:40Z</time>
      </trkpt>
      <trkpt lat="45.19039" lon="5.95551">
        <ele>1490.8</ele>
        <time>2026-07-19T06:52:41Z</time>
      </trkpt>
      <trkpt lat="45.19038" lon="5.95552">
        <ele>1489.2</ele>
        <time>2026-07-19T06:52:42Z</time>
      </trkpt>
      <trkpt lat="45.19036" lon="5.95554">
        <ele>1487.4</ele>
        <time>2026-07-19T06:52:44Z</time>
      </trkpt>
      <trkpt lat="45.19034" lon="5.95556">
        <ele>1487.6</ele>
        <time>2026-07-19T06:52:46Z</time>
      </trkpt>
      <trkpt lat="45.19031" lon="5.95562">
        <ele>1486.2</ele>
        <time>2026-07-19T06:52:50Z</time>
      </trkpt>
      <trkpt lat="45.19029" lon="5.95564">
        <ele>1486</ele>
        <time>2026-07-19T06:52:52Z</time>
      </trkpt>
      <trkpt lat="45.19028" lon="5.95565">
        <ele>1488.6</ele>
        <time>2026-07-19T06:52:53Z</time>
      </trkpt>
      <trkpt lat="45.19027" lon="5.95567">
        <ele>1489.8</ele>
        <time>2026-07-19T06:52:54Z</time>
      </trkpt>
      <trkpt lat="45.19023" lon="5.95572">
        <ele>1489</ele>
        <time>2026-07-19T06:52:58Z</time>
      </trkpt>
      <trkpt lat="45.19022" lon="5.95573">
        <ele>1488.2</ele>
        <time>2026-07-19T06:52:59Z</time>
      </trkpt>
      <trkpt lat="45.19021" lon="5.95574">
        <ele>1489.4</ele>
        <time>2026-07-19T06:53:00Z</time>
      </trkpt>
      <trkpt lat="45.19019" lon="5.95576">
        <ele>1490.6</ele>
        <time>2026-07-19T06:53:02Z</time>
      </trkpt>
      <trkpt lat="45.19015" lon="5.9558">
        <ele>1492.2</ele>
        <time>2026-07-19T06:53:05Z</time>
      </trkpt>
      <trkpt lat="45.19015" lon="5.95581">
        <ele>1493.4</ele>
        <time>2026-07-19T06:53:06Z</time>
      </trkpt>
      <trkpt lat="45.19014" lon="5.95582">
        <ele>1495</ele>
        <time>2026-07-19T06:53:08Z</time>
      </trkpt>
      <trkpt lat="45.19014" lon="5.95584">
        <ele>1496.6</ele>
        <time>2026-07-19T06:53:09Z</time>
      </trkpt>
      <trkpt lat="45.19013" lon="5.95585">
        <ele>1497.2</ele>
        <time>2026-07-19T06:53:10Z</time>
      </trkpt>
      <trkpt lat="45.19011" lon="5.95586">
        <ele>1497.6</ele>
        <time>2026-07-19T06:53:11Z</time>
      </trkpt>
      <trkpt lat="45.19005" lon="5.95589">
        <ele>1497.8</ele>
        <time>2026-07-19T06:53:15Z</time>
      </trkpt>
      <trkpt lat="45.19002" lon="5.95589">
        <ele>1498.6</ele>
        <time>2026-07-19T06:53:17Z</time>
      </trkpt>
      <trkpt lat="45.18997" lon="5.9559">
        <ele>1499</ele>
        <time>2026-07-19T06:53:23Z</time>
      </trkpt>
      <trkpt lat="45.18996" lon="5.95591">
        <ele>1499.4</ele>
        <time>2026-07-19T06:53:24Z</time>
      </trkpt>
      <trkpt lat="45.18994" lon="5.95594">
        <ele>1500.2</ele>
        <time>2026-07-19T06:53:27Z</time>
      </trkpt>
      <trkpt lat="45.18993" lon="5.95595">
        <ele>1500.6</ele>
        <time>2026-07-19T06:53:28Z</time>
      </trkpt>
      <trkpt lat="45.18993" lon="5.95599">
        <ele>1501.2</ele>
        <time>2026-07-19T06:53:31Z</time>
      </trkpt>
      <trkpt lat="45.18992" lon="5.956">
        <ele>1502</ele>
        <time>2026-07-19T06:53:32Z</time>
      </trkpt>
      <trkpt lat="45.18989" lon="5.95604">
        <ele>1501.8</ele>
        <time>2026-07-19T06:53:36Z</time>
      </trkpt>
      <trkpt lat="45.18989" lon="5.95605">
        <ele>1501.8</ele>
        <time>2026-07-19T06:53:38Z</time>
      </trkpt>
      <trkpt lat="45.18989" lon="5.95605">
        <ele>1500.6</ele>
        <time>2026-07-19T06:53:40Z</time>
      </trkpt>
      <trkpt lat="45.1899" lon="5.95606">
        <ele>1499.4</ele>
        <time>2026-07-19T06:53:43Z</time>
      </trkpt>
      <trkpt lat="45.1899" lon="5.95606">
        <ele>1499</ele>
        <time>2026-07-19T06:53:44Z</time>
      </trkpt>
      <trkpt lat="45.18991" lon="5.95607">
        <ele>1500.2</ele>
        <time>2026-07-19T06:53:46Z</time>
      </trkpt>
      <trkpt lat="45.18991" lon="5.95608">
        <ele>1500.8</ele>
        <time>2026-07-19T06:53:47Z</time>
      </trkpt>
      <trkpt lat="45.18991" lon="5.95608">
        <ele>1502</ele>
        <time>2026-07-19T06:53:49Z</time>
      </trkpt>
      <trkpt lat="45.18989" lon="5.95609">
        <ele>1501</ele>
        <time>2026-07-19T06:53:53Z</time>
      </trkpt>
      <trkpt lat="45.18988" lon="5.95609">
        <ele>1500.8</ele>
        <time>2026-07-19T06:53:54Z</time>
      </trkpt>
      <trkpt lat="45.18986" lon="5.9561">
        <ele>1499.2</ele>
        <time>2026-07-19T06:53:57Z</time>
      </trkpt>
      <trkpt lat="45.18983" lon="5.95611">
        <ele>1497.6</ele>
        <time>2026-07-19T06:54:00Z</time>
      </trkpt>
      <trkpt lat="45.1898" lon="5.95611">
        <ele>1496.6</ele>
        <time>2026-07-19T06:54:02Z</time>
      </trkpt>
      <trkpt lat="45.18978" lon="5.95611">
        <ele>1496.2</ele>
        <time>2026-07-19T06:54:03Z</time>
      </trkpt>
      <trkpt lat="45.18971" lon="5.95611">
        <ele>1495.8</ele>
        <time>2026-07-19T06:54:08Z</time>
      </trkpt>
      <trkpt lat="45.18969" lon="5.95611">
        <ele>1495</ele>
        <time>2026-07-19T06:54:09Z</time>
      </trkpt>
      <trkpt lat="45.18968" lon="5.95611">
        <ele>1493.8</ele>
        <time>2026-07-19T06:54:10Z</time>
      </trkpt>
      <trkpt lat="45.18967" lon="5.95612">
        <ele>1492.8</ele>
        <time>2026-07-19T06:54:11Z</time>
      </trkpt>
      <trkpt lat="45.18965" lon="5.95612">
        <ele>1491.6</ele>
        <time>2026-07-19T06:54:12Z</time>
      </trkpt>
      <trkpt lat="45.18963" lon="5.95614">
        <ele>1491.4</ele>
        <time>2026-07-19T06:54:15Z</time>
      </trkpt>
      <trkpt lat="45.18962" lon="5.95615">
        <ele>1494.2</ele>
        <time>2026-07-19T06:54:18Z</time>
      </trkpt>
      <trkpt lat="45.18962" lon="5.95615">
        <ele>1495.4</ele>
        <time>2026-07-19T06:54:19Z</time>
      </trkpt>
      <trkpt lat="45.18962" lon="5.95615">
        <ele>1496.6</ele>
        <time>2026-07-19T06:54:20Z</time>
      </trkpt>
      <trkpt lat="45.18961" lon="5.95616">
        <ele>1497.8</ele>
        <time>2026-07-19T06:54:21Z</time>
      </trkpt>
      <trkpt lat="45.18961" lon="5.95616">
        <ele>1498.6</ele>
        <time>2026-07-19T06:54:22Z</time>
      </trkpt>
      <trkpt lat="45.1896" lon="5.95616">
        <ele>1499.2</ele>
        <time>2026-07-19T06:54:23Z</time>
      </trkpt>
      <trkpt lat="45.18955" lon="5.95616">
        <ele>1499</ele>
        <time>2026-07-19T06:54:28Z</time>
      </trkpt>
      <trkpt lat="45.18952" lon="5.95616">
        <ele>1500.4</ele>
        <time>2026-07-19T06:54:31Z</time>
      </trkpt>
      <trkpt lat="45.18951" lon="5.95618">
        <ele>1499</ele>
        <time>2026-07-19T06:54:34Z</time>
      </trkpt>
      <trkpt lat="45.1895" lon="5.95619">
        <ele>1499.2</ele>
        <time>2026-07-19T06:54:36Z</time>
      </trkpt>
      <trkpt lat="45.1895" lon="5.95619">
        <ele>1501.6</ele>
        <time>2026-07-19T06:54:37Z</time>
      </trkpt>
      <trkpt lat="45.18945" lon="5.9562">
        <ele>1502.4</ele>
        <time>2026-07-19T06:54:42Z</time>
      </trkpt>
      <trkpt lat="45.18945" lon="5.95621">
        <ele>1502.8</ele>
        <time>2026-07-19T06:54:43Z</time>
      </trkpt>
      <trkpt lat="45.1894" lon="5.95624">
        <ele>1503.6</ele>
        <time>2026-07-19T06:54:50Z</time>
      </trkpt>
      <trkpt lat="45.18939" lon="5.95626">
        <ele>1504</ele>
        <time>2026-07-19T06:54:52Z</time>
      </trkpt>
      <trkpt lat="45.18939" lon="5.95627">
        <ele>1505.4</ele>
        <time>2026-07-19T06:54:55Z</time>
      </trkpt>
      <trkpt lat="45.1894" lon="5.95626">
        <ele>1508.2</ele>
        <time>2026-07-19T06:54:56Z</time>
      </trkpt>
      <trkpt lat="45.1894" lon="5.95626">
        <ele>1509.4</ele>
        <time>2026-07-19T06:54:57Z</time>
      </trkpt>
      <trkpt lat="45.1894" lon="5.95626">
        <ele>1509.8</ele>
        <time>2026-07-19T06:54:58Z</time>
      </trkpt>
      <trkpt lat="45.18939" lon="5.95626">
        <ele>1510.6</ele>
        <time>2026-07-19T06:55:00Z</time>
      </trkpt>
      <trkpt lat="45.18939" lon="5.95626">
        <ele>1511.4</ele>
        <time>2026-07-19T06:55:02Z</time>
      </trkpt>
      <trkpt lat="45.18937" lon="5.95627">
        <ele>1512</ele>
        <time>2026-07-19T06:55:03Z</time>
      </trkpt>
      <trkpt lat="45.18936" lon="5.95628">
        <ele>1510.8</ele>
        <time>2026-07-19T06:55:05Z</time>
      </trkpt>
      <trkpt lat="45.18934" lon="5.95628">
        <ele>1509.8</ele>
        <time>2026-07-19T06:55:07Z</time>
      </trkpt>
      <trkpt lat="45.18933" lon="5.95628">
        <ele>1509</ele>
        <time>2026-07-19T06:55:08Z</time>
      </trkpt>
      <trkpt lat="45.1893" lon="5.9563">
        <ele>1506.8</ele>
        <time>2026-07-19T06:55:13Z</time>
      </trkpt>
      <trkpt lat="45.18927" lon="5.95632">
        <ele>1506.6</ele>
        <time>2026-07-19T06:55:18Z</time>
      </trkpt>
      <trkpt lat="45.18926" lon="5.95633">
        <ele>1507.8</ele>
        <time>2026-07-19T06:55:21Z</time>
      </trkpt>
      <trkpt lat="45.18926" lon="5.95633">
        <ele>1509</ele>
        <time>2026-07-19T06:55:22Z</time>
      </trkpt>
      <trkpt lat="45.18923" lon="5.95633">
        <ele>1511.2</ele>
        <time>2026-07-19T06:55:24Z</time>
      </trkpt>
      <trkpt lat="45.18919" lon="5.95633">
        <ele>1513.2</ele>
        <time>2026-07-19T06:55:26Z</time>
      </trkpt>
      <trkpt lat="45.18917" lon="5.95633">
        <ele>1514.8</ele>
        <time>2026-07-19T06:55:27Z</time>
      </trkpt>
      <trkpt lat="45.18916" lon="5.95636">
        <ele>1514.6</ele>
        <time>2026-07-19T06:55:29Z</time>
      </trkpt>
      <trkpt lat="45.18915" lon="5.95638">
        <ele>1515</ele>
        <time>2026-07-19T06:55:31Z</time>
      </trkpt>
      <trkpt lat="45.18914" lon="5.95639">
        <ele>1515.4</ele>
        <time>2026-07-19T06:55:33Z</time>
      </trkpt>
      <trkpt lat="45.18913" lon="5.95639">
        <ele>1513.8</ele>
        <time>2026-07-19T06:55:35Z</time>
      </trkpt>
      <trkpt lat="45.18913" lon="5.95639">
        <ele>1512.8</ele>
        <time>2026-07-19T06:55:36Z</time>
      </trkpt>
      <trkpt lat="45.18912" lon="5.95638">
        <ele>1511.8</ele>
        <time>2026-07-19T06:55:37Z</time>
      </trkpt>
      <trkpt lat="45.18913" lon="5.95638">
        <ele>1511.2</ele>
        <time>2026-07-19T06:55:38Z</time>
      </trkpt>
      <trkpt lat="45.18915" lon="5.95637">
        <ele>1510.8</ele>
        <time>2026-07-19T06:55:40Z</time>
      </trkpt>
      <trkpt lat="45.18914" lon="5.95637">
        <ele>1509.6</ele>
        <time>2026-07-19T06:55:41Z</time>
      </trkpt>
      <trkpt lat="45.18915" lon="5.95637">
        <ele>1509</ele>
        <time>2026-07-19T06:55:43Z</time>
      </trkpt>
      <trkpt lat="45.18914" lon="5.95639">
        <ele>1510.8</ele>
        <time>2026-07-19T06:55:47Z</time>
      </trkpt>
      <trkpt lat="45.18913" lon="5.95639">
        <ele>1511.4</ele>
        <time>2026-07-19T06:55:48Z</time>
      </trkpt>
      <trkpt lat="45.18912" lon="5.95641">
        <ele>1512.6</ele>
        <time>2026-07-19T06:55:49Z</time>
      </trkpt>
      <trkpt lat="45.1891" lon="5.95645">
        <ele>1513.8</ele>
        <time>2026-07-19T06:55:53Z</time>
      </trkpt>
      <trkpt lat="45.1891" lon="5.95647">
        <ele>1515.4</ele>
        <time>2026-07-19T06:55:54Z</time>
      </trkpt>
      <trkpt lat="45.18909" lon="5.95648">
        <ele>1517.2</ele>
        <time>2026-07-19T06:55:55Z</time>
      </trkpt>
      <trkpt lat="45.18908" lon="5.95648">
        <ele>1518.6</ele>
        <time>2026-07-19T06:55:56Z</time>
      </trkpt>
      <trkpt lat="45.18907" lon="5.95649">
        <ele>1520.4</ele>
        <time>2026-07-19T06:55:57Z</time>
      </trkpt>
      <trkpt lat="45.18907" lon="5.9565">
        <ele>1522.2</ele>
        <time>2026-07-19T06:55:58Z</time>
      </trkpt>
      <trkpt lat="45.18906" lon="5.95652">
        <ele>1524.4</ele>
        <time>2026-07-19T06:56:00Z</time>
      </trkpt>
      <trkpt lat="45.18906" lon="5.95653">
        <ele>1525.6</ele>
        <time>2026-07-19T06:56:01Z</time>
      </trkpt>
      <trkpt lat="45.18909" lon="5.95653">
        <ele>1528</ele>
        <time>2026-07-19T06:56:02Z</time>
      </trkpt>
      <trkpt lat="45.18911" lon="5.95653">
        <ele>1529.4</ele>
        <time>2026-07-19T06:56:03Z</time>
      </trkpt>
      <trkpt lat="45.18913" lon="5.95653">
        <ele>1530.6</ele>
        <time>2026-07-19T06:56:04Z</time>
      </trkpt>
      <trkpt lat="45.18915" lon="5.95653">
        <ele>1531.8</ele>
        <time>2026-07-19T06:56:05Z</time>
      </trkpt>
      <trkpt lat="45.18914" lon="5.95654">
        <ele>1531.8</ele>
        <time>2026-07-19T06:56:06Z</time>
      </trkpt>
      <trkpt lat="45.18911" lon="5.95656">
        <ele>1532.8</ele>
        <time>2026-07-19T06:56:08Z</time>
      </trkpt>
      <trkpt lat="45.18911" lon="5.95658">
        <ele>1533.4</ele>
        <time>2026-07-19T06:56:09Z</time>
      </trkpt>
      <trkpt lat="45.1891" lon="5.95658">
        <ele>1531.2</ele>
        <time>2026-07-19T06:56:11Z</time>
      </trkpt>
      <trkpt lat="45.18909" lon="5.95659">
        <ele>1530.8</ele>
        <time>2026-07-19T06:56:12Z</time>
      </trkpt>
      <trkpt lat="45.18907" lon="5.9566">
        <ele>1530.4</ele>
        <time>2026-07-19T06:56:13Z</time>
      </trkpt>
      <trkpt lat="45.18906" lon="5.9566">
        <ele>1530</ele>
        <time>2026-07-19T06:56:14Z</time>
      </trkpt>
      <trkpt lat="45.18904" lon="5.9566">
        <ele>1530.8</ele>
        <time>2026-07-19T06:56:15Z</time>
      </trkpt>
      <trkpt lat="45.18903" lon="5.95661">
        <ele>1532.6</ele>
        <time>2026-07-19T06:56:16Z</time>
      </trkpt>
      <trkpt lat="45.18895" lon="5.95666">
        <ele>1532.2</ele>
        <time>2026-07-19T06:56:20Z</time>
      </trkpt>
      <trkpt lat="45.18894" lon="5.95667">
        <ele>1532.4</ele>
        <time>2026-07-19T06:56:21Z</time>
      </trkpt>
      <trkpt lat="45.18893" lon="5.95669">
        <ele>1535.2</ele>
        <time>2026-07-19T06:56:22Z</time>
      </trkpt>
      <trkpt lat="45.18892" lon="5.9567">
        <ele>1537</ele>
        <time>2026-07-19T06:56:23Z</time>
      </trkpt>
      <trkpt lat="45.18891" lon="5.95671">
        <ele>1540.4</ele>
        <time>2026-07-19T06:56:24Z</time>
      </trkpt>
      <trkpt lat="45.1889" lon="5.95672">
        <ele>1542</ele>
        <time>2026-07-19T06:56:25Z</time>
      </trkpt>
      <trkpt lat="45.18889" lon="5.95673">
        <ele>1543.2</ele>
        <time>2026-07-19T06:56:26Z</time>
      </trkpt>
      <trkpt lat="45.18888" lon="5.95673">
        <ele>1544.8</ele>
        <time>2026-07-19T06:56:27Z</time>
      </trkpt>
      <trkpt lat="45.18886" lon="5.95675">
        <ele>1546.4</ele>
        <time>2026-07-19T06:56:29Z</time>
      </trkpt>
      <trkpt lat="45.18884" lon="5.95676">
        <ele>1547.6</ele>
        <time>2026-07-19T06:56:30Z</time>
      </trkpt>
      <trkpt lat="45.18882" lon="5.95678">
        <ele>1549.4</ele>
        <time>2026-07-19T06:56:32Z</time>
      </trkpt>
      <trkpt lat="45.18878" lon="5.95679">
        <ele>1550.6</ele>
        <time>2026-07-19T06:56:35Z</time>
      </trkpt>
      <trkpt lat="45.18877" lon="5.9568">
        <ele>1550.8</ele>
        <time>2026-07-19T06:56:36Z</time>
      </trkpt>
      <trkpt lat="45.18875" lon="5.9568">
        <ele>1552.2</ele>
        <time>2026-07-19T06:56:39Z</time>
      </trkpt>
      <trkpt lat="45.18873" lon="5.95682">
        <ele>1553.4</ele>
        <time>2026-07-19T06:56:40Z</time>
      </trkpt>
      <trkpt lat="45.18872" lon="5.95685">
        <ele>1556.8</ele>
        <time>2026-07-19T06:56:42Z</time>
      </trkpt>
      <trkpt lat="45.18872" lon="5.95687">
        <ele>1558.4</ele>
        <time>2026-07-19T06:56:43Z</time>
      </trkpt>
      <trkpt lat="45.18871" lon="5.95688">
        <ele>1558.2</ele>
        <time>2026-07-19T06:56:45Z</time>
      </trkpt>
      <trkpt lat="45.18871" lon="5.9569">
        <ele>1558.8</ele>
        <time>2026-07-19T06:56:47Z</time>
      </trkpt>
      <trkpt lat="45.1887" lon="5.95692">
        <ele>1559.8</ele>
        <time>2026-07-19T06:56:49Z</time>
      </trkpt>
      <trkpt lat="45.18869" lon="5.95693">
        <ele>1559.4</ele>
        <time>2026-07-19T06:56:50Z</time>
      </trkpt>
      <trkpt lat="45.18868" lon="5.95699">
        <ele>1559.8</ele>
        <time>2026-07-19T06:56:57Z</time>
      </trkpt>
      <trkpt lat="45.18867" lon="5.957">
        <ele>1561</ele>
        <time>2026-07-19T06:57:00Z</time>
      </trkpt>
      <trkpt lat="45.18867" lon="5.95702">
        <ele>1562.2</ele>
        <time>2026-07-19T06:57:02Z</time>
      </trkpt>
      <trkpt lat="45.18867" lon="5.95702">
        <ele>1561.4</ele>
        <time>2026-07-19T06:57:03Z</time>
      </trkpt>
      <trkpt lat="45.18866" lon="5.95703">
        <ele>1560.8</ele>
        <time>2026-07-19T06:57:04Z</time>
      </trkpt>
      <trkpt lat="45.18866" lon="5.95704">
        <ele>1562.2</ele>
        <time>2026-07-19T06:57:06Z</time>
      </trkpt>
      <trkpt lat="45.18866" lon="5.95706">
        <ele>1562.2</ele>
        <time>2026-07-19T06:57:08Z</time>
      </trkpt>
      <trkpt lat="45.1886" lon="5.95711">
        <ele>1560.4</ele>
        <time>2026-07-19T06:57:15Z</time>
      </trkpt>
      <trkpt lat="45.18859" lon="5.95712">
        <ele>1559.2</ele>
        <time>2026-07-19T06:57:17Z</time>
      </trkpt>
      <trkpt lat="45.18858" lon="5.95713">
        <ele>1558</ele>
        <time>2026-07-19T06:57:18Z</time>
      </trkpt>
      <trkpt lat="45.18856" lon="5.95715">
        <ele>1557.4</ele>
        <time>2026-07-19T06:57:20Z</time>
      </trkpt>
      <trkpt lat="45.18854" lon="5.95717">
        <ele>1556.8</ele>
        <time>2026-07-19T06:57:22Z</time>
      </trkpt>
      <trkpt lat="45.18849" lon="5.9572">
        <ele>1555.4</ele>
        <time>2026-07-19T06:57:27Z</time>
      </trkpt>
      <trkpt lat="45.18848" lon="5.95721">
        <ele>1554.4</ele>
        <time>2026-07-19T06:57:28Z</time>
      </trkpt>
      <trkpt lat="45.18846" lon="5.95721">
        <ele>1554</ele>
        <time>2026-07-19T06:57:29Z</time>
      </trkpt>
      <trkpt lat="45.18845" lon="5.95722">
        <ele>1552.8</ele>
        <time>2026-07-19T06:57:31Z</time>
      </trkpt>
      <trkpt lat="45.18844" lon="5.95723">
        <ele>1551.2</ele>
        <time>2026-07-19T06:57:32Z</time>
      </trkpt>
      <trkpt lat="45.18842" lon="5.95724">
        <ele>1550</ele>
        <time>2026-07-19T06:57:35Z</time>
      </trkpt>
      <trkpt lat="45.18839" lon="5.95728">
        <ele>1550.2</ele>
        <time>2026-07-19T06:57:39Z</time>
      </trkpt>
      <trkpt lat="45.18838" lon="5.95729">
        <ele>1551.2</ele>
        <time>2026-07-19T06:57:41Z</time>
      </trkpt>
      <trkpt lat="45.18837" lon="5.9573">
        <ele>1551.6</ele>
        <time>2026-07-19T06:57:42Z</time>
      </trkpt>
      <trkpt lat="45.18835" lon="5.95734">
        <ele>1552.6</ele>
        <time>2026-07-19T06:57:45Z</time>
      </trkpt>
      <trkpt lat="45.18834" lon="5.9574">
        <ele>1553.8</ele>
        <time>2026-07-19T06:57:49Z</time>
      </trkpt>
      <trkpt lat="45.18833" lon="5.95744">
        <ele>1554.2</ele>
        <time>2026-07-19T06:57:51Z</time>
      </trkpt>
      <trkpt lat="45.18833" lon="5.95748">
        <ele>1555.2</ele>
        <time>2026-07-19T06:57:54Z</time>
      </trkpt>
      <trkpt lat="45.18832" lon="5.95752">
        <ele>1556.4</ele>
        <time>2026-07-19T06:57:58Z</time>
      </trkpt>
      <trkpt lat="45.18827" lon="5.95762">
        <ele>1554.2</ele>
        <time>2026-07-19T06:58:11Z</time>
      </trkpt>
      <trkpt lat="45.18826" lon="5.9576">
        <ele>1552.4</ele>
        <time>2026-07-19T06:58:12Z</time>
      </trkpt>
      <trkpt lat="45.18824" lon="5.95761">
        <ele>1550.6</ele>
        <time>2026-07-19T06:58:14Z</time>
      </trkpt>
      <trkpt lat="45.18825" lon="5.95762">
        <ele>1551</ele>
        <time>2026-07-19T06:58:15Z</time>
      </trkpt>
      <trkpt lat="45.18823" lon="5.95766">
        <ele>1552.4</ele>
        <time>2026-07-19T06:58:17Z</time>
      </trkpt>
      <trkpt lat="45.18824" lon="5.95768">
        <ele>1553.2</ele>
        <time>2026-07-19T06:58:18Z</time>
      </trkpt>
      <trkpt lat="45.18823" lon="5.95771">
        <ele>1554</ele>
        <time>2026-07-19T06:58:19Z</time>
      </trkpt>
      <trkpt lat="45.18822" lon="5.95773">
        <ele>1555.2</ele>
        <time>2026-07-19T06:58:20Z</time>
      </trkpt>
      <trkpt lat="45.18822" lon="5.95776">
        <ele>1556.6</ele>
        <time>2026-07-19T06:58:22Z</time>
      </trkpt>
      <trkpt lat="45.18822" lon="5.95778">
        <ele>1558</ele>
        <time>2026-07-19T06:58:23Z</time>
      </trkpt>
      <trkpt lat="45.18823" lon="5.95783">
        <ele>1559.2</ele>
        <time>2026-07-19T06:58:26Z</time>
      </trkpt>
      <trkpt lat="45.18823" lon="5.95786">
        <ele>1561.2</ele>
        <time>2026-07-19T06:58:28Z</time>
      </trkpt>
      <trkpt lat="45.18823" lon="5.95787">
        <ele>1562</ele>
        <time>2026-07-19T06:58:30Z</time>
      </trkpt>
      <trkpt lat="45.18823" lon="5.95787">
        <ele>1562.4</ele>
        <time>2026-07-19T06:58:31Z</time>
      </trkpt>
      <trkpt lat="45.18823" lon="5.95787">
        <ele>1563.6</ele>
        <time>2026-07-19T06:58:32Z</time>
      </trkpt>
      <trkpt lat="45.18822" lon="5.95787">
        <ele>1564.8</ele>
        <time>2026-07-19T06:58:34Z</time>
      </trkpt>
      <trkpt lat="45.1882" lon="5.95789">
        <ele>1565</ele>
        <time>2026-07-19T06:58:38Z</time>
      </trkpt>
      <trkpt lat="45.1882" lon="5.9579">
        <ele>1565.8</ele>
        <time>2026-07-19T06:58:39Z</time>
      </trkpt>
      <trkpt lat="45.18818" lon="5.95797">
        <ele>1567</ele>
        <time>2026-07-19T06:58:44Z</time>
      </trkpt>
      <trkpt lat="45.18818" lon="5.95802">
        <ele>1567.6</ele>
        <time>2026-07-19T06:58:49Z</time>
      </trkpt>
      <trkpt lat="45.18818" lon="5.95804">
        <ele>1568.2</ele>
        <time>2026-07-19T06:58:51Z</time>
      </trkpt>
      <trkpt lat="45.18821" lon="5.95807">
        <ele>1569</ele>
        <time>2026-07-19T06:58:54Z</time>
      </trkpt>
      <trkpt lat="45.18821" lon="5.95807">
        <ele>1569.6</ele>
        <time>2026-07-19T06:58:55Z</time>
      </trkpt>
      <trkpt lat="45.18821" lon="5.95808">
        <ele>1570</ele>
        <time>2026-07-19T06:58:56Z</time>
      </trkpt>
      <trkpt lat="45.1882" lon="5.95809">
        <ele>1570.2</ele>
        <time>2026-07-19T06:58:58Z</time>
      </trkpt>
      <trkpt lat="45.18819" lon="5.95809">
        <ele>1570.2</ele>
        <time>2026-07-19T06:59:01Z</time>
      </trkpt>
      <trkpt lat="45.18817" lon="5.9581">
        <ele>1569.8</ele>
        <time>2026-07-19T06:59:04Z</time>
      </trkpt>
      <trkpt lat="45.18817" lon="5.95811">
        <ele>1569.8</ele>
        <time>2026-07-19T06:59:06Z</time>
      </trkpt>
      <trkpt lat="45.18818" lon="5.95814">
        <ele>1571.8</ele>
        <time>2026-07-19T06:59:09Z</time>
      </trkpt>
      <trkpt lat="45.18819" lon="5.95815">
        <ele>1572.6</ele>
        <time>2026-07-19T06:59:10Z</time>
      </trkpt>
      <trkpt lat="45.18819" lon="5.95816">
        <ele>1573.2</ele>
        <time>2026-07-19T06:59:11Z</time>
      </trkpt>
      <trkpt lat="45.18823" lon="5.95819">
        <ele>1575.8</ele>
        <time>2026-07-19T06:59:15Z</time>
      </trkpt>
      <trkpt lat="45.18823" lon="5.9582">
        <ele>1574.8</ele>
        <time>2026-07-19T06:59:16Z</time>
      </trkpt>
      <trkpt lat="45.18822" lon="5.95821">
        <ele>1574.6</ele>
        <time>2026-07-19T06:59:17Z</time>
      </trkpt>
      <trkpt lat="45.18821" lon="5.95823">
        <ele>1573.8</ele>
        <time>2026-07-19T06:59:19Z</time>
      </trkpt>
      <trkpt lat="45.18821" lon="5.95825">
        <ele>1574.4</ele>
        <time>2026-07-19T06:59:22Z</time>
      </trkpt>
      <trkpt lat="45.18822" lon="5.95827">
        <ele>1575.4</ele>
        <time>2026-07-19T06:59:23Z</time>
      </trkpt>
      <trkpt lat="45.18822" lon="5.95828">
        <ele>1576</ele>
        <time>2026-07-19T06:59:24Z</time>
      </trkpt>
      <trkpt lat="45.1882" lon="5.95832">
        <ele>1576</ele>
        <time>2026-07-19T06:59:27Z</time>
      </trkpt>
      <trkpt lat="45.18814" lon="5.95835">
        <ele>1575</ele>
        <time>2026-07-19T06:59:30Z</time>
      </trkpt>
      <trkpt lat="45.18812" lon="5.95835">
        <ele>1574.8</ele>
        <time>2026-07-19T06:59:31Z</time>
      </trkpt>
      <trkpt lat="45.18808" lon="5.95832">
        <ele>1574.8</ele>
        <time>2026-07-19T06:59:35Z</time>
      </trkpt>
      <trkpt lat="45.18808" lon="5.95831">
        <ele>1575</ele>
        <time>2026-07-19T06:59:36Z</time>
      </trkpt>
      <trkpt lat="45.18805" lon="5.95831">
        <ele>1576</ele>
        <time>2026-07-19T06:59:40Z</time>
      </trkpt>
      <trkpt lat="45.18806" lon="5.95832">
        <ele>1576.6</ele>
        <time>2026-07-19T06:59:41Z</time>
      </trkpt>
      <trkpt lat="45.18806" lon="5.95833">
        <ele>1577.2</ele>
        <time>2026-07-19T06:59:42Z</time>
      </trkpt>
      <trkpt lat="45.18806" lon="5.95834">
        <ele>1578.8</ele>
        <time>2026-07-19T06:59:43Z</time>
      </trkpt>
      <trkpt lat="45.18806" lon="5.95836">
        <ele>1580.2</ele>
        <time>2026-07-19T06:59:45Z</time>
      </trkpt>
      <trkpt lat="45.18805" lon="5.95837">
        <ele>1581.4</ele>
        <time>2026-07-19T06:59:47Z</time>
      </trkpt>
      <trkpt lat="45.18802" lon="5.95838">
        <ele>1582.8</ele>
        <time>2026-07-19T06:59:51Z</time>
      </trkpt>
      <trkpt lat="45.18801" lon="5.95837">
        <ele>1584.8</ele>
        <time>2026-07-19T06:59:54Z</time>
      </trkpt>
      <trkpt lat="45.18797" lon="5.95836">
        <ele>1585.8</ele>
        <time>2026-07-19T06:59:58Z</time>
      </trkpt>
      <trkpt lat="45.18797" lon="5.95837">
        <ele>1586.6</ele>
        <time>2026-07-19T06:59:59Z</time>
      </trkpt>
      <trkpt lat="45.18795" lon="5.95841">
        <ele>1587.8</ele>
        <time>2026-07-19T07:00:04Z</time>
      </trkpt>
      <trkpt lat="45.18796" lon="5.95845">
        <ele>1589</ele>
        <time>2026-07-19T07:00:07Z</time>
      </trkpt>
      <trkpt lat="45.18795" lon="5.95846">
        <ele>1589.4</ele>
        <time>2026-07-19T07:00:08Z</time>
      </trkpt>
      <trkpt lat="45.18793" lon="5.95847">
        <ele>1589.6</ele>
        <time>2026-07-19T07:00:11Z</time>
      </trkpt>
      <trkpt lat="45.18793" lon="5.95847">
        <ele>1590.8</ele>
        <time>2026-07-19T07:00:12Z</time>
      </trkpt>
      <trkpt lat="45.18792" lon="5.95849">
        <ele>1591.4</ele>
        <time>2026-07-19T07:00:14Z</time>
      </trkpt>
      <trkpt lat="45.18792" lon="5.95851">
        <ele>1592.2</ele>
        <time>2026-07-19T07:00:16Z</time>
      </trkpt>
      <trkpt lat="45.18792" lon="5.95852">
        <ele>1594.2</ele>
        <time>2026-07-19T07:00:19Z</time>
      </trkpt>
      <trkpt lat="45.18792" lon="5.95852">
        <ele>1595.6</ele>
        <time>2026-07-19T07:00:21Z</time>
      </trkpt>
      <trkpt lat="45.18791" lon="5.95853">
        <ele>1597.4</ele>
        <time>2026-07-19T07:00:23Z</time>
      </trkpt>
      <trkpt lat="45.18791" lon="5.95853">
        <ele>1598</ele>
        <time>2026-07-19T07:00:24Z</time>
      </trkpt>
      <trkpt lat="45.1879" lon="5.95854">
        <ele>1598.8</ele>
        <time>2026-07-19T07:00:25Z</time>
      </trkpt>
      <trkpt lat="45.18789" lon="5.95854">
        <ele>1599.8</ele>
        <time>2026-07-19T07:00:26Z</time>
      </trkpt>
      <trkpt lat="45.18788" lon="5.95854">
        <ele>1601.6</ele>
        <time>2026-07-19T07:00:28Z</time>
      </trkpt>
      <trkpt lat="45.18787" lon="5.95855">
        <ele>1603</ele>
        <time>2026-07-19T07:00:30Z</time>
      </trkpt>
      <trkpt lat="45.18786" lon="5.95855">
        <ele>1604.4</ele>
        <time>2026-07-19T07:00:32Z</time>
      </trkpt>
      <trkpt lat="45.18785" lon="5.95855">
        <ele>1605.6</ele>
        <time>2026-07-19T07:00:33Z</time>
      </trkpt>
      <trkpt lat="45.18784" lon="5.95855">
        <ele>1607.2</ele>
        <time>2026-07-19T07:00:34Z</time>
      </trkpt>
      <trkpt lat="45.18783" lon="5.95856">
        <ele>1608.6</ele>
        <time>2026-07-19T07:00:36Z</time>
      </trkpt>
      <trkpt lat="45.18782" lon="5.95855">
        <ele>1610</ele>
        <time>2026-07-19T07:00:37Z</time>
      </trkpt>
      <trkpt lat="45.18782" lon="5.95857">
        <ele>1611.2</ele>
        <time>2026-07-19T07:00:40Z</time>
      </trkpt>
      <trkpt lat="45.18781" lon="5.95858">
        <ele>1612.4</ele>
        <time>2026-07-19T07:00:42Z</time>
      </trkpt>
      <trkpt lat="45.18778" lon="5.95859">
        <ele>1613.6</ele>
        <time>2026-07-19T07:00:46Z</time>
      </trkpt>
      <trkpt lat="45.18778" lon="5.9586">
        <ele>1616.2</ele>
        <time>2026-07-19T07:00:48Z</time>
      </trkpt>
      <trkpt lat="45.18778" lon="5.95861">
        <ele>1617.4</ele>
        <time>2026-07-19T07:00:49Z</time>
      </trkpt>
      <trkpt lat="45.18781" lon="5.95864">
        <ele>1618.4</ele>
        <time>2026-07-19T07:00:54Z</time>
      </trkpt>
      <trkpt lat="45.18776" lon="5.95862">
        <ele>1618</ele>
        <time>2026-07-19T07:00:59Z</time>
      </trkpt>
      <trkpt lat="45.18774" lon="5.95863">
        <ele>1619</ele>
        <time>2026-07-19T07:01:03Z</time>
      </trkpt>
      <trkpt lat="45.18774" lon="5.95865">
        <ele>1619.6</ele>
        <time>2026-07-19T07:01:05Z</time>
      </trkpt>
      <trkpt lat="45.18774" lon="5.95867">
        <ele>1619.6</ele>
        <time>2026-07-19T07:01:07Z</time>
      </trkpt>
      <trkpt lat="45.18774" lon="5.95869">
        <ele>1620.8</ele>
        <time>2026-07-19T07:01:09Z</time>
      </trkpt>
      <trkpt lat="45.18775" lon="5.95873">
        <ele>1621.2</ele>
        <time>2026-07-19T07:01:12Z</time>
      </trkpt>
      <trkpt lat="45.18773" lon="5.95878">
        <ele>1619.8</ele>
        <time>2026-07-19T07:01:16Z</time>
      </trkpt>
      <trkpt lat="45.18772" lon="5.95878">
        <ele>1619</ele>
        <time>2026-07-19T07:01:17Z</time>
      </trkpt>
      <trkpt lat="45.18768" lon="5.95884">
        <ele>1618</ele>
        <time>2026-07-19T07:01:23Z</time>
      </trkpt>
      <trkpt lat="45.18766" lon="5.95885">
        <ele>1617.8</ele>
        <time>2026-07-19T07:01:26Z</time>
      </trkpt>
      <trkpt lat="45.18765" lon="5.95887">
        <ele>1617.4</ele>
        <time>2026-07-19T07:01:27Z</time>
      </trkpt>
      <trkpt lat="45.18766" lon="5.95888">
        <ele>1617.2</ele>
        <time>2026-07-19T07:01:29Z</time>
      </trkpt>
      <trkpt lat="45.18766" lon="5.95892">
        <ele>1618</ele>
        <time>2026-07-19T07:01:31Z</time>
      </trkpt>
      <trkpt lat="45.18766" lon="5.95894">
        <ele>1619.2</ele>
        <time>2026-07-19T07:01:33Z</time>
      </trkpt>
      <trkpt lat="45.18766" lon="5.95896">
        <ele>1619.8</ele>
        <time>2026-07-19T07:01:35Z</time>
      </trkpt>
      <trkpt lat="45.18763" lon="5.95902">
        <ele>1619.4</ele>
        <time>2026-07-19T07:01:40Z</time>
      </trkpt>
      <trkpt lat="45.18761" lon="5.95905">
        <ele>1619.6</ele>
        <time>2026-07-19T07:01:42Z</time>
      </trkpt>
      <trkpt lat="45.1876" lon="5.95906">
        <ele>1620.8</ele>
        <time>2026-07-19T07:01:43Z</time>
      </trkpt>
      <trkpt lat="45.18757" lon="5.95909">
        <ele>1622</ele>
        <time>2026-07-19T07:01:46Z</time>
      </trkpt>
      <trkpt lat="45.18756" lon="5.95912">
        <ele>1623.6</ele>
        <time>2026-07-19T07:01:48Z</time>
      </trkpt>
      <trkpt lat="45.18755" lon="5.95915">
        <ele>1625.8</ele>
        <time>2026-07-19T07:01:50Z</time>
      </trkpt>
      <trkpt lat="45.18753" lon="5.95917">
        <ele>1627</ele>
        <time>2026-07-19T07:01:52Z</time>
      </trkpt>
      <trkpt lat="45.18752" lon="5.95918">
        <ele>1628.6</ele>
        <time>2026-07-19T07:01:53Z</time>
      </trkpt>
      <trkpt lat="45.18752" lon="5.95919">
        <ele>1630.6</ele>
        <time>2026-07-19T07:01:54Z</time>
      </trkpt>
      <trkpt lat="45.1875" lon="5.95923">
        <ele>1632.2</ele>
        <time>2026-07-19T07:01:56Z</time>
      </trkpt>
      <trkpt lat="45.18749" lon="5.95925">
        <ele>1633.4</ele>
        <time>2026-07-19T07:01:57Z</time>
      </trkpt>
      <trkpt lat="45.18747" lon="5.95927">
        <ele>1634.6</ele>
        <time>2026-07-19T07:01:59Z</time>
      </trkpt>
      <trkpt lat="45.18745" lon="5.95928">
        <ele>1634.4</ele>
        <time>2026-07-19T07:02:00Z</time>
      </trkpt>
      <trkpt lat="45.18739" lon="5.95932">
        <ele>1634.8</ele>
        <time>2026-07-19T07:02:07Z</time>
      </trkpt>
      <trkpt lat="45.18736" lon="5.95937">
        <ele>1636.4</ele>
        <time>2026-07-19T07:02:11Z</time>
      </trkpt>
      <trkpt lat="45.18735" lon="5.95942">
        <ele>1637.8</ele>
        <time>2026-07-19T07:02:14Z</time>
      </trkpt>
      <trkpt lat="45.18734" lon="5.95949">
        <ele>1638.2</ele>
        <time>2026-07-19T07:02:19Z</time>
      </trkpt>
      <trkpt lat="45.18731" lon="5.9595">
        <ele>1638.2</ele>
        <time>2026-07-19T07:02:21Z</time>
      </trkpt>
      <trkpt lat="45.18731" lon="5.95952">
        <ele>1637.6</ele>
        <time>2026-07-19T07:02:24Z</time>
      </trkpt>
      <trkpt lat="45.18731" lon="5.95952">
        <ele>1637</ele>
        <time>2026-07-19T07:02:26Z</time>
      </trkpt>
      <trkpt lat="45.1873" lon="5.95952">
        <ele>1636.6</ele>
        <time>2026-07-19T07:02:27Z</time>
      </trkpt>
      <trkpt lat="45.18729" lon="5.95952">
        <ele>1636</ele>
        <time>2026-07-19T07:02:29Z</time>
      </trkpt>
      <trkpt lat="45.18728" lon="5.95953">
        <ele>1635.4</ele>
        <time>2026-07-19T07:02:30Z</time>
      </trkpt>
      <trkpt lat="45.18727" lon="5.95954">
        <ele>1634.8</ele>
        <time>2026-07-19T07:02:32Z</time>
      </trkpt>
      <trkpt lat="45.18727" lon="5.95956">
        <ele>1634.6</ele>
        <time>2026-07-19T07:02:33Z</time>
      </trkpt>
      <trkpt lat="45.18726" lon="5.95957">
        <ele>1634</ele>
        <time>2026-07-19T07:02:34Z</time>
      </trkpt>
      <trkpt lat="45.18724" lon="5.95958">
        <ele>1632.4</ele>
        <time>2026-07-19T07:02:36Z</time>
      </trkpt>
      <trkpt lat="45.18723" lon="5.95962">
        <ele>1632.6</ele>
        <time>2026-07-19T07:02:39Z</time>
      </trkpt>
      <trkpt lat="45.18723" lon="5.95965">
        <ele>1633.6</ele>
        <time>2026-07-19T07:02:41Z</time>
      </trkpt>
      <trkpt lat="45.18724" lon="5.95968">
        <ele>1635.2</ele>
        <time>2026-07-19T07:02:43Z</time>
      </trkpt>
      <trkpt lat="45.18725" lon="5.95971">
        <ele>1635.4</ele>
        <time>2026-07-19T07:02:45Z</time>
      </trkpt>
      <trkpt lat="45.18725" lon="5.95975">
        <ele>1636</ele>
        <time>2026-07-19T07:02:50Z</time>
      </trkpt>
      <trkpt lat="45.18726" lon="5.95976">
        <ele>1636.4</ele>
        <time>2026-07-19T07:02:51Z</time>
      </trkpt>
      <trkpt lat="45.18727" lon="5.95978">
        <ele>1635.6</ele>
        <time>2026-07-19T07:02:52Z</time>
      </trkpt>
      <trkpt lat="45.18728" lon="5.95979">
        <ele>1635.2</ele>
        <time>2026-07-19T07:02:53Z</time>
      </trkpt>
      <trkpt lat="45.1873" lon="5.95985">
        <ele>1636.4</ele>
        <time>2026-07-19T07:02:56Z</time>
      </trkpt>
      <trkpt lat="45.1873" lon="5.95989">
        <ele>1635.2</ele>
        <time>2026-07-19T07:02:58Z</time>
      </trkpt>
      <trkpt lat="45.1873" lon="5.9599">
        <ele>1635</ele>
        <time>2026-07-19T07:02:59Z</time>
      </trkpt>
      <trkpt lat="45.18727" lon="5.96002">
        <ele>1636.4</ele>
        <time>2026-07-19T07:03:06Z</time>
      </trkpt>
      <trkpt lat="45.18727" lon="5.96007">
        <ele>1638.8</ele>
        <time>2026-07-19T07:03:10Z</time>
      </trkpt>
      <trkpt lat="45.18726" lon="5.96008">
        <ele>1638.6</ele>
        <time>2026-07-19T07:03:11Z</time>
      </trkpt>
      <trkpt lat="45.18725" lon="5.96009">
        <ele>1638.6</ele>
        <time>2026-07-19T07:03:12Z</time>
      </trkpt>
      <trkpt lat="45.18725" lon="5.96012">
        <ele>1639.4</ele>
        <time>2026-07-19T07:03:14Z</time>
      </trkpt>
      <trkpt lat="45.18725" lon="5.96013">
        <ele>1640.2</ele>
        <time>2026-07-19T07:03:15Z</time>
      </trkpt>
      <trkpt lat="45.18724" lon="5.96016">
        <ele>1641.6</ele>
        <time>2026-07-19T07:03:17Z</time>
      </trkpt>
      <trkpt lat="45.18722" lon="5.96019">
        <ele>1643.4</ele>
        <time>2026-07-19T07:03:19Z</time>
      </trkpt>
      <trkpt lat="45.18722" lon="5.9602">
        <ele>1644.6</ele>
        <time>2026-07-19T07:03:20Z</time>
      </trkpt>
      <trkpt lat="45.18722" lon="5.96023">
        <ele>1645.4</ele>
        <time>2026-07-19T07:03:22Z</time>
      </trkpt>
      <trkpt lat="45.18722" lon="5.96024">
        <ele>1645</ele>
        <time>2026-07-19T07:03:23Z</time>
      </trkpt>
      <trkpt lat="45.18722" lon="5.96035">
        <ele>1645</ele>
        <time>2026-07-19T07:03:31Z</time>
      </trkpt>
      <trkpt lat="45.18722" lon="5.96039">
        <ele>1646</ele>
        <time>2026-07-19T07:03:34Z</time>
      </trkpt>
      <trkpt lat="45.18721" lon="5.96041">
        <ele>1647.2</ele>
        <time>2026-07-19T07:03:36Z</time>
      </trkpt>
      <trkpt lat="45.1872" lon="5.96042">
        <ele>1647.6</ele>
        <time>2026-07-19T07:03:37Z</time>
      </trkpt>
      <trkpt lat="45.18719" lon="5.96044">
        <ele>1648.6</ele>
        <time>2026-07-19T07:03:39Z</time>
      </trkpt>
      <trkpt lat="45.18718" lon="5.96046">
        <ele>1650.4</ele>
        <time>2026-07-19T07:03:41Z</time>
      </trkpt>
      <trkpt lat="45.18715" lon="5.96048">
        <ele>1651</ele>
        <time>2026-07-19T07:03:44Z</time>
      </trkpt>
      <trkpt lat="45.18714" lon="5.96049">
        <ele>1651.4</ele>
        <time>2026-07-19T07:03:45Z</time>
      </trkpt>
      <trkpt lat="45.18713" lon="5.9605">
        <ele>1652.6</ele>
        <time>2026-07-19T07:03:48Z</time>
      </trkpt>
      <trkpt lat="45.18711" lon="5.96052">
        <ele>1651.6</ele>
        <time>2026-07-19T07:03:51Z</time>
      </trkpt>
      <trkpt lat="45.18711" lon="5.96053">
        <ele>1650.4</ele>
        <time>2026-07-19T07:03:52Z</time>
      </trkpt>
      <trkpt lat="45.18709" lon="5.9606">
        <ele>1652.4</ele>
        <time>2026-07-19T07:03:56Z</time>
      </trkpt>
      <trkpt lat="45.18709" lon="5.96063">
        <ele>1652.6</ele>
        <time>2026-07-19T07:03:58Z</time>
      </trkpt>
      <trkpt lat="45.18709" lon="5.96065">
        <ele>1653.6</ele>
        <time>2026-07-19T07:03:59Z</time>
      </trkpt>
      <trkpt lat="45.18708" lon="5.96071">
        <ele>1654.6</ele>
        <time>2026-07-19T07:04:03Z</time>
      </trkpt>
      <trkpt lat="45.18706" lon="5.96074">
        <ele>1656.4</ele>
        <time>2026-07-19T07:04:05Z</time>
      </trkpt>
      <trkpt lat="45.18705" lon="5.96077">
        <ele>1657.8</ele>
        <time>2026-07-19T07:04:07Z</time>
      </trkpt>
      <trkpt lat="45.18704" lon="5.96085">
        <ele>1659.2</ele>
        <time>2026-07-19T07:04:11Z</time>
      </trkpt>
      <trkpt lat="45.18703" lon="5.9609">
        <ele>1661.4</ele>
        <time>2026-07-19T07:04:14Z</time>
      </trkpt>
      <trkpt lat="45.187" lon="5.96094">
        <ele>1662.8</ele>
        <time>2026-07-19T07:04:17Z</time>
      </trkpt>
      <trkpt lat="45.18699" lon="5.96094">
        <ele>1663.4</ele>
        <time>2026-07-19T07:04:18Z</time>
      </trkpt>
      <trkpt lat="45.18698" lon="5.96094">
        <ele>1663.8</ele>
        <time>2026-07-19T07:04:19Z</time>
      </trkpt>
      <trkpt lat="45.18691" lon="5.96098">
        <ele>1663.4</ele>
        <time>2026-07-19T07:04:25Z</time>
      </trkpt>
      <trkpt lat="45.18686" lon="5.96107">
        <ele>1662.8</ele>
        <time>2026-07-19T07:04:31Z</time>
      </trkpt>
      <trkpt lat="45.18684" lon="5.96108">
        <ele>1662.8</ele>
        <time>2026-07-19T07:04:33Z</time>
      </trkpt>
      <trkpt lat="45.18678" lon="5.96112">
        <ele>1661.4</ele>
        <time>2026-07-19T07:04:38Z</time>
      </trkpt>
      <trkpt lat="45.18676" lon="5.96115">
        <ele>1661.8</ele>
        <time>2026-07-19T07:04:40Z</time>
      </trkpt>
      <trkpt lat="45.18674" lon="5.96116">
        <ele>1662.4</ele>
        <time>2026-07-19T07:04:42Z</time>
      </trkpt>
      <trkpt lat="45.18672" lon="5.9612">
        <ele>1661.6</ele>
        <time>2026-07-19T07:04:45Z</time>
      </trkpt>
      <trkpt lat="45.18671" lon="5.96121">
        <ele>1661.4</ele>
        <time>2026-07-19T07:04:46Z</time>
      </trkpt>
      <trkpt lat="45.18669" lon="5.96128">
        <ele>1660.2</ele>
        <time>2026-07-19T07:04:50Z</time>
      </trkpt>
      <trkpt lat="45.18667" lon="5.96134">
        <ele>1660.2</ele>
        <time>2026-07-19T07:04:54Z</time>
      </trkpt>
      <trkpt lat="45.1867" lon="5.96142">
        <ele>1660.2</ele>
        <time>2026-07-19T07:05:00Z</time>
      </trkpt>
      <trkpt lat="45.18671" lon="5.96143">
        <ele>1660.4</ele>
        <time>2026-07-19T07:05:01Z</time>
      </trkpt>
      <trkpt lat="45.18678" lon="5.96152">
        <ele>1661.2</ele>
        <time>2026-07-19T07:05:10Z</time>
      </trkpt>
      <trkpt lat="45.18679" lon="5.96151">
        <ele>1661.4</ele>
        <time>2026-07-19T07:05:11Z</time>
      </trkpt>
      <trkpt lat="45.18682" lon="5.96151">
        <ele>1662</ele>
        <time>2026-07-19T07:05:13Z</time>
      </trkpt>
      <trkpt lat="45.18681" lon="5.96154">
        <ele>1661.2</ele>
        <time>2026-07-19T07:05:16Z</time>
      </trkpt>
      <trkpt lat="45.18679" lon="5.96156">
        <ele>1660.4</ele>
        <time>2026-07-19T07:05:18Z</time>
      </trkpt>
      <trkpt lat="45.18677" lon="5.9616">
        <ele>1661.8</ele>
        <time>2026-07-19T07:05:21Z</time>
      </trkpt>
      <trkpt lat="45.18668" lon="5.96168">
        <ele>1661</ele>
        <time>2026-07-19T07:05:28Z</time>
      </trkpt>
      <trkpt lat="45.18664" lon="5.96173">
        <ele>1660.2</ele>
        <time>2026-07-19T07:05:32Z</time>
      </trkpt>
      <trkpt lat="45.18662" lon="5.96177">
        <ele>1660.8</ele>
        <time>2026-07-19T07:05:35Z</time>
      </trkpt>
      <trkpt lat="45.18662" lon="5.96184">
        <ele>1661.8</ele>
        <time>2026-07-19T07:05:39Z</time>
      </trkpt>
      <trkpt lat="45.18664" lon="5.96187">
        <ele>1662.6</ele>
        <time>2026-07-19T07:05:41Z</time>
      </trkpt>
      <trkpt lat="45.18665" lon="5.96188">
        <ele>1663</ele>
        <time>2026-07-19T07:05:42Z</time>
      </trkpt>
      <trkpt lat="45.18666" lon="5.96193">
        <ele>1664.8</ele>
        <time>2026-07-19T07:05:45Z</time>
      </trkpt>
      <trkpt lat="45.18667" lon="5.96199">
        <ele>1665</ele>
        <time>2026-07-19T07:05:48Z</time>
      </trkpt>
      <trkpt lat="45.18667" lon="5.96202">
        <ele>1666.4</ele>
        <time>2026-07-19T07:05:50Z</time>
      </trkpt>
      <trkpt lat="45.18667" lon="5.96205">
        <ele>1668</ele>
        <time>2026-07-19T07:05:52Z</time>
      </trkpt>
      <trkpt lat="45.18669" lon="5.96206">
        <ele>1667.6</ele>
        <time>2026-07-19T07:05:54Z</time>
      </trkpt>
      <trkpt lat="45.18671" lon="5.96213">
        <ele>1668.2</ele>
        <time>2026-07-19T07:05:59Z</time>
      </trkpt>
      <trkpt lat="45.18671" lon="5.96218">
        <ele>1669.2</ele>
        <time>2026-07-19T07:06:02Z</time>
      </trkpt>
      <trkpt lat="45.18671" lon="5.96221">
        <ele>1671</ele>
        <time>2026-07-19T07:06:04Z</time>
      </trkpt>
      <trkpt lat="45.18671" lon="5.96222">
        <ele>1671.6</ele>
        <time>2026-07-19T07:06:05Z</time>
      </trkpt>
      <trkpt lat="45.18671" lon="5.96224">
        <ele>1672.6</ele>
        <time>2026-07-19T07:06:06Z</time>
      </trkpt>
      <trkpt lat="45.1867" lon="5.96227">
        <ele>1674.4</ele>
        <time>2026-07-19T07:06:08Z</time>
      </trkpt>
      <trkpt lat="45.18667" lon="5.96233">
        <ele>1676</ele>
        <time>2026-07-19T07:06:12Z</time>
      </trkpt>
      <trkpt lat="45.18667" lon="5.96234">
        <ele>1675.4</ele>
        <time>2026-07-19T07:06:13Z</time>
      </trkpt>
      <trkpt lat="45.18666" lon="5.96238">
        <ele>1676.2</ele>
        <time>2026-07-19T07:06:15Z</time>
      </trkpt>
      <trkpt lat="45.18667" lon="5.96242">
        <ele>1677.6</ele>
        <time>2026-07-19T07:06:17Z</time>
      </trkpt>
      <trkpt lat="45.18668" lon="5.96245">
        <ele>1678.6</ele>
        <time>2026-07-19T07:06:19Z</time>
      </trkpt>
      <trkpt lat="45.18669" lon="5.96245">
        <ele>1679.6</ele>
        <time>2026-07-19T07:06:20Z</time>
      </trkpt>
      <trkpt lat="45.1867" lon="5.96246">
        <ele>1680.8</ele>
        <time>2026-07-19T07:06:21Z</time>
      </trkpt>
      <trkpt lat="45.18672" lon="5.96247">
        <ele>1681.8</ele>
        <time>2026-07-19T07:06:22Z</time>
      </trkpt>
      <trkpt lat="45.18674" lon="5.96248">
        <ele>1683</ele>
        <time>2026-07-19T07:06:24Z</time>
      </trkpt>
      <trkpt lat="45.18675" lon="5.96249">
        <ele>1684</ele>
        <time>2026-07-19T07:06:25Z</time>
      </trkpt>
      <trkpt lat="45.18677" lon="5.96251">
        <ele>1684.8</ele>
        <time>2026-07-19T07:06:28Z</time>
      </trkpt>
      <trkpt lat="45.18678" lon="5.96253">
        <ele>1686</ele>
        <time>2026-07-19T07:06:30Z</time>
      </trkpt>
      <trkpt lat="45.18677" lon="5.96256">
        <ele>1687.4</ele>
        <time>2026-07-19T07:06:33Z</time>
      </trkpt>
      <trkpt lat="45.18676" lon="5.96258">
        <ele>1689</ele>
        <time>2026-07-19T07:06:35Z</time>
      </trkpt>
      <trkpt lat="45.18676" lon="5.96259">
        <ele>1689.4</ele>
        <time>2026-07-19T07:06:36Z</time>
      </trkpt>
      <trkpt lat="45.18676" lon="5.9626">
        <ele>1690.4</ele>
        <time>2026-07-19T07:06:37Z</time>
      </trkpt>
      <trkpt lat="45.18675" lon="5.96262">
        <ele>1692.2</ele>
        <time>2026-07-19T07:06:39Z</time>
      </trkpt>
      <trkpt lat="45.18676" lon="5.96264">
        <ele>1694</ele>
        <time>2026-07-19T07:06:41Z</time>
      </trkpt>
      <trkpt lat="45.18676" lon="5.96265">
        <ele>1696.2</ele>
        <time>2026-07-19T07:06:43Z</time>
      </trkpt>
      <trkpt lat="45.18677" lon="5.96267">
        <ele>1697.8</ele>
        <time>2026-07-19T07:06:45Z</time>
      </trkpt>
      <trkpt lat="45.18679" lon="5.96269">
        <ele>1699</ele>
        <time>2026-07-19T07:06:48Z</time>
      </trkpt>
      <trkpt lat="45.18679" lon="5.9627">
        <ele>1704</ele>
        <time>2026-07-19T07:06:50Z</time>
      </trkpt>
      <trkpt lat="45.18679" lon="5.9627">
        <ele>1705.8</ele>
        <time>2026-07-19T07:06:51Z</time>
      </trkpt>
      <trkpt lat="45.18679" lon="5.96271">
        <ele>1708.2</ele>
        <time>2026-07-19T07:06:53Z</time>
      </trkpt>
      <trkpt lat="45.18679" lon="5.96272">
        <ele>1709.4</ele>
        <time>2026-07-19T07:06:54Z</time>
      </trkpt>
      <trkpt lat="45.1868" lon="5.96275">
        <ele>1711</ele>
        <time>2026-07-19T07:06:56Z</time>
      </trkpt>
      <trkpt lat="45.18681" lon="5.96278">
        <ele>1712.2</ele>
        <time>2026-07-19T07:06:59Z</time>
      </trkpt>
      <trkpt lat="45.18681" lon="5.96279">
        <ele>1712.8</ele>
        <time>2026-07-19T07:07:00Z</time>
      </trkpt>
      <trkpt lat="45.18681" lon="5.96282">
        <ele>1713.6</ele>
        <time>2026-07-19T07:07:03Z</time>
      </trkpt>
      <trkpt lat="45.18683" lon="5.96284">
        <ele>1715.2</ele>
        <time>2026-07-19T07:07:07Z</time>
      </trkpt>
      <trkpt lat="45.18685" lon="5.96283">
        <ele>1716</ele>
        <time>2026-07-19T07:07:10Z</time>
      </trkpt>
      <trkpt lat="45.18689" lon="5.96282">
        <ele>1716.4</ele>
        <time>2026-07-19T07:07:15Z</time>
      </trkpt>
      <trkpt lat="45.18697" lon="5.96282">
        <ele>1718</ele>
        <time>2026-07-19T07:07:22Z</time>
      </trkpt>
      <trkpt lat="45.187" lon="5.96283">
        <ele>1719.2</ele>
        <time>2026-07-19T07:07:24Z</time>
      </trkpt>
      <trkpt lat="45.18704" lon="5.96289">
        <ele>1721</ele>
        <time>2026-07-19T07:07:33Z</time>
      </trkpt>
      <trkpt lat="45.18704" lon="5.96291">
        <ele>1721.8</ele>
        <time>2026-07-19T07:07:35Z</time>
      </trkpt>
      <trkpt lat="45.18704" lon="5.96292">
        <ele>1722.2</ele>
        <time>2026-07-19T07:07:36Z</time>
      </trkpt>
      <trkpt lat="45.18702" lon="5.96295">
        <ele>1722.4</ele>
        <time>2026-07-19T07:07:38Z</time>
      </trkpt>
      <trkpt lat="45.18701" lon="5.96298">
        <ele>1723.2</ele>
        <time>2026-07-19T07:07:41Z</time>
      </trkpt>
      <trkpt lat="45.187" lon="5.96299">
        <ele>1723.6</ele>
        <time>2026-07-19T07:07:42Z</time>
      </trkpt>
      <trkpt lat="45.18699" lon="5.96301">
        <ele>1724.8</ele>
        <time>2026-07-19T07:07:44Z</time>
      </trkpt>
      <trkpt lat="45.18699" lon="5.96303">
        <ele>1726.6</ele>
        <time>2026-07-19T07:07:47Z</time>
      </trkpt>
      <trkpt lat="45.187" lon="5.96304">
        <ele>1727</ele>
        <time>2026-07-19T07:07:48Z</time>
      </trkpt>
      <trkpt lat="45.18699" lon="5.96306">
        <ele>1727.8</ele>
        <time>2026-07-19T07:07:51Z</time>
      </trkpt>
      <trkpt lat="45.18699" lon="5.96307">
        <ele>1728.2</ele>
        <time>2026-07-19T07:07:52Z</time>
      </trkpt>
      <trkpt lat="45.18698" lon="5.96308">
        <ele>1729.4</ele>
        <time>2026-07-19T07:07:55Z</time>
      </trkpt>
      <trkpt lat="45.18697" lon="5.9631">
        <ele>1730.6</ele>
        <time>2026-07-19T07:07:58Z</time>
      </trkpt>
      <trkpt lat="45.18697" lon="5.96311">
        <ele>1732.2</ele>
        <time>2026-07-19T07:08:01Z</time>
      </trkpt>
      <trkpt lat="45.18696" lon="5.96313">
        <ele>1733.8</ele>
        <time>2026-07-19T07:08:05Z</time>
      </trkpt>
      <trkpt lat="45.18696" lon="5.96314">
        <ele>1735.2</ele>
        <time>2026-07-19T07:08:07Z</time>
      </trkpt>
      <trkpt lat="45.18696" lon="5.96315">
        <ele>1736.4</ele>
        <time>2026-07-19T07:08:09Z</time>
      </trkpt>
      <trkpt lat="45.18694" lon="5.96316">
        <ele>1737.8</ele>
        <time>2026-07-19T07:08:13Z</time>
      </trkpt>
      <trkpt lat="45.18693" lon="5.96317">
        <ele>1739.2</ele>
        <time>2026-07-19T07:08:16Z</time>
      </trkpt>
      <trkpt lat="45.18688" lon="5.96322">
        <ele>1738.4</ele>
        <time>2026-07-19T07:08:21Z</time>
      </trkpt>
      <trkpt lat="45.18682" lon="5.96333">
        <ele>1739.8</ele>
        <time>2026-07-19T07:08:33Z</time>
      </trkpt>
      <trkpt lat="45.18682" lon="5.96334">
        <ele>1740.8</ele>
        <time>2026-07-19T07:08:34Z</time>
      </trkpt>
      <trkpt lat="45.18683" lon="5.96334">
        <ele>1742.4</ele>
        <time>2026-07-19T07:08:36Z</time>
      </trkpt>
      <trkpt lat="45.18687" lon="5.96335">
        <ele>1743.8</ele>
        <time>2026-07-19T07:08:41Z</time>
      </trkpt>
      <trkpt lat="45.18692" lon="5.96336">
        <ele>1745</ele>
        <time>2026-07-19T07:08:47Z</time>
      </trkpt>
      <trkpt lat="45.18692" lon="5.96337">
        <ele>1746.4</ele>
        <time>2026-07-19T07:08:49Z</time>
      </trkpt>
      <trkpt lat="45.18693" lon="5.96338">
        <ele>1747.4</ele>
        <time>2026-07-19T07:08:51Z</time>
      </trkpt>
      <trkpt lat="45.18693" lon="5.96338">
        <ele>1748</ele>
        <time>2026-07-19T07:08:52Z</time>
      </trkpt>
      <trkpt lat="45.18695" lon="5.9634">
        <ele>1749</ele>
        <time>2026-07-19T07:08:58Z</time>
      </trkpt>
      <trkpt lat="45.18694" lon="5.96344">
        <ele>1749.4</ele>
        <time>2026-07-19T07:09:02Z</time>
      </trkpt>
      <trkpt lat="45.1869" lon="5.96346">
        <ele>1750.4</ele>
        <time>2026-07-19T07:09:07Z</time>
      </trkpt>
      <trkpt lat="45.18689" lon="5.96349">
        <ele>1751.4</ele>
        <time>2026-07-19T07:09:10Z</time>
      </trkpt>
      <trkpt lat="45.18689" lon="5.96349">
        <ele>1751.6</ele>
        <time>2026-07-19T07:09:11Z</time>
      </trkpt>
      <trkpt lat="45.18691" lon="5.96355">
        <ele>1753</ele>
        <time>2026-07-19T07:09:18Z</time>
      </trkpt>
      <trkpt lat="45.18692" lon="5.96356">
        <ele>1754.2</ele>
        <time>2026-07-19T07:09:22Z</time>
      </trkpt>
      <trkpt lat="45.18695" lon="5.96356">
        <ele>1755.4</ele>
        <time>2026-07-19T07:09:27Z</time>
      </trkpt>
      <trkpt lat="45.18699" lon="5.96358">
        <ele>1756.8</ele>
        <time>2026-07-19T07:09:34Z</time>
      </trkpt>
      <trkpt lat="45.18699" lon="5.9636">
        <ele>1758</ele>
        <time>2026-07-19T07:09:38Z</time>
      </trkpt>
      <trkpt lat="45.18698" lon="5.96362">
        <ele>1758.4</ele>
        <time>2026-07-19T07:09:40Z</time>
      </trkpt>
      <trkpt lat="45.18696" lon="5.96365">
        <ele>1759.2</ele>
        <time>2026-07-19T07:09:44Z</time>
      </trkpt>
      <trkpt lat="45.18694" lon="5.96371">
        <ele>1760.6</ele>
        <time>2026-07-19T07:09:50Z</time>
      </trkpt>
      <trkpt lat="45.18694" lon="5.96372">
        <ele>1761</ele>
        <time>2026-07-19T07:09:51Z</time>
      </trkpt>
      <trkpt lat="45.18694" lon="5.96374">
        <ele>1762.2</ele>
        <time>2026-07-19T07:09:53Z</time>
      </trkpt>
      <trkpt lat="45.18693" lon="5.96377">
        <ele>1763.4</ele>
        <time>2026-07-19T07:09:56Z</time>
      </trkpt>
      <trkpt lat="45.18694" lon="5.96379">
        <ele>1765</ele>
        <time>2026-07-19T07:09:59Z</time>
      </trkpt>
      <trkpt lat="45.18692" lon="5.96383">
        <ele>1766.2</ele>
        <time>2026-07-19T07:10:03Z</time>
      </trkpt>
      <trkpt lat="45.18692" lon="5.96384">
        <ele>1766.4</ele>
        <time>2026-07-19T07:10:04Z</time>
      </trkpt>
      <trkpt lat="45.1869" lon="5.96387">
        <ele>1767.4</ele>
        <time>2026-07-19T07:10:08Z</time>
      </trkpt>
      <trkpt lat="45.18687" lon="5.96394">
        <ele>1768.8</ele>
        <time>2026-07-19T07:10:15Z</time>
      </trkpt>
      <trkpt lat="45.18686" lon="5.96396">
        <ele>1769.4</ele>
        <time>2026-07-19T07:10:18Z</time>
      </trkpt>
      <trkpt lat="45.18686" lon="5.964">
        <ele>1770</ele>
        <time>2026-07-19T07:10:23Z</time>
      </trkpt>
      <trkpt lat="45.18684" lon="5.96406">
        <ele>1770.6</ele>
        <time>2026-07-19T07:10:31Z</time>
      </trkpt>
      <trkpt lat="45.18683" lon="5.96409">
        <ele>1771.2</ele>
        <time>2026-07-19T07:10:35Z</time>
      </trkpt>
      <trkpt lat="45.18682" lon="5.96414">
        <ele>1772.4</ele>
        <time>2026-07-19T07:10:41Z</time>
      </trkpt>
      <trkpt lat="45.18681" lon="5.96416">
        <ele>1773.8</ele>
        <time>2026-07-19T07:10:46Z</time>
      </trkpt>
      <trkpt lat="45.18678" lon="5.96417">
        <ele>1774.6</ele>
        <time>2026-07-19T07:10:57Z</time>
      </trkpt>
      <trkpt lat="45.18678" lon="5.9642">
        <ele>1775</ele>
        <time>2026-07-19T07:11:04Z</time>
      </trkpt>
      <trkpt lat="45.18676" lon="5.96424">
        <ele>1775.6</ele>
        <time>2026-07-19T07:11:09Z</time>
      </trkpt>
      <trkpt lat="45.18674" lon="5.96429">
        <ele>1776.2</ele>
        <time>2026-07-19T07:11:13Z</time>
      </trkpt>
      <trkpt lat="45.18674" lon="5.96433">
        <ele>1777.4</ele>
        <time>2026-07-19T07:11:17Z</time>
      </trkpt>
      <trkpt lat="45.18673" lon="5.96437">
        <ele>1778.2</ele>
        <time>2026-07-19T07:11:20Z</time>
      </trkpt>
      <trkpt lat="45.18672" lon="5.96437">
        <ele>1779</ele>
        <time>2026-07-19T07:11:21Z</time>
      </trkpt>
      <trkpt lat="45.18668" lon="5.96443">
        <ele>1780.2</ele>
        <time>2026-07-19T07:11:27Z</time>
      </trkpt>
      <trkpt lat="45.18667" lon="5.96445">
        <ele>1781.6</ele>
        <time>2026-07-19T07:11:29Z</time>
      </trkpt>
      <trkpt lat="45.18666" lon="5.96447">
        <ele>1781.8</ele>
        <time>2026-07-19T07:11:32Z</time>
      </trkpt>
      <trkpt lat="45.18667" lon="5.9645">
        <ele>1783</ele>
        <time>2026-07-19T07:11:35Z</time>
      </trkpt>
      <trkpt lat="45.18661" lon="5.96456">
        <ele>1784.6</ele>
        <time>2026-07-19T07:11:43Z</time>
      </trkpt>
      <trkpt lat="45.1866" lon="5.96456">
        <ele>1785.6</ele>
        <time>2026-07-19T07:11:45Z</time>
      </trkpt>
      <trkpt lat="45.18659" lon="5.96456">
        <ele>1786</ele>
        <time>2026-07-19T07:11:46Z</time>
      </trkpt>
      <trkpt lat="45.18654" lon="5.96457">
        <ele>1787.2</ele>
        <time>2026-07-19T07:11:52Z</time>
      </trkpt>
      <trkpt lat="45.18651" lon="5.96458">
        <ele>1788.4</ele>
        <time>2026-07-19T07:11:56Z</time>
      </trkpt>
      <trkpt lat="45.18648" lon="5.9646">
        <ele>1789.6</ele>
        <time>2026-07-19T07:12:00Z</time>
      </trkpt>
      <trkpt lat="45.18647" lon="5.96461">
        <ele>1789.6</ele>
        <time>2026-07-19T07:12:01Z</time>
      </trkpt>
      <trkpt lat="45.18641" lon="5.96463">
        <ele>1789.6</ele>
        <time>2026-07-19T07:12:07Z</time>
      </trkpt>
      <trkpt lat="45.18638" lon="5.96466">
        <ele>1791</ele>
        <time>2026-07-19T07:12:14Z</time>
      </trkpt>
      <trkpt lat="45.18637" lon="5.96467">
        <ele>1791.4</ele>
        <time>2026-07-19T07:12:15Z</time>
      </trkpt>
      <trkpt lat="45.18637" lon="5.96467">
        <ele>1791.8</ele>
        <time>2026-07-19T07:12:17Z</time>
      </trkpt>
      <trkpt lat="45.18632" lon="5.96471">
        <ele>1792.4</ele>
        <time>2026-07-19T07:12:26Z</time>
      </trkpt>
      <trkpt lat="45.18632" lon="5.96472">
        <ele>1793</ele>
        <time>2026-07-19T07:12:27Z</time>
      </trkpt>
      <trkpt lat="45.18632" lon="5.96473">
        <ele>1793.6</ele>
        <time>2026-07-19T07:12:29Z</time>
      </trkpt>
      <trkpt lat="45.18629" lon="5.96475">
        <ele>1794.8</ele>
        <time>2026-07-19T07:12:35Z</time>
      </trkpt>
      <trkpt lat="45.1863" lon="5.96477">
        <ele>1796.6</ele>
        <time>2026-07-19T07:12:37Z</time>
      </trkpt>
      <trkpt lat="45.1863" lon="5.9648">
        <ele>1797.8</ele>
        <time>2026-07-19T07:12:40Z</time>
      </trkpt>
      <trkpt lat="45.18628" lon="5.96483">
        <ele>1799</ele>
        <time>2026-07-19T07:12:46Z</time>
      </trkpt>
      <trkpt lat="45.18622" lon="5.96487">
        <ele>1799.8</ele>
        <time>2026-07-19T07:12:51Z</time>
      </trkpt>
      <trkpt lat="45.18622" lon="5.96488">
        <ele>1800.2</ele>
        <time>2026-07-19T07:12:52Z</time>
      </trkpt>
      <trkpt lat="45.18618" lon="5.96492">
        <ele>1801.6</ele>
        <time>2026-07-19T07:12:57Z</time>
      </trkpt>
      <trkpt lat="45.1861" lon="5.96498">
        <ele>1803.2</ele>
        <time>2026-07-19T07:13:08Z</time>
      </trkpt>
      <trkpt lat="45.1861" lon="5.96499">
        <ele>1804.6</ele>
        <time>2026-07-19T07:13:11Z</time>
      </trkpt>
      <trkpt lat="45.18611" lon="5.96499">
        <ele>1806</ele>
        <time>2026-07-19T07:13:13Z</time>
      </trkpt>
      <trkpt lat="45.18612" lon="5.96499">
        <ele>1807.6</ele>
        <time>2026-07-19T07:13:16Z</time>
      </trkpt>
      <trkpt lat="45.18612" lon="5.96499">
        <ele>1809</ele>
        <time>2026-07-19T07:13:18Z</time>
      </trkpt>
      <trkpt lat="45.18612" lon="5.96501">
        <ele>1810.4</ele>
        <time>2026-07-19T07:13:22Z</time>
      </trkpt>
      <trkpt lat="45.18612" lon="5.96503">
        <ele>1812</ele>
        <time>2026-07-19T07:13:25Z</time>
      </trkpt>
      <trkpt lat="45.18612" lon="5.96503">
        <ele>1812.8</ele>
        <time>2026-07-19T07:13:26Z</time>
      </trkpt>
      <trkpt lat="45.18612" lon="5.96503">
        <ele>1813.6</ele>
        <time>2026-07-19T07:13:27Z</time>
      </trkpt>
      <trkpt lat="45.18613" lon="5.96503">
        <ele>1815.2</ele>
        <time>2026-07-19T07:13:29Z</time>
      </trkpt>
      <trkpt lat="45.18613" lon="5.96506">
        <ele>1816.6</ele>
        <time>2026-07-19T07:13:32Z</time>
      </trkpt>
      <trkpt lat="45.18614" lon="5.96509">
        <ele>1817.8</ele>
        <time>2026-07-19T07:13:34Z</time>
      </trkpt>
      <trkpt lat="45.18614" lon="5.96511">
        <ele>1818.8</ele>
        <time>2026-07-19T07:13:36Z</time>
      </trkpt>
      <trkpt lat="45.18614" lon="5.96512">
        <ele>1819.2</ele>
        <time>2026-07-19T07:13:37Z</time>
      </trkpt>
      <trkpt lat="45.18615" lon="5.96515">
        <ele>1819.8</ele>
        <time>2026-07-19T07:13:39Z</time>
      </trkpt>
      <trkpt lat="45.18615" lon="5.96516">
        <ele>1820.4</ele>
        <time>2026-07-19T07:13:40Z</time>
      </trkpt>
      <trkpt lat="45.18615" lon="5.96519">
        <ele>1822</ele>
        <time>2026-07-19T07:13:43Z</time>
      </trkpt>
      <trkpt lat="45.18614" lon="5.9652">
        <ele>1822.6</ele>
        <time>2026-07-19T07:13:44Z</time>
      </trkpt>
      <trkpt lat="45.18613" lon="5.9652">
        <ele>1822.8</ele>
        <time>2026-07-19T07:13:45Z</time>
      </trkpt>
      <trkpt lat="45.18612" lon="5.9652">
        <ele>1823.2</ele>
        <time>2026-07-19T07:13:46Z</time>
      </trkpt>
      <trkpt lat="45.18611" lon="5.96521">
        <ele>1823.4</ele>
        <time>2026-07-19T07:13:47Z</time>
      </trkpt>
      <trkpt lat="45.1861" lon="5.96522">
        <ele>1823.6</ele>
        <time>2026-07-19T07:13:48Z</time>
      </trkpt>
      <trkpt lat="45.18609" lon="5.96524">
        <ele>1823.8</ele>
        <time>2026-07-19T07:13:52Z</time>
      </trkpt>
      <trkpt lat="45.18609" lon="5.96523">
        <ele>1822</ele>
        <time>2026-07-19T07:13:56Z</time>
      </trkpt>
      <trkpt lat="45.18605" lon="5.96526">
        <ele>1823.4</ele>
        <time>2026-07-19T07:14:04Z</time>
      </trkpt>
      <trkpt lat="45.18604" lon="5.96528">
        <ele>1824.8</ele>
        <time>2026-07-19T07:14:07Z</time>
      </trkpt>
      <trkpt lat="45.18604" lon="5.96532">
        <ele>1825.8</ele>
        <time>2026-07-19T07:14:15Z</time>
      </trkpt>
      <trkpt lat="45.18603" lon="5.96532">
        <ele>1826.2</ele>
        <time>2026-07-19T07:14:17Z</time>
      </trkpt>
      <trkpt lat="45.18603" lon="5.96533">
        <ele>1827.2</ele>
        <time>2026-07-19T07:14:19Z</time>
      </trkpt>
      <trkpt lat="45.186" lon="5.96531">
        <ele>1828.6</ele>
        <time>2026-07-19T07:14:23Z</time>
      </trkpt>
      <trkpt lat="45.18598" lon="5.96532">
        <ele>1829.2</ele>
        <time>2026-07-19T07:14:27Z</time>
      </trkpt>
      <trkpt lat="45.18598" lon="5.96532">
        <ele>1829.8</ele>
        <time>2026-07-19T07:14:28Z</time>
      </trkpt>
      <trkpt lat="45.18596" lon="5.96537">
        <ele>1831</ele>
        <time>2026-07-19T07:14:32Z</time>
      </trkpt>
      <trkpt lat="45.18595" lon="5.96538">
        <ele>1832.2</ele>
        <time>2026-07-19T07:14:34Z</time>
      </trkpt>
      <trkpt lat="45.18591" lon="5.96542">
        <ele>1833.2</ele>
        <time>2026-07-19T07:14:41Z</time>
      </trkpt>
      <trkpt lat="45.18588" lon="5.96545">
        <ele>1834.2</ele>
        <time>2026-07-19T07:14:46Z</time>
      </trkpt>
      <trkpt lat="45.18587" lon="5.96546">
        <ele>1834.4</ele>
        <time>2026-07-19T07:14:48Z</time>
      </trkpt>
      <trkpt lat="45.18584" lon="5.9655">
        <ele>1835.6</ele>
        <time>2026-07-19T07:14:53Z</time>
      </trkpt>
      <trkpt lat="45.18581" lon="5.96554">
        <ele>1835.4</ele>
        <time>2026-07-19T07:14:59Z</time>
      </trkpt>
      <trkpt lat="45.1858" lon="5.96558">
        <ele>1836.6</ele>
        <time>2026-07-19T07:15:05Z</time>
      </trkpt>
      <trkpt lat="45.1858" lon="5.96559">
        <ele>1836.8</ele>
        <time>2026-07-19T07:15:07Z</time>
      </trkpt>
      <trkpt lat="45.18581" lon="5.9656">
        <ele>1837.2</ele>
        <time>2026-07-19T07:15:08Z</time>
      </trkpt>
      <trkpt lat="45.18582" lon="5.9656">
        <ele>1838</ele>
        <time>2026-07-19T07:15:12Z</time>
      </trkpt>
      <trkpt lat="45.18584" lon="5.96561">
        <ele>1839.2</ele>
        <time>2026-07-19T07:15:16Z</time>
      </trkpt>
      <trkpt lat="45.18583" lon="5.96562">
        <ele>1839.8</ele>
        <time>2026-07-19T07:15:18Z</time>
      </trkpt>
      <trkpt lat="45.18583" lon="5.96564">
        <ele>1840.4</ele>
        <time>2026-07-19T07:15:20Z</time>
      </trkpt>
      <trkpt lat="45.18582" lon="5.96567">
        <ele>1841.8</ele>
        <time>2026-07-19T07:15:24Z</time>
      </trkpt>
      <trkpt lat="45.18581" lon="5.96571">
        <ele>1843</ele>
        <time>2026-07-19T07:15:28Z</time>
      </trkpt>
      <trkpt lat="45.18582" lon="5.96574">
        <ele>1844.2</ele>
        <time>2026-07-19T07:15:32Z</time>
      </trkpt>
      <trkpt lat="45.18582" lon="5.96577">
        <ele>1845</ele>
        <time>2026-07-19T07:15:36Z</time>
      </trkpt>
      <trkpt lat="45.18583" lon="5.96577">
        <ele>1845.4</ele>
        <time>2026-07-19T07:15:38Z</time>
      </trkpt>
      <trkpt lat="45.18586" lon="5.96577">
        <ele>1846.8</ele>
        <time>2026-07-19T07:15:43Z</time>
      </trkpt>
      <trkpt lat="45.18586" lon="5.96576">
        <ele>1847.2</ele>
        <time>2026-07-19T07:15:44Z</time>
      </trkpt>
      <trkpt lat="45.18588" lon="5.96576">
        <ele>1848</ele>
        <time>2026-07-19T07:15:46Z</time>
      </trkpt>
      <trkpt lat="45.18588" lon="5.96577">
        <ele>1849.2</ele>
        <time>2026-07-19T07:15:49Z</time>
      </trkpt>
      <trkpt lat="45.18587" lon="5.96579">
        <ele>1850.4</ele>
        <time>2026-07-19T07:15:52Z</time>
      </trkpt>
      <trkpt lat="45.18588" lon="5.96582">
        <ele>1851.8</ele>
        <time>2026-07-19T07:15:56Z</time>
      </trkpt>
      <trkpt lat="45.18587" lon="5.96585">
        <ele>1853</ele>
        <time>2026-07-19T07:15:59Z</time>
      </trkpt>
      <trkpt lat="45.18587" lon="5.96587">
        <ele>1854</ele>
        <time>2026-07-19T07:16:02Z</time>
      </trkpt>
      <trkpt lat="45.18588" lon="5.96588">
        <ele>1854.2</ele>
        <time>2026-07-19T07:16:03Z</time>
      </trkpt>
      <trkpt lat="45.18586" lon="5.96593">
        <ele>1855.6</ele>
        <time>2026-07-19T07:16:10Z</time>
      </trkpt>
      <trkpt lat="45.18586" lon="5.96594">
        <ele>1855.8</ele>
        <time>2026-07-19T07:16:12Z</time>
      </trkpt>
      <trkpt lat="45.18583" lon="5.96597">
        <ele>1857</ele>
        <time>2026-07-19T07:16:16Z</time>
      </trkpt>
      <trkpt lat="45.18582" lon="5.96599">
        <ele>1857.8</ele>
        <time>2026-07-19T07:16:22Z</time>
      </trkpt>
      <trkpt lat="45.18582" lon="5.96599">
        <ele>1858</ele>
        <time>2026-07-19T07:16:23Z</time>
      </trkpt>
      <trkpt lat="45.18583" lon="5.96602">
        <ele>1859.2</ele>
        <time>2026-07-19T07:16:27Z</time>
      </trkpt>
      <trkpt lat="45.18582" lon="5.96605">
        <ele>1860.4</ele>
        <time>2026-07-19T07:16:31Z</time>
      </trkpt>
      <trkpt lat="45.18582" lon="5.96606">
        <ele>1860.6</ele>
        <time>2026-07-19T07:16:32Z</time>
      </trkpt>
      <trkpt lat="45.18582" lon="5.96607">
        <ele>1861.6</ele>
        <time>2026-07-19T07:16:34Z</time>
      </trkpt>
      <trkpt lat="45.18582" lon="5.96609">
        <ele>1862.6</ele>
        <time>2026-07-19T07:16:37Z</time>
      </trkpt>
      <trkpt lat="45.18581" lon="5.96613">
        <ele>1863.4</ele>
        <time>2026-07-19T07:16:42Z</time>
      </trkpt>
      <trkpt lat="45.18583" lon="5.96613">
        <ele>1864</ele>
        <time>2026-07-19T07:16:44Z</time>
      </trkpt>
      <trkpt lat="45.18584" lon="5.96616">
        <ele>1865.2</ele>
        <time>2026-07-19T07:16:48Z</time>
      </trkpt>
      <trkpt lat="45.18584" lon="5.96617">
        <ele>1866</ele>
        <time>2026-07-19T07:16:50Z</time>
      </trkpt>
      <trkpt lat="45.18583" lon="5.96618">
        <ele>1866.6</ele>
        <time>2026-07-19T07:16:52Z</time>
      </trkpt>
      <trkpt lat="45.18582" lon="5.96621">
        <ele>1868</ele>
        <time>2026-07-19T07:16:57Z</time>
      </trkpt>
      <trkpt lat="45.18581" lon="5.96625">
        <ele>1869.2</ele>
        <time>2026-07-19T07:17:01Z</time>
      </trkpt>
      <trkpt lat="45.1858" lon="5.96625">
        <ele>1869.4</ele>
        <time>2026-07-19T07:17:02Z</time>
      </trkpt>
      <trkpt lat="45.1857" lon="5.96633">
        <ele>1870</ele>
        <time>2026-07-19T07:17:14Z</time>
      </trkpt>
      <trkpt lat="45.18568" lon="5.96634">
        <ele>1870.4</ele>
        <time>2026-07-19T07:17:16Z</time>
      </trkpt>
      <trkpt lat="45.18562" lon="5.96636">
        <ele>1871.4</ele>
        <time>2026-07-19T07:17:22Z</time>
      </trkpt>
      <trkpt lat="45.1856" lon="5.96637">
        <ele>1872.8</ele>
        <time>2026-07-19T07:17:25Z</time>
      </trkpt>
      <trkpt lat="45.18557" lon="5.96638">
        <ele>1874</ele>
        <time>2026-07-19T07:17:28Z</time>
      </trkpt>
      <trkpt lat="45.18556" lon="5.96641">
        <ele>1875.2</ele>
        <time>2026-07-19T07:17:32Z</time>
      </trkpt>
      <trkpt lat="45.1855" lon="5.96645">
        <ele>1875.4</ele>
        <time>2026-07-19T07:17:38Z</time>
      </trkpt>
      <trkpt lat="45.18539" lon="5.96652">
        <ele>1876.4</ele>
        <time>2026-07-19T07:17:49Z</time>
      </trkpt>
      <trkpt lat="45.18534" lon="5.96653">
        <ele>1877</ele>
        <time>2026-07-19T07:17:55Z</time>
      </trkpt>
      <trkpt lat="45.18531" lon="5.96655">
        <ele>1875.2</ele>
        <time>2026-07-19T07:18:05Z</time>
      </trkpt>
      <trkpt lat="45.1853" lon="5.96656">
        <ele>1875</ele>
        <time>2026-07-19T07:18:08Z</time>
      </trkpt>
      <trkpt lat="45.18528" lon="5.96662">
        <ele>1876.4</ele>
        <time>2026-07-19T07:18:15Z</time>
      </trkpt>
      <trkpt lat="45.18527" lon="5.96663">
        <ele>1877.4</ele>
        <time>2026-07-19T07:18:17Z</time>
      </trkpt>
      <trkpt lat="45.18525" lon="5.96666">
        <ele>1878.6</ele>
        <time>2026-07-19T07:18:22Z</time>
      </trkpt>
      <trkpt lat="45.18524" lon="5.96667">
        <ele>1880</ele>
        <time>2026-07-19T07:18:25Z</time>
      </trkpt>
      <trkpt lat="45.18521" lon="5.96669">
        <ele>1881.2</ele>
        <time>2026-07-19T07:18:29Z</time>
      </trkpt>
      <trkpt lat="45.18521" lon="5.96669">
        <ele>1881.4</ele>
        <time>2026-07-19T07:18:30Z</time>
      </trkpt>
      <trkpt lat="45.18518" lon="5.96672">
        <ele>1882.4</ele>
        <time>2026-07-19T07:18:34Z</time>
      </trkpt>
      <trkpt lat="45.18514" lon="5.96677">
        <ele>1883.6</ele>
        <time>2026-07-19T07:18:40Z</time>
      </trkpt>
      <trkpt lat="45.18513" lon="5.96679">
        <ele>1885.2</ele>
        <time>2026-07-19T07:18:43Z</time>
      </trkpt>
      <trkpt lat="45.18513" lon="5.9668">
        <ele>1885.6</ele>
        <time>2026-07-19T07:18:44Z</time>
      </trkpt>
      <trkpt lat="45.18511" lon="5.96682">
        <ele>1886.4</ele>
        <time>2026-07-19T07:18:49Z</time>
      </trkpt>
      <trkpt lat="45.18509" lon="5.9668">
        <ele>1885.8</ele>
        <time>2026-07-19T07:18:55Z</time>
      </trkpt>
      <trkpt lat="45.18508" lon="5.96681">
        <ele>1888</ele>
        <time>2026-07-19T07:19:04Z</time>
      </trkpt>
      <trkpt lat="45.18506" lon="5.96681">
        <ele>1889</ele>
        <time>2026-07-19T07:19:06Z</time>
      </trkpt>
      <trkpt lat="45.18505" lon="5.96682">
        <ele>1889.4</ele>
        <time>2026-07-19T07:19:08Z</time>
      </trkpt>
      <trkpt lat="45.18504" lon="5.96683">
        <ele>1890.6</ele>
        <time>2026-07-19T07:19:12Z</time>
      </trkpt>
      <trkpt lat="45.18503" lon="5.96684">
        <ele>1891.6</ele>
        <time>2026-07-19T07:19:14Z</time>
      </trkpt>
      <trkpt lat="45.18499" lon="5.96685">
        <ele>1892.4</ele>
        <time>2026-07-19T07:19:19Z</time>
      </trkpt>
      <trkpt lat="45.18495" lon="5.9668">
        <ele>1892.8</ele>
        <time>2026-07-19T07:19:23Z</time>
      </trkpt>
      <trkpt lat="45.18493" lon="5.9668">
        <ele>1893.2</ele>
        <time>2026-07-19T07:19:27Z</time>
      </trkpt>
      <trkpt lat="45.18484" lon="5.9668">
        <ele>1894</ele>
        <time>2026-07-19T07:19:36Z</time>
      </trkpt>
      <trkpt lat="45.18483" lon="5.9668">
        <ele>1894.4</ele>
        <time>2026-07-19T07:19:37Z</time>
      </trkpt>
      <trkpt lat="45.18479" lon="5.96681">
        <ele>1895.4</ele>
        <time>2026-07-19T07:19:40Z</time>
      </trkpt>
      <trkpt lat="45.18474" lon="5.96684">
        <ele>1896.8</ele>
        <time>2026-07-19T07:19:44Z</time>
      </trkpt>
      <trkpt lat="45.1847" lon="5.96687">
        <ele>1898</ele>
        <time>2026-07-19T07:19:47Z</time>
      </trkpt>
      <trkpt lat="45.18468" lon="5.96687">
        <ele>1898.2</ele>
        <time>2026-07-19T07:19:48Z</time>
      </trkpt>
      <trkpt lat="45.18466" lon="5.96686">
        <ele>1898.4</ele>
        <time>2026-07-19T07:19:50Z</time>
      </trkpt>
      <trkpt lat="45.18466" lon="5.96686">
        <ele>1898.6</ele>
        <time>2026-07-19T07:19:53Z</time>
      </trkpt>
      <trkpt lat="45.18464" lon="5.96691">
        <ele>1898.2</ele>
        <time>2026-07-19T07:19:58Z</time>
      </trkpt>
      <trkpt lat="45.18462" lon="5.9669">
        <ele>1898.2</ele>
        <time>2026-07-19T07:19:59Z</time>
      </trkpt>
      <trkpt lat="45.18458" lon="5.96691">
        <ele>1898.4</ele>
        <time>2026-07-19T07:20:01Z</time>
      </trkpt>
      <trkpt lat="45.18456" lon="5.96693">
        <ele>1898.6</ele>
        <time>2026-07-19T07:20:03Z</time>
      </trkpt>
      <trkpt lat="45.18456" lon="5.96699">
        <ele>1899.4</ele>
        <time>2026-07-19T07:20:06Z</time>
      </trkpt>
      <trkpt lat="45.18456" lon="5.96701">
        <ele>1899.8</ele>
        <time>2026-07-19T07:20:08Z</time>
      </trkpt>
      <trkpt lat="45.18454" lon="5.96705">
        <ele>1900.2</ele>
        <time>2026-07-19T07:20:12Z</time>
      </trkpt>
      <trkpt lat="45.18454" lon="5.96706">
        <ele>1900.6</ele>
        <time>2026-07-19T07:20:13Z</time>
      </trkpt>
      <trkpt lat="45.18452" lon="5.96708">
        <ele>1901.4</ele>
        <time>2026-07-19T07:20:16Z</time>
      </trkpt>
      <trkpt lat="45.18451" lon="5.96708">
        <ele>1902</ele>
        <time>2026-07-19T07:20:17Z</time>
      </trkpt>
      <trkpt lat="45.18448" lon="5.96708">
        <ele>1903.2</ele>
        <time>2026-07-19T07:20:20Z</time>
      </trkpt>
      <trkpt lat="45.18447" lon="5.96707">
        <ele>1903.6</ele>
        <time>2026-07-19T07:20:21Z</time>
      </trkpt>
      <trkpt lat="45.18445" lon="5.96706">
        <ele>1904.4</ele>
        <time>2026-07-19T07:20:23Z</time>
      </trkpt>
      <trkpt lat="45.18444" lon="5.96706">
        <ele>1905.6</ele>
        <time>2026-07-19T07:20:25Z</time>
      </trkpt>
      <trkpt lat="45.18443" lon="5.96706">
        <ele>1906</ele>
        <time>2026-07-19T07:20:27Z</time>
      </trkpt>
      <trkpt lat="45.18441" lon="5.96706">
        <ele>1908.6</ele>
        <time>2026-07-19T07:20:30Z</time>
      </trkpt>
      <trkpt lat="45.1844" lon="5.96705">
        <ele>1909.6</ele>
        <time>2026-07-19T07:20:31Z</time>
      </trkpt>
      <trkpt lat="45.18437" lon="5.96704">
        <ele>1910.8</ele>
        <time>2026-07-19T07:20:33Z</time>
      </trkpt>
      <trkpt lat="45.18435" lon="5.96705">
        <ele>1912</ele>
        <time>2026-07-19T07:20:36Z</time>
      </trkpt>
      <trkpt lat="45.18435" lon="5.96706">
        <ele>1912.6</ele>
        <time>2026-07-19T07:20:37Z</time>
      </trkpt>
      <trkpt lat="45.18435" lon="5.96707">
        <ele>1913.4</ele>
        <time>2026-07-19T07:20:39Z</time>
      </trkpt>
      <trkpt lat="45.18434" lon="5.96707">
        <ele>1914.4</ele>
        <time>2026-07-19T07:20:41Z</time>
      </trkpt>
      <trkpt lat="45.18433" lon="5.96708">
        <ele>1914.8</ele>
        <time>2026-07-19T07:20:42Z</time>
      </trkpt>
      <trkpt lat="45.18431" lon="5.96706">
        <ele>1914.6</ele>
        <time>2026-07-19T07:20:44Z</time>
      </trkpt>
      <trkpt lat="45.18429" lon="5.96705">
        <ele>1914.6</ele>
        <time>2026-07-19T07:20:45Z</time>
      </trkpt>
      <trkpt lat="45.18428" lon="5.96704">
        <ele>1914</ele>
        <time>2026-07-19T07:20:46Z</time>
      </trkpt>
      <trkpt lat="45.18425" lon="5.96701">
        <ele>1913.6</ele>
        <time>2026-07-19T07:20:49Z</time>
      </trkpt>
      <trkpt lat="45.18424" lon="5.967">
        <ele>1912.6</ele>
        <time>2026-07-19T07:20:51Z</time>
      </trkpt>
      <trkpt lat="45.18423" lon="5.96701">
        <ele>1912.6</ele>
        <time>2026-07-19T07:20:52Z</time>
      </trkpt>
      <trkpt lat="45.1842" lon="5.96701">
        <ele>1912.8</ele>
        <time>2026-07-19T07:20:58Z</time>
      </trkpt>
      <trkpt lat="45.18416" lon="5.96704">
        <ele>1914.8</ele>
        <time>2026-07-19T07:21:07Z</time>
      </trkpt>
      <trkpt lat="45.18415" lon="5.96705">
        <ele>1915</ele>
        <time>2026-07-19T07:21:08Z</time>
      </trkpt>
      <trkpt lat="45.18413" lon="5.96707">
        <ele>1916.2</ele>
        <time>2026-07-19T07:21:11Z</time>
      </trkpt>
      <trkpt lat="45.18411" lon="5.9671">
        <ele>1917.8</ele>
        <time>2026-07-19T07:21:14Z</time>
      </trkpt>
      <trkpt lat="45.18408" lon="5.96711">
        <ele>1919</ele>
        <time>2026-07-19T07:21:17Z</time>
      </trkpt>
      <trkpt lat="45.18406" lon="5.9671">
        <ele>1919.4</ele>
        <time>2026-07-19T07:21:22Z</time>
      </trkpt>
      <trkpt lat="45.18405" lon="5.96709">
        <ele>1920.2</ele>
        <time>2026-07-19T07:21:25Z</time>
      </trkpt>
      <trkpt lat="45.18401" lon="5.96698">
        <ele>1920.4</ele>
        <time>2026-07-19T07:21:33Z</time>
      </trkpt>
      <trkpt lat="45.18402" lon="5.96694">
        <ele>1922</ele>
        <time>2026-07-19T07:21:35Z</time>
      </trkpt>
      <trkpt lat="45.18401" lon="5.96688">
        <ele>1923.2</ele>
        <time>2026-07-19T07:21:41Z</time>
      </trkpt>
      <trkpt lat="45.18401" lon="5.96687">
        <ele>1924</ele>
        <time>2026-07-19T07:21:44Z</time>
      </trkpt>
      <trkpt lat="45.18401" lon="5.96687">
        <ele>1924.6</ele>
        <time>2026-07-19T07:21:46Z</time>
      </trkpt>
      <trkpt lat="45.18402" lon="5.96686">
        <ele>1926</ele>
        <time>2026-07-19T07:21:51Z</time>
      </trkpt>
      <trkpt lat="45.18402" lon="5.96683">
        <ele>1926.2</ele>
        <time>2026-07-19T07:21:57Z</time>
      </trkpt>
      <trkpt lat="45.18403" lon="5.96683">
        <ele>1927.2</ele>
        <time>2026-07-19T07:22:00Z</time>
      </trkpt>
      <trkpt lat="45.184" lon="5.96681">
        <ele>1928.2</ele>
        <time>2026-07-19T07:22:08Z</time>
      </trkpt>
      <trkpt lat="45.18393" lon="5.96679">
        <ele>1928.6</ele>
        <time>2026-07-19T07:22:16Z</time>
      </trkpt>
      <trkpt lat="45.18392" lon="5.96679">
        <ele>1928.8</ele>
        <time>2026-07-19T07:22:17Z</time>
      </trkpt>
      <trkpt lat="45.18391" lon="5.96679">
        <ele>1928.8</ele>
        <time>2026-07-19T07:22:18Z</time>
      </trkpt>
      <trkpt lat="45.18382" lon="5.96679">
        <ele>1929.8</ele>
        <time>2026-07-19T07:22:28Z</time>
      </trkpt>
      <trkpt lat="45.18382" lon="5.9668">
        <ele>1930.2</ele>
        <time>2026-07-19T07:22:29Z</time>
      </trkpt>
      <trkpt lat="45.18381" lon="5.9668">
        <ele>1931.2</ele>
        <time>2026-07-19T07:22:31Z</time>
      </trkpt>
      <trkpt lat="45.18376" lon="5.9668">
        <ele>1931.8</ele>
        <time>2026-07-19T07:22:38Z</time>
      </trkpt>
      <trkpt lat="45.18369" lon="5.96678">
        <ele>1932.4</ele>
        <time>2026-07-19T07:22:45Z</time>
      </trkpt>
      <trkpt lat="45.18367" lon="5.96677">
        <ele>1933.6</ele>
        <time>2026-07-19T07:22:48Z</time>
      </trkpt>
      <trkpt lat="45.18366" lon="5.96677">
        <ele>1933.6</ele>
        <time>2026-07-19T07:22:49Z</time>
      </trkpt>
      <trkpt lat="45.18359" lon="5.96674">
        <ele>1934.8</ele>
        <time>2026-07-19T07:22:57Z</time>
      </trkpt>
      <trkpt lat="45.18356" lon="5.96673">
        <ele>1935.6</ele>
        <time>2026-07-19T07:23:01Z</time>
      </trkpt>
      <trkpt lat="45.18355" lon="5.96672">
        <ele>1936</ele>
        <time>2026-07-19T07:23:02Z</time>
      </trkpt>
      <trkpt lat="45.18346" lon="5.96666">
        <ele>1937.2</ele>
        <time>2026-07-19T07:23:10Z</time>
      </trkpt>
      <trkpt lat="45.18344" lon="5.96666">
        <ele>1937.4</ele>
        <time>2026-07-19T07:23:12Z</time>
      </trkpt>
      <trkpt lat="45.18339" lon="5.96663">
        <ele>1938.4</ele>
        <time>2026-07-19T07:23:17Z</time>
      </trkpt>
      <trkpt lat="45.18331" lon="5.96662">
        <ele>1939.4</ele>
        <time>2026-07-19T07:23:26Z</time>
      </trkpt>
      <trkpt lat="45.1833" lon="5.96661">
        <ele>1939.6</ele>
        <time>2026-07-19T07:23:27Z</time>
      </trkpt>
      <trkpt lat="45.18327" lon="5.96659">
        <ele>1940.8</ele>
        <time>2026-07-19T07:23:31Z</time>
      </trkpt>
      <trkpt lat="45.18325" lon="5.96657">
        <ele>1942</ele>
        <time>2026-07-19T07:23:35Z</time>
      </trkpt>
      <trkpt lat="45.18324" lon="5.96655">
        <ele>1943</ele>
        <time>2026-07-19T07:23:38Z</time>
      </trkpt>
      <trkpt lat="45.18323" lon="5.96655">
        <ele>1943.4</ele>
        <time>2026-07-19T07:23:39Z</time>
      </trkpt>
      <trkpt lat="45.18322" lon="5.96652">
        <ele>1944.6</ele>
        <time>2026-07-19T07:23:43Z</time>
      </trkpt>
      <trkpt lat="45.18316" lon="5.96648">
        <ele>1945.8</ele>
        <time>2026-07-19T07:23:49Z</time>
      </trkpt>
      <trkpt lat="45.18313" lon="5.96645">
        <ele>1946.8</ele>
        <time>2026-07-19T07:23:53Z</time>
      </trkpt>
      <trkpt lat="45.1831" lon="5.96641">
        <ele>1948.2</ele>
        <time>2026-07-19T07:23:57Z</time>
      </trkpt>
      <trkpt lat="45.18308" lon="5.96639">
        <ele>1949.6</ele>
        <time>2026-07-19T07:23:59Z</time>
      </trkpt>
      <trkpt lat="45.18307" lon="5.96637">
        <ele>1950.8</ele>
        <time>2026-07-19T07:24:01Z</time>
      </trkpt>
      <trkpt lat="45.18306" lon="5.96636">
        <ele>1951.4</ele>
        <time>2026-07-19T07:24:02Z</time>
      </trkpt>
      <trkpt lat="45.18305" lon="5.96634">
        <ele>1952.2</ele>
        <time>2026-07-19T07:24:04Z</time>
      </trkpt>
      <trkpt lat="45.18296" lon="5.96625">
        <ele>1952.2</ele>
        <time>2026-07-19T07:24:15Z</time>
      </trkpt>
      <trkpt lat="45.18294" lon="5.96624">
        <ele>1952.6</ele>
        <time>2026-07-19T07:24:18Z</time>
      </trkpt>
      <trkpt lat="45.18285" lon="5.9662">
        <ele>1953.4</ele>
        <time>2026-07-19T07:24:28Z</time>
      </trkpt>
      <trkpt lat="45.18285" lon="5.9662">
        <ele>1953.4</ele>
        <time>2026-07-19T07:24:29Z</time>
      </trkpt>
      <trkpt lat="45.18281" lon="5.9662">
        <ele>1954.6</ele>
        <time>2026-07-19T07:24:34Z</time>
      </trkpt>
      <trkpt lat="45.18277" lon="5.96619">
        <ele>1955.8</ele>
        <time>2026-07-19T07:24:39Z</time>
      </trkpt>
      <trkpt lat="45.18272" lon="5.96619">
        <ele>1955.6</ele>
        <time>2026-07-19T07:24:43Z</time>
      </trkpt>
      <trkpt lat="45.18264" lon="5.96619">
        <ele>1956.8</ele>
        <time>2026-07-19T07:24:54Z</time>
      </trkpt>
      <trkpt lat="45.18264" lon="5.96619">
        <ele>1957.2</ele>
        <time>2026-07-19T07:24:55Z</time>
      </trkpt>
      <trkpt lat="45.18257" lon="5.96621">
        <ele>1958.4</ele>
        <time>2026-07-19T07:25:05Z</time>
      </trkpt>
      <trkpt lat="45.18256" lon="5.96619">
        <ele>1959</ele>
        <time>2026-07-19T07:25:07Z</time>
      </trkpt>
      <trkpt lat="45.18254" lon="5.96619">
        <ele>1960</ele>
        <time>2026-07-19T07:25:10Z</time>
      </trkpt>
      <trkpt lat="45.1825" lon="5.96618">
        <ele>1961.2</ele>
        <time>2026-07-19T07:25:14Z</time>
      </trkpt>
      <trkpt lat="45.18247" lon="5.96618">
        <ele>1962.6</ele>
        <time>2026-07-19T07:25:19Z</time>
      </trkpt>
      <trkpt lat="45.18248" lon="5.96618">
        <ele>1963.4</ele>
        <time>2026-07-19T07:25:20Z</time>
      </trkpt>
      <trkpt lat="45.1825" lon="5.96619">
        <ele>1964.6</ele>
        <time>2026-07-19T07:25:21Z</time>
      </trkpt>
      <trkpt lat="45.18251" lon="5.96621">
        <ele>1966</ele>
        <time>2026-07-19T07:25:23Z</time>
      </trkpt>
      <trkpt lat="45.18252" lon="5.96622">
        <ele>1967.2</ele>
        <time>2026-07-19T07:25:25Z</time>
      </trkpt>
      <trkpt lat="45.18253" lon="5.96623">
        <ele>1968.4</ele>
        <time>2026-07-19T07:25:27Z</time>
      </trkpt>
      <trkpt lat="45.18254" lon="5.96625">
        <ele>1969.8</ele>
        <time>2026-07-19T07:25:29Z</time>
      </trkpt>
      <trkpt lat="45.18255" lon="5.96627">
        <ele>1971</ele>
        <time>2026-07-19T07:25:32Z</time>
      </trkpt>
      <trkpt lat="45.18256" lon="5.96632">
        <ele>1972.6</ele>
        <time>2026-07-19T07:25:39Z</time>
      </trkpt>
      <trkpt lat="45.18256" lon="5.96635">
        <ele>1973.8</ele>
        <time>2026-07-19T07:25:42Z</time>
      </trkpt>
      <trkpt lat="45.18257" lon="5.96637">
        <ele>1975</ele>
        <time>2026-07-19T07:25:45Z</time>
      </trkpt>
      <trkpt lat="45.18258" lon="5.9664">
        <ele>1976</ele>
        <time>2026-07-19T07:25:49Z</time>
      </trkpt>
      <trkpt lat="45.18259" lon="5.96641">
        <ele>1976.6</ele>
        <time>2026-07-19T07:25:51Z</time>
      </trkpt>
      <trkpt lat="45.1826" lon="5.96642">
        <ele>1977.8</ele>
        <time>2026-07-19T07:25:53Z</time>
      </trkpt>
      <trkpt lat="45.18261" lon="5.96645">
        <ele>1979.2</ele>
        <time>2026-07-19T07:25:56Z</time>
      </trkpt>
      <trkpt lat="45.18262" lon="5.96647">
        <ele>1980.6</ele>
        <time>2026-07-19T07:25:59Z</time>
      </trkpt>
      <trkpt lat="45.18262" lon="5.96649">
        <ele>1981.8</ele>
        <time>2026-07-19T07:26:02Z</time>
      </trkpt>
      <trkpt lat="45.18262" lon="5.96649">
        <ele>1982</ele>
        <time>2026-07-19T07:26:03Z</time>
      </trkpt>
      <trkpt lat="45.1826" lon="5.9665">
        <ele>1983</ele>
        <time>2026-07-19T07:26:07Z</time>
      </trkpt>
      <trkpt lat="45.18258" lon="5.96653">
        <ele>1984.4</ele>
        <time>2026-07-19T07:26:12Z</time>
      </trkpt>
      <trkpt lat="45.18257" lon="5.96654">
        <ele>1984.6</ele>
        <time>2026-07-19T07:26:13Z</time>
      </trkpt>
      <trkpt lat="45.18259" lon="5.96656">
        <ele>1985.6</ele>
        <time>2026-07-19T07:26:16Z</time>
      </trkpt>
      <trkpt lat="45.1826" lon="5.96658">
        <ele>1987</ele>
        <time>2026-07-19T07:26:18Z</time>
      </trkpt>
      <trkpt lat="45.18259" lon="5.96662">
        <ele>1987.8</ele>
        <time>2026-07-19T07:26:23Z</time>
      </trkpt>
      <trkpt lat="45.18259" lon="5.96664">
        <ele>1988.2</ele>
        <time>2026-07-19T07:26:25Z</time>
      </trkpt>
      <trkpt lat="45.18261" lon="5.96667">
        <ele>1989.4</ele>
        <time>2026-07-19T07:26:29Z</time>
      </trkpt>
      <trkpt lat="45.18262" lon="5.9667">
        <ele>1991</ele>
        <time>2026-07-19T07:26:32Z</time>
      </trkpt>
      <trkpt lat="45.18264" lon="5.96671">
        <ele>1991.6</ele>
        <time>2026-07-19T07:26:34Z</time>
      </trkpt>
      <trkpt lat="45.18266" lon="5.96673">
        <ele>1992.4</ele>
        <time>2026-07-19T07:26:39Z</time>
      </trkpt>
      <trkpt lat="45.18268" lon="5.96679">
        <ele>1992.4</ele>
        <time>2026-07-19T07:26:46Z</time>
      </trkpt>
      <trkpt lat="45.18266" lon="5.96679">
        <ele>1991.4</ele>
        <time>2026-07-19T07:26:47Z</time>
      </trkpt>
      <trkpt lat="45.18261" lon="5.96682">
        <ele>1991.4</ele>
        <time>2026-07-19T07:26:52Z</time>
      </trkpt>
      <trkpt lat="45.18264" lon="5.96685">
        <ele>1992.4</ele>
        <time>2026-07-19T07:26:58Z</time>
      </trkpt>
      <trkpt lat="45.18265" lon="5.96686">
        <ele>1993</ele>
        <time>2026-07-19T07:27:00Z</time>
      </trkpt>
      <trkpt lat="45.18266" lon="5.96687">
        <ele>1993.8</ele>
        <time>2026-07-19T07:27:02Z</time>
      </trkpt>
      <trkpt lat="45.18266" lon="5.9669">
        <ele>1995</ele>
        <time>2026-07-19T07:27:06Z</time>
      </trkpt>
      <trkpt lat="45.18262" lon="5.96691">
        <ele>1995.4</ele>
        <time>2026-07-19T07:27:10Z</time>
      </trkpt>
      <trkpt lat="45.18261" lon="5.96693">
        <ele>1996.2</ele>
        <time>2026-07-19T07:27:13Z</time>
      </trkpt>
      <trkpt lat="45.18262" lon="5.96698">
        <ele>1996.4</ele>
        <time>2026-07-19T07:27:18Z</time>
      </trkpt>
      <trkpt lat="45.18264" lon="5.96705">
        <ele>1996.4</ele>
        <time>2026-07-19T07:27:27Z</time>
      </trkpt>
      <trkpt lat="45.18258" lon="5.96706">
        <ele>1997.2</ele>
        <time>2026-07-19T07:27:36Z</time>
      </trkpt>
      <trkpt lat="45.18258" lon="5.96706">
        <ele>1997.4</ele>
        <time>2026-07-19T07:27:37Z</time>
      </trkpt>
      <trkpt lat="45.18257" lon="5.96711">
        <ele>1998.6</ele>
        <time>2026-07-19T07:27:46Z</time>
      </trkpt>
      <trkpt lat="45.18252" lon="5.96713">
        <ele>1999.6</ele>
        <time>2026-07-19T07:27:56Z</time>
      </trkpt>
      <trkpt lat="45.18251" lon="5.96713">
        <ele>2000</ele>
        <time>2026-07-19T07:27:58Z</time>
      </trkpt>
      <trkpt lat="45.18244" lon="5.9671">
        <ele>2000.6</ele>
        <time>2026-07-19T07:28:08Z</time>
      </trkpt>
      <trkpt lat="45.18237" lon="5.96707">
        <ele>2001.4</ele>
        <time>2026-07-19T07:28:18Z</time>
      </trkpt>
      <trkpt lat="45.18235" lon="5.96703">
        <ele>2002.4</ele>
        <time>2026-07-19T07:28:23Z</time>
      </trkpt>
      <trkpt lat="45.18235" lon="5.96703">
        <ele>2003.2</ele>
        <time>2026-07-19T07:28:24Z</time>
      </trkpt>
      <trkpt lat="45.18233" lon="5.96703">
        <ele>2004.8</ele>
        <time>2026-07-19T07:28:28Z</time>
      </trkpt>
      <trkpt lat="45.18233" lon="5.96701">
        <ele>2006.2</ele>
        <time>2026-07-19T07:28:31Z</time>
      </trkpt>
      <trkpt lat="45.18232" lon="5.96699">
        <ele>2007.2</ele>
        <time>2026-07-19T07:28:33Z</time>
      </trkpt>
      <trkpt lat="45.18232" lon="5.96698">
        <ele>2007.6</ele>
        <time>2026-07-19T07:28:34Z</time>
      </trkpt>
      <trkpt lat="45.1823" lon="5.96696">
        <ele>2009</ele>
        <time>2026-07-19T07:28:37Z</time>
      </trkpt>
      <trkpt lat="45.18224" lon="5.96684">
        <ele>2010</ele>
        <time>2026-07-19T07:28:46Z</time>
      </trkpt>
      <trkpt lat="45.18223" lon="5.96683">
        <ele>2010.4</ele>
        <time>2026-07-19T07:28:47Z</time>
      </trkpt>
      <trkpt lat="45.18221" lon="5.96676">
        <ele>2012</ele>
        <time>2026-07-19T07:28:51Z</time>
      </trkpt>
      <trkpt lat="45.1822" lon="5.96671">
        <ele>2013.2</ele>
        <time>2026-07-19T07:28:54Z</time>
      </trkpt>
      <trkpt lat="45.18221" lon="5.96667">
        <ele>2014.6</ele>
        <time>2026-07-19T07:28:56Z</time>
      </trkpt>
      <trkpt lat="45.1822" lon="5.96666">
        <ele>2015</ele>
        <time>2026-07-19T07:28:57Z</time>
      </trkpt>
      <trkpt lat="45.1822" lon="5.96663">
        <ele>2015.8</ele>
        <time>2026-07-19T07:28:59Z</time>
      </trkpt>
      <trkpt lat="45.18217" lon="5.96657">
        <ele>2017.2</ele>
        <time>2026-07-19T07:29:05Z</time>
      </trkpt>
      <trkpt lat="45.18216" lon="5.96656">
        <ele>2017.4</ele>
        <time>2026-07-19T07:29:06Z</time>
      </trkpt>
      <trkpt lat="45.18215" lon="5.96654">
        <ele>2018.4</ele>
        <time>2026-07-19T07:29:09Z</time>
      </trkpt>
      <trkpt lat="45.18213" lon="5.96649">
        <ele>2019.6</ele>
        <time>2026-07-19T07:29:14Z</time>
      </trkpt>
      <trkpt lat="45.1821" lon="5.96643">
        <ele>2020.8</ele>
        <time>2026-07-19T07:29:18Z</time>
      </trkpt>
      <trkpt lat="45.18207" lon="5.9664">
        <ele>2021.8</ele>
        <time>2026-07-19T07:29:22Z</time>
      </trkpt>
      <trkpt lat="45.18204" lon="5.96637">
        <ele>2023.2</ele>
        <time>2026-07-19T07:29:26Z</time>
      </trkpt>
      <trkpt lat="45.18202" lon="5.96636">
        <ele>2024.2</ele>
        <time>2026-07-19T07:29:28Z</time>
      </trkpt>
      <trkpt lat="45.18202" lon="5.96635">
        <ele>2024.4</ele>
        <time>2026-07-19T07:29:29Z</time>
      </trkpt>
      <trkpt lat="45.182" lon="5.96633">
        <ele>2024.6</ele>
        <time>2026-07-19T07:29:32Z</time>
      </trkpt>
      <trkpt lat="45.18198" lon="5.9663">
        <ele>2025.6</ele>
        <time>2026-07-19T07:29:36Z</time>
      </trkpt>
      <trkpt lat="45.18196" lon="5.96629">
        <ele>2026.4</ele>
        <time>2026-07-19T07:29:39Z</time>
      </trkpt>
      <trkpt lat="45.18195" lon="5.96628">
        <ele>2026.6</ele>
        <time>2026-07-19T07:29:40Z</time>
      </trkpt>
      <trkpt lat="45.18195" lon="5.96628">
        <ele>2027.2</ele>
        <time>2026-07-19T07:29:41Z</time>
      </trkpt>
      <trkpt lat="45.18193" lon="5.96627">
        <ele>2028.4</ele>
        <time>2026-07-19T07:29:44Z</time>
      </trkpt>
      <trkpt lat="45.18191" lon="5.96625">
        <ele>2029.8</ele>
        <time>2026-07-19T07:29:47Z</time>
      </trkpt>
      <trkpt lat="45.1819" lon="5.96624">
        <ele>2031.2</ele>
        <time>2026-07-19T07:29:49Z</time>
      </trkpt>
      <trkpt lat="45.18188" lon="5.96627">
        <ele>2032.2</ele>
        <time>2026-07-19T07:29:53Z</time>
      </trkpt>
      <trkpt lat="45.18188" lon="5.96628">
        <ele>2032.6</ele>
        <time>2026-07-19T07:29:54Z</time>
      </trkpt>
      <trkpt lat="45.18186" lon="5.96631">
        <ele>2033.8</ele>
        <time>2026-07-19T07:30:00Z</time>
      </trkpt>
      <trkpt lat="45.18185" lon="5.96631">
        <ele>2034.2</ele>
        <time>2026-07-19T07:30:02Z</time>
      </trkpt>
      <trkpt lat="45.18182" lon="5.96628">
        <ele>2035</ele>
        <time>2026-07-19T07:30:09Z</time>
      </trkpt>
      <trkpt lat="45.1818" lon="5.96628">
        <ele>2036.2</ele>
        <time>2026-07-19T07:30:12Z</time>
      </trkpt>
      <trkpt lat="45.18178" lon="5.96629">
        <ele>2037.4</ele>
        <time>2026-07-19T07:30:16Z</time>
      </trkpt>
      <trkpt lat="45.18174" lon="5.96627">
        <ele>2038.2</ele>
        <time>2026-07-19T07:30:21Z</time>
      </trkpt>
      <trkpt lat="45.18172" lon="5.96627">
        <ele>2038.4</ele>
        <time>2026-07-19T07:30:26Z</time>
      </trkpt>
      <trkpt lat="45.18167" lon="5.96626">
        <ele>2039.4</ele>
        <time>2026-07-19T07:30:34Z</time>
      </trkpt>
      <trkpt lat="45.18167" lon="5.96627">
        <ele>2039.8</ele>
        <time>2026-07-19T07:30:35Z</time>
      </trkpt>
      <trkpt lat="45.18161" lon="5.96625">
        <ele>2040.4</ele>
        <time>2026-07-19T07:30:44Z</time>
      </trkpt>
      <trkpt lat="45.18159" lon="5.96626">
        <ele>2041</ele>
        <time>2026-07-19T07:30:48Z</time>
      </trkpt>
      <trkpt lat="45.18157" lon="5.96626">
        <ele>2042.2</ele>
        <time>2026-07-19T07:30:52Z</time>
      </trkpt>
      <trkpt lat="45.18156" lon="5.96626">
        <ele>2042.6</ele>
        <time>2026-07-19T07:30:53Z</time>
      </trkpt>
      <trkpt lat="45.18154" lon="5.96626">
        <ele>2043.4</ele>
        <time>2026-07-19T07:30:56Z</time>
      </trkpt>
      <trkpt lat="45.1815" lon="5.96629">
        <ele>2044.2</ele>
        <time>2026-07-19T07:31:02Z</time>
      </trkpt>
      <trkpt lat="45.18149" lon="5.9663">
        <ele>2044.6</ele>
        <time>2026-07-19T07:31:04Z</time>
      </trkpt>
      <trkpt lat="45.18147" lon="5.96633">
        <ele>2045.8</ele>
        <time>2026-07-19T07:31:08Z</time>
      </trkpt>
      <trkpt lat="45.18144" lon="5.96636">
        <ele>2046.6</ele>
        <time>2026-07-19T07:31:14Z</time>
      </trkpt>
      <trkpt lat="45.18143" lon="5.96638">
        <ele>2047</ele>
        <time>2026-07-19T07:31:19Z</time>
      </trkpt>
      <trkpt lat="45.1814" lon="5.96642">
        <ele>2047.6</ele>
        <time>2026-07-19T07:31:25Z</time>
      </trkpt>
      <trkpt lat="45.18137" lon="5.96642">
        <ele>2048</ele>
        <time>2026-07-19T07:31:29Z</time>
      </trkpt>
      <trkpt lat="45.18133" lon="5.96639">
        <ele>2049.6</ele>
        <time>2026-07-19T07:31:34Z</time>
      </trkpt>
      <trkpt lat="45.18133" lon="5.96639">
        <ele>2049.8</ele>
        <time>2026-07-19T07:31:35Z</time>
      </trkpt>
      <trkpt lat="45.18131" lon="5.96639">
        <ele>2051</ele>
        <time>2026-07-19T07:31:38Z</time>
      </trkpt>
      <trkpt lat="45.18129" lon="5.96638">
        <ele>2052.4</ele>
        <time>2026-07-19T07:31:41Z</time>
      </trkpt>
      <trkpt lat="45.18126" lon="5.96635">
        <ele>2053</ele>
        <time>2026-07-19T07:31:44Z</time>
      </trkpt>
      <trkpt lat="45.18122" lon="5.96633">
        <ele>2053.6</ele>
        <time>2026-07-19T07:31:47Z</time>
      </trkpt>
      <trkpt lat="45.18118" lon="5.96632">
        <ele>2054.8</ele>
        <time>2026-07-19T07:31:52Z</time>
      </trkpt>
      <trkpt lat="45.18117" lon="5.9663">
        <ele>2056</ele>
        <time>2026-07-19T07:31:55Z</time>
      </trkpt>
      <trkpt lat="45.18114" lon="5.96626">
        <ele>2057.4</ele>
        <time>2026-07-19T07:32:00Z</time>
      </trkpt>
      <trkpt lat="45.18109" lon="5.96623">
        <ele>2057.6</ele>
        <time>2026-07-19T07:32:07Z</time>
      </trkpt>
      <trkpt lat="45.18107" lon="5.96623">
        <ele>2058.6</ele>
        <time>2026-07-19T07:32:11Z</time>
      </trkpt>
      <trkpt lat="45.18102" lon="5.96622">
        <ele>2059.6</ele>
        <time>2026-07-19T07:32:19Z</time>
      </trkpt>
      <trkpt lat="45.18101" lon="5.96623">
        <ele>2060</ele>
        <time>2026-07-19T07:32:20Z</time>
      </trkpt>
      <trkpt lat="45.18099" lon="5.96623">
        <ele>2061.4</ele>
        <time>2026-07-19T07:32:23Z</time>
      </trkpt>
      <trkpt lat="45.18095" lon="5.96622">
        <ele>2062.8</ele>
        <time>2026-07-19T07:32:28Z</time>
      </trkpt>
      <trkpt lat="45.18095" lon="5.96621">
        <ele>2063.2</ele>
        <time>2026-07-19T07:32:29Z</time>
      </trkpt>
      <trkpt lat="45.18094" lon="5.96623">
        <ele>2064</ele>
        <time>2026-07-19T07:32:32Z</time>
      </trkpt>
      <trkpt lat="45.18094" lon="5.96625">
        <ele>2065</ele>
        <time>2026-07-19T07:32:36Z</time>
      </trkpt>
      <trkpt lat="45.18095" lon="5.96629">
        <ele>2066.2</ele>
        <time>2026-07-19T07:32:41Z</time>
      </trkpt>
      <trkpt lat="45.18097" lon="5.96632">
        <ele>2067.6</ele>
        <time>2026-07-19T07:32:45Z</time>
      </trkpt>
      <trkpt lat="45.18098" lon="5.96634">
        <ele>2068.8</ele>
        <time>2026-07-19T07:32:48Z</time>
      </trkpt>
      <trkpt lat="45.181" lon="5.96637">
        <ele>2070</ele>
        <time>2026-07-19T07:32:51Z</time>
      </trkpt>
      <trkpt lat="45.18099" lon="5.96639">
        <ele>2071</ele>
        <time>2026-07-19T07:32:54Z</time>
      </trkpt>
      <trkpt lat="45.18096" lon="5.9664">
        <ele>2072.2</ele>
        <time>2026-07-19T07:32:59Z</time>
      </trkpt>
      <trkpt lat="45.18092" lon="5.96639">
        <ele>2073.4</ele>
        <time>2026-07-19T07:33:04Z</time>
      </trkpt>
      <trkpt lat="45.1809" lon="5.96638">
        <ele>2074.6</ele>
        <time>2026-07-19T07:33:07Z</time>
      </trkpt>
      <trkpt lat="45.18089" lon="5.96638">
        <ele>2075.2</ele>
        <time>2026-07-19T07:33:09Z</time>
      </trkpt>
      <trkpt lat="45.18088" lon="5.96638">
        <ele>2075.6</ele>
        <time>2026-07-19T07:33:10Z</time>
      </trkpt>
      <trkpt lat="45.18087" lon="5.96637">
        <ele>2076.8</ele>
        <time>2026-07-19T07:33:12Z</time>
      </trkpt>
      <trkpt lat="45.18083" lon="5.96634">
        <ele>2078</ele>
        <time>2026-07-19T07:33:17Z</time>
      </trkpt>
      <trkpt lat="45.1808" lon="5.96633">
        <ele>2078.4</ele>
        <time>2026-07-19T07:33:20Z</time>
      </trkpt>
      <trkpt lat="45.18079" lon="5.96633">
        <ele>2079.2</ele>
        <time>2026-07-19T07:33:22Z</time>
      </trkpt>
      <trkpt lat="45.18078" lon="5.96634">
        <ele>2080.2</ele>
        <time>2026-07-19T07:33:24Z</time>
      </trkpt>
      <trkpt lat="45.18078" lon="5.96637">
        <ele>2081.2</ele>
        <time>2026-07-19T07:33:30Z</time>
      </trkpt>
      <trkpt lat="45.18078" lon="5.96637">
        <ele>2081.4</ele>
        <time>2026-07-19T07:33:31Z</time>
      </trkpt>
      <trkpt lat="45.18074" lon="5.96642">
        <ele>2082.8</ele>
        <time>2026-07-19T07:33:38Z</time>
      </trkpt>
      <trkpt lat="45.18069" lon="5.96641">
        <ele>2084</ele>
        <time>2026-07-19T07:33:46Z</time>
      </trkpt>
      <trkpt lat="45.18069" lon="5.96642">
        <ele>2084.2</ele>
        <time>2026-07-19T07:33:47Z</time>
      </trkpt>
      <trkpt lat="45.1807" lon="5.96644">
        <ele>2085.2</ele>
        <time>2026-07-19T07:33:50Z</time>
      </trkpt>
      <trkpt lat="45.1807" lon="5.96645">
        <ele>2086.4</ele>
        <time>2026-07-19T07:33:53Z</time>
      </trkpt>
      <trkpt lat="45.18071" lon="5.96648">
        <ele>2087.6</ele>
        <time>2026-07-19T07:33:56Z</time>
      </trkpt>
      <trkpt lat="45.18073" lon="5.9665">
        <ele>2088.8</ele>
        <time>2026-07-19T07:33:59Z</time>
      </trkpt>
      <trkpt lat="45.18075" lon="5.96653">
        <ele>2090</ele>
        <time>2026-07-19T07:34:02Z</time>
      </trkpt>
      <trkpt lat="45.18077" lon="5.96655">
        <ele>2091.4</ele>
        <time>2026-07-19T07:34:06Z</time>
      </trkpt>
      <trkpt lat="45.18078" lon="5.96656">
        <ele>2091.8</ele>
        <time>2026-07-19T07:34:08Z</time>
      </trkpt>
      <trkpt lat="45.1808" lon="5.96659">
        <ele>2092.8</ele>
        <time>2026-07-19T07:34:12Z</time>
      </trkpt>
      <trkpt lat="45.18082" lon="5.96662">
        <ele>2094.2</ele>
        <time>2026-07-19T07:34:15Z</time>
      </trkpt>
      <trkpt lat="45.18084" lon="5.96664">
        <ele>2095.4</ele>
        <time>2026-07-19T07:34:18Z</time>
      </trkpt>
      <trkpt lat="45.18086" lon="5.96666">
        <ele>2096.6</ele>
        <time>2026-07-19T07:34:21Z</time>
      </trkpt>
      <trkpt lat="45.1809" lon="5.96669">
        <ele>2098</ele>
        <time>2026-07-19T07:34:25Z</time>
      </trkpt>
      <trkpt lat="45.18092" lon="5.96673">
        <ele>2098.8</ele>
        <time>2026-07-19T07:34:29Z</time>
      </trkpt>
      <trkpt lat="45.18096" lon="5.96676">
        <ele>2099.2</ele>
        <time>2026-07-19T07:34:32Z</time>
      </trkpt>
      <trkpt lat="45.18099" lon="5.96679">
        <ele>2100.4</ele>
        <time>2026-07-19T07:34:35Z</time>
      </trkpt>
      <trkpt lat="45.18102" lon="5.9668">
        <ele>2101.4</ele>
        <time>2026-07-19T07:34:38Z</time>
      </trkpt>
      <trkpt lat="45.18104" lon="5.9668">
        <ele>2102.8</ele>
        <time>2026-07-19T07:34:41Z</time>
      </trkpt>
      <trkpt lat="45.18107" lon="5.9668">
        <ele>2104</ele>
        <time>2026-07-19T07:34:43Z</time>
      </trkpt>
      <trkpt lat="45.1811" lon="5.96682">
        <ele>2105.2</ele>
        <time>2026-07-19T07:34:46Z</time>
      </trkpt>
      <trkpt lat="45.1811" lon="5.96683">
        <ele>2105.4</ele>
        <time>2026-07-19T07:34:47Z</time>
      </trkpt>
      <trkpt lat="45.18112" lon="5.96684">
        <ele>2106.4</ele>
        <time>2026-07-19T07:34:49Z</time>
      </trkpt>
      <trkpt lat="45.18114" lon="5.96686">
        <ele>2107.6</ele>
        <time>2026-07-19T07:34:51Z</time>
      </trkpt>
      <trkpt lat="45.18116" lon="5.9669">
        <ele>2108.8</ele>
        <time>2026-07-19T07:34:55Z</time>
      </trkpt>
      <trkpt lat="45.18118" lon="5.96693">
        <ele>2110</ele>
        <time>2026-07-19T07:34:58Z</time>
      </trkpt>
      <trkpt lat="45.1812" lon="5.96696">
        <ele>2111.2</ele>
        <time>2026-07-19T07:35:01Z</time>
      </trkpt>
      <trkpt lat="45.18121" lon="5.96698">
        <ele>2111.6</ele>
        <time>2026-07-19T07:35:02Z</time>
      </trkpt>
      <trkpt lat="45.18124" lon="5.96702">
        <ele>2112.4</ele>
        <time>2026-07-19T07:35:05Z</time>
      </trkpt>
      <trkpt lat="45.18128" lon="5.9671">
        <ele>2113.4</ele>
        <time>2026-07-19T07:35:10Z</time>
      </trkpt>
      <trkpt lat="45.1813" lon="5.96713">
        <ele>2113.8</ele>
        <time>2026-07-19T07:35:12Z</time>
      </trkpt>
      <trkpt lat="45.18131" lon="5.96715">
        <ele>2114.6</ele>
        <time>2026-07-19T07:35:14Z</time>
      </trkpt>
      <trkpt lat="45.18135" lon="5.96721">
        <ele>2115.8</ele>
        <time>2026-07-19T07:35:20Z</time>
      </trkpt>
      <trkpt lat="45.18136" lon="5.96727">
        <ele>2116.6</ele>
        <time>2026-07-19T07:35:25Z</time>
      </trkpt>
      <trkpt lat="45.18136" lon="5.96729">
        <ele>2116.6</ele>
        <time>2026-07-19T07:35:26Z</time>
      </trkpt>
      <trkpt lat="45.18141" lon="5.9674">
        <ele>2117.2</ele>
        <time>2026-07-19T07:35:33Z</time>
      </trkpt>
      <trkpt lat="45.18142" lon="5.96742">
        <ele>2117.4</ele>
        <time>2026-07-19T07:35:34Z</time>
      </trkpt>
      <trkpt lat="45.18144" lon="5.96753">
        <ele>2118</ele>
        <time>2026-07-19T07:35:40Z</time>
      </trkpt>
      <trkpt lat="45.18145" lon="5.96755">
        <ele>2118.2</ele>
        <time>2026-07-19T07:35:41Z</time>
      </trkpt>
      <trkpt lat="45.18145" lon="5.96758">
        <ele>2117.8</ele>
        <time>2026-07-19T07:35:43Z</time>
      </trkpt>
      <trkpt lat="45.18146" lon="5.96762">
        <ele>2117.6</ele>
        <time>2026-07-19T07:35:45Z</time>
      </trkpt>
      <trkpt lat="45.18152" lon="5.96774">
        <ele>2116.8</ele>
        <time>2026-07-19T07:35:52Z</time>
      </trkpt>
      <trkpt lat="45.18156" lon="5.9678">
        <ele>2116.6</ele>
        <time>2026-07-19T07:35:57Z</time>
      </trkpt>
      <trkpt lat="45.18163" lon="5.96789">
        <ele>2117</ele>
        <time>2026-07-19T07:36:04Z</time>
      </trkpt>
      <trkpt lat="45.18163" lon="5.9679">
        <ele>2117.2</ele>
        <time>2026-07-19T07:36:05Z</time>
      </trkpt>
      <trkpt lat="45.18163" lon="5.96804">
        <ele>2117</ele>
        <time>2026-07-19T07:36:13Z</time>
      </trkpt>
      <trkpt lat="45.18164" lon="5.9681">
        <ele>2116</ele>
        <time>2026-07-19T07:36:17Z</time>
      </trkpt>
      <trkpt lat="45.18164" lon="5.96814">
        <ele>2116</ele>
        <time>2026-07-19T07:36:20Z</time>
      </trkpt>
      <trkpt lat="45.18166" lon="5.96817">
        <ele>2116.2</ele>
        <time>2026-07-19T07:36:22Z</time>
      </trkpt>
      <trkpt lat="45.18167" lon="5.96823">
        <ele>2116.8</ele>
        <time>2026-07-19T07:36:26Z</time>
      </trkpt>
      <trkpt lat="45.18169" lon="5.96827">
        <ele>2117.6</ele>
        <time>2026-07-19T07:36:29Z</time>
      </trkpt>
      <trkpt lat="45.18171" lon="5.96829">
        <ele>2118.8</ele>
        <time>2026-07-19T07:36:31Z</time>
      </trkpt>
      <trkpt lat="45.18172" lon="5.96831">
        <ele>2119.4</ele>
        <time>2026-07-19T07:36:33Z</time>
      </trkpt>
      <trkpt lat="45.18174" lon="5.96833">
        <ele>2120.2</ele>
        <time>2026-07-19T07:36:35Z</time>
      </trkpt>
      <trkpt lat="45.18176" lon="5.96836">
        <ele>2120.6</ele>
        <time>2026-07-19T07:36:39Z</time>
      </trkpt>
      <trkpt lat="45.18177" lon="5.96837">
        <ele>2120.8</ele>
        <time>2026-07-19T07:36:41Z</time>
      </trkpt>
      <trkpt lat="45.18178" lon="5.96837">
        <ele>2121.4</ele>
        <time>2026-07-19T07:36:42Z</time>
      </trkpt>
      <trkpt lat="45.1818" lon="5.96839">
        <ele>2122.8</ele>
        <time>2026-07-19T07:36:46Z</time>
      </trkpt>
      <trkpt lat="45.18181" lon="5.9684">
        <ele>2124</ele>
        <time>2026-07-19T07:36:48Z</time>
      </trkpt>
      <trkpt lat="45.18183" lon="5.9684">
        <ele>2124.4</ele>
        <time>2026-07-19T07:36:49Z</time>
      </trkpt>
      <trkpt lat="45.18186" lon="5.96845">
        <ele>2125.2</ele>
        <time>2026-07-19T07:36:55Z</time>
      </trkpt>
      <trkpt lat="45.18186" lon="5.96847">
        <ele>2125.2</ele>
        <time>2026-07-19T07:36:57Z</time>
      </trkpt>
      <trkpt lat="45.18187" lon="5.96857">
        <ele>2125.4</ele>
        <time>2026-07-19T07:37:06Z</time>
      </trkpt>
      <trkpt lat="45.18183" lon="5.96862">
        <ele>2124.6</ele>
        <time>2026-07-19T07:37:15Z</time>
      </trkpt>
      <trkpt lat="45.18182" lon="5.96867">
        <ele>2125.2</ele>
        <time>2026-07-19T07:37:23Z</time>
      </trkpt>
      <trkpt lat="45.18182" lon="5.96874">
        <ele>2126.4</ele>
        <time>2026-07-19T07:37:31Z</time>
      </trkpt>
      <trkpt lat="45.1818" lon="5.96877">
        <ele>2127.6</ele>
        <time>2026-07-19T07:37:37Z</time>
      </trkpt>
      <trkpt lat="45.1818" lon="5.96878">
        <ele>2128.2</ele>
        <time>2026-07-19T07:37:39Z</time>
      </trkpt>
      <trkpt lat="45.1818" lon="5.9688">
        <ele>2128.6</ele>
        <time>2026-07-19T07:37:41Z</time>
      </trkpt>
      <trkpt lat="45.1818" lon="5.96884">
        <ele>2129.8</ele>
        <time>2026-07-19T07:37:44Z</time>
      </trkpt>
      <trkpt lat="45.1818" lon="5.96887">
        <ele>2131.2</ele>
        <time>2026-07-19T07:37:47Z</time>
      </trkpt>
      <trkpt lat="45.18181" lon="5.9689">
        <ele>2132.6</ele>
        <time>2026-07-19T07:37:50Z</time>
      </trkpt>
      <trkpt lat="45.18181" lon="5.96892">
        <ele>2133.8</ele>
        <time>2026-07-19T07:37:54Z</time>
      </trkpt>
      <trkpt lat="45.1818" lon="5.96895">
        <ele>2134.8</ele>
        <time>2026-07-19T07:37:58Z</time>
      </trkpt>
      <trkpt lat="45.1818" lon="5.96896">
        <ele>2135</ele>
        <time>2026-07-19T07:37:59Z</time>
      </trkpt>
      <trkpt lat="45.1818" lon="5.96897">
        <ele>2136.2</ele>
        <time>2026-07-19T07:38:02Z</time>
      </trkpt>
      <trkpt lat="45.1818" lon="5.96901">
        <ele>2137.6</ele>
        <time>2026-07-19T07:38:07Z</time>
      </trkpt>
      <trkpt lat="45.18182" lon="5.96904">
        <ele>2139</ele>
        <time>2026-07-19T07:38:10Z</time>
      </trkpt>
      <trkpt lat="45.18182" lon="5.96907">
        <ele>2139.4</ele>
        <time>2026-07-19T07:38:12Z</time>
      </trkpt>
      <trkpt lat="45.18182" lon="5.96911">
        <ele>2140.6</ele>
        <time>2026-07-19T07:38:15Z</time>
      </trkpt>
      <trkpt lat="45.18182" lon="5.96913">
        <ele>2141</ele>
        <time>2026-07-19T07:38:16Z</time>
      </trkpt>
      <trkpt lat="45.1818" lon="5.96917">
        <ele>2141.8</ele>
        <time>2026-07-19T07:38:20Z</time>
      </trkpt>
      <trkpt lat="45.1818" lon="5.96918">
        <ele>2142.4</ele>
        <time>2026-07-19T07:38:22Z</time>
      </trkpt>
      <trkpt lat="45.18178" lon="5.96919">
        <ele>2143</ele>
        <time>2026-07-19T07:38:25Z</time>
      </trkpt>
      <trkpt lat="45.18176" lon="5.9692">
        <ele>2144.2</ele>
        <time>2026-07-19T07:38:29Z</time>
      </trkpt>
      <trkpt lat="45.18176" lon="5.96921">
        <ele>2145.2</ele>
        <time>2026-07-19T07:38:32Z</time>
      </trkpt>
      <trkpt lat="45.18176" lon="5.96921">
        <ele>2145.8</ele>
        <time>2026-07-19T07:38:33Z</time>
      </trkpt>
      <trkpt lat="45.18175" lon="5.96921">
        <ele>2146.6</ele>
        <time>2026-07-19T07:38:35Z</time>
      </trkpt>
      <trkpt lat="45.18174" lon="5.96922">
        <ele>2147.8</ele>
        <time>2026-07-19T07:38:39Z</time>
      </trkpt>
      <trkpt lat="45.18173" lon="5.96924">
        <ele>2148.4</ele>
        <time>2026-07-19T07:38:42Z</time>
      </trkpt>
      <trkpt lat="45.18173" lon="5.96925">
        <ele>2149</ele>
        <time>2026-07-19T07:38:44Z</time>
      </trkpt>
      <trkpt lat="45.1817" lon="5.96929">
        <ele>2150.2</ele>
        <time>2026-07-19T07:38:49Z</time>
      </trkpt>
      <trkpt lat="45.18169" lon="5.96929">
        <ele>2150.4</ele>
        <time>2026-07-19T07:38:51Z</time>
      </trkpt>
      <trkpt lat="45.18167" lon="5.96934">
        <ele>2151.4</ele>
        <time>2026-07-19T07:38:57Z</time>
      </trkpt>
      <trkpt lat="45.18165" lon="5.96934">
        <ele>2151.8</ele>
        <time>2026-07-19T07:38:59Z</time>
      </trkpt>
      <trkpt lat="45.18162" lon="5.96936">
        <ele>2152.6</ele>
        <time>2026-07-19T07:39:02Z</time>
      </trkpt>
      <trkpt lat="45.18157" lon="5.96942">
        <ele>2153.8</ele>
        <time>2026-07-19T07:39:09Z</time>
      </trkpt>
      <trkpt lat="45.18156" lon="5.96944">
        <ele>2153.8</ele>
        <time>2026-07-19T07:39:10Z</time>
      </trkpt>
      <trkpt lat="45.18153" lon="5.96951">
        <ele>2155</ele>
        <time>2026-07-19T07:39:16Z</time>
      </trkpt>
      <trkpt lat="45.18149" lon="5.96953">
        <ele>2155.8</ele>
        <time>2026-07-19T07:39:21Z</time>
      </trkpt>
      <trkpt lat="45.18147" lon="5.96954">
        <ele>2156.4</ele>
        <time>2026-07-19T07:39:23Z</time>
      </trkpt>
      <trkpt lat="45.18145" lon="5.96957">
        <ele>2157.8</ele>
        <time>2026-07-19T07:39:27Z</time>
      </trkpt>
      <trkpt lat="45.18145" lon="5.96958">
        <ele>2158.2</ele>
        <time>2026-07-19T07:39:28Z</time>
      </trkpt>
      <trkpt lat="45.18145" lon="5.9696">
        <ele>2158.2</ele>
        <time>2026-07-19T07:39:29Z</time>
      </trkpt>
      <trkpt lat="45.18145" lon="5.96964">
        <ele>2159</ele>
        <time>2026-07-19T07:39:32Z</time>
      </trkpt>
      <trkpt lat="45.18145" lon="5.96968">
        <ele>2160.2</ele>
        <time>2026-07-19T07:39:35Z</time>
      </trkpt>
      <trkpt lat="45.18143" lon="5.9697">
        <ele>2160.8</ele>
        <time>2026-07-19T07:39:39Z</time>
      </trkpt>
      <trkpt lat="45.18142" lon="5.9697">
        <ele>2161.6</ele>
        <time>2026-07-19T07:39:41Z</time>
      </trkpt>
      <trkpt lat="45.1814" lon="5.96973">
        <ele>2162.8</ele>
        <time>2026-07-19T07:39:46Z</time>
      </trkpt>
      <trkpt lat="45.1814" lon="5.96974">
        <ele>2163</ele>
        <time>2026-07-19T07:39:47Z</time>
      </trkpt>
      <trkpt lat="45.18137" lon="5.96976">
        <ele>2164.4</ele>
        <time>2026-07-19T07:39:51Z</time>
      </trkpt>
      <trkpt lat="45.18135" lon="5.96976">
        <ele>2165.6</ele>
        <time>2026-07-19T07:39:54Z</time>
      </trkpt>
      <trkpt lat="45.18135" lon="5.96976">
        <ele>2165.6</ele>
        <time>2026-07-19T07:39:55Z</time>
      </trkpt>
      <trkpt lat="45.18132" lon="5.96977">
        <ele>2166.8</ele>
        <time>2026-07-19T07:40:00Z</time>
      </trkpt>
      <trkpt lat="45.18129" lon="5.96979">
        <ele>2167.8</ele>
        <time>2026-07-19T07:40:05Z</time>
      </trkpt>
      <trkpt lat="45.18128" lon="5.96979">
        <ele>2168</ele>
        <time>2026-07-19T07:40:06Z</time>
      </trkpt>
      <trkpt lat="45.18124" lon="5.96982">
        <ele>2169.4</ele>
        <time>2026-07-19T07:40:11Z</time>
      </trkpt>
      <trkpt lat="45.18122" lon="5.96982">
        <ele>2170.8</ele>
        <time>2026-07-19T07:40:14Z</time>
      </trkpt>
      <trkpt lat="45.18119" lon="5.96981">
        <ele>2172.2</ele>
        <time>2026-07-19T07:40:17Z</time>
      </trkpt>
      <trkpt lat="45.18117" lon="5.96981">
        <ele>2173.4</ele>
        <time>2026-07-19T07:40:20Z</time>
      </trkpt>
      <trkpt lat="45.18115" lon="5.96981">
        <ele>2173.6</ele>
        <time>2026-07-19T07:40:22Z</time>
      </trkpt>
      <trkpt lat="45.18111" lon="5.96979">
        <ele>2174.6</ele>
        <time>2026-07-19T07:40:27Z</time>
      </trkpt>
      <trkpt lat="45.18108" lon="5.9698">
        <ele>2174.6</ele>
        <time>2026-07-19T07:40:31Z</time>
      </trkpt>
      <trkpt lat="45.18099" lon="5.96983">
        <ele>2174</ele>
        <time>2026-07-19T07:40:41Z</time>
      </trkpt>
      <trkpt lat="45.18092" lon="5.96981">
        <ele>2175.8</ele>
        <time>2026-07-19T07:40:50Z</time>
      </trkpt>
      <trkpt lat="45.18092" lon="5.96981">
        <ele>2175.8</ele>
        <time>2026-07-19T07:40:51Z</time>
      </trkpt>
      <trkpt lat="45.18089" lon="5.9698">
        <ele>2175.8</ele>
        <time>2026-07-19T07:40:54Z</time>
      </trkpt>
      <trkpt lat="45.18079" lon="5.96978">
        <ele>2177.2</ele>
        <time>2026-07-19T07:41:02Z</time>
      </trkpt>
      <trkpt lat="45.18078" lon="5.96978">
        <ele>2177.2</ele>
        <time>2026-07-19T07:41:03Z</time>
      </trkpt>
      <trkpt lat="45.18075" lon="5.96976">
        <ele>2178.4</ele>
        <time>2026-07-19T07:41:06Z</time>
      </trkpt>
      <trkpt lat="45.18071" lon="5.96974">
        <ele>2179.6</ele>
        <time>2026-07-19T07:41:10Z</time>
      </trkpt>
      <trkpt lat="45.18068" lon="5.9697">
        <ele>2180.4</ele>
        <time>2026-07-19T07:41:13Z</time>
      </trkpt>
      <trkpt lat="45.18067" lon="5.96969">
        <ele>2180.6</ele>
        <time>2026-07-19T07:41:14Z</time>
      </trkpt>
      <trkpt lat="45.18065" lon="5.96965">
        <ele>2182.4</ele>
        <time>2026-07-19T07:41:17Z</time>
      </trkpt>
      <trkpt lat="45.18061" lon="5.96959">
        <ele>2183.6</ele>
        <time>2026-07-19T07:41:22Z</time>
      </trkpt>
      <trkpt lat="45.1806" lon="5.96958">
        <ele>2184</ele>
        <time>2026-07-19T07:41:23Z</time>
      </trkpt>
      <trkpt lat="45.18057" lon="5.96957">
        <ele>2184.8</ele>
        <time>2026-07-19T07:41:26Z</time>
      </trkpt>
      <trkpt lat="45.18056" lon="5.96959">
        <ele>2185</ele>
        <time>2026-07-19T07:41:28Z</time>
      </trkpt>
      <trkpt lat="45.18053" lon="5.96963">
        <ele>2185.2</ele>
        <time>2026-07-19T07:41:32Z</time>
      </trkpt>
      <trkpt lat="45.18047" lon="5.96967">
        <ele>2186</ele>
        <time>2026-07-19T07:41:38Z</time>
      </trkpt>
      <trkpt lat="45.18044" lon="5.96974">
        <ele>2187.2</ele>
        <time>2026-07-19T07:41:45Z</time>
      </trkpt>
      <trkpt lat="45.18043" lon="5.96975">
        <ele>2187.2</ele>
        <time>2026-07-19T07:41:47Z</time>
      </trkpt>
      <trkpt lat="45.18038" lon="5.9698">
        <ele>2189.6</ele>
        <time>2026-07-19T07:41:51Z</time>
      </trkpt>
      <trkpt lat="45.18038" lon="5.96982">
        <ele>2190.8</ele>
        <time>2026-07-19T07:41:53Z</time>
      </trkpt>
      <trkpt lat="45.18036" lon="5.96985">
        <ele>2192</ele>
        <time>2026-07-19T07:41:56Z</time>
      </trkpt>
      <trkpt lat="45.1803" lon="5.96988">
        <ele>2192.6</ele>
        <time>2026-07-19T07:42:01Z</time>
      </trkpt>
      <trkpt lat="45.18029" lon="5.96989">
        <ele>2193</ele>
        <time>2026-07-19T07:42:03Z</time>
      </trkpt>
      <trkpt lat="45.18027" lon="5.96992">
        <ele>2194.4</ele>
        <time>2026-07-19T07:42:06Z</time>
      </trkpt>
      <trkpt lat="45.18029" lon="5.97007">
        <ele>2194.8</ele>
        <time>2026-07-19T07:42:14Z</time>
      </trkpt>
      <trkpt lat="45.18029" lon="5.97011">
        <ele>2196</ele>
        <time>2026-07-19T07:42:17Z</time>
      </trkpt>
      <trkpt lat="45.18029" lon="5.97014">
        <ele>2197.2</ele>
        <time>2026-07-19T07:42:20Z</time>
      </trkpt>
      <trkpt lat="45.1803" lon="5.97019">
        <ele>2198.6</ele>
        <time>2026-07-19T07:42:24Z</time>
      </trkpt>
      <trkpt lat="45.18029" lon="5.97024">
        <ele>2198.6</ele>
        <time>2026-07-19T07:42:28Z</time>
      </trkpt>
      <trkpt lat="45.1803" lon="5.97026">
        <ele>2199.8</ele>
        <time>2026-07-19T07:42:31Z</time>
      </trkpt>
      <trkpt lat="45.18032" lon="5.97028">
        <ele>2200.8</ele>
        <time>2026-07-19T07:42:33Z</time>
      </trkpt>
      <trkpt lat="45.18033" lon="5.9703">
        <ele>2202.6</ele>
        <time>2026-07-19T07:42:36Z</time>
      </trkpt>
      <trkpt lat="45.18033" lon="5.97031">
        <ele>2203</ele>
        <time>2026-07-19T07:42:37Z</time>
      </trkpt>
      <trkpt lat="45.18034" lon="5.97034">
        <ele>2203.8</ele>
        <time>2026-07-19T07:42:40Z</time>
      </trkpt>
      <trkpt lat="45.18036" lon="5.97036">
        <ele>2205</ele>
        <time>2026-07-19T07:42:43Z</time>
      </trkpt>
      <trkpt lat="45.18036" lon="5.9704">
        <ele>2205.4</ele>
        <time>2026-07-19T07:42:46Z</time>
      </trkpt>
      <trkpt lat="45.18038" lon="5.97051">
        <ele>2206.2</ele>
        <time>2026-07-19T07:42:53Z</time>
      </trkpt>
      <trkpt lat="45.18037" lon="5.97059">
        <ele>2206.8</ele>
        <time>2026-07-19T07:42:58Z</time>
      </trkpt>
      <trkpt lat="45.18038" lon="5.97064">
        <ele>2207.4</ele>
        <time>2026-07-19T07:43:02Z</time>
      </trkpt>
      <trkpt lat="45.18039" lon="5.9707">
        <ele>2208.8</ele>
        <time>2026-07-19T07:43:07Z</time>
      </trkpt>
      <trkpt lat="45.1804" lon="5.97073">
        <ele>2210</ele>
        <time>2026-07-19T07:43:09Z</time>
      </trkpt>
      <trkpt lat="45.18042" lon="5.97076">
        <ele>2210.8</ele>
        <time>2026-07-19T07:43:12Z</time>
      </trkpt>
      <trkpt lat="45.18043" lon="5.97078">
        <ele>2211</ele>
        <time>2026-07-19T07:43:13Z</time>
      </trkpt>
      <trkpt lat="45.18046" lon="5.97086">
        <ele>2212.2</ele>
        <time>2026-07-19T07:43:19Z</time>
      </trkpt>
      <trkpt lat="45.18043" lon="5.97092">
        <ele>2213.4</ele>
        <time>2026-07-19T07:43:23Z</time>
      </trkpt>
      <trkpt lat="45.1804" lon="5.97099">
        <ele>2214.6</ele>
        <time>2026-07-19T07:43:28Z</time>
      </trkpt>
      <trkpt lat="45.1804" lon="5.97102">
        <ele>2215.6</ele>
        <time>2026-07-19T07:43:30Z</time>
      </trkpt>
      <trkpt lat="45.18041" lon="5.97104">
        <ele>2217.4</ele>
        <time>2026-07-19T07:43:33Z</time>
      </trkpt>
      <trkpt lat="45.1804" lon="5.97105">
        <ele>2217.2</ele>
        <time>2026-07-19T07:43:34Z</time>
      </trkpt>
      <trkpt lat="45.18039" lon="5.97106">
        <ele>2216.2</ele>
        <time>2026-07-19T07:43:35Z</time>
      </trkpt>
      <trkpt lat="45.18035" lon="5.9711">
        <ele>2216.4</ele>
        <time>2026-07-19T07:43:39Z</time>
      </trkpt>
      <trkpt lat="45.18033" lon="5.97112">
        <ele>2216.8</ele>
        <time>2026-07-19T07:43:41Z</time>
      </trkpt>
      <trkpt lat="45.18025" lon="5.97123">
        <ele>2216.2</ele>
        <time>2026-07-19T07:43:53Z</time>
      </trkpt>
      <trkpt lat="45.18024" lon="5.97124">
        <ele>2216.6</ele>
        <time>2026-07-19T07:43:55Z</time>
      </trkpt>
      <trkpt lat="45.18023" lon="5.97126">
        <ele>2217.4</ele>
        <time>2026-07-19T07:44:01Z</time>
      </trkpt>
      <trkpt lat="45.18023" lon="5.97126">
        <ele>2217.6</ele>
        <time>2026-07-19T07:44:05Z</time>
      </trkpt>
      <trkpt lat="45.18021" lon="5.97126">
        <ele>2218.6</ele>
        <time>2026-07-19T07:44:15Z</time>
      </trkpt>
      <trkpt lat="45.18021" lon="5.97132">
        <ele>2218.4</ele>
        <time>2026-07-19T07:44:24Z</time>
      </trkpt>
      <trkpt lat="45.18024" lon="5.97137">
        <ele>2217.4</ele>
        <time>2026-07-19T07:44:35Z</time>
      </trkpt>
      <trkpt lat="45.18023" lon="5.9714">
        <ele>2217</ele>
        <time>2026-07-19T07:44:39Z</time>
      </trkpt>
      <trkpt lat="45.18027" lon="5.97139">
        <ele>2219</ele>
        <time>2026-07-19T07:44:42Z</time>
      </trkpt>
      <trkpt lat="45.18025" lon="5.97139">
        <ele>2217</ele>
        <time>2026-07-19T07:44:45Z</time>
      </trkpt>
      <trkpt lat="45.18024" lon="5.97141">
        <ele>2216.6</ele>
        <time>2026-07-19T07:44:48Z</time>
      </trkpt>
      <trkpt lat="45.18023" lon="5.97147">
        <ele>2217.2</ele>
        <time>2026-07-19T07:44:54Z</time>
      </trkpt>
      <trkpt lat="45.18023" lon="5.97148">
        <ele>2218.2</ele>
        <time>2026-07-19T07:44:58Z</time>
      </trkpt>
      <trkpt lat="45.18024" lon="5.9715">
        <ele>2219</ele>
        <time>2026-07-19T07:45:15Z</time>
      </trkpt>
      <trkpt lat="45.18023" lon="5.97156">
        <ele>2218.8</ele>
        <time>2026-07-19T07:45:24Z</time>
      </trkpt>
      <trkpt lat="45.18022" lon="5.97164">
        <ele>2218.2</ele>
        <time>2026-07-19T07:45:33Z</time>
      </trkpt>
      <trkpt lat="45.18021" lon="5.97165">
        <ele>2218</ele>
        <time>2026-07-19T07:45:35Z</time>
      </trkpt>
      <trkpt lat="45.1802" lon="5.97169">
        <ele>2218.2</ele>
        <time>2026-07-19T07:45:39Z</time>
      </trkpt>
      <trkpt lat="45.18019" lon="5.97171">
        <ele>2218.6</ele>
        <time>2026-07-19T07:45:41Z</time>
      </trkpt>
      <trkpt lat="45.18018" lon="5.97174">
        <ele>2219</ele>
        <time>2026-07-19T07:45:44Z</time>
      </trkpt>
      <trkpt lat="45.18015" lon="5.97181">
        <ele>2219.4</ele>
        <time>2026-07-19T07:45:50Z</time>
      </trkpt>
      <trkpt lat="45.18015" lon="5.97189">
        <ele>2220</ele>
        <time>2026-07-19T07:45:57Z</time>
      </trkpt>
      <trkpt lat="45.18015" lon="5.97191">
        <ele>2219.6</ele>
        <time>2026-07-19T07:46:00Z</time>
      </trkpt>
      <trkpt lat="45.18015" lon="5.97191">
        <ele>2219.4</ele>
        <time>2026-07-19T07:46:06Z</time>
      </trkpt>
      <trkpt lat="45.18017" lon="5.97192">
        <ele>2219.8</ele>
        <time>2026-07-19T07:46:17Z</time>
      </trkpt>
      <trkpt lat="45.18016" lon="5.97192">
        <ele>2219.8</ele>
        <time>2026-07-19T07:46:30Z</time>
      </trkpt>
      <trkpt lat="45.18016" lon="5.97191">
        <ele>2220.4</ele>
        <time>2026-07-19T07:46:42Z</time>
      </trkpt>
      <trkpt lat="45.18017" lon="5.9719">
        <ele>2220.6</ele>
        <time>2026-07-19T07:46:48Z</time>
      </trkpt>
      <trkpt lat="45.18017" lon="5.9719">
        <ele>2221.4</ele>
        <time>2026-07-19T07:46:56Z</time>
      </trkpt>
      <trkpt lat="45.18018" lon="5.97191">
        <ele>2221.8</ele>
        <time>2026-07-19T07:47:06Z</time>
      </trkpt>
      <trkpt lat="45.18017" lon="5.97191">
        <ele>2222</ele>
        <time>2026-07-19T07:47:14Z</time>
      </trkpt>
      <trkpt lat="45.18017" lon="5.97191">
        <ele>2222.6</ele>
        <time>2026-07-19T07:47:29Z</time>
      </trkpt>
      <trkpt lat="45.18017" lon="5.97191">
        <ele>2222</ele>
        <time>2026-07-19T07:47:46Z</time>
      </trkpt>
      <trkpt lat="45.18017" lon="5.97191">
        <ele>2221.8</ele>
        <time>2026-07-19T07:48:02Z</time>
      </trkpt>
      <trkpt lat="45.18017" lon="5.97191">
        <ele>2221.6</ele>
        <time>2026-07-19T07:48:21Z</time>
      </trkpt>
      <trkpt lat="45.18017" lon="5.97191">
        <ele>2221.4</ele>
        <time>2026-07-19T07:48:34Z</time>
      </trkpt>
      <trkpt lat="45.18017" lon="5.97191">
        <ele>2220.6</ele>
        <time>2026-07-19T07:48:50Z</time>
      </trkpt>
      <trkpt lat="45.18017" lon="5.97191">
        <ele>2220.6</ele>
        <time>2026-07-19T07:49:00Z</time>
      </trkpt>
      <trkpt lat="45.18016" lon="5.9719">
        <ele>2220.4</ele>
        <time>2026-07-19T07:49:13Z</time>
      </trkpt>
      <trkpt lat="45.18017" lon="5.9719">
        <ele>2220.2</ele>
        <time>2026-07-19T07:49:28Z</time>
      </trkpt>
      <trkpt lat="45.18019" lon="5.97189">
        <ele>2221</ele>
        <time>2026-07-19T07:49:38Z</time>
      </trkpt>
      <trkpt lat="45.18019" lon="5.9719">
        <ele>2221.8</ele>
        <time>2026-07-19T07:49:42Z</time>
      </trkpt>
      <trkpt lat="45.18019" lon="5.9719">
        <ele>2221.8</ele>
        <time>2026-07-19T07:49:51Z</time>
      </trkpt>
      <trkpt lat="45.18018" lon="5.97189">
        <ele>2221.8</ele>
        <time>2026-07-19T07:50:05Z</time>
      </trkpt>
      <trkpt lat="45.18017" lon="5.97189">
        <ele>2223</ele>
        <time>2026-07-19T07:50:20Z</time>
      </trkpt>
      <trkpt lat="45.18017" lon="5.97189">
        <ele>2223.2</ele>
        <time>2026-07-19T07:50:21Z</time>
      </trkpt>
      <trkpt lat="45.18017" lon="5.97188">
        <ele>2224.2</ele>
        <time>2026-07-19T07:50:36Z</time>
      </trkpt>
      <trkpt lat="45.18017" lon="5.97188">
        <ele>2224.2</ele>
        <time>2026-07-19T07:50:37Z</time>
      </trkpt>
      <trkpt lat="45.18016" lon="5.97188">
        <ele>2223.8</ele>
        <time>2026-07-19T07:50:59Z</time>
      </trkpt>
      <trkpt lat="45.18016" lon="5.97189">
        <ele>2223.6</ele>
        <time>2026-07-19T07:51:17Z</time>
      </trkpt>
      <trkpt lat="45.18016" lon="5.97189">
        <ele>2223</ele>
        <time>2026-07-19T07:51:28Z</time>
      </trkpt>
      <trkpt lat="45.18016" lon="5.97189">
        <ele>2222.8</ele>
        <time>2026-07-19T07:51:30Z</time>
      </trkpt>
      <trkpt lat="45.18015" lon="5.97189">
        <ele>2222.2</ele>
        <time>2026-07-19T07:51:46Z</time>
      </trkpt>
      <trkpt lat="45.18015" lon="5.97189">
        <ele>2221.8</ele>
        <time>2026-07-19T07:51:50Z</time>
      </trkpt>
      <trkpt lat="45.18015" lon="5.97189">
        <ele>2221.4</ele>
        <time>2026-07-19T07:52:03Z</time>
      </trkpt>
      <trkpt lat="45.18015" lon="5.97189">
        <ele>2220.8</ele>
        <time>2026-07-19T07:52:21Z</time>
      </trkpt>
      <trkpt lat="45.18015" lon="5.97188">
        <ele>2220.6</ele>
        <time>2026-07-19T07:52:25Z</time>
      </trkpt>
      <trkpt lat="45.18015" lon="5.97189">
        <ele>2220.4</ele>
        <time>2026-07-19T07:52:37Z</time>
      </trkpt>
      <trkpt lat="45.18016" lon="5.97189">
        <ele>2220</ele>
        <time>2026-07-19T07:52:52Z</time>
      </trkpt>
      <trkpt lat="45.18016" lon="5.97188">
        <ele>2220.2</ele>
        <time>2026-07-19T07:53:04Z</time>
      </trkpt>
      <trkpt lat="45.18016" lon="5.97189">
        <ele>2220.6</ele>
        <time>2026-07-19T07:53:20Z</time>
      </trkpt>
      <trkpt lat="45.18017" lon="5.97188">
        <ele>2220.8</ele>
        <time>2026-07-19T07:53:36Z</time>
      </trkpt>
      <trkpt lat="45.18017" lon="5.97188">
        <ele>2220.8</ele>
        <time>2026-07-19T07:53:53Z</time>
      </trkpt>
      <trkpt lat="45.18016" lon="5.97187">
        <ele>2220.4</ele>
        <time>2026-07-19T07:54:11Z</time>
      </trkpt>
      <trkpt lat="45.18016" lon="5.97187">
        <ele>2220.4</ele>
        <time>2026-07-19T07:54:30Z</time>
      </trkpt>
      <trkpt lat="45.18017" lon="5.9719">
        <ele>2220.6</ele>
        <time>2026-07-19T07:54:43Z</time>
      </trkpt>
      <trkpt lat="45.18021" lon="5.97197">
        <ele>2221.4</ele>
        <time>2026-07-19T07:54:52Z</time>
      </trkpt>
      <trkpt lat="45.18022" lon="5.97198">
        <ele>2221.8</ele>
        <time>2026-07-19T07:54:54Z</time>
      </trkpt>
      <trkpt lat="45.18022" lon="5.97198">
        <ele>2222.2</ele>
        <time>2026-07-19T07:55:02Z</time>
      </trkpt>
      <trkpt lat="45.18024" lon="5.97205">
        <ele>2222.4</ele>
        <time>2026-07-19T07:55:10Z</time>
      </trkpt>
      <trkpt lat="45.18025" lon="5.97208">
        <ele>2222.4</ele>
        <time>2026-07-19T07:55:12Z</time>
      </trkpt>
      <trkpt lat="45.18029" lon="5.97221">
        <ele>2222.6</ele>
        <time>2026-07-19T07:55:20Z</time>
      </trkpt>
      <trkpt lat="45.1803" lon="5.97224">
        <ele>2222.6</ele>
        <time>2026-07-19T07:55:22Z</time>
      </trkpt>
      <trkpt lat="45.18034" lon="5.97232">
        <ele>2222.4</ele>
        <time>2026-07-19T07:55:26Z</time>
      </trkpt>
      <trkpt lat="45.18036" lon="5.97239">
        <ele>2222.2</ele>
        <time>2026-07-19T07:55:30Z</time>
      </trkpt>
      <trkpt lat="45.18038" lon="5.97242">
        <ele>2222.4</ele>
        <time>2026-07-19T07:55:32Z</time>
      </trkpt>
      <trkpt lat="45.1804" lon="5.97254">
        <ele>2221.8</ele>
        <time>2026-07-19T07:55:39Z</time>
      </trkpt>
      <trkpt lat="45.1804" lon="5.9726">
        <ele>2220.4</ele>
        <time>2026-07-19T07:55:42Z</time>
      </trkpt>
      <trkpt lat="45.1804" lon="5.9727">
        <ele>2219.8</ele>
        <time>2026-07-19T07:55:47Z</time>
      </trkpt>
      <trkpt lat="45.1804" lon="5.97271">
        <ele>2219.2</ele>
        <time>2026-07-19T07:55:48Z</time>
      </trkpt>
      <trkpt lat="45.1804" lon="5.97273">
        <ele>2219</ele>
        <time>2026-07-19T07:55:49Z</time>
      </trkpt>
      <trkpt lat="45.1804" lon="5.97277">
        <ele>2219.2</ele>
        <time>2026-07-19T07:55:52Z</time>
      </trkpt>
      <trkpt lat="45.1804" lon="5.97278">
        <ele>2219.4</ele>
        <time>2026-07-19T07:55:53Z</time>
      </trkpt>
      <trkpt lat="45.18035" lon="5.97288">
        <ele>2219.8</ele>
        <time>2026-07-19T07:56:00Z</time>
      </trkpt>
      <trkpt lat="45.18035" lon="5.9729">
        <ele>2220.4</ele>
        <time>2026-07-19T07:56:01Z</time>
      </trkpt>
      <trkpt lat="45.18034" lon="5.97297">
        <ele>2219.4</ele>
        <time>2026-07-19T07:56:06Z</time>
      </trkpt>
      <trkpt lat="45.18034" lon="5.97298">
        <ele>2219.2</ele>
        <time>2026-07-19T07:56:07Z</time>
      </trkpt>
      <trkpt lat="45.18033" lon="5.97299">
        <ele>2219</ele>
        <time>2026-07-19T07:56:08Z</time>
      </trkpt>
      <trkpt lat="45.18032" lon="5.97302">
        <ele>2218</ele>
        <time>2026-07-19T07:56:10Z</time>
      </trkpt>
      <trkpt lat="45.18028" lon="5.97308">
        <ele>2219.6</ele>
        <time>2026-07-19T07:56:13Z</time>
      </trkpt>
      <trkpt lat="45.18027" lon="5.97311">
        <ele>2220.8</ele>
        <time>2026-07-19T07:56:16Z</time>
      </trkpt>
      <trkpt lat="45.18027" lon="5.97311">
        <ele>2221.2</ele>
        <time>2026-07-19T07:56:17Z</time>
      </trkpt>
      <trkpt lat="45.18027" lon="5.97311">
        <ele>2221.8</ele>
        <time>2026-07-19T07:56:18Z</time>
      </trkpt>
      <trkpt lat="45.18027" lon="5.97311">
        <ele>2222</ele>
        <time>2026-07-19T07:56:19Z</time>
      </trkpt>
      <trkpt lat="45.18027" lon="5.97311">
        <ele>2221</ele>
        <time>2026-07-19T07:56:23Z</time>
      </trkpt>
      <trkpt lat="45.18026" lon="5.97311">
        <ele>2219.6</ele>
        <time>2026-07-19T07:56:26Z</time>
      </trkpt>
      <trkpt lat="45.18025" lon="5.9731">
        <ele>2218.2</ele>
        <time>2026-07-19T07:56:30Z</time>
      </trkpt>
      <trkpt lat="45.18026" lon="5.9731">
        <ele>2218</ele>
        <time>2026-07-19T07:56:33Z</time>
      </trkpt>
      <trkpt lat="45.18026" lon="5.97307">
        <ele>2219</ele>
        <time>2026-07-19T07:56:51Z</time>
      </trkpt>
      <trkpt lat="45.18026" lon="5.97307">
        <ele>2219.4</ele>
        <time>2026-07-19T07:56:53Z</time>
      </trkpt>
      <trkpt lat="45.18027" lon="5.97306">
        <ele>2218.2</ele>
        <time>2026-07-19T07:56:59Z</time>
      </trkpt>
      <trkpt lat="45.18029" lon="5.97307">
        <ele>2219.2</ele>
        <time>2026-07-19T07:57:06Z</time>
      </trkpt>
      <trkpt lat="45.18029" lon="5.97307">
        <ele>2219.4</ele>
        <time>2026-07-19T07:57:08Z</time>
      </trkpt>
      <trkpt lat="45.18029" lon="5.97308">
        <ele>2219.6</ele>
        <time>2026-07-19T07:57:22Z</time>
      </trkpt>
      <trkpt lat="45.18028" lon="5.97309">
        <ele>2219.4</ele>
        <time>2026-07-19T07:57:39Z</time>
      </trkpt>
      <trkpt lat="45.18028" lon="5.97309">
        <ele>2219.6</ele>
        <time>2026-07-19T07:57:56Z</time>
      </trkpt>
      <trkpt lat="45.18027" lon="5.97307">
        <ele>2219.2</ele>
        <time>2026-07-19T07:58:14Z</time>
      </trkpt>
      <trkpt lat="45.18028" lon="5.97307">
        <ele>2219.2</ele>
        <time>2026-07-19T07:58:35Z</time>
      </trkpt>
      <trkpt lat="45.18027" lon="5.97308">
        <ele>2219.2</ele>
        <time>2026-07-19T07:58:52Z</time>
      </trkpt>
      <trkpt lat="45.18027" lon="5.97307">
        <ele>2219.2</ele>
        <time>2026-07-19T07:59:10Z</time>
      </trkpt>
      <trkpt lat="45.18027" lon="5.97309">
        <ele>2219.4</ele>
        <time>2026-07-19T07:59:28Z</time>
      </trkpt>
      <trkpt lat="45.18027" lon="5.9731">
        <ele>2219.4</ele>
        <time>2026-07-19T07:59:43Z</time>
      </trkpt>
      <trkpt lat="45.18028" lon="5.9731">
        <ele>2219.4</ele>
        <time>2026-07-19T08:00:00Z</time>
      </trkpt>
      <trkpt lat="45.18029" lon="5.97313">
        <ele>2219.6</ele>
        <time>2026-07-19T08:00:16Z</time>
      </trkpt>
      <trkpt lat="45.18028" lon="5.97322">
        <ele>2219.2</ele>
        <time>2026-07-19T08:00:22Z</time>
      </trkpt>
      <trkpt lat="45.18029" lon="5.97327">
        <ele>2219</ele>
        <time>2026-07-19T08:00:25Z</time>
      </trkpt>
      <trkpt lat="45.18028" lon="5.97332">
        <ele>2219</ele>
        <time>2026-07-19T08:00:28Z</time>
      </trkpt>
      <trkpt lat="45.18025" lon="5.97346">
        <ele>2218.8</ele>
        <time>2026-07-19T08:00:36Z</time>
      </trkpt>
      <trkpt lat="45.18024" lon="5.97352">
        <ele>2218.2</ele>
        <time>2026-07-19T08:00:40Z</time>
      </trkpt>
      <trkpt lat="45.18023" lon="5.97352">
        <ele>2218.2</ele>
        <time>2026-07-19T08:00:41Z</time>
      </trkpt>
      <trkpt lat="45.18023" lon="5.97352">
        <ele>2218</ele>
        <time>2026-07-19T08:00:42Z</time>
      </trkpt>
      <trkpt lat="45.18023" lon="5.97352">
        <ele>2218</ele>
        <time>2026-07-19T08:00:43Z</time>
      </trkpt>
      <trkpt lat="45.18023" lon="5.97355">
        <ele>2218</ele>
        <time>2026-07-19T08:00:45Z</time>
      </trkpt>
      <trkpt lat="45.18024" lon="5.9736">
        <ele>2219</ele>
        <time>2026-07-19T08:00:48Z</time>
      </trkpt>
      <trkpt lat="45.18024" lon="5.97362">
        <ele>2219.8</ele>
        <time>2026-07-19T08:00:49Z</time>
      </trkpt>
      <trkpt lat="45.18025" lon="5.97366">
        <ele>2218.4</ele>
        <time>2026-07-19T08:00:52Z</time>
      </trkpt>
      <trkpt lat="45.18025" lon="5.97369">
        <ele>2217</ele>
        <time>2026-07-19T08:00:54Z</time>
      </trkpt>
      <trkpt lat="45.18026" lon="5.97371">
        <ele>2216</ele>
        <time>2026-07-19T08:00:56Z</time>
      </trkpt>
      <trkpt lat="45.18026" lon="5.97372">
        <ele>2215.2</ele>
        <time>2026-07-19T08:00:57Z</time>
      </trkpt>
      <trkpt lat="45.18026" lon="5.97374">
        <ele>2214.6</ele>
        <time>2026-07-19T08:00:58Z</time>
      </trkpt>
      <trkpt lat="45.18028" lon="5.97378">
        <ele>2213.4</ele>
        <time>2026-07-19T08:01:01Z</time>
      </trkpt>
      <trkpt lat="45.18031" lon="5.97385">
        <ele>2212.2</ele>
        <time>2026-07-19T08:01:06Z</time>
      </trkpt>
      <trkpt lat="45.18033" lon="5.9739">
        <ele>2211</ele>
        <time>2026-07-19T08:01:10Z</time>
      </trkpt>
      <trkpt lat="45.18034" lon="5.97394">
        <ele>2210</ele>
        <time>2026-07-19T08:01:12Z</time>
      </trkpt>
      <trkpt lat="45.18035" lon="5.97397">
        <ele>2210</ele>
        <time>2026-07-19T08:01:14Z</time>
      </trkpt>
      <trkpt lat="45.18038" lon="5.97407">
        <ele>2210.2</ele>
        <time>2026-07-19T08:01:21Z</time>
      </trkpt>
      <trkpt lat="45.18038" lon="5.97421">
        <ele>2210.2</ele>
        <time>2026-07-19T08:01:29Z</time>
      </trkpt>
      <trkpt lat="45.1804" lon="5.97437">
        <ele>2209.6</ele>
        <time>2026-07-19T08:01:39Z</time>
      </trkpt>
      <trkpt lat="45.18044" lon="5.97447">
        <ele>2210.6</ele>
        <time>2026-07-19T08:01:46Z</time>
      </trkpt>
      <trkpt lat="45.18044" lon="5.97448">
        <ele>2211</ele>
        <time>2026-07-19T08:01:47Z</time>
      </trkpt>
      <trkpt lat="45.18049" lon="5.9746">
        <ele>2211.8</ele>
        <time>2026-07-19T08:01:55Z</time>
      </trkpt>
      <trkpt lat="45.1805" lon="5.97461">
        <ele>2212.4</ele>
        <time>2026-07-19T08:01:56Z</time>
      </trkpt>
      <trkpt lat="45.18053" lon="5.97473">
        <ele>2213.2</ele>
        <time>2026-07-19T08:02:03Z</time>
      </trkpt>
      <trkpt lat="45.18054" lon="5.97475">
        <ele>2213.8</ele>
        <time>2026-07-19T08:02:04Z</time>
      </trkpt>
      <trkpt lat="45.18055" lon="5.97479">
        <ele>2215</ele>
        <time>2026-07-19T08:02:06Z</time>
      </trkpt>
      <trkpt lat="45.18056" lon="5.97485">
        <ele>2216.2</ele>
        <time>2026-07-19T08:02:09Z</time>
      </trkpt>
      <trkpt lat="45.18056" lon="5.97488">
        <ele>2216.2</ele>
        <time>2026-07-19T08:02:10Z</time>
      </trkpt>
      <trkpt lat="45.18057" lon="5.97503">
        <ele>2216.8</ele>
        <time>2026-07-19T08:02:16Z</time>
      </trkpt>
      <trkpt lat="45.18056" lon="5.97507">
        <ele>2217.6</ele>
        <time>2026-07-19T08:02:18Z</time>
      </trkpt>
      <trkpt lat="45.18053" lon="5.97519">
        <ele>2218</ele>
        <time>2026-07-19T08:02:23Z</time>
      </trkpt>
      <trkpt lat="45.1805" lon="5.97533">
        <ele>2217.2</ele>
        <time>2026-07-19T08:02:30Z</time>
      </trkpt>
      <trkpt lat="45.18049" lon="5.97537">
        <ele>2215.4</ele>
        <time>2026-07-19T08:02:33Z</time>
      </trkpt>
      <trkpt lat="45.18048" lon="5.97543">
        <ele>2215.2</ele>
        <time>2026-07-19T08:02:37Z</time>
      </trkpt>
      <trkpt lat="45.18047" lon="5.9755">
        <ele>2216.6</ele>
        <time>2026-07-19T08:02:41Z</time>
      </trkpt>
      <trkpt lat="45.18045" lon="5.97554">
        <ele>2217.8</ele>
        <time>2026-07-19T08:02:45Z</time>
      </trkpt>
      <trkpt lat="45.18044" lon="5.97557">
        <ele>2217.8</ele>
        <time>2026-07-19T08:02:48Z</time>
      </trkpt>
      <trkpt lat="45.18041" lon="5.9756">
        <ele>2217</ele>
        <time>2026-07-19T08:02:52Z</time>
      </trkpt>
      <trkpt lat="45.18041" lon="5.97562">
        <ele>2216.6</ele>
        <time>2026-07-19T08:02:53Z</time>
      </trkpt>
      <trkpt lat="45.18041" lon="5.97572">
        <ele>2216.8</ele>
        <time>2026-07-19T08:02:59Z</time>
      </trkpt>
      <trkpt lat="45.18039" lon="5.97584">
        <ele>2215.4</ele>
        <time>2026-07-19T08:03:05Z</time>
      </trkpt>
      <trkpt lat="45.18038" lon="5.97595">
        <ele>2215.6</ele>
        <time>2026-07-19T08:03:12Z</time>
      </trkpt>
      <trkpt lat="45.18036" lon="5.97603">
        <ele>2214.2</ele>
        <time>2026-07-19T08:03:17Z</time>
      </trkpt>
      <trkpt lat="45.18035" lon="5.97607">
        <ele>2213.6</ele>
        <time>2026-07-19T08:03:19Z</time>
      </trkpt>
      <trkpt lat="45.18035" lon="5.97609">
        <ele>2213.6</ele>
        <time>2026-07-19T08:03:21Z</time>
      </trkpt>
      <trkpt lat="45.18035" lon="5.97612">
        <ele>2213.6</ele>
        <time>2026-07-19T08:03:24Z</time>
      </trkpt>
      <trkpt lat="45.18035" lon="5.97612">
        <ele>2213.4</ele>
        <time>2026-07-19T08:03:25Z</time>
      </trkpt>
      <trkpt lat="45.18035" lon="5.97612">
        <ele>2213</ele>
        <time>2026-07-19T08:03:26Z</time>
      </trkpt>
      <trkpt lat="45.18035" lon="5.97619">
        <ele>2213</ele>
        <time>2026-07-19T08:03:34Z</time>
      </trkpt>
      <trkpt lat="45.18038" lon="5.97629">
        <ele>2211.8</ele>
        <time>2026-07-19T08:03:43Z</time>
      </trkpt>
      <trkpt lat="45.18038" lon="5.97629">
        <ele>2211.8</ele>
        <time>2026-07-19T08:03:44Z</time>
      </trkpt>
      <trkpt lat="45.18037" lon="5.97639">
        <ele>2212</ele>
        <time>2026-07-19T08:03:55Z</time>
      </trkpt>
      <trkpt lat="45.18038" lon="5.9764">
        <ele>2212</ele>
        <time>2026-07-19T08:03:56Z</time>
      </trkpt>
      <trkpt lat="45.1804" lon="5.97649">
        <ele>2213</ele>
        <time>2026-07-19T08:04:05Z</time>
      </trkpt>
      <trkpt lat="45.18042" lon="5.97654">
        <ele>2214.4</ele>
        <time>2026-07-19T08:04:10Z</time>
      </trkpt>
      <trkpt lat="45.18043" lon="5.97654">
        <ele>2215.6</ele>
        <time>2026-07-19T08:04:12Z</time>
      </trkpt>
      <trkpt lat="45.18044" lon="5.97654">
        <ele>2216.4</ele>
        <time>2026-07-19T08:04:15Z</time>
      </trkpt>
      <trkpt lat="45.18045" lon="5.97654">
        <ele>2216.8</ele>
        <time>2026-07-19T08:04:17Z</time>
      </trkpt>
      <trkpt lat="45.18045" lon="5.97658">
        <ele>2218</ele>
        <time>2026-07-19T08:04:21Z</time>
      </trkpt>
      <trkpt lat="45.18046" lon="5.9766">
        <ele>2218.4</ele>
        <time>2026-07-19T08:04:23Z</time>
      </trkpt>
      <trkpt lat="45.18048" lon="5.97663">
        <ele>2218.8</ele>
        <time>2026-07-19T08:04:26Z</time>
      </trkpt>
      <trkpt lat="45.18049" lon="5.97667">
        <ele>2219.4</ele>
        <time>2026-07-19T08:04:30Z</time>
      </trkpt>
      <trkpt lat="45.18048" lon="5.97672">
        <ele>2220.2</ele>
        <time>2026-07-19T08:04:34Z</time>
      </trkpt>
      <trkpt lat="45.18048" lon="5.97675">
        <ele>2220.6</ele>
        <time>2026-07-19T08:04:36Z</time>
      </trkpt>
      <trkpt lat="45.18048" lon="5.97683">
        <ele>2220.8</ele>
        <time>2026-07-19T08:04:41Z</time>
      </trkpt>
      <trkpt lat="45.18049" lon="5.97685">
        <ele>2220.6</ele>
        <time>2026-07-19T08:04:42Z</time>
      </trkpt>
      <trkpt lat="45.18051" lon="5.9769">
        <ele>2221</ele>
        <time>2026-07-19T08:04:46Z</time>
      </trkpt>
      <trkpt lat="45.18053" lon="5.977">
        <ele>2221</ele>
        <time>2026-07-19T08:04:52Z</time>
      </trkpt>
      <trkpt lat="45.18053" lon="5.97702">
        <ele>2221.2</ele>
        <time>2026-07-19T08:04:55Z</time>
      </trkpt>
      <trkpt lat="45.18053" lon="5.97702">
        <ele>2221</ele>
        <time>2026-07-19T08:04:59Z</time>
      </trkpt>
      <trkpt lat="45.18054" lon="5.97704">
        <ele>2221.6</ele>
        <time>2026-07-19T08:05:05Z</time>
      </trkpt>
      <trkpt lat="45.18057" lon="5.97707">
        <ele>2222</ele>
        <time>2026-07-19T08:05:11Z</time>
      </trkpt>
      <trkpt lat="45.18057" lon="5.97706">
        <ele>2222.8</ele>
        <time>2026-07-19T08:05:13Z</time>
      </trkpt>
      <trkpt lat="45.18058" lon="5.97705">
        <ele>2223.4</ele>
        <time>2026-07-19T08:05:20Z</time>
      </trkpt>
      <trkpt lat="45.18059" lon="5.97707">
        <ele>2224.2</ele>
        <time>2026-07-19T08:05:23Z</time>
      </trkpt>
      <trkpt lat="45.18062" lon="5.97711">
        <ele>2225.4</ele>
        <time>2026-07-19T08:05:27Z</time>
      </trkpt>
      <trkpt lat="45.18063" lon="5.97712">
        <ele>2226</ele>
        <time>2026-07-19T08:05:29Z</time>
      </trkpt>
      <trkpt lat="45.18065" lon="5.97712">
        <ele>2226.8</ele>
        <time>2026-07-19T08:05:31Z</time>
      </trkpt>
      <trkpt lat="45.18068" lon="5.97715">
        <ele>2227.8</ele>
        <time>2026-07-19T08:05:35Z</time>
      </trkpt>
      <trkpt lat="45.18068" lon="5.97716">
        <ele>2228.2</ele>
        <time>2026-07-19T08:05:36Z</time>
      </trkpt>
      <trkpt lat="45.18071" lon="5.97719">
        <ele>2229</ele>
        <time>2026-07-19T08:05:40Z</time>
      </trkpt>
      <trkpt lat="45.18075" lon="5.97731">
        <ele>2228.2</ele>
        <time>2026-07-19T08:05:50Z</time>
      </trkpt>
      <trkpt lat="45.18083" lon="5.97736">
        <ele>2227</ele>
        <time>2026-07-19T08:05:58Z</time>
      </trkpt>
      <trkpt lat="45.18094" lon="5.97745">
        <ele>2226.6</ele>
        <time>2026-07-19T08:06:09Z</time>
      </trkpt>
      <trkpt lat="45.18103" lon="5.97757">
        <ele>2227.2</ele>
        <time>2026-07-19T08:06:20Z</time>
      </trkpt>
      <trkpt lat="45.18108" lon="5.97761">
        <ele>2225.8</ele>
        <time>2026-07-19T08:06:29Z</time>
      </trkpt>
      <trkpt lat="45.18108" lon="5.97761">
        <ele>2225.2</ele>
        <time>2026-07-19T08:06:30Z</time>
      </trkpt>
      <trkpt lat="45.18108" lon="5.9776">
        <ele>2224.8</ele>
        <time>2026-07-19T08:06:31Z</time>
      </trkpt>
      <trkpt lat="45.18109" lon="5.97761">
        <ele>2223.6</ele>
        <time>2026-07-19T08:06:34Z</time>
      </trkpt>
      <trkpt lat="45.18111" lon="5.97762">
        <ele>2221.8</ele>
        <time>2026-07-19T08:06:36Z</time>
      </trkpt>
      <trkpt lat="45.18113" lon="5.97762">
        <ele>2220.6</ele>
        <time>2026-07-19T08:06:39Z</time>
      </trkpt>
      <trkpt lat="45.18113" lon="5.97763">
        <ele>2220.4</ele>
        <time>2026-07-19T08:06:40Z</time>
      </trkpt>
      <trkpt lat="45.18117" lon="5.97767">
        <ele>2220.8</ele>
        <time>2026-07-19T08:06:46Z</time>
      </trkpt>
      <trkpt lat="45.18119" lon="5.9777">
        <ele>2221.4</ele>
        <time>2026-07-19T08:06:48Z</time>
      </trkpt>
      <trkpt lat="45.1812" lon="5.97773">
        <ele>2221.8</ele>
        <time>2026-07-19T08:06:51Z</time>
      </trkpt>
      <trkpt lat="45.18121" lon="5.97774">
        <ele>2221.6</ele>
        <time>2026-07-19T08:06:52Z</time>
      </trkpt>
      <trkpt lat="45.18127" lon="5.97787">
        <ele>2222.2</ele>
        <time>2026-07-19T08:07:04Z</time>
      </trkpt>
      <trkpt lat="45.18131" lon="5.97794">
        <ele>2223.2</ele>
        <time>2026-07-19T08:07:13Z</time>
      </trkpt>
      <trkpt lat="45.18132" lon="5.97795">
        <ele>2224</ele>
        <time>2026-07-19T08:07:15Z</time>
      </trkpt>
      <trkpt lat="45.18133" lon="5.97795">
        <ele>2224.4</ele>
        <time>2026-07-19T08:07:16Z</time>
      </trkpt>
      <trkpt lat="45.18133" lon="5.97797">
        <ele>2225.6</ele>
        <time>2026-07-19T08:07:18Z</time>
      </trkpt>
      <trkpt lat="45.18135" lon="5.97799">
        <ele>2226.8</ele>
        <time>2026-07-19T08:07:21Z</time>
      </trkpt>
      <trkpt lat="45.18136" lon="5.97801">
        <ele>2228</ele>
        <time>2026-07-19T08:07:23Z</time>
      </trkpt>
      <trkpt lat="45.18137" lon="5.97803">
        <ele>2229.2</ele>
        <time>2026-07-19T08:07:25Z</time>
      </trkpt>
      <trkpt lat="45.18138" lon="5.97805">
        <ele>2230</ele>
        <time>2026-07-19T08:07:27Z</time>
      </trkpt>
      <trkpt lat="45.18139" lon="5.97806">
        <ele>2230.4</ele>
        <time>2026-07-19T08:07:28Z</time>
      </trkpt>
      <trkpt lat="45.1814" lon="5.97809">
        <ele>2232</ele>
        <time>2026-07-19T08:07:30Z</time>
      </trkpt>
      <trkpt lat="45.18141" lon="5.97811">
        <ele>2233.6</ele>
        <time>2026-07-19T08:07:32Z</time>
      </trkpt>
      <trkpt lat="45.18142" lon="5.97813">
        <ele>2235.2</ele>
        <time>2026-07-19T08:07:35Z</time>
      </trkpt>
      <trkpt lat="45.18142" lon="5.97814">
        <ele>2236.4</ele>
        <time>2026-07-19T08:07:37Z</time>
      </trkpt>
      <trkpt lat="45.18142" lon="5.97815">
        <ele>2237.6</ele>
        <time>2026-07-19T08:07:39Z</time>
      </trkpt>
      <trkpt lat="45.18142" lon="5.97816">
        <ele>2238.2</ele>
        <time>2026-07-19T08:07:40Z</time>
      </trkpt>
      <trkpt lat="45.18141" lon="5.9782">
        <ele>2239</ele>
        <time>2026-07-19T08:07:44Z</time>
      </trkpt>
      <trkpt lat="45.18141" lon="5.97825">
        <ele>2240.4</ele>
        <time>2026-07-19T08:07:49Z</time>
      </trkpt>
      <trkpt lat="45.18142" lon="5.97827">
        <ele>2240.4</ele>
        <time>2026-07-19T08:07:51Z</time>
      </trkpt>
      <trkpt lat="45.18143" lon="5.97828">
        <ele>2241.6</ele>
        <time>2026-07-19T08:07:55Z</time>
      </trkpt>
      <trkpt lat="45.18144" lon="5.9783">
        <ele>2242.8</ele>
        <time>2026-07-19T08:07:58Z</time>
      </trkpt>
      <trkpt lat="45.18144" lon="5.97832">
        <ele>2244</ele>
        <time>2026-07-19T08:08:00Z</time>
      </trkpt>
      <trkpt lat="45.18144" lon="5.97832">
        <ele>2245</ele>
        <time>2026-07-19T08:08:01Z</time>
      </trkpt>
      <trkpt lat="45.18144" lon="5.97833">
        <ele>2246</ele>
        <time>2026-07-19T08:08:02Z</time>
      </trkpt>
      <trkpt lat="45.18144" lon="5.97834">
        <ele>2247.4</ele>
        <time>2026-07-19T08:08:04Z</time>
      </trkpt>
      <trkpt lat="45.18145" lon="5.97835">
        <ele>2248.4</ele>
        <time>2026-07-19T08:08:05Z</time>
      </trkpt>
      <trkpt lat="45.18145" lon="5.97836">
        <ele>2249.8</ele>
        <time>2026-07-19T08:08:07Z</time>
      </trkpt>
      <trkpt lat="45.18145" lon="5.97837">
        <ele>2251.2</ele>
        <time>2026-07-19T08:08:09Z</time>
      </trkpt>
      <trkpt lat="45.18144" lon="5.97837">
        <ele>2252.4</ele>
        <time>2026-07-19T08:08:14Z</time>
      </trkpt>
      <trkpt lat="45.18145" lon="5.97838">
        <ele>2253.6</ele>
        <time>2026-07-19T08:08:19Z</time>
      </trkpt>
      <trkpt lat="45.18147" lon="5.97838">
        <ele>2255</ele>
        <time>2026-07-19T08:08:22Z</time>
      </trkpt>
      <trkpt lat="45.18149" lon="5.97839">
        <ele>2256.2</ele>
        <time>2026-07-19T08:08:26Z</time>
      </trkpt>
      <trkpt lat="45.1815" lon="5.97839">
        <ele>2256.4</ele>
        <time>2026-07-19T08:08:27Z</time>
      </trkpt>
      <trkpt lat="45.18152" lon="5.97839">
        <ele>2257.4</ele>
        <time>2026-07-19T08:08:31Z</time>
      </trkpt>
      <trkpt lat="45.18154" lon="5.9784">
        <ele>2258.6</ele>
        <time>2026-07-19T08:08:36Z</time>
      </trkpt>
      <trkpt lat="45.18155" lon="5.97839">
        <ele>2259.8</ele>
        <time>2026-07-19T08:08:39Z</time>
      </trkpt>
      <trkpt lat="45.18155" lon="5.97839">
        <ele>2260</ele>
        <time>2026-07-19T08:08:40Z</time>
      </trkpt>
      <trkpt lat="45.18157" lon="5.9784">
        <ele>2260.8</ele>
        <time>2026-07-19T08:08:43Z</time>
      </trkpt>
      <trkpt lat="45.18158" lon="5.97843">
        <ele>2262</ele>
        <time>2026-07-19T08:08:47Z</time>
      </trkpt>
      <trkpt lat="45.1816" lon="5.97844">
        <ele>2262.6</ele>
        <time>2026-07-19T08:08:51Z</time>
      </trkpt>
      <trkpt lat="45.18164" lon="5.9785">
        <ele>2263.2</ele>
        <time>2026-07-19T08:08:57Z</time>
      </trkpt>
      <trkpt lat="45.18165" lon="5.97854">
        <ele>2264.2</ele>
        <time>2026-07-19T08:09:02Z</time>
      </trkpt>
      <trkpt lat="45.18165" lon="5.97854">
        <ele>2264.4</ele>
        <time>2026-07-19T08:09:07Z</time>
      </trkpt>
      <trkpt lat="45.18165" lon="5.97854">
        <ele>2265.4</ele>
        <time>2026-07-19T08:09:10Z</time>
      </trkpt>
      <trkpt lat="45.18165" lon="5.97853">
        <ele>2265.4</ele>
        <time>2026-07-19T08:09:11Z</time>
      </trkpt>
      <trkpt lat="45.18167" lon="5.97856">
        <ele>2266</ele>
        <time>2026-07-19T08:09:19Z</time>
      </trkpt>
      <trkpt lat="45.18167" lon="5.97856">
        <ele>2266.8</ele>
        <time>2026-07-19T08:09:20Z</time>
      </trkpt>
      <trkpt lat="45.18169" lon="5.9786">
        <ele>2268</ele>
        <time>2026-07-19T08:09:25Z</time>
      </trkpt>
      <trkpt lat="45.18171" lon="5.97861">
        <ele>2269</ele>
        <time>2026-07-19T08:09:29Z</time>
      </trkpt>
      <trkpt lat="45.18172" lon="5.97861">
        <ele>2269.2</ele>
        <time>2026-07-19T08:09:31Z</time>
      </trkpt>
      <trkpt lat="45.18179" lon="5.9787">
        <ele>2269.2</ele>
        <time>2026-07-19T08:09:45Z</time>
      </trkpt>
      <trkpt lat="45.18182" lon="5.97878">
        <ele>2270.2</ele>
        <time>2026-07-19T08:09:56Z</time>
      </trkpt>
      <trkpt lat="45.18182" lon="5.9788">
        <ele>2270.4</ele>
        <time>2026-07-19T08:09:58Z</time>
      </trkpt>
      <trkpt lat="45.18184" lon="5.97884">
        <ele>2271.4</ele>
        <time>2026-07-19T08:10:03Z</time>
      </trkpt>
      <trkpt lat="45.18186" lon="5.97887">
        <ele>2272.6</ele>
        <time>2026-07-19T08:10:07Z</time>
      </trkpt>
      <trkpt lat="45.18186" lon="5.97889">
        <ele>2273.4</ele>
        <time>2026-07-19T08:10:09Z</time>
      </trkpt>
      <trkpt lat="45.18186" lon="5.9789">
        <ele>2273.8</ele>
        <time>2026-07-19T08:10:10Z</time>
      </trkpt>
      <trkpt lat="45.18188" lon="5.97892">
        <ele>2275</ele>
        <time>2026-07-19T08:10:13Z</time>
      </trkpt>
      <trkpt lat="45.18189" lon="5.97894">
        <ele>2276.2</ele>
        <time>2026-07-19T08:10:19Z</time>
      </trkpt>
      <trkpt lat="45.18191" lon="5.97894">
        <ele>2277.6</ele>
        <time>2026-07-19T08:10:23Z</time>
      </trkpt>
      <trkpt lat="45.18192" lon="5.97897">
        <ele>2278.8</ele>
        <time>2026-07-19T08:10:27Z</time>
      </trkpt>
      <trkpt lat="45.18193" lon="5.97899">
        <ele>2279.8</ele>
        <time>2026-07-19T08:10:30Z</time>
      </trkpt>
      <trkpt lat="45.18194" lon="5.97899">
        <ele>2280.4</ele>
        <time>2026-07-19T08:10:31Z</time>
      </trkpt>
      <trkpt lat="45.18194" lon="5.979">
        <ele>2281.6</ele>
        <time>2026-07-19T08:10:34Z</time>
      </trkpt>
      <trkpt lat="45.18196" lon="5.97905">
        <ele>2282.8</ele>
        <time>2026-07-19T08:10:39Z</time>
      </trkpt>
      <trkpt lat="45.18197" lon="5.97907">
        <ele>2283.8</ele>
        <time>2026-07-19T08:10:41Z</time>
      </trkpt>
      <trkpt lat="45.18198" lon="5.97908">
        <ele>2284.4</ele>
        <time>2026-07-19T08:10:42Z</time>
      </trkpt>
      <trkpt lat="45.182" lon="5.97909">
        <ele>2285</ele>
        <time>2026-07-19T08:10:44Z</time>
      </trkpt>
      <trkpt lat="45.18201" lon="5.97911">
        <ele>2286.2</ele>
        <time>2026-07-19T08:10:48Z</time>
      </trkpt>
      <trkpt lat="45.18202" lon="5.97911">
        <ele>2287.6</ele>
        <time>2026-07-19T08:10:53Z</time>
      </trkpt>
      <trkpt lat="45.18203" lon="5.97911">
        <ele>2288</ele>
        <time>2026-07-19T08:10:54Z</time>
      </trkpt>
      <trkpt lat="45.18205" lon="5.97916">
        <ele>2288.8</ele>
        <time>2026-07-19T08:10:59Z</time>
      </trkpt>
      <trkpt lat="45.18206" lon="5.9792">
        <ele>2289.6</ele>
        <time>2026-07-19T08:11:03Z</time>
      </trkpt>
      <trkpt lat="45.18206" lon="5.97921">
        <ele>2289.8</ele>
        <time>2026-07-19T08:11:04Z</time>
      </trkpt>
      <trkpt lat="45.1821" lon="5.9793">
        <ele>2291.2</ele>
        <time>2026-07-19T08:11:12Z</time>
      </trkpt>
      <trkpt lat="45.18211" lon="5.97931">
        <ele>2291.6</ele>
        <time>2026-07-19T08:11:13Z</time>
      </trkpt>
      <trkpt lat="45.18212" lon="5.97932">
        <ele>2292.2</ele>
        <time>2026-07-19T08:11:14Z</time>
      </trkpt>
      <trkpt lat="45.18213" lon="5.97932">
        <ele>2292.4</ele>
        <time>2026-07-19T08:11:15Z</time>
      </trkpt>
      <trkpt lat="45.18218" lon="5.97929">
        <ele>2293.2</ele>
        <time>2026-07-19T08:11:23Z</time>
      </trkpt>
      <trkpt lat="45.18219" lon="5.97932">
        <ele>2293.6</ele>
        <time>2026-07-19T08:11:26Z</time>
      </trkpt>
      <trkpt lat="45.18218" lon="5.97936">
        <ele>2293.6</ele>
        <time>2026-07-19T08:11:29Z</time>
      </trkpt>
      <trkpt lat="45.18219" lon="5.97946">
        <ele>2294.2</ele>
        <time>2026-07-19T08:11:41Z</time>
      </trkpt>
      <trkpt lat="45.1822" lon="5.9795">
        <ele>2294.8</ele>
        <time>2026-07-19T08:11:45Z</time>
      </trkpt>
      <trkpt lat="45.1822" lon="5.97952">
        <ele>2295.8</ele>
        <time>2026-07-19T08:11:47Z</time>
      </trkpt>
      <trkpt lat="45.18219" lon="5.97954">
        <ele>2296.8</ele>
        <time>2026-07-19T08:11:49Z</time>
      </trkpt>
      <trkpt lat="45.18219" lon="5.97955">
        <ele>2297</ele>
        <time>2026-07-19T08:11:50Z</time>
      </trkpt>
      <trkpt lat="45.18219" lon="5.97959">
        <ele>2298.2</ele>
        <time>2026-07-19T08:11:53Z</time>
      </trkpt>
      <trkpt lat="45.18219" lon="5.97962">
        <ele>2299.6</ele>
        <time>2026-07-19T08:11:56Z</time>
      </trkpt>
      <trkpt lat="45.1822" lon="5.97965">
        <ele>2300.8</ele>
        <time>2026-07-19T08:12:00Z</time>
      </trkpt>
      <trkpt lat="45.1822" lon="5.97966">
        <ele>2301.2</ele>
        <time>2026-07-19T08:12:01Z</time>
      </trkpt>
      <trkpt lat="45.18219" lon="5.97967">
        <ele>2302</ele>
        <time>2026-07-19T08:12:02Z</time>
      </trkpt>
      <trkpt lat="45.1822" lon="5.97969">
        <ele>2303.6</ele>
        <time>2026-07-19T08:12:04Z</time>
      </trkpt>
      <trkpt lat="45.18221" lon="5.97973">
        <ele>2305.2</ele>
        <time>2026-07-19T08:12:09Z</time>
      </trkpt>
      <trkpt lat="45.18222" lon="5.97974">
        <ele>2305.6</ele>
        <time>2026-07-19T08:12:12Z</time>
      </trkpt>
      <trkpt lat="45.18225" lon="5.97983">
        <ele>2306.4</ele>
        <time>2026-07-19T08:12:20Z</time>
      </trkpt>
      <trkpt lat="45.18225" lon="5.97985">
        <ele>2306.4</ele>
        <time>2026-07-19T08:12:22Z</time>
      </trkpt>
      <trkpt lat="45.18226" lon="5.97988">
        <ele>2307.6</ele>
        <time>2026-07-19T08:12:25Z</time>
      </trkpt>
      <trkpt lat="45.18229" lon="5.97991">
        <ele>2307.2</ele>
        <time>2026-07-19T08:12:32Z</time>
      </trkpt>
      <trkpt lat="45.18228" lon="5.97994">
        <ele>2309.4</ele>
        <time>2026-07-19T08:12:35Z</time>
      </trkpt>
      <trkpt lat="45.18228" lon="5.97996">
        <ele>2310.6</ele>
        <time>2026-07-19T08:12:38Z</time>
      </trkpt>
      <trkpt lat="45.18228" lon="5.97995">
        <ele>2310.2</ele>
        <time>2026-07-19T08:12:42Z</time>
      </trkpt>
      <trkpt lat="45.18231" lon="5.97995">
        <ele>2310</ele>
        <time>2026-07-19T08:12:51Z</time>
      </trkpt>
      <trkpt lat="45.18233" lon="5.98004">
        <ele>2311.2</ele>
        <time>2026-07-19T08:12:59Z</time>
      </trkpt>
      <trkpt lat="45.18232" lon="5.98005">
        <ele>2311.4</ele>
        <time>2026-07-19T08:13:00Z</time>
      </trkpt>
      <trkpt lat="45.18232" lon="5.98006">
        <ele>2311.8</ele>
        <time>2026-07-19T08:13:01Z</time>
      </trkpt>
      <trkpt lat="45.18232" lon="5.98008">
        <ele>2312.8</ele>
        <time>2026-07-19T08:13:03Z</time>
      </trkpt>
      <trkpt lat="45.18234" lon="5.98012">
        <ele>2314</ele>
        <time>2026-07-19T08:13:07Z</time>
      </trkpt>
      <trkpt lat="45.18234" lon="5.98014">
        <ele>2315.2</ele>
        <time>2026-07-19T08:13:11Z</time>
      </trkpt>
      <trkpt lat="45.18234" lon="5.98014">
        <ele>2315.4</ele>
        <time>2026-07-19T08:13:12Z</time>
      </trkpt>
      <trkpt lat="45.18234" lon="5.98014">
        <ele>2316.4</ele>
        <time>2026-07-19T08:13:17Z</time>
      </trkpt>
      <trkpt lat="45.18235" lon="5.98015">
        <ele>2317.4</ele>
        <time>2026-07-19T08:13:23Z</time>
      </trkpt>
      <trkpt lat="45.18235" lon="5.98014">
        <ele>2318</ele>
        <time>2026-07-19T08:13:24Z</time>
      </trkpt>
      <trkpt lat="45.18236" lon="5.98015">
        <ele>2318.6</ele>
        <time>2026-07-19T08:13:25Z</time>
      </trkpt>
      <trkpt lat="45.18236" lon="5.98015">
        <ele>2320.4</ele>
        <time>2026-07-19T08:13:27Z</time>
      </trkpt>
      <trkpt lat="45.18236" lon="5.98014">
        <ele>2321.6</ele>
        <time>2026-07-19T08:13:28Z</time>
      </trkpt>
      <trkpt lat="45.18237" lon="5.98016">
        <ele>2323</ele>
        <time>2026-07-19T08:13:31Z</time>
      </trkpt>
      <trkpt lat="45.18236" lon="5.98018">
        <ele>2324.2</ele>
        <time>2026-07-19T08:13:35Z</time>
      </trkpt>
      <trkpt lat="45.18239" lon="5.98023">
        <ele>2324.2</ele>
        <time>2026-07-19T08:13:44Z</time>
      </trkpt>
      <trkpt lat="45.18242" lon="5.98029">
        <ele>2325.6</ele>
        <time>2026-07-19T08:13:54Z</time>
      </trkpt>
      <trkpt lat="45.18241" lon="5.98031">
        <ele>2326.8</ele>
        <time>2026-07-19T08:13:57Z</time>
      </trkpt>
      <trkpt lat="45.18242" lon="5.98036">
        <ele>2328.2</ele>
        <time>2026-07-19T08:14:02Z</time>
      </trkpt>
      <trkpt lat="45.18242" lon="5.98037">
        <ele>2328.4</ele>
        <time>2026-07-19T08:14:03Z</time>
      </trkpt>
      <trkpt lat="45.18243" lon="5.98039">
        <ele>2329.4</ele>
        <time>2026-07-19T08:14:08Z</time>
      </trkpt>
      <trkpt lat="45.18244" lon="5.98039">
        <ele>2330</ele>
        <time>2026-07-19T08:14:10Z</time>
      </trkpt>
      <trkpt lat="45.18244" lon="5.98039">
        <ele>2330.8</ele>
        <time>2026-07-19T08:14:12Z</time>
      </trkpt>
      <trkpt lat="45.18245" lon="5.98042">
        <ele>2332</ele>
        <time>2026-07-19T08:14:16Z</time>
      </trkpt>
      <trkpt lat="45.18247" lon="5.98042">
        <ele>2332.2</ele>
        <time>2026-07-19T08:14:19Z</time>
      </trkpt>
      <trkpt lat="45.18247" lon="5.98043">
        <ele>2333.2</ele>
        <time>2026-07-19T08:14:22Z</time>
      </trkpt>
      <trkpt lat="45.18249" lon="5.98044">
        <ele>2334.2</ele>
        <time>2026-07-19T08:14:29Z</time>
      </trkpt>
      <trkpt lat="45.18249" lon="5.98043">
        <ele>2334.4</ele>
        <time>2026-07-19T08:14:31Z</time>
      </trkpt>
      <trkpt lat="45.1825" lon="5.98044">
        <ele>2335.6</ele>
        <time>2026-07-19T08:14:36Z</time>
      </trkpt>
      <trkpt lat="45.18252" lon="5.98045">
        <ele>2336.6</ele>
        <time>2026-07-19T08:14:40Z</time>
      </trkpt>
      <trkpt lat="45.18252" lon="5.98045">
        <ele>2337.2</ele>
        <time>2026-07-19T08:14:42Z</time>
      </trkpt>
      <trkpt lat="45.18254" lon="5.98051">
        <ele>2337.8</ele>
        <time>2026-07-19T08:14:49Z</time>
      </trkpt>
      <trkpt lat="45.18255" lon="5.98054">
        <ele>2338.4</ele>
        <time>2026-07-19T08:14:52Z</time>
      </trkpt>
      <trkpt lat="45.18256" lon="5.98059">
        <ele>2338.6</ele>
        <time>2026-07-19T08:14:58Z</time>
      </trkpt>
      <trkpt lat="45.18256" lon="5.98064">
        <ele>2339.2</ele>
        <time>2026-07-19T08:15:02Z</time>
      </trkpt>
      <trkpt lat="45.18256" lon="5.98065">
        <ele>2339.6</ele>
        <time>2026-07-19T08:15:03Z</time>
      </trkpt>
      <trkpt lat="45.18256" lon="5.98069">
        <ele>2340.8</ele>
        <time>2026-07-19T08:15:06Z</time>
      </trkpt>
      <trkpt lat="45.18256" lon="5.98071">
        <ele>2342</ele>
        <time>2026-07-19T08:15:09Z</time>
      </trkpt>
      <trkpt lat="45.18257" lon="5.98074">
        <ele>2343.4</ele>
        <time>2026-07-19T08:15:12Z</time>
      </trkpt>
      <trkpt lat="45.18258" lon="5.98076">
        <ele>2344.2</ele>
        <time>2026-07-19T08:15:14Z</time>
      </trkpt>
      <trkpt lat="45.1826" lon="5.98078">
        <ele>2345</ele>
        <time>2026-07-19T08:15:16Z</time>
      </trkpt>
      <trkpt lat="45.18262" lon="5.98083">
        <ele>2346.4</ele>
        <time>2026-07-19T08:15:22Z</time>
      </trkpt>
      <trkpt lat="45.18264" lon="5.98088">
        <ele>2346.4</ele>
        <time>2026-07-19T08:15:29Z</time>
      </trkpt>
      <trkpt lat="45.18265" lon="5.98091">
        <ele>2347</ele>
        <time>2026-07-19T08:15:35Z</time>
      </trkpt>
      <trkpt lat="45.18266" lon="5.98091">
        <ele>2347.6</ele>
        <time>2026-07-19T08:15:37Z</time>
      </trkpt>
      <trkpt lat="45.18267" lon="5.98091">
        <ele>2349</ele>
        <time>2026-07-19T08:15:42Z</time>
      </trkpt>
      <trkpt lat="45.18267" lon="5.98091">
        <ele>2350.6</ele>
        <time>2026-07-19T08:15:44Z</time>
      </trkpt>
      <trkpt lat="45.18268" lon="5.9809">
        <ele>2351.6</ele>
        <time>2026-07-19T08:15:46Z</time>
      </trkpt>
      <trkpt lat="45.18268" lon="5.98091">
        <ele>2351.8</ele>
        <time>2026-07-19T08:15:48Z</time>
      </trkpt>
      <trkpt lat="45.18268" lon="5.98091">
        <ele>2353.6</ele>
        <time>2026-07-19T08:15:50Z</time>
      </trkpt>
      <trkpt lat="45.18269" lon="5.98092">
        <ele>2355.4</ele>
        <time>2026-07-19T08:15:53Z</time>
      </trkpt>
      <trkpt lat="45.18269" lon="5.98092">
        <ele>2357.2</ele>
        <time>2026-07-19T08:15:55Z</time>
      </trkpt>
      <trkpt lat="45.1827" lon="5.98092">
        <ele>2358.2</ele>
        <time>2026-07-19T08:15:56Z</time>
      </trkpt>
      <trkpt lat="45.1827" lon="5.98093">
        <ele>2358.8</ele>
        <time>2026-07-19T08:15:57Z</time>
      </trkpt>
      <trkpt lat="45.18271" lon="5.98093">
        <ele>2360</ele>
        <time>2026-07-19T08:15:59Z</time>
      </trkpt>
      <trkpt lat="45.18271" lon="5.98095">
        <ele>2361.2</ele>
        <time>2026-07-19T08:16:01Z</time>
      </trkpt>
      <trkpt lat="45.18271" lon="5.98096">
        <ele>2362.6</ele>
        <time>2026-07-19T08:16:02Z</time>
      </trkpt>
      <trkpt lat="45.18272" lon="5.98097">
        <ele>2363.8</ele>
        <time>2026-07-19T08:16:05Z</time>
      </trkpt>
      <trkpt lat="45.18273" lon="5.98098">
        <ele>2364.2</ele>
        <time>2026-07-19T08:16:07Z</time>
      </trkpt>
      <trkpt lat="45.18278" lon="5.98098">
        <ele>2364.8</ele>
        <time>2026-07-19T08:16:14Z</time>
      </trkpt>
      <trkpt lat="45.18279" lon="5.98096">
        <ele>2365</ele>
        <time>2026-07-19T08:16:19Z</time>
      </trkpt>
      <trkpt lat="45.18281" lon="5.98097">
        <ele>2366</ele>
        <time>2026-07-19T08:16:25Z</time>
      </trkpt>
      <trkpt lat="45.18283" lon="5.98101">
        <ele>2366.6</ele>
        <time>2026-07-19T08:16:30Z</time>
      </trkpt>
      <trkpt lat="45.18287" lon="5.98107">
        <ele>2367.2</ele>
        <time>2026-07-19T08:16:38Z</time>
      </trkpt>
      <trkpt lat="45.18289" lon="5.98108">
        <ele>2367.2</ele>
        <time>2026-07-19T08:16:40Z</time>
      </trkpt>
      <trkpt lat="45.18291" lon="5.98113">
        <ele>2366.6</ele>
        <time>2026-07-19T08:16:43Z</time>
      </trkpt>
      <trkpt lat="45.18293" lon="5.98117">
        <ele>2366</ele>
        <time>2026-07-19T08:16:46Z</time>
      </trkpt>
      <trkpt lat="45.18295" lon="5.98123">
        <ele>2366.6</ele>
        <time>2026-07-19T08:16:51Z</time>
      </trkpt>
      <trkpt lat="45.18296" lon="5.98124">
        <ele>2367.2</ele>
        <time>2026-07-19T08:16:52Z</time>
      </trkpt>
      <trkpt lat="45.18297" lon="5.98126">
        <ele>2368.4</ele>
        <time>2026-07-19T08:16:55Z</time>
      </trkpt>
      <trkpt lat="45.18297" lon="5.98128">
        <ele>2368.8</ele>
        <time>2026-07-19T08:16:57Z</time>
      </trkpt>
      <trkpt lat="45.183" lon="5.98132">
        <ele>2369.4</ele>
        <time>2026-07-19T08:17:03Z</time>
      </trkpt>
      <trkpt lat="45.183" lon="5.98132">
        <ele>2369.6</ele>
        <time>2026-07-19T08:17:04Z</time>
      </trkpt>
      <trkpt lat="45.18305" lon="5.98135">
        <ele>2370.2</ele>
        <time>2026-07-19T08:17:12Z</time>
      </trkpt>
      <trkpt lat="45.18306" lon="5.98138">
        <ele>2371</ele>
        <time>2026-07-19T08:17:16Z</time>
      </trkpt>
      <trkpt lat="45.1831" lon="5.98141">
        <ele>2372.2</ele>
        <time>2026-07-19T08:17:23Z</time>
      </trkpt>
      <trkpt lat="45.18312" lon="5.98146">
        <ele>2373.6</ele>
        <time>2026-07-19T08:17:28Z</time>
      </trkpt>
      <trkpt lat="45.18314" lon="5.98148">
        <ele>2374</ele>
        <time>2026-07-19T08:17:31Z</time>
      </trkpt>
      <trkpt lat="45.18315" lon="5.98152">
        <ele>2375</ele>
        <time>2026-07-19T08:17:41Z</time>
      </trkpt>
      <trkpt lat="45.18315" lon="5.98153">
        <ele>2376.2</ele>
        <time>2026-07-19T08:17:43Z</time>
      </trkpt>
      <trkpt lat="45.18315" lon="5.98153">
        <ele>2376.8</ele>
        <time>2026-07-19T08:17:44Z</time>
      </trkpt>
      <trkpt lat="45.18315" lon="5.98154">
        <ele>2377.4</ele>
        <time>2026-07-19T08:17:45Z</time>
      </trkpt>
      <trkpt lat="45.18316" lon="5.98155">
        <ele>2378.8</ele>
        <time>2026-07-19T08:17:49Z</time>
      </trkpt>
      <trkpt lat="45.18318" lon="5.98156">
        <ele>2380</ele>
        <time>2026-07-19T08:17:52Z</time>
      </trkpt>
      <trkpt lat="45.18319" lon="5.98157">
        <ele>2381.6</ele>
        <time>2026-07-19T08:17:54Z</time>
      </trkpt>
      <trkpt lat="45.1832" lon="5.98157">
        <ele>2383.4</ele>
        <time>2026-07-19T08:17:56Z</time>
      </trkpt>
      <trkpt lat="45.1832" lon="5.98158">
        <ele>2384.6</ele>
        <time>2026-07-19T08:17:58Z</time>
      </trkpt>
      <trkpt lat="45.18321" lon="5.98158">
        <ele>2386</ele>
        <time>2026-07-19T08:18:00Z</time>
      </trkpt>
      <trkpt lat="45.18325" lon="5.98161">
        <ele>2385.2</ele>
        <time>2026-07-19T08:18:06Z</time>
      </trkpt>
      <trkpt lat="45.18326" lon="5.98163">
        <ele>2384.8</ele>
        <time>2026-07-19T08:18:08Z</time>
      </trkpt>
      <trkpt lat="45.18331" lon="5.98169">
        <ele>2385.2</ele>
        <time>2026-07-19T08:18:18Z</time>
      </trkpt>
      <trkpt lat="45.18337" lon="5.98171">
        <ele>2385.6</ele>
        <time>2026-07-19T08:18:30Z</time>
      </trkpt>
      <trkpt lat="45.18338" lon="5.98172">
        <ele>2386.2</ele>
        <time>2026-07-19T08:18:32Z</time>
      </trkpt>
      <trkpt lat="45.18341" lon="5.98174">
        <ele>2387.4</ele>
        <time>2026-07-19T08:18:38Z</time>
      </trkpt>
      <trkpt lat="45.18343" lon="5.98176">
        <ele>2388.6</ele>
        <time>2026-07-19T08:18:41Z</time>
      </trkpt>
      <trkpt lat="45.18343" lon="5.98178">
        <ele>2390</ele>
        <time>2026-07-19T08:18:43Z</time>
      </trkpt>
      <trkpt lat="45.18343" lon="5.98178">
        <ele>2390.6</ele>
        <time>2026-07-19T08:18:44Z</time>
      </trkpt>
      <trkpt lat="45.18344" lon="5.98178">
        <ele>2391.2</ele>
        <time>2026-07-19T08:18:45Z</time>
      </trkpt>
      <trkpt lat="45.18344" lon="5.98181">
        <ele>2392.4</ele>
        <time>2026-07-19T08:18:50Z</time>
      </trkpt>
      <trkpt lat="45.18344" lon="5.98184">
        <ele>2393.2</ele>
        <time>2026-07-19T08:18:53Z</time>
      </trkpt>
      <trkpt lat="45.18344" lon="5.98185">
        <ele>2393.4</ele>
        <time>2026-07-19T08:18:54Z</time>
      </trkpt>
      <trkpt lat="45.18346" lon="5.98189">
        <ele>2394.8</ele>
        <time>2026-07-19T08:19:02Z</time>
      </trkpt>
      <trkpt lat="45.18346" lon="5.98192">
        <ele>2395.4</ele>
        <time>2026-07-19T08:19:04Z</time>
      </trkpt>
      <trkpt lat="45.18346" lon="5.98194">
        <ele>2396.2</ele>
        <time>2026-07-19T08:19:06Z</time>
      </trkpt>
      <trkpt lat="45.18346" lon="5.98197">
        <ele>2397.4</ele>
        <time>2026-07-19T08:19:10Z</time>
      </trkpt>
      <trkpt lat="45.18348" lon="5.98201">
        <ele>2398.6</ele>
        <time>2026-07-19T08:19:14Z</time>
      </trkpt>
      <trkpt lat="45.18349" lon="5.98205">
        <ele>2400</ele>
        <time>2026-07-19T08:19:17Z</time>
      </trkpt>
      <trkpt lat="45.1835" lon="5.98209">
        <ele>2401.2</ele>
        <time>2026-07-19T08:19:21Z</time>
      </trkpt>
      <trkpt lat="45.1835" lon="5.98211">
        <ele>2401.6</ele>
        <time>2026-07-19T08:19:27Z</time>
      </trkpt>
      <trkpt lat="45.18352" lon="5.98218">
        <ele>2400</ele>
        <time>2026-07-19T08:19:32Z</time>
      </trkpt>
      <trkpt lat="45.18354" lon="5.98224">
        <ele>2398.8</ele>
        <time>2026-07-19T08:19:37Z</time>
      </trkpt>
      <trkpt lat="45.18359" lon="5.98234">
        <ele>2399.8</ele>
        <time>2026-07-19T08:19:49Z</time>
      </trkpt>
      <trkpt lat="45.18357" lon="5.98237">
        <ele>2401.2</ele>
        <time>2026-07-19T08:19:54Z</time>
      </trkpt>
      <trkpt lat="45.18354" lon="5.98241">
        <ele>2401.6</ele>
        <time>2026-07-19T08:19:58Z</time>
      </trkpt>
      <trkpt lat="45.18353" lon="5.98246">
        <ele>2402.4</ele>
        <time>2026-07-19T08:20:01Z</time>
      </trkpt>
      <trkpt lat="45.18354" lon="5.9825">
        <ele>2403.4</ele>
        <time>2026-07-19T08:20:04Z</time>
      </trkpt>
      <trkpt lat="45.18354" lon="5.98251">
        <ele>2403.8</ele>
        <time>2026-07-19T08:20:05Z</time>
      </trkpt>
      <trkpt lat="45.18355" lon="5.98254">
        <ele>2404.2</ele>
        <time>2026-07-19T08:20:07Z</time>
      </trkpt>
      <trkpt lat="45.18355" lon="5.98257">
        <ele>2405</ele>
        <time>2026-07-19T08:20:09Z</time>
      </trkpt>
      <trkpt lat="45.18356" lon="5.98262">
        <ele>2406.2</ele>
        <time>2026-07-19T08:20:13Z</time>
      </trkpt>
      <trkpt lat="45.18357" lon="5.98272">
        <ele>2407.4</ele>
        <time>2026-07-19T08:20:22Z</time>
      </trkpt>
      <trkpt lat="45.18357" lon="5.98273">
        <ele>2407.4</ele>
        <time>2026-07-19T08:20:23Z</time>
      </trkpt>
      <trkpt lat="45.18356" lon="5.98277">
        <ele>2408.8</ele>
        <time>2026-07-19T08:20:27Z</time>
      </trkpt>
      <trkpt lat="45.18359" lon="5.98279">
        <ele>2409.6</ele>
        <time>2026-07-19T08:20:36Z</time>
      </trkpt>
      <trkpt lat="45.18362" lon="5.98287">
        <ele>2409.8</ele>
        <time>2026-07-19T08:20:45Z</time>
      </trkpt>
      <trkpt lat="45.18367" lon="5.98294">
        <ele>2410.2</ele>
        <time>2026-07-19T08:20:57Z</time>
      </trkpt>
      <trkpt lat="45.18367" lon="5.98294">
        <ele>2410.6</ele>
        <time>2026-07-19T08:20:58Z</time>
      </trkpt>
      <trkpt lat="45.18367" lon="5.98295">
        <ele>2411.4</ele>
        <time>2026-07-19T08:20:59Z</time>
      </trkpt>
      <trkpt lat="45.1837" lon="5.98304">
        <ele>2412.8</ele>
        <time>2026-07-19T08:21:09Z</time>
      </trkpt>
      <trkpt lat="45.18371" lon="5.98305">
        <ele>2413</ele>
        <time>2026-07-19T08:21:10Z</time>
      </trkpt>
      <trkpt lat="45.18372" lon="5.9831">
        <ele>2414.8</ele>
        <time>2026-07-19T08:21:15Z</time>
      </trkpt>
      <trkpt lat="45.18372" lon="5.98312">
        <ele>2416.2</ele>
        <time>2026-07-19T08:21:17Z</time>
      </trkpt>
      <trkpt lat="45.18373" lon="5.98314">
        <ele>2417.6</ele>
        <time>2026-07-19T08:21:19Z</time>
      </trkpt>
      <trkpt lat="45.18374" lon="5.98317">
        <ele>2418.8</ele>
        <time>2026-07-19T08:21:22Z</time>
      </trkpt>
      <trkpt lat="45.18375" lon="5.98317">
        <ele>2420.6</ele>
        <time>2026-07-19T08:21:24Z</time>
      </trkpt>
      <trkpt lat="45.18376" lon="5.9832">
        <ele>2421.8</ele>
        <time>2026-07-19T08:21:27Z</time>
      </trkpt>
      <trkpt lat="45.18377" lon="5.98322">
        <ele>2423.6</ele>
        <time>2026-07-19T08:21:30Z</time>
      </trkpt>
      <trkpt lat="45.18379" lon="5.98322">
        <ele>2424.8</ele>
        <time>2026-07-19T08:21:33Z</time>
      </trkpt>
      <trkpt lat="45.18379" lon="5.98322">
        <ele>2425.4</ele>
        <time>2026-07-19T08:21:34Z</time>
      </trkpt>
      <trkpt lat="45.1838" lon="5.98322">
        <ele>2426.4</ele>
        <time>2026-07-19T08:21:36Z</time>
      </trkpt>
      <trkpt lat="45.18381" lon="5.98325">
        <ele>2427.6</ele>
        <time>2026-07-19T08:21:42Z</time>
      </trkpt>
      <trkpt lat="45.18381" lon="5.98324">
        <ele>2428.2</ele>
        <time>2026-07-19T08:21:45Z</time>
      </trkpt>
      <trkpt lat="45.18383" lon="5.98324">
        <ele>2428.8</ele>
        <time>2026-07-19T08:21:49Z</time>
      </trkpt>
      <trkpt lat="45.18385" lon="5.98329">
        <ele>2429.6</ele>
        <time>2026-07-19T08:21:55Z</time>
      </trkpt>
      <trkpt lat="45.18385" lon="5.9833">
        <ele>2430</ele>
        <time>2026-07-19T08:21:56Z</time>
      </trkpt>
      <trkpt lat="45.18387" lon="5.98336">
        <ele>2431.6</ele>
        <time>2026-07-19T08:22:03Z</time>
      </trkpt>
      <trkpt lat="45.18389" lon="5.98339">
        <ele>2433</ele>
        <time>2026-07-19T08:22:07Z</time>
      </trkpt>
      <trkpt lat="45.18389" lon="5.9834">
        <ele>2434.4</ele>
        <time>2026-07-19T08:22:12Z</time>
      </trkpt>
      <trkpt lat="45.18391" lon="5.9834">
        <ele>2435.8</ele>
        <time>2026-07-19T08:22:16Z</time>
      </trkpt>
      <trkpt lat="45.18392" lon="5.98343">
        <ele>2437.2</ele>
        <time>2026-07-19T08:22:18Z</time>
      </trkpt>
      <trkpt lat="45.18395" lon="5.98347">
        <ele>2438.4</ele>
        <time>2026-07-19T08:22:24Z</time>
      </trkpt>
      <trkpt lat="45.18395" lon="5.98348">
        <ele>2438.6</ele>
        <time>2026-07-19T08:22:25Z</time>
      </trkpt>
      <trkpt lat="45.18396" lon="5.98351">
        <ele>2439.4</ele>
        <time>2026-07-19T08:22:29Z</time>
      </trkpt>
      <trkpt lat="45.18398" lon="5.98353">
        <ele>2440.2</ele>
        <time>2026-07-19T08:22:35Z</time>
      </trkpt>
      <trkpt lat="45.18398" lon="5.98354">
        <ele>2440.6</ele>
        <time>2026-07-19T08:22:37Z</time>
      </trkpt>
      <trkpt lat="45.184" lon="5.98361">
        <ele>2440.6</ele>
        <time>2026-07-19T08:22:45Z</time>
      </trkpt>
      <trkpt lat="45.18402" lon="5.98358">
        <ele>2441.2</ele>
        <time>2026-07-19T08:22:54Z</time>
      </trkpt>
      <trkpt lat="45.18404" lon="5.98359">
        <ele>2442</ele>
        <time>2026-07-19T08:22:57Z</time>
      </trkpt>
      <trkpt lat="45.18405" lon="5.98359">
        <ele>2443.2</ele>
        <time>2026-07-19T08:23:00Z</time>
      </trkpt>
      <trkpt lat="45.18406" lon="5.98361">
        <ele>2444</ele>
        <time>2026-07-19T08:23:03Z</time>
      </trkpt>
      <trkpt lat="45.18406" lon="5.98362">
        <ele>2444.4</ele>
        <time>2026-07-19T08:23:04Z</time>
      </trkpt>
      <trkpt lat="45.18407" lon="5.98363">
        <ele>2445.6</ele>
        <time>2026-07-19T08:23:06Z</time>
      </trkpt>
      <trkpt lat="45.18408" lon="5.98367">
        <ele>2446.8</ele>
        <time>2026-07-19T08:23:10Z</time>
      </trkpt>
      <trkpt lat="45.18409" lon="5.98373">
        <ele>2447</ele>
        <time>2026-07-19T08:23:14Z</time>
      </trkpt>
      <trkpt lat="45.18412" lon="5.98378">
        <ele>2448</ele>
        <time>2026-07-19T08:23:22Z</time>
      </trkpt>
      <trkpt lat="45.18412" lon="5.98378">
        <ele>2448.2</ele>
        <time>2026-07-19T08:23:23Z</time>
      </trkpt>
      <trkpt lat="45.18413" lon="5.98378">
        <ele>2449.4</ele>
        <time>2026-07-19T08:23:27Z</time>
      </trkpt>
      <trkpt lat="45.18413" lon="5.98381">
        <ele>2450.6</ele>
        <time>2026-07-19T08:23:31Z</time>
      </trkpt>
      <trkpt lat="45.18413" lon="5.98381">
        <ele>2450.8</ele>
        <time>2026-07-19T08:23:32Z</time>
      </trkpt>
      <trkpt lat="45.18413" lon="5.98383">
        <ele>2452</ele>
        <time>2026-07-19T08:23:35Z</time>
      </trkpt>
      <trkpt lat="45.18413" lon="5.98387">
        <ele>2451</ele>
        <time>2026-07-19T08:23:43Z</time>
      </trkpt>
      <trkpt lat="45.18416" lon="5.98395">
        <ele>2452.2</ele>
        <time>2026-07-19T08:23:53Z</time>
      </trkpt>
      <trkpt lat="45.18419" lon="5.98393">
        <ele>2453.2</ele>
        <time>2026-07-19T08:24:00Z</time>
      </trkpt>
      <trkpt lat="45.1842" lon="5.98391">
        <ele>2454</ele>
        <time>2026-07-19T08:24:03Z</time>
      </trkpt>
      <trkpt lat="45.1842" lon="5.9839">
        <ele>2454.2</ele>
        <time>2026-07-19T08:24:05Z</time>
      </trkpt>
      <trkpt lat="45.18423" lon="5.9839">
        <ele>2455.4</ele>
        <time>2026-07-19T08:24:15Z</time>
      </trkpt>
      <trkpt lat="45.18427" lon="5.98391">
        <ele>2456.8</ele>
        <time>2026-07-19T08:24:19Z</time>
      </trkpt>
      <trkpt lat="45.18429" lon="5.98392">
        <ele>2457.4</ele>
        <time>2026-07-19T08:24:21Z</time>
      </trkpt>
      <trkpt lat="45.1843" lon="5.98392">
        <ele>2458</ele>
        <time>2026-07-19T08:24:23Z</time>
      </trkpt>
      <trkpt lat="45.18442" lon="5.98395">
        <ele>2458.2</ele>
        <time>2026-07-19T08:24:30Z</time>
      </trkpt>
      <trkpt lat="45.18446" lon="5.98395">
        <ele>2456</ele>
        <time>2026-07-19T08:24:35Z</time>
      </trkpt>
      <trkpt lat="45.18448" lon="5.98394">
        <ele>2454.8</ele>
        <time>2026-07-19T08:24:36Z</time>
      </trkpt>
      <trkpt lat="45.1845" lon="5.98395">
        <ele>2452.8</ele>
        <time>2026-07-19T08:24:38Z</time>
      </trkpt>
      <trkpt lat="45.18454" lon="5.98391">
        <ele>2453.4</ele>
        <time>2026-07-19T08:24:51Z</time>
      </trkpt>
      <trkpt lat="45.18452" lon="5.9839">
        <ele>2454</ele>
        <time>2026-07-19T08:25:03Z</time>
      </trkpt>
      <trkpt lat="45.18453" lon="5.98389">
        <ele>2454</ele>
        <time>2026-07-19T08:25:08Z</time>
      </trkpt>
      <trkpt lat="45.18445" lon="5.98392">
        <ele>2455</ele>
        <time>2026-07-19T08:25:25Z</time>
      </trkpt>
      <trkpt lat="45.18445" lon="5.98391">
        <ele>2455.2</ele>
        <time>2026-07-19T08:25:28Z</time>
      </trkpt>
      <trkpt lat="45.18444" lon="5.98391">
        <ele>2456</ele>
        <time>2026-07-19T08:25:43Z</time>
      </trkpt>
      <trkpt lat="45.18442" lon="5.98391">
        <ele>2456</ele>
        <time>2026-07-19T08:26:01Z</time>
      </trkpt>
      <trkpt lat="45.18438" lon="5.98381">
        <ele>2455.2</ele>
        <time>2026-07-19T08:26:10Z</time>
      </trkpt>
      <trkpt lat="45.18441" lon="5.98379">
        <ele>2455</ele>
        <time>2026-07-19T08:26:18Z</time>
      </trkpt>
      <trkpt lat="45.18446" lon="5.98388">
        <ele>2455.6</ele>
        <time>2026-07-19T08:26:28Z</time>
      </trkpt>
      <trkpt lat="45.1845" lon="5.98402">
        <ele>2455.2</ele>
        <time>2026-07-19T08:26:39Z</time>
      </trkpt>
      <trkpt lat="45.18449" lon="5.9841">
        <ele>2456.4</ele>
        <time>2026-07-19T08:26:46Z</time>
      </trkpt>
      <trkpt lat="45.18449" lon="5.98414">
        <ele>2457.4</ele>
        <time>2026-07-19T08:26:49Z</time>
      </trkpt>
      <trkpt lat="45.18449" lon="5.98416">
        <ele>2457.4</ele>
        <time>2026-07-19T08:26:52Z</time>
      </trkpt>
      <trkpt lat="45.18452" lon="5.98429">
        <ele>2458.6</ele>
        <time>2026-07-19T08:27:01Z</time>
      </trkpt>
      <trkpt lat="45.18454" lon="5.98432">
        <ele>2459.2</ele>
        <time>2026-07-19T08:27:04Z</time>
      </trkpt>
      <trkpt lat="45.18456" lon="5.98443">
        <ele>2459.8</ele>
        <time>2026-07-19T08:27:12Z</time>
      </trkpt>
      <trkpt lat="45.18457" lon="5.98446">
        <ele>2460.8</ele>
        <time>2026-07-19T08:27:15Z</time>
      </trkpt>
      <trkpt lat="45.18457" lon="5.98447">
        <ele>2461.2</ele>
        <time>2026-07-19T08:27:16Z</time>
      </trkpt>
      <trkpt lat="45.18458" lon="5.98449">
        <ele>2462.6</ele>
        <time>2026-07-19T08:27:19Z</time>
      </trkpt>
      <trkpt lat="45.18458" lon="5.9845">
        <ele>2464</ele>
        <time>2026-07-19T08:27:22Z</time>
      </trkpt>
      <trkpt lat="45.18459" lon="5.98451">
        <ele>2465.2</ele>
        <time>2026-07-19T08:27:24Z</time>
      </trkpt>
      <trkpt lat="45.18459" lon="5.98452">
        <ele>2465.6</ele>
        <time>2026-07-19T08:27:25Z</time>
      </trkpt>
      <trkpt lat="45.1846" lon="5.98454">
        <ele>2466.4</ele>
        <time>2026-07-19T08:27:28Z</time>
      </trkpt>
      <trkpt lat="45.1846" lon="5.98458">
        <ele>2467.6</ele>
        <time>2026-07-19T08:27:32Z</time>
      </trkpt>
      <trkpt lat="45.1846" lon="5.9846">
        <ele>2469</ele>
        <time>2026-07-19T08:27:36Z</time>
      </trkpt>
      <trkpt lat="45.1846" lon="5.98461">
        <ele>2469.6</ele>
        <time>2026-07-19T08:27:37Z</time>
      </trkpt>
      <trkpt lat="45.18461" lon="5.98461">
        <ele>2470.4</ele>
        <time>2026-07-19T08:27:39Z</time>
      </trkpt>
      <trkpt lat="45.18461" lon="5.98462">
        <ele>2471.6</ele>
        <time>2026-07-19T08:27:42Z</time>
      </trkpt>
      <trkpt lat="45.18461" lon="5.98463">
        <ele>2472.6</ele>
        <time>2026-07-19T08:27:44Z</time>
      </trkpt>
      <trkpt lat="45.18461" lon="5.98466">
        <ele>2474</ele>
        <time>2026-07-19T08:27:47Z</time>
      </trkpt>
      <trkpt lat="45.18462" lon="5.98471">
        <ele>2475.4</ele>
        <time>2026-07-19T08:27:55Z</time>
      </trkpt>
      <trkpt lat="45.18463" lon="5.98473">
        <ele>2476.6</ele>
        <time>2026-07-19T08:27:58Z</time>
      </trkpt>
      <trkpt lat="45.18463" lon="5.98476">
        <ele>2477.6</ele>
        <time>2026-07-19T08:28:02Z</time>
      </trkpt>
      <trkpt lat="45.18461" lon="5.98477">
        <ele>2479.2</ele>
        <time>2026-07-19T08:28:05Z</time>
      </trkpt>
      <trkpt lat="45.18458" lon="5.9848">
        <ele>2479.8</ele>
        <time>2026-07-19T08:28:10Z</time>
      </trkpt>
      <trkpt lat="45.18458" lon="5.98482">
        <ele>2480.4</ele>
        <time>2026-07-19T08:28:12Z</time>
      </trkpt>
      <trkpt lat="45.18456" lon="5.98484">
        <ele>2481.8</ele>
        <time>2026-07-19T08:28:15Z</time>
      </trkpt>
      <trkpt lat="45.18456" lon="5.98487">
        <ele>2483</ele>
        <time>2026-07-19T08:28:19Z</time>
      </trkpt>
      <trkpt lat="45.18454" lon="5.9849">
        <ele>2484.2</ele>
        <time>2026-07-19T08:28:23Z</time>
      </trkpt>
      <trkpt lat="45.18452" lon="5.98491">
        <ele>2484.4</ele>
        <time>2026-07-19T08:28:27Z</time>
      </trkpt>
      <trkpt lat="45.18452" lon="5.98494">
        <ele>2485.6</ele>
        <time>2026-07-19T08:28:32Z</time>
      </trkpt>
      <trkpt lat="45.18452" lon="5.98496">
        <ele>2486.8</ele>
        <time>2026-07-19T08:28:35Z</time>
      </trkpt>
      <trkpt lat="45.18454" lon="5.98496">
        <ele>2487.2</ele>
        <time>2026-07-19T08:28:37Z</time>
      </trkpt>
      <trkpt lat="45.18454" lon="5.98497">
        <ele>2487.2</ele>
        <time>2026-07-19T08:28:38Z</time>
      </trkpt>
      <trkpt lat="45.18455" lon="5.98498">
        <ele>2487.2</ele>
        <time>2026-07-19T08:28:40Z</time>
      </trkpt>
      <trkpt lat="45.18456" lon="5.98501">
        <ele>2487.4</ele>
        <time>2026-07-19T08:28:45Z</time>
      </trkpt>
      <trkpt lat="45.18456" lon="5.98501">
        <ele>2488</ele>
        <time>2026-07-19T08:28:46Z</time>
      </trkpt>
      <trkpt lat="45.18455" lon="5.98503">
        <ele>2489.4</ele>
        <time>2026-07-19T08:28:50Z</time>
      </trkpt>
      <trkpt lat="45.18455" lon="5.98508">
        <ele>2489.6</ele>
        <time>2026-07-19T08:28:57Z</time>
      </trkpt>
      <trkpt lat="45.18454" lon="5.98512">
        <ele>2490.6</ele>
        <time>2026-07-19T08:29:00Z</time>
      </trkpt>
      <trkpt lat="45.18454" lon="5.98517">
        <ele>2491.8</ele>
        <time>2026-07-19T08:29:08Z</time>
      </trkpt>
      <trkpt lat="45.18454" lon="5.98517">
        <ele>2492</ele>
        <time>2026-07-19T08:29:09Z</time>
      </trkpt>
      <trkpt lat="45.18455" lon="5.98519">
        <ele>2493.2</ele>
        <time>2026-07-19T08:29:11Z</time>
      </trkpt>
      <trkpt lat="45.18455" lon="5.98521">
        <ele>2494.4</ele>
        <time>2026-07-19T08:29:13Z</time>
      </trkpt>
      <trkpt lat="45.18456" lon="5.98524">
        <ele>2495.6</ele>
        <time>2026-07-19T08:29:16Z</time>
      </trkpt>
      <trkpt lat="45.18456" lon="5.98527">
        <ele>2496.2</ele>
        <time>2026-07-19T08:29:19Z</time>
      </trkpt>
      <trkpt lat="45.18457" lon="5.98528">
        <ele>2496.8</ele>
        <time>2026-07-19T08:29:21Z</time>
      </trkpt>
      <trkpt lat="45.18458" lon="5.98532">
        <ele>2497</ele>
        <time>2026-07-19T08:29:28Z</time>
      </trkpt>
      <trkpt lat="45.18459" lon="5.98535">
        <ele>2498</ele>
        <time>2026-07-19T08:29:30Z</time>
      </trkpt>
      <trkpt lat="45.1846" lon="5.98537">
        <ele>2499.6</ele>
        <time>2026-07-19T08:29:33Z</time>
      </trkpt>
      <trkpt lat="45.1846" lon="5.9854">
        <ele>2501.4</ele>
        <time>2026-07-19T08:29:37Z</time>
      </trkpt>
      <trkpt lat="45.18461" lon="5.98545">
        <ele>2502</ele>
        <time>2026-07-19T08:29:41Z</time>
      </trkpt>
      <trkpt lat="45.18464" lon="5.98557">
        <ele>2502.4</ele>
        <time>2026-07-19T08:29:55Z</time>
      </trkpt>
      <trkpt lat="45.18464" lon="5.98559">
        <ele>2502.8</ele>
        <time>2026-07-19T08:29:56Z</time>
      </trkpt>
      <trkpt lat="45.18465" lon="5.98561">
        <ele>2504</ele>
        <time>2026-07-19T08:29:58Z</time>
      </trkpt>
      <trkpt lat="45.18466" lon="5.98562">
        <ele>2505.2</ele>
        <time>2026-07-19T08:30:00Z</time>
      </trkpt>
      <trkpt lat="45.18466" lon="5.98564">
        <ele>2506.6</ele>
        <time>2026-07-19T08:30:02Z</time>
      </trkpt>
      <trkpt lat="45.18467" lon="5.98567">
        <ele>2507.8</ele>
        <time>2026-07-19T08:30:05Z</time>
      </trkpt>
      <trkpt lat="45.18468" lon="5.9857">
        <ele>2508.8</ele>
        <time>2026-07-19T08:30:08Z</time>
      </trkpt>
      <trkpt lat="45.18468" lon="5.98573">
        <ele>2509</ele>
        <time>2026-07-19T08:30:10Z</time>
      </trkpt>
      <trkpt lat="45.18467" lon="5.98583">
        <ele>2508.6</ele>
        <time>2026-07-19T08:30:20Z</time>
      </trkpt>
      <trkpt lat="45.18471" lon="5.9859">
        <ele>2509.6</ele>
        <time>2026-07-19T08:30:31Z</time>
      </trkpt>
      <trkpt lat="45.18472" lon="5.98599">
        <ele>2509.6</ele>
        <time>2026-07-19T08:30:41Z</time>
      </trkpt>
      <trkpt lat="45.18473" lon="5.98602">
        <ele>2510.4</ele>
        <time>2026-07-19T08:30:49Z</time>
      </trkpt>
      <trkpt lat="45.18473" lon="5.98603">
        <ele>2511.4</ele>
        <time>2026-07-19T08:30:51Z</time>
      </trkpt>
      <trkpt lat="45.18474" lon="5.98604">
        <ele>2512</ele>
        <time>2026-07-19T08:30:52Z</time>
      </trkpt>
      <trkpt lat="45.18475" lon="5.98607">
        <ele>2513.4</ele>
        <time>2026-07-19T08:30:55Z</time>
      </trkpt>
      <trkpt lat="45.18476" lon="5.98608">
        <ele>2514.8</ele>
        <time>2026-07-19T08:30:57Z</time>
      </trkpt>
      <trkpt lat="45.18477" lon="5.98609">
        <ele>2516.2</ele>
        <time>2026-07-19T08:31:01Z</time>
      </trkpt>
      <trkpt lat="45.18478" lon="5.98608">
        <ele>2516.6</ele>
        <time>2026-07-19T08:31:02Z</time>
      </trkpt>
      <trkpt lat="45.1848" lon="5.98609">
        <ele>2518</ele>
        <time>2026-07-19T08:31:05Z</time>
      </trkpt>
      <trkpt lat="45.1848" lon="5.9861">
        <ele>2519.2</ele>
        <time>2026-07-19T08:31:07Z</time>
      </trkpt>
      <trkpt lat="45.18481" lon="5.98612">
        <ele>2520.8</ele>
        <time>2026-07-19T08:31:09Z</time>
      </trkpt>
      <trkpt lat="45.18482" lon="5.98612">
        <ele>2521.4</ele>
        <time>2026-07-19T08:31:10Z</time>
      </trkpt>
      <trkpt lat="45.18482" lon="5.98614">
        <ele>2522.4</ele>
        <time>2026-07-19T08:31:12Z</time>
      </trkpt>
      <trkpt lat="45.18483" lon="5.98615">
        <ele>2523.8</ele>
        <time>2026-07-19T08:31:15Z</time>
      </trkpt>
      <trkpt lat="45.18483" lon="5.98613">
        <ele>2524.6</ele>
        <time>2026-07-19T08:31:17Z</time>
      </trkpt>
      <trkpt lat="45.18484" lon="5.98612">
        <ele>2525</ele>
        <time>2026-07-19T08:31:19Z</time>
      </trkpt>
      <trkpt lat="45.18485" lon="5.98612">
        <ele>2526</ele>
        <time>2026-07-19T08:31:24Z</time>
      </trkpt>
      <trkpt lat="45.18486" lon="5.98613">
        <ele>2526.2</ele>
        <time>2026-07-19T08:31:26Z</time>
      </trkpt>
      <trkpt lat="45.18487" lon="5.98615">
        <ele>2527.2</ele>
        <time>2026-07-19T08:31:29Z</time>
      </trkpt>
      <trkpt lat="45.18488" lon="5.98619">
        <ele>2528.4</ele>
        <time>2026-07-19T08:31:32Z</time>
      </trkpt>
      <trkpt lat="45.18488" lon="5.98623">
        <ele>2530</ele>
        <time>2026-07-19T08:31:35Z</time>
      </trkpt>
      <trkpt lat="45.18488" lon="5.98625">
        <ele>2530.4</ele>
        <time>2026-07-19T08:31:37Z</time>
      </trkpt>
      <trkpt lat="45.18489" lon="5.98629">
        <ele>2531.4</ele>
        <time>2026-07-19T08:31:40Z</time>
      </trkpt>
      <trkpt lat="45.18491" lon="5.98636">
        <ele>2531.8</ele>
        <time>2026-07-19T08:31:47Z</time>
      </trkpt>
      <trkpt lat="45.18491" lon="5.98639">
        <ele>2532.4</ele>
        <time>2026-07-19T08:31:49Z</time>
      </trkpt>
      <trkpt lat="45.18492" lon="5.98642">
        <ele>2533.6</ele>
        <time>2026-07-19T08:31:53Z</time>
      </trkpt>
      <trkpt lat="45.18493" lon="5.98648">
        <ele>2534.8</ele>
        <time>2026-07-19T08:32:00Z</time>
      </trkpt>
      <trkpt lat="45.18496" lon="5.98662">
        <ele>2536</ele>
        <time>2026-07-19T08:32:13Z</time>
      </trkpt>
      <trkpt lat="45.18498" lon="5.9867">
        <ele>2537</ele>
        <time>2026-07-19T08:32:19Z</time>
      </trkpt>
      <trkpt lat="45.18499" lon="5.98679">
        <ele>2538</ele>
        <time>2026-07-19T08:32:27Z</time>
      </trkpt>
      <trkpt lat="45.18499" lon="5.98682">
        <ele>2538.2</ele>
        <time>2026-07-19T08:32:30Z</time>
      </trkpt>
      <trkpt lat="45.18501" lon="5.9869">
        <ele>2539.4</ele>
        <time>2026-07-19T08:32:39Z</time>
      </trkpt>
      <trkpt lat="45.18502" lon="5.98691">
        <ele>2539.6</ele>
        <time>2026-07-19T08:32:40Z</time>
      </trkpt>
      <trkpt lat="45.18502" lon="5.98696">
        <ele>2540.6</ele>
        <time>2026-07-19T08:32:44Z</time>
      </trkpt>
      <trkpt lat="45.18503" lon="5.987">
        <ele>2541.6</ele>
        <time>2026-07-19T08:32:48Z</time>
      </trkpt>
      <trkpt lat="45.18504" lon="5.98703">
        <ele>2542.4</ele>
        <time>2026-07-19T08:32:51Z</time>
      </trkpt>
      <trkpt lat="45.18503" lon="5.98708">
        <ele>2543</ele>
        <time>2026-07-19T08:32:56Z</time>
      </trkpt>
      <trkpt lat="45.18503" lon="5.98713">
        <ele>2543.4</ele>
        <time>2026-07-19T08:33:00Z</time>
      </trkpt>
      <trkpt lat="45.18502" lon="5.98717">
        <ele>2544.4</ele>
        <time>2026-07-19T08:33:03Z</time>
      </trkpt>
      <trkpt lat="45.18503" lon="5.9872">
        <ele>2545.6</ele>
        <time>2026-07-19T08:33:06Z</time>
      </trkpt>
      <trkpt lat="45.18503" lon="5.98723">
        <ele>2547.2</ele>
        <time>2026-07-19T08:33:10Z</time>
      </trkpt>
      <trkpt lat="45.18503" lon="5.98723">
        <ele>2547.6</ele>
        <time>2026-07-19T08:33:11Z</time>
      </trkpt>
      <trkpt lat="45.18505" lon="5.98725">
        <ele>2548.4</ele>
        <time>2026-07-19T08:33:14Z</time>
      </trkpt>
      <trkpt lat="45.18505" lon="5.98726">
        <ele>2549.6</ele>
        <time>2026-07-19T08:33:17Z</time>
      </trkpt>
      <trkpt lat="45.18506" lon="5.98726">
        <ele>2550.6</ele>
        <time>2026-07-19T08:33:20Z</time>
      </trkpt>
      <trkpt lat="45.18507" lon="5.98726">
        <ele>2550.8</ele>
        <time>2026-07-19T08:33:21Z</time>
      </trkpt>
      <trkpt lat="45.18509" lon="5.98726">
        <ele>2552</ele>
        <time>2026-07-19T08:33:24Z</time>
      </trkpt>
      <trkpt lat="45.18511" lon="5.9873">
        <ele>2552.4</ele>
        <time>2026-07-19T08:33:31Z</time>
      </trkpt>
      <trkpt lat="45.18514" lon="5.98735">
        <ele>2553</ele>
        <time>2026-07-19T08:33:39Z</time>
      </trkpt>
      <trkpt lat="45.18514" lon="5.98735">
        <ele>2553.4</ele>
        <time>2026-07-19T08:33:40Z</time>
      </trkpt>
      <trkpt lat="45.18518" lon="5.98736">
        <ele>2554.6</ele>
        <time>2026-07-19T08:33:48Z</time>
      </trkpt>
      <trkpt lat="45.18518" lon="5.98736">
        <ele>2555</ele>
        <time>2026-07-19T08:33:49Z</time>
      </trkpt>
      <trkpt lat="45.1852" lon="5.98737">
        <ele>2555.8</ele>
        <time>2026-07-19T08:33:53Z</time>
      </trkpt>
      <trkpt lat="45.18522" lon="5.98737">
        <ele>2557</ele>
        <time>2026-07-19T08:33:57Z</time>
      </trkpt>
      <trkpt lat="45.18523" lon="5.98739">
        <ele>2557.8</ele>
        <time>2026-07-19T08:34:00Z</time>
      </trkpt>
      <trkpt lat="45.18523" lon="5.9874">
        <ele>2558.2</ele>
        <time>2026-07-19T08:34:01Z</time>
      </trkpt>
      <trkpt lat="45.18523" lon="5.98742">
        <ele>2559.8</ele>
        <time>2026-07-19T08:34:04Z</time>
      </trkpt>
      <trkpt lat="45.18525" lon="5.98744">
        <ele>2561.2</ele>
        <time>2026-07-19T08:34:09Z</time>
      </trkpt>
      <trkpt lat="45.18526" lon="5.98745">
        <ele>2561.4</ele>
        <time>2026-07-19T08:34:10Z</time>
      </trkpt>
      <trkpt lat="45.18526" lon="5.98747">
        <ele>2562.4</ele>
        <time>2026-07-19T08:34:13Z</time>
      </trkpt>
      <trkpt lat="45.18527" lon="5.98748">
        <ele>2563.6</ele>
        <time>2026-07-19T08:34:17Z</time>
      </trkpt>
      <trkpt lat="45.18528" lon="5.98747">
        <ele>2564.2</ele>
        <time>2026-07-19T08:34:19Z</time>
      </trkpt>
      <trkpt lat="45.18528" lon="5.98747">
        <ele>2565</ele>
        <time>2026-07-19T08:34:21Z</time>
      </trkpt>
      <trkpt lat="45.18529" lon="5.98747">
        <ele>2566.2</ele>
        <time>2026-07-19T08:34:28Z</time>
      </trkpt>
      <trkpt lat="45.18529" lon="5.98747">
        <ele>2566.2</ele>
        <time>2026-07-19T08:34:29Z</time>
      </trkpt>
      <trkpt lat="45.18531" lon="5.98749">
        <ele>2567.4</ele>
        <time>2026-07-19T08:34:36Z</time>
      </trkpt>
      <trkpt lat="45.18531" lon="5.9875">
        <ele>2568</ele>
        <time>2026-07-19T08:34:38Z</time>
      </trkpt>
      <trkpt lat="45.18533" lon="5.9875">
        <ele>2568.6</ele>
        <time>2026-07-19T08:34:41Z</time>
      </trkpt>
      <trkpt lat="45.18535" lon="5.98753">
        <ele>2569.8</ele>
        <time>2026-07-19T08:34:45Z</time>
      </trkpt>
      <trkpt lat="45.18535" lon="5.98754">
        <ele>2570.2</ele>
        <time>2026-07-19T08:34:46Z</time>
      </trkpt>
      <trkpt lat="45.18538" lon="5.98758">
        <ele>2571.2</ele>
        <time>2026-07-19T08:34:55Z</time>
      </trkpt>
      <trkpt lat="45.18539" lon="5.98759">
        <ele>2571.8</ele>
        <time>2026-07-19T08:34:58Z</time>
      </trkpt>
      <trkpt lat="45.1854" lon="5.9876">
        <ele>2572.4</ele>
        <time>2026-07-19T08:35:00Z</time>
      </trkpt>
      <trkpt lat="45.18541" lon="5.98761">
        <ele>2573.6</ele>
        <time>2026-07-19T08:35:04Z</time>
      </trkpt>
      <trkpt lat="45.18542" lon="5.98761">
        <ele>2574.8</ele>
        <time>2026-07-19T08:35:12Z</time>
      </trkpt>
      <trkpt lat="45.18546" lon="5.9876">
        <ele>2576</ele>
        <time>2026-07-19T08:35:19Z</time>
      </trkpt>
      <trkpt lat="45.18547" lon="5.98761">
        <ele>2576</ele>
        <time>2026-07-19T08:35:21Z</time>
      </trkpt>
      <trkpt lat="45.1855" lon="5.98762">
        <ele>2577.2</ele>
        <time>2026-07-19T08:35:26Z</time>
      </trkpt>
      <trkpt lat="45.18551" lon="5.98765">
        <ele>2578.4</ele>
        <time>2026-07-19T08:35:29Z</time>
      </trkpt>
      <trkpt lat="45.18552" lon="5.98765">
        <ele>2578.8</ele>
        <time>2026-07-19T08:35:31Z</time>
      </trkpt>
      <trkpt lat="45.18554" lon="5.98766">
        <ele>2579.4</ele>
        <time>2026-07-19T08:35:34Z</time>
      </trkpt>
      <trkpt lat="45.18556" lon="5.98769">
        <ele>2580.6</ele>
        <time>2026-07-19T08:35:38Z</time>
      </trkpt>
      <trkpt lat="45.18556" lon="5.98772">
        <ele>2582</ele>
        <time>2026-07-19T08:35:42Z</time>
      </trkpt>
      <trkpt lat="45.18559" lon="5.98772">
        <ele>2583.2</ele>
        <time>2026-07-19T08:35:47Z</time>
      </trkpt>
      <trkpt lat="45.18561" lon="5.98773">
        <ele>2584.4</ele>
        <time>2026-07-19T08:35:51Z</time>
      </trkpt>
      <trkpt lat="45.18561" lon="5.98774">
        <ele>2585.4</ele>
        <time>2026-07-19T08:35:53Z</time>
      </trkpt>
      <trkpt lat="45.1856" lon="5.98776">
        <ele>2586.6</ele>
        <time>2026-07-19T08:36:01Z</time>
      </trkpt>
      <trkpt lat="45.1856" lon="5.98776">
        <ele>2587</ele>
        <time>2026-07-19T08:36:03Z</time>
      </trkpt>
      <trkpt lat="45.18559" lon="5.98776">
        <ele>2587.8</ele>
        <time>2026-07-19T08:36:09Z</time>
      </trkpt>
      <trkpt lat="45.18559" lon="5.98777">
        <ele>2589</ele>
        <time>2026-07-19T08:36:12Z</time>
      </trkpt>
      <trkpt lat="45.18559" lon="5.9878">
        <ele>2589.4</ele>
        <time>2026-07-19T08:36:16Z</time>
      </trkpt>
      <trkpt lat="45.1856" lon="5.98782">
        <ele>2590</ele>
        <time>2026-07-19T08:36:18Z</time>
      </trkpt>
      <trkpt lat="45.18561" lon="5.98786">
        <ele>2591.2</ele>
        <time>2026-07-19T08:36:25Z</time>
      </trkpt>
      <trkpt lat="45.18563" lon="5.98786">
        <ele>2592</ele>
        <time>2026-07-19T08:36:28Z</time>
      </trkpt>
      <trkpt lat="45.18564" lon="5.98786">
        <ele>2592.4</ele>
        <time>2026-07-19T08:36:30Z</time>
      </trkpt>
      <trkpt lat="45.18567" lon="5.98792">
        <ele>2593</ele>
        <time>2026-07-19T08:36:39Z</time>
      </trkpt>
      <trkpt lat="45.18566" lon="5.98794">
        <ele>2593.6</ele>
        <time>2026-07-19T08:36:42Z</time>
      </trkpt>
      <trkpt lat="45.18566" lon="5.98795">
        <ele>2594.6</ele>
        <time>2026-07-19T08:36:44Z</time>
      </trkpt>
      <trkpt lat="45.18566" lon="5.98797">
        <ele>2595.8</ele>
        <time>2026-07-19T08:36:46Z</time>
      </trkpt>
      <trkpt lat="45.18566" lon="5.98799">
        <ele>2597</ele>
        <time>2026-07-19T08:36:48Z</time>
      </trkpt>
      <trkpt lat="45.18566" lon="5.98799">
        <ele>2597.2</ele>
        <time>2026-07-19T08:36:49Z</time>
      </trkpt>
      <trkpt lat="45.18566" lon="5.988">
        <ele>2598.2</ele>
        <time>2026-07-19T08:36:51Z</time>
      </trkpt>
      <trkpt lat="45.18567" lon="5.98801">
        <ele>2599.6</ele>
        <time>2026-07-19T08:36:54Z</time>
      </trkpt>
      <trkpt lat="45.18569" lon="5.98802">
        <ele>2600.4</ele>
        <time>2026-07-19T08:36:58Z</time>
      </trkpt>
      <trkpt lat="45.18569" lon="5.98803">
        <ele>2600.8</ele>
        <time>2026-07-19T08:37:00Z</time>
      </trkpt>
      <trkpt lat="45.18569" lon="5.98804">
        <ele>2602</ele>
        <time>2026-07-19T08:37:02Z</time>
      </trkpt>
      <trkpt lat="45.18568" lon="5.98806">
        <ele>2603.2</ele>
        <time>2026-07-19T08:37:06Z</time>
      </trkpt>
      <trkpt lat="45.18568" lon="5.98807">
        <ele>2603.6</ele>
        <time>2026-07-19T08:37:08Z</time>
      </trkpt>
      <trkpt lat="45.18569" lon="5.98809">
        <ele>2604.4</ele>
        <time>2026-07-19T08:37:12Z</time>
      </trkpt>
      <trkpt lat="45.18567" lon="5.98815">
        <ele>2605.8</ele>
        <time>2026-07-19T08:37:20Z</time>
      </trkpt>
      <trkpt lat="45.18566" lon="5.98817">
        <ele>2607</ele>
        <time>2026-07-19T08:37:23Z</time>
      </trkpt>
      <trkpt lat="45.18566" lon="5.98819">
        <ele>2608.2</ele>
        <time>2026-07-19T08:37:27Z</time>
      </trkpt>
      <trkpt lat="45.18565" lon="5.98822">
        <ele>2609.4</ele>
        <time>2026-07-19T08:37:31Z</time>
      </trkpt>
      <trkpt lat="45.18564" lon="5.98822">
        <ele>2609.8</ele>
        <time>2026-07-19T08:37:33Z</time>
      </trkpt>
      <trkpt lat="45.18566" lon="5.98824">
        <ele>2609.6</ele>
        <time>2026-07-19T08:37:43Z</time>
      </trkpt>
      <trkpt lat="45.18568" lon="5.98827">
        <ele>2610.6</ele>
        <time>2026-07-19T08:37:52Z</time>
      </trkpt>
      <trkpt lat="45.18569" lon="5.98827">
        <ele>2610.8</ele>
        <time>2026-07-19T08:37:54Z</time>
      </trkpt>
      <trkpt lat="45.1857" lon="5.98827">
        <ele>2611.6</ele>
        <time>2026-07-19T08:37:57Z</time>
      </trkpt>
      <trkpt lat="45.18572" lon="5.98829">
        <ele>2612.8</ele>
        <time>2026-07-19T08:38:03Z</time>
      </trkpt>
      <trkpt lat="45.18573" lon="5.98829">
        <ele>2612.8</ele>
        <time>2026-07-19T08:38:06Z</time>
      </trkpt>
      <trkpt lat="45.18573" lon="5.98832">
        <ele>2614</ele>
        <time>2026-07-19T08:38:10Z</time>
      </trkpt>
      <trkpt lat="45.18571" lon="5.98835">
        <ele>2614.6</ele>
        <time>2026-07-19T08:38:15Z</time>
      </trkpt>
      <trkpt lat="45.18571" lon="5.98836">
        <ele>2615.2</ele>
        <time>2026-07-19T08:38:17Z</time>
      </trkpt>
      <trkpt lat="45.18572" lon="5.98839">
        <ele>2616.2</ele>
        <time>2026-07-19T08:38:23Z</time>
      </trkpt>
      <trkpt lat="45.18573" lon="5.98841">
        <ele>2617.6</ele>
        <time>2026-07-19T08:38:26Z</time>
      </trkpt>
      <trkpt lat="45.18572" lon="5.98843">
        <ele>2618.8</ele>
        <time>2026-07-19T08:38:29Z</time>
      </trkpt>
      <trkpt lat="45.1857" lon="5.98845">
        <ele>2620</ele>
        <time>2026-07-19T08:38:32Z</time>
      </trkpt>
      <trkpt lat="45.18569" lon="5.98846">
        <ele>2620.8</ele>
        <time>2026-07-19T08:38:35Z</time>
      </trkpt>
      <trkpt lat="45.18569" lon="5.98847">
        <ele>2621.2</ele>
        <time>2026-07-19T08:38:39Z</time>
      </trkpt>
      <trkpt lat="45.18567" lon="5.9885">
        <ele>2621.4</ele>
        <time>2026-07-19T08:38:44Z</time>
      </trkpt>
      <trkpt lat="45.18566" lon="5.98852">
        <ele>2622.2</ele>
        <time>2026-07-19T08:38:47Z</time>
      </trkpt>
      <trkpt lat="45.18562" lon="5.98854">
        <ele>2623.4</ele>
        <time>2026-07-19T08:38:51Z</time>
      </trkpt>
      <trkpt lat="45.18561" lon="5.98854">
        <ele>2623.6</ele>
        <time>2026-07-19T08:38:52Z</time>
      </trkpt>
      <trkpt lat="45.18559" lon="5.98854">
        <ele>2624.4</ele>
        <time>2026-07-19T08:38:55Z</time>
      </trkpt>
      <trkpt lat="45.18558" lon="5.98854">
        <ele>2624.8</ele>
        <time>2026-07-19T08:38:56Z</time>
      </trkpt>
      <trkpt lat="45.18557" lon="5.98857">
        <ele>2626</ele>
        <time>2026-07-19T08:39:01Z</time>
      </trkpt>
      <trkpt lat="45.18557" lon="5.98859">
        <ele>2627.4</ele>
        <time>2026-07-19T08:39:03Z</time>
      </trkpt>
      <trkpt lat="45.18558" lon="5.9886">
        <ele>2628</ele>
        <time>2026-07-19T08:39:05Z</time>
      </trkpt>
      <trkpt lat="45.18559" lon="5.98862">
        <ele>2628.6</ele>
        <time>2026-07-19T08:39:07Z</time>
      </trkpt>
      <trkpt lat="45.1856" lon="5.98863">
        <ele>2629.8</ele>
        <time>2026-07-19T08:39:10Z</time>
      </trkpt>
      <trkpt lat="45.18561" lon="5.98863">
        <ele>2630.6</ele>
        <time>2026-07-19T08:39:13Z</time>
      </trkpt>
      <trkpt lat="45.18559" lon="5.98865">
        <ele>2630.8</ele>
        <time>2026-07-19T08:39:25Z</time>
      </trkpt>
      <trkpt lat="45.18559" lon="5.98866">
        <ele>2631</ele>
        <time>2026-07-19T08:39:26Z</time>
      </trkpt>
      <trkpt lat="45.18565" lon="5.98869">
        <ele>2632.4</ele>
        <time>2026-07-19T08:39:37Z</time>
      </trkpt>
      <trkpt lat="45.18567" lon="5.9887">
        <ele>2633.8</ele>
        <time>2026-07-19T08:39:40Z</time>
      </trkpt>
      <trkpt lat="45.1857" lon="5.98871">
        <ele>2635</ele>
        <time>2026-07-19T08:39:45Z</time>
      </trkpt>
      <trkpt lat="45.1857" lon="5.98871">
        <ele>2635</ele>
        <time>2026-07-19T08:39:48Z</time>
      </trkpt>
      <trkpt lat="45.18572" lon="5.98871">
        <ele>2636.2</ele>
        <time>2026-07-19T08:39:56Z</time>
      </trkpt>
      <trkpt lat="45.18572" lon="5.9887">
        <ele>2637</ele>
        <time>2026-07-19T08:40:02Z</time>
      </trkpt>
      <trkpt lat="45.18573" lon="5.9887">
        <ele>2637.4</ele>
        <time>2026-07-19T08:40:06Z</time>
      </trkpt>
      <trkpt lat="45.18574" lon="5.98871">
        <ele>2638.4</ele>
        <time>2026-07-19T08:40:16Z</time>
      </trkpt>
      <trkpt lat="45.18574" lon="5.98871">
        <ele>2638.6</ele>
        <time>2026-07-19T08:40:18Z</time>
      </trkpt>
      <trkpt lat="45.18574" lon="5.9887">
        <ele>2639.8</ele>
        <time>2026-07-19T08:40:29Z</time>
      </trkpt>
      <trkpt lat="45.18574" lon="5.9887">
        <ele>2639.8</ele>
        <time>2026-07-19T08:40:31Z</time>
      </trkpt>
      <trkpt lat="45.18577" lon="5.98868">
        <ele>2640.6</ele>
        <time>2026-07-19T08:40:41Z</time>
      </trkpt>
      <trkpt lat="45.18582" lon="5.98867">
        <ele>2640.8</ele>
        <time>2026-07-19T08:40:49Z</time>
      </trkpt>
      <trkpt lat="45.18583" lon="5.98867">
        <ele>2640.2</ele>
        <time>2026-07-19T08:40:58Z</time>
      </trkpt>
      <trkpt lat="45.18585" lon="5.98868">
        <ele>2639.6</ele>
        <time>2026-07-19T08:41:09Z</time>
      </trkpt>
      <trkpt lat="45.18586" lon="5.98865">
        <ele>2638.4</ele>
        <time>2026-07-19T08:41:13Z</time>
      </trkpt>
      <trkpt lat="45.18589" lon="5.98864">
        <ele>2637.8</ele>
        <time>2026-07-19T08:41:17Z</time>
      </trkpt>
      <trkpt lat="45.18591" lon="5.98863">
        <ele>2637.6</ele>
        <time>2026-07-19T08:41:19Z</time>
      </trkpt>
      <trkpt lat="45.18592" lon="5.98864">
        <ele>2637.4</ele>
        <time>2026-07-19T08:41:24Z</time>
      </trkpt>
      <trkpt lat="45.18592" lon="5.98864">
        <ele>2637.2</ele>
        <time>2026-07-19T08:41:25Z</time>
      </trkpt>
      <trkpt lat="45.18594" lon="5.98865">
        <ele>2637</ele>
        <time>2026-07-19T08:41:37Z</time>
      </trkpt>
      <trkpt lat="45.18599" lon="5.98862">
        <ele>2637.6</ele>
        <time>2026-07-19T08:41:43Z</time>
      </trkpt>
      <trkpt lat="45.18601" lon="5.98861">
        <ele>2638.4</ele>
        <time>2026-07-19T08:41:46Z</time>
      </trkpt>
      <trkpt lat="45.18605" lon="5.9886">
        <ele>2639.4</ele>
        <time>2026-07-19T08:41:51Z</time>
      </trkpt>
      <trkpt lat="45.18605" lon="5.98859">
        <ele>2639.6</ele>
        <time>2026-07-19T08:41:52Z</time>
      </trkpt>
      <trkpt lat="45.18607" lon="5.98858">
        <ele>2641</ele>
        <time>2026-07-19T08:41:56Z</time>
      </trkpt>
      <trkpt lat="45.18609" lon="5.98857">
        <ele>2642.2</ele>
        <time>2026-07-19T08:42:01Z</time>
      </trkpt>
      <trkpt lat="45.1861" lon="5.98857">
        <ele>2642.6</ele>
        <time>2026-07-19T08:42:03Z</time>
      </trkpt>
      <trkpt lat="45.18611" lon="5.98857">
        <ele>2643.4</ele>
        <time>2026-07-19T08:42:13Z</time>
      </trkpt>
      <trkpt lat="45.18612" lon="5.98857">
        <ele>2644.6</ele>
        <time>2026-07-19T08:42:16Z</time>
      </trkpt>
      <trkpt lat="45.18614" lon="5.98857">
        <ele>2646.2</ele>
        <time>2026-07-19T08:42:21Z</time>
      </trkpt>
      <trkpt lat="45.18615" lon="5.98857">
        <ele>2646.6</ele>
        <time>2026-07-19T08:42:22Z</time>
      </trkpt>
      <trkpt lat="45.18616" lon="5.98856">
        <ele>2647.6</ele>
        <time>2026-07-19T08:42:27Z</time>
      </trkpt>
      <trkpt lat="45.18618" lon="5.98856">
        <ele>2648.6</ele>
        <time>2026-07-19T08:42:33Z</time>
      </trkpt>
      <trkpt lat="45.18618" lon="5.98856">
        <ele>2648.8</ele>
        <time>2026-07-19T08:42:34Z</time>
      </trkpt>
      <trkpt lat="45.18618" lon="5.98855">
        <ele>2650</ele>
        <time>2026-07-19T08:42:41Z</time>
      </trkpt>
      <trkpt lat="45.18619" lon="5.98855">
        <ele>2650</ele>
        <time>2026-07-19T08:42:46Z</time>
      </trkpt>
      <trkpt lat="45.18621" lon="5.98855">
        <ele>2651.2</ele>
        <time>2026-07-19T08:42:55Z</time>
      </trkpt>
      <trkpt lat="45.18622" lon="5.98855">
        <ele>2651.6</ele>
        <time>2026-07-19T08:42:58Z</time>
      </trkpt>
      <trkpt lat="45.18623" lon="5.98854">
        <ele>2652.4</ele>
        <time>2026-07-19T08:43:01Z</time>
      </trkpt>
      <trkpt lat="45.18624" lon="5.98853">
        <ele>2653</ele>
        <time>2026-07-19T08:43:05Z</time>
      </trkpt>
      <trkpt lat="45.18626" lon="5.98853">
        <ele>2653.6</ele>
        <time>2026-07-19T08:43:09Z</time>
      </trkpt>
      <trkpt lat="45.18628" lon="5.98852">
        <ele>2654.8</ele>
        <time>2026-07-19T08:43:14Z</time>
      </trkpt>
      <trkpt lat="45.18629" lon="5.98852">
        <ele>2655.2</ele>
        <time>2026-07-19T08:43:16Z</time>
      </trkpt>
      <trkpt lat="45.1863" lon="5.9885">
        <ele>2655.8</ele>
        <time>2026-07-19T08:43:23Z</time>
      </trkpt>
      <trkpt lat="45.18631" lon="5.98849">
        <ele>2656.2</ele>
        <time>2026-07-19T08:43:26Z</time>
      </trkpt>
      <trkpt lat="45.18631" lon="5.98847">
        <ele>2657</ele>
        <time>2026-07-19T08:43:30Z</time>
      </trkpt>
      <trkpt lat="45.18633" lon="5.98847">
        <ele>2657.4</ele>
        <time>2026-07-19T08:43:36Z</time>
      </trkpt>
      <trkpt lat="45.18635" lon="5.98848">
        <ele>2658.2</ele>
        <time>2026-07-19T08:43:41Z</time>
      </trkpt>
      <trkpt lat="45.18638" lon="5.98849">
        <ele>2659.2</ele>
        <time>2026-07-19T08:43:49Z</time>
      </trkpt>
      <trkpt lat="45.18638" lon="5.98849">
        <ele>2659.4</ele>
        <time>2026-07-19T08:43:51Z</time>
      </trkpt>
      <trkpt lat="45.1864" lon="5.98849">
        <ele>2660.4</ele>
        <time>2026-07-19T08:43:56Z</time>
      </trkpt>
      <trkpt lat="45.1864" lon="5.98849">
        <ele>2661.2</ele>
        <time>2026-07-19T08:43:58Z</time>
      </trkpt>
      <trkpt lat="45.18641" lon="5.98849">
        <ele>2661.6</ele>
        <time>2026-07-19T08:44:00Z</time>
      </trkpt>
      <trkpt lat="45.18642" lon="5.98848">
        <ele>2662.2</ele>
        <time>2026-07-19T08:44:08Z</time>
      </trkpt>
      <trkpt lat="45.18643" lon="5.98845">
        <ele>2662.8</ele>
        <time>2026-07-19T08:44:12Z</time>
      </trkpt>
      <trkpt lat="45.18645" lon="5.98842">
        <ele>2663.6</ele>
        <time>2026-07-19T08:44:21Z</time>
      </trkpt>
      <trkpt lat="45.18645" lon="5.9884">
        <ele>2664</ele>
        <time>2026-07-19T08:44:24Z</time>
      </trkpt>
      <trkpt lat="45.18644" lon="5.98839">
        <ele>2665</ele>
        <time>2026-07-19T08:44:27Z</time>
      </trkpt>
      <trkpt lat="45.18644" lon="5.98837">
        <ele>2665.4</ele>
        <time>2026-07-19T08:44:31Z</time>
      </trkpt>
      <trkpt lat="45.18645" lon="5.98836">
        <ele>2666.2</ele>
        <time>2026-07-19T08:44:38Z</time>
      </trkpt>
      <trkpt lat="45.18645" lon="5.98838">
        <ele>2666.4</ele>
        <time>2026-07-19T08:44:40Z</time>
      </trkpt>
      <trkpt lat="45.18648" lon="5.98843">
        <ele>2667.4</ele>
        <time>2026-07-19T08:44:50Z</time>
      </trkpt>
      <trkpt lat="45.18651" lon="5.98845">
        <ele>2668.8</ele>
        <time>2026-07-19T08:44:59Z</time>
      </trkpt>
      <trkpt lat="45.18653" lon="5.98846">
        <ele>2670.2</ele>
        <time>2026-07-19T08:45:04Z</time>
      </trkpt>
      <trkpt lat="45.18654" lon="5.98847">
        <ele>2671.6</ele>
        <time>2026-07-19T08:45:07Z</time>
      </trkpt>
      <trkpt lat="45.18654" lon="5.98847">
        <ele>2672.4</ele>
        <time>2026-07-19T08:45:09Z</time>
      </trkpt>
      <trkpt lat="45.18655" lon="5.98846">
        <ele>2672.8</ele>
        <time>2026-07-19T08:45:11Z</time>
      </trkpt>
      <trkpt lat="45.18656" lon="5.98846">
        <ele>2674</ele>
        <time>2026-07-19T08:45:14Z</time>
      </trkpt>
      <trkpt lat="45.18657" lon="5.98846">
        <ele>2675.4</ele>
        <time>2026-07-19T08:45:19Z</time>
      </trkpt>
      <trkpt lat="45.18657" lon="5.98846">
        <ele>2676.2</ele>
        <time>2026-07-19T08:45:21Z</time>
      </trkpt>
      <trkpt lat="45.18657" lon="5.98846">
        <ele>2676.8</ele>
        <time>2026-07-19T08:45:22Z</time>
      </trkpt>
      <trkpt lat="45.18658" lon="5.98847">
        <ele>2678.2</ele>
        <time>2026-07-19T08:45:26Z</time>
      </trkpt>
      <trkpt lat="45.18659" lon="5.98847">
        <ele>2679.4</ele>
        <time>2026-07-19T08:45:29Z</time>
      </trkpt>
      <trkpt lat="45.1866" lon="5.98847">
        <ele>2680.2</ele>
        <time>2026-07-19T08:45:32Z</time>
      </trkpt>
      <trkpt lat="45.18661" lon="5.98846">
        <ele>2680.8</ele>
        <time>2026-07-19T08:45:35Z</time>
      </trkpt>
      <trkpt lat="45.18664" lon="5.98845">
        <ele>2682.2</ele>
        <time>2026-07-19T08:45:41Z</time>
      </trkpt>
      <trkpt lat="45.18664" lon="5.98844">
        <ele>2682.4</ele>
        <time>2026-07-19T08:45:42Z</time>
      </trkpt>
      <trkpt lat="45.18666" lon="5.98844">
        <ele>2683.4</ele>
        <time>2026-07-19T08:45:47Z</time>
      </trkpt>
      <trkpt lat="45.18666" lon="5.98841">
        <ele>2684</ele>
        <time>2026-07-19T08:45:51Z</time>
      </trkpt>
      <trkpt lat="45.18667" lon="5.98836">
        <ele>2684.4</ele>
        <time>2026-07-19T08:45:56Z</time>
      </trkpt>
      <trkpt lat="45.18667" lon="5.98835">
        <ele>2684.6</ele>
        <time>2026-07-19T08:45:57Z</time>
      </trkpt>
      <trkpt lat="45.18667" lon="5.98833">
        <ele>2684.8</ele>
        <time>2026-07-19T08:45:59Z</time>
      </trkpt>
      <trkpt lat="45.18669" lon="5.98832">
        <ele>2685.6</ele>
        <time>2026-07-19T08:46:02Z</time>
      </trkpt>
      <trkpt lat="45.18669" lon="5.98832">
        <ele>2685.8</ele>
        <time>2026-07-19T08:46:03Z</time>
      </trkpt>
      <trkpt lat="45.1867" lon="5.98833">
        <ele>2687.2</ele>
        <time>2026-07-19T08:46:07Z</time>
      </trkpt>
      <trkpt lat="45.18671" lon="5.98833">
        <ele>2688</ele>
        <time>2026-07-19T08:46:09Z</time>
      </trkpt>
      <trkpt lat="45.18671" lon="5.98832">
        <ele>2688.4</ele>
        <time>2026-07-19T08:46:10Z</time>
      </trkpt>
      <trkpt lat="45.18673" lon="5.9883">
        <ele>2689.4</ele>
        <time>2026-07-19T08:46:14Z</time>
      </trkpt>
      <trkpt lat="45.18674" lon="5.98829">
        <ele>2690.6</ele>
        <time>2026-07-19T08:46:18Z</time>
      </trkpt>
      <trkpt lat="45.18675" lon="5.98828">
        <ele>2691.2</ele>
        <time>2026-07-19T08:46:20Z</time>
      </trkpt>
      <trkpt lat="45.18676" lon="5.98827">
        <ele>2691.8</ele>
        <time>2026-07-19T08:46:23Z</time>
      </trkpt>
      <trkpt lat="45.18679" lon="5.98825">
        <ele>2693.2</ele>
        <time>2026-07-19T08:46:28Z</time>
      </trkpt>
      <trkpt lat="45.18681" lon="5.98822">
        <ele>2694.4</ele>
        <time>2026-07-19T08:46:32Z</time>
      </trkpt>
      <trkpt lat="45.18682" lon="5.98822">
        <ele>2694.6</ele>
        <time>2026-07-19T08:46:33Z</time>
      </trkpt>
      <trkpt lat="45.18683" lon="5.98819">
        <ele>2695.6</ele>
        <time>2026-07-19T08:46:37Z</time>
      </trkpt>
      <trkpt lat="45.18685" lon="5.98819">
        <ele>2696.8</ele>
        <time>2026-07-19T08:46:41Z</time>
      </trkpt>
      <trkpt lat="45.18688" lon="5.98817">
        <ele>2697</ele>
        <time>2026-07-19T08:46:49Z</time>
      </trkpt>
      <trkpt lat="45.1869" lon="5.98815">
        <ele>2698</ele>
        <time>2026-07-19T08:46:53Z</time>
      </trkpt>
      <trkpt lat="45.18691" lon="5.98814">
        <ele>2699.2</ele>
        <time>2026-07-19T08:46:58Z</time>
      </trkpt>
      <trkpt lat="45.18693" lon="5.98813">
        <ele>2700.4</ele>
        <time>2026-07-19T08:47:03Z</time>
      </trkpt>
      <trkpt lat="45.18694" lon="5.98813">
        <ele>2701</ele>
        <time>2026-07-19T08:47:06Z</time>
      </trkpt>
      <trkpt lat="45.18694" lon="5.98813">
        <ele>2701.6</ele>
        <time>2026-07-19T08:47:07Z</time>
      </trkpt>
      <trkpt lat="45.18695" lon="5.98812">
        <ele>2702.6</ele>
        <time>2026-07-19T08:47:15Z</time>
      </trkpt>
      <trkpt lat="45.18695" lon="5.98812">
        <ele>2702.8</ele>
        <time>2026-07-19T08:47:17Z</time>
      </trkpt>
      <trkpt lat="45.18696" lon="5.98812">
        <ele>2704.2</ele>
        <time>2026-07-19T08:47:22Z</time>
      </trkpt>
      <trkpt lat="45.18697" lon="5.98812">
        <ele>2704.4</ele>
        <time>2026-07-19T08:47:23Z</time>
      </trkpt>
      <trkpt lat="45.18698" lon="5.98811">
        <ele>2705.8</ele>
        <time>2026-07-19T08:47:28Z</time>
      </trkpt>
      <trkpt lat="45.18701" lon="5.9881">
        <ele>2707</ele>
        <time>2026-07-19T08:47:33Z</time>
      </trkpt>
      <trkpt lat="45.18701" lon="5.98809">
        <ele>2708.4</ele>
        <time>2026-07-19T08:47:39Z</time>
      </trkpt>
      <trkpt lat="45.18701" lon="5.98809">
        <ele>2708.4</ele>
        <time>2026-07-19T08:47:41Z</time>
      </trkpt>
      <trkpt lat="45.18704" lon="5.98807">
        <ele>2709.6</ele>
        <time>2026-07-19T08:47:49Z</time>
      </trkpt>
      <trkpt lat="45.18704" lon="5.98807">
        <ele>2710</ele>
        <time>2026-07-19T08:47:52Z</time>
      </trkpt>
      <trkpt lat="45.18704" lon="5.98807">
        <ele>2710.6</ele>
        <time>2026-07-19T08:47:55Z</time>
      </trkpt>
      <trkpt lat="45.18704" lon="5.98805">
        <ele>2711.8</ele>
        <time>2026-07-19T08:48:02Z</time>
      </trkpt>
      <trkpt lat="45.18705" lon="5.98803">
        <ele>2712.2</ele>
        <time>2026-07-19T08:48:14Z</time>
      </trkpt>
      <trkpt lat="45.18706" lon="5.98802">
        <ele>2712.4</ele>
        <time>2026-07-19T08:48:18Z</time>
      </trkpt>
      <trkpt lat="45.18707" lon="5.98801">
        <ele>2713</ele>
        <time>2026-07-19T08:48:26Z</time>
      </trkpt>
      <trkpt lat="45.18709" lon="5.988">
        <ele>2713.2</ele>
        <time>2026-07-19T08:48:30Z</time>
      </trkpt>
      <trkpt lat="45.18712" lon="5.98796">
        <ele>2714.4</ele>
        <time>2026-07-19T08:48:38Z</time>
      </trkpt>
      <trkpt lat="45.18712" lon="5.98795">
        <ele>2713.8</ele>
        <time>2026-07-19T08:48:49Z</time>
      </trkpt>
      <trkpt lat="45.18715" lon="5.98793">
        <ele>2716</ele>
        <time>2026-07-19T08:48:54Z</time>
      </trkpt>
      <trkpt lat="45.18716" lon="5.98794">
        <ele>2717</ele>
        <time>2026-07-19T08:48:56Z</time>
      </trkpt>
      <trkpt lat="45.18717" lon="5.98794">
        <ele>2717.6</ele>
        <time>2026-07-19T08:48:57Z</time>
      </trkpt>
      <trkpt lat="45.18717" lon="5.98795">
        <ele>2718.6</ele>
        <time>2026-07-19T08:48:59Z</time>
      </trkpt>
      <trkpt lat="45.18717" lon="5.98795">
        <ele>2718.8</ele>
        <time>2026-07-19T08:49:00Z</time>
      </trkpt>
      <trkpt lat="45.18718" lon="5.98795">
        <ele>2720</ele>
        <time>2026-07-19T08:49:03Z</time>
      </trkpt>
      <trkpt lat="45.18719" lon="5.98794">
        <ele>2721.2</ele>
        <time>2026-07-19T08:49:08Z</time>
      </trkpt>
      <trkpt lat="45.1872" lon="5.98793">
        <ele>2721.8</ele>
        <time>2026-07-19T08:49:11Z</time>
      </trkpt>
      <trkpt lat="45.1872" lon="5.98793">
        <ele>2722.4</ele>
        <time>2026-07-19T08:49:13Z</time>
      </trkpt>
      <trkpt lat="45.18722" lon="5.98791">
        <ele>2723.6</ele>
        <time>2026-07-19T08:49:18Z</time>
      </trkpt>
      <trkpt lat="45.18722" lon="5.98791">
        <ele>2723.6</ele>
        <time>2026-07-19T08:49:20Z</time>
      </trkpt>
      <trkpt lat="45.18722" lon="5.98792">
        <ele>2723.4</ele>
        <time>2026-07-19T08:49:31Z</time>
      </trkpt>
      <trkpt lat="45.18722" lon="5.98792">
        <ele>2722.4</ele>
        <time>2026-07-19T08:49:36Z</time>
      </trkpt>
      <trkpt lat="45.18723" lon="5.98792">
        <ele>2722.8</ele>
        <time>2026-07-19T08:49:44Z</time>
      </trkpt>
      <trkpt lat="45.18726" lon="5.9879">
        <ele>2723.6</ele>
        <time>2026-07-19T08:49:54Z</time>
      </trkpt>
      <trkpt lat="45.18726" lon="5.9879">
        <ele>2723.6</ele>
        <time>2026-07-19T08:49:55Z</time>
      </trkpt>
      <trkpt lat="45.18728" lon="5.98788">
        <ele>2724.8</ele>
        <time>2026-07-19T08:49:59Z</time>
      </trkpt>
      <trkpt lat="45.18729" lon="5.98788">
        <ele>2726.4</ele>
        <time>2026-07-19T08:50:03Z</time>
      </trkpt>
      <trkpt lat="45.18729" lon="5.98787">
        <ele>2726.4</ele>
        <time>2026-07-19T08:50:05Z</time>
      </trkpt>
      <trkpt lat="45.18731" lon="5.98788">
        <ele>2727.6</ele>
        <time>2026-07-19T08:50:11Z</time>
      </trkpt>
      <trkpt lat="45.18732" lon="5.98787">
        <ele>2727.8</ele>
        <time>2026-07-19T08:50:15Z</time>
      </trkpt>
      <trkpt lat="45.18731" lon="5.98788">
        <ele>2728.8</ele>
        <time>2026-07-19T08:50:19Z</time>
      </trkpt>
      <trkpt lat="45.18732" lon="5.98787">
        <ele>2729</ele>
        <time>2026-07-19T08:50:24Z</time>
      </trkpt>
      <trkpt lat="45.18734" lon="5.98787">
        <ele>2730</ele>
        <time>2026-07-19T08:50:32Z</time>
      </trkpt>
      <trkpt lat="45.18734" lon="5.98788">
        <ele>2730</ele>
        <time>2026-07-19T08:50:35Z</time>
      </trkpt>
      <trkpt lat="45.18734" lon="5.98788">
        <ele>2731.4</ele>
        <time>2026-07-19T08:50:45Z</time>
      </trkpt>
      <trkpt lat="45.18734" lon="5.98788">
        <ele>2731.4</ele>
        <time>2026-07-19T08:50:46Z</time>
      </trkpt>
      <trkpt lat="45.18735" lon="5.98789">
        <ele>2731.8</ele>
        <time>2026-07-19T08:50:56Z</time>
      </trkpt>
      <trkpt lat="45.18736" lon="5.98789">
        <ele>2732.8</ele>
        <time>2026-07-19T08:50:58Z</time>
      </trkpt>
      <trkpt lat="45.18737" lon="5.98789">
        <ele>2733</ele>
        <time>2026-07-19T08:51:05Z</time>
      </trkpt>
      <trkpt lat="45.18738" lon="5.98788">
        <ele>2733.6</ele>
        <time>2026-07-19T08:51:16Z</time>
      </trkpt>
      <trkpt lat="45.18739" lon="5.98788">
        <ele>2734</ele>
        <time>2026-07-19T08:51:24Z</time>
      </trkpt>
      <trkpt lat="45.18739" lon="5.98788">
        <ele>2734.2</ele>
        <time>2026-07-19T08:51:28Z</time>
      </trkpt>
      <trkpt lat="45.1874" lon="5.98788">
        <ele>2735.2</ele>
        <time>2026-07-19T08:51:34Z</time>
      </trkpt>
      <trkpt lat="45.1874" lon="5.98787">
        <ele>2735.2</ele>
        <time>2026-07-19T08:51:39Z</time>
      </trkpt>
      <trkpt lat="45.18741" lon="5.98787">
        <ele>2736.6</ele>
        <time>2026-07-19T08:51:49Z</time>
      </trkpt>
      <trkpt lat="45.18742" lon="5.98787">
        <ele>2737.8</ele>
        <time>2026-07-19T08:51:59Z</time>
      </trkpt>
      <trkpt lat="45.18742" lon="5.98787">
        <ele>2737.8</ele>
        <time>2026-07-19T08:52:02Z</time>
      </trkpt>
      <trkpt lat="45.18743" lon="5.98787">
        <ele>2738.4</ele>
        <time>2026-07-19T08:52:11Z</time>
      </trkpt>
      <trkpt lat="45.18744" lon="5.98787">
        <ele>2739</ele>
        <time>2026-07-19T08:52:14Z</time>
      </trkpt>
      <trkpt lat="45.18744" lon="5.98787">
        <ele>2739</ele>
        <time>2026-07-19T08:52:20Z</time>
      </trkpt>
      <trkpt lat="45.18744" lon="5.98787">
        <ele>2739</ele>
        <time>2026-07-19T08:52:28Z</time>
      </trkpt>
      <trkpt lat="45.18744" lon="5.98787">
        <ele>2739</ele>
        <time>2026-07-19T08:52:46Z</time>
      </trkpt>
      <trkpt lat="45.18749" lon="5.98784">
        <ele>2739.2</ele>
        <time>2026-07-19T08:53:18Z</time>
      </trkpt>
      <trkpt lat="45.18752" lon="5.98783">
        <ele>2739.6</ele>
        <time>2026-07-19T08:53:36Z</time>
      </trkpt>
      <trkpt lat="45.18753" lon="5.98783">
        <ele>2740</ele>
        <time>2026-07-19T08:53:41Z</time>
      </trkpt>
      <trkpt lat="45.18754" lon="5.98784">
        <ele>2740.2</ele>
        <time>2026-07-19T08:53:44Z</time>
      </trkpt>
      <trkpt lat="45.18755" lon="5.98785">
        <ele>2740.2</ele>
        <time>2026-07-19T08:53:59Z</time>
      </trkpt>
      <trkpt lat="45.18756" lon="5.98786">
        <ele>2739</ele>
        <time>2026-07-19T08:54:09Z</time>
      </trkpt>
      <trkpt lat="45.18756" lon="5.98786">
        <ele>2737.8</ele>
        <time>2026-07-19T08:54:12Z</time>
      </trkpt>
      <trkpt lat="45.18758" lon="5.98786">
        <ele>2736.8</ele>
        <time>2026-07-19T08:54:18Z</time>
      </trkpt>
      <trkpt lat="45.18761" lon="5.98786">
        <ele>2739</ele>
        <time>2026-07-19T08:54:29Z</time>
      </trkpt>
      <trkpt lat="45.18761" lon="5.98786">
        <ele>2739.2</ele>
        <time>2026-07-19T08:54:30Z</time>
      </trkpt>
      <trkpt lat="45.18763" lon="5.98787">
        <ele>2740</ele>
        <time>2026-07-19T08:54:33Z</time>
      </trkpt>
      <trkpt lat="45.18765" lon="5.98786">
        <ele>2741.4</ele>
        <time>2026-07-19T08:54:36Z</time>
      </trkpt>
      <trkpt lat="45.18767" lon="5.98785">
        <ele>2742.6</ele>
        <time>2026-07-19T08:54:40Z</time>
      </trkpt>
      <trkpt lat="45.18767" lon="5.98786">
        <ele>2742.8</ele>
        <time>2026-07-19T08:54:41Z</time>
      </trkpt>
      <trkpt lat="45.18767" lon="5.98786">
        <ele>2744</ele>
        <time>2026-07-19T08:54:44Z</time>
      </trkpt>
      <trkpt lat="45.18767" lon="5.98787">
        <ele>2745.2</ele>
        <time>2026-07-19T08:54:49Z</time>
      </trkpt>
      <trkpt lat="45.18767" lon="5.98786">
        <ele>2745.6</ele>
        <time>2026-07-19T08:54:53Z</time>
      </trkpt>
      <trkpt lat="45.18767" lon="5.98786">
        <ele>2746.4</ele>
        <time>2026-07-19T08:54:59Z</time>
      </trkpt>
      <trkpt lat="45.18768" lon="5.98786">
        <ele>2747.4</ele>
        <time>2026-07-19T08:55:06Z</time>
      </trkpt>
      <trkpt lat="45.18768" lon="5.98786">
        <ele>2747.4</ele>
        <time>2026-07-19T08:55:07Z</time>
      </trkpt>
      <trkpt lat="45.18768" lon="5.98785">
        <ele>2748.6</ele>
        <time>2026-07-19T08:55:15Z</time>
      </trkpt>
      <trkpt lat="45.18768" lon="5.98785">
        <ele>2749.4</ele>
        <time>2026-07-19T08:55:21Z</time>
      </trkpt>
      <trkpt lat="45.18768" lon="5.98784">
        <ele>2749.8</ele>
        <time>2026-07-19T08:55:23Z</time>
      </trkpt>
      <trkpt lat="45.1877" lon="5.98782">
        <ele>2751</ele>
        <time>2026-07-19T08:55:30Z</time>
      </trkpt>
      <trkpt lat="45.1877" lon="5.98781">
        <ele>2751.4</ele>
        <time>2026-07-19T08:55:32Z</time>
      </trkpt>
      <trkpt lat="45.18771" lon="5.98782">
        <ele>2752</ele>
        <time>2026-07-19T08:55:34Z</time>
      </trkpt>
      <trkpt lat="45.18771" lon="5.98782">
        <ele>2753.2</ele>
        <time>2026-07-19T08:55:40Z</time>
      </trkpt>
      <trkpt lat="45.18772" lon="5.98781">
        <ele>2754</ele>
        <time>2026-07-19T08:55:43Z</time>
      </trkpt>
      <trkpt lat="45.18773" lon="5.9878">
        <ele>2754.6</ele>
        <time>2026-07-19T08:55:46Z</time>
      </trkpt>
      <trkpt lat="45.18774" lon="5.98779">
        <ele>2756</ele>
        <time>2026-07-19T08:55:49Z</time>
      </trkpt>
      <trkpt lat="45.18775" lon="5.98779">
        <ele>2757.2</ele>
        <time>2026-07-19T08:55:56Z</time>
      </trkpt>
      <trkpt lat="45.18775" lon="5.98778">
        <ele>2758.6</ele>
        <time>2026-07-19T08:56:01Z</time>
      </trkpt>
      <trkpt lat="45.18776" lon="5.98778">
        <ele>2758.8</ele>
        <time>2026-07-19T08:56:03Z</time>
      </trkpt>
      <trkpt lat="45.18776" lon="5.98778">
        <ele>2759.8</ele>
        <time>2026-07-19T08:56:08Z</time>
      </trkpt>
      <trkpt lat="45.18778" lon="5.98777">
        <ele>2760.8</ele>
        <time>2026-07-19T08:56:14Z</time>
      </trkpt>
      <trkpt lat="45.18778" lon="5.98777">
        <ele>2761</ele>
        <time>2026-07-19T08:56:15Z</time>
      </trkpt>
      <trkpt lat="45.1878" lon="5.98778">
        <ele>2762</ele>
        <time>2026-07-19T08:56:24Z</time>
      </trkpt>
      <trkpt lat="45.1878" lon="5.98777">
        <ele>2762.2</ele>
        <time>2026-07-19T08:56:26Z</time>
      </trkpt>
      <trkpt lat="45.18782" lon="5.98777">
        <ele>2763.4</ele>
        <time>2026-07-19T08:56:30Z</time>
      </trkpt>
      <trkpt lat="45.18784" lon="5.98779">
        <ele>2763.8</ele>
        <time>2026-07-19T08:56:39Z</time>
      </trkpt>
      <trkpt lat="45.18786" lon="5.98779">
        <ele>2764.6</ele>
        <time>2026-07-19T08:56:43Z</time>
      </trkpt>
      <trkpt lat="45.18786" lon="5.98779">
        <ele>2764.6</ele>
        <time>2026-07-19T08:56:44Z</time>
      </trkpt>
      <trkpt lat="45.18787" lon="5.98779">
        <ele>2765.2</ele>
        <time>2026-07-19T08:56:49Z</time>
      </trkpt>
      <trkpt lat="45.18788" lon="5.9878">
        <ele>2765.8</ele>
        <time>2026-07-19T08:56:54Z</time>
      </trkpt>
      <trkpt lat="45.18789" lon="5.98779">
        <ele>2766.4</ele>
        <time>2026-07-19T08:56:57Z</time>
      </trkpt>
      <trkpt lat="45.18791" lon="5.98779">
        <ele>2767</ele>
        <time>2026-07-19T08:56:59Z</time>
      </trkpt>
      <trkpt lat="45.18791" lon="5.98779">
        <ele>2768.2</ele>
        <time>2026-07-19T08:57:01Z</time>
      </trkpt>
      <trkpt lat="45.18792" lon="5.98779">
        <ele>2768.6</ele>
        <time>2026-07-19T08:57:02Z</time>
      </trkpt>
      <trkpt lat="45.18793" lon="5.98779">
        <ele>2768.6</ele>
        <time>2026-07-19T08:57:14Z</time>
      </trkpt>
      <trkpt lat="45.18794" lon="5.9878">
        <ele>2768.6</ele>
        <time>2026-07-19T08:57:25Z</time>
      </trkpt>
      <trkpt lat="45.18794" lon="5.9878">
        <ele>2769.4</ele>
        <time>2026-07-19T08:57:31Z</time>
      </trkpt>
      <trkpt lat="45.18795" lon="5.9878">
        <ele>2769.8</ele>
        <time>2026-07-19T08:57:36Z</time>
      </trkpt>
      <trkpt lat="45.18795" lon="5.98779">
        <ele>2770.4</ele>
        <time>2026-07-19T08:57:41Z</time>
      </trkpt>
      <trkpt lat="45.18798" lon="5.98779">
        <ele>2771.4</ele>
        <time>2026-07-19T08:57:45Z</time>
      </trkpt>
      <trkpt lat="45.18799" lon="5.98779">
        <ele>2771.6</ele>
        <time>2026-07-19T08:57:46Z</time>
      </trkpt>
      <trkpt lat="45.18799" lon="5.98779">
        <ele>2771.6</ele>
        <time>2026-07-19T08:57:47Z</time>
      </trkpt>
      <trkpt lat="45.18801" lon="5.98778">
        <ele>2772.8</ele>
        <time>2026-07-19T08:57:52Z</time>
      </trkpt>
      <trkpt lat="45.18803" lon="5.98777">
        <ele>2773.2</ele>
        <time>2026-07-19T08:57:55Z</time>
      </trkpt>
      <trkpt lat="45.18804" lon="5.98777">
        <ele>2773.8</ele>
        <time>2026-07-19T08:57:57Z</time>
      </trkpt>
      <trkpt lat="45.18805" lon="5.98777">
        <ele>2774</ele>
        <time>2026-07-19T08:57:58Z</time>
      </trkpt>
      <trkpt lat="45.18805" lon="5.98777">
        <ele>2774</ele>
        <time>2026-07-19T08:58:01Z</time>
      </trkpt>
      <trkpt lat="45.18806" lon="5.98777">
        <ele>2774.6</ele>
        <time>2026-07-19T08:58:06Z</time>
      </trkpt>
      <trkpt lat="45.18807" lon="5.98777">
        <ele>2775</ele>
        <time>2026-07-19T08:58:09Z</time>
      </trkpt>
      <trkpt lat="45.18808" lon="5.98778">
        <ele>2774.2</ele>
        <time>2026-07-19T08:58:12Z</time>
      </trkpt>
      <trkpt lat="45.18808" lon="5.98778">
        <ele>2774</ele>
        <time>2026-07-19T08:58:13Z</time>
      </trkpt>
      <trkpt lat="45.18811" lon="5.98778">
        <ele>2773.6</ele>
        <time>2026-07-19T08:58:16Z</time>
      </trkpt>
      <trkpt lat="45.18811" lon="5.98778">
        <ele>2774.8</ele>
        <time>2026-07-19T08:58:18Z</time>
      </trkpt>
      <trkpt lat="45.18811" lon="5.98779">
        <ele>2775</ele>
        <time>2026-07-19T08:58:19Z</time>
      </trkpt>
      <trkpt lat="45.18811" lon="5.98779">
        <ele>2775.4</ele>
        <time>2026-07-19T08:58:20Z</time>
      </trkpt>
      <trkpt lat="45.18813" lon="5.9878">
        <ele>2776.2</ele>
        <time>2026-07-19T08:58:24Z</time>
      </trkpt>
      <trkpt lat="45.18813" lon="5.98781">
        <ele>2777</ele>
        <time>2026-07-19T08:58:27Z</time>
      </trkpt>
      <trkpt lat="45.18813" lon="5.98781">
        <ele>2776.6</ele>
        <time>2026-07-19T08:58:45Z</time>
      </trkpt>
      <trkpt lat="45.18815" lon="5.98782">
        <ele>2775.6</ele>
        <time>2026-07-19T08:58:53Z</time>
      </trkpt>
      <trkpt lat="45.18817" lon="5.98785">
        <ele>2775.4</ele>
        <time>2026-07-19T08:58:58Z</time>
      </trkpt>
      <trkpt lat="45.18818" lon="5.98787">
        <ele>2775.4</ele>
        <time>2026-07-19T08:59:00Z</time>
      </trkpt>
      <trkpt lat="45.18818" lon="5.98788">
        <ele>2775.8</ele>
        <time>2026-07-19T08:59:02Z</time>
      </trkpt>
      <trkpt lat="45.18819" lon="5.98788">
        <ele>2775.8</ele>
        <time>2026-07-19T08:59:04Z</time>
      </trkpt>
      <trkpt lat="45.18821" lon="5.9879">
        <ele>2777.2</ele>
        <time>2026-07-19T08:59:10Z</time>
      </trkpt>
      <trkpt lat="45.18822" lon="5.98791">
        <ele>2777.4</ele>
        <time>2026-07-19T08:59:11Z</time>
      </trkpt>
      <trkpt lat="45.18823" lon="5.98793">
        <ele>2778.8</ele>
        <time>2026-07-19T08:59:17Z</time>
      </trkpt>
      <trkpt lat="45.18825" lon="5.98795">
        <ele>2779.2</ele>
        <time>2026-07-19T08:59:20Z</time>
      </trkpt>
      <trkpt lat="45.18824" lon="5.98796">
        <ele>2778</ele>
        <time>2026-07-19T08:59:29Z</time>
      </trkpt>
      <trkpt lat="45.18824" lon="5.98796">
        <ele>2778</ele>
        <time>2026-07-19T08:59:43Z</time>
      </trkpt>
      <trkpt lat="45.18823" lon="5.98794">
        <ele>2778</ele>
        <time>2026-07-19T09:00:28Z</time>
      </trkpt>
      <trkpt lat="45.18823" lon="5.98794">
        <ele>2777.6</ele>
        <time>2026-07-19T09:01:01Z</time>
      </trkpt>
      <trkpt lat="45.18823" lon="5.98793">
        <ele>2776.4</ele>
        <time>2026-07-19T09:01:09Z</time>
      </trkpt>
      <trkpt lat="45.18822" lon="5.98793">
        <ele>2776.2</ele>
        <time>2026-07-19T09:01:12Z</time>
      </trkpt>
      <trkpt lat="45.18821" lon="5.98792">
        <ele>2775.4</ele>
        <time>2026-07-19T09:01:19Z</time>
      </trkpt>
      <trkpt lat="45.1882" lon="5.9879">
        <ele>2775</ele>
        <time>2026-07-19T09:01:24Z</time>
      </trkpt>
      <trkpt lat="45.18815" lon="5.98784">
        <ele>2775.8</ele>
        <time>2026-07-19T09:01:34Z</time>
      </trkpt>
      <trkpt lat="45.18815" lon="5.98783">
        <ele>2776.4</ele>
        <time>2026-07-19T09:01:37Z</time>
      </trkpt>
      <trkpt lat="45.18814" lon="5.98783">
        <ele>2777</ele>
        <time>2026-07-19T09:01:44Z</time>
      </trkpt>
      <trkpt lat="45.18814" lon="5.98783">
        <ele>2777.4</ele>
        <time>2026-07-19T09:02:00Z</time>
      </trkpt>
      <trkpt lat="45.18814" lon="5.98784">
        <ele>2777.4</ele>
        <time>2026-07-19T09:02:18Z</time>
      </trkpt>
      <trkpt lat="45.18814" lon="5.98784">
        <ele>2777.6</ele>
        <time>2026-07-19T09:02:20Z</time>
      </trkpt>
      <trkpt lat="45.18814" lon="5.98784">
        <ele>2777.8</ele>
        <time>2026-07-19T09:02:34Z</time>
      </trkpt>
      <trkpt lat="45.18815" lon="5.98784">
        <ele>2777.4</ele>
        <time>2026-07-19T09:02:48Z</time>
      </trkpt>
      <trkpt lat="45.18813" lon="5.98783">
        <ele>2777</ele>
        <time>2026-07-19T09:03:33Z</time>
      </trkpt>
      <trkpt lat="45.1881" lon="5.98781">
        <ele>2776.8</ele>
        <time>2026-07-19T09:04:00Z</time>
      </trkpt>
      <trkpt lat="45.1881" lon="5.98781">
        <ele>2776.8</ele>
        <time>2026-07-19T09:05:25Z</time>
      </trkpt>
      <trkpt lat="45.1881" lon="5.9878">
        <ele>2776.4</ele>
        <time>2026-07-19T09:05:49Z</time>
      </trkpt>
      <trkpt lat="45.18812" lon="5.98779">
        <ele>2776.2</ele>
        <time>2026-07-19T09:05:51Z</time>
      </trkpt>
      <trkpt lat="45.18811" lon="5.9878">
        <ele>2776</ele>
        <time>2026-07-19T09:05:59Z</time>
      </trkpt>
      <trkpt lat="45.18812" lon="5.98779">
        <ele>2776</ele>
        <time>2026-07-19T09:06:08Z</time>
      </trkpt>
      <trkpt lat="45.18811" lon="5.98779">
        <ele>2775.4</ele>
        <time>2026-07-19T09:06:18Z</time>
      </trkpt>
      <trkpt lat="45.18811" lon="5.98779">
        <ele>2775.4</ele>
        <time>2026-07-19T09:06:19Z</time>
      </trkpt>
      <trkpt lat="45.18809" lon="5.98779">
        <ele>2775.4</ele>
        <time>2026-07-19T09:06:28Z</time>
      </trkpt>
      <trkpt lat="45.18809" lon="5.98777">
        <ele>2774.8</ele>
        <time>2026-07-19T09:06:38Z</time>
      </trkpt>
      <trkpt lat="45.18808" lon="5.98777">
        <ele>2774.4</ele>
        <time>2026-07-19T09:06:47Z</time>
      </trkpt>
      <trkpt lat="45.18808" lon="5.98777">
        <ele>2774.2</ele>
        <time>2026-07-19T09:06:48Z</time>
      </trkpt>
      <trkpt lat="45.18809" lon="5.98776">
        <ele>2773</ele>
        <time>2026-07-19T09:06:50Z</time>
      </trkpt>
      <trkpt lat="45.18808" lon="5.98776">
        <ele>2773.4</ele>
        <time>2026-07-19T09:06:55Z</time>
      </trkpt>
      <trkpt lat="45.18807" lon="5.98776">
        <ele>2772.4</ele>
        <time>2026-07-19T09:07:08Z</time>
      </trkpt>
      <trkpt lat="45.18808" lon="5.98777">
        <ele>2771.8</ele>
        <time>2026-07-19T09:07:16Z</time>
      </trkpt>
      <trkpt lat="45.18808" lon="5.98776">
        <ele>2772</ele>
        <time>2026-07-19T09:07:17Z</time>
      </trkpt>
      <trkpt lat="45.18807" lon="5.98776">
        <ele>2771.2</ele>
        <time>2026-07-19T09:07:25Z</time>
      </trkpt>
      <trkpt lat="45.18807" lon="5.98775">
        <ele>2772</ele>
        <time>2026-07-19T09:07:32Z</time>
      </trkpt>
      <trkpt lat="45.18807" lon="5.98776">
        <ele>2771.2</ele>
        <time>2026-07-19T09:07:41Z</time>
      </trkpt>
      <trkpt lat="45.18807" lon="5.98773">
        <ele>2771</ele>
        <time>2026-07-19T09:07:53Z</time>
      </trkpt>
      <trkpt lat="45.18807" lon="5.98772">
        <ele>2770.8</ele>
        <time>2026-07-19T09:07:55Z</time>
      </trkpt>
      <trkpt lat="45.18806" lon="5.9877">
        <ele>2769.8</ele>
        <time>2026-07-19T09:08:04Z</time>
      </trkpt>
      <trkpt lat="45.18806" lon="5.9877">
        <ele>2769.6</ele>
        <time>2026-07-19T09:08:06Z</time>
      </trkpt>
      <trkpt lat="45.18807" lon="5.98769">
        <ele>2768.2</ele>
        <time>2026-07-19T09:08:15Z</time>
      </trkpt>
      <trkpt lat="45.18807" lon="5.98769">
        <ele>2767.2</ele>
        <time>2026-07-19T09:08:17Z</time>
      </trkpt>
      <trkpt lat="45.18807" lon="5.9877">
        <ele>2767</ele>
        <time>2026-07-19T09:08:18Z</time>
      </trkpt>
      <trkpt lat="45.18807" lon="5.98769">
        <ele>2765.8</ele>
        <time>2026-07-19T09:08:21Z</time>
      </trkpt>
      <trkpt lat="45.18807" lon="5.9877">
        <ele>2764.8</ele>
        <time>2026-07-19T09:08:27Z</time>
      </trkpt>
      <trkpt lat="45.18807" lon="5.9877">
        <ele>2764.2</ele>
        <time>2026-07-19T09:08:30Z</time>
      </trkpt>
      <trkpt lat="45.18808" lon="5.9877">
        <ele>2763.6</ele>
        <time>2026-07-19T09:08:33Z</time>
      </trkpt>
      <trkpt lat="45.18808" lon="5.98771">
        <ele>2762.4</ele>
        <time>2026-07-19T09:08:41Z</time>
      </trkpt>
      <trkpt lat="45.18808" lon="5.98771">
        <ele>2762</ele>
        <time>2026-07-19T09:08:45Z</time>
      </trkpt>
      <trkpt lat="45.18808" lon="5.98771">
        <ele>2761.4</ele>
        <time>2026-07-19T09:08:57Z</time>
      </trkpt>
      <trkpt lat="45.18808" lon="5.9877">
        <ele>2761.2</ele>
        <time>2026-07-19T09:08:58Z</time>
      </trkpt>
      <trkpt lat="45.18808" lon="5.9877">
        <ele>2760.2</ele>
        <time>2026-07-19T09:09:06Z</time>
      </trkpt>
      <trkpt lat="45.18808" lon="5.9877">
        <ele>2758.8</ele>
        <time>2026-07-19T09:09:09Z</time>
      </trkpt>
      <trkpt lat="45.18808" lon="5.9877">
        <ele>2757.6</ele>
        <time>2026-07-19T09:09:13Z</time>
      </trkpt>
      <trkpt lat="45.18808" lon="5.9877">
        <ele>2757</ele>
        <time>2026-07-19T09:09:20Z</time>
      </trkpt>
      <trkpt lat="45.18809" lon="5.9877">
        <ele>2756.4</ele>
        <time>2026-07-19T09:09:25Z</time>
      </trkpt>
      <trkpt lat="45.18809" lon="5.9877">
        <ele>2755.4</ele>
        <time>2026-07-19T09:09:34Z</time>
      </trkpt>
      <trkpt lat="45.1881" lon="5.9877">
        <ele>2755.2</ele>
        <time>2026-07-19T09:09:40Z</time>
      </trkpt>
      <trkpt lat="45.1881" lon="5.98769">
        <ele>2754.2</ele>
        <time>2026-07-19T09:09:47Z</time>
      </trkpt>
      <trkpt lat="45.1881" lon="5.98769">
        <ele>2753.8</ele>
        <time>2026-07-19T09:09:50Z</time>
      </trkpt>
      <trkpt lat="45.1881" lon="5.98769">
        <ele>2753</ele>
        <time>2026-07-19T09:10:01Z</time>
      </trkpt>
      <trkpt lat="45.1881" lon="5.98769">
        <ele>2752.6</ele>
        <time>2026-07-19T09:10:04Z</time>
      </trkpt>
      <trkpt lat="45.18808" lon="5.98769">
        <ele>2754</ele>
        <time>2026-07-19T09:10:15Z</time>
      </trkpt>
      <trkpt lat="45.18808" lon="5.98769">
        <ele>2754.2</ele>
        <time>2026-07-19T09:10:19Z</time>
      </trkpt>
      <trkpt lat="45.1881" lon="5.98767">
        <ele>2755.2</ele>
        <time>2026-07-19T09:10:24Z</time>
      </trkpt>
      <trkpt lat="45.18809" lon="5.98766">
        <ele>2756.2</ele>
        <time>2026-07-19T09:10:26Z</time>
      </trkpt>
      <trkpt lat="45.18809" lon="5.98766">
        <ele>2756.4</ele>
        <time>2026-07-19T09:10:27Z</time>
      </trkpt>
      <trkpt lat="45.18809" lon="5.98764">
        <ele>2756.8</ele>
        <time>2026-07-19T09:10:39Z</time>
      </trkpt>
      <trkpt lat="45.18809" lon="5.98764">
        <ele>2756</ele>
        <time>2026-07-19T09:10:52Z</time>
      </trkpt>
      <trkpt lat="45.18809" lon="5.98764">
        <ele>2755</ele>
        <time>2026-07-19T09:10:53Z</time>
      </trkpt>
      <trkpt lat="45.18811" lon="5.98763">
        <ele>2755.2</ele>
        <time>2026-07-19T09:11:00Z</time>
      </trkpt>
      <trkpt lat="45.18812" lon="5.98763">
        <ele>2754.4</ele>
        <time>2026-07-19T09:11:14Z</time>
      </trkpt>
      <trkpt lat="45.18812" lon="5.98761">
        <ele>2755.2</ele>
        <time>2026-07-19T09:11:26Z</time>
      </trkpt>
      <trkpt lat="45.18813" lon="5.9876">
        <ele>2755.8</ele>
        <time>2026-07-19T09:11:41Z</time>
      </trkpt>
      <trkpt lat="45.18813" lon="5.98759">
        <ele>2756.2</ele>
        <time>2026-07-19T09:11:49Z</time>
      </trkpt>
      <trkpt lat="45.18812" lon="5.98757">
        <ele>2755.6</ele>
        <time>2026-07-19T09:11:54Z</time>
      </trkpt>
      <trkpt lat="45.18812" lon="5.98757">
        <ele>2755</ele>
        <time>2026-07-19T09:11:57Z</time>
      </trkpt>
      <trkpt lat="45.18811" lon="5.98759">
        <ele>2753.8</ele>
        <time>2026-07-19T09:12:09Z</time>
      </trkpt>
      <trkpt lat="45.18811" lon="5.98759">
        <ele>2753.8</ele>
        <time>2026-07-19T09:12:11Z</time>
      </trkpt>
      <trkpt lat="45.18809" lon="5.98758">
        <ele>2752.8</ele>
        <time>2026-07-19T09:12:21Z</time>
      </trkpt>
      <trkpt lat="45.18809" lon="5.98758">
        <ele>2753</ele>
        <time>2026-07-19T09:12:26Z</time>
      </trkpt>
      <trkpt lat="45.18809" lon="5.98756">
        <ele>2752.2</ele>
        <time>2026-07-19T09:12:39Z</time>
      </trkpt>
      <trkpt lat="45.1881" lon="5.98757">
        <ele>2751.6</ele>
        <time>2026-07-19T09:12:44Z</time>
      </trkpt>
      <trkpt lat="45.1881" lon="5.98757">
        <ele>2750.4</ele>
        <time>2026-07-19T09:12:49Z</time>
      </trkpt>
      <trkpt lat="45.1881" lon="5.98756">
        <ele>2750.4</ele>
        <time>2026-07-19T09:12:52Z</time>
      </trkpt>
      <trkpt lat="45.18811" lon="5.98754">
        <ele>2750</ele>
        <time>2026-07-19T09:13:05Z</time>
      </trkpt>
      <trkpt lat="45.18811" lon="5.98754">
        <ele>2749.2</ele>
        <time>2026-07-19T09:13:14Z</time>
      </trkpt>
      <trkpt lat="45.18811" lon="5.98754">
        <ele>2749</ele>
        <time>2026-07-19T09:13:18Z</time>
      </trkpt>
      <trkpt lat="45.18811" lon="5.98755">
        <ele>2748.2</ele>
        <time>2026-07-19T09:13:27Z</time>
      </trkpt>
      <trkpt lat="45.18812" lon="5.98754">
        <ele>2748.2</ele>
        <time>2026-07-19T09:13:31Z</time>
      </trkpt>
      <trkpt lat="45.18813" lon="5.98754">
        <ele>2747.8</ele>
        <time>2026-07-19T09:13:45Z</time>
      </trkpt>
      <trkpt lat="45.18814" lon="5.98753">
        <ele>2746.8</ele>
        <time>2026-07-19T09:13:54Z</time>
      </trkpt>
      <trkpt lat="45.18814" lon="5.98753">
        <ele>2746.6</ele>
        <time>2026-07-19T09:13:55Z</time>
      </trkpt>
      <trkpt lat="45.18814" lon="5.98753">
        <ele>2745.4</ele>
        <time>2026-07-19T09:14:01Z</time>
      </trkpt>
      <trkpt lat="45.18814" lon="5.98752">
        <ele>2746.2</ele>
        <time>2026-07-19T09:14:09Z</time>
      </trkpt>
      <trkpt lat="45.18813" lon="5.98752">
        <ele>2746.8</ele>
        <time>2026-07-19T09:14:17Z</time>
      </trkpt>
      <trkpt lat="45.18813" lon="5.9875">
        <ele>2747</ele>
        <time>2026-07-19T09:14:20Z</time>
      </trkpt>
      <trkpt lat="45.18812" lon="5.98752">
        <ele>2747</ele>
        <time>2026-07-19T09:14:34Z</time>
      </trkpt>
      <trkpt lat="45.18813" lon="5.98752">
        <ele>2746</ele>
        <time>2026-07-19T09:14:49Z</time>
      </trkpt>
      <trkpt lat="45.18813" lon="5.9875">
        <ele>2746.6</ele>
        <time>2026-07-19T09:15:02Z</time>
      </trkpt>
      <trkpt lat="45.18814" lon="5.98749">
        <ele>2746.8</ele>
        <time>2026-07-19T09:15:10Z</time>
      </trkpt>
      <trkpt lat="45.18815" lon="5.98748">
        <ele>2747.4</ele>
        <time>2026-07-19T09:15:29Z</time>
      </trkpt>
      <trkpt lat="45.18815" lon="5.98747">
        <ele>2747.4</ele>
        <time>2026-07-19T09:15:43Z</time>
      </trkpt>
      <trkpt lat="45.18816" lon="5.98744">
        <ele>2747</ele>
        <time>2026-07-19T09:15:55Z</time>
      </trkpt>
      <trkpt lat="45.18815" lon="5.98744">
        <ele>2747.6</ele>
        <time>2026-07-19T09:16:06Z</time>
      </trkpt>
      <trkpt lat="45.18814" lon="5.98742">
        <ele>2746.2</ele>
        <time>2026-07-19T09:16:20Z</time>
      </trkpt>
      <trkpt lat="45.18815" lon="5.98743">
        <ele>2745.4</ele>
        <time>2026-07-19T09:16:25Z</time>
      </trkpt>
      <trkpt lat="45.18815" lon="5.98743">
        <ele>2745</ele>
        <time>2026-07-19T09:16:33Z</time>
      </trkpt>
      <trkpt lat="45.18815" lon="5.98742">
        <ele>2744.2</ele>
        <time>2026-07-19T09:16:37Z</time>
      </trkpt>
      <trkpt lat="45.18816" lon="5.98741">
        <ele>2743.2</ele>
        <time>2026-07-19T09:16:41Z</time>
      </trkpt>
      <trkpt lat="45.18816" lon="5.98741">
        <ele>2742.8</ele>
        <time>2026-07-19T09:16:44Z</time>
      </trkpt>
      <trkpt lat="45.18816" lon="5.98743">
        <ele>2741.8</ele>
        <time>2026-07-19T09:16:47Z</time>
      </trkpt>
      <trkpt lat="45.18818" lon="5.98743">
        <ele>2741.4</ele>
        <time>2026-07-19T09:16:53Z</time>
      </trkpt>
      <trkpt lat="45.18819" lon="5.98742">
        <ele>2740.6</ele>
        <time>2026-07-19T09:17:00Z</time>
      </trkpt>
      <trkpt lat="45.1882" lon="5.98741">
        <ele>2739.6</ele>
        <time>2026-07-19T09:17:06Z</time>
      </trkpt>
      <trkpt lat="45.1882" lon="5.98741">
        <ele>2739.4</ele>
        <time>2026-07-19T09:17:07Z</time>
      </trkpt>
      <trkpt lat="45.1882" lon="5.98741">
        <ele>2738.2</ele>
        <time>2026-07-19T09:17:18Z</time>
      </trkpt>
      <trkpt lat="45.1882" lon="5.98741">
        <ele>2738.8</ele>
        <time>2026-07-19T09:17:31Z</time>
      </trkpt>
      <trkpt lat="45.18819" lon="5.9874">
        <ele>2739.4</ele>
        <time>2026-07-19T09:17:34Z</time>
      </trkpt>
      <trkpt lat="45.18818" lon="5.98739">
        <ele>2739.6</ele>
        <time>2026-07-19T09:17:46Z</time>
      </trkpt>
      <trkpt lat="45.18818" lon="5.98737">
        <ele>2740</ele>
        <time>2026-07-19T09:18:00Z</time>
      </trkpt>
      <trkpt lat="45.18818" lon="5.98737">
        <ele>2739.4</ele>
        <time>2026-07-19T09:18:13Z</time>
      </trkpt>
      <trkpt lat="45.18817" lon="5.98738">
        <ele>2740.6</ele>
        <time>2026-07-19T09:18:23Z</time>
      </trkpt>
      <trkpt lat="45.18816" lon="5.98738">
        <ele>2741.2</ele>
        <time>2026-07-19T09:18:29Z</time>
      </trkpt>
      <trkpt lat="45.18816" lon="5.98736">
        <ele>2741.8</ele>
        <time>2026-07-19T09:18:39Z</time>
      </trkpt>
      <trkpt lat="45.18815" lon="5.98736">
        <ele>2741.6</ele>
        <time>2026-07-19T09:18:45Z</time>
      </trkpt>
      <trkpt lat="45.18815" lon="5.98734">
        <ele>2741.4</ele>
        <time>2026-07-19T09:19:01Z</time>
      </trkpt>
      <trkpt lat="45.18814" lon="5.98732">
        <ele>2741.2</ele>
        <time>2026-07-19T09:19:16Z</time>
      </trkpt>
      <trkpt lat="45.18815" lon="5.98729">
        <ele>2740.6</ele>
        <time>2026-07-19T09:19:21Z</time>
      </trkpt>
      <trkpt lat="45.18815" lon="5.98729">
        <ele>2739.8</ele>
        <time>2026-07-19T09:19:28Z</time>
      </trkpt>
      <trkpt lat="45.18815" lon="5.98729">
        <ele>2739.4</ele>
        <time>2026-07-19T09:19:35Z</time>
      </trkpt>
      <trkpt lat="45.18815" lon="5.98729">
        <ele>2739.2</ele>
        <time>2026-07-19T09:19:44Z</time>
      </trkpt>
      <trkpt lat="45.18815" lon="5.98728">
        <ele>2739.4</ele>
        <time>2026-07-19T09:19:59Z</time>
      </trkpt>
      <trkpt lat="45.18815" lon="5.98727">
        <ele>2739.4</ele>
        <time>2026-07-19T09:20:25Z</time>
      </trkpt>
      <trkpt lat="45.18817" lon="5.98725">
        <ele>2739</ele>
        <time>2026-07-19T09:20:46Z</time>
      </trkpt>
      <trkpt lat="45.18817" lon="5.98725">
        <ele>2738.2</ele>
        <time>2026-07-19T09:20:48Z</time>
      </trkpt>
      <trkpt lat="45.18818" lon="5.98722">
        <ele>2738</ele>
        <time>2026-07-19T09:20:54Z</time>
      </trkpt>
      <trkpt lat="45.18818" lon="5.98721">
        <ele>2737.2</ele>
        <time>2026-07-19T09:21:03Z</time>
      </trkpt>
      <trkpt lat="45.18818" lon="5.98721">
        <ele>2736.8</ele>
        <time>2026-07-19T09:21:06Z</time>
      </trkpt>
      <trkpt lat="45.18819" lon="5.98721">
        <ele>2736</ele>
        <time>2026-07-19T09:21:11Z</time>
      </trkpt>
      <trkpt lat="45.1882" lon="5.98721">
        <ele>2734.8</ele>
        <time>2026-07-19T09:21:14Z</time>
      </trkpt>
      <trkpt lat="45.1882" lon="5.98721">
        <ele>2734.6</ele>
        <time>2026-07-19T09:21:17Z</time>
      </trkpt>
      <trkpt lat="45.18821" lon="5.98721">
        <ele>2733.4</ele>
        <time>2026-07-19T09:21:20Z</time>
      </trkpt>
      <trkpt lat="45.18822" lon="5.98721">
        <ele>2732.2</ele>
        <time>2026-07-19T09:21:24Z</time>
      </trkpt>
      <trkpt lat="45.18821" lon="5.98721">
        <ele>2731.4</ele>
        <time>2026-07-19T09:21:31Z</time>
      </trkpt>
      <trkpt lat="45.18821" lon="5.98717">
        <ele>2731.2</ele>
        <time>2026-07-19T09:21:45Z</time>
      </trkpt>
      <trkpt lat="45.1882" lon="5.98717">
        <ele>2730.8</ele>
        <time>2026-07-19T09:21:47Z</time>
      </trkpt>
      <trkpt lat="45.18821" lon="5.98716">
        <ele>2730</ele>
        <time>2026-07-19T09:21:50Z</time>
      </trkpt>
      <trkpt lat="45.18822" lon="5.98715">
        <ele>2729.6</ele>
        <time>2026-07-19T09:22:01Z</time>
      </trkpt>
      <trkpt lat="45.18821" lon="5.98715">
        <ele>2731.4</ele>
        <time>2026-07-19T09:22:03Z</time>
      </trkpt>
      <trkpt lat="45.1882" lon="5.98715">
        <ele>2732.6</ele>
        <time>2026-07-19T09:22:05Z</time>
      </trkpt>
      <trkpt lat="45.1882" lon="5.98715">
        <ele>2733.6</ele>
        <time>2026-07-19T09:22:09Z</time>
      </trkpt>
      <trkpt lat="45.1882" lon="5.98714">
        <ele>2734</ele>
        <time>2026-07-19T09:22:12Z</time>
      </trkpt>
      <trkpt lat="45.18821" lon="5.9871">
        <ele>2734.6</ele>
        <time>2026-07-19T09:22:24Z</time>
      </trkpt>
      <trkpt lat="45.18821" lon="5.9871">
        <ele>2734.8</ele>
        <time>2026-07-19T09:22:28Z</time>
      </trkpt>
      <trkpt lat="45.18821" lon="5.9871">
        <ele>2735.4</ele>
        <time>2026-07-19T09:22:36Z</time>
      </trkpt>
      <trkpt lat="45.18822" lon="5.98709">
        <ele>2736</ele>
        <time>2026-07-19T09:22:43Z</time>
      </trkpt>
      <trkpt lat="45.18822" lon="5.9871">
        <ele>2736.4</ele>
        <time>2026-07-19T09:22:47Z</time>
      </trkpt>
      <trkpt lat="45.18822" lon="5.98709">
        <ele>2737.2</ele>
        <time>2026-07-19T09:22:54Z</time>
      </trkpt>
      <trkpt lat="45.18822" lon="5.98708">
        <ele>2737.8</ele>
        <time>2026-07-19T09:23:03Z</time>
      </trkpt>
      <trkpt lat="45.18822" lon="5.98708">
        <ele>2738.2</ele>
        <time>2026-07-19T09:23:06Z</time>
      </trkpt>
      <trkpt lat="45.18822" lon="5.98706">
        <ele>2739.2</ele>
        <time>2026-07-19T09:23:16Z</time>
      </trkpt>
      <trkpt lat="45.18822" lon="5.98706">
        <ele>2739.4</ele>
        <time>2026-07-19T09:23:19Z</time>
      </trkpt>
      <trkpt lat="45.18822" lon="5.98707">
        <ele>2740.2</ele>
        <time>2026-07-19T09:23:31Z</time>
      </trkpt>
      <trkpt lat="45.18823" lon="5.98707">
        <ele>2740.6</ele>
        <time>2026-07-19T09:23:40Z</time>
      </trkpt>
      <trkpt lat="45.18823" lon="5.98706">
        <ele>2741</ele>
        <time>2026-07-19T09:23:42Z</time>
      </trkpt>
      <trkpt lat="45.18822" lon="5.98702">
        <ele>2741</ele>
        <time>2026-07-19T09:23:53Z</time>
      </trkpt>
      <trkpt lat="45.18824" lon="5.98702">
        <ele>2740.2</ele>
        <time>2026-07-19T09:24:07Z</time>
      </trkpt>
      <trkpt lat="45.18825" lon="5.98699">
        <ele>2740.2</ele>
        <time>2026-07-19T09:24:18Z</time>
      </trkpt>
      <trkpt lat="45.18824" lon="5.987">
        <ele>2740.8</ele>
        <time>2026-07-19T09:24:26Z</time>
      </trkpt>
      <trkpt lat="45.18824" lon="5.98698">
        <ele>2740.8</ele>
        <time>2026-07-19T09:24:42Z</time>
      </trkpt>
      <trkpt lat="45.18824" lon="5.98696">
        <ele>2740.4</ele>
        <time>2026-07-19T09:25:01Z</time>
      </trkpt>
      <trkpt lat="45.18825" lon="5.98697">
        <ele>2739.4</ele>
        <time>2026-07-19T09:25:09Z</time>
      </trkpt>
      <trkpt lat="45.18826" lon="5.98696">
        <ele>2738.8</ele>
        <time>2026-07-19T09:25:16Z</time>
      </trkpt>
      <trkpt lat="45.18825" lon="5.98698">
        <ele>2738.2</ele>
        <time>2026-07-19T09:25:20Z</time>
      </trkpt>
      <trkpt lat="45.18825" lon="5.98698">
        <ele>2738.2</ele>
        <time>2026-07-19T09:25:24Z</time>
      </trkpt>
      <trkpt lat="45.18826" lon="5.98698">
        <ele>2738</ele>
        <time>2026-07-19T09:25:37Z</time>
      </trkpt>
      <trkpt lat="45.18825" lon="5.98698">
        <ele>2737.2</ele>
        <time>2026-07-19T09:25:41Z</time>
      </trkpt>
      <trkpt lat="45.18825" lon="5.98699">
        <ele>2736.2</ele>
        <time>2026-07-19T09:25:44Z</time>
      </trkpt>
      <trkpt lat="45.18826" lon="5.98698">
        <ele>2736</ele>
        <time>2026-07-19T09:25:45Z</time>
      </trkpt>
      <trkpt lat="45.18826" lon="5.98699">
        <ele>2734.8</ele>
        <time>2026-07-19T09:25:51Z</time>
      </trkpt>
      <trkpt lat="45.18826" lon="5.98699">
        <ele>2733.6</ele>
        <time>2026-07-19T09:25:57Z</time>
      </trkpt>
      <trkpt lat="45.18826" lon="5.98699">
        <ele>2732.6</ele>
        <time>2026-07-19T09:26:04Z</time>
      </trkpt>
      <trkpt lat="45.18826" lon="5.98698">
        <ele>2731.4</ele>
        <time>2026-07-19T09:26:11Z</time>
      </trkpt>
      <trkpt lat="45.18826" lon="5.98699">
        <ele>2731.2</ele>
        <time>2026-07-19T09:26:12Z</time>
      </trkpt>
      <trkpt lat="45.18826" lon="5.98698">
        <ele>2730.2</ele>
        <time>2026-07-19T09:26:18Z</time>
      </trkpt>
      <trkpt lat="45.18826" lon="5.98698">
        <ele>2729</ele>
        <time>2026-07-19T09:26:24Z</time>
      </trkpt>
      <trkpt lat="45.18826" lon="5.98698">
        <ele>2729</ele>
        <time>2026-07-19T09:26:25Z</time>
      </trkpt>
      <trkpt lat="45.18827" lon="5.98699">
        <ele>2728</ele>
        <time>2026-07-19T09:26:35Z</time>
      </trkpt>
      <trkpt lat="45.18826" lon="5.98698">
        <ele>2728</ele>
        <time>2026-07-19T09:26:39Z</time>
      </trkpt>
      <trkpt lat="45.18826" lon="5.98697">
        <ele>2727.8</ele>
        <time>2026-07-19T09:26:52Z</time>
      </trkpt>
      <trkpt lat="45.18825" lon="5.98696">
        <ele>2729</ele>
        <time>2026-07-19T09:27:05Z</time>
      </trkpt>
      <trkpt lat="45.18825" lon="5.98696">
        <ele>2729.2</ele>
        <time>2026-07-19T09:27:09Z</time>
      </trkpt>
      <trkpt lat="45.18826" lon="5.98696">
        <ele>2730.2</ele>
        <time>2026-07-19T09:27:16Z</time>
      </trkpt>
      <trkpt lat="45.18827" lon="5.98693">
        <ele>2731.4</ele>
        <time>2026-07-19T09:27:21Z</time>
      </trkpt>
      <trkpt lat="45.18829" lon="5.98693">
        <ele>2731.6</ele>
        <time>2026-07-19T09:27:29Z</time>
      </trkpt>
      <trkpt lat="45.18828" lon="5.98695">
        <ele>2731</ele>
        <time>2026-07-19T09:27:42Z</time>
      </trkpt>
      <trkpt lat="45.18827" lon="5.98696">
        <ele>2730.6</ele>
        <time>2026-07-19T09:27:57Z</time>
      </trkpt>
      <trkpt lat="45.18829" lon="5.98693">
        <ele>2730.4</ele>
        <time>2026-07-19T09:28:13Z</time>
      </trkpt>
      <trkpt lat="45.18828" lon="5.98693">
        <ele>2730.2</ele>
        <time>2026-07-19T09:28:15Z</time>
      </trkpt>
      <trkpt lat="45.18826" lon="5.98693">
        <ele>2729.2</ele>
        <time>2026-07-19T09:28:27Z</time>
      </trkpt>
      <trkpt lat="45.18826" lon="5.98692">
        <ele>2729</ele>
        <time>2026-07-19T09:28:28Z</time>
      </trkpt>
      <trkpt lat="45.18826" lon="5.98692">
        <ele>2728</ele>
        <time>2026-07-19T09:28:36Z</time>
      </trkpt>
      <trkpt lat="45.18825" lon="5.98691">
        <ele>2728</ele>
        <time>2026-07-19T09:28:41Z</time>
      </trkpt>
      <trkpt lat="45.18825" lon="5.98689">
        <ele>2728.6</ele>
        <time>2026-07-19T09:28:50Z</time>
      </trkpt>
      <trkpt lat="45.18825" lon="5.98686">
        <ele>2729</ele>
        <time>2026-07-19T09:28:54Z</time>
      </trkpt>
      <trkpt lat="45.18825" lon="5.98683">
        <ele>2730</ele>
        <time>2026-07-19T09:28:58Z</time>
      </trkpt>
      <trkpt lat="45.18826" lon="5.98682">
        <ele>2730</ele>
        <time>2026-07-19T09:28:59Z</time>
      </trkpt>
      <trkpt lat="45.18826" lon="5.98682">
        <ele>2730.4</ele>
        <time>2026-07-19T09:29:01Z</time>
      </trkpt>
      <trkpt lat="45.18827" lon="5.98683">
        <ele>2730.4</ele>
        <time>2026-07-19T09:29:08Z</time>
      </trkpt>
      <trkpt lat="45.18827" lon="5.98682">
        <ele>2730.4</ele>
        <time>2026-07-19T09:29:21Z</time>
      </trkpt>
      <trkpt lat="45.18827" lon="5.98681">
        <ele>2729.2</ele>
        <time>2026-07-19T09:29:28Z</time>
      </trkpt>
      <trkpt lat="45.18827" lon="5.98681">
        <ele>2729.2</ele>
        <time>2026-07-19T09:29:29Z</time>
      </trkpt>
      <trkpt lat="45.18827" lon="5.98681">
        <ele>2729</ele>
        <time>2026-07-19T09:29:39Z</time>
      </trkpt>
      <trkpt lat="45.18828" lon="5.9868">
        <ele>2727.8</ele>
        <time>2026-07-19T09:29:45Z</time>
      </trkpt>
      <trkpt lat="45.18828" lon="5.98679">
        <ele>2727.8</ele>
        <time>2026-07-19T09:29:51Z</time>
      </trkpt>
      <trkpt lat="45.18829" lon="5.98678">
        <ele>2728.4</ele>
        <time>2026-07-19T09:29:59Z</time>
      </trkpt>
      <trkpt lat="45.18828" lon="5.98679">
        <ele>2728.4</ele>
        <time>2026-07-19T09:30:06Z</time>
      </trkpt>
      <trkpt lat="45.18829" lon="5.98677">
        <ele>2728.4</ele>
        <time>2026-07-19T09:30:12Z</time>
      </trkpt>
      <trkpt lat="45.1883" lon="5.98675">
        <ele>2728.4</ele>
        <time>2026-07-19T09:30:16Z</time>
      </trkpt>
      <trkpt lat="45.18832" lon="5.98671">
        <ele>2728.8</ele>
        <time>2026-07-19T09:30:25Z</time>
      </trkpt>
      <trkpt lat="45.18832" lon="5.98671">
        <ele>2729</ele>
        <time>2026-07-19T09:30:27Z</time>
      </trkpt>
      <trkpt lat="45.18832" lon="5.98671">
        <ele>2729.2</ele>
        <time>2026-07-19T09:30:38Z</time>
      </trkpt>
      <trkpt lat="45.18832" lon="5.98671">
        <ele>2729</ele>
        <time>2026-07-19T09:30:46Z</time>
      </trkpt>
      <trkpt lat="45.18831" lon="5.9867">
        <ele>2728.8</ele>
        <time>2026-07-19T09:30:55Z</time>
      </trkpt>
      <trkpt lat="45.1883" lon="5.98666">
        <ele>2728.4</ele>
        <time>2026-07-19T09:31:06Z</time>
      </trkpt>
      <trkpt lat="45.18831" lon="5.98666">
        <ele>2728.2</ele>
        <time>2026-07-19T09:31:22Z</time>
      </trkpt>
      <trkpt lat="45.1883" lon="5.98664">
        <ele>2728</ele>
        <time>2026-07-19T09:31:27Z</time>
      </trkpt>
      <trkpt lat="45.18829" lon="5.98664">
        <ele>2727.8</ele>
        <time>2026-07-19T09:31:30Z</time>
      </trkpt>
      <trkpt lat="45.18829" lon="5.98663">
        <ele>2727</ele>
        <time>2026-07-19T09:31:39Z</time>
      </trkpt>
      <trkpt lat="45.18828" lon="5.98663">
        <ele>2726.8</ele>
        <time>2026-07-19T09:31:40Z</time>
      </trkpt>
      <trkpt lat="45.18828" lon="5.98662">
        <ele>2725.4</ele>
        <time>2026-07-19T09:31:48Z</time>
      </trkpt>
      <trkpt lat="45.18827" lon="5.98662">
        <ele>2725</ele>
        <time>2026-07-19T09:31:50Z</time>
      </trkpt>
      <trkpt lat="45.18827" lon="5.9866">
        <ele>2725.2</ele>
        <time>2026-07-19T09:31:59Z</time>
      </trkpt>
      <trkpt lat="45.18827" lon="5.98659">
        <ele>2724</ele>
        <time>2026-07-19T09:32:02Z</time>
      </trkpt>
      <trkpt lat="45.18828" lon="5.98656">
        <ele>2722.8</ele>
        <time>2026-07-19T09:32:06Z</time>
      </trkpt>
      <trkpt lat="45.18828" lon="5.98656">
        <ele>2722.8</ele>
        <time>2026-07-19T09:32:07Z</time>
      </trkpt>
      <trkpt lat="45.18829" lon="5.98657">
        <ele>2721</ele>
        <time>2026-07-19T09:32:09Z</time>
      </trkpt>
      <trkpt lat="45.18828" lon="5.98655">
        <ele>2719.8</ele>
        <time>2026-07-19T09:32:12Z</time>
      </trkpt>
      <trkpt lat="45.18828" lon="5.98655">
        <ele>2719.2</ele>
        <time>2026-07-19T09:32:14Z</time>
      </trkpt>
      <trkpt lat="45.18828" lon="5.98655">
        <ele>2718.8</ele>
        <time>2026-07-19T09:32:15Z</time>
      </trkpt>
      <trkpt lat="45.18829" lon="5.98653">
        <ele>2717.6</ele>
        <time>2026-07-19T09:32:19Z</time>
      </trkpt>
      <trkpt lat="45.18829" lon="5.98653">
        <ele>2717.4</ele>
        <time>2026-07-19T09:32:20Z</time>
      </trkpt>
      <trkpt lat="45.18829" lon="5.98653">
        <ele>2716.4</ele>
        <time>2026-07-19T09:32:24Z</time>
      </trkpt>
      <trkpt lat="45.18829" lon="5.98651">
        <ele>2715.6</ele>
        <time>2026-07-19T09:32:27Z</time>
      </trkpt>
      <trkpt lat="45.1883" lon="5.9865">
        <ele>2715</ele>
        <time>2026-07-19T09:32:29Z</time>
      </trkpt>
      <trkpt lat="45.18833" lon="5.98648">
        <ele>2713.8</ele>
        <time>2026-07-19T09:32:33Z</time>
      </trkpt>
      <trkpt lat="45.18833" lon="5.98647">
        <ele>2713.6</ele>
        <time>2026-07-19T09:32:34Z</time>
      </trkpt>
      <trkpt lat="45.18833" lon="5.98646">
        <ele>2713.4</ele>
        <time>2026-07-19T09:32:35Z</time>
      </trkpt>
      <trkpt lat="45.18835" lon="5.98642">
        <ele>2714.6</ele>
        <time>2026-07-19T09:32:41Z</time>
      </trkpt>
      <trkpt lat="45.18835" lon="5.98641">
        <ele>2715</ele>
        <time>2026-07-19T09:32:42Z</time>
      </trkpt>
      <trkpt lat="45.18835" lon="5.98641">
        <ele>2715</ele>
        <time>2026-07-19T09:32:43Z</time>
      </trkpt>
      <trkpt lat="45.18833" lon="5.9864">
        <ele>2714.6</ele>
        <time>2026-07-19T09:32:46Z</time>
      </trkpt>
      <trkpt lat="45.18833" lon="5.98635">
        <ele>2713.8</ele>
        <time>2026-07-19T09:32:50Z</time>
      </trkpt>
      <trkpt lat="45.18834" lon="5.98634">
        <ele>2713.2</ele>
        <time>2026-07-19T09:32:52Z</time>
      </trkpt>
      <trkpt lat="45.18835" lon="5.98634">
        <ele>2712.8</ele>
        <time>2026-07-19T09:32:53Z</time>
      </trkpt>
      <trkpt lat="45.18834" lon="5.98632">
        <ele>2711.2</ele>
        <time>2026-07-19T09:32:56Z</time>
      </trkpt>
      <trkpt lat="45.18833" lon="5.9863">
        <ele>2710.8</ele>
        <time>2026-07-19T09:32:58Z</time>
      </trkpt>
      <trkpt lat="45.18833" lon="5.98628">
        <ele>2710</ele>
        <time>2026-07-19T09:33:00Z</time>
      </trkpt>
      <trkpt lat="45.18832" lon="5.98626">
        <ele>2709</ele>
        <time>2026-07-19T09:33:02Z</time>
      </trkpt>
      <trkpt lat="45.18832" lon="5.98625">
        <ele>2708.4</ele>
        <time>2026-07-19T09:33:03Z</time>
      </trkpt>
      <trkpt lat="45.18833" lon="5.98623">
        <ele>2707.6</ele>
        <time>2026-07-19T09:33:05Z</time>
      </trkpt>
      <trkpt lat="45.18833" lon="5.98621">
        <ele>2707.2</ele>
        <time>2026-07-19T09:33:07Z</time>
      </trkpt>
      <trkpt lat="45.18834" lon="5.98619">
        <ele>2706.2</ele>
        <time>2026-07-19T09:33:10Z</time>
      </trkpt>
      <trkpt lat="45.18833" lon="5.98618">
        <ele>2706</ele>
        <time>2026-07-19T09:33:11Z</time>
      </trkpt>
      <trkpt lat="45.18833" lon="5.98618">
        <ele>2705.6</ele>
        <time>2026-07-19T09:33:12Z</time>
      </trkpt>
      <trkpt lat="45.18832" lon="5.98616">
        <ele>2704.6</ele>
        <time>2026-07-19T09:33:14Z</time>
      </trkpt>
      <trkpt lat="45.18831" lon="5.98614">
        <ele>2703.2</ele>
        <time>2026-07-19T09:33:17Z</time>
      </trkpt>
      <trkpt lat="45.1883" lon="5.98613">
        <ele>2702.8</ele>
        <time>2026-07-19T09:33:18Z</time>
      </trkpt>
      <trkpt lat="45.1883" lon="5.98612">
        <ele>2702.4</ele>
        <time>2026-07-19T09:33:19Z</time>
      </trkpt>
      <trkpt lat="45.18829" lon="5.98611">
        <ele>2702</ele>
        <time>2026-07-19T09:33:20Z</time>
      </trkpt>
      <trkpt lat="45.18829" lon="5.98611">
        <ele>2702</ele>
        <time>2026-07-19T09:33:21Z</time>
      </trkpt>
      <trkpt lat="45.18828" lon="5.9861">
        <ele>2700.6</ele>
        <time>2026-07-19T09:33:26Z</time>
      </trkpt>
      <trkpt lat="45.18827" lon="5.98609">
        <ele>2698.8</ele>
        <time>2026-07-19T09:33:29Z</time>
      </trkpt>
      <trkpt lat="45.18825" lon="5.98607">
        <ele>2697.6</ele>
        <time>2026-07-19T09:33:31Z</time>
      </trkpt>
      <trkpt lat="45.18825" lon="5.98605">
        <ele>2696.4</ele>
        <time>2026-07-19T09:33:32Z</time>
      </trkpt>
      <trkpt lat="45.18826" lon="5.98602">
        <ele>2695.4</ele>
        <time>2026-07-19T09:33:35Z</time>
      </trkpt>
      <trkpt lat="45.18826" lon="5.986">
        <ele>2695</ele>
        <time>2026-07-19T09:33:36Z</time>
      </trkpt>
      <trkpt lat="45.18826" lon="5.98595">
        <ele>2693.8</ele>
        <time>2026-07-19T09:33:40Z</time>
      </trkpt>
      <trkpt lat="45.18827" lon="5.98593">
        <ele>2693</ele>
        <time>2026-07-19T09:33:43Z</time>
      </trkpt>
      <trkpt lat="45.18827" lon="5.98594">
        <ele>2692.6</ele>
        <time>2026-07-19T09:33:44Z</time>
      </trkpt>
      <trkpt lat="45.18827" lon="5.98594">
        <ele>2691.6</ele>
        <time>2026-07-19T09:33:47Z</time>
      </trkpt>
      <trkpt lat="45.18828" lon="5.98594">
        <ele>2690.4</ele>
        <time>2026-07-19T09:33:55Z</time>
      </trkpt>
      <trkpt lat="45.18828" lon="5.98593">
        <ele>2690.2</ele>
        <time>2026-07-19T09:33:56Z</time>
      </trkpt>
      <trkpt lat="45.18828" lon="5.98591">
        <ele>2689</ele>
        <time>2026-07-19T09:34:03Z</time>
      </trkpt>
      <trkpt lat="45.18828" lon="5.98589">
        <ele>2688.8</ele>
        <time>2026-07-19T09:34:06Z</time>
      </trkpt>
      <trkpt lat="45.18827" lon="5.98589">
        <ele>2687.8</ele>
        <time>2026-07-19T09:34:10Z</time>
      </trkpt>
      <trkpt lat="45.18826" lon="5.98586">
        <ele>2686.6</ele>
        <time>2026-07-19T09:34:13Z</time>
      </trkpt>
      <trkpt lat="45.18826" lon="5.98585">
        <ele>2686.2</ele>
        <time>2026-07-19T09:34:14Z</time>
      </trkpt>
      <trkpt lat="45.18826" lon="5.98583">
        <ele>2685.4</ele>
        <time>2026-07-19T09:34:17Z</time>
      </trkpt>
      <trkpt lat="45.18824" lon="5.9858">
        <ele>2684.4</ele>
        <time>2026-07-19T09:34:21Z</time>
      </trkpt>
      <trkpt lat="45.18824" lon="5.9858">
        <ele>2684</ele>
        <time>2026-07-19T09:34:22Z</time>
      </trkpt>
      <trkpt lat="45.18821" lon="5.98578">
        <ele>2683</ele>
        <time>2026-07-19T09:34:25Z</time>
      </trkpt>
      <trkpt lat="45.18819" lon="5.98576">
        <ele>2682.6</ele>
        <time>2026-07-19T09:34:27Z</time>
      </trkpt>
      <trkpt lat="45.18815" lon="5.98572">
        <ele>2681</ele>
        <time>2026-07-19T09:34:31Z</time>
      </trkpt>
      <trkpt lat="45.18816" lon="5.9857">
        <ele>2679.6</ele>
        <time>2026-07-19T09:34:33Z</time>
      </trkpt>
      <trkpt lat="45.18817" lon="5.98568">
        <ele>2678.6</ele>
        <time>2026-07-19T09:34:35Z</time>
      </trkpt>
      <trkpt lat="45.18817" lon="5.98567">
        <ele>2678</ele>
        <time>2026-07-19T09:34:36Z</time>
      </trkpt>
      <trkpt lat="45.18818" lon="5.98564">
        <ele>2677</ele>
        <time>2026-07-19T09:34:38Z</time>
      </trkpt>
      <trkpt lat="45.18818" lon="5.98562">
        <ele>2676.4</ele>
        <time>2026-07-19T09:34:39Z</time>
      </trkpt>
      <trkpt lat="45.18819" lon="5.9856">
        <ele>2675.2</ele>
        <time>2026-07-19T09:34:41Z</time>
      </trkpt>
      <trkpt lat="45.18821" lon="5.98558">
        <ele>2673.8</ele>
        <time>2026-07-19T09:34:44Z</time>
      </trkpt>
      <trkpt lat="45.18822" lon="5.98556">
        <ele>2672.8</ele>
        <time>2026-07-19T09:34:46Z</time>
      </trkpt>
      <trkpt lat="45.18821" lon="5.98555">
        <ele>2672.4</ele>
        <time>2026-07-19T09:34:47Z</time>
      </trkpt>
      <trkpt lat="45.18821" lon="5.98554">
        <ele>2672</ele>
        <time>2026-07-19T09:34:48Z</time>
      </trkpt>
      <trkpt lat="45.18821" lon="5.98552">
        <ele>2671.2</ele>
        <time>2026-07-19T09:34:50Z</time>
      </trkpt>
      <trkpt lat="45.1882" lon="5.9855">
        <ele>2670.8</ele>
        <time>2026-07-19T09:34:52Z</time>
      </trkpt>
      <trkpt lat="45.18818" lon="5.98547">
        <ele>2670</ele>
        <time>2026-07-19T09:34:55Z</time>
      </trkpt>
      <trkpt lat="45.18818" lon="5.98547">
        <ele>2669.8</ele>
        <time>2026-07-19T09:34:56Z</time>
      </trkpt>
      <trkpt lat="45.18815" lon="5.98541">
        <ele>2668.8</ele>
        <time>2026-07-19T09:35:04Z</time>
      </trkpt>
      <trkpt lat="45.18813" lon="5.98538">
        <ele>2667.4</ele>
        <time>2026-07-19T09:35:08Z</time>
      </trkpt>
      <trkpt lat="45.18812" lon="5.98537">
        <ele>2667</ele>
        <time>2026-07-19T09:35:09Z</time>
      </trkpt>
      <trkpt lat="45.18811" lon="5.98535">
        <ele>2666.2</ele>
        <time>2026-07-19T09:35:11Z</time>
      </trkpt>
      <trkpt lat="45.18812" lon="5.98531">
        <ele>2664.8</ele>
        <time>2026-07-19T09:35:15Z</time>
      </trkpt>
      <trkpt lat="45.18811" lon="5.98528">
        <ele>2663.4</ele>
        <time>2026-07-19T09:35:18Z</time>
      </trkpt>
      <trkpt lat="45.18809" lon="5.98523">
        <ele>2661.8</ele>
        <time>2026-07-19T09:35:21Z</time>
      </trkpt>
      <trkpt lat="45.1881" lon="5.98516">
        <ele>2660.8</ele>
        <time>2026-07-19T09:35:24Z</time>
      </trkpt>
      <trkpt lat="45.18809" lon="5.98512">
        <ele>2660</ele>
        <time>2026-07-19T09:35:27Z</time>
      </trkpt>
      <trkpt lat="45.18807" lon="5.98511">
        <ele>2660.2</ele>
        <time>2026-07-19T09:35:29Z</time>
      </trkpt>
      <trkpt lat="45.18803" lon="5.98507">
        <ele>2660.2</ele>
        <time>2026-07-19T09:35:34Z</time>
      </trkpt>
      <trkpt lat="45.18796" lon="5.98502">
        <ele>2660.2</ele>
        <time>2026-07-19T09:35:41Z</time>
      </trkpt>
      <trkpt lat="45.18796" lon="5.98501">
        <ele>2660.2</ele>
        <time>2026-07-19T09:35:44Z</time>
      </trkpt>
      <trkpt lat="45.18796" lon="5.98501">
        <ele>2660.2</ele>
        <time>2026-07-19T09:35:50Z</time>
      </trkpt>
      <trkpt lat="45.18792" lon="5.98493">
        <ele>2660.4</ele>
        <time>2026-07-19T09:35:58Z</time>
      </trkpt>
      <trkpt lat="45.18791" lon="5.98491">
        <ele>2660.4</ele>
        <time>2026-07-19T09:35:59Z</time>
      </trkpt>
      <trkpt lat="45.1879" lon="5.98483">
        <ele>2661</ele>
        <time>2026-07-19T09:36:03Z</time>
      </trkpt>
      <trkpt lat="45.1879" lon="5.98481">
        <ele>2661.2</ele>
        <time>2026-07-19T09:36:04Z</time>
      </trkpt>
      <trkpt lat="45.18791" lon="5.9848">
        <ele>2661.8</ele>
        <time>2026-07-19T09:36:05Z</time>
      </trkpt>
      <trkpt lat="45.18791" lon="5.98479">
        <ele>2662.6</ele>
        <time>2026-07-19T09:36:06Z</time>
      </trkpt>
      <trkpt lat="45.18791" lon="5.98476">
        <ele>2663.4</ele>
        <time>2026-07-19T09:36:08Z</time>
      </trkpt>
      <trkpt lat="45.1879" lon="5.98472">
        <ele>2663.8</ele>
        <time>2026-07-19T09:36:10Z</time>
      </trkpt>
      <trkpt lat="45.18789" lon="5.98467">
        <ele>2664.4</ele>
        <time>2026-07-19T09:36:13Z</time>
      </trkpt>
      <trkpt lat="45.18789" lon="5.98465">
        <ele>2664.6</ele>
        <time>2026-07-19T09:36:14Z</time>
      </trkpt>
      <trkpt lat="45.18789" lon="5.98463">
        <ele>2664.8</ele>
        <time>2026-07-19T09:36:15Z</time>
      </trkpt>
      <trkpt lat="45.18789" lon="5.98462">
        <ele>2664.8</ele>
        <time>2026-07-19T09:36:16Z</time>
      </trkpt>
      <trkpt lat="45.18786" lon="5.98458">
        <ele>2665.8</ele>
        <time>2026-07-19T09:36:19Z</time>
      </trkpt>
      <trkpt lat="45.18786" lon="5.98456">
        <ele>2665.8</ele>
        <time>2026-07-19T09:36:20Z</time>
      </trkpt>
      <trkpt lat="45.18784" lon="5.98451">
        <ele>2666.4</ele>
        <time>2026-07-19T09:36:26Z</time>
      </trkpt>
      <trkpt lat="45.18785" lon="5.98452">
        <ele>2664.6</ele>
        <time>2026-07-19T09:36:30Z</time>
      </trkpt>
      <trkpt lat="45.18785" lon="5.98448">
        <ele>2663.2</ele>
        <time>2026-07-19T09:36:33Z</time>
      </trkpt>
      <trkpt lat="45.18786" lon="5.98446">
        <ele>2662.8</ele>
        <time>2026-07-19T09:36:34Z</time>
      </trkpt>
      <trkpt lat="45.18787" lon="5.98442">
        <ele>2662</ele>
        <time>2026-07-19T09:36:36Z</time>
      </trkpt>
      <trkpt lat="45.18789" lon="5.98436">
        <ele>2660.8</ele>
        <time>2026-07-19T09:36:39Z</time>
      </trkpt>
      <trkpt lat="45.1879" lon="5.9843">
        <ele>2660.4</ele>
        <time>2026-07-19T09:36:42Z</time>
      </trkpt>
      <trkpt lat="45.1879" lon="5.98423">
        <ele>2659.8</ele>
        <time>2026-07-19T09:36:45Z</time>
      </trkpt>
      <trkpt lat="45.1879" lon="5.98416">
        <ele>2659</ele>
        <time>2026-07-19T09:36:48Z</time>
      </trkpt>
      <trkpt lat="45.18793" lon="5.98404">
        <ele>2659.2</ele>
        <time>2026-07-19T09:36:54Z</time>
      </trkpt>
      <trkpt lat="45.18793" lon="5.98392">
        <ele>2658.8</ele>
        <time>2026-07-19T09:37:00Z</time>
      </trkpt>
      <trkpt lat="45.18793" lon="5.98382">
        <ele>2658.4</ele>
        <time>2026-07-19T09:37:05Z</time>
      </trkpt>
      <trkpt lat="45.18794" lon="5.98381">
        <ele>2658.2</ele>
        <time>2026-07-19T09:37:06Z</time>
      </trkpt>
      <trkpt lat="45.18795" lon="5.98379">
        <ele>2657.2</ele>
        <time>2026-07-19T09:37:08Z</time>
      </trkpt>
      <trkpt lat="45.18796" lon="5.98376">
        <ele>2656</ele>
        <time>2026-07-19T09:37:11Z</time>
      </trkpt>
      <trkpt lat="45.18797" lon="5.98373">
        <ele>2655.2</ele>
        <time>2026-07-19T09:37:14Z</time>
      </trkpt>
      <trkpt lat="45.18797" lon="5.98372">
        <ele>2654.8</ele>
        <time>2026-07-19T09:37:15Z</time>
      </trkpt>
      <trkpt lat="45.18797" lon="5.98371">
        <ele>2654.2</ele>
        <time>2026-07-19T09:37:16Z</time>
      </trkpt>
      <trkpt lat="45.18797" lon="5.98369">
        <ele>2653.6</ele>
        <time>2026-07-19T09:37:17Z</time>
      </trkpt>
      <trkpt lat="45.18797" lon="5.98365">
        <ele>2652.6</ele>
        <time>2026-07-19T09:37:20Z</time>
      </trkpt>
      <trkpt lat="45.18796" lon="5.98363">
        <ele>2652.2</ele>
        <time>2026-07-19T09:37:21Z</time>
      </trkpt>
      <trkpt lat="45.18796" lon="5.98357">
        <ele>2651.4</ele>
        <time>2026-07-19T09:37:25Z</time>
      </trkpt>
      <trkpt lat="45.18799" lon="5.98354">
        <ele>2651</ele>
        <time>2026-07-19T09:37:29Z</time>
      </trkpt>
      <trkpt lat="45.188" lon="5.98353">
        <ele>2651</ele>
        <time>2026-07-19T09:37:31Z</time>
      </trkpt>
      <trkpt lat="45.188" lon="5.98353">
        <ele>2650.4</ele>
        <time>2026-07-19T09:37:32Z</time>
      </trkpt>
      <trkpt lat="45.18801" lon="5.98353">
        <ele>2649.6</ele>
        <time>2026-07-19T09:37:34Z</time>
      </trkpt>
      <trkpt lat="45.188" lon="5.98349">
        <ele>2650</ele>
        <time>2026-07-19T09:37:39Z</time>
      </trkpt>
      <trkpt lat="45.18799" lon="5.98345">
        <ele>2650.8</ele>
        <time>2026-07-19T09:37:45Z</time>
      </trkpt>
      <trkpt lat="45.18797" lon="5.98344">
        <ele>2651</ele>
        <time>2026-07-19T09:37:48Z</time>
      </trkpt>
      <trkpt lat="45.18794" lon="5.98336">
        <ele>2650.8</ele>
        <time>2026-07-19T09:37:57Z</time>
      </trkpt>
      <trkpt lat="45.18794" lon="5.98333">
        <ele>2651.4</ele>
        <time>2026-07-19T09:37:59Z</time>
      </trkpt>
      <trkpt lat="45.18797" lon="5.98331">
        <ele>2651.4</ele>
        <time>2026-07-19T09:38:04Z</time>
      </trkpt>
      <trkpt lat="45.188" lon="5.98329">
        <ele>2651.2</ele>
        <time>2026-07-19T09:38:08Z</time>
      </trkpt>
      <trkpt lat="45.188" lon="5.98325">
        <ele>2651.4</ele>
        <time>2026-07-19T09:38:11Z</time>
      </trkpt>
      <trkpt lat="45.18801" lon="5.98318">
        <ele>2652.2</ele>
        <time>2026-07-19T09:38:17Z</time>
      </trkpt>
      <trkpt lat="45.18801" lon="5.98317">
        <ele>2652.4</ele>
        <time>2026-07-19T09:38:19Z</time>
      </trkpt>
      <trkpt lat="45.18802" lon="5.98317">
        <ele>2652.6</ele>
        <time>2026-07-19T09:38:21Z</time>
      </trkpt>
      <trkpt lat="45.18801" lon="5.98317">
        <ele>2653.4</ele>
        <time>2026-07-19T09:38:23Z</time>
      </trkpt>
      <trkpt lat="45.18801" lon="5.98314">
        <ele>2654.4</ele>
        <time>2026-07-19T09:38:27Z</time>
      </trkpt>
      <trkpt lat="45.18801" lon="5.98314">
        <ele>2654.6</ele>
        <time>2026-07-19T09:38:28Z</time>
      </trkpt>
      <trkpt lat="45.18803" lon="5.98313">
        <ele>2655.6</ele>
        <time>2026-07-19T09:38:32Z</time>
      </trkpt>
      <trkpt lat="45.18802" lon="5.98312">
        <ele>2656.4</ele>
        <time>2026-07-19T09:38:36Z</time>
      </trkpt>
      <trkpt lat="45.18802" lon="5.98312">
        <ele>2656.6</ele>
        <time>2026-07-19T09:38:55Z</time>
      </trkpt>
      <trkpt lat="45.18802" lon="5.98312">
        <ele>2656</ele>
        <time>2026-07-19T09:39:15Z</time>
      </trkpt>
      <trkpt lat="45.18801" lon="5.98311">
        <ele>2654.4</ele>
        <time>2026-07-19T09:39:56Z</time>
      </trkpt>
      <trkpt lat="45.18799" lon="5.98309">
        <ele>2652.8</ele>
        <time>2026-07-19T09:39:59Z</time>
      </trkpt>
      <trkpt lat="45.18797" lon="5.98308">
        <ele>2651.4</ele>
        <time>2026-07-19T09:40:02Z</time>
      </trkpt>
      <trkpt lat="45.18794" lon="5.98308">
        <ele>2650</ele>
        <time>2026-07-19T09:40:05Z</time>
      </trkpt>
      <trkpt lat="45.18791" lon="5.98308">
        <ele>2648.8</ele>
        <time>2026-07-19T09:40:09Z</time>
      </trkpt>
      <trkpt lat="45.18788" lon="5.98305">
        <ele>2648</ele>
        <time>2026-07-19T09:40:14Z</time>
      </trkpt>
      <trkpt lat="45.18787" lon="5.98301">
        <ele>2647.8</ele>
        <time>2026-07-19T09:40:22Z</time>
      </trkpt>
      <trkpt lat="45.18787" lon="5.98301">
        <ele>2647.4</ele>
        <time>2026-07-19T09:40:23Z</time>
      </trkpt>
      <trkpt lat="45.18788" lon="5.983">
        <ele>2647.6</ele>
        <time>2026-07-19T09:40:30Z</time>
      </trkpt>
      <trkpt lat="45.18789" lon="5.98294">
        <ele>2647</ele>
        <time>2026-07-19T09:40:39Z</time>
      </trkpt>
      <trkpt lat="45.18791" lon="5.98288">
        <ele>2648.4</ele>
        <time>2026-07-19T09:40:45Z</time>
      </trkpt>
      <trkpt lat="45.18791" lon="5.98286">
        <ele>2647.2</ele>
        <time>2026-07-19T09:40:47Z</time>
      </trkpt>
      <trkpt lat="45.18791" lon="5.98284">
        <ele>2647.8</ele>
        <time>2026-07-19T09:40:48Z</time>
      </trkpt>
      <trkpt lat="45.18791" lon="5.98282">
        <ele>2648.4</ele>
        <time>2026-07-19T09:40:49Z</time>
      </trkpt>
      <trkpt lat="45.18792" lon="5.98278">
        <ele>2649.6</ele>
        <time>2026-07-19T09:40:52Z</time>
      </trkpt>
      <trkpt lat="45.18792" lon="5.98275">
        <ele>2650.6</ele>
        <time>2026-07-19T09:40:54Z</time>
      </trkpt>
      <trkpt lat="45.18791" lon="5.98275">
        <ele>2650.8</ele>
        <time>2026-07-19T09:40:55Z</time>
      </trkpt>
      <trkpt lat="45.1879" lon="5.98272">
        <ele>2651</ele>
        <time>2026-07-19T09:40:57Z</time>
      </trkpt>
      <trkpt lat="45.18789" lon="5.98267">
        <ele>2651.8</ele>
        <time>2026-07-19T09:41:00Z</time>
      </trkpt>
      <trkpt lat="45.18789" lon="5.98266">
        <ele>2652</ele>
        <time>2026-07-19T09:41:01Z</time>
      </trkpt>
      <trkpt lat="45.1879" lon="5.98259">
        <ele>2653</ele>
        <time>2026-07-19T09:41:06Z</time>
      </trkpt>
      <trkpt lat="45.1879" lon="5.98256">
        <ele>2653.6</ele>
        <time>2026-07-19T09:41:09Z</time>
      </trkpt>
      <trkpt lat="45.18789" lon="5.98255">
        <ele>2651</ele>
        <time>2026-07-19T09:41:12Z</time>
      </trkpt>
      <trkpt lat="45.18788" lon="5.98255">
        <ele>2651.2</ele>
        <time>2026-07-19T09:41:16Z</time>
      </trkpt>
      <trkpt lat="45.18786" lon="5.98249">
        <ele>2650.2</ele>
        <time>2026-07-19T09:41:24Z</time>
      </trkpt>
      <trkpt lat="45.18786" lon="5.9824">
        <ele>2650.4</ele>
        <time>2026-07-19T09:41:33Z</time>
      </trkpt>
      <trkpt lat="45.18786" lon="5.98238">
        <ele>2652.6</ele>
        <time>2026-07-19T09:41:37Z</time>
      </trkpt>
      <trkpt lat="45.18786" lon="5.98237">
        <ele>2654.4</ele>
        <time>2026-07-19T09:41:40Z</time>
      </trkpt>
      <trkpt lat="45.18786" lon="5.98237">
        <ele>2655.2</ele>
        <time>2026-07-19T09:41:41Z</time>
      </trkpt>
      <trkpt lat="45.18785" lon="5.98236">
        <ele>2655.8</ele>
        <time>2026-07-19T09:41:42Z</time>
      </trkpt>
      <trkpt lat="45.18784" lon="5.98232">
        <ele>2657</ele>
        <time>2026-07-19T09:41:46Z</time>
      </trkpt>
      <trkpt lat="45.18782" lon="5.98231">
        <ele>2657.4</ele>
        <time>2026-07-19T09:41:51Z</time>
      </trkpt>
      <trkpt lat="45.18779" lon="5.98225">
        <ele>2658</ele>
        <time>2026-07-19T09:41:59Z</time>
      </trkpt>
      <trkpt lat="45.18776" lon="5.98221">
        <ele>2658</ele>
        <time>2026-07-19T09:42:02Z</time>
      </trkpt>
      <trkpt lat="45.18773" lon="5.98218">
        <ele>2657.4</ele>
        <time>2026-07-19T09:42:05Z</time>
      </trkpt>
      <trkpt lat="45.1877" lon="5.9821">
        <ele>2657.6</ele>
        <time>2026-07-19T09:42:10Z</time>
      </trkpt>
      <trkpt lat="45.18769" lon="5.98209">
        <ele>2657.6</ele>
        <time>2026-07-19T09:42:11Z</time>
      </trkpt>
      <trkpt lat="45.18766" lon="5.98205">
        <ele>2657</ele>
        <time>2026-07-19T09:42:15Z</time>
      </trkpt>
      <trkpt lat="45.18765" lon="5.98202">
        <ele>2656.6</ele>
        <time>2026-07-19T09:42:17Z</time>
      </trkpt>
      <trkpt lat="45.18761" lon="5.982">
        <ele>2655.8</ele>
        <time>2026-07-19T09:42:20Z</time>
      </trkpt>
      <trkpt lat="45.1876" lon="5.98199">
        <ele>2655.6</ele>
        <time>2026-07-19T09:42:21Z</time>
      </trkpt>
      <trkpt lat="45.18759" lon="5.98196">
        <ele>2655.4</ele>
        <time>2026-07-19T09:42:23Z</time>
      </trkpt>
      <trkpt lat="45.18759" lon="5.98195">
        <ele>2654.6</ele>
        <time>2026-07-19T09:42:24Z</time>
      </trkpt>
      <trkpt lat="45.18759" lon="5.98194">
        <ele>2654.2</ele>
        <time>2026-07-19T09:42:26Z</time>
      </trkpt>
      <trkpt lat="45.18756" lon="5.98192">
        <ele>2654.4</ele>
        <time>2026-07-19T09:42:29Z</time>
      </trkpt>
      <trkpt lat="45.18755" lon="5.9819">
        <ele>2653.8</ele>
        <time>2026-07-19T09:42:32Z</time>
      </trkpt>
      <trkpt lat="45.18755" lon="5.9819">
        <ele>2653.2</ele>
        <time>2026-07-19T09:42:36Z</time>
      </trkpt>
      <trkpt lat="45.18755" lon="5.98186">
        <ele>2653.2</ele>
        <time>2026-07-19T09:42:47Z</time>
      </trkpt>
      <trkpt lat="45.18755" lon="5.98184">
        <ele>2654.4</ele>
        <time>2026-07-19T09:42:55Z</time>
      </trkpt>
      <trkpt lat="45.18755" lon="5.98184">
        <ele>2655.6</ele>
        <time>2026-07-19T09:42:58Z</time>
      </trkpt>
      <trkpt lat="45.18754" lon="5.98184">
        <ele>2656.6</ele>
        <time>2026-07-19T09:43:06Z</time>
      </trkpt>
      <trkpt lat="45.18754" lon="5.98183">
        <ele>2656.8</ele>
        <time>2026-07-19T09:43:13Z</time>
      </trkpt>
      <trkpt lat="45.18754" lon="5.98183">
        <ele>2657.8</ele>
        <time>2026-07-19T09:43:23Z</time>
      </trkpt>
      <trkpt lat="45.18753" lon="5.98184">
        <ele>2658.6</ele>
        <time>2026-07-19T09:43:29Z</time>
      </trkpt>
      <trkpt lat="45.18752" lon="5.98184">
        <ele>2659</ele>
        <time>2026-07-19T09:43:34Z</time>
      </trkpt>
      <trkpt lat="45.18752" lon="5.98184">
        <ele>2659.8</ele>
        <time>2026-07-19T09:43:47Z</time>
      </trkpt>
      <trkpt lat="45.18752" lon="5.98184">
        <ele>2660.2</ele>
        <time>2026-07-19T09:43:54Z</time>
      </trkpt>
      <trkpt lat="45.18752" lon="5.98185">
        <ele>2660.2</ele>
        <time>2026-07-19T09:43:58Z</time>
      </trkpt>
      <trkpt lat="45.18751" lon="5.98185">
        <ele>2661.4</ele>
        <time>2026-07-19T09:44:04Z</time>
      </trkpt>
      <trkpt lat="45.18751" lon="5.98186">
        <ele>2661.2</ele>
        <time>2026-07-19T09:44:11Z</time>
      </trkpt>
      <trkpt lat="45.18751" lon="5.98186">
        <ele>2661.8</ele>
        <time>2026-07-19T09:44:23Z</time>
      </trkpt>
      <trkpt lat="45.18749" lon="5.98187">
        <ele>2661.2</ele>
        <time>2026-07-19T09:44:36Z</time>
      </trkpt>
      <trkpt lat="45.1875" lon="5.98187">
        <ele>2662</ele>
        <time>2026-07-19T09:44:53Z</time>
      </trkpt>
      <trkpt lat="45.1875" lon="5.98188">
        <ele>2661.8</ele>
        <time>2026-07-19T09:45:06Z</time>
      </trkpt>
      <trkpt lat="45.18749" lon="5.98186">
        <ele>2661.4</ele>
        <time>2026-07-19T09:45:12Z</time>
      </trkpt>
      <trkpt lat="45.18749" lon="5.98186">
        <ele>2660.6</ele>
        <time>2026-07-19T09:45:22Z</time>
      </trkpt>
      <trkpt lat="45.18749" lon="5.98185">
        <ele>2660.4</ele>
        <time>2026-07-19T09:45:37Z</time>
      </trkpt>
      <trkpt lat="45.18749" lon="5.98184">
        <ele>2660.2</ele>
        <time>2026-07-19T09:45:44Z</time>
      </trkpt>
      <trkpt lat="45.18748" lon="5.9818">
        <ele>2660.4</ele>
        <time>2026-07-19T09:45:50Z</time>
      </trkpt>
      <trkpt lat="45.18743" lon="5.98176">
        <ele>2660.2</ele>
        <time>2026-07-19T09:45:58Z</time>
      </trkpt>
      <trkpt lat="45.18742" lon="5.98175">
        <ele>2660</ele>
        <time>2026-07-19T09:46:00Z</time>
      </trkpt>
      <trkpt lat="45.18741" lon="5.98175">
        <ele>2659.6</ele>
        <time>2026-07-19T09:46:02Z</time>
      </trkpt>
      <trkpt lat="45.18737" lon="5.98172">
        <ele>2659.6</ele>
        <time>2026-07-19T09:46:07Z</time>
      </trkpt>
      <trkpt lat="45.18736" lon="5.98171">
        <ele>2659.4</ele>
        <time>2026-07-19T09:46:09Z</time>
      </trkpt>
      <trkpt lat="45.18735" lon="5.98169">
        <ele>2659.2</ele>
        <time>2026-07-19T09:46:11Z</time>
      </trkpt>
      <trkpt lat="45.18733" lon="5.98167">
        <ele>2659</ele>
        <time>2026-07-19T09:46:13Z</time>
      </trkpt>
      <trkpt lat="45.18732" lon="5.98164">
        <ele>2658.4</ele>
        <time>2026-07-19T09:46:16Z</time>
      </trkpt>
      <trkpt lat="45.18732" lon="5.98164">
        <ele>2658</ele>
        <time>2026-07-19T09:46:17Z</time>
      </trkpt>
      <trkpt lat="45.18733" lon="5.98163">
        <ele>2657.8</ele>
        <time>2026-07-19T09:46:18Z</time>
      </trkpt>
      <trkpt lat="45.18733" lon="5.98163">
        <ele>2657.6</ele>
        <time>2026-07-19T09:46:20Z</time>
      </trkpt>
      <trkpt lat="45.18731" lon="5.98161">
        <ele>2656.8</ele>
        <time>2026-07-19T09:46:25Z</time>
      </trkpt>
      <trkpt lat="45.18731" lon="5.9816">
        <ele>2656.4</ele>
        <time>2026-07-19T09:46:26Z</time>
      </trkpt>
      <trkpt lat="45.18725" lon="5.98153">
        <ele>2655.4</ele>
        <time>2026-07-19T09:46:33Z</time>
      </trkpt>
      <trkpt lat="45.18724" lon="5.98152">
        <ele>2655.2</ele>
        <time>2026-07-19T09:46:34Z</time>
      </trkpt>
      <trkpt lat="45.18719" lon="5.98145">
        <ele>2654.4</ele>
        <time>2026-07-19T09:46:41Z</time>
      </trkpt>
      <trkpt lat="45.18718" lon="5.98143">
        <ele>2654</ele>
        <time>2026-07-19T09:46:42Z</time>
      </trkpt>
      <trkpt lat="45.18718" lon="5.98138">
        <ele>2653.2</ele>
        <time>2026-07-19T09:46:46Z</time>
      </trkpt>
      <trkpt lat="45.18717" lon="5.98137">
        <ele>2652.8</ele>
        <time>2026-07-19T09:46:47Z</time>
      </trkpt>
      <trkpt lat="45.18717" lon="5.98135">
        <ele>2652.6</ele>
        <time>2026-07-19T09:46:49Z</time>
      </trkpt>
      <trkpt lat="45.18718" lon="5.98135">
        <ele>2652.4</ele>
        <time>2026-07-19T09:46:51Z</time>
      </trkpt>
      <trkpt lat="45.18718" lon="5.98133">
        <ele>2651.6</ele>
        <time>2026-07-19T09:46:54Z</time>
      </trkpt>
      <trkpt lat="45.18717" lon="5.9813">
        <ele>2650.8</ele>
        <time>2026-07-19T09:46:57Z</time>
      </trkpt>
      <trkpt lat="45.18716" lon="5.9813">
        <ele>2650.2</ele>
        <time>2026-07-19T09:46:58Z</time>
      </trkpt>
      <trkpt lat="45.18716" lon="5.98128">
        <ele>2649</ele>
        <time>2026-07-19T09:47:00Z</time>
      </trkpt>
      <trkpt lat="45.18716" lon="5.98127">
        <ele>2649</ele>
        <time>2026-07-19T09:47:04Z</time>
      </trkpt>
      <trkpt lat="45.18717" lon="5.98127">
        <ele>2647.8</ele>
        <time>2026-07-19T09:47:13Z</time>
      </trkpt>
      <trkpt lat="45.18717" lon="5.98127">
        <ele>2647.4</ele>
        <time>2026-07-19T09:47:21Z</time>
      </trkpt>
      <trkpt lat="45.18717" lon="5.98126">
        <ele>2646.8</ele>
        <time>2026-07-19T09:47:37Z</time>
      </trkpt>
      <trkpt lat="45.18717" lon="5.98127">
        <ele>2646.6</ele>
        <time>2026-07-19T09:47:42Z</time>
      </trkpt>
      <trkpt lat="45.18717" lon="5.98127">
        <ele>2646.6</ele>
        <time>2026-07-19T09:47:53Z</time>
      </trkpt>
      <trkpt lat="45.18717" lon="5.98128">
        <ele>2646.4</ele>
        <time>2026-07-19T09:48:09Z</time>
      </trkpt>
      <trkpt lat="45.18718" lon="5.98122">
        <ele>2646.2</ele>
        <time>2026-07-19T09:48:16Z</time>
      </trkpt>
      <trkpt lat="45.18717" lon="5.98113">
        <ele>2645.2</ele>
        <time>2026-07-19T09:48:22Z</time>
      </trkpt>
      <trkpt lat="45.18718" lon="5.98107">
        <ele>2645.6</ele>
        <time>2026-07-19T09:48:28Z</time>
      </trkpt>
      <trkpt lat="45.18718" lon="5.98103">
        <ele>2646.6</ele>
        <time>2026-07-19T09:48:31Z</time>
      </trkpt>
      <trkpt lat="45.18719" lon="5.98102">
        <ele>2645.2</ele>
        <time>2026-07-19T09:48:34Z</time>
      </trkpt>
      <trkpt lat="45.18719" lon="5.98102">
        <ele>2645.4</ele>
        <time>2026-07-19T09:48:35Z</time>
      </trkpt>
      <trkpt lat="45.1872" lon="5.98097">
        <ele>2645.8</ele>
        <time>2026-07-19T09:48:39Z</time>
      </trkpt>
      <trkpt lat="45.1872" lon="5.98094">
        <ele>2646</ele>
        <time>2026-07-19T09:48:41Z</time>
      </trkpt>
      <trkpt lat="45.1872" lon="5.98093">
        <ele>2646.4</ele>
        <time>2026-07-19T09:48:42Z</time>
      </trkpt>
      <trkpt lat="45.1872" lon="5.98088">
        <ele>2647.2</ele>
        <time>2026-07-19T09:48:46Z</time>
      </trkpt>
      <trkpt lat="45.1872" lon="5.98086">
        <ele>2647.4</ele>
        <time>2026-07-19T09:48:47Z</time>
      </trkpt>
      <trkpt lat="45.18717" lon="5.98081">
        <ele>2647.6</ele>
        <time>2026-07-19T09:48:51Z</time>
      </trkpt>
      <trkpt lat="45.18716" lon="5.98077">
        <ele>2646.8</ele>
        <time>2026-07-19T09:48:55Z</time>
      </trkpt>
      <trkpt lat="45.18716" lon="5.98077">
        <ele>2647</ele>
        <time>2026-07-19T09:48:56Z</time>
      </trkpt>
      <trkpt lat="45.18715" lon="5.98075">
        <ele>2646.4</ele>
        <time>2026-07-19T09:49:19Z</time>
      </trkpt>
      <trkpt lat="45.18713" lon="5.98069">
        <ele>2645.2</ele>
        <time>2026-07-19T09:49:23Z</time>
      </trkpt>
      <trkpt lat="45.18711" lon="5.98065">
        <ele>2644.8</ele>
        <time>2026-07-19T09:49:26Z</time>
      </trkpt>
      <trkpt lat="45.1871" lon="5.98062">
        <ele>2644.8</ele>
        <time>2026-07-19T09:49:29Z</time>
      </trkpt>
      <trkpt lat="45.18709" lon="5.9806">
        <ele>2644.6</ele>
        <time>2026-07-19T09:49:31Z</time>
      </trkpt>
      <trkpt lat="45.18706" lon="5.98055">
        <ele>2644</ele>
        <time>2026-07-19T09:49:35Z</time>
      </trkpt>
      <trkpt lat="45.18705" lon="5.98053">
        <ele>2644.6</ele>
        <time>2026-07-19T09:49:37Z</time>
      </trkpt>
      <trkpt lat="45.18703" lon="5.98047">
        <ele>2644</ele>
        <time>2026-07-19T09:49:42Z</time>
      </trkpt>
      <trkpt lat="45.18704" lon="5.98045">
        <ele>2641.8</ele>
        <time>2026-07-19T09:49:43Z</time>
      </trkpt>
      <trkpt lat="45.18703" lon="5.98041">
        <ele>2641.2</ele>
        <time>2026-07-19T09:49:46Z</time>
      </trkpt>
      <trkpt lat="45.18703" lon="5.98038">
        <ele>2640.8</ele>
        <time>2026-07-19T09:49:48Z</time>
      </trkpt>
      <trkpt lat="45.18702" lon="5.98037">
        <ele>2641</ele>
        <time>2026-07-19T09:49:49Z</time>
      </trkpt>
      <trkpt lat="45.18701" lon="5.98034">
        <ele>2641.4</ele>
        <time>2026-07-19T09:49:53Z</time>
      </trkpt>
      <trkpt lat="45.187" lon="5.98031">
        <ele>2643</ele>
        <time>2026-07-19T09:49:58Z</time>
      </trkpt>
      <trkpt lat="45.18701" lon="5.98026">
        <ele>2642.2</ele>
        <time>2026-07-19T09:50:04Z</time>
      </trkpt>
      <trkpt lat="45.18701" lon="5.98026">
        <ele>2642</ele>
        <time>2026-07-19T09:50:05Z</time>
      </trkpt>
      <trkpt lat="45.18702" lon="5.98025">
        <ele>2642.2</ele>
        <time>2026-07-19T09:50:10Z</time>
      </trkpt>
      <trkpt lat="45.18701" lon="5.98025">
        <ele>2641.6</ele>
        <time>2026-07-19T09:50:16Z</time>
      </trkpt>
      <trkpt lat="45.187" lon="5.98025">
        <ele>2641.6</ele>
        <time>2026-07-19T09:50:17Z</time>
      </trkpt>
      <trkpt lat="45.18699" lon="5.98021">
        <ele>2641</ele>
        <time>2026-07-19T09:50:21Z</time>
      </trkpt>
      <trkpt lat="45.18698" lon="5.98019">
        <ele>2640.4</ele>
        <time>2026-07-19T09:50:24Z</time>
      </trkpt>
      <trkpt lat="45.18697" lon="5.98016">
        <ele>2639.2</ele>
        <time>2026-07-19T09:50:28Z</time>
      </trkpt>
      <trkpt lat="45.18696" lon="5.98016">
        <ele>2638</ele>
        <time>2026-07-19T09:50:31Z</time>
      </trkpt>
      <trkpt lat="45.18695" lon="5.98016">
        <ele>2636.8</ele>
        <time>2026-07-19T09:50:34Z</time>
      </trkpt>
      <trkpt lat="45.18694" lon="5.98017">
        <ele>2636.6</ele>
        <time>2026-07-19T09:50:35Z</time>
      </trkpt>
      <trkpt lat="45.18693" lon="5.98019">
        <ele>2635.8</ele>
        <time>2026-07-19T09:50:39Z</time>
      </trkpt>
      <trkpt lat="45.18691" lon="5.98023">
        <ele>2634.6</ele>
        <time>2026-07-19T09:50:44Z</time>
      </trkpt>
      <trkpt lat="45.18689" lon="5.9802">
        <ele>2633.6</ele>
        <time>2026-07-19T09:50:50Z</time>
      </trkpt>
      <trkpt lat="45.18689" lon="5.98019">
        <ele>2633.4</ele>
        <time>2026-07-19T09:50:51Z</time>
      </trkpt>
      <trkpt lat="45.18688" lon="5.98018">
        <ele>2633</ele>
        <time>2026-07-19T09:50:52Z</time>
      </trkpt>
      <trkpt lat="45.18687" lon="5.98016">
        <ele>2632.2</ele>
        <time>2026-07-19T09:50:56Z</time>
      </trkpt>
      <trkpt lat="45.18686" lon="5.98014">
        <ele>2631.4</ele>
        <time>2026-07-19T09:50:58Z</time>
      </trkpt>
      <trkpt lat="45.18686" lon="5.98013">
        <ele>2631.2</ele>
        <time>2026-07-19T09:50:59Z</time>
      </trkpt>
      <trkpt lat="45.18685" lon="5.98006">
        <ele>2630.2</ele>
        <time>2026-07-19T09:51:05Z</time>
      </trkpt>
      <trkpt lat="45.18685" lon="5.98005">
        <ele>2630.2</ele>
        <time>2026-07-19T09:51:06Z</time>
      </trkpt>
      <trkpt lat="45.18685" lon="5.98004">
        <ele>2630</ele>
        <time>2026-07-19T09:51:08Z</time>
      </trkpt>
      <trkpt lat="45.18683" lon="5.97998">
        <ele>2630.6</ele>
        <time>2026-07-19T09:51:15Z</time>
      </trkpt>
      <trkpt lat="45.18684" lon="5.97997">
        <ele>2631.2</ele>
        <time>2026-07-19T09:51:17Z</time>
      </trkpt>
      <trkpt lat="45.18683" lon="5.97994">
        <ele>2631.8</ele>
        <time>2026-07-19T09:51:22Z</time>
      </trkpt>
      <trkpt lat="45.18683" lon="5.97993">
        <ele>2632.4</ele>
        <time>2026-07-19T09:51:23Z</time>
      </trkpt>
      <trkpt lat="45.18683" lon="5.97988">
        <ele>2630.2</ele>
        <time>2026-07-19T09:51:29Z</time>
      </trkpt>
      <trkpt lat="45.18683" lon="5.97988">
        <ele>2629.8</ele>
        <time>2026-07-19T09:51:30Z</time>
      </trkpt>
      <trkpt lat="45.18683" lon="5.97985">
        <ele>2629</ele>
        <time>2026-07-19T09:51:34Z</time>
      </trkpt>
      <trkpt lat="45.18683" lon="5.97985">
        <ele>2628.6</ele>
        <time>2026-07-19T09:51:36Z</time>
      </trkpt>
      <trkpt lat="45.18683" lon="5.97981">
        <ele>2628.4</ele>
        <time>2026-07-19T09:51:43Z</time>
      </trkpt>
      <trkpt lat="45.18683" lon="5.97981">
        <ele>2628</ele>
        <time>2026-07-19T09:51:44Z</time>
      </trkpt>
      <trkpt lat="45.18682" lon="5.97981">
        <ele>2627</ele>
        <time>2026-07-19T09:51:49Z</time>
      </trkpt>
      <trkpt lat="45.18682" lon="5.9798">
        <ele>2626.8</ele>
        <time>2026-07-19T09:51:52Z</time>
      </trkpt>
      <trkpt lat="45.1868" lon="5.9798">
        <ele>2625</ele>
        <time>2026-07-19T09:51:58Z</time>
      </trkpt>
      <trkpt lat="45.1868" lon="5.97978">
        <ele>2625.8</ele>
        <time>2026-07-19T09:52:08Z</time>
      </trkpt>
      <trkpt lat="45.18678" lon="5.97977">
        <ele>2624</ele>
        <time>2026-07-19T09:52:19Z</time>
      </trkpt>
      <trkpt lat="45.18678" lon="5.97977">
        <ele>2623.8</ele>
        <time>2026-07-19T09:52:20Z</time>
      </trkpt>
      <trkpt lat="45.18676" lon="5.97976">
        <ele>2625.2</ele>
        <time>2026-07-19T09:52:26Z</time>
      </trkpt>
      <trkpt lat="45.18676" lon="5.97975">
        <ele>2625.6</ele>
        <time>2026-07-19T09:52:29Z</time>
      </trkpt>
      <trkpt lat="45.18675" lon="5.97972">
        <ele>2625</ele>
        <time>2026-07-19T09:52:38Z</time>
      </trkpt>
      <trkpt lat="45.18674" lon="5.97967">
        <ele>2626</ele>
        <time>2026-07-19T09:52:45Z</time>
      </trkpt>
      <trkpt lat="45.18674" lon="5.97967">
        <ele>2626.4</ele>
        <time>2026-07-19T09:52:46Z</time>
      </trkpt>
      <trkpt lat="45.18675" lon="5.97965">
        <ele>2627.6</ele>
        <time>2026-07-19T09:52:50Z</time>
      </trkpt>
      <trkpt lat="45.18676" lon="5.97963">
        <ele>2628.4</ele>
        <time>2026-07-19T09:52:54Z</time>
      </trkpt>
      <trkpt lat="45.18676" lon="5.97963">
        <ele>2628.8</ele>
        <time>2026-07-19T09:52:56Z</time>
      </trkpt>
      <trkpt lat="45.18674" lon="5.97964">
        <ele>2628.8</ele>
        <time>2026-07-19T09:53:03Z</time>
      </trkpt>
      <trkpt lat="45.18673" lon="5.97961">
        <ele>2626.2</ele>
        <time>2026-07-19T09:53:07Z</time>
      </trkpt>
      <trkpt lat="45.18673" lon="5.97959">
        <ele>2625.6</ele>
        <time>2026-07-19T09:53:11Z</time>
      </trkpt>
      <trkpt lat="45.18672" lon="5.97958">
        <ele>2625.2</ele>
        <time>2026-07-19T09:53:16Z</time>
      </trkpt>
      <trkpt lat="45.18671" lon="5.97959">
        <ele>2625.4</ele>
        <time>2026-07-19T09:53:17Z</time>
      </trkpt>
      <trkpt lat="45.1867" lon="5.97958">
        <ele>2624</ele>
        <time>2026-07-19T09:53:24Z</time>
      </trkpt>
      <trkpt lat="45.18669" lon="5.97954">
        <ele>2623.8</ele>
        <time>2026-07-19T09:53:31Z</time>
      </trkpt>
      <trkpt lat="45.18668" lon="5.97951">
        <ele>2623.6</ele>
        <time>2026-07-19T09:53:37Z</time>
      </trkpt>
      <trkpt lat="45.18668" lon="5.97949">
        <ele>2622.8</ele>
        <time>2026-07-19T09:53:40Z</time>
      </trkpt>
      <trkpt lat="45.1867" lon="5.97944">
        <ele>2622.4</ele>
        <time>2026-07-19T09:53:45Z</time>
      </trkpt>
      <trkpt lat="45.1867" lon="5.97944">
        <ele>2622.6</ele>
        <time>2026-07-19T09:53:46Z</time>
      </trkpt>
      <trkpt lat="45.18671" lon="5.97939">
        <ele>2622.8</ele>
        <time>2026-07-19T09:53:52Z</time>
      </trkpt>
      <trkpt lat="45.18671" lon="5.97937">
        <ele>2623</ele>
        <time>2026-07-19T09:53:54Z</time>
      </trkpt>
      <trkpt lat="45.18672" lon="5.97935">
        <ele>2623</ele>
        <time>2026-07-19T09:53:55Z</time>
      </trkpt>
      <trkpt lat="45.18674" lon="5.97933">
        <ele>2623.4</ele>
        <time>2026-07-19T09:54:00Z</time>
      </trkpt>
      <trkpt lat="45.18674" lon="5.97933">
        <ele>2623.8</ele>
        <time>2026-07-19T09:54:01Z</time>
      </trkpt>
      <trkpt lat="45.18674" lon="5.97931">
        <ele>2624.4</ele>
        <time>2026-07-19T09:54:03Z</time>
      </trkpt>
      <trkpt lat="45.18675" lon="5.97927">
        <ele>2625.6</ele>
        <time>2026-07-19T09:54:07Z</time>
      </trkpt>
      <trkpt lat="45.18676" lon="5.97925">
        <ele>2626.4</ele>
        <time>2026-07-19T09:54:10Z</time>
      </trkpt>
      <trkpt lat="45.18676" lon="5.97924">
        <ele>2627</ele>
        <time>2026-07-19T09:54:12Z</time>
      </trkpt>
      <trkpt lat="45.18676" lon="5.9792">
        <ele>2628.6</ele>
        <time>2026-07-19T09:54:16Z</time>
      </trkpt>
      <trkpt lat="45.18677" lon="5.97917">
        <ele>2629.2</ele>
        <time>2026-07-19T09:54:18Z</time>
      </trkpt>
      <trkpt lat="45.18678" lon="5.97916">
        <ele>2629.8</ele>
        <time>2026-07-19T09:54:20Z</time>
      </trkpt>
      <trkpt lat="45.18679" lon="5.97914">
        <ele>2629.8</ele>
        <time>2026-07-19T09:54:27Z</time>
      </trkpt>
      <trkpt lat="45.18682" lon="5.97911">
        <ele>2630.6</ele>
        <time>2026-07-19T09:54:35Z</time>
      </trkpt>
      <trkpt lat="45.18682" lon="5.9791">
        <ele>2630.8</ele>
        <time>2026-07-19T09:54:36Z</time>
      </trkpt>
      <trkpt lat="45.18683" lon="5.97906">
        <ele>2632</ele>
        <time>2026-07-19T09:54:40Z</time>
      </trkpt>
      <trkpt lat="45.18683" lon="5.97905">
        <ele>2632</ele>
        <time>2026-07-19T09:54:41Z</time>
      </trkpt>
      <trkpt lat="45.18684" lon="5.97903">
        <ele>2633.2</ele>
        <time>2026-07-19T09:54:45Z</time>
      </trkpt>
      <trkpt lat="45.18685" lon="5.97903">
        <ele>2634.6</ele>
        <time>2026-07-19T09:54:48Z</time>
      </trkpt>
      <trkpt lat="45.18686" lon="5.979">
        <ele>2635.8</ele>
        <time>2026-07-19T09:54:53Z</time>
      </trkpt>
      <trkpt lat="45.18687" lon="5.97899">
        <ele>2636.4</ele>
        <time>2026-07-19T09:54:55Z</time>
      </trkpt>
      <trkpt lat="45.18687" lon="5.97898">
        <ele>2636.8</ele>
        <time>2026-07-19T09:54:56Z</time>
      </trkpt>
      <trkpt lat="45.18687" lon="5.97898">
        <ele>2638.4</ele>
        <time>2026-07-19T09:54:59Z</time>
      </trkpt>
      <trkpt lat="45.18687" lon="5.97898">
        <ele>2639.6</ele>
        <time>2026-07-19T09:55:01Z</time>
      </trkpt>
      <trkpt lat="45.18687" lon="5.97899">
        <ele>2640.4</ele>
        <time>2026-07-19T09:55:03Z</time>
      </trkpt>
      <trkpt lat="45.18688" lon="5.97899">
        <ele>2640.8</ele>
        <time>2026-07-19T09:55:04Z</time>
      </trkpt>
      <trkpt lat="45.18689" lon="5.97899">
        <ele>2642</ele>
        <time>2026-07-19T09:55:08Z</time>
      </trkpt>
      <trkpt lat="45.18689" lon="5.979">
        <ele>2643</ele>
        <time>2026-07-19T09:55:13Z</time>
      </trkpt>
      <trkpt lat="45.18689" lon="5.979">
        <ele>2643.2</ele>
        <time>2026-07-19T09:55:14Z</time>
      </trkpt>
      <trkpt lat="45.18688" lon="5.979">
        <ele>2644</ele>
        <time>2026-07-19T09:55:27Z</time>
      </trkpt>
      <trkpt lat="45.18689" lon="5.979">
        <ele>2644.2</ele>
        <time>2026-07-19T09:55:30Z</time>
      </trkpt>
      <trkpt lat="45.18688" lon="5.979">
        <ele>2644.2</ele>
        <time>2026-07-19T09:55:44Z</time>
      </trkpt>
      <trkpt lat="45.18688" lon="5.979">
        <ele>2644</ele>
        <time>2026-07-19T09:55:50Z</time>
      </trkpt>
      <trkpt lat="45.18688" lon="5.979">
        <ele>2644</ele>
        <time>2026-07-19T09:56:01Z</time>
      </trkpt>
      <trkpt lat="45.18688" lon="5.97899">
        <ele>2643.8</ele>
        <time>2026-07-19T09:56:12Z</time>
      </trkpt>
      <trkpt lat="45.18689" lon="5.979">
        <ele>2644</ele>
        <time>2026-07-19T09:56:26Z</time>
      </trkpt>
      <trkpt lat="45.18689" lon="5.97899">
        <ele>2642.2</ele>
        <time>2026-07-19T09:56:27Z</time>
      </trkpt>
      <trkpt lat="45.18689" lon="5.979">
        <ele>2643.8</ele>
        <time>2026-07-19T09:56:29Z</time>
      </trkpt>
      <trkpt lat="45.18689" lon="5.979">
        <ele>2643.6</ele>
        <time>2026-07-19T09:56:38Z</time>
      </trkpt>
      <trkpt lat="45.18689" lon="5.97899">
        <ele>2643.4</ele>
        <time>2026-07-19T09:56:51Z</time>
      </trkpt>
      <trkpt lat="45.18689" lon="5.979">
        <ele>2645.2</ele>
        <time>2026-07-19T09:57:02Z</time>
      </trkpt>
      <trkpt lat="45.18689" lon="5.979">
        <ele>2645.2</ele>
        <time>2026-07-19T09:57:05Z</time>
      </trkpt>
      <trkpt lat="45.18687" lon="5.97903">
        <ele>2644.2</ele>
        <time>2026-07-19T09:57:16Z</time>
      </trkpt>
      <trkpt lat="45.18687" lon="5.97903">
        <ele>2643.8</ele>
        <time>2026-07-19T09:57:17Z</time>
      </trkpt>
      <trkpt lat="45.18685" lon="5.97905">
        <ele>2642.6</ele>
        <time>2026-07-19T09:57:22Z</time>
      </trkpt>
      <trkpt lat="45.18685" lon="5.97905">
        <ele>2642.2</ele>
        <time>2026-07-19T09:57:24Z</time>
      </trkpt>
      <trkpt lat="45.18684" lon="5.97905">
        <ele>2641.4</ele>
        <time>2026-07-19T09:57:33Z</time>
      </trkpt>
      <trkpt lat="45.18684" lon="5.97904">
        <ele>2641.4</ele>
        <time>2026-07-19T09:57:34Z</time>
      </trkpt>
      <trkpt lat="45.18684" lon="5.97903">
        <ele>2640.4</ele>
        <time>2026-07-19T09:57:42Z</time>
      </trkpt>
      <trkpt lat="45.18683" lon="5.97903">
        <ele>2640.2</ele>
        <time>2026-07-19T09:57:43Z</time>
      </trkpt>
      <trkpt lat="45.18683" lon="5.97899">
        <ele>2639.2</ele>
        <time>2026-07-19T09:57:50Z</time>
      </trkpt>
      <trkpt lat="45.18684" lon="5.97897">
        <ele>2638.8</ele>
        <time>2026-07-19T09:57:52Z</time>
      </trkpt>
      <trkpt lat="45.18684" lon="5.97894">
        <ele>2638</ele>
        <time>2026-07-19T09:57:55Z</time>
      </trkpt>
      <trkpt lat="45.18684" lon="5.9789">
        <ele>2638.6</ele>
        <time>2026-07-19T09:57:59Z</time>
      </trkpt>
      <trkpt lat="45.18686" lon="5.97887">
        <ele>2636.6</ele>
        <time>2026-07-19T09:58:05Z</time>
      </trkpt>
      <trkpt lat="45.18684" lon="5.97887">
        <ele>2635</ele>
        <time>2026-07-19T09:58:06Z</time>
      </trkpt>
      <trkpt lat="45.18684" lon="5.97884">
        <ele>2633.8</ele>
        <time>2026-07-19T09:58:09Z</time>
      </trkpt>
      <trkpt lat="45.18683" lon="5.97882">
        <ele>2632.6</ele>
        <time>2026-07-19T09:58:13Z</time>
      </trkpt>
      <trkpt lat="45.18683" lon="5.9788">
        <ele>2631.6</ele>
        <time>2026-07-19T09:58:16Z</time>
      </trkpt>
      <trkpt lat="45.18683" lon="5.97879">
        <ele>2631.4</ele>
        <time>2026-07-19T09:58:17Z</time>
      </trkpt>
      <trkpt lat="45.18683" lon="5.97878">
        <ele>2630.2</ele>
        <time>2026-07-19T09:58:27Z</time>
      </trkpt>
      <trkpt lat="45.18683" lon="5.97874">
        <ele>2629.6</ele>
        <time>2026-07-19T09:58:37Z</time>
      </trkpt>
      <trkpt lat="45.18682" lon="5.97873">
        <ele>2629</ele>
        <time>2026-07-19T09:58:39Z</time>
      </trkpt>
      <trkpt lat="45.1868" lon="5.97871">
        <ele>2627.8</ele>
        <time>2026-07-19T09:58:47Z</time>
      </trkpt>
      <trkpt lat="45.18679" lon="5.97865">
        <ele>2626.6</ele>
        <time>2026-07-19T09:58:55Z</time>
      </trkpt>
      <trkpt lat="45.18678" lon="5.97865">
        <ele>2626</ele>
        <time>2026-07-19T09:58:57Z</time>
      </trkpt>
      <trkpt lat="45.18677" lon="5.97864">
        <ele>2625.4</ele>
        <time>2026-07-19T09:58:59Z</time>
      </trkpt>
      <trkpt lat="45.18674" lon="5.97862">
        <ele>2624.2</ele>
        <time>2026-07-19T09:59:05Z</time>
      </trkpt>
      <trkpt lat="45.18672" lon="5.97861">
        <ele>2624</ele>
        <time>2026-07-19T09:59:14Z</time>
      </trkpt>
      <trkpt lat="45.1867" lon="5.97861">
        <ele>2622.4</ele>
        <time>2026-07-19T09:59:21Z</time>
      </trkpt>
      <trkpt lat="45.18669" lon="5.97861">
        <ele>2622.2</ele>
        <time>2026-07-19T09:59:23Z</time>
      </trkpt>
      <trkpt lat="45.18668" lon="5.9786">
        <ele>2621.2</ele>
        <time>2026-07-19T09:59:26Z</time>
      </trkpt>
      <trkpt lat="45.18665" lon="5.9786">
        <ele>2620.6</ele>
        <time>2026-07-19T09:59:33Z</time>
      </trkpt>
      <trkpt lat="45.18665" lon="5.97859">
        <ele>2619.8</ele>
        <time>2026-07-19T09:59:36Z</time>
      </trkpt>
      <trkpt lat="45.18666" lon="5.97858">
        <ele>2618.8</ele>
        <time>2026-07-19T09:59:39Z</time>
      </trkpt>
      <trkpt lat="45.18665" lon="5.97858">
        <ele>2617.6</ele>
        <time>2026-07-19T09:59:42Z</time>
      </trkpt>
      <trkpt lat="45.18664" lon="5.97857">
        <ele>2614</ele>
        <time>2026-07-19T09:59:45Z</time>
      </trkpt>
      <trkpt lat="45.18662" lon="5.97857">
        <ele>2613.6</ele>
        <time>2026-07-19T09:59:50Z</time>
      </trkpt>
      <trkpt lat="45.18662" lon="5.97857">
        <ele>2612.8</ele>
        <time>2026-07-19T09:59:56Z</time>
      </trkpt>
      <trkpt lat="45.18662" lon="5.97858">
        <ele>2612.4</ele>
        <time>2026-07-19T10:00:01Z</time>
      </trkpt>
      <trkpt lat="45.18662" lon="5.97858">
        <ele>2611.6</ele>
        <time>2026-07-19T10:00:08Z</time>
      </trkpt>
      <trkpt lat="45.18663" lon="5.97859">
        <ele>2611.2</ele>
        <time>2026-07-19T10:00:14Z</time>
      </trkpt>
      <trkpt lat="45.1866" lon="5.97858">
        <ele>2611.2</ele>
        <time>2026-07-19T10:00:24Z</time>
      </trkpt>
      <trkpt lat="45.18658" lon="5.97856">
        <ele>2612.6</ele>
        <time>2026-07-19T10:00:33Z</time>
      </trkpt>
      <trkpt lat="45.18655" lon="5.97855">
        <ele>2611</ele>
        <time>2026-07-19T10:00:43Z</time>
      </trkpt>
      <trkpt lat="45.18655" lon="5.97855">
        <ele>2610.4</ele>
        <time>2026-07-19T10:00:52Z</time>
      </trkpt>
      <trkpt lat="45.18655" lon="5.97855">
        <ele>2609.8</ele>
        <time>2026-07-19T10:00:54Z</time>
      </trkpt>
      <trkpt lat="45.18654" lon="5.97856">
        <ele>2609.2</ele>
        <time>2026-07-19T10:00:56Z</time>
      </trkpt>
      <trkpt lat="45.18654" lon="5.97857">
        <ele>2608</ele>
        <time>2026-07-19T10:01:01Z</time>
      </trkpt>
      <trkpt lat="45.18654" lon="5.97856">
        <ele>2606.8</ele>
        <time>2026-07-19T10:01:04Z</time>
      </trkpt>
      <trkpt lat="45.18653" lon="5.97855">
        <ele>2606.6</ele>
        <time>2026-07-19T10:01:05Z</time>
      </trkpt>
      <trkpt lat="45.18648" lon="5.97853">
        <ele>2607.8</ele>
        <time>2026-07-19T10:01:11Z</time>
      </trkpt>
      <trkpt lat="45.18646" lon="5.97852">
        <ele>2608.2</ele>
        <time>2026-07-19T10:01:13Z</time>
      </trkpt>
      <trkpt lat="45.18645" lon="5.97851">
        <ele>2606.6</ele>
        <time>2026-07-19T10:01:15Z</time>
      </trkpt>
      <trkpt lat="45.18644" lon="5.9785">
        <ele>2606.6</ele>
        <time>2026-07-19T10:01:16Z</time>
      </trkpt>
      <trkpt lat="45.18643" lon="5.97848">
        <ele>2606.4</ele>
        <time>2026-07-19T10:01:19Z</time>
      </trkpt>
      <trkpt lat="45.18643" lon="5.97846">
        <ele>2605.4</ele>
        <time>2026-07-19T10:01:24Z</time>
      </trkpt>
      <trkpt lat="45.18643" lon="5.97844">
        <ele>2604.6</ele>
        <time>2026-07-19T10:01:26Z</time>
      </trkpt>
      <trkpt lat="45.18642" lon="5.97842">
        <ele>2604</ele>
        <time>2026-07-19T10:01:28Z</time>
      </trkpt>
      <trkpt lat="45.1864" lon="5.9784">
        <ele>2604.2</ele>
        <time>2026-07-19T10:01:31Z</time>
      </trkpt>
      <trkpt lat="45.1864" lon="5.97838">
        <ele>2604</ele>
        <time>2026-07-19T10:01:33Z</time>
      </trkpt>
      <trkpt lat="45.1864" lon="5.97837">
        <ele>2603.8</ele>
        <time>2026-07-19T10:01:35Z</time>
      </trkpt>
      <trkpt lat="45.18639" lon="5.97836">
        <ele>2603.6</ele>
        <time>2026-07-19T10:01:36Z</time>
      </trkpt>
      <trkpt lat="45.18638" lon="5.97835">
        <ele>2602.8</ele>
        <time>2026-07-19T10:01:39Z</time>
      </trkpt>
      <trkpt lat="45.18637" lon="5.97832">
        <ele>2602</ele>
        <time>2026-07-19T10:01:43Z</time>
      </trkpt>
      <trkpt lat="45.18637" lon="5.97831">
        <ele>2601.6</ele>
        <time>2026-07-19T10:01:44Z</time>
      </trkpt>
      <trkpt lat="45.18637" lon="5.97828">
        <ele>2600</ele>
        <time>2026-07-19T10:01:49Z</time>
      </trkpt>
      <trkpt lat="45.18636" lon="5.97828">
        <ele>2599.6</ele>
        <time>2026-07-19T10:01:50Z</time>
      </trkpt>
      <trkpt lat="45.18635" lon="5.97827">
        <ele>2598.8</ele>
        <time>2026-07-19T10:01:52Z</time>
      </trkpt>
      <trkpt lat="45.18634" lon="5.97828">
        <ele>2597.4</ele>
        <time>2026-07-19T10:01:54Z</time>
      </trkpt>
      <trkpt lat="45.18634" lon="5.97827">
        <ele>2595.8</ele>
        <time>2026-07-19T10:01:56Z</time>
      </trkpt>
      <trkpt lat="45.18634" lon="5.97826">
        <ele>2595</ele>
        <time>2026-07-19T10:01:58Z</time>
      </trkpt>
      <trkpt lat="45.18634" lon="5.97825">
        <ele>2594.6</ele>
        <time>2026-07-19T10:01:59Z</time>
      </trkpt>
      <trkpt lat="45.18633" lon="5.97822">
        <ele>2593.4</ele>
        <time>2026-07-19T10:02:02Z</time>
      </trkpt>
      <trkpt lat="45.18633" lon="5.97821">
        <ele>2592.2</ele>
        <time>2026-07-19T10:02:04Z</time>
      </trkpt>
      <trkpt lat="45.18632" lon="5.97822">
        <ele>2591.8</ele>
        <time>2026-07-19T10:02:06Z</time>
      </trkpt>
      <trkpt lat="45.18631" lon="5.97823">
        <ele>2591.2</ele>
        <time>2026-07-19T10:02:07Z</time>
      </trkpt>
      <trkpt lat="45.1863" lon="5.97825">
        <ele>2590.4</ele>
        <time>2026-07-19T10:02:09Z</time>
      </trkpt>
      <trkpt lat="45.1863" lon="5.97826">
        <ele>2590</ele>
        <time>2026-07-19T10:02:10Z</time>
      </trkpt>
      <trkpt lat="45.18629" lon="5.9783">
        <ele>2589</ele>
        <time>2026-07-19T10:02:13Z</time>
      </trkpt>
      <trkpt lat="45.18628" lon="5.97831">
        <ele>2588.6</ele>
        <time>2026-07-19T10:02:14Z</time>
      </trkpt>
      <trkpt lat="45.18623" lon="5.97835">
        <ele>2587.4</ele>
        <time>2026-07-19T10:02:20Z</time>
      </trkpt>
      <trkpt lat="45.18623" lon="5.97835">
        <ele>2587.4</ele>
        <time>2026-07-19T10:02:22Z</time>
      </trkpt>
      <trkpt lat="45.18621" lon="5.97835">
        <ele>2586.4</ele>
        <time>2026-07-19T10:02:33Z</time>
      </trkpt>
      <trkpt lat="45.18621" lon="5.97836">
        <ele>2586.6</ele>
        <time>2026-07-19T10:02:45Z</time>
      </trkpt>
      <trkpt lat="45.18622" lon="5.97835">
        <ele>2586.2</ele>
        <time>2026-07-19T10:02:46Z</time>
      </trkpt>
      <trkpt lat="45.18621" lon="5.97834">
        <ele>2585.2</ele>
        <time>2026-07-19T10:02:51Z</time>
      </trkpt>
      <trkpt lat="45.18621" lon="5.97834">
        <ele>2584.2</ele>
        <time>2026-07-19T10:02:54Z</time>
      </trkpt>
      <trkpt lat="45.1862" lon="5.97834">
        <ele>2584</ele>
        <time>2026-07-19T10:02:55Z</time>
      </trkpt>
      <trkpt lat="45.18619" lon="5.97836">
        <ele>2582.8</ele>
        <time>2026-07-19T10:02:58Z</time>
      </trkpt>
      <trkpt lat="45.18618" lon="5.97837">
        <ele>2582.6</ele>
        <time>2026-07-19T10:03:03Z</time>
      </trkpt>
      <trkpt lat="45.18618" lon="5.97837">
        <ele>2581.6</ele>
        <time>2026-07-19T10:03:04Z</time>
      </trkpt>
      <trkpt lat="45.18616" lon="5.9784">
        <ele>2580.8</ele>
        <time>2026-07-19T10:03:10Z</time>
      </trkpt>
      <trkpt lat="45.18616" lon="5.97841">
        <ele>2580.6</ele>
        <time>2026-07-19T10:03:11Z</time>
      </trkpt>
      <trkpt lat="45.18615" lon="5.97841">
        <ele>2579.8</ele>
        <time>2026-07-19T10:03:15Z</time>
      </trkpt>
      <trkpt lat="45.18614" lon="5.97841">
        <ele>2579.4</ele>
        <time>2026-07-19T10:03:17Z</time>
      </trkpt>
      <trkpt lat="45.18613" lon="5.97838">
        <ele>2578.2</ele>
        <time>2026-07-19T10:03:23Z</time>
      </trkpt>
      <trkpt lat="45.18613" lon="5.97836">
        <ele>2577</ele>
        <time>2026-07-19T10:03:29Z</time>
      </trkpt>
      <trkpt lat="45.18613" lon="5.97833">
        <ele>2576.2</ele>
        <time>2026-07-19T10:03:34Z</time>
      </trkpt>
      <trkpt lat="45.18613" lon="5.97832">
        <ele>2575.8</ele>
        <time>2026-07-19T10:03:35Z</time>
      </trkpt>
      <trkpt lat="45.18614" lon="5.97831">
        <ele>2574.6</ele>
        <time>2026-07-19T10:03:39Z</time>
      </trkpt>
      <trkpt lat="45.18613" lon="5.97832">
        <ele>2573.4</ele>
        <time>2026-07-19T10:03:43Z</time>
      </trkpt>
      <trkpt lat="45.18613" lon="5.97831">
        <ele>2573</ele>
        <time>2026-07-19T10:03:44Z</time>
      </trkpt>
      <trkpt lat="45.18613" lon="5.97831">
        <ele>2572</ele>
        <time>2026-07-19T10:03:47Z</time>
      </trkpt>
      <trkpt lat="45.18612" lon="5.97834">
        <ele>2570.8</ele>
        <time>2026-07-19T10:03:52Z</time>
      </trkpt>
      <trkpt lat="45.18611" lon="5.97833">
        <ele>2570.2</ele>
        <time>2026-07-19T10:03:54Z</time>
      </trkpt>
      <trkpt lat="45.18611" lon="5.97832">
        <ele>2569.6</ele>
        <time>2026-07-19T10:03:59Z</time>
      </trkpt>
      <trkpt lat="45.18609" lon="5.97833">
        <ele>2568.4</ele>
        <time>2026-07-19T10:04:03Z</time>
      </trkpt>
      <trkpt lat="45.18609" lon="5.97833">
        <ele>2567.8</ele>
        <time>2026-07-19T10:04:04Z</time>
      </trkpt>
      <trkpt lat="45.18609" lon="5.97834">
        <ele>2567.2</ele>
        <time>2026-07-19T10:04:06Z</time>
      </trkpt>
      <trkpt lat="45.18607" lon="5.97835">
        <ele>2566</ele>
        <time>2026-07-19T10:04:10Z</time>
      </trkpt>
      <trkpt lat="45.18604" lon="5.97834">
        <ele>2566</ele>
        <time>2026-07-19T10:04:14Z</time>
      </trkpt>
      <trkpt lat="45.18602" lon="5.97837">
        <ele>2565.8</ele>
        <time>2026-07-19T10:04:22Z</time>
      </trkpt>
      <trkpt lat="45.18599" lon="5.97836">
        <ele>2565</ele>
        <time>2026-07-19T10:04:28Z</time>
      </trkpt>
      <trkpt lat="45.18599" lon="5.97835">
        <ele>2564.8</ele>
        <time>2026-07-19T10:04:29Z</time>
      </trkpt>
      <trkpt lat="45.18597" lon="5.97835">
        <ele>2563.6</ele>
        <time>2026-07-19T10:04:34Z</time>
      </trkpt>
      <trkpt lat="45.18596" lon="5.97837">
        <ele>2562.4</ele>
        <time>2026-07-19T10:04:36Z</time>
      </trkpt>
      <trkpt lat="45.18596" lon="5.97839">
        <ele>2562.2</ele>
        <time>2026-07-19T10:04:37Z</time>
      </trkpt>
      <trkpt lat="45.18594" lon="5.97841">
        <ele>2561</ele>
        <time>2026-07-19T10:04:40Z</time>
      </trkpt>
      <trkpt lat="45.18594" lon="5.97841">
        <ele>2560.4</ele>
        <time>2026-07-19T10:04:41Z</time>
      </trkpt>
      <trkpt lat="45.18594" lon="5.9784">
        <ele>2559.4</ele>
        <time>2026-07-19T10:04:43Z</time>
      </trkpt>
      <trkpt lat="45.18594" lon="5.97838">
        <ele>2558.6</ele>
        <time>2026-07-19T10:04:45Z</time>
      </trkpt>
      <trkpt lat="45.18594" lon="5.97838">
        <ele>2558.2</ele>
        <time>2026-07-19T10:04:46Z</time>
      </trkpt>
      <trkpt lat="45.18593" lon="5.97838">
        <ele>2556.8</ele>
        <time>2026-07-19T10:04:50Z</time>
      </trkpt>
      <trkpt lat="45.18592" lon="5.97836">
        <ele>2555.6</ele>
        <time>2026-07-19T10:04:52Z</time>
      </trkpt>
      <trkpt lat="45.18592" lon="5.97836">
        <ele>2555</ele>
        <time>2026-07-19T10:04:53Z</time>
      </trkpt>
      <trkpt lat="45.18592" lon="5.97835">
        <ele>2554.4</ele>
        <time>2026-07-19T10:04:55Z</time>
      </trkpt>
      <trkpt lat="45.18592" lon="5.97834">
        <ele>2553.2</ele>
        <time>2026-07-19T10:04:57Z</time>
      </trkpt>
      <trkpt lat="45.18592" lon="5.97834">
        <ele>2552.4</ele>
        <time>2026-07-19T10:05:03Z</time>
      </trkpt>
      <trkpt lat="45.18591" lon="5.97834">
        <ele>2551.6</ele>
        <time>2026-07-19T10:05:07Z</time>
      </trkpt>
      <trkpt lat="45.18591" lon="5.97831">
        <ele>2550.6</ele>
        <time>2026-07-19T10:05:11Z</time>
      </trkpt>
      <trkpt lat="45.18591" lon="5.97832">
        <ele>2549.8</ele>
        <time>2026-07-19T10:05:12Z</time>
      </trkpt>
      <trkpt lat="45.18588" lon="5.97832">
        <ele>2549</ele>
        <time>2026-07-19T10:05:17Z</time>
      </trkpt>
      <trkpt lat="45.18588" lon="5.97831">
        <ele>2548.8</ele>
        <time>2026-07-19T10:05:19Z</time>
      </trkpt>
      <trkpt lat="45.18586" lon="5.97832">
        <ele>2547.6</ele>
        <time>2026-07-19T10:05:24Z</time>
      </trkpt>
      <trkpt lat="45.18586" lon="5.97832">
        <ele>2547.2</ele>
        <time>2026-07-19T10:05:26Z</time>
      </trkpt>
      <trkpt lat="45.18586" lon="5.9783">
        <ele>2546.4</ele>
        <time>2026-07-19T10:05:29Z</time>
      </trkpt>
      <trkpt lat="45.18584" lon="5.97826">
        <ele>2545.6</ele>
        <time>2026-07-19T10:05:33Z</time>
      </trkpt>
      <trkpt lat="45.18583" lon="5.97826">
        <ele>2545.6</ele>
        <time>2026-07-19T10:05:34Z</time>
      </trkpt>
      <trkpt lat="45.18582" lon="5.97825">
        <ele>2545.4</ele>
        <time>2026-07-19T10:05:36Z</time>
      </trkpt>
      <trkpt lat="45.18582" lon="5.97825">
        <ele>2545.2</ele>
        <time>2026-07-19T10:05:37Z</time>
      </trkpt>
      <trkpt lat="45.1858" lon="5.97824">
        <ele>2544.2</ele>
        <time>2026-07-19T10:05:41Z</time>
      </trkpt>
      <trkpt lat="45.18579" lon="5.97823">
        <ele>2544</ele>
        <time>2026-07-19T10:05:44Z</time>
      </trkpt>
      <trkpt lat="45.18579" lon="5.97824">
        <ele>2544.6</ele>
        <time>2026-07-19T10:05:57Z</time>
      </trkpt>
      <trkpt lat="45.18579" lon="5.97824">
        <ele>2545.2</ele>
        <time>2026-07-19T10:06:06Z</time>
      </trkpt>
      <trkpt lat="45.18578" lon="5.97825">
        <ele>2545.6</ele>
        <time>2026-07-19T10:06:19Z</time>
      </trkpt>
      <trkpt lat="45.18579" lon="5.97826">
        <ele>2545.8</ele>
        <time>2026-07-19T10:06:38Z</time>
      </trkpt>
      <trkpt lat="45.18576" lon="5.97822">
        <ele>2545.6</ele>
        <time>2026-07-19T10:06:45Z</time>
      </trkpt>
      <trkpt lat="45.18575" lon="5.9782">
        <ele>2545</ele>
        <time>2026-07-19T10:06:55Z</time>
      </trkpt>
      <trkpt lat="45.18575" lon="5.97822">
        <ele>2544</ele>
        <time>2026-07-19T10:07:01Z</time>
      </trkpt>
      <trkpt lat="45.18574" lon="5.97823">
        <ele>2543.6</ele>
        <time>2026-07-19T10:07:03Z</time>
      </trkpt>
      <trkpt lat="45.18573" lon="5.97824">
        <ele>2542</ele>
        <time>2026-07-19T10:07:06Z</time>
      </trkpt>
      <trkpt lat="45.18571" lon="5.97825">
        <ele>2541</ele>
        <time>2026-07-19T10:07:09Z</time>
      </trkpt>
      <trkpt lat="45.1857" lon="5.97826">
        <ele>2539.6</ele>
        <time>2026-07-19T10:07:12Z</time>
      </trkpt>
      <trkpt lat="45.18568" lon="5.97825">
        <ele>2538</ele>
        <time>2026-07-19T10:07:15Z</time>
      </trkpt>
      <trkpt lat="45.18567" lon="5.97822">
        <ele>2537.4</ele>
        <time>2026-07-19T10:07:21Z</time>
      </trkpt>
      <trkpt lat="45.18566" lon="5.97822">
        <ele>2536.6</ele>
        <time>2026-07-19T10:07:25Z</time>
      </trkpt>
      <trkpt lat="45.18564" lon="5.97823">
        <ele>2535.4</ele>
        <time>2026-07-19T10:07:31Z</time>
      </trkpt>
      <trkpt lat="45.18563" lon="5.97821">
        <ele>2534.2</ele>
        <time>2026-07-19T10:07:34Z</time>
      </trkpt>
      <trkpt lat="45.18562" lon="5.9782">
        <ele>2533</ele>
        <time>2026-07-19T10:07:37Z</time>
      </trkpt>
      <trkpt lat="45.18562" lon="5.97818">
        <ele>2531.6</ele>
        <time>2026-07-19T10:07:41Z</time>
      </trkpt>
      <trkpt lat="45.18562" lon="5.97817">
        <ele>2530.8</ele>
        <time>2026-07-19T10:07:44Z</time>
      </trkpt>
      <trkpt lat="45.18562" lon="5.97816">
        <ele>2530.4</ele>
        <time>2026-07-19T10:07:45Z</time>
      </trkpt>
      <trkpt lat="45.18562" lon="5.97815">
        <ele>2529.2</ele>
        <time>2026-07-19T10:07:50Z</time>
      </trkpt>
      <trkpt lat="45.18562" lon="5.97815">
        <ele>2528</ele>
        <time>2026-07-19T10:07:55Z</time>
      </trkpt>
      <trkpt lat="45.18562" lon="5.97815">
        <ele>2528</ele>
        <time>2026-07-19T10:07:56Z</time>
      </trkpt>
      <trkpt lat="45.18562" lon="5.97815">
        <ele>2526.6</ele>
        <time>2026-07-19T10:08:00Z</time>
      </trkpt>
      <trkpt lat="45.18563" lon="5.97812">
        <ele>2525.4</ele>
        <time>2026-07-19T10:08:07Z</time>
      </trkpt>
      <trkpt lat="45.18563" lon="5.9781">
        <ele>2524.4</ele>
        <time>2026-07-19T10:08:11Z</time>
      </trkpt>
      <trkpt lat="45.18563" lon="5.97811">
        <ele>2523.2</ele>
        <time>2026-07-19T10:08:16Z</time>
      </trkpt>
      <trkpt lat="45.18563" lon="5.97812">
        <ele>2522</ele>
        <time>2026-07-19T10:08:18Z</time>
      </trkpt>
      <trkpt lat="45.18562" lon="5.97812">
        <ele>2521</ele>
        <time>2026-07-19T10:08:20Z</time>
      </trkpt>
      <trkpt lat="45.18562" lon="5.97812">
        <ele>2520.4</ele>
        <time>2026-07-19T10:08:21Z</time>
      </trkpt>
      <trkpt lat="45.18561" lon="5.97812">
        <ele>2519.4</ele>
        <time>2026-07-19T10:08:25Z</time>
      </trkpt>
      <trkpt lat="45.18563" lon="5.97811">
        <ele>2517.8</ele>
        <time>2026-07-19T10:08:29Z</time>
      </trkpt>
      <trkpt lat="45.18563" lon="5.97812">
        <ele>2517.8</ele>
        <time>2026-07-19T10:08:32Z</time>
      </trkpt>
      <trkpt lat="45.18562" lon="5.97814">
        <ele>2516.6</ele>
        <time>2026-07-19T10:08:40Z</time>
      </trkpt>
      <trkpt lat="45.18561" lon="5.97814">
        <ele>2516.2</ele>
        <time>2026-07-19T10:08:43Z</time>
      </trkpt>
      <trkpt lat="45.18559" lon="5.97815">
        <ele>2515.4</ele>
        <time>2026-07-19T10:08:48Z</time>
      </trkpt>
      <trkpt lat="45.18559" lon="5.97815">
        <ele>2514.2</ele>
        <time>2026-07-19T10:08:51Z</time>
      </trkpt>
      <trkpt lat="45.18559" lon="5.97815">
        <ele>2512.6</ele>
        <time>2026-07-19T10:08:54Z</time>
      </trkpt>
      <trkpt lat="45.18558" lon="5.97813">
        <ele>2511</ele>
        <time>2026-07-19T10:08:57Z</time>
      </trkpt>
      <trkpt lat="45.18559" lon="5.97812">
        <ele>2509.8</ele>
        <time>2026-07-19T10:08:59Z</time>
      </trkpt>
      <trkpt lat="45.18559" lon="5.97812">
        <ele>2508.6</ele>
        <time>2026-07-19T10:09:02Z</time>
      </trkpt>
      <trkpt lat="45.18558" lon="5.97812">
        <ele>2508.2</ele>
        <time>2026-07-19T10:09:03Z</time>
      </trkpt>
      <trkpt lat="45.18558" lon="5.97814">
        <ele>2507.2</ele>
        <time>2026-07-19T10:09:07Z</time>
      </trkpt>
      <trkpt lat="45.18559" lon="5.97817">
        <ele>2505.8</ele>
        <time>2026-07-19T10:09:12Z</time>
      </trkpt>
      <trkpt lat="45.18559" lon="5.97818">
        <ele>2504.4</ele>
        <time>2026-07-19T10:09:15Z</time>
      </trkpt>
      <trkpt lat="45.18559" lon="5.97818">
        <ele>2503.2</ele>
        <time>2026-07-19T10:09:19Z</time>
      </trkpt>
      <trkpt lat="45.18559" lon="5.97819">
        <ele>2501.8</ele>
        <time>2026-07-19T10:09:22Z</time>
      </trkpt>
      <trkpt lat="45.18559" lon="5.97818">
        <ele>2500.6</ele>
        <time>2026-07-19T10:09:27Z</time>
      </trkpt>
      <trkpt lat="45.18557" lon="5.97817">
        <ele>2503.4</ele>
        <time>2026-07-19T10:09:32Z</time>
      </trkpt>
      <trkpt lat="45.18556" lon="5.97818">
        <ele>2504.8</ele>
        <time>2026-07-19T10:09:36Z</time>
      </trkpt>
      <trkpt lat="45.18555" lon="5.97817">
        <ele>2506.4</ele>
        <time>2026-07-19T10:09:38Z</time>
      </trkpt>
      <trkpt lat="45.18553" lon="5.97817">
        <ele>2507.6</ele>
        <time>2026-07-19T10:09:41Z</time>
      </trkpt>
      <trkpt lat="45.18552" lon="5.97817">
        <ele>2509</ele>
        <time>2026-07-19T10:09:46Z</time>
      </trkpt>
      <trkpt lat="45.18551" lon="5.97816">
        <ele>2510.2</ele>
        <time>2026-07-19T10:09:48Z</time>
      </trkpt>
      <trkpt lat="45.1855" lon="5.97815">
        <ele>2511.2</ele>
        <time>2026-07-19T10:09:49Z</time>
      </trkpt>
      <trkpt lat="45.18549" lon="5.97813">
        <ele>2512</ele>
        <time>2026-07-19T10:09:51Z</time>
      </trkpt>
      <trkpt lat="45.18549" lon="5.97813">
        <ele>2512.6</ele>
        <time>2026-07-19T10:09:52Z</time>
      </trkpt>
      <trkpt lat="45.18548" lon="5.97813">
        <ele>2513.8</ele>
        <time>2026-07-19T10:09:55Z</time>
      </trkpt>
      <trkpt lat="45.18547" lon="5.97814">
        <ele>2513.6</ele>
        <time>2026-07-19T10:10:02Z</time>
      </trkpt>
      <trkpt lat="45.18545" lon="5.97813">
        <ele>2513</ele>
        <time>2026-07-19T10:10:12Z</time>
      </trkpt>
      <trkpt lat="45.18545" lon="5.97813">
        <ele>2512.6</ele>
        <time>2026-07-19T10:10:15Z</time>
      </trkpt>
      <trkpt lat="45.18545" lon="5.97812">
        <ele>2511.4</ele>
        <time>2026-07-19T10:10:24Z</time>
      </trkpt>
      <trkpt lat="45.18545" lon="5.97812">
        <ele>2511.2</ele>
        <time>2026-07-19T10:10:25Z</time>
      </trkpt>
      <trkpt lat="45.18544" lon="5.97812">
        <ele>2510.2</ele>
        <time>2026-07-19T10:10:30Z</time>
      </trkpt>
      <trkpt lat="45.18543" lon="5.97812">
        <ele>2509.2</ele>
        <time>2026-07-19T10:10:35Z</time>
      </trkpt>
      <trkpt lat="45.18543" lon="5.97812">
        <ele>2508.6</ele>
        <time>2026-07-19T10:10:38Z</time>
      </trkpt>
      <trkpt lat="45.18543" lon="5.97812">
        <ele>2508</ele>
        <time>2026-07-19T10:10:39Z</time>
      </trkpt>
      <trkpt lat="45.18539" lon="5.97812">
        <ele>2506.8</ele>
        <time>2026-07-19T10:10:45Z</time>
      </trkpt>
      <trkpt lat="45.18539" lon="5.97812">
        <ele>2506.6</ele>
        <time>2026-07-19T10:10:46Z</time>
      </trkpt>
      <trkpt lat="45.18537" lon="5.97813">
        <ele>2505.6</ele>
        <time>2026-07-19T10:10:49Z</time>
      </trkpt>
      <trkpt lat="45.18536" lon="5.97813">
        <ele>2505.2</ele>
        <time>2026-07-19T10:10:50Z</time>
      </trkpt>
      <trkpt lat="45.18535" lon="5.97814">
        <ele>2504.4</ele>
        <time>2026-07-19T10:10:52Z</time>
      </trkpt>
      <trkpt lat="45.18533" lon="5.97816">
        <ele>2504</ele>
        <time>2026-07-19T10:10:54Z</time>
      </trkpt>
      <trkpt lat="45.18532" lon="5.97816">
        <ele>2503.4</ele>
        <time>2026-07-19T10:10:55Z</time>
      </trkpt>
      <trkpt lat="45.18532" lon="5.97817">
        <ele>2502.8</ele>
        <time>2026-07-19T10:10:56Z</time>
      </trkpt>
      <trkpt lat="45.1853" lon="5.97818">
        <ele>2501.6</ele>
        <time>2026-07-19T10:10:58Z</time>
      </trkpt>
      <trkpt lat="45.18528" lon="5.97819">
        <ele>2500.2</ele>
        <time>2026-07-19T10:11:00Z</time>
      </trkpt>
      <trkpt lat="45.18526" lon="5.97817">
        <ele>2498.6</ele>
        <time>2026-07-19T10:11:03Z</time>
      </trkpt>
      <trkpt lat="45.18526" lon="5.97818">
        <ele>2497.6</ele>
        <time>2026-07-19T10:11:05Z</time>
      </trkpt>
      <trkpt lat="45.18526" lon="5.97818">
        <ele>2497.2</ele>
        <time>2026-07-19T10:11:06Z</time>
      </trkpt>
      <trkpt lat="45.18527" lon="5.97819">
        <ele>2495.8</ele>
        <time>2026-07-19T10:11:09Z</time>
      </trkpt>
      <trkpt lat="45.18528" lon="5.97819">
        <ele>2494.2</ele>
        <time>2026-07-19T10:11:12Z</time>
      </trkpt>
      <trkpt lat="45.18528" lon="5.97817">
        <ele>2493.6</ele>
        <time>2026-07-19T10:11:14Z</time>
      </trkpt>
      <trkpt lat="45.18528" lon="5.97814">
        <ele>2492.8</ele>
        <time>2026-07-19T10:11:16Z</time>
      </trkpt>
      <trkpt lat="45.18528" lon="5.97804">
        <ele>2492.2</ele>
        <time>2026-07-19T10:11:20Z</time>
      </trkpt>
      <trkpt lat="45.18527" lon="5.97799">
        <ele>2492.6</ele>
        <time>2026-07-19T10:11:24Z</time>
      </trkpt>
      <trkpt lat="45.18523" lon="5.97789">
        <ele>2491.8</ele>
        <time>2026-07-19T10:11:30Z</time>
      </trkpt>
      <trkpt lat="45.18523" lon="5.97787">
        <ele>2490.8</ele>
        <time>2026-07-19T10:11:31Z</time>
      </trkpt>
      <trkpt lat="45.18523" lon="5.97784">
        <ele>2490</ele>
        <time>2026-07-19T10:11:34Z</time>
      </trkpt>
      <trkpt lat="45.18521" lon="5.97781">
        <ele>2489.8</ele>
        <time>2026-07-19T10:11:36Z</time>
      </trkpt>
      <trkpt lat="45.18521" lon="5.9778">
        <ele>2489.2</ele>
        <time>2026-07-19T10:11:37Z</time>
      </trkpt>
      <trkpt lat="45.18518" lon="5.97772">
        <ele>2488</ele>
        <time>2026-07-19T10:11:41Z</time>
      </trkpt>
      <trkpt lat="45.18517" lon="5.97768">
        <ele>2487.2</ele>
        <time>2026-07-19T10:11:43Z</time>
      </trkpt>
      <trkpt lat="45.18515" lon="5.97759">
        <ele>2487.4</ele>
        <time>2026-07-19T10:11:49Z</time>
      </trkpt>
      <trkpt lat="45.18514" lon="5.97757">
        <ele>2487.2</ele>
        <time>2026-07-19T10:11:50Z</time>
      </trkpt>
      <trkpt lat="45.18509" lon="5.9775">
        <ele>2488.4</ele>
        <time>2026-07-19T10:11:55Z</time>
      </trkpt>
      <trkpt lat="45.18509" lon="5.97748">
        <ele>2488.4</ele>
        <time>2026-07-19T10:11:56Z</time>
      </trkpt>
      <trkpt lat="45.18507" lon="5.97744">
        <ele>2489.4</ele>
        <time>2026-07-19T10:11:59Z</time>
      </trkpt>
      <trkpt lat="45.18506" lon="5.97742">
        <ele>2490.2</ele>
        <time>2026-07-19T10:12:01Z</time>
      </trkpt>
      <trkpt lat="45.18505" lon="5.9774">
        <ele>2491.8</ele>
        <time>2026-07-19T10:12:03Z</time>
      </trkpt>
      <trkpt lat="45.18504" lon="5.9774">
        <ele>2492.2</ele>
        <time>2026-07-19T10:12:04Z</time>
      </trkpt>
      <trkpt lat="45.18505" lon="5.97737">
        <ele>2492.2</ele>
        <time>2026-07-19T10:12:09Z</time>
      </trkpt>
      <trkpt lat="45.18505" lon="5.97736">
        <ele>2493.2</ele>
        <time>2026-07-19T10:12:13Z</time>
      </trkpt>
      <trkpt lat="45.18505" lon="5.97737">
        <ele>2493.6</ele>
        <time>2026-07-19T10:12:19Z</time>
      </trkpt>
      <trkpt lat="45.18502" lon="5.9774">
        <ele>2492</ele>
        <time>2026-07-19T10:12:24Z</time>
      </trkpt>
      <trkpt lat="45.18501" lon="5.97739">
        <ele>2491.2</ele>
        <time>2026-07-19T10:12:26Z</time>
      </trkpt>
      <trkpt lat="45.185" lon="5.97739">
        <ele>2490.8</ele>
        <time>2026-07-19T10:12:27Z</time>
      </trkpt>
      <trkpt lat="45.18497" lon="5.97737">
        <ele>2489.4</ele>
        <time>2026-07-19T10:12:31Z</time>
      </trkpt>
      <trkpt lat="45.18496" lon="5.97736">
        <ele>2488.6</ele>
        <time>2026-07-19T10:12:33Z</time>
      </trkpt>
      <trkpt lat="45.18495" lon="5.97735">
        <ele>2488.2</ele>
        <time>2026-07-19T10:12:35Z</time>
      </trkpt>
      <trkpt lat="45.18493" lon="5.97733">
        <ele>2487.4</ele>
        <time>2026-07-19T10:12:38Z</time>
      </trkpt>
      <trkpt lat="45.18493" lon="5.97733">
        <ele>2487</ele>
        <time>2026-07-19T10:12:39Z</time>
      </trkpt>
      <trkpt lat="45.18492" lon="5.97733">
        <ele>2486.6</ele>
        <time>2026-07-19T10:12:40Z</time>
      </trkpt>
      <trkpt lat="45.18491" lon="5.97733">
        <ele>2486.8</ele>
        <time>2026-07-19T10:12:42Z</time>
      </trkpt>
      <trkpt lat="45.18491" lon="5.97732">
        <ele>2486</ele>
        <time>2026-07-19T10:12:48Z</time>
      </trkpt>
      <trkpt lat="45.18491" lon="5.97732">
        <ele>2485.8</ele>
        <time>2026-07-19T10:12:49Z</time>
      </trkpt>
      <trkpt lat="45.18495" lon="5.97732">
        <ele>2487</ele>
        <time>2026-07-19T10:12:54Z</time>
      </trkpt>
      <trkpt lat="45.18497" lon="5.97734">
        <ele>2487.4</ele>
        <time>2026-07-19T10:12:56Z</time>
      </trkpt>
      <trkpt lat="45.185" lon="5.97735">
        <ele>2488.2</ele>
        <time>2026-07-19T10:13:01Z</time>
      </trkpt>
      <trkpt lat="45.185" lon="5.97735">
        <ele>2488.4</ele>
        <time>2026-07-19T10:13:02Z</time>
      </trkpt>
      <trkpt lat="45.18502" lon="5.97737">
        <ele>2489.4</ele>
        <time>2026-07-19T10:13:05Z</time>
      </trkpt>
      <trkpt lat="45.18504" lon="5.97737">
        <ele>2490.4</ele>
        <time>2026-07-19T10:13:07Z</time>
      </trkpt>
      <trkpt lat="45.18506" lon="5.97736">
        <ele>2491.8</ele>
        <time>2026-07-19T10:13:10Z</time>
      </trkpt>
      <trkpt lat="45.18507" lon="5.97734">
        <ele>2493.2</ele>
        <time>2026-07-19T10:13:13Z</time>
      </trkpt>
      <trkpt lat="45.18509" lon="5.97733">
        <ele>2494.8</ele>
        <time>2026-07-19T10:13:18Z</time>
      </trkpt>
      <trkpt lat="45.1851" lon="5.97733">
        <ele>2495.6</ele>
        <time>2026-07-19T10:13:21Z</time>
      </trkpt>
      <trkpt lat="45.1851" lon="5.97733">
        <ele>2496</ele>
        <time>2026-07-19T10:13:22Z</time>
      </trkpt>
      <trkpt lat="45.18512" lon="5.97735">
        <ele>2497.2</ele>
        <time>2026-07-19T10:13:27Z</time>
      </trkpt>
      <trkpt lat="45.18512" lon="5.97735">
        <ele>2497.6</ele>
        <time>2026-07-19T10:13:29Z</time>
      </trkpt>
      <trkpt lat="45.18513" lon="5.97734">
        <ele>2498.4</ele>
        <time>2026-07-19T10:13:32Z</time>
      </trkpt>
      <trkpt lat="45.18514" lon="5.97732">
        <ele>2499.8</ele>
        <time>2026-07-19T10:13:36Z</time>
      </trkpt>
      <trkpt lat="45.18514" lon="5.97732">
        <ele>2500.4</ele>
        <time>2026-07-19T10:13:38Z</time>
      </trkpt>
      <trkpt lat="45.18514" lon="5.97731">
        <ele>2501</ele>
        <time>2026-07-19T10:13:40Z</time>
      </trkpt>
      <trkpt lat="45.18515" lon="5.97729">
        <ele>2501.8</ele>
        <time>2026-07-19T10:13:47Z</time>
      </trkpt>
      <trkpt lat="45.18515" lon="5.97729">
        <ele>2502.2</ele>
        <time>2026-07-19T10:13:49Z</time>
      </trkpt>
      <trkpt lat="45.18515" lon="5.97726">
        <ele>2502.8</ele>
        <time>2026-07-19T10:13:59Z</time>
      </trkpt>
      <trkpt lat="45.18513" lon="5.9772">
        <ele>2503.2</ele>
        <time>2026-07-19T10:14:08Z</time>
      </trkpt>
      <trkpt lat="45.18513" lon="5.97717">
        <ele>2503.4</ele>
        <time>2026-07-19T10:14:12Z</time>
      </trkpt>
      <trkpt lat="45.18513" lon="5.97713">
        <ele>2503</ele>
        <time>2026-07-19T10:14:16Z</time>
      </trkpt>
      <trkpt lat="45.18512" lon="5.97711">
        <ele>2502.8</ele>
        <time>2026-07-19T10:14:17Z</time>
      </trkpt>
      <trkpt lat="45.18512" lon="5.9771">
        <ele>2503</ele>
        <time>2026-07-19T10:14:18Z</time>
      </trkpt>
      <trkpt lat="45.18512" lon="5.97709">
        <ele>2502.6</ele>
        <time>2026-07-19T10:14:20Z</time>
      </trkpt>
      <trkpt lat="45.18512" lon="5.97708">
        <ele>2503.4</ele>
        <time>2026-07-19T10:14:23Z</time>
      </trkpt>
      <trkpt lat="45.18511" lon="5.97702">
        <ele>2502.8</ele>
        <time>2026-07-19T10:14:28Z</time>
      </trkpt>
      <trkpt lat="45.18511" lon="5.97701">
        <ele>2502.6</ele>
        <time>2026-07-19T10:14:30Z</time>
      </trkpt>
      <trkpt lat="45.1851" lon="5.97699">
        <ele>2502.8</ele>
        <time>2026-07-19T10:14:32Z</time>
      </trkpt>
      <trkpt lat="45.1851" lon="5.97698">
        <ele>2502.8</ele>
        <time>2026-07-19T10:14:33Z</time>
      </trkpt>
      <trkpt lat="45.18511" lon="5.97692">
        <ele>2502.6</ele>
        <time>2026-07-19T10:14:38Z</time>
      </trkpt>
      <trkpt lat="45.18511" lon="5.9769">
        <ele>2502.6</ele>
        <time>2026-07-19T10:14:39Z</time>
      </trkpt>
      <trkpt lat="45.1851" lon="5.97688">
        <ele>2502.6</ele>
        <time>2026-07-19T10:14:41Z</time>
      </trkpt>
      <trkpt lat="45.18511" lon="5.97684">
        <ele>2502.6</ele>
        <time>2026-07-19T10:14:44Z</time>
      </trkpt>
      <trkpt lat="45.18511" lon="5.97683">
        <ele>2502.8</ele>
        <time>2026-07-19T10:14:46Z</time>
      </trkpt>
      <trkpt lat="45.18512" lon="5.97681">
        <ele>2502.2</ele>
        <time>2026-07-19T10:14:49Z</time>
      </trkpt>
      <trkpt lat="45.18512" lon="5.97679">
        <ele>2502.4</ele>
        <time>2026-07-19T10:14:51Z</time>
      </trkpt>
      <trkpt lat="45.18513" lon="5.97672">
        <ele>2502.6</ele>
        <time>2026-07-19T10:14:57Z</time>
      </trkpt>
      <trkpt lat="45.18513" lon="5.97672">
        <ele>2502.8</ele>
        <time>2026-07-19T10:14:58Z</time>
      </trkpt>
      <trkpt lat="45.18516" lon="5.97667">
        <ele>2503</ele>
        <time>2026-07-19T10:15:03Z</time>
      </trkpt>
      <trkpt lat="45.18518" lon="5.97661">
        <ele>2503.4</ele>
        <time>2026-07-19T10:15:07Z</time>
      </trkpt>
      <trkpt lat="45.18518" lon="5.97657">
        <ele>2502.2</ele>
        <time>2026-07-19T10:15:10Z</time>
      </trkpt>
      <trkpt lat="45.18519" lon="5.97649">
        <ele>2501.6</ele>
        <time>2026-07-19T10:15:16Z</time>
      </trkpt>
      <trkpt lat="45.18519" lon="5.97648">
        <ele>2501</ele>
        <time>2026-07-19T10:15:17Z</time>
      </trkpt>
      <trkpt lat="45.18519" lon="5.97647">
        <ele>2501</ele>
        <time>2026-07-19T10:15:22Z</time>
      </trkpt>
      <trkpt lat="45.18517" lon="5.9765">
        <ele>2499.8</ele>
        <time>2026-07-19T10:15:29Z</time>
      </trkpt>
      <trkpt lat="45.18515" lon="5.97651">
        <ele>2499</ele>
        <time>2026-07-19T10:15:32Z</time>
      </trkpt>
      <trkpt lat="45.18514" lon="5.9765">
        <ele>2498.6</ele>
        <time>2026-07-19T10:15:33Z</time>
      </trkpt>
      <trkpt lat="45.18514" lon="5.97647">
        <ele>2497</ele>
        <time>2026-07-19T10:15:37Z</time>
      </trkpt>
      <trkpt lat="45.18513" lon="5.97646">
        <ele>2496.6</ele>
        <time>2026-07-19T10:15:39Z</time>
      </trkpt>
      <trkpt lat="45.18511" lon="5.97645">
        <ele>2495.8</ele>
        <time>2026-07-19T10:15:41Z</time>
      </trkpt>
      <trkpt lat="45.18509" lon="5.97642">
        <ele>2495</ele>
        <time>2026-07-19T10:15:45Z</time>
      </trkpt>
      <trkpt lat="45.18508" lon="5.97642">
        <ele>2494.8</ele>
        <time>2026-07-19T10:15:47Z</time>
      </trkpt>
      <trkpt lat="45.18507" lon="5.97641">
        <ele>2494.6</ele>
        <time>2026-07-19T10:15:48Z</time>
      </trkpt>
      <trkpt lat="45.18506" lon="5.9764">
        <ele>2493.4</ele>
        <time>2026-07-19T10:15:50Z</time>
      </trkpt>
      <trkpt lat="45.18506" lon="5.97639">
        <ele>2492.8</ele>
        <time>2026-07-19T10:15:52Z</time>
      </trkpt>
      <trkpt lat="45.18505" lon="5.97638">
        <ele>2492</ele>
        <time>2026-07-19T10:15:54Z</time>
      </trkpt>
      <trkpt lat="45.18503" lon="5.97638">
        <ele>2490.8</ele>
        <time>2026-07-19T10:15:56Z</time>
      </trkpt>
      <trkpt lat="45.18502" lon="5.97637">
        <ele>2489.6</ele>
        <time>2026-07-19T10:15:59Z</time>
      </trkpt>
      <trkpt lat="45.18501" lon="5.97636">
        <ele>2488.4</ele>
        <time>2026-07-19T10:16:02Z</time>
      </trkpt>
      <trkpt lat="45.185" lon="5.97635">
        <ele>2486.8</ele>
        <time>2026-07-19T10:16:05Z</time>
      </trkpt>
      <trkpt lat="45.185" lon="5.97634">
        <ele>2486</ele>
        <time>2026-07-19T10:16:06Z</time>
      </trkpt>
      <trkpt lat="45.18499" lon="5.97633">
        <ele>2485.6</ele>
        <time>2026-07-19T10:16:07Z</time>
      </trkpt>
      <trkpt lat="45.18499" lon="5.9763">
        <ele>2484</ele>
        <time>2026-07-19T10:16:10Z</time>
      </trkpt>
      <trkpt lat="45.18498" lon="5.97629">
        <ele>2482.6</ele>
        <time>2026-07-19T10:16:14Z</time>
      </trkpt>
      <trkpt lat="45.18498" lon="5.97629">
        <ele>2482</ele>
        <time>2026-07-19T10:16:15Z</time>
      </trkpt>
      <trkpt lat="45.18497" lon="5.97628">
        <ele>2481.6</ele>
        <time>2026-07-19T10:16:16Z</time>
      </trkpt>
      <trkpt lat="45.18496" lon="5.97625">
        <ele>2480.4</ele>
        <time>2026-07-19T10:16:18Z</time>
      </trkpt>
      <trkpt lat="45.18495" lon="5.97622">
        <ele>2478.2</ele>
        <time>2026-07-19T10:16:21Z</time>
      </trkpt>
      <trkpt lat="45.18494" lon="5.97621">
        <ele>2477.6</ele>
        <time>2026-07-19T10:16:22Z</time>
      </trkpt>
      <trkpt lat="45.18492" lon="5.97619">
        <ele>2476.8</ele>
        <time>2026-07-19T10:16:24Z</time>
      </trkpt>
      <trkpt lat="45.18491" lon="5.97617">
        <ele>2475.2</ele>
        <time>2026-07-19T10:16:26Z</time>
      </trkpt>
      <trkpt lat="45.1849" lon="5.97616">
        <ele>2474.6</ele>
        <time>2026-07-19T10:16:27Z</time>
      </trkpt>
      <trkpt lat="45.18489" lon="5.97615">
        <ele>2474</ele>
        <time>2026-07-19T10:16:28Z</time>
      </trkpt>
      <trkpt lat="45.18489" lon="5.97612">
        <ele>2472.6</ele>
        <time>2026-07-19T10:16:30Z</time>
      </trkpt>
      <trkpt lat="45.18488" lon="5.97609">
        <ele>2471.2</ele>
        <time>2026-07-19T10:16:32Z</time>
      </trkpt>
      <trkpt lat="45.18488" lon="5.97608">
        <ele>2470.6</ele>
        <time>2026-07-19T10:16:33Z</time>
      </trkpt>
      <trkpt lat="45.18487" lon="5.97607">
        <ele>2470</ele>
        <time>2026-07-19T10:16:34Z</time>
      </trkpt>
      <trkpt lat="45.18486" lon="5.97604">
        <ele>2468.6</ele>
        <time>2026-07-19T10:16:37Z</time>
      </trkpt>
      <trkpt lat="45.18485" lon="5.97602">
        <ele>2467.6</ele>
        <time>2026-07-19T10:16:39Z</time>
      </trkpt>
      <trkpt lat="45.18484" lon="5.97601">
        <ele>2467.2</ele>
        <time>2026-07-19T10:16:40Z</time>
      </trkpt>
      <trkpt lat="45.18484" lon="5.97598">
        <ele>2465.8</ele>
        <time>2026-07-19T10:16:43Z</time>
      </trkpt>
      <trkpt lat="45.18483" lon="5.97598">
        <ele>2464.6</ele>
        <time>2026-07-19T10:16:45Z</time>
      </trkpt>
      <trkpt lat="45.18483" lon="5.97596">
        <ele>2463.4</ele>
        <time>2026-07-19T10:16:47Z</time>
      </trkpt>
      <trkpt lat="45.18482" lon="5.97595">
        <ele>2462</ele>
        <time>2026-07-19T10:16:49Z</time>
      </trkpt>
      <trkpt lat="45.1848" lon="5.97594">
        <ele>2460.8</ele>
        <time>2026-07-19T10:16:51Z</time>
      </trkpt>
      <trkpt lat="45.1848" lon="5.97594">
        <ele>2460</ele>
        <time>2026-07-19T10:16:52Z</time>
      </trkpt>
      <trkpt lat="45.1848" lon="5.97591">
        <ele>2458.6</ele>
        <time>2026-07-19T10:16:53Z</time>
      </trkpt>
      <trkpt lat="45.1848" lon="5.9759">
        <ele>2458</ele>
        <time>2026-07-19T10:16:54Z</time>
      </trkpt>
      <trkpt lat="45.18479" lon="5.97588">
        <ele>2457.4</ele>
        <time>2026-07-19T10:16:55Z</time>
      </trkpt>
      <trkpt lat="45.18478" lon="5.97585">
        <ele>2456.2</ele>
        <time>2026-07-19T10:16:57Z</time>
      </trkpt>
      <trkpt lat="45.18477" lon="5.97584">
        <ele>2455.4</ele>
        <time>2026-07-19T10:16:58Z</time>
      </trkpt>
      <trkpt lat="45.18477" lon="5.97583">
        <ele>2454.8</ele>
        <time>2026-07-19T10:16:59Z</time>
      </trkpt>
      <trkpt lat="45.18476" lon="5.97579">
        <ele>2453.4</ele>
        <time>2026-07-19T10:17:02Z</time>
      </trkpt>
      <trkpt lat="45.18476" lon="5.97577">
        <ele>2453.2</ele>
        <time>2026-07-19T10:17:03Z</time>
      </trkpt>
      <trkpt lat="45.18476" lon="5.97576">
        <ele>2453</ele>
        <time>2026-07-19T10:17:04Z</time>
      </trkpt>
      <trkpt lat="45.18477" lon="5.97569">
        <ele>2452.2</ele>
        <time>2026-07-19T10:17:09Z</time>
      </trkpt>
      <trkpt lat="45.18476" lon="5.97565">
        <ele>2450.8</ele>
        <time>2026-07-19T10:17:12Z</time>
      </trkpt>
      <trkpt lat="45.18476" lon="5.97562">
        <ele>2450.2</ele>
        <time>2026-07-19T10:17:14Z</time>
      </trkpt>
      <trkpt lat="45.18475" lon="5.97561">
        <ele>2449.6</ele>
        <time>2026-07-19T10:17:15Z</time>
      </trkpt>
      <trkpt lat="45.18474" lon="5.97558">
        <ele>2448.2</ele>
        <time>2026-07-19T10:17:18Z</time>
      </trkpt>
      <trkpt lat="45.18473" lon="5.97554">
        <ele>2446.6</ele>
        <time>2026-07-19T10:17:20Z</time>
      </trkpt>
      <trkpt lat="45.18473" lon="5.97552">
        <ele>2446</ele>
        <time>2026-07-19T10:17:21Z</time>
      </trkpt>
      <trkpt lat="45.18471" lon="5.97548">
        <ele>2445.4</ele>
        <time>2026-07-19T10:17:23Z</time>
      </trkpt>
      <trkpt lat="45.1847" lon="5.97546">
        <ele>2444.8</ele>
        <time>2026-07-19T10:17:24Z</time>
      </trkpt>
      <trkpt lat="45.18469" lon="5.9754">
        <ele>2444.4</ele>
        <time>2026-07-19T10:17:26Z</time>
      </trkpt>
      <trkpt lat="45.18467" lon="5.97526">
        <ele>2445.6</ele>
        <time>2026-07-19T10:17:31Z</time>
      </trkpt>
      <trkpt lat="45.18466" lon="5.97523">
        <ele>2445.4</ele>
        <time>2026-07-19T10:17:32Z</time>
      </trkpt>
      <trkpt lat="45.18464" lon="5.97512">
        <ele>2446</ele>
        <time>2026-07-19T10:17:36Z</time>
      </trkpt>
      <trkpt lat="45.18466" lon="5.97507">
        <ele>2445.4</ele>
        <time>2026-07-19T10:17:40Z</time>
      </trkpt>
      <trkpt lat="45.18466" lon="5.97507">
        <ele>2445.2</ele>
        <time>2026-07-19T10:17:41Z</time>
      </trkpt>
      <trkpt lat="45.18467" lon="5.97507">
        <ele>2444.2</ele>
        <time>2026-07-19T10:17:54Z</time>
      </trkpt>
      <trkpt lat="45.18467" lon="5.97507">
        <ele>2444</ele>
        <time>2026-07-19T10:17:55Z</time>
      </trkpt>
      <trkpt lat="45.18466" lon="5.97507">
        <ele>2443</ele>
        <time>2026-07-19T10:17:59Z</time>
      </trkpt>
      <trkpt lat="45.18467" lon="5.97507">
        <ele>2443</ele>
        <time>2026-07-19T10:18:10Z</time>
      </trkpt>
      <trkpt lat="45.18465" lon="5.97504">
        <ele>2444.4</ele>
        <time>2026-07-19T10:18:20Z</time>
      </trkpt>
      <trkpt lat="45.18462" lon="5.97495">
        <ele>2445.4</ele>
        <time>2026-07-19T10:18:24Z</time>
      </trkpt>
      <trkpt lat="45.18462" lon="5.97493">
        <ele>2445.8</ele>
        <time>2026-07-19T10:18:25Z</time>
      </trkpt>
      <trkpt lat="45.18462" lon="5.9749">
        <ele>2446</ele>
        <time>2026-07-19T10:18:26Z</time>
      </trkpt>
      <trkpt lat="45.18461" lon="5.97486">
        <ele>2446.6</ele>
        <time>2026-07-19T10:18:32Z</time>
      </trkpt>
      <trkpt lat="45.18459" lon="5.97484">
        <ele>2446.8</ele>
        <time>2026-07-19T10:18:47Z</time>
      </trkpt>
      <trkpt lat="45.18456" lon="5.97477">
        <ele>2446.6</ele>
        <time>2026-07-19T10:18:51Z</time>
      </trkpt>
      <trkpt lat="45.18454" lon="5.97474">
        <ele>2446.2</ele>
        <time>2026-07-19T10:18:53Z</time>
      </trkpt>
      <trkpt lat="45.18451" lon="5.97467">
        <ele>2445.4</ele>
        <time>2026-07-19T10:18:58Z</time>
      </trkpt>
      <trkpt lat="45.18451" lon="5.97466">
        <ele>2445</ele>
        <time>2026-07-19T10:18:59Z</time>
      </trkpt>
      <trkpt lat="45.1845" lon="5.97464">
        <ele>2444.6</ele>
        <time>2026-07-19T10:19:01Z</time>
      </trkpt>
      <trkpt lat="45.18449" lon="5.97462">
        <ele>2444</ele>
        <time>2026-07-19T10:19:03Z</time>
      </trkpt>
      <trkpt lat="45.18448" lon="5.9746">
        <ele>2443.4</ele>
        <time>2026-07-19T10:19:05Z</time>
      </trkpt>
      <trkpt lat="45.18448" lon="5.97459">
        <ele>2443.2</ele>
        <time>2026-07-19T10:19:06Z</time>
      </trkpt>
      <trkpt lat="45.18447" lon="5.97458">
        <ele>2442.2</ele>
        <time>2026-07-19T10:19:08Z</time>
      </trkpt>
      <trkpt lat="45.18446" lon="5.97456">
        <ele>2441</ele>
        <time>2026-07-19T10:19:14Z</time>
      </trkpt>
      <trkpt lat="45.18446" lon="5.97456">
        <ele>2440.8</ele>
        <time>2026-07-19T10:19:16Z</time>
      </trkpt>
      <trkpt lat="45.18446" lon="5.97457">
        <ele>2439.8</ele>
        <time>2026-07-19T10:19:20Z</time>
      </trkpt>
      <trkpt lat="45.18445" lon="5.97459">
        <ele>2438.6</ele>
        <time>2026-07-19T10:19:22Z</time>
      </trkpt>
      <trkpt lat="45.18443" lon="5.9746">
        <ele>2437.8</ele>
        <time>2026-07-19T10:19:25Z</time>
      </trkpt>
      <trkpt lat="45.18443" lon="5.9746">
        <ele>2437.4</ele>
        <time>2026-07-19T10:19:26Z</time>
      </trkpt>
      <trkpt lat="45.18442" lon="5.97463">
        <ele>2436</ele>
        <time>2026-07-19T10:19:29Z</time>
      </trkpt>
      <trkpt lat="45.1844" lon="5.97464">
        <ele>2435</ele>
        <time>2026-07-19T10:19:32Z</time>
      </trkpt>
      <trkpt lat="45.18439" lon="5.97463">
        <ele>2434.6</ele>
        <time>2026-07-19T10:19:33Z</time>
      </trkpt>
      <trkpt lat="45.18439" lon="5.97463">
        <ele>2434.2</ele>
        <time>2026-07-19T10:19:34Z</time>
      </trkpt>
      <trkpt lat="45.18437" lon="5.97463">
        <ele>2433.4</ele>
        <time>2026-07-19T10:19:37Z</time>
      </trkpt>
      <trkpt lat="45.18435" lon="5.97463">
        <ele>2432</ele>
        <time>2026-07-19T10:19:41Z</time>
      </trkpt>
      <trkpt lat="45.18434" lon="5.97463">
        <ele>2430.8</ele>
        <time>2026-07-19T10:19:44Z</time>
      </trkpt>
      <trkpt lat="45.18431" lon="5.97462">
        <ele>2429.8</ele>
        <time>2026-07-19T10:19:50Z</time>
      </trkpt>
      <trkpt lat="45.18431" lon="5.97461">
        <ele>2428.4</ele>
        <time>2026-07-19T10:19:52Z</time>
      </trkpt>
      <trkpt lat="45.1843" lon="5.97463">
        <ele>2426.8</ele>
        <time>2026-07-19T10:19:55Z</time>
      </trkpt>
      <trkpt lat="45.1843" lon="5.97464">
        <ele>2425.6</ele>
        <time>2026-07-19T10:19:58Z</time>
      </trkpt>
      <trkpt lat="45.18428" lon="5.97467">
        <ele>2424.6</ele>
        <time>2026-07-19T10:20:02Z</time>
      </trkpt>
      <trkpt lat="45.18428" lon="5.97468">
        <ele>2424.4</ele>
        <time>2026-07-19T10:20:03Z</time>
      </trkpt>
      <trkpt lat="45.18426" lon="5.97469">
        <ele>2423.2</ele>
        <time>2026-07-19T10:20:07Z</time>
      </trkpt>
      <trkpt lat="45.18424" lon="5.97467">
        <ele>2422.6</ele>
        <time>2026-07-19T10:20:11Z</time>
      </trkpt>
      <trkpt lat="45.18424" lon="5.97466">
        <ele>2422.2</ele>
        <time>2026-07-19T10:20:13Z</time>
      </trkpt>
      <trkpt lat="45.18423" lon="5.97462">
        <ele>2421.8</ele>
        <time>2026-07-19T10:20:22Z</time>
      </trkpt>
      <trkpt lat="45.18421" lon="5.97462">
        <ele>2421</ele>
        <time>2026-07-19T10:20:25Z</time>
      </trkpt>
      <trkpt lat="45.18419" lon="5.97459">
        <ele>2420.4</ele>
        <time>2026-07-19T10:20:30Z</time>
      </trkpt>
      <trkpt lat="45.18419" lon="5.97458">
        <ele>2419.8</ele>
        <time>2026-07-19T10:20:35Z</time>
      </trkpt>
      <trkpt lat="45.18422" lon="5.97452">
        <ele>2419.2</ele>
        <time>2026-07-19T10:20:39Z</time>
      </trkpt>
      <trkpt lat="45.1842" lon="5.97443">
        <ele>2419.2</ele>
        <time>2026-07-19T10:20:48Z</time>
      </trkpt>
      <trkpt lat="45.1842" lon="5.97441">
        <ele>2418.6</ele>
        <time>2026-07-19T10:20:56Z</time>
      </trkpt>
      <trkpt lat="45.1842" lon="5.97439">
        <ele>2418.4</ele>
        <time>2026-07-19T10:20:57Z</time>
      </trkpt>
      <trkpt lat="45.1842" lon="5.97428">
        <ele>2418.8</ele>
        <time>2026-07-19T10:21:05Z</time>
      </trkpt>
      <trkpt lat="45.18419" lon="5.97426">
        <ele>2419.8</ele>
        <time>2026-07-19T10:21:09Z</time>
      </trkpt>
      <trkpt lat="45.18418" lon="5.97424">
        <ele>2421</ele>
        <time>2026-07-19T10:21:11Z</time>
      </trkpt>
      <trkpt lat="45.18418" lon="5.97422">
        <ele>2421.6</ele>
        <time>2026-07-19T10:21:13Z</time>
      </trkpt>
      <trkpt lat="45.18417" lon="5.9742">
        <ele>2420.2</ele>
        <time>2026-07-19T10:21:22Z</time>
      </trkpt>
      <trkpt lat="45.18417" lon="5.9742">
        <ele>2419.8</ele>
        <time>2026-07-19T10:21:23Z</time>
      </trkpt>
      <trkpt lat="45.18415" lon="5.97419">
        <ele>2418.4</ele>
        <time>2026-07-19T10:21:26Z</time>
      </trkpt>
      <trkpt lat="45.18413" lon="5.97416">
        <ele>2416.8</ele>
        <time>2026-07-19T10:21:29Z</time>
      </trkpt>
      <trkpt lat="45.18412" lon="5.97416">
        <ele>2416.4</ele>
        <time>2026-07-19T10:21:30Z</time>
      </trkpt>
      <trkpt lat="45.18411" lon="5.97414">
        <ele>2415.8</ele>
        <time>2026-07-19T10:21:32Z</time>
      </trkpt>
      <trkpt lat="45.18411" lon="5.97413">
        <ele>2415.4</ele>
        <time>2026-07-19T10:21:33Z</time>
      </trkpt>
      <trkpt lat="45.1841" lon="5.97413">
        <ele>2415.2</ele>
        <time>2026-07-19T10:21:34Z</time>
      </trkpt>
      <trkpt lat="45.18409" lon="5.97412">
        <ele>2414.8</ele>
        <time>2026-07-19T10:21:35Z</time>
      </trkpt>
      <trkpt lat="45.18408" lon="5.97411">
        <ele>2414.4</ele>
        <time>2026-07-19T10:21:36Z</time>
      </trkpt>
      <trkpt lat="45.18404" lon="5.97407">
        <ele>2413.2</ele>
        <time>2026-07-19T10:21:39Z</time>
      </trkpt>
      <trkpt lat="45.18403" lon="5.97406">
        <ele>2412.6</ele>
        <time>2026-07-19T10:21:40Z</time>
      </trkpt>
      <trkpt lat="45.18401" lon="5.97404">
        <ele>2411.8</ele>
        <time>2026-07-19T10:21:42Z</time>
      </trkpt>
      <trkpt lat="45.18399" lon="5.97402">
        <ele>2410.4</ele>
        <time>2026-07-19T10:21:45Z</time>
      </trkpt>
      <trkpt lat="45.18398" lon="5.97402">
        <ele>2409.4</ele>
        <time>2026-07-19T10:21:47Z</time>
      </trkpt>
      <trkpt lat="45.18398" lon="5.97401">
        <ele>2408.8</ele>
        <time>2026-07-19T10:21:48Z</time>
      </trkpt>
      <trkpt lat="45.18397" lon="5.97401">
        <ele>2407.4</ele>
        <time>2026-07-19T10:21:51Z</time>
      </trkpt>
      <trkpt lat="45.18396" lon="5.97401">
        <ele>2406.6</ele>
        <time>2026-07-19T10:21:53Z</time>
      </trkpt>
      <trkpt lat="45.18396" lon="5.974">
        <ele>2405.8</ele>
        <time>2026-07-19T10:21:54Z</time>
      </trkpt>
      <trkpt lat="45.18393" lon="5.97399">
        <ele>2404.4</ele>
        <time>2026-07-19T10:21:56Z</time>
      </trkpt>
      <trkpt lat="45.18391" lon="5.97398">
        <ele>2403.8</ele>
        <time>2026-07-19T10:21:57Z</time>
      </trkpt>
      <trkpt lat="45.18389" lon="5.97397">
        <ele>2403</ele>
        <time>2026-07-19T10:21:59Z</time>
      </trkpt>
      <trkpt lat="45.18388" lon="5.97396">
        <ele>2402.4</ele>
        <time>2026-07-19T10:22:00Z</time>
      </trkpt>
      <trkpt lat="45.18387" lon="5.97396">
        <ele>2401.6</ele>
        <time>2026-07-19T10:22:02Z</time>
      </trkpt>
      <trkpt lat="45.18387" lon="5.97394">
        <ele>2400.2</ele>
        <time>2026-07-19T10:22:05Z</time>
      </trkpt>
      <trkpt lat="45.18386" lon="5.97393">
        <ele>2398.4</ele>
        <time>2026-07-19T10:22:07Z</time>
      </trkpt>
      <trkpt lat="45.18385" lon="5.97391">
        <ele>2397.8</ele>
        <time>2026-07-19T10:22:08Z</time>
      </trkpt>
      <trkpt lat="45.18384" lon="5.97391">
        <ele>2397</ele>
        <time>2026-07-19T10:22:09Z</time>
      </trkpt>
      <trkpt lat="45.18383" lon="5.97389">
        <ele>2395.2</ele>
        <time>2026-07-19T10:22:11Z</time>
      </trkpt>
      <trkpt lat="45.18382" lon="5.97388">
        <ele>2393.8</ele>
        <time>2026-07-19T10:22:13Z</time>
      </trkpt>
      <trkpt lat="45.1838" lon="5.97387">
        <ele>2392.6</ele>
        <time>2026-07-19T10:22:15Z</time>
      </trkpt>
      <trkpt lat="45.18377" lon="5.97387">
        <ele>2391.2</ele>
        <time>2026-07-19T10:22:18Z</time>
      </trkpt>
      <trkpt lat="45.18375" lon="5.97385">
        <ele>2390</ele>
        <time>2026-07-19T10:22:21Z</time>
      </trkpt>
      <trkpt lat="45.18374" lon="5.97383">
        <ele>2388.4</ele>
        <time>2026-07-19T10:22:24Z</time>
      </trkpt>
      <trkpt lat="45.18374" lon="5.97382">
        <ele>2387.2</ele>
        <time>2026-07-19T10:22:26Z</time>
      </trkpt>
      <trkpt lat="45.18373" lon="5.97381">
        <ele>2386.8</ele>
        <time>2026-07-19T10:22:27Z</time>
      </trkpt>
      <trkpt lat="45.18373" lon="5.97381">
        <ele>2386.4</ele>
        <time>2026-07-19T10:22:28Z</time>
      </trkpt>
      <trkpt lat="45.18372" lon="5.97381">
        <ele>2386</ele>
        <time>2026-07-19T10:22:29Z</time>
      </trkpt>
      <trkpt lat="45.18371" lon="5.9738">
        <ele>2384.6</ele>
        <time>2026-07-19T10:22:33Z</time>
      </trkpt>
      <trkpt lat="45.18369" lon="5.97378">
        <ele>2383.2</ele>
        <time>2026-07-19T10:22:36Z</time>
      </trkpt>
      <trkpt lat="45.18368" lon="5.97376">
        <ele>2382</ele>
        <time>2026-07-19T10:22:40Z</time>
      </trkpt>
      <trkpt lat="45.18366" lon="5.97375">
        <ele>2380.6</ele>
        <time>2026-07-19T10:22:43Z</time>
      </trkpt>
      <trkpt lat="45.18366" lon="5.97374">
        <ele>2379.4</ele>
        <time>2026-07-19T10:22:45Z</time>
      </trkpt>
      <trkpt lat="45.18365" lon="5.97373">
        <ele>2378</ele>
        <time>2026-07-19T10:22:48Z</time>
      </trkpt>
      <trkpt lat="45.18365" lon="5.97371">
        <ele>2376.8</ele>
        <time>2026-07-19T10:22:50Z</time>
      </trkpt>
      <trkpt lat="45.18364" lon="5.9737">
        <ele>2375.2</ele>
        <time>2026-07-19T10:22:52Z</time>
      </trkpt>
      <trkpt lat="45.18363" lon="5.97369">
        <ele>2374.6</ele>
        <time>2026-07-19T10:22:53Z</time>
      </trkpt>
      <trkpt lat="45.18362" lon="5.97367">
        <ele>2373.8</ele>
        <time>2026-07-19T10:22:55Z</time>
      </trkpt>
      <trkpt lat="45.1836" lon="5.97365">
        <ele>2373.2</ele>
        <time>2026-07-19T10:23:01Z</time>
      </trkpt>
      <trkpt lat="45.1836" lon="5.97365">
        <ele>2372.4</ele>
        <time>2026-07-19T10:23:03Z</time>
      </trkpt>
      <trkpt lat="45.18359" lon="5.97366">
        <ele>2371.2</ele>
        <time>2026-07-19T10:23:06Z</time>
      </trkpt>
      <trkpt lat="45.18358" lon="5.97367">
        <ele>2370</ele>
        <time>2026-07-19T10:23:09Z</time>
      </trkpt>
      <trkpt lat="45.18358" lon="5.97366">
        <ele>2369.6</ele>
        <time>2026-07-19T10:23:12Z</time>
      </trkpt>
      <trkpt lat="45.18357" lon="5.97366">
        <ele>2368.8</ele>
        <time>2026-07-19T10:23:19Z</time>
      </trkpt>
      <trkpt lat="45.18355" lon="5.97366">
        <ele>2367.4</ele>
        <time>2026-07-19T10:23:24Z</time>
      </trkpt>
      <trkpt lat="45.18353" lon="5.97364">
        <ele>2366.2</ele>
        <time>2026-07-19T10:23:29Z</time>
      </trkpt>
      <trkpt lat="45.18352" lon="5.97361">
        <ele>2365</ele>
        <time>2026-07-19T10:23:31Z</time>
      </trkpt>
      <trkpt lat="45.18352" lon="5.9736">
        <ele>2364.6</ele>
        <time>2026-07-19T10:23:32Z</time>
      </trkpt>
      <trkpt lat="45.18351" lon="5.97359">
        <ele>2364</ele>
        <time>2026-07-19T10:23:35Z</time>
      </trkpt>
      <trkpt lat="45.1835" lon="5.97359">
        <ele>2363.8</ele>
        <time>2026-07-19T10:23:36Z</time>
      </trkpt>
      <trkpt lat="45.18348" lon="5.97357">
        <ele>2362.6</ele>
        <time>2026-07-19T10:23:40Z</time>
      </trkpt>
      <trkpt lat="45.18346" lon="5.97357">
        <ele>2362</ele>
        <time>2026-07-19T10:23:42Z</time>
      </trkpt>
      <trkpt lat="45.18344" lon="5.97355">
        <ele>2361.4</ele>
        <time>2026-07-19T10:23:45Z</time>
      </trkpt>
      <trkpt lat="45.18342" lon="5.97353">
        <ele>2360.2</ele>
        <time>2026-07-19T10:23:49Z</time>
      </trkpt>
      <trkpt lat="45.1834" lon="5.97351">
        <ele>2358.6</ele>
        <time>2026-07-19T10:23:54Z</time>
      </trkpt>
      <trkpt lat="45.18339" lon="5.97349">
        <ele>2357.4</ele>
        <time>2026-07-19T10:23:58Z</time>
      </trkpt>
      <trkpt lat="45.18338" lon="5.97347">
        <ele>2356.2</ele>
        <time>2026-07-19T10:24:03Z</time>
      </trkpt>
      <trkpt lat="45.18338" lon="5.97345">
        <ele>2354.8</ele>
        <time>2026-07-19T10:24:06Z</time>
      </trkpt>
      <trkpt lat="45.18336" lon="5.97346">
        <ele>2353.4</ele>
        <time>2026-07-19T10:24:09Z</time>
      </trkpt>
      <trkpt lat="45.18336" lon="5.97344">
        <ele>2352.8</ele>
        <time>2026-07-19T10:24:13Z</time>
      </trkpt>
      <trkpt lat="45.18335" lon="5.97344">
        <ele>2352.2</ele>
        <time>2026-07-19T10:24:15Z</time>
      </trkpt>
      <trkpt lat="45.18331" lon="5.97345">
        <ele>2351</ele>
        <time>2026-07-19T10:24:20Z</time>
      </trkpt>
      <trkpt lat="45.18331" lon="5.97344">
        <ele>2350</ele>
        <time>2026-07-19T10:24:29Z</time>
      </trkpt>
      <trkpt lat="45.18331" lon="5.97344">
        <ele>2349.8</ele>
        <time>2026-07-19T10:24:35Z</time>
      </trkpt>
      <trkpt lat="45.18333" lon="5.97344">
        <ele>2348.6</ele>
        <time>2026-07-19T10:24:43Z</time>
      </trkpt>
      <trkpt lat="45.18332" lon="5.97345">
        <ele>2348.6</ele>
        <time>2026-07-19T10:24:44Z</time>
      </trkpt>
      <trkpt lat="45.18334" lon="5.97348">
        <ele>2347.8</ele>
        <time>2026-07-19T10:24:54Z</time>
      </trkpt>
      <trkpt lat="45.18334" lon="5.97348">
        <ele>2347.6</ele>
        <time>2026-07-19T10:24:55Z</time>
      </trkpt>
      <trkpt lat="45.18334" lon="5.97352">
        <ele>2347.4</ele>
        <time>2026-07-19T10:25:02Z</time>
      </trkpt>
      <trkpt lat="45.18334" lon="5.97355">
        <ele>2347</ele>
        <time>2026-07-19T10:25:12Z</time>
      </trkpt>
      <trkpt lat="45.18337" lon="5.97359">
        <ele>2348.4</ele>
        <time>2026-07-19T10:25:22Z</time>
      </trkpt>
      <trkpt lat="45.18338" lon="5.97359">
        <ele>2348.6</ele>
        <time>2026-07-19T10:25:23Z</time>
      </trkpt>
      <trkpt lat="45.18334" lon="5.97363">
        <ele>2348.6</ele>
        <time>2026-07-19T10:25:33Z</time>
      </trkpt>
      <trkpt lat="45.18335" lon="5.97367">
        <ele>2348.4</ele>
        <time>2026-07-19T10:25:42Z</time>
      </trkpt>
      <trkpt lat="45.18336" lon="5.97373">
        <ele>2348</ele>
        <time>2026-07-19T10:25:49Z</time>
      </trkpt>
      <trkpt lat="45.18336" lon="5.97376">
        <ele>2347.6</ele>
        <time>2026-07-19T10:25:55Z</time>
      </trkpt>
      <trkpt lat="45.18335" lon="5.97377">
        <ele>2347.6</ele>
        <time>2026-07-19T10:25:57Z</time>
      </trkpt>
      <trkpt lat="45.18333" lon="5.97386">
        <ele>2348</ele>
        <time>2026-07-19T10:26:07Z</time>
      </trkpt>
      <trkpt lat="45.18334" lon="5.97391">
        <ele>2347</ele>
        <time>2026-07-19T10:26:17Z</time>
      </trkpt>
      <trkpt lat="45.18334" lon="5.97394">
        <ele>2347</ele>
        <time>2026-07-19T10:26:26Z</time>
      </trkpt>
      <trkpt lat="45.18331" lon="5.97394">
        <ele>2345.8</ele>
        <time>2026-07-19T10:26:31Z</time>
      </trkpt>
      <trkpt lat="45.18331" lon="5.97394">
        <ele>2344.4</ele>
        <time>2026-07-19T10:26:34Z</time>
      </trkpt>
      <trkpt lat="45.18332" lon="5.97395">
        <ele>2343.4</ele>
        <time>2026-07-19T10:26:37Z</time>
      </trkpt>
      <trkpt lat="45.18332" lon="5.97395">
        <ele>2343</ele>
        <time>2026-07-19T10:26:38Z</time>
      </trkpt>
      <trkpt lat="45.18334" lon="5.97398">
        <ele>2342.6</ele>
        <time>2026-07-19T10:26:46Z</time>
      </trkpt>
      <trkpt lat="45.18334" lon="5.97402">
        <ele>2343.4</ele>
        <time>2026-07-19T10:26:51Z</time>
      </trkpt>
      <trkpt lat="45.18334" lon="5.97404">
        <ele>2343</ele>
        <time>2026-07-19T10:26:54Z</time>
      </trkpt>
      <trkpt lat="45.18333" lon="5.97411">
        <ele>2341.8</ele>
        <time>2026-07-19T10:27:00Z</time>
      </trkpt>
      <trkpt lat="45.18334" lon="5.97413">
        <ele>2341.4</ele>
        <time>2026-07-19T10:27:02Z</time>
      </trkpt>
      <trkpt lat="45.18333" lon="5.97415">
        <ele>2341</ele>
        <time>2026-07-19T10:27:05Z</time>
      </trkpt>
      <trkpt lat="45.18334" lon="5.97415">
        <ele>2340.4</ele>
        <time>2026-07-19T10:27:07Z</time>
      </trkpt>
      <trkpt lat="45.18334" lon="5.97415">
        <ele>2339.8</ele>
        <time>2026-07-19T10:27:10Z</time>
      </trkpt>
      <trkpt lat="45.18334" lon="5.97417">
        <ele>2339.2</ele>
        <time>2026-07-19T10:27:15Z</time>
      </trkpt>
      <trkpt lat="45.18333" lon="5.97419">
        <ele>2338.4</ele>
        <time>2026-07-19T10:27:19Z</time>
      </trkpt>
      <trkpt lat="45.18336" lon="5.97423">
        <ele>2338.2</ele>
        <time>2026-07-19T10:27:27Z</time>
      </trkpt>
      <trkpt lat="45.18336" lon="5.97423">
        <ele>2338</ele>
        <time>2026-07-19T10:27:28Z</time>
      </trkpt>
      <trkpt lat="45.18336" lon="5.97425">
        <ele>2338.2</ele>
        <time>2026-07-19T10:27:35Z</time>
      </trkpt>
      <trkpt lat="45.18336" lon="5.97426">
        <ele>2339.4</ele>
        <time>2026-07-19T10:27:37Z</time>
      </trkpt>
      <trkpt lat="45.18336" lon="5.97427">
        <ele>2340.6</ele>
        <time>2026-07-19T10:27:39Z</time>
      </trkpt>
      <trkpt lat="45.18336" lon="5.97428">
        <ele>2341.8</ele>
        <time>2026-07-19T10:27:47Z</time>
      </trkpt>
      <trkpt lat="45.18335" lon="5.97427">
        <ele>2341.6</ele>
        <time>2026-07-19T10:27:51Z</time>
      </trkpt>
      <trkpt lat="45.18331" lon="5.97423">
        <ele>2341.2</ele>
        <time>2026-07-19T10:28:02Z</time>
      </trkpt>
      <trkpt lat="45.18331" lon="5.97424">
        <ele>2340.6</ele>
        <time>2026-07-19T10:28:04Z</time>
      </trkpt>
      <trkpt lat="45.18328" lon="5.97424">
        <ele>2339.4</ele>
        <time>2026-07-19T10:28:10Z</time>
      </trkpt>
      <trkpt lat="45.18328" lon="5.97425">
        <ele>2339.4</ele>
        <time>2026-07-19T10:28:11Z</time>
      </trkpt>
      <trkpt lat="45.18328" lon="5.9742">
        <ele>2339.8</ele>
        <time>2026-07-19T10:28:21Z</time>
      </trkpt>
      <trkpt lat="45.1833" lon="5.97413">
        <ele>2338.6</ele>
        <time>2026-07-19T10:28:32Z</time>
      </trkpt>
      <trkpt lat="45.1833" lon="5.97413">
        <ele>2338.4</ele>
        <time>2026-07-19T10:28:33Z</time>
      </trkpt>
      <trkpt lat="45.1833" lon="5.97414">
        <ele>2337.2</ele>
        <time>2026-07-19T10:28:40Z</time>
      </trkpt>
      <trkpt lat="45.1833" lon="5.97414">
        <ele>2336.8</ele>
        <time>2026-07-19T10:28:42Z</time>
      </trkpt>
      <trkpt lat="45.1833" lon="5.97415">
        <ele>2336</ele>
        <time>2026-07-19T10:28:51Z</time>
      </trkpt>
      <trkpt lat="45.18329" lon="5.97416">
        <ele>2335.8</ele>
        <time>2026-07-19T10:28:56Z</time>
      </trkpt>
      <trkpt lat="45.18328" lon="5.97416">
        <ele>2334.6</ele>
        <time>2026-07-19T10:29:00Z</time>
      </trkpt>
      <trkpt lat="45.18328" lon="5.97414">
        <ele>2333.4</ele>
        <time>2026-07-19T10:29:04Z</time>
      </trkpt>
      <trkpt lat="45.18327" lon="5.97412">
        <ele>2333.2</ele>
        <time>2026-07-19T10:29:09Z</time>
      </trkpt>
      <trkpt lat="45.18325" lon="5.97412">
        <ele>2332</ele>
        <time>2026-07-19T10:29:15Z</time>
      </trkpt>
      <trkpt lat="45.18324" lon="5.97412">
        <ele>2330.8</ele>
        <time>2026-07-19T10:29:19Z</time>
      </trkpt>
      <trkpt lat="45.18322" lon="5.97413">
        <ele>2329.6</ele>
        <time>2026-07-19T10:29:24Z</time>
      </trkpt>
      <trkpt lat="45.18321" lon="5.97413">
        <ele>2329</ele>
        <time>2026-07-19T10:29:31Z</time>
      </trkpt>
      <trkpt lat="45.1832" lon="5.97411">
        <ele>2328.4</ele>
        <time>2026-07-19T10:29:37Z</time>
      </trkpt>
      <trkpt lat="45.18319" lon="5.97409">
        <ele>2327.4</ele>
        <time>2026-07-19T10:29:42Z</time>
      </trkpt>
      <trkpt lat="45.18319" lon="5.9741">
        <ele>2327.6</ele>
        <time>2026-07-19T10:29:55Z</time>
      </trkpt>
      <trkpt lat="45.18318" lon="5.97413">
        <ele>2326</ele>
        <time>2026-07-19T10:30:01Z</time>
      </trkpt>
      <trkpt lat="45.18318" lon="5.97413">
        <ele>2324.8</ele>
        <time>2026-07-19T10:30:05Z</time>
      </trkpt>
      <trkpt lat="45.18317" lon="5.97415">
        <ele>2323.6</ele>
        <time>2026-07-19T10:30:18Z</time>
      </trkpt>
      <trkpt lat="45.18316" lon="5.97416">
        <ele>2322.4</ele>
        <time>2026-07-19T10:30:24Z</time>
      </trkpt>
      <trkpt lat="45.18315" lon="5.97418">
        <ele>2321.2</ele>
        <time>2026-07-19T10:30:27Z</time>
      </trkpt>
      <trkpt lat="45.18315" lon="5.97419">
        <ele>2320.8</ele>
        <time>2026-07-19T10:30:28Z</time>
      </trkpt>
      <trkpt lat="45.18315" lon="5.97424">
        <ele>2321.2</ele>
        <time>2026-07-19T10:30:36Z</time>
      </trkpt>
      <trkpt lat="45.18313" lon="5.97426">
        <ele>2320</ele>
        <time>2026-07-19T10:30:43Z</time>
      </trkpt>
      <trkpt lat="45.18312" lon="5.97425">
        <ele>2318.6</ele>
        <time>2026-07-19T10:30:47Z</time>
      </trkpt>
      <trkpt lat="45.1831" lon="5.97427">
        <ele>2318.2</ele>
        <time>2026-07-19T10:30:51Z</time>
      </trkpt>
      <trkpt lat="45.18308" lon="5.97427">
        <ele>2318.4</ele>
        <time>2026-07-19T10:30:54Z</time>
      </trkpt>
      <trkpt lat="45.18308" lon="5.97427">
        <ele>2318.4</ele>
        <time>2026-07-19T10:30:56Z</time>
      </trkpt>
      <trkpt lat="45.18305" lon="5.97427">
        <ele>2317.4</ele>
        <time>2026-07-19T10:31:03Z</time>
      </trkpt>
      <trkpt lat="45.18304" lon="5.97426">
        <ele>2317.6</ele>
        <time>2026-07-19T10:31:07Z</time>
      </trkpt>
      <trkpt lat="45.18304" lon="5.97425">
        <ele>2316.2</ele>
        <time>2026-07-19T10:31:10Z</time>
      </trkpt>
      <trkpt lat="45.18304" lon="5.97426">
        <ele>2315</ele>
        <time>2026-07-19T10:31:12Z</time>
      </trkpt>
      <trkpt lat="45.18304" lon="5.97428">
        <ele>2314.4</ele>
        <time>2026-07-19T10:31:14Z</time>
      </trkpt>
      <trkpt lat="45.18303" lon="5.9743">
        <ele>2313.6</ele>
        <time>2026-07-19T10:31:16Z</time>
      </trkpt>
      <trkpt lat="45.18301" lon="5.97432">
        <ele>2312.2</ele>
        <time>2026-07-19T10:31:19Z</time>
      </trkpt>
      <trkpt lat="45.183" lon="5.97431">
        <ele>2310.8</ele>
        <time>2026-07-19T10:31:22Z</time>
      </trkpt>
      <trkpt lat="45.18299" lon="5.97432">
        <ele>2309.6</ele>
        <time>2026-07-19T10:31:25Z</time>
      </trkpt>
      <trkpt lat="45.18297" lon="5.97433">
        <ele>2308.2</ele>
        <time>2026-07-19T10:31:28Z</time>
      </trkpt>
      <trkpt lat="45.18295" lon="5.97434">
        <ele>2306.6</ele>
        <time>2026-07-19T10:31:31Z</time>
      </trkpt>
      <trkpt lat="45.18295" lon="5.97434">
        <ele>2306</ele>
        <time>2026-07-19T10:31:32Z</time>
      </trkpt>
      <trkpt lat="45.18294" lon="5.97434">
        <ele>2305.4</ele>
        <time>2026-07-19T10:31:33Z</time>
      </trkpt>
      <trkpt lat="45.18293" lon="5.97434">
        <ele>2304.4</ele>
        <time>2026-07-19T10:31:35Z</time>
      </trkpt>
      <trkpt lat="45.18292" lon="5.97434">
        <ele>2304</ele>
        <time>2026-07-19T10:31:36Z</time>
      </trkpt>
      <trkpt lat="45.18292" lon="5.97435">
        <ele>2303.4</ele>
        <time>2026-07-19T10:31:37Z</time>
      </trkpt>
      <trkpt lat="45.18291" lon="5.97434">
        <ele>2302.8</ele>
        <time>2026-07-19T10:31:38Z</time>
      </trkpt>
      <trkpt lat="45.18289" lon="5.97434">
        <ele>2301.2</ele>
        <time>2026-07-19T10:31:41Z</time>
      </trkpt>
      <trkpt lat="45.18288" lon="5.97434">
        <ele>2300</ele>
        <time>2026-07-19T10:31:43Z</time>
      </trkpt>
      <trkpt lat="45.18287" lon="5.97434">
        <ele>2299.6</ele>
        <time>2026-07-19T10:31:44Z</time>
      </trkpt>
      <trkpt lat="45.18285" lon="5.97433">
        <ele>2298.6</ele>
        <time>2026-07-19T10:31:46Z</time>
      </trkpt>
      <trkpt lat="45.18285" lon="5.97432">
        <ele>2298</ele>
        <time>2026-07-19T10:31:47Z</time>
      </trkpt>
      <trkpt lat="45.18284" lon="5.97432">
        <ele>2297.4</ele>
        <time>2026-07-19T10:31:48Z</time>
      </trkpt>
      <trkpt lat="45.18282" lon="5.97432">
        <ele>2297</ele>
        <time>2026-07-19T10:31:49Z</time>
      </trkpt>
      <trkpt lat="45.1828" lon="5.97432">
        <ele>2295.8</ele>
        <time>2026-07-19T10:31:51Z</time>
      </trkpt>
      <trkpt lat="45.18279" lon="5.97433">
        <ele>2295.4</ele>
        <time>2026-07-19T10:31:52Z</time>
      </trkpt>
      <trkpt lat="45.18276" lon="5.97434">
        <ele>2294.6</ele>
        <time>2026-07-19T10:31:55Z</time>
      </trkpt>
      <trkpt lat="45.18274" lon="5.97435">
        <ele>2293.2</ele>
        <time>2026-07-19T10:31:58Z</time>
      </trkpt>
      <trkpt lat="45.1827" lon="5.97437">
        <ele>2291.6</ele>
        <time>2026-07-19T10:32:02Z</time>
      </trkpt>
      <trkpt lat="45.18268" lon="5.97438">
        <ele>2290.6</ele>
        <time>2026-07-19T10:32:05Z</time>
      </trkpt>
      <trkpt lat="45.18267" lon="5.97438">
        <ele>2289</ele>
        <time>2026-07-19T10:32:08Z</time>
      </trkpt>
      <trkpt lat="45.18266" lon="5.97439">
        <ele>2287.8</ele>
        <time>2026-07-19T10:32:10Z</time>
      </trkpt>
      <trkpt lat="45.18265" lon="5.9744">
        <ele>2286.4</ele>
        <time>2026-07-19T10:32:13Z</time>
      </trkpt>
      <trkpt lat="45.18263" lon="5.97441">
        <ele>2285.2</ele>
        <time>2026-07-19T10:32:15Z</time>
      </trkpt>
      <trkpt lat="45.18261" lon="5.97438">
        <ele>2284</ele>
        <time>2026-07-19T10:32:17Z</time>
      </trkpt>
      <trkpt lat="45.18259" lon="5.97436">
        <ele>2283.6</ele>
        <time>2026-07-19T10:32:18Z</time>
      </trkpt>
      <trkpt lat="45.18259" lon="5.97434">
        <ele>2282.6</ele>
        <time>2026-07-19T10:32:19Z</time>
      </trkpt>
      <trkpt lat="45.18257" lon="5.97432">
        <ele>2281</ele>
        <time>2026-07-19T10:32:21Z</time>
      </trkpt>
      <trkpt lat="45.18255" lon="5.97431">
        <ele>2280.4</ele>
        <time>2026-07-19T10:32:22Z</time>
      </trkpt>
      <trkpt lat="45.18252" lon="5.9743">
        <ele>2279.6</ele>
        <time>2026-07-19T10:32:24Z</time>
      </trkpt>
      <trkpt lat="45.1825" lon="5.9743">
        <ele>2279.6</ele>
        <time>2026-07-19T10:32:26Z</time>
      </trkpt>
      <trkpt lat="45.18245" lon="5.9743">
        <ele>2278.8</ele>
        <time>2026-07-19T10:32:30Z</time>
      </trkpt>
      <trkpt lat="45.18241" lon="5.9743">
        <ele>2279</ele>
        <time>2026-07-19T10:32:34Z</time>
      </trkpt>
      <trkpt lat="45.1824" lon="5.97429">
        <ele>2278.8</ele>
        <time>2026-07-19T10:32:35Z</time>
      </trkpt>
      <trkpt lat="45.18236" lon="5.97422">
        <ele>2278.6</ele>
        <time>2026-07-19T10:32:41Z</time>
      </trkpt>
      <trkpt lat="45.18235" lon="5.97421">
        <ele>2278.4</ele>
        <time>2026-07-19T10:32:42Z</time>
      </trkpt>
      <trkpt lat="45.18232" lon="5.97418">
        <ele>2277</ele>
        <time>2026-07-19T10:32:46Z</time>
      </trkpt>
      <trkpt lat="45.18232" lon="5.97417">
        <ele>2277</ele>
        <time>2026-07-19T10:32:47Z</time>
      </trkpt>
      <trkpt lat="45.18232" lon="5.97417">
        <ele>2276.8</ele>
        <time>2026-07-19T10:32:48Z</time>
      </trkpt>
      <trkpt lat="45.1823" lon="5.97415">
        <ele>2276.2</ele>
        <time>2026-07-19T10:32:50Z</time>
      </trkpt>
      <trkpt lat="45.18229" lon="5.97413">
        <ele>2275.8</ele>
        <time>2026-07-19T10:32:52Z</time>
      </trkpt>
      <trkpt lat="45.18228" lon="5.97412">
        <ele>2275.6</ele>
        <time>2026-07-19T10:32:53Z</time>
      </trkpt>
      <trkpt lat="45.18227" lon="5.97408">
        <ele>2274.6</ele>
        <time>2026-07-19T10:32:56Z</time>
      </trkpt>
      <trkpt lat="45.18225" lon="5.97404">
        <ele>2273.4</ele>
        <time>2026-07-19T10:33:00Z</time>
      </trkpt>
      <trkpt lat="45.18225" lon="5.97404">
        <ele>2274</ele>
        <time>2026-07-19T10:33:04Z</time>
      </trkpt>
      <trkpt lat="45.18222" lon="5.97401">
        <ele>2273.4</ele>
        <time>2026-07-19T10:33:07Z</time>
      </trkpt>
      <trkpt lat="45.18218" lon="5.97396">
        <ele>2271.8</ele>
        <time>2026-07-19T10:33:11Z</time>
      </trkpt>
      <trkpt lat="45.18216" lon="5.9739">
        <ele>2272.4</ele>
        <time>2026-07-19T10:33:13Z</time>
      </trkpt>
      <trkpt lat="45.18214" lon="5.97387">
        <ele>2273</ele>
        <time>2026-07-19T10:33:14Z</time>
      </trkpt>
      <trkpt lat="45.18209" lon="5.97377">
        <ele>2272</ele>
        <time>2026-07-19T10:33:19Z</time>
      </trkpt>
      <trkpt lat="45.18207" lon="5.97374">
        <ele>2270.8</ele>
        <time>2026-07-19T10:33:20Z</time>
      </trkpt>
      <trkpt lat="45.18201" lon="5.97371">
        <ele>2269.8</ele>
        <time>2026-07-19T10:33:23Z</time>
      </trkpt>
      <trkpt lat="45.18198" lon="5.97371">
        <ele>2269.6</ele>
        <time>2026-07-19T10:33:25Z</time>
      </trkpt>
      <trkpt lat="45.18198" lon="5.9737">
        <ele>2269</ele>
        <time>2026-07-19T10:33:28Z</time>
      </trkpt>
      <trkpt lat="45.18199" lon="5.9737">
        <ele>2270.4</ele>
        <time>2026-07-19T10:33:36Z</time>
      </trkpt>
      <trkpt lat="45.18197" lon="5.97366">
        <ele>2271.2</ele>
        <time>2026-07-19T10:33:38Z</time>
      </trkpt>
      <trkpt lat="45.18196" lon="5.97365">
        <ele>2271.2</ele>
        <time>2026-07-19T10:33:39Z</time>
      </trkpt>
      <trkpt lat="45.18195" lon="5.97359">
        <ele>2271.6</ele>
        <time>2026-07-19T10:33:42Z</time>
      </trkpt>
      <trkpt lat="45.18191" lon="5.97348">
        <ele>2269.8</ele>
        <time>2026-07-19T10:33:49Z</time>
      </trkpt>
      <trkpt lat="45.1819" lon="5.97347">
        <ele>2269.2</ele>
        <time>2026-07-19T10:33:50Z</time>
      </trkpt>
      <trkpt lat="45.18189" lon="5.97346">
        <ele>2268.2</ele>
        <time>2026-07-19T10:33:51Z</time>
      </trkpt>
      <trkpt lat="45.18188" lon="5.97345">
        <ele>2267.6</ele>
        <time>2026-07-19T10:33:52Z</time>
      </trkpt>
      <trkpt lat="45.18187" lon="5.97345">
        <ele>2267.2</ele>
        <time>2026-07-19T10:33:54Z</time>
      </trkpt>
      <trkpt lat="45.18187" lon="5.97344">
        <ele>2266.8</ele>
        <time>2026-07-19T10:33:55Z</time>
      </trkpt>
      <trkpt lat="45.18187" lon="5.97344">
        <ele>2266.4</ele>
        <time>2026-07-19T10:33:56Z</time>
      </trkpt>
      <trkpt lat="45.18187" lon="5.97343">
        <ele>2265.6</ele>
        <time>2026-07-19T10:33:57Z</time>
      </trkpt>
      <trkpt lat="45.18186" lon="5.97342">
        <ele>2264.4</ele>
        <time>2026-07-19T10:33:58Z</time>
      </trkpt>
      <trkpt lat="45.18185" lon="5.97341">
        <ele>2263.2</ele>
        <time>2026-07-19T10:33:59Z</time>
      </trkpt>
      <trkpt lat="45.18185" lon="5.97341">
        <ele>2261.4</ele>
        <time>2026-07-19T10:34:00Z</time>
      </trkpt>
      <trkpt lat="45.18185" lon="5.9734">
        <ele>2259.8</ele>
        <time>2026-07-19T10:34:02Z</time>
      </trkpt>
      <trkpt lat="45.18184" lon="5.9734">
        <ele>2258.6</ele>
        <time>2026-07-19T10:34:03Z</time>
      </trkpt>
      <trkpt lat="45.18183" lon="5.97338">
        <ele>2257</ele>
        <time>2026-07-19T10:34:05Z</time>
      </trkpt>
      <trkpt lat="45.18182" lon="5.97337">
        <ele>2255.8</ele>
        <time>2026-07-19T10:34:07Z</time>
      </trkpt>
      <trkpt lat="45.18181" lon="5.97335">
        <ele>2254.6</ele>
        <time>2026-07-19T10:34:09Z</time>
      </trkpt>
      <trkpt lat="45.1818" lon="5.97334">
        <ele>2254.6</ele>
        <time>2026-07-19T10:34:10Z</time>
      </trkpt>
      <trkpt lat="45.18178" lon="5.97332">
        <ele>2255.4</ele>
        <time>2026-07-19T10:34:15Z</time>
      </trkpt>
      <trkpt lat="45.18174" lon="5.97325">
        <ele>2253.4</ele>
        <time>2026-07-19T10:34:25Z</time>
      </trkpt>
      <trkpt lat="45.18173" lon="5.97324">
        <ele>2253</ele>
        <time>2026-07-19T10:34:26Z</time>
      </trkpt>
      <trkpt lat="45.18169" lon="5.97321">
        <ele>2252</ele>
        <time>2026-07-19T10:34:31Z</time>
      </trkpt>
      <trkpt lat="45.18168" lon="5.9732">
        <ele>2251</ele>
        <time>2026-07-19T10:34:33Z</time>
      </trkpt>
      <trkpt lat="45.18164" lon="5.97317">
        <ele>2249.8</ele>
        <time>2026-07-19T10:34:37Z</time>
      </trkpt>
      <trkpt lat="45.18163" lon="5.97317">
        <ele>2249.6</ele>
        <time>2026-07-19T10:34:38Z</time>
      </trkpt>
      <trkpt lat="45.18162" lon="5.97316">
        <ele>2248.4</ele>
        <time>2026-07-19T10:34:41Z</time>
      </trkpt>
      <trkpt lat="45.18159" lon="5.97313">
        <ele>2247.2</ele>
        <time>2026-07-19T10:34:45Z</time>
      </trkpt>
      <trkpt lat="45.18158" lon="5.97314">
        <ele>2247</ele>
        <time>2026-07-19T10:34:48Z</time>
      </trkpt>
      <trkpt lat="45.18155" lon="5.97314">
        <ele>2245.8</ele>
        <time>2026-07-19T10:34:52Z</time>
      </trkpt>
      <trkpt lat="45.18153" lon="5.97314">
        <ele>2244.6</ele>
        <time>2026-07-19T10:34:55Z</time>
      </trkpt>
      <trkpt lat="45.1815" lon="5.97314">
        <ele>2243.6</ele>
        <time>2026-07-19T10:34:58Z</time>
      </trkpt>
      <trkpt lat="45.18149" lon="5.97312">
        <ele>2243.2</ele>
        <time>2026-07-19T10:34:59Z</time>
      </trkpt>
      <trkpt lat="45.18147" lon="5.97308">
        <ele>2242.2</ele>
        <time>2026-07-19T10:35:01Z</time>
      </trkpt>
      <trkpt lat="45.18146" lon="5.97305">
        <ele>2241</ele>
        <time>2026-07-19T10:35:04Z</time>
      </trkpt>
      <trkpt lat="45.18144" lon="5.97304">
        <ele>2240.4</ele>
        <time>2026-07-19T10:35:05Z</time>
      </trkpt>
      <trkpt lat="45.18139" lon="5.97299">
        <ele>2239.8</ele>
        <time>2026-07-19T10:35:08Z</time>
      </trkpt>
      <trkpt lat="45.18133" lon="5.97292">
        <ele>2238.4</ele>
        <time>2026-07-19T10:35:13Z</time>
      </trkpt>
      <trkpt lat="45.18132" lon="5.97289">
        <ele>2238.2</ele>
        <time>2026-07-19T10:35:14Z</time>
      </trkpt>
      <trkpt lat="45.18131" lon="5.97285">
        <ele>2237.2</ele>
        <time>2026-07-19T10:35:17Z</time>
      </trkpt>
      <trkpt lat="45.18129" lon="5.97281">
        <ele>2236.4</ele>
        <time>2026-07-19T10:35:19Z</time>
      </trkpt>
      <trkpt lat="45.18128" lon="5.97278">
        <ele>2236</ele>
        <time>2026-07-19T10:35:21Z</time>
      </trkpt>
      <trkpt lat="45.18124" lon="5.97268">
        <ele>2236.8</ele>
        <time>2026-07-19T10:35:26Z</time>
      </trkpt>
      <trkpt lat="45.18123" lon="5.97265">
        <ele>2237</ele>
        <time>2026-07-19T10:35:29Z</time>
      </trkpt>
      <trkpt lat="45.18123" lon="5.97265">
        <ele>2236.6</ele>
        <time>2026-07-19T10:35:31Z</time>
      </trkpt>
      <trkpt lat="45.18123" lon="5.97264">
        <ele>2236.4</ele>
        <time>2026-07-19T10:35:32Z</time>
      </trkpt>
      <trkpt lat="45.18123" lon="5.9726">
        <ele>2236.2</ele>
        <time>2026-07-19T10:35:42Z</time>
      </trkpt>
      <trkpt lat="45.18122" lon="5.9726">
        <ele>2235.4</ele>
        <time>2026-07-19T10:35:59Z</time>
      </trkpt>
      <trkpt lat="45.18121" lon="5.97259">
        <ele>2236.6</ele>
        <time>2026-07-19T10:36:13Z</time>
      </trkpt>
      <trkpt lat="45.18121" lon="5.97259">
        <ele>2237.2</ele>
        <time>2026-07-19T10:36:15Z</time>
      </trkpt>
      <trkpt lat="45.18119" lon="5.9726">
        <ele>2238.4</ele>
        <time>2026-07-19T10:36:25Z</time>
      </trkpt>
      <trkpt lat="45.1812" lon="5.97256">
        <ele>2239</ele>
        <time>2026-07-19T10:36:36Z</time>
      </trkpt>
      <trkpt lat="45.18121" lon="5.97248">
        <ele>2237.6</ele>
        <time>2026-07-19T10:36:46Z</time>
      </trkpt>
      <trkpt lat="45.1812" lon="5.97245">
        <ele>2237.2</ele>
        <time>2026-07-19T10:36:49Z</time>
      </trkpt>
      <trkpt lat="45.18119" lon="5.97242">
        <ele>2236.4</ele>
        <time>2026-07-19T10:36:52Z</time>
      </trkpt>
      <trkpt lat="45.18118" lon="5.97241">
        <ele>2236</ele>
        <time>2026-07-19T10:36:53Z</time>
      </trkpt>
      <trkpt lat="45.18118" lon="5.97242">
        <ele>2235.2</ele>
        <time>2026-07-19T10:36:55Z</time>
      </trkpt>
      <trkpt lat="45.18117" lon="5.97241">
        <ele>2234.8</ele>
        <time>2026-07-19T10:36:56Z</time>
      </trkpt>
      <trkpt lat="45.18114" lon="5.97245">
        <ele>2233.4</ele>
        <time>2026-07-19T10:36:59Z</time>
      </trkpt>
      <trkpt lat="45.18113" lon="5.97246">
        <ele>2233</ele>
        <time>2026-07-19T10:37:00Z</time>
      </trkpt>
      <trkpt lat="45.18111" lon="5.97246">
        <ele>2232.6</ele>
        <time>2026-07-19T10:37:01Z</time>
      </trkpt>
      <trkpt lat="45.1811" lon="5.97245">
        <ele>2231.6</ele>
        <time>2026-07-19T10:37:02Z</time>
      </trkpt>
      <trkpt lat="45.18106" lon="5.97241">
        <ele>2230.4</ele>
        <time>2026-07-19T10:37:04Z</time>
      </trkpt>
      <trkpt lat="45.18102" lon="5.97237">
        <ele>2230.2</ele>
        <time>2026-07-19T10:37:06Z</time>
      </trkpt>
      <trkpt lat="45.18097" lon="5.97235">
        <ele>2229.2</ele>
        <time>2026-07-19T10:37:10Z</time>
      </trkpt>
      <trkpt lat="45.18094" lon="5.97233">
        <ele>2229.2</ele>
        <time>2026-07-19T10:37:13Z</time>
      </trkpt>
      <trkpt lat="45.18092" lon="5.97232">
        <ele>2228.8</ele>
        <time>2026-07-19T10:37:15Z</time>
      </trkpt>
      <trkpt lat="45.18092" lon="5.97232">
        <ele>2228.6</ele>
        <time>2026-07-19T10:37:16Z</time>
      </trkpt>
      <trkpt lat="45.18092" lon="5.97232">
        <ele>2228</ele>
        <time>2026-07-19T10:37:19Z</time>
      </trkpt>
      <trkpt lat="45.18093" lon="5.97232">
        <ele>2227.4</ele>
        <time>2026-07-19T10:37:25Z</time>
      </trkpt>
      <trkpt lat="45.18093" lon="5.97231">
        <ele>2226.4</ele>
        <time>2026-07-19T10:37:27Z</time>
      </trkpt>
      <trkpt lat="45.18092" lon="5.97231">
        <ele>2225</ele>
        <time>2026-07-19T10:37:30Z</time>
      </trkpt>
      <trkpt lat="45.18093" lon="5.97231">
        <ele>2224.4</ele>
        <time>2026-07-19T10:37:39Z</time>
      </trkpt>
      <trkpt lat="45.18092" lon="5.97231">
        <ele>2226.2</ele>
        <time>2026-07-19T10:37:42Z</time>
      </trkpt>
      <trkpt lat="45.18092" lon="5.97231">
        <ele>2227.8</ele>
        <time>2026-07-19T10:37:44Z</time>
      </trkpt>
      <trkpt lat="45.18092" lon="5.97232">
        <ele>2229.2</ele>
        <time>2026-07-19T10:37:46Z</time>
      </trkpt>
      <trkpt lat="45.1809" lon="5.97231">
        <ele>2230.2</ele>
        <time>2026-07-19T10:37:55Z</time>
      </trkpt>
      <trkpt lat="45.1809" lon="5.97229">
        <ele>2230.4</ele>
        <time>2026-07-19T10:37:59Z</time>
      </trkpt>
      <trkpt lat="45.1809" lon="5.97228">
        <ele>2230.8</ele>
        <time>2026-07-19T10:38:04Z</time>
      </trkpt>
      <trkpt lat="45.1809" lon="5.97228">
        <ele>2231.6</ele>
        <time>2026-07-19T10:38:09Z</time>
      </trkpt>
      <trkpt lat="45.18089" lon="5.97228">
        <ele>2232.6</ele>
        <time>2026-07-19T10:38:13Z</time>
      </trkpt>
      <trkpt lat="45.18089" lon="5.97228">
        <ele>2234</ele>
        <time>2026-07-19T10:38:17Z</time>
      </trkpt>
      <trkpt lat="45.18088" lon="5.97227">
        <ele>2232.6</ele>
        <time>2026-07-19T10:38:21Z</time>
      </trkpt>
      <trkpt lat="45.18086" lon="5.97222">
        <ele>2231.4</ele>
        <time>2026-07-19T10:38:26Z</time>
      </trkpt>
      <trkpt lat="45.18084" lon="5.9722">
        <ele>2230.6</ele>
        <time>2026-07-19T10:38:28Z</time>
      </trkpt>
      <trkpt lat="45.18083" lon="5.97219">
        <ele>2230.2</ele>
        <time>2026-07-19T10:38:29Z</time>
      </trkpt>
      <trkpt lat="45.18082" lon="5.97215">
        <ele>2229.4</ele>
        <time>2026-07-19T10:38:31Z</time>
      </trkpt>
      <trkpt lat="45.1808" lon="5.97212">
        <ele>2228.6</ele>
        <time>2026-07-19T10:38:33Z</time>
      </trkpt>
      <trkpt lat="45.18078" lon="5.97207">
        <ele>2227.8</ele>
        <time>2026-07-19T10:38:35Z</time>
      </trkpt>
      <trkpt lat="45.18077" lon="5.97204">
        <ele>2227.4</ele>
        <time>2026-07-19T10:38:36Z</time>
      </trkpt>
      <trkpt lat="45.18074" lon="5.97194">
        <ele>2226.2</ele>
        <time>2026-07-19T10:38:40Z</time>
      </trkpt>
      <trkpt lat="45.18073" lon="5.97191">
        <ele>2225.6</ele>
        <time>2026-07-19T10:38:41Z</time>
      </trkpt>
      <trkpt lat="45.18072" lon="5.97188">
        <ele>2225.2</ele>
        <time>2026-07-19T10:38:42Z</time>
      </trkpt>
      <trkpt lat="45.1807" lon="5.97183">
        <ele>2224</ele>
        <time>2026-07-19T10:38:44Z</time>
      </trkpt>
      <trkpt lat="45.18069" lon="5.97179">
        <ele>2222.6</ele>
        <time>2026-07-19T10:38:46Z</time>
      </trkpt>
      <trkpt lat="45.18067" lon="5.97174">
        <ele>2221.2</ele>
        <time>2026-07-19T10:38:49Z</time>
      </trkpt>
      <trkpt lat="45.18066" lon="5.97171">
        <ele>2221.2</ele>
        <time>2026-07-19T10:38:51Z</time>
      </trkpt>
      <trkpt lat="45.18065" lon="5.97168">
        <ele>2221</ele>
        <time>2026-07-19T10:38:53Z</time>
      </trkpt>
      <trkpt lat="45.18063" lon="5.97162">
        <ele>2220</ele>
        <time>2026-07-19T10:38:57Z</time>
      </trkpt>
      <trkpt lat="45.18062" lon="5.97157">
        <ele>2219.2</ele>
        <time>2026-07-19T10:39:01Z</time>
      </trkpt>
      <trkpt lat="45.18062" lon="5.97156">
        <ele>2219.2</ele>
        <time>2026-07-19T10:39:02Z</time>
      </trkpt>
      <trkpt lat="45.1806" lon="5.97154">
        <ele>2218.6</ele>
        <time>2026-07-19T10:39:05Z</time>
      </trkpt>
      <trkpt lat="45.18058" lon="5.9715">
        <ele>2218.4</ele>
        <time>2026-07-19T10:39:10Z</time>
      </trkpt>
      <trkpt lat="45.18057" lon="5.97149">
        <ele>2219.8</ele>
        <time>2026-07-19T10:39:14Z</time>
      </trkpt>
      <trkpt lat="45.18058" lon="5.97148">
        <ele>2218.6</ele>
        <time>2026-07-19T10:39:21Z</time>
      </trkpt>
      <trkpt lat="45.18057" lon="5.97145">
        <ele>2217.2</ele>
        <time>2026-07-19T10:39:34Z</time>
      </trkpt>
      <trkpt lat="45.18057" lon="5.97144">
        <ele>2217.4</ele>
        <time>2026-07-19T10:39:35Z</time>
      </trkpt>
      <trkpt lat="45.18057" lon="5.97142">
        <ele>2216</ele>
        <time>2026-07-19T10:39:40Z</time>
      </trkpt>
      <trkpt lat="45.18057" lon="5.97139">
        <ele>2214.8</ele>
        <time>2026-07-19T10:39:44Z</time>
      </trkpt>
      <trkpt lat="45.18055" lon="5.97135">
        <ele>2213.4</ele>
        <time>2026-07-19T10:39:47Z</time>
      </trkpt>
      <trkpt lat="45.18054" lon="5.97133">
        <ele>2212.6</ele>
        <time>2026-07-19T10:39:50Z</time>
      </trkpt>
      <trkpt lat="45.18052" lon="5.9713">
        <ele>2212.2</ele>
        <time>2026-07-19T10:39:53Z</time>
      </trkpt>
      <trkpt lat="45.18052" lon="5.97128">
        <ele>2212.2</ele>
        <time>2026-07-19T10:39:55Z</time>
      </trkpt>
      <trkpt lat="45.18051" lon="5.97126">
        <ele>2212.2</ele>
        <time>2026-07-19T10:39:57Z</time>
      </trkpt>
      <trkpt lat="45.18051" lon="5.97124">
        <ele>2212.4</ele>
        <time>2026-07-19T10:40:01Z</time>
      </trkpt>
      <trkpt lat="45.1805" lon="5.9712">
        <ele>2211.4</ele>
        <time>2026-07-19T10:40:05Z</time>
      </trkpt>
      <trkpt lat="45.1805" lon="5.9712">
        <ele>2211</ele>
        <time>2026-07-19T10:40:06Z</time>
      </trkpt>
      <trkpt lat="45.18048" lon="5.97118">
        <ele>2209.8</ele>
        <time>2026-07-19T10:40:09Z</time>
      </trkpt>
      <trkpt lat="45.18048" lon="5.97118">
        <ele>2208.6</ele>
        <time>2026-07-19T10:40:13Z</time>
      </trkpt>
      <trkpt lat="45.18047" lon="5.97117">
        <ele>2207.8</ele>
        <time>2026-07-19T10:40:16Z</time>
      </trkpt>
      <trkpt lat="45.18047" lon="5.97117">
        <ele>2207.4</ele>
        <time>2026-07-19T10:40:17Z</time>
      </trkpt>
      <trkpt lat="45.18044" lon="5.97112">
        <ele>2206.2</ele>
        <time>2026-07-19T10:40:23Z</time>
      </trkpt>
      <trkpt lat="45.18043" lon="5.9711">
        <ele>2206</ele>
        <time>2026-07-19T10:40:26Z</time>
      </trkpt>
      <trkpt lat="45.18042" lon="5.97107">
        <ele>2206.2</ele>
        <time>2026-07-19T10:40:29Z</time>
      </trkpt>
      <trkpt lat="45.18041" lon="5.97104">
        <ele>2205</ele>
        <time>2026-07-19T10:40:32Z</time>
      </trkpt>
      <trkpt lat="45.1804" lon="5.97099">
        <ele>2204.8</ele>
        <time>2026-07-19T10:40:37Z</time>
      </trkpt>
      <trkpt lat="45.18035" lon="5.97078">
        <ele>2204.2</ele>
        <time>2026-07-19T10:40:49Z</time>
      </trkpt>
      <trkpt lat="45.18035" lon="5.97077">
        <ele>2204</ele>
        <time>2026-07-19T10:40:50Z</time>
      </trkpt>
      <trkpt lat="45.18033" lon="5.97072">
        <ele>2202.8</ele>
        <time>2026-07-19T10:40:55Z</time>
      </trkpt>
      <trkpt lat="45.1803" lon="5.97065">
        <ele>2201.6</ele>
        <time>2026-07-19T10:41:01Z</time>
      </trkpt>
      <trkpt lat="45.18032" lon="5.97051">
        <ele>2201.4</ele>
        <time>2026-07-19T10:41:09Z</time>
      </trkpt>
      <trkpt lat="45.18032" lon="5.97043">
        <ele>2200.2</ele>
        <time>2026-07-19T10:41:15Z</time>
      </trkpt>
      <trkpt lat="45.18032" lon="5.97041">
        <ele>2199.6</ele>
        <time>2026-07-19T10:41:17Z</time>
      </trkpt>
      <trkpt lat="45.18032" lon="5.9704">
        <ele>2199.2</ele>
        <time>2026-07-19T10:41:18Z</time>
      </trkpt>
      <trkpt lat="45.18032" lon="5.97039">
        <ele>2199</ele>
        <time>2026-07-19T10:41:19Z</time>
      </trkpt>
      <trkpt lat="45.18033" lon="5.9704">
        <ele>2199.4</ele>
        <time>2026-07-19T10:41:25Z</time>
      </trkpt>
      <trkpt lat="45.18033" lon="5.97041">
        <ele>2198</ele>
        <time>2026-07-19T10:41:30Z</time>
      </trkpt>
      <trkpt lat="45.18033" lon="5.97041">
        <ele>2197.6</ele>
        <time>2026-07-19T10:41:39Z</time>
      </trkpt>
      <trkpt lat="45.18033" lon="5.9704">
        <ele>2196.6</ele>
        <time>2026-07-19T10:41:46Z</time>
      </trkpt>
      <trkpt lat="45.18032" lon="5.9704">
        <ele>2194.6</ele>
        <time>2026-07-19T10:41:48Z</time>
      </trkpt>
      <trkpt lat="45.18031" lon="5.97039">
        <ele>2193.2</ele>
        <time>2026-07-19T10:41:50Z</time>
      </trkpt>
      <trkpt lat="45.1803" lon="5.97038">
        <ele>2192.4</ele>
        <time>2026-07-19T10:41:52Z</time>
      </trkpt>
      <trkpt lat="45.1803" lon="5.97036">
        <ele>2192.8</ele>
        <time>2026-07-19T10:42:04Z</time>
      </trkpt>
      <trkpt lat="45.1803" lon="5.97035">
        <ele>2193</ele>
        <time>2026-07-19T10:42:20Z</time>
      </trkpt>
      <trkpt lat="45.18027" lon="5.97028">
        <ele>2191.8</ele>
        <time>2026-07-19T10:42:28Z</time>
      </trkpt>
      <trkpt lat="45.18027" lon="5.97027">
        <ele>2192</ele>
        <time>2026-07-19T10:42:32Z</time>
      </trkpt>
      <trkpt lat="45.18026" lon="5.97027">
        <ele>2190.4</ele>
        <time>2026-07-19T10:42:38Z</time>
      </trkpt>
      <trkpt lat="45.18026" lon="5.97026">
        <ele>2190.4</ele>
        <time>2026-07-19T10:42:49Z</time>
      </trkpt>
      <trkpt lat="45.18028" lon="5.9702">
        <ele>2189.6</ele>
        <time>2026-07-19T10:43:03Z</time>
      </trkpt>
      <trkpt lat="45.18028" lon="5.97017">
        <ele>2189.2</ele>
        <time>2026-07-19T10:43:06Z</time>
      </trkpt>
      <trkpt lat="45.18028" lon="5.97013">
        <ele>2188.8</ele>
        <time>2026-07-19T10:43:11Z</time>
      </trkpt>
      <trkpt lat="45.18028" lon="5.97014">
        <ele>2188</ele>
        <time>2026-07-19T10:43:17Z</time>
      </trkpt>
      <trkpt lat="45.18028" lon="5.97012">
        <ele>2186.6</ele>
        <time>2026-07-19T10:43:23Z</time>
      </trkpt>
      <trkpt lat="45.18029" lon="5.97007">
        <ele>2185.4</ele>
        <time>2026-07-19T10:43:26Z</time>
      </trkpt>
      <trkpt lat="45.1803" lon="5.97">
        <ele>2185</ele>
        <time>2026-07-19T10:43:30Z</time>
      </trkpt>
      <trkpt lat="45.18038" lon="5.96997">
        <ele>2184.2</ele>
        <time>2026-07-19T10:43:36Z</time>
      </trkpt>
      <trkpt lat="45.18041" lon="5.96994">
        <ele>2182.8</ele>
        <time>2026-07-19T10:43:39Z</time>
      </trkpt>
      <trkpt lat="45.18044" lon="5.96989">
        <ele>2181.4</ele>
        <time>2026-07-19T10:43:41Z</time>
      </trkpt>
      <trkpt lat="45.1805" lon="5.9698">
        <ele>2180</ele>
        <time>2026-07-19T10:43:44Z</time>
      </trkpt>
      <trkpt lat="45.18055" lon="5.96971">
        <ele>2179</ele>
        <time>2026-07-19T10:43:47Z</time>
      </trkpt>
      <trkpt lat="45.18056" lon="5.96968">
        <ele>2178.6</ele>
        <time>2026-07-19T10:43:48Z</time>
      </trkpt>
      <trkpt lat="45.1806" lon="5.96964">
        <ele>2177.8</ele>
        <time>2026-07-19T10:43:50Z</time>
      </trkpt>
      <trkpt lat="45.18062" lon="5.96964">
        <ele>2177.2</ele>
        <time>2026-07-19T10:43:51Z</time>
      </trkpt>
      <trkpt lat="45.18065" lon="5.96966">
        <ele>2176.4</ele>
        <time>2026-07-19T10:43:53Z</time>
      </trkpt>
      <trkpt lat="45.18067" lon="5.96968">
        <ele>2176</ele>
        <time>2026-07-19T10:43:54Z</time>
      </trkpt>
      <trkpt lat="45.18069" lon="5.9697">
        <ele>2175.6</ele>
        <time>2026-07-19T10:43:56Z</time>
      </trkpt>
      <trkpt lat="45.18074" lon="5.96975">
        <ele>2175.4</ele>
        <time>2026-07-19T10:44:00Z</time>
      </trkpt>
      <trkpt lat="45.18076" lon="5.96975">
        <ele>2175.2</ele>
        <time>2026-07-19T10:44:02Z</time>
      </trkpt>
      <trkpt lat="45.1808" lon="5.96978">
        <ele>2175.8</ele>
        <time>2026-07-19T10:44:05Z</time>
      </trkpt>
      <trkpt lat="45.18083" lon="5.96978">
        <ele>2176</ele>
        <time>2026-07-19T10:44:07Z</time>
      </trkpt>
      <trkpt lat="45.18093" lon="5.96975">
        <ele>2177.4</ele>
        <time>2026-07-19T10:44:12Z</time>
      </trkpt>
      <trkpt lat="45.18097" lon="5.96974">
        <ele>2177.6</ele>
        <time>2026-07-19T10:44:14Z</time>
      </trkpt>
      <trkpt lat="45.181" lon="5.96975">
        <ele>2176.4</ele>
        <time>2026-07-19T10:44:16Z</time>
      </trkpt>
      <trkpt lat="45.18104" lon="5.96974">
        <ele>2175.4</ele>
        <time>2026-07-19T10:44:18Z</time>
      </trkpt>
      <trkpt lat="45.18106" lon="5.96974">
        <ele>2174.6</ele>
        <time>2026-07-19T10:44:19Z</time>
      </trkpt>
      <trkpt lat="45.18113" lon="5.96972">
        <ele>2173.6</ele>
        <time>2026-07-19T10:44:22Z</time>
      </trkpt>
      <trkpt lat="45.18115" lon="5.96972">
        <ele>2173.4</ele>
        <time>2026-07-19T10:44:23Z</time>
      </trkpt>
      <trkpt lat="45.1812" lon="5.96973">
        <ele>2172.4</ele>
        <time>2026-07-19T10:44:26Z</time>
      </trkpt>
      <trkpt lat="45.18122" lon="5.96973">
        <ele>2172</ele>
        <time>2026-07-19T10:44:27Z</time>
      </trkpt>
      <trkpt lat="45.18123" lon="5.96974">
        <ele>2171.8</ele>
        <time>2026-07-19T10:44:28Z</time>
      </trkpt>
      <trkpt lat="45.18124" lon="5.96976">
        <ele>2171</ele>
        <time>2026-07-19T10:44:29Z</time>
      </trkpt>
      <trkpt lat="45.18126" lon="5.96974">
        <ele>2169.6</ele>
        <time>2026-07-19T10:44:31Z</time>
      </trkpt>
      <trkpt lat="45.18128" lon="5.96973">
        <ele>2169.4</ele>
        <time>2026-07-19T10:44:32Z</time>
      </trkpt>
      <trkpt lat="45.18133" lon="5.96968">
        <ele>2169</ele>
        <time>2026-07-19T10:44:37Z</time>
      </trkpt>
      <trkpt lat="45.18134" lon="5.96969">
        <ele>2168.4</ele>
        <time>2026-07-19T10:44:38Z</time>
      </trkpt>
      <trkpt lat="45.18135" lon="5.96968">
        <ele>2168</ele>
        <time>2026-07-19T10:44:39Z</time>
      </trkpt>
      <trkpt lat="45.18136" lon="5.96968">
        <ele>2166.8</ele>
        <time>2026-07-19T10:44:40Z</time>
      </trkpt>
      <trkpt lat="45.18137" lon="5.96966">
        <ele>2165.6</ele>
        <time>2026-07-19T10:44:42Z</time>
      </trkpt>
      <trkpt lat="45.18137" lon="5.96965">
        <ele>2165.4</ele>
        <time>2026-07-19T10:44:43Z</time>
      </trkpt>
      <trkpt lat="45.18137" lon="5.96966">
        <ele>2165</ele>
        <time>2026-07-19T10:44:44Z</time>
      </trkpt>
      <trkpt lat="45.18137" lon="5.96965">
        <ele>2164.2</ele>
        <time>2026-07-19T10:44:46Z</time>
      </trkpt>
      <trkpt lat="45.18139" lon="5.96962">
        <ele>2162.4</ele>
        <time>2026-07-19T10:44:49Z</time>
      </trkpt>
      <trkpt lat="45.18141" lon="5.96959">
        <ele>2161.6</ele>
        <time>2026-07-19T10:44:51Z</time>
      </trkpt>
      <trkpt lat="45.18141" lon="5.96957">
        <ele>2160.8</ele>
        <time>2026-07-19T10:44:52Z</time>
      </trkpt>
      <trkpt lat="45.18142" lon="5.96954">
        <ele>2159.8</ele>
        <time>2026-07-19T10:44:54Z</time>
      </trkpt>
      <trkpt lat="45.18143" lon="5.96952">
        <ele>2159</ele>
        <time>2026-07-19T10:44:56Z</time>
      </trkpt>
      <trkpt lat="45.18143" lon="5.96952">
        <ele>2158.6</ele>
        <time>2026-07-19T10:44:57Z</time>
      </trkpt>
      <trkpt lat="45.18146" lon="5.96949">
        <ele>2157</ele>
        <time>2026-07-19T10:44:59Z</time>
      </trkpt>
      <trkpt lat="45.18148" lon="5.96948">
        <ele>2156.2</ele>
        <time>2026-07-19T10:45:01Z</time>
      </trkpt>
      <trkpt lat="45.18151" lon="5.96941">
        <ele>2154.2</ele>
        <time>2026-07-19T10:45:02Z</time>
      </trkpt>
      <trkpt lat="45.18154" lon="5.96934">
        <ele>2152.6</ele>
        <time>2026-07-19T10:45:04Z</time>
      </trkpt>
      <trkpt lat="45.18156" lon="5.96932">
        <ele>2152.2</ele>
        <time>2026-07-19T10:45:05Z</time>
      </trkpt>
      <trkpt lat="45.18158" lon="5.9693">
        <ele>2151.4</ele>
        <time>2026-07-19T10:45:06Z</time>
      </trkpt>
      <trkpt lat="45.18163" lon="5.96927">
        <ele>2150.4</ele>
        <time>2026-07-19T10:45:09Z</time>
      </trkpt>
      <trkpt lat="45.18164" lon="5.96927">
        <ele>2150</ele>
        <time>2026-07-19T10:45:10Z</time>
      </trkpt>
      <trkpt lat="45.18164" lon="5.96927">
        <ele>2149</ele>
        <time>2026-07-19T10:45:12Z</time>
      </trkpt>
      <trkpt lat="45.18165" lon="5.96927">
        <ele>2148.4</ele>
        <time>2026-07-19T10:45:13Z</time>
      </trkpt>
      <trkpt lat="45.18168" lon="5.96926">
        <ele>2147.2</ele>
        <time>2026-07-19T10:45:16Z</time>
      </trkpt>
      <trkpt lat="45.18168" lon="5.96927">
        <ele>2146</ele>
        <time>2026-07-19T10:45:20Z</time>
      </trkpt>
      <trkpt lat="45.18168" lon="5.96925">
        <ele>2144.8</ele>
        <time>2026-07-19T10:45:23Z</time>
      </trkpt>
      <trkpt lat="45.18168" lon="5.96921">
        <ele>2143.6</ele>
        <time>2026-07-19T10:45:26Z</time>
      </trkpt>
      <trkpt lat="45.18169" lon="5.96919">
        <ele>2142.2</ele>
        <time>2026-07-19T10:45:28Z</time>
      </trkpt>
      <trkpt lat="45.18171" lon="5.96916">
        <ele>2140.8</ele>
        <time>2026-07-19T10:45:31Z</time>
      </trkpt>
      <trkpt lat="45.18173" lon="5.96916">
        <ele>2140.8</ele>
        <time>2026-07-19T10:45:34Z</time>
      </trkpt>
      <trkpt lat="45.18174" lon="5.96911">
        <ele>2139.6</ele>
        <time>2026-07-19T10:45:38Z</time>
      </trkpt>
      <trkpt lat="45.18175" lon="5.9691">
        <ele>2138.6</ele>
        <time>2026-07-19T10:45:40Z</time>
      </trkpt>
      <trkpt lat="45.18176" lon="5.96906">
        <ele>2137.4</ele>
        <time>2026-07-19T10:45:44Z</time>
      </trkpt>
      <trkpt lat="45.18176" lon="5.96903">
        <ele>2137</ele>
        <time>2026-07-19T10:45:46Z</time>
      </trkpt>
      <trkpt lat="45.18177" lon="5.96901">
        <ele>2136</ele>
        <time>2026-07-19T10:45:49Z</time>
      </trkpt>
      <trkpt lat="45.18177" lon="5.96899">
        <ele>2135.2</ele>
        <time>2026-07-19T10:45:51Z</time>
      </trkpt>
      <trkpt lat="45.18177" lon="5.96897">
        <ele>2134.8</ele>
        <time>2026-07-19T10:45:52Z</time>
      </trkpt>
      <trkpt lat="45.18177" lon="5.96893">
        <ele>2134.6</ele>
        <time>2026-07-19T10:45:54Z</time>
      </trkpt>
      <trkpt lat="45.18177" lon="5.96891">
        <ele>2134.2</ele>
        <time>2026-07-19T10:45:55Z</time>
      </trkpt>
      <trkpt lat="45.18176" lon="5.96887">
        <ele>2133.4</ele>
        <time>2026-07-19T10:45:57Z</time>
      </trkpt>
      <trkpt lat="45.18175" lon="5.9688">
        <ele>2132.2</ele>
        <time>2026-07-19T10:46:00Z</time>
      </trkpt>
      <trkpt lat="45.18176" lon="5.96878">
        <ele>2131</ele>
        <time>2026-07-19T10:46:01Z</time>
      </trkpt>
      <trkpt lat="45.18176" lon="5.96877">
        <ele>2130.6</ele>
        <time>2026-07-19T10:46:02Z</time>
      </trkpt>
      <trkpt lat="45.18177" lon="5.96874">
        <ele>2129.4</ele>
        <time>2026-07-19T10:46:04Z</time>
      </trkpt>
      <trkpt lat="45.18177" lon="5.96871">
        <ele>2128.4</ele>
        <time>2026-07-19T10:46:06Z</time>
      </trkpt>
      <trkpt lat="45.18177" lon="5.96869">
        <ele>2128</ele>
        <time>2026-07-19T10:46:07Z</time>
      </trkpt>
      <trkpt lat="45.18176" lon="5.96867">
        <ele>2127.4</ele>
        <time>2026-07-19T10:46:08Z</time>
      </trkpt>
      <trkpt lat="45.18176" lon="5.96863">
        <ele>2127</ele>
        <time>2026-07-19T10:46:10Z</time>
      </trkpt>
      <trkpt lat="45.18177" lon="5.96859">
        <ele>2127</ele>
        <time>2026-07-19T10:46:12Z</time>
      </trkpt>
      <trkpt lat="45.18181" lon="5.96859">
        <ele>2127.2</ele>
        <time>2026-07-19T10:46:15Z</time>
      </trkpt>
      <trkpt lat="45.18182" lon="5.96858">
        <ele>2126.6</ele>
        <time>2026-07-19T10:46:16Z</time>
      </trkpt>
      <trkpt lat="45.18181" lon="5.96856">
        <ele>2126</ele>
        <time>2026-07-19T10:46:17Z</time>
      </trkpt>
      <trkpt lat="45.18181" lon="5.96855">
        <ele>2125.4</ele>
        <time>2026-07-19T10:46:18Z</time>
      </trkpt>
      <trkpt lat="45.1818" lon="5.96853">
        <ele>2125</ele>
        <time>2026-07-19T10:46:19Z</time>
      </trkpt>
      <trkpt lat="45.18179" lon="5.96852">
        <ele>2124.6</ele>
        <time>2026-07-19T10:46:20Z</time>
      </trkpt>
      <trkpt lat="45.18179" lon="5.9685">
        <ele>2124</ele>
        <time>2026-07-19T10:46:21Z</time>
      </trkpt>
      <trkpt lat="45.18178" lon="5.96846">
        <ele>2122.2</ele>
        <time>2026-07-19T10:46:23Z</time>
      </trkpt>
      <trkpt lat="45.18177" lon="5.96843">
        <ele>2121.4</ele>
        <time>2026-07-19T10:46:25Z</time>
      </trkpt>
      <trkpt lat="45.18176" lon="5.96842">
        <ele>2120.4</ele>
        <time>2026-07-19T10:46:26Z</time>
      </trkpt>
      <trkpt lat="45.18174" lon="5.9684">
        <ele>2119.2</ele>
        <time>2026-07-19T10:46:28Z</time>
      </trkpt>
      <trkpt lat="45.18173" lon="5.96839">
        <ele>2118.6</ele>
        <time>2026-07-19T10:46:29Z</time>
      </trkpt>
      <trkpt lat="45.18172" lon="5.96838">
        <ele>2118.4</ele>
        <time>2026-07-19T10:46:30Z</time>
      </trkpt>
      <trkpt lat="45.18172" lon="5.96837">
        <ele>2117.8</ele>
        <time>2026-07-19T10:46:31Z</time>
      </trkpt>
      <trkpt lat="45.18169" lon="5.96835">
        <ele>2116.4</ele>
        <time>2026-07-19T10:46:33Z</time>
      </trkpt>
      <trkpt lat="45.18166" lon="5.96831">
        <ele>2114.8</ele>
        <time>2026-07-19T10:46:35Z</time>
      </trkpt>
      <trkpt lat="45.18159" lon="5.96819">
        <ele>2117</ele>
        <time>2026-07-19T10:46:39Z</time>
      </trkpt>
      <trkpt lat="45.18158" lon="5.96816">
        <ele>2117</ele>
        <time>2026-07-19T10:46:40Z</time>
      </trkpt>
      <trkpt lat="45.18153" lon="5.96807">
        <ele>2115.6</ele>
        <time>2026-07-19T10:46:43Z</time>
      </trkpt>
      <trkpt lat="45.18149" lon="5.96796">
        <ele>2114.8</ele>
        <time>2026-07-19T10:46:46Z</time>
      </trkpt>
      <trkpt lat="45.18149" lon="5.96793">
        <ele>2114.2</ele>
        <time>2026-07-19T10:46:47Z</time>
      </trkpt>
      <trkpt lat="45.18148" lon="5.96789">
        <ele>2112.8</ele>
        <time>2026-07-19T10:46:49Z</time>
      </trkpt>
      <trkpt lat="45.18147" lon="5.96785">
        <ele>2111.2</ele>
        <time>2026-07-19T10:46:51Z</time>
      </trkpt>
      <trkpt lat="45.18146" lon="5.96783">
        <ele>2108.4</ele>
        <time>2026-07-19T10:46:53Z</time>
      </trkpt>
      <trkpt lat="45.18147" lon="5.96782">
        <ele>2107.8</ele>
        <time>2026-07-19T10:46:56Z</time>
      </trkpt>
      <trkpt lat="45.18147" lon="5.96782">
        <ele>2107.8</ele>
        <time>2026-07-19T10:46:57Z</time>
      </trkpt>
      <trkpt lat="45.18147" lon="5.96785">
        <ele>2107</ele>
        <time>2026-07-19T10:47:03Z</time>
      </trkpt>
      <trkpt lat="45.18146" lon="5.96785">
        <ele>2106.6</ele>
        <time>2026-07-19T10:47:05Z</time>
      </trkpt>
      <trkpt lat="45.18141" lon="5.96778">
        <ele>2106.4</ele>
        <time>2026-07-19T10:47:11Z</time>
      </trkpt>
      <trkpt lat="45.1814" lon="5.96776">
        <ele>2106.6</ele>
        <time>2026-07-19T10:47:12Z</time>
      </trkpt>
      <trkpt lat="45.18133" lon="5.96758">
        <ele>2108</ele>
        <time>2026-07-19T10:47:18Z</time>
      </trkpt>
      <trkpt lat="45.18129" lon="5.96741">
        <ele>2107.2</ele>
        <time>2026-07-19T10:47:23Z</time>
      </trkpt>
      <trkpt lat="45.18124" lon="5.9673">
        <ele>2105.8</ele>
        <time>2026-07-19T10:47:27Z</time>
      </trkpt>
      <trkpt lat="45.18123" lon="5.96726">
        <ele>2104.8</ele>
        <time>2026-07-19T10:47:29Z</time>
      </trkpt>
      <trkpt lat="45.18122" lon="5.96724">
        <ele>2104</ele>
        <time>2026-07-19T10:47:30Z</time>
      </trkpt>
      <trkpt lat="45.1812" lon="5.96721">
        <ele>2102.4</ele>
        <time>2026-07-19T10:47:32Z</time>
      </trkpt>
      <trkpt lat="45.18118" lon="5.96719">
        <ele>2100.8</ele>
        <time>2026-07-19T10:47:34Z</time>
      </trkpt>
      <trkpt lat="45.18117" lon="5.96716">
        <ele>2101.2</ele>
        <time>2026-07-19T10:47:35Z</time>
      </trkpt>
      <trkpt lat="45.1811" lon="5.96702">
        <ele>2099.6</ele>
        <time>2026-07-19T10:47:40Z</time>
      </trkpt>
      <trkpt lat="45.18108" lon="5.96698">
        <ele>2099.2</ele>
        <time>2026-07-19T10:47:41Z</time>
      </trkpt>
      <trkpt lat="45.18107" lon="5.96696">
        <ele>2098.2</ele>
        <time>2026-07-19T10:47:42Z</time>
      </trkpt>
      <trkpt lat="45.18102" lon="5.96686">
        <ele>2096.4</ele>
        <time>2026-07-19T10:47:46Z</time>
      </trkpt>
      <trkpt lat="45.181" lon="5.96685">
        <ele>2096</ele>
        <time>2026-07-19T10:47:47Z</time>
      </trkpt>
      <trkpt lat="45.18096" lon="5.9668">
        <ele>2096</ele>
        <time>2026-07-19T10:47:51Z</time>
      </trkpt>
      <trkpt lat="45.18094" lon="5.9668">
        <ele>2095.4</ele>
        <time>2026-07-19T10:47:52Z</time>
      </trkpt>
      <trkpt lat="45.18088" lon="5.96674">
        <ele>2096</ele>
        <time>2026-07-19T10:47:56Z</time>
      </trkpt>
      <trkpt lat="45.18087" lon="5.96673">
        <ele>2096</ele>
        <time>2026-07-19T10:47:57Z</time>
      </trkpt>
      <trkpt lat="45.18083" lon="5.96667">
        <ele>2096.2</ele>
        <time>2026-07-19T10:48:01Z</time>
      </trkpt>
      <trkpt lat="45.18079" lon="5.96661">
        <ele>2095</ele>
        <time>2026-07-19T10:48:04Z</time>
      </trkpt>
      <trkpt lat="45.18077" lon="5.96657">
        <ele>2093.4</ele>
        <time>2026-07-19T10:48:06Z</time>
      </trkpt>
      <trkpt lat="45.18076" lon="5.96656">
        <ele>2091.8</ele>
        <time>2026-07-19T10:48:07Z</time>
      </trkpt>
      <trkpt lat="45.18075" lon="5.96656">
        <ele>2090.4</ele>
        <time>2026-07-19T10:48:08Z</time>
      </trkpt>
      <trkpt lat="45.18074" lon="5.96656">
        <ele>2089.4</ele>
        <time>2026-07-19T10:48:10Z</time>
      </trkpt>
      <trkpt lat="45.18074" lon="5.96656">
        <ele>2091.6</ele>
        <time>2026-07-19T10:48:14Z</time>
      </trkpt>
      <trkpt lat="45.18072" lon="5.96656">
        <ele>2089.6</ele>
        <time>2026-07-19T10:48:17Z</time>
      </trkpt>
      <trkpt lat="45.18071" lon="5.96654">
        <ele>2088.4</ele>
        <time>2026-07-19T10:48:19Z</time>
      </trkpt>
      <trkpt lat="45.1807" lon="5.96652">
        <ele>2088.4</ele>
        <time>2026-07-19T10:48:20Z</time>
      </trkpt>
      <trkpt lat="45.18067" lon="5.96649">
        <ele>2087.2</ele>
        <time>2026-07-19T10:48:22Z</time>
      </trkpt>
      <trkpt lat="45.18066" lon="5.96643">
        <ele>2086</ele>
        <time>2026-07-19T10:48:25Z</time>
      </trkpt>
      <trkpt lat="45.18066" lon="5.96642">
        <ele>2085.4</ele>
        <time>2026-07-19T10:48:26Z</time>
      </trkpt>
      <trkpt lat="45.18066" lon="5.9664">
        <ele>2084.6</ele>
        <time>2026-07-19T10:48:27Z</time>
      </trkpt>
      <trkpt lat="45.18067" lon="5.96639">
        <ele>2084.2</ele>
        <time>2026-07-19T10:48:28Z</time>
      </trkpt>
      <trkpt lat="45.18072" lon="5.96639">
        <ele>2083.6</ele>
        <time>2026-07-19T10:48:31Z</time>
      </trkpt>
      <trkpt lat="45.18074" lon="5.96639">
        <ele>2083</ele>
        <time>2026-07-19T10:48:33Z</time>
      </trkpt>
      <trkpt lat="45.18074" lon="5.96636">
        <ele>2082</ele>
        <time>2026-07-19T10:48:35Z</time>
      </trkpt>
      <trkpt lat="45.18073" lon="5.96633">
        <ele>2083</ele>
        <time>2026-07-19T10:48:36Z</time>
      </trkpt>
      <trkpt lat="45.18074" lon="5.96631">
        <ele>2082.4</ele>
        <time>2026-07-19T10:48:37Z</time>
      </trkpt>
      <trkpt lat="45.18077" lon="5.96629">
        <ele>2082.2</ele>
        <time>2026-07-19T10:48:39Z</time>
      </trkpt>
      <trkpt lat="45.18079" lon="5.9663">
        <ele>2081.8</ele>
        <time>2026-07-19T10:48:40Z</time>
      </trkpt>
      <trkpt lat="45.1808" lon="5.96631">
        <ele>2081.2</ele>
        <time>2026-07-19T10:48:41Z</time>
      </trkpt>
      <trkpt lat="45.18082" lon="5.96632">
        <ele>2080.6</ele>
        <time>2026-07-19T10:48:42Z</time>
      </trkpt>
      <trkpt lat="45.18085" lon="5.96633">
        <ele>2079.8</ele>
        <time>2026-07-19T10:48:44Z</time>
      </trkpt>
      <trkpt lat="45.18087" lon="5.96633">
        <ele>2079.4</ele>
        <time>2026-07-19T10:48:45Z</time>
      </trkpt>
      <trkpt lat="45.18089" lon="5.96632">
        <ele>2078.6</ele>
        <time>2026-07-19T10:48:46Z</time>
      </trkpt>
      <trkpt lat="45.18091" lon="5.96632">
        <ele>2078.2</ele>
        <time>2026-07-19T10:48:47Z</time>
      </trkpt>
      <trkpt lat="45.18095" lon="5.96632">
        <ele>2076.4</ele>
        <time>2026-07-19T10:48:49Z</time>
      </trkpt>
      <trkpt lat="45.18096" lon="5.96632">
        <ele>2075.6</ele>
        <time>2026-07-19T10:48:50Z</time>
      </trkpt>
      <trkpt lat="45.18095" lon="5.9663">
        <ele>2074.2</ele>
        <time>2026-07-19T10:48:51Z</time>
      </trkpt>
      <trkpt lat="45.18094" lon="5.96626">
        <ele>2072.8</ele>
        <time>2026-07-19T10:48:53Z</time>
      </trkpt>
      <trkpt lat="45.18092" lon="5.96624">
        <ele>2071.6</ele>
        <time>2026-07-19T10:48:54Z</time>
      </trkpt>
      <trkpt lat="45.18091" lon="5.96619">
        <ele>2070.4</ele>
        <time>2026-07-19T10:48:56Z</time>
      </trkpt>
      <trkpt lat="45.1809" lon="5.96616">
        <ele>2070</ele>
        <time>2026-07-19T10:48:57Z</time>
      </trkpt>
      <trkpt lat="45.18092" lon="5.96615">
        <ele>2069.4</ele>
        <time>2026-07-19T10:48:59Z</time>
      </trkpt>
      <trkpt lat="45.18094" lon="5.96616">
        <ele>2068.2</ele>
        <time>2026-07-19T10:49:00Z</time>
      </trkpt>
      <trkpt lat="45.18098" lon="5.96616">
        <ele>2067</ele>
        <time>2026-07-19T10:49:02Z</time>
      </trkpt>
      <trkpt lat="45.18103" lon="5.96616">
        <ele>2065</ele>
        <time>2026-07-19T10:49:05Z</time>
      </trkpt>
      <trkpt lat="45.18107" lon="5.96615">
        <ele>2063.8</ele>
        <time>2026-07-19T10:49:07Z</time>
      </trkpt>
      <trkpt lat="45.18111" lon="5.96617">
        <ele>2062.2</ele>
        <time>2026-07-19T10:49:09Z</time>
      </trkpt>
      <trkpt lat="45.18112" lon="5.96619">
        <ele>2061.4</ele>
        <time>2026-07-19T10:49:10Z</time>
      </trkpt>
      <trkpt lat="45.18114" lon="5.96621">
        <ele>2060.2</ele>
        <time>2026-07-19T10:49:11Z</time>
      </trkpt>
      <trkpt lat="45.18115" lon="5.96624">
        <ele>2058.8</ele>
        <time>2026-07-19T10:49:12Z</time>
      </trkpt>
      <trkpt lat="45.18119" lon="5.96628">
        <ele>2057.4</ele>
        <time>2026-07-19T10:49:14Z</time>
      </trkpt>
      <trkpt lat="45.18121" lon="5.96628">
        <ele>2057.2</ele>
        <time>2026-07-19T10:49:15Z</time>
      </trkpt>
      <trkpt lat="45.18126" lon="5.9663">
        <ele>2056.2</ele>
        <time>2026-07-19T10:49:17Z</time>
      </trkpt>
      <trkpt lat="45.18133" lon="5.96633">
        <ele>2054.8</ele>
        <time>2026-07-19T10:49:20Z</time>
      </trkpt>
      <trkpt lat="45.18139" lon="5.96635">
        <ele>2052.4</ele>
        <time>2026-07-19T10:49:23Z</time>
      </trkpt>
      <trkpt lat="45.1814" lon="5.96635">
        <ele>2051.8</ele>
        <time>2026-07-19T10:49:25Z</time>
      </trkpt>
      <trkpt lat="45.1814" lon="5.96634">
        <ele>2051</ele>
        <time>2026-07-19T10:49:26Z</time>
      </trkpt>
      <trkpt lat="45.18141" lon="5.96632">
        <ele>2049</ele>
        <time>2026-07-19T10:49:28Z</time>
      </trkpt>
      <trkpt lat="45.18143" lon="5.96629">
        <ele>2047.6</ele>
        <time>2026-07-19T10:49:30Z</time>
      </trkpt>
      <trkpt lat="45.18151" lon="5.96622">
        <ele>2045.8</ele>
        <time>2026-07-19T10:49:36Z</time>
      </trkpt>
      <trkpt lat="45.18153" lon="5.96621">
        <ele>2045.6</ele>
        <time>2026-07-19T10:49:37Z</time>
      </trkpt>
      <trkpt lat="45.18154" lon="5.96621">
        <ele>2045.8</ele>
        <time>2026-07-19T10:49:38Z</time>
      </trkpt>
      <trkpt lat="45.18157" lon="5.96619">
        <ele>2044.2</ele>
        <time>2026-07-19T10:49:40Z</time>
      </trkpt>
      <trkpt lat="45.18159" lon="5.96619">
        <ele>2044</ele>
        <time>2026-07-19T10:49:41Z</time>
      </trkpt>
      <trkpt lat="45.18164" lon="5.96622">
        <ele>2043</ele>
        <time>2026-07-19T10:49:44Z</time>
      </trkpt>
      <trkpt lat="45.18165" lon="5.96621">
        <ele>2042.6</ele>
        <time>2026-07-19T10:49:45Z</time>
      </trkpt>
      <trkpt lat="45.18167" lon="5.9662">
        <ele>2042</ele>
        <time>2026-07-19T10:49:46Z</time>
      </trkpt>
      <trkpt lat="45.18168" lon="5.9662">
        <ele>2041.6</ele>
        <time>2026-07-19T10:49:47Z</time>
      </trkpt>
      <trkpt lat="45.18175" lon="5.96622">
        <ele>2040.8</ele>
        <time>2026-07-19T10:49:51Z</time>
      </trkpt>
      <trkpt lat="45.18178" lon="5.96622">
        <ele>2040.4</ele>
        <time>2026-07-19T10:49:53Z</time>
      </trkpt>
      <trkpt lat="45.1818" lon="5.96621">
        <ele>2039.2</ele>
        <time>2026-07-19T10:49:55Z</time>
      </trkpt>
      <trkpt lat="45.18184" lon="5.96625">
        <ele>2037.8</ele>
        <time>2026-07-19T10:49:58Z</time>
      </trkpt>
      <trkpt lat="45.18185" lon="5.96625">
        <ele>2037.4</ele>
        <time>2026-07-19T10:49:59Z</time>
      </trkpt>
      <trkpt lat="45.18186" lon="5.96624">
        <ele>2036.8</ele>
        <time>2026-07-19T10:50:00Z</time>
      </trkpt>
      <trkpt lat="45.18186" lon="5.96622">
        <ele>2036</ele>
        <time>2026-07-19T10:50:01Z</time>
      </trkpt>
      <trkpt lat="45.18187" lon="5.96619">
        <ele>2034.8</ele>
        <time>2026-07-19T10:50:03Z</time>
      </trkpt>
      <trkpt lat="45.18188" lon="5.96619">
        <ele>2034.2</ele>
        <time>2026-07-19T10:50:04Z</time>
      </trkpt>
      <trkpt lat="45.18189" lon="5.9662">
        <ele>2033.6</ele>
        <time>2026-07-19T10:50:05Z</time>
      </trkpt>
      <trkpt lat="45.18191" lon="5.96622">
        <ele>2032.2</ele>
        <time>2026-07-19T10:50:08Z</time>
      </trkpt>
      <trkpt lat="45.18193" lon="5.96624">
        <ele>2031.4</ele>
        <time>2026-07-19T10:50:10Z</time>
      </trkpt>
      <trkpt lat="45.18195" lon="5.96625">
        <ele>2031</ele>
        <time>2026-07-19T10:50:11Z</time>
      </trkpt>
      <trkpt lat="45.18196" lon="5.96627">
        <ele>2029.8</ele>
        <time>2026-07-19T10:50:13Z</time>
      </trkpt>
      <trkpt lat="45.18199" lon="5.96628">
        <ele>2028.4</ele>
        <time>2026-07-19T10:50:16Z</time>
      </trkpt>
      <trkpt lat="45.18199" lon="5.96629">
        <ele>2027.8</ele>
        <time>2026-07-19T10:50:18Z</time>
      </trkpt>
      <trkpt lat="45.182" lon="5.96629">
        <ele>2027.2</ele>
        <time>2026-07-19T10:50:19Z</time>
      </trkpt>
      <trkpt lat="45.18205" lon="5.96634">
        <ele>2026</ele>
        <time>2026-07-19T10:50:23Z</time>
      </trkpt>
      <trkpt lat="45.18207" lon="5.96635">
        <ele>2025.4</ele>
        <time>2026-07-19T10:50:25Z</time>
      </trkpt>
      <trkpt lat="45.18207" lon="5.96637">
        <ele>2024.8</ele>
        <time>2026-07-19T10:50:27Z</time>
      </trkpt>
      <trkpt lat="45.1821" lon="5.96642">
        <ele>2023.6</ele>
        <time>2026-07-19T10:50:31Z</time>
      </trkpt>
      <trkpt lat="45.18211" lon="5.96645">
        <ele>2023</ele>
        <time>2026-07-19T10:50:35Z</time>
      </trkpt>
      <trkpt lat="45.18214" lon="5.9665">
        <ele>2022.4</ele>
        <time>2026-07-19T10:50:40Z</time>
      </trkpt>
      <trkpt lat="45.18217" lon="5.96655">
        <ele>2022.4</ele>
        <time>2026-07-19T10:50:46Z</time>
      </trkpt>
      <trkpt lat="45.18218" lon="5.96657">
        <ele>2021.2</ele>
        <time>2026-07-19T10:50:47Z</time>
      </trkpt>
      <trkpt lat="45.18219" lon="5.9666">
        <ele>2020.8</ele>
        <time>2026-07-19T10:50:48Z</time>
      </trkpt>
      <trkpt lat="45.18221" lon="5.96667">
        <ele>2019.4</ele>
        <time>2026-07-19T10:50:50Z</time>
      </trkpt>
      <trkpt lat="45.1823" lon="5.96684">
        <ele>2018.4</ele>
        <time>2026-07-19T10:50:55Z</time>
      </trkpt>
      <trkpt lat="45.18232" lon="5.96686">
        <ele>2017.8</ele>
        <time>2026-07-19T10:50:56Z</time>
      </trkpt>
      <trkpt lat="45.18232" lon="5.96689">
        <ele>2016.2</ele>
        <time>2026-07-19T10:50:57Z</time>
      </trkpt>
      <trkpt lat="45.18233" lon="5.96695">
        <ele>2014.8</ele>
        <time>2026-07-19T10:50:59Z</time>
      </trkpt>
      <trkpt lat="45.18234" lon="5.96696">
        <ele>2014.4</ele>
        <time>2026-07-19T10:51:00Z</time>
      </trkpt>
      <trkpt lat="45.18236" lon="5.96697">
        <ele>2013.6</ele>
        <time>2026-07-19T10:51:01Z</time>
      </trkpt>
      <trkpt lat="45.18241" lon="5.96703">
        <ele>2012.2</ele>
        <time>2026-07-19T10:51:04Z</time>
      </trkpt>
      <trkpt lat="45.18246" lon="5.96707">
        <ele>2011</ele>
        <time>2026-07-19T10:51:07Z</time>
      </trkpt>
      <trkpt lat="45.1825" lon="5.9671">
        <ele>2010.4</ele>
        <time>2026-07-19T10:51:10Z</time>
      </trkpt>
      <trkpt lat="45.18251" lon="5.9671">
        <ele>2009.4</ele>
        <time>2026-07-19T10:51:11Z</time>
      </trkpt>
      <trkpt lat="45.18255" lon="5.96709">
        <ele>2007.8</ele>
        <time>2026-07-19T10:51:14Z</time>
      </trkpt>
      <trkpt lat="45.18256" lon="5.96709">
        <ele>2006.6</ele>
        <time>2026-07-19T10:51:17Z</time>
      </trkpt>
      <trkpt lat="45.18254" lon="5.96708">
        <ele>2004.4</ele>
        <time>2026-07-19T10:51:19Z</time>
      </trkpt>
      <trkpt lat="45.18254" lon="5.96707">
        <ele>2003.2</ele>
        <time>2026-07-19T10:51:20Z</time>
      </trkpt>
      <trkpt lat="45.18255" lon="5.96705">
        <ele>2001.6</ele>
        <time>2026-07-19T10:51:22Z</time>
      </trkpt>
      <trkpt lat="45.18256" lon="5.96703">
        <ele>2000.2</ele>
        <time>2026-07-19T10:51:24Z</time>
      </trkpt>
      <trkpt lat="45.18259" lon="5.96701">
        <ele>1999</ele>
        <time>2026-07-19T10:51:26Z</time>
      </trkpt>
      <trkpt lat="45.18261" lon="5.96702">
        <ele>1997.8</ele>
        <time>2026-07-19T10:51:28Z</time>
      </trkpt>
      <trkpt lat="45.18262" lon="5.96701">
        <ele>1997</ele>
        <time>2026-07-19T10:51:29Z</time>
      </trkpt>
      <trkpt lat="45.18261" lon="5.96699">
        <ele>1995.8</ele>
        <time>2026-07-19T10:51:30Z</time>
      </trkpt>
      <trkpt lat="45.18258" lon="5.96695">
        <ele>1994</ele>
        <time>2026-07-19T10:51:32Z</time>
      </trkpt>
      <trkpt lat="45.18257" lon="5.96692">
        <ele>1993.6</ele>
        <time>2026-07-19T10:51:34Z</time>
      </trkpt>
      <trkpt lat="45.18258" lon="5.9669">
        <ele>1993.6</ele>
        <time>2026-07-19T10:51:35Z</time>
      </trkpt>
      <trkpt lat="45.18261" lon="5.96687">
        <ele>1992.6</ele>
        <time>2026-07-19T10:51:38Z</time>
      </trkpt>
      <trkpt lat="45.18261" lon="5.96684">
        <ele>1991.6</ele>
        <time>2026-07-19T10:51:40Z</time>
      </trkpt>
      <trkpt lat="45.1826" lon="5.96683">
        <ele>1990.6</ele>
        <time>2026-07-19T10:51:41Z</time>
      </trkpt>
      <trkpt lat="45.18257" lon="5.96678">
        <ele>1989.4</ele>
        <time>2026-07-19T10:51:44Z</time>
      </trkpt>
      <trkpt lat="45.1826" lon="5.96677">
        <ele>1987.4</ele>
        <time>2026-07-19T10:51:47Z</time>
      </trkpt>
      <trkpt lat="45.18261" lon="5.96676">
        <ele>1986.8</ele>
        <time>2026-07-19T10:51:48Z</time>
      </trkpt>
      <trkpt lat="45.18261" lon="5.96675">
        <ele>1985.6</ele>
        <time>2026-07-19T10:51:49Z</time>
      </trkpt>
      <trkpt lat="45.1826" lon="5.96674">
        <ele>1984.2</ele>
        <time>2026-07-19T10:51:50Z</time>
      </trkpt>
      <trkpt lat="45.18258" lon="5.96673">
        <ele>1982.6</ele>
        <time>2026-07-19T10:51:51Z</time>
      </trkpt>
      <trkpt lat="45.18257" lon="5.96672">
        <ele>1981.4</ele>
        <time>2026-07-19T10:51:52Z</time>
      </trkpt>
      <trkpt lat="45.18256" lon="5.96671">
        <ele>1980</ele>
        <time>2026-07-19T10:51:53Z</time>
      </trkpt>
      <trkpt lat="45.18255" lon="5.96671">
        <ele>1978.4</ele>
        <time>2026-07-19T10:51:54Z</time>
      </trkpt>
      <trkpt lat="45.18254" lon="5.9667">
        <ele>1976.8</ele>
        <time>2026-07-19T10:51:55Z</time>
      </trkpt>
      <trkpt lat="45.18253" lon="5.96669">
        <ele>1975.4</ele>
        <time>2026-07-19T10:51:56Z</time>
      </trkpt>
      <trkpt lat="45.18252" lon="5.96668">
        <ele>1974</ele>
        <time>2026-07-19T10:51:57Z</time>
      </trkpt>
      <trkpt lat="45.18251" lon="5.96664">
        <ele>1973</ele>
        <time>2026-07-19T10:51:59Z</time>
      </trkpt>
      <trkpt lat="45.1825" lon="5.96662">
        <ele>1972.6</ele>
        <time>2026-07-19T10:52:00Z</time>
      </trkpt>
      <trkpt lat="45.18248" lon="5.96659">
        <ele>1970.8</ele>
        <time>2026-07-19T10:52:02Z</time>
      </trkpt>
      <trkpt lat="45.18248" lon="5.96656">
        <ele>1969.8</ele>
        <time>2026-07-19T10:52:04Z</time>
      </trkpt>
      <trkpt lat="45.18248" lon="5.96654">
        <ele>1970</ele>
        <time>2026-07-19T10:52:05Z</time>
      </trkpt>
      <trkpt lat="45.18252" lon="5.96651">
        <ele>1970.2</ele>
        <time>2026-07-19T10:52:08Z</time>
      </trkpt>
      <trkpt lat="45.18252" lon="5.9665">
        <ele>1969.2</ele>
        <time>2026-07-19T10:52:09Z</time>
      </trkpt>
      <trkpt lat="45.18252" lon="5.96648">
        <ele>1968.6</ele>
        <time>2026-07-19T10:52:10Z</time>
      </trkpt>
      <trkpt lat="45.18251" lon="5.96643">
        <ele>1968</ele>
        <time>2026-07-19T10:52:12Z</time>
      </trkpt>
      <trkpt lat="45.18251" lon="5.96641">
        <ele>1967</ele>
        <time>2026-07-19T10:52:13Z</time>
      </trkpt>
      <trkpt lat="45.18248" lon="5.96638">
        <ele>1965</ele>
        <time>2026-07-19T10:52:15Z</time>
      </trkpt>
      <trkpt lat="45.18247" lon="5.96633">
        <ele>1964.4</ele>
        <time>2026-07-19T10:52:17Z</time>
      </trkpt>
      <trkpt lat="45.18246" lon="5.96631">
        <ele>1963.8</ele>
        <time>2026-07-19T10:52:18Z</time>
      </trkpt>
      <trkpt lat="45.18242" lon="5.96623">
        <ele>1962.6</ele>
        <time>2026-07-19T10:52:21Z</time>
      </trkpt>
      <trkpt lat="45.18241" lon="5.9662">
        <ele>1962</ele>
        <time>2026-07-19T10:52:22Z</time>
      </trkpt>
      <trkpt lat="45.18243" lon="5.96616">
        <ele>1959.8</ele>
        <time>2026-07-19T10:52:27Z</time>
      </trkpt>
      <trkpt lat="45.18245" lon="5.96616">
        <ele>1959</ele>
        <time>2026-07-19T10:52:28Z</time>
      </trkpt>
      <trkpt lat="45.18247" lon="5.96617">
        <ele>1958</ele>
        <time>2026-07-19T10:52:29Z</time>
      </trkpt>
      <trkpt lat="45.18252" lon="5.9662">
        <ele>1956.8</ele>
        <time>2026-07-19T10:52:31Z</time>
      </trkpt>
      <trkpt lat="45.18254" lon="5.9662">
        <ele>1956</ele>
        <time>2026-07-19T10:52:32Z</time>
      </trkpt>
      <trkpt lat="45.18255" lon="5.9662">
        <ele>1954.6</ele>
        <time>2026-07-19T10:52:33Z</time>
      </trkpt>
      <trkpt lat="45.18266" lon="5.96616">
        <ele>1954.8</ele>
        <time>2026-07-19T10:52:38Z</time>
      </trkpt>
      <trkpt lat="45.18272" lon="5.96615">
        <ele>1955.8</ele>
        <time>2026-07-19T10:52:41Z</time>
      </trkpt>
      <trkpt lat="45.18275" lon="5.96614">
        <ele>1956</ele>
        <time>2026-07-19T10:52:43Z</time>
      </trkpt>
      <trkpt lat="45.1828" lon="5.96614">
        <ele>1955.2</ele>
        <time>2026-07-19T10:52:47Z</time>
      </trkpt>
      <trkpt lat="45.1828" lon="5.96613">
        <ele>1954.8</ele>
        <time>2026-07-19T10:52:49Z</time>
      </trkpt>
      <trkpt lat="45.1828" lon="5.96613">
        <ele>1954.6</ele>
        <time>2026-07-19T10:52:50Z</time>
      </trkpt>
      <trkpt lat="45.18281" lon="5.96614">
        <ele>1953.4</ele>
        <time>2026-07-19T10:52:53Z</time>
      </trkpt>
      <trkpt lat="45.1828" lon="5.96614">
        <ele>1952.2</ele>
        <time>2026-07-19T10:52:54Z</time>
      </trkpt>
      <trkpt lat="45.18281" lon="5.96615">
        <ele>1951</ele>
        <time>2026-07-19T10:52:57Z</time>
      </trkpt>
      <trkpt lat="45.18284" lon="5.96618">
        <ele>1950.2</ele>
        <time>2026-07-19T10:53:00Z</time>
      </trkpt>
      <trkpt lat="45.18288" lon="5.96618">
        <ele>1949.8</ele>
        <time>2026-07-19T10:53:02Z</time>
      </trkpt>
      <trkpt lat="45.18291" lon="5.96619">
        <ele>1948.6</ele>
        <time>2026-07-19T10:53:04Z</time>
      </trkpt>
      <trkpt lat="45.18292" lon="5.96619">
        <ele>1948.2</ele>
        <time>2026-07-19T10:53:05Z</time>
      </trkpt>
      <trkpt lat="45.18295" lon="5.96621">
        <ele>1947.2</ele>
        <time>2026-07-19T10:53:08Z</time>
      </trkpt>
      <trkpt lat="45.18296" lon="5.9662">
        <ele>1946.6</ele>
        <time>2026-07-19T10:53:09Z</time>
      </trkpt>
      <trkpt lat="45.18299" lon="5.96619">
        <ele>1946.6</ele>
        <time>2026-07-19T10:53:12Z</time>
      </trkpt>
      <trkpt lat="45.18302" lon="5.96622">
        <ele>1946</ele>
        <time>2026-07-19T10:53:15Z</time>
      </trkpt>
      <trkpt lat="45.18305" lon="5.96626">
        <ele>1946</ele>
        <time>2026-07-19T10:53:20Z</time>
      </trkpt>
      <trkpt lat="45.18306" lon="5.96631">
        <ele>1945.2</ele>
        <time>2026-07-19T10:53:23Z</time>
      </trkpt>
      <trkpt lat="45.18306" lon="5.96632">
        <ele>1944.8</ele>
        <time>2026-07-19T10:53:24Z</time>
      </trkpt>
      <trkpt lat="45.1831" lon="5.96638">
        <ele>1943.6</ele>
        <time>2026-07-19T10:53:27Z</time>
      </trkpt>
      <trkpt lat="45.18312" lon="5.9664">
        <ele>1943.8</ele>
        <time>2026-07-19T10:53:28Z</time>
      </trkpt>
      <trkpt lat="45.18319" lon="5.96647">
        <ele>1942.6</ele>
        <time>2026-07-19T10:53:32Z</time>
      </trkpt>
      <trkpt lat="45.1832" lon="5.96648">
        <ele>1942.4</ele>
        <time>2026-07-19T10:53:33Z</time>
      </trkpt>
      <trkpt lat="45.18326" lon="5.96654">
        <ele>1941.4</ele>
        <time>2026-07-19T10:53:37Z</time>
      </trkpt>
      <trkpt lat="45.18329" lon="5.96659">
        <ele>1940.2</ele>
        <time>2026-07-19T10:53:40Z</time>
      </trkpt>
      <trkpt lat="45.18331" lon="5.9666">
        <ele>1939.6</ele>
        <time>2026-07-19T10:53:43Z</time>
      </trkpt>
      <trkpt lat="45.18334" lon="5.9666">
        <ele>1940.2</ele>
        <time>2026-07-19T10:53:45Z</time>
      </trkpt>
      <trkpt lat="45.18341" lon="5.96663">
        <ele>1939</ele>
        <time>2026-07-19T10:53:48Z</time>
      </trkpt>
      <trkpt lat="45.18347" lon="5.96665">
        <ele>1937.8</ele>
        <time>2026-07-19T10:53:50Z</time>
      </trkpt>
      <trkpt lat="45.18352" lon="5.96669">
        <ele>1936.6</ele>
        <time>2026-07-19T10:53:52Z</time>
      </trkpt>
      <trkpt lat="45.18356" lon="5.96671">
        <ele>1935.8</ele>
        <time>2026-07-19T10:53:54Z</time>
      </trkpt>
      <trkpt lat="45.1836" lon="5.96672">
        <ele>1935</ele>
        <time>2026-07-19T10:53:56Z</time>
      </trkpt>
      <trkpt lat="45.18368" lon="5.96675">
        <ele>1935.2</ele>
        <time>2026-07-19T10:53:59Z</time>
      </trkpt>
      <trkpt lat="45.18373" lon="5.96677">
        <ele>1935.6</ele>
        <time>2026-07-19T10:54:02Z</time>
      </trkpt>
      <trkpt lat="45.18376" lon="5.96675">
        <ele>1935.2</ele>
        <time>2026-07-19T10:54:04Z</time>
      </trkpt>
      <trkpt lat="45.18385" lon="5.96671">
        <ele>1934.2</ele>
        <time>2026-07-19T10:54:09Z</time>
      </trkpt>
      <trkpt lat="45.1839" lon="5.96672">
        <ele>1933.4</ele>
        <time>2026-07-19T10:54:11Z</time>
      </trkpt>
      <trkpt lat="45.18396" lon="5.96672">
        <ele>1932.4</ele>
        <time>2026-07-19T10:54:14Z</time>
      </trkpt>
      <trkpt lat="45.18397" lon="5.96673">
        <ele>1932.4</ele>
        <time>2026-07-19T10:54:15Z</time>
      </trkpt>
      <trkpt lat="45.18397" lon="5.96674">
        <ele>1932</ele>
        <time>2026-07-19T10:54:16Z</time>
      </trkpt>
      <trkpt lat="45.18399" lon="5.96676">
        <ele>1930.4</ele>
        <time>2026-07-19T10:54:19Z</time>
      </trkpt>
      <trkpt lat="45.184" lon="5.96677">
        <ele>1929.8</ele>
        <time>2026-07-19T10:54:20Z</time>
      </trkpt>
      <trkpt lat="45.18401" lon="5.96677">
        <ele>1929.2</ele>
        <time>2026-07-19T10:54:21Z</time>
      </trkpt>
      <trkpt lat="45.18404" lon="5.96679">
        <ele>1927</ele>
        <time>2026-07-19T10:54:23Z</time>
      </trkpt>
      <trkpt lat="45.18405" lon="5.96682">
        <ele>1925.8</ele>
        <time>2026-07-19T10:54:25Z</time>
      </trkpt>
      <trkpt lat="45.18405" lon="5.96685">
        <ele>1925</ele>
        <time>2026-07-19T10:54:26Z</time>
      </trkpt>
      <trkpt lat="45.18405" lon="5.96687">
        <ele>1924.6</ele>
        <time>2026-07-19T10:54:27Z</time>
      </trkpt>
      <trkpt lat="45.18404" lon="5.9669">
        <ele>1922.6</ele>
        <time>2026-07-19T10:54:29Z</time>
      </trkpt>
      <trkpt lat="45.18404" lon="5.96692">
        <ele>1921.4</ele>
        <time>2026-07-19T10:54:30Z</time>
      </trkpt>
      <trkpt lat="45.18403" lon="5.96694">
        <ele>1919.8</ele>
        <time>2026-07-19T10:54:31Z</time>
      </trkpt>
      <trkpt lat="45.18403" lon="5.96696">
        <ele>1918.6</ele>
        <time>2026-07-19T10:54:32Z</time>
      </trkpt>
      <trkpt lat="45.18402" lon="5.96697">
        <ele>1917.4</ele>
        <time>2026-07-19T10:54:34Z</time>
      </trkpt>
      <trkpt lat="45.18401" lon="5.96699">
        <ele>1915.4</ele>
        <time>2026-07-19T10:54:36Z</time>
      </trkpt>
      <trkpt lat="45.18401" lon="5.96702">
        <ele>1913.6</ele>
        <time>2026-07-19T10:54:38Z</time>
      </trkpt>
      <trkpt lat="45.184" lon="5.96707">
        <ele>1912</ele>
        <time>2026-07-19T10:54:43Z</time>
      </trkpt>
      <trkpt lat="45.18403" lon="5.96708">
        <ele>1912.4</ele>
        <time>2026-07-19T10:54:45Z</time>
      </trkpt>
      <trkpt lat="45.18406" lon="5.96706">
        <ele>1913.8</ele>
        <time>2026-07-19T10:54:47Z</time>
      </trkpt>
      <trkpt lat="45.18407" lon="5.96705">
        <ele>1914.4</ele>
        <time>2026-07-19T10:54:48Z</time>
      </trkpt>
      <trkpt lat="45.18408" lon="5.96705">
        <ele>1914.4</ele>
        <time>2026-07-19T10:54:49Z</time>
      </trkpt>
      <trkpt lat="45.18417" lon="5.96698">
        <ele>1913.2</ele>
        <time>2026-07-19T10:54:56Z</time>
      </trkpt>
      <trkpt lat="45.18419" lon="5.96697">
        <ele>1914</ele>
        <time>2026-07-19T10:54:58Z</time>
      </trkpt>
      <trkpt lat="45.1842" lon="5.96694">
        <ele>1913.4</ele>
        <time>2026-07-19T10:55:00Z</time>
      </trkpt>
      <trkpt lat="45.18427" lon="5.96696">
        <ele>1913.6</ele>
        <time>2026-07-19T10:55:04Z</time>
      </trkpt>
      <trkpt lat="45.18428" lon="5.96696">
        <ele>1913.4</ele>
        <time>2026-07-19T10:55:05Z</time>
      </trkpt>
      <trkpt lat="45.1843" lon="5.96696">
        <ele>1912.6</ele>
        <time>2026-07-19T10:55:06Z</time>
      </trkpt>
      <trkpt lat="45.18435" lon="5.96695">
        <ele>1911</ele>
        <time>2026-07-19T10:55:09Z</time>
      </trkpt>
      <trkpt lat="45.18437" lon="5.96695">
        <ele>1910.2</ele>
        <time>2026-07-19T10:55:11Z</time>
      </trkpt>
      <trkpt lat="45.18439" lon="5.96695">
        <ele>1909.6</ele>
        <time>2026-07-19T10:55:12Z</time>
      </trkpt>
      <trkpt lat="45.1844" lon="5.96696">
        <ele>1909.2</ele>
        <time>2026-07-19T10:55:13Z</time>
      </trkpt>
      <trkpt lat="45.18442" lon="5.96697">
        <ele>1908.4</ele>
        <time>2026-07-19T10:55:14Z</time>
      </trkpt>
      <trkpt lat="45.18445" lon="5.96697">
        <ele>1907.2</ele>
        <time>2026-07-19T10:55:16Z</time>
      </trkpt>
      <trkpt lat="45.18447" lon="5.96697">
        <ele>1906</ele>
        <time>2026-07-19T10:55:18Z</time>
      </trkpt>
      <trkpt lat="45.18448" lon="5.96696">
        <ele>1904.8</ele>
        <time>2026-07-19T10:55:19Z</time>
      </trkpt>
      <trkpt lat="45.18452" lon="5.96692">
        <ele>1903.2</ele>
        <time>2026-07-19T10:55:22Z</time>
      </trkpt>
      <trkpt lat="45.18456" lon="5.96688">
        <ele>1902.4</ele>
        <time>2026-07-19T10:55:25Z</time>
      </trkpt>
      <trkpt lat="45.18458" lon="5.96688">
        <ele>1902</ele>
        <time>2026-07-19T10:55:26Z</time>
      </trkpt>
      <trkpt lat="45.18464" lon="5.96684">
        <ele>1900.4</ele>
        <time>2026-07-19T10:55:30Z</time>
      </trkpt>
      <trkpt lat="45.18465" lon="5.96683">
        <ele>1899.8</ele>
        <time>2026-07-19T10:55:31Z</time>
      </trkpt>
      <trkpt lat="45.18473" lon="5.96681">
        <ele>1899</ele>
        <time>2026-07-19T10:55:35Z</time>
      </trkpt>
      <trkpt lat="45.18475" lon="5.96679">
        <ele>1898.8</ele>
        <time>2026-07-19T10:55:36Z</time>
      </trkpt>
      <trkpt lat="45.1848" lon="5.96678">
        <ele>1898</ele>
        <time>2026-07-19T10:55:38Z</time>
      </trkpt>
      <trkpt lat="45.18487" lon="5.96677">
        <ele>1896.8</ele>
        <time>2026-07-19T10:55:42Z</time>
      </trkpt>
      <trkpt lat="45.18495" lon="5.96672">
        <ele>1897.4</ele>
        <time>2026-07-19T10:55:48Z</time>
      </trkpt>
      <trkpt lat="45.185" lon="5.96671">
        <ele>1897.6</ele>
        <time>2026-07-19T10:55:51Z</time>
      </trkpt>
      <trkpt lat="45.18503" lon="5.96671">
        <ele>1897.4</ele>
        <time>2026-07-19T10:55:53Z</time>
      </trkpt>
      <trkpt lat="45.1851" lon="5.96672">
        <ele>1897.4</ele>
        <time>2026-07-19T10:55:58Z</time>
      </trkpt>
      <trkpt lat="45.1851" lon="5.96671">
        <ele>1898.2</ele>
        <time>2026-07-19T10:56:01Z</time>
      </trkpt>
      <trkpt lat="45.1851" lon="5.96671">
        <ele>1897.6</ele>
        <time>2026-07-19T10:56:06Z</time>
      </trkpt>
      <trkpt lat="45.1851" lon="5.9667">
        <ele>1898</ele>
        <time>2026-07-19T10:56:22Z</time>
      </trkpt>
      <trkpt lat="45.1851" lon="5.96671">
        <ele>1897</ele>
        <time>2026-07-19T10:56:37Z</time>
      </trkpt>
      <trkpt lat="45.1851" lon="5.96671">
        <ele>1895.8</ele>
        <time>2026-07-19T10:56:42Z</time>
      </trkpt>
      <trkpt lat="45.18509" lon="5.9667">
        <ele>1896.8</ele>
        <time>2026-07-19T10:56:55Z</time>
      </trkpt>
      <trkpt lat="45.18509" lon="5.9667">
        <ele>1897</ele>
        <time>2026-07-19T10:56:58Z</time>
      </trkpt>
      <trkpt lat="45.18509" lon="5.96671">
        <ele>1898.2</ele>
        <time>2026-07-19T10:57:12Z</time>
      </trkpt>
      <trkpt lat="45.18509" lon="5.9667">
        <ele>1897.8</ele>
        <time>2026-07-19T10:57:26Z</time>
      </trkpt>
      <trkpt lat="45.1851" lon="5.96671">
        <ele>1896.8</ele>
        <time>2026-07-19T10:57:32Z</time>
      </trkpt>
      <trkpt lat="45.18511" lon="5.96672">
        <ele>1896.4</ele>
        <time>2026-07-19T10:57:42Z</time>
      </trkpt>
      <trkpt lat="45.18517" lon="5.9667">
        <ele>1897.8</ele>
        <time>2026-07-19T10:57:50Z</time>
      </trkpt>
      <trkpt lat="45.18521" lon="5.96669">
        <ele>1898</ele>
        <time>2026-07-19T10:57:53Z</time>
      </trkpt>
      <trkpt lat="45.18523" lon="5.96668">
        <ele>1899</ele>
        <time>2026-07-19T10:57:56Z</time>
      </trkpt>
      <trkpt lat="45.18526" lon="5.96668">
        <ele>1900.6</ele>
        <time>2026-07-19T10:57:59Z</time>
      </trkpt>
      <trkpt lat="45.18528" lon="5.96669">
        <ele>1901</ele>
        <time>2026-07-19T10:58:01Z</time>
      </trkpt>
      <trkpt lat="45.18538" lon="5.96667">
        <ele>1902</ele>
        <time>2026-07-19T10:58:11Z</time>
      </trkpt>
      <trkpt lat="45.18539" lon="5.96667">
        <ele>1902.2</ele>
        <time>2026-07-19T10:58:12Z</time>
      </trkpt>
      <trkpt lat="45.1854" lon="5.96667">
        <ele>1903.2</ele>
        <time>2026-07-19T10:58:14Z</time>
      </trkpt>
      <trkpt lat="45.18546" lon="5.96669">
        <ele>1903.2</ele>
        <time>2026-07-19T10:58:22Z</time>
      </trkpt>
      <trkpt lat="45.18549" lon="5.96669">
        <ele>1905</ele>
        <time>2026-07-19T10:58:24Z</time>
      </trkpt>
      <trkpt lat="45.1856" lon="5.96672">
        <ele>1905.8</ele>
        <time>2026-07-19T10:58:32Z</time>
      </trkpt>
      <trkpt lat="45.18566" lon="5.96676">
        <ele>1904.4</ele>
        <time>2026-07-19T10:58:41Z</time>
      </trkpt>
      <trkpt lat="45.18567" lon="5.96675">
        <ele>1904</ele>
        <time>2026-07-19T10:58:43Z</time>
      </trkpt>
      <trkpt lat="45.18571" lon="5.96672">
        <ele>1905.2</ele>
        <time>2026-07-19T10:58:49Z</time>
      </trkpt>
      <trkpt lat="45.18573" lon="5.9667">
        <ele>1906.4</ele>
        <time>2026-07-19T10:58:53Z</time>
      </trkpt>
      <trkpt lat="45.18577" lon="5.96668">
        <ele>1906.6</ele>
        <time>2026-07-19T10:58:59Z</time>
      </trkpt>
      <trkpt lat="45.18588" lon="5.96663">
        <ele>1907.2</ele>
        <time>2026-07-19T10:59:10Z</time>
      </trkpt>
      <trkpt lat="45.18589" lon="5.96661">
        <ele>1907.6</ele>
        <time>2026-07-19T10:59:12Z</time>
      </trkpt>
      <trkpt lat="45.18593" lon="5.96654">
        <ele>1907.8</ele>
        <time>2026-07-19T10:59:19Z</time>
      </trkpt>
      <trkpt lat="45.18595" lon="5.96652">
        <ele>1906.4</ele>
        <time>2026-07-19T10:59:24Z</time>
      </trkpt>
      <trkpt lat="45.18598" lon="5.96652">
        <ele>1905.8</ele>
        <time>2026-07-19T10:59:27Z</time>
      </trkpt>
      <trkpt lat="45.18599" lon="5.96653">
        <ele>1905.2</ele>
        <time>2026-07-19T10:59:28Z</time>
      </trkpt>
      <trkpt lat="45.18605" lon="5.96653">
        <ele>1904</ele>
        <time>2026-07-19T10:59:35Z</time>
      </trkpt>
      <trkpt lat="45.18607" lon="5.96653">
        <ele>1903.6</ele>
        <time>2026-07-19T10:59:37Z</time>
      </trkpt>
      <trkpt lat="45.18615" lon="5.96653">
        <ele>1902.6</ele>
        <time>2026-07-19T10:59:44Z</time>
      </trkpt>
      <trkpt lat="45.18617" lon="5.96654">
        <ele>1902.4</ele>
        <time>2026-07-19T10:59:46Z</time>
      </trkpt>
      <trkpt lat="45.18624" lon="5.96657">
        <ele>1901.4</ele>
        <time>2026-07-19T10:59:53Z</time>
      </trkpt>
      <trkpt lat="45.18628" lon="5.96658">
        <ele>1900.2</ele>
        <time>2026-07-19T10:59:57Z</time>
      </trkpt>
      <trkpt lat="45.18636" lon="5.96657">
        <ele>1900.6</ele>
        <time>2026-07-19T11:00:07Z</time>
      </trkpt>
      <trkpt lat="45.18638" lon="5.96656">
        <ele>1901.4</ele>
        <time>2026-07-19T11:00:09Z</time>
      </trkpt>
      <trkpt lat="45.18644" lon="5.96653">
        <ele>1902.6</ele>
        <time>2026-07-19T11:00:17Z</time>
      </trkpt>
      <trkpt lat="45.18644" lon="5.96653">
        <ele>1902.6</ele>
        <time>2026-07-19T11:00:18Z</time>
      </trkpt>
      <trkpt lat="45.18647" lon="5.96653">
        <ele>1904</ele>
        <time>2026-07-19T11:00:22Z</time>
      </trkpt>
      <trkpt lat="45.18648" lon="5.9665">
        <ele>1905.2</ele>
        <time>2026-07-19T11:00:24Z</time>
      </trkpt>
      <trkpt lat="45.18649" lon="5.96649">
        <ele>1905.6</ele>
        <time>2026-07-19T11:00:25Z</time>
      </trkpt>
      <trkpt lat="45.1865" lon="5.96648">
        <ele>1906.2</ele>
        <time>2026-07-19T11:00:26Z</time>
      </trkpt>
      <trkpt lat="45.18651" lon="5.96647">
        <ele>1906.8</ele>
        <time>2026-07-19T11:00:27Z</time>
      </trkpt>
      <trkpt lat="45.18653" lon="5.96645">
        <ele>1908</ele>
        <time>2026-07-19T11:00:29Z</time>
      </trkpt>
      <trkpt lat="45.18656" lon="5.96645">
        <ele>1909.2</ele>
        <time>2026-07-19T11:00:32Z</time>
      </trkpt>
      <trkpt lat="45.18658" lon="5.96646">
        <ele>1909.6</ele>
        <time>2026-07-19T11:00:35Z</time>
      </trkpt>
      <trkpt lat="45.1866" lon="5.96645">
        <ele>1910.4</ele>
        <time>2026-07-19T11:00:38Z</time>
      </trkpt>
      <trkpt lat="45.18664" lon="5.96645">
        <ele>1911.8</ele>
        <time>2026-07-19T11:00:43Z</time>
      </trkpt>
      <trkpt lat="45.18666" lon="5.96644">
        <ele>1912.6</ele>
        <time>2026-07-19T11:00:46Z</time>
      </trkpt>
      <trkpt lat="45.18667" lon="5.96644">
        <ele>1912.8</ele>
        <time>2026-07-19T11:00:47Z</time>
      </trkpt>
      <trkpt lat="45.18671" lon="5.96643">
        <ele>1914.2</ele>
        <time>2026-07-19T11:00:54Z</time>
      </trkpt>
      <trkpt lat="45.18673" lon="5.96643">
        <ele>1915.4</ele>
        <time>2026-07-19T11:00:57Z</time>
      </trkpt>
      <trkpt lat="45.18676" lon="5.96643">
        <ele>1916.2</ele>
        <time>2026-07-19T11:01:00Z</time>
      </trkpt>
      <trkpt lat="45.18676" lon="5.96643">
        <ele>1916.6</ele>
        <time>2026-07-19T11:01:01Z</time>
      </trkpt>
      <trkpt lat="45.18678" lon="5.96641">
        <ele>1917.8</ele>
        <time>2026-07-19T11:01:07Z</time>
      </trkpt>
      <trkpt lat="45.18678" lon="5.96641">
        <ele>1919.2</ele>
        <time>2026-07-19T11:01:10Z</time>
      </trkpt>
      <trkpt lat="45.18679" lon="5.96641">
        <ele>1919.6</ele>
        <time>2026-07-19T11:01:11Z</time>
      </trkpt>
      <trkpt lat="45.18679" lon="5.9664">
        <ele>1920.2</ele>
        <time>2026-07-19T11:01:12Z</time>
      </trkpt>
      <trkpt lat="45.18681" lon="5.96639">
        <ele>1921.6</ele>
        <time>2026-07-19T11:01:14Z</time>
      </trkpt>
      <trkpt lat="45.18684" lon="5.96637">
        <ele>1923</ele>
        <time>2026-07-19T11:01:18Z</time>
      </trkpt>
      <trkpt lat="45.18685" lon="5.96637">
        <ele>1923.2</ele>
        <time>2026-07-19T11:01:20Z</time>
      </trkpt>
      <trkpt lat="45.18691" lon="5.96636">
        <ele>1924.2</ele>
        <time>2026-07-19T11:01:25Z</time>
      </trkpt>
      <trkpt lat="45.18694" lon="5.96635">
        <ele>1925.6</ele>
        <time>2026-07-19T11:01:28Z</time>
      </trkpt>
      <trkpt lat="45.18697" lon="5.96634">
        <ele>1926.4</ele>
        <time>2026-07-19T11:01:31Z</time>
      </trkpt>
      <trkpt lat="45.18698" lon="5.96635">
        <ele>1926.6</ele>
        <time>2026-07-19T11:01:32Z</time>
      </trkpt>
      <trkpt lat="45.18703" lon="5.96634">
        <ele>1927.8</ele>
        <time>2026-07-19T11:01:37Z</time>
      </trkpt>
      <trkpt lat="45.18706" lon="5.96631">
        <ele>1928.6</ele>
        <time>2026-07-19T11:01:42Z</time>
      </trkpt>
      <trkpt lat="45.18708" lon="5.96629">
        <ele>1928.6</ele>
        <time>2026-07-19T11:01:44Z</time>
      </trkpt>
      <trkpt lat="45.18711" lon="5.96625">
        <ele>1929.2</ele>
        <time>2026-07-19T11:01:48Z</time>
      </trkpt>
      <trkpt lat="45.18712" lon="5.96624">
        <ele>1929.4</ele>
        <time>2026-07-19T11:01:51Z</time>
      </trkpt>
      <trkpt lat="45.18712" lon="5.96624">
        <ele>1929.6</ele>
        <time>2026-07-19T11:01:52Z</time>
      </trkpt>
      <trkpt lat="45.18719" lon="5.9662">
        <ele>1930.4</ele>
        <time>2026-07-19T11:02:00Z</time>
      </trkpt>
      <trkpt lat="45.18721" lon="5.96621">
        <ele>1930.6</ele>
        <time>2026-07-19T11:02:02Z</time>
      </trkpt>
      <trkpt lat="45.18725" lon="5.9662">
        <ele>1930.8</ele>
        <time>2026-07-19T11:02:07Z</time>
      </trkpt>
      <trkpt lat="45.18728" lon="5.96619">
        <ele>1931.6</ele>
        <time>2026-07-19T11:02:10Z</time>
      </trkpt>
      <trkpt lat="45.18734" lon="5.96616">
        <ele>1932.2</ele>
        <time>2026-07-19T11:02:15Z</time>
      </trkpt>
      <trkpt lat="45.18737" lon="5.96613">
        <ele>1932.6</ele>
        <time>2026-07-19T11:02:18Z</time>
      </trkpt>
      <trkpt lat="45.18741" lon="5.96605">
        <ele>1933.8</ele>
        <time>2026-07-19T11:02:24Z</time>
      </trkpt>
      <trkpt lat="45.18742" lon="5.96602">
        <ele>1934.2</ele>
        <time>2026-07-19T11:02:26Z</time>
      </trkpt>
      <trkpt lat="45.18744" lon="5.96599">
        <ele>1935.6</ele>
        <time>2026-07-19T11:02:29Z</time>
      </trkpt>
      <trkpt lat="45.18748" lon="5.96597">
        <ele>1937.2</ele>
        <time>2026-07-19T11:02:33Z</time>
      </trkpt>
      <trkpt lat="45.1875" lon="5.96596">
        <ele>1938</ele>
        <time>2026-07-19T11:02:35Z</time>
      </trkpt>
      <trkpt lat="45.18751" lon="5.96596">
        <ele>1938.6</ele>
        <time>2026-07-19T11:02:36Z</time>
      </trkpt>
      <trkpt lat="45.18751" lon="5.96596">
        <ele>1940.2</ele>
        <time>2026-07-19T11:02:38Z</time>
      </trkpt>
      <trkpt lat="45.18752" lon="5.96597">
        <ele>1940.6</ele>
        <time>2026-07-19T11:02:39Z</time>
      </trkpt>
      <trkpt lat="45.18754" lon="5.96597">
        <ele>1941.4</ele>
        <time>2026-07-19T11:02:42Z</time>
      </trkpt>
      <trkpt lat="45.18757" lon="5.96598">
        <ele>1941.6</ele>
        <time>2026-07-19T11:02:44Z</time>
      </trkpt>
      <trkpt lat="45.18763" lon="5.966">
        <ele>1942.6</ele>
        <time>2026-07-19T11:02:49Z</time>
      </trkpt>
      <trkpt lat="45.18766" lon="5.966">
        <ele>1943.8</ele>
        <time>2026-07-19T11:02:52Z</time>
      </trkpt>
      <trkpt lat="45.18771" lon="5.96601">
        <ele>1945</ele>
        <time>2026-07-19T11:02:57Z</time>
      </trkpt>
      <trkpt lat="45.18779" lon="5.96604">
        <ele>1945.2</ele>
        <time>2026-07-19T11:03:03Z</time>
      </trkpt>
      <trkpt lat="45.18784" lon="5.96605">
        <ele>1946.2</ele>
        <time>2026-07-19T11:03:08Z</time>
      </trkpt>
      <trkpt lat="45.18791" lon="5.96605">
        <ele>1946.8</ele>
        <time>2026-07-19T11:03:13Z</time>
      </trkpt>
      <trkpt lat="45.18797" lon="5.96605">
        <ele>1947.4</ele>
        <time>2026-07-19T11:03:17Z</time>
      </trkpt>
      <trkpt lat="45.18803" lon="5.96606">
        <ele>1947.8</ele>
        <time>2026-07-19T11:03:23Z</time>
      </trkpt>
      <trkpt lat="45.18804" lon="5.96608">
        <ele>1946.6</ele>
        <time>2026-07-19T11:03:24Z</time>
      </trkpt>
      <trkpt lat="45.18805" lon="5.96611">
        <ele>1945.2</ele>
        <time>2026-07-19T11:03:25Z</time>
      </trkpt>
      <trkpt lat="45.18806" lon="5.96613">
        <ele>1944</ele>
        <time>2026-07-19T11:03:26Z</time>
      </trkpt>
      <trkpt lat="45.18808" lon="5.96617">
        <ele>1943</ele>
        <time>2026-07-19T11:03:28Z</time>
      </trkpt>
      <trkpt lat="45.18808" lon="5.96617">
        <ele>1942.8</ele>
        <time>2026-07-19T11:03:29Z</time>
      </trkpt>
      <trkpt lat="45.18808" lon="5.96618">
        <ele>1941.6</ele>
        <time>2026-07-19T11:03:31Z</time>
      </trkpt>
      <trkpt lat="45.18808" lon="5.96619">
        <ele>1940.4</ele>
        <time>2026-07-19T11:03:34Z</time>
      </trkpt>
      <trkpt lat="45.18807" lon="5.96622">
        <ele>1938.8</ele>
        <time>2026-07-19T11:03:37Z</time>
      </trkpt>
      <trkpt lat="45.18807" lon="5.96626">
        <ele>1937.6</ele>
        <time>2026-07-19T11:03:39Z</time>
      </trkpt>
      <trkpt lat="45.18807" lon="5.96636">
        <ele>1936.2</ele>
        <time>2026-07-19T11:03:42Z</time>
      </trkpt>
      <trkpt lat="45.18807" lon="5.9664">
        <ele>1935</ele>
        <time>2026-07-19T11:03:45Z</time>
      </trkpt>
      <trkpt lat="45.18807" lon="5.9664">
        <ele>1934.8</ele>
        <time>2026-07-19T11:03:46Z</time>
      </trkpt>
      <trkpt lat="45.18806" lon="5.9664">
        <ele>1933.8</ele>
        <time>2026-07-19T11:03:56Z</time>
      </trkpt>
      <trkpt lat="45.18806" lon="5.9664">
        <ele>1933.4</ele>
        <time>2026-07-19T11:04:01Z</time>
      </trkpt>
      <trkpt lat="45.18807" lon="5.96645">
        <ele>1933</ele>
        <time>2026-07-19T11:04:14Z</time>
      </trkpt>
      <trkpt lat="45.18809" lon="5.96652">
        <ele>1932.8</ele>
        <time>2026-07-19T11:04:16Z</time>
      </trkpt>
      <trkpt lat="45.18811" lon="5.96657">
        <ele>1932.6</ele>
        <time>2026-07-19T11:04:18Z</time>
      </trkpt>
      <trkpt lat="45.18813" lon="5.96662">
        <ele>1932.4</ele>
        <time>2026-07-19T11:04:20Z</time>
      </trkpt>
      <trkpt lat="45.1882" lon="5.96678">
        <ele>1931.8</ele>
        <time>2026-07-19T11:04:26Z</time>
      </trkpt>
      <trkpt lat="45.18822" lon="5.96681">
        <ele>1931.6</ele>
        <time>2026-07-19T11:04:27Z</time>
      </trkpt>
      <trkpt lat="45.18827" lon="5.96689">
        <ele>1931.4</ele>
        <time>2026-07-19T11:04:30Z</time>
      </trkpt>
      <trkpt lat="45.18831" lon="5.96705">
        <ele>1930.2</ele>
        <time>2026-07-19T11:04:35Z</time>
      </trkpt>
      <trkpt lat="45.18831" lon="5.96712">
        <ele>1929.4</ele>
        <time>2026-07-19T11:04:37Z</time>
      </trkpt>
      <trkpt lat="45.18832" lon="5.96716">
        <ele>1929</ele>
        <time>2026-07-19T11:04:38Z</time>
      </trkpt>
      <trkpt lat="45.18836" lon="5.9674">
        <ele>1928.2</ele>
        <time>2026-07-19T11:04:45Z</time>
      </trkpt>
      <trkpt lat="45.18837" lon="5.96744">
        <ele>1928</ele>
        <time>2026-07-19T11:04:46Z</time>
      </trkpt>
      <trkpt lat="45.18843" lon="5.96767">
        <ele>1928</ele>
        <time>2026-07-19T11:04:54Z</time>
      </trkpt>
      <trkpt lat="45.18848" lon="5.96782">
        <ele>1929.2</ele>
        <time>2026-07-19T11:05:02Z</time>
      </trkpt>
      <trkpt lat="45.1885" lon="5.96787">
        <ele>1929</ele>
        <time>2026-07-19T11:05:05Z</time>
      </trkpt>
      <trkpt lat="45.18854" lon="5.96791">
        <ele>1929.2</ele>
        <time>2026-07-19T11:05:08Z</time>
      </trkpt>
      <trkpt lat="45.18855" lon="5.96793">
        <ele>1930.6</ele>
        <time>2026-07-19T11:05:10Z</time>
      </trkpt>
      <trkpt lat="45.18857" lon="5.96795">
        <ele>1932.6</ele>
        <time>2026-07-19T11:05:13Z</time>
      </trkpt>
      <trkpt lat="45.18858" lon="5.96796">
        <ele>1933.6</ele>
        <time>2026-07-19T11:05:14Z</time>
      </trkpt>
      <trkpt lat="45.18859" lon="5.96796">
        <ele>1934</ele>
        <time>2026-07-19T11:05:15Z</time>
      </trkpt>
      <trkpt lat="45.1886" lon="5.96796">
        <ele>1934.8</ele>
        <time>2026-07-19T11:05:16Z</time>
      </trkpt>
      <trkpt lat="45.18863" lon="5.96796">
        <ele>1936.6</ele>
        <time>2026-07-19T11:05:19Z</time>
      </trkpt>
      <trkpt lat="45.18864" lon="5.96795">
        <ele>1938</ele>
        <time>2026-07-19T11:05:20Z</time>
      </trkpt>
      <trkpt lat="45.18869" lon="5.96791">
        <ele>1939.6</ele>
        <time>2026-07-19T11:05:23Z</time>
      </trkpt>
      <trkpt lat="45.18872" lon="5.9679">
        <ele>1941</ele>
        <time>2026-07-19T11:05:25Z</time>
      </trkpt>
      <trkpt lat="45.18873" lon="5.9679">
        <ele>1941.4</ele>
        <time>2026-07-19T11:05:26Z</time>
      </trkpt>
      <trkpt lat="45.18874" lon="5.9679">
        <ele>1942.2</ele>
        <time>2026-07-19T11:05:27Z</time>
      </trkpt>
      <trkpt lat="45.18875" lon="5.9679">
        <ele>1941.6</ele>
        <time>2026-07-19T11:05:29Z</time>
      </trkpt>
      <trkpt lat="45.18877" lon="5.96789">
        <ele>1942.2</ele>
        <time>2026-07-19T11:05:31Z</time>
      </trkpt>
      <trkpt lat="45.1888" lon="5.96791">
        <ele>1942.8</ele>
        <time>2026-07-19T11:05:33Z</time>
      </trkpt>
      <trkpt lat="45.18882" lon="5.96792">
        <ele>1943.4</ele>
        <time>2026-07-19T11:05:35Z</time>
      </trkpt>
      <trkpt lat="45.18884" lon="5.96793">
        <ele>1944.6</ele>
        <time>2026-07-19T11:05:37Z</time>
      </trkpt>
      <trkpt lat="45.18886" lon="5.96793">
        <ele>1945.8</ele>
        <time>2026-07-19T11:05:38Z</time>
      </trkpt>
      <trkpt lat="45.18893" lon="5.96793">
        <ele>1946.8</ele>
        <time>2026-07-19T11:05:42Z</time>
      </trkpt>
      <trkpt lat="45.18894" lon="5.96793">
        <ele>1947.2</ele>
        <time>2026-07-19T11:05:43Z</time>
      </trkpt>
      <trkpt lat="45.18898" lon="5.96793">
        <ele>1948.8</ele>
        <time>2026-07-19T11:05:46Z</time>
      </trkpt>
      <trkpt lat="45.18899" lon="5.96794">
        <ele>1949.2</ele>
        <time>2026-07-19T11:05:47Z</time>
      </trkpt>
      <trkpt lat="45.18906" lon="5.96796">
        <ele>1949.4</ele>
        <time>2026-07-19T11:05:52Z</time>
      </trkpt>
      <trkpt lat="45.18907" lon="5.96796">
        <ele>1949.2</ele>
        <time>2026-07-19T11:05:53Z</time>
      </trkpt>
      <trkpt lat="45.18909" lon="5.96795">
        <ele>1950</ele>
        <time>2026-07-19T11:05:57Z</time>
      </trkpt>
      <trkpt lat="45.1891" lon="5.96794">
        <ele>1950.2</ele>
        <time>2026-07-19T11:05:59Z</time>
      </trkpt>
      <trkpt lat="45.18918" lon="5.96795">
        <ele>1951</ele>
        <time>2026-07-19T11:06:06Z</time>
      </trkpt>
      <trkpt lat="45.1892" lon="5.96795">
        <ele>1951.4</ele>
        <time>2026-07-19T11:06:07Z</time>
      </trkpt>
      <trkpt lat="45.18924" lon="5.96797">
        <ele>1952.6</ele>
        <time>2026-07-19T11:06:10Z</time>
      </trkpt>
      <trkpt lat="45.18928" lon="5.96798">
        <ele>1953.6</ele>
        <time>2026-07-19T11:06:13Z</time>
      </trkpt>
      <trkpt lat="45.18929" lon="5.96799">
        <ele>1954</ele>
        <time>2026-07-19T11:06:14Z</time>
      </trkpt>
      <trkpt lat="45.18939" lon="5.96805">
        <ele>1955.2</ele>
        <time>2026-07-19T11:06:21Z</time>
      </trkpt>
      <trkpt lat="45.18953" lon="5.96815">
        <ele>1956.2</ele>
        <time>2026-07-19T11:06:27Z</time>
      </trkpt>
      <trkpt lat="45.18956" lon="5.96816">
        <ele>1957</ele>
        <time>2026-07-19T11:06:28Z</time>
      </trkpt>
      <trkpt lat="45.18971" lon="5.96826">
        <ele>1957.4</ele>
        <time>2026-07-19T11:06:35Z</time>
      </trkpt>
      <trkpt lat="45.18977" lon="5.9683">
        <ele>1958</ele>
        <time>2026-07-19T11:06:38Z</time>
      </trkpt>
      <trkpt lat="45.18982" lon="5.96833">
        <ele>1958.6</ele>
        <time>2026-07-19T11:06:40Z</time>
      </trkpt>
      <trkpt lat="45.18997" lon="5.96841">
        <ele>1957</ele>
        <time>2026-07-19T11:06:47Z</time>
      </trkpt>
      <trkpt lat="45.19005" lon="5.96857">
        <ele>1956.4</ele>
        <time>2026-07-19T11:06:53Z</time>
      </trkpt>
      <trkpt lat="45.19014" lon="5.96869">
        <ele>1955.8</ele>
        <time>2026-07-19T11:07:01Z</time>
      </trkpt>
      <trkpt lat="45.19017" lon="5.9687">
        <ele>1957</ele>
        <time>2026-07-19T11:07:03Z</time>
      </trkpt>
      <trkpt lat="45.1902" lon="5.96873">
        <ele>1955.8</ele>
        <time>2026-07-19T11:07:06Z</time>
      </trkpt>
      <trkpt lat="45.19022" lon="5.96874">
        <ele>1955.2</ele>
        <time>2026-07-19T11:07:07Z</time>
      </trkpt>
      <trkpt lat="45.19029" lon="5.96881">
        <ele>1956.2</ele>
        <time>2026-07-19T11:07:13Z</time>
      </trkpt>
      <trkpt lat="45.19031" lon="5.96885">
        <ele>1954.6</ele>
        <time>2026-07-19T11:07:16Z</time>
      </trkpt>
      <trkpt lat="45.19031" lon="5.96886">
        <ele>1954.8</ele>
        <time>2026-07-19T11:07:18Z</time>
      </trkpt>
      <trkpt lat="45.19031" lon="5.96886">
        <ele>1954.8</ele>
        <time>2026-07-19T11:07:19Z</time>
      </trkpt>
      <trkpt lat="45.19031" lon="5.96885">
        <ele>1953.4</ele>
        <time>2026-07-19T11:07:22Z</time>
      </trkpt>
      <trkpt lat="45.19031" lon="5.96885">
        <ele>1952.4</ele>
        <time>2026-07-19T11:07:25Z</time>
      </trkpt>
      <trkpt lat="45.19032" lon="5.96885">
        <ele>1955</ele>
        <time>2026-07-19T11:07:32Z</time>
      </trkpt>
      <trkpt lat="45.19036" lon="5.96885">
        <ele>1956.4</ele>
        <time>2026-07-19T11:07:34Z</time>
      </trkpt>
      <trkpt lat="45.19046" lon="5.96885">
        <ele>1955</ele>
        <time>2026-07-19T11:07:38Z</time>
      </trkpt>
      <trkpt lat="45.19051" lon="5.96887">
        <ele>1955.8</ele>
        <time>2026-07-19T11:07:41Z</time>
      </trkpt>
      <trkpt lat="45.19056" lon="5.96887">
        <ele>1956.4</ele>
        <time>2026-07-19T11:07:43Z</time>
      </trkpt>
      <trkpt lat="45.19059" lon="5.96888">
        <ele>1954.8</ele>
        <time>2026-07-19T11:07:45Z</time>
      </trkpt>
      <trkpt lat="45.19062" lon="5.96887">
        <ele>1954.6</ele>
        <time>2026-07-19T11:07:47Z</time>
      </trkpt>
      <trkpt lat="45.19071" lon="5.96879">
        <ele>1955.6</ele>
        <time>2026-07-19T11:07:52Z</time>
      </trkpt>
      <trkpt lat="45.19084" lon="5.96877">
        <ele>1955.4</ele>
        <time>2026-07-19T11:07:57Z</time>
      </trkpt>
      <trkpt lat="45.19102" lon="5.96868">
        <ele>1955.8</ele>
        <time>2026-07-19T11:08:04Z</time>
      </trkpt>
      <trkpt lat="45.19113" lon="5.9686">
        <ele>1955.6</ele>
        <time>2026-07-19T11:08:10Z</time>
      </trkpt>
      <trkpt lat="45.19116" lon="5.96859">
        <ele>1956.4</ele>
        <time>2026-07-19T11:08:12Z</time>
      </trkpt>
      <trkpt lat="45.19119" lon="5.96858">
        <ele>1958</ele>
        <time>2026-07-19T11:08:15Z</time>
      </trkpt>
      <trkpt lat="45.19119" lon="5.96858">
        <ele>1958</ele>
        <time>2026-07-19T11:08:16Z</time>
      </trkpt>
      <trkpt lat="45.19122" lon="5.96856">
        <ele>1958.6</ele>
        <time>2026-07-19T11:08:17Z</time>
      </trkpt>
      <trkpt lat="45.19126" lon="5.96854">
        <ele>1958.8</ele>
        <time>2026-07-19T11:08:20Z</time>
      </trkpt>
      <trkpt lat="45.19136" lon="5.96851">
        <ele>1958.4</ele>
        <time>2026-07-19T11:08:25Z</time>
      </trkpt>
      <trkpt lat="45.19144" lon="5.96851">
        <ele>1957.2</ele>
        <time>2026-07-19T11:08:30Z</time>
      </trkpt>
      <trkpt lat="45.19145" lon="5.9685">
        <ele>1957.6</ele>
        <time>2026-07-19T11:08:31Z</time>
      </trkpt>
      <trkpt lat="45.19148" lon="5.96847">
        <ele>1957.2</ele>
        <time>2026-07-19T11:08:35Z</time>
      </trkpt>
      <trkpt lat="45.19149" lon="5.96846">
        <ele>1957</ele>
        <time>2026-07-19T11:08:36Z</time>
      </trkpt>
      <trkpt lat="45.19153" lon="5.96844">
        <ele>1956.2</ele>
        <time>2026-07-19T11:08:41Z</time>
      </trkpt>
      <trkpt lat="45.19161" lon="5.9684">
        <ele>1958</ele>
        <time>2026-07-19T11:08:48Z</time>
      </trkpt>
      <trkpt lat="45.19162" lon="5.9684">
        <ele>1958</ele>
        <time>2026-07-19T11:08:49Z</time>
      </trkpt>
      <trkpt lat="45.19174" lon="5.96836">
        <ele>1957</ele>
        <time>2026-07-19T11:08:54Z</time>
      </trkpt>
      <trkpt lat="45.19177" lon="5.96834">
        <ele>1955.8</ele>
        <time>2026-07-19T11:08:56Z</time>
      </trkpt>
      <trkpt lat="45.19184" lon="5.96833">
        <ele>1954.8</ele>
        <time>2026-07-19T11:08:59Z</time>
      </trkpt>
      <trkpt lat="45.19187" lon="5.96833">
        <ele>1954.2</ele>
        <time>2026-07-19T11:09:00Z</time>
      </trkpt>
      <trkpt lat="45.19192" lon="5.96833">
        <ele>1953</ele>
        <time>2026-07-19T11:09:02Z</time>
      </trkpt>
      <trkpt lat="45.19199" lon="5.96833">
        <ele>1951.8</ele>
        <time>2026-07-19T11:09:06Z</time>
      </trkpt>
      <trkpt lat="45.19199" lon="5.96834">
        <ele>1952.4</ele>
        <time>2026-07-19T11:09:18Z</time>
      </trkpt>
      <trkpt lat="45.19204" lon="5.96833">
        <ele>1952.4</ele>
        <time>2026-07-19T11:09:30Z</time>
      </trkpt>
      <trkpt lat="45.19204" lon="5.96833">
        <ele>1952.8</ele>
        <time>2026-07-19T11:09:39Z</time>
      </trkpt>
      <trkpt lat="45.19205" lon="5.96833">
        <ele>1953</ele>
        <time>2026-07-19T11:09:49Z</time>
      </trkpt>
      <trkpt lat="45.19209" lon="5.96832">
        <ele>1953.4</ele>
        <time>2026-07-19T11:09:56Z</time>
      </trkpt>
      <trkpt lat="45.19215" lon="5.96833">
        <ele>1954.2</ele>
        <time>2026-07-19T11:10:01Z</time>
      </trkpt>
      <trkpt lat="45.1922" lon="5.96828">
        <ele>1954.2</ele>
        <time>2026-07-19T11:10:06Z</time>
      </trkpt>
      <trkpt lat="45.19228" lon="5.96821">
        <ele>1953.4</ele>
        <time>2026-07-19T11:10:14Z</time>
      </trkpt>
      <trkpt lat="45.19229" lon="5.96807">
        <ele>1954</ele>
        <time>2026-07-19T11:10:22Z</time>
      </trkpt>
      <trkpt lat="45.19229" lon="5.96801">
        <ele>1953</ele>
        <time>2026-07-19T11:10:26Z</time>
      </trkpt>
      <trkpt lat="45.19228" lon="5.96791">
        <ele>1953.2</ele>
        <time>2026-07-19T11:10:31Z</time>
      </trkpt>
      <trkpt lat="45.19228" lon="5.96788">
        <ele>1951.2</ele>
        <time>2026-07-19T11:10:33Z</time>
      </trkpt>
      <trkpt lat="45.1923" lon="5.96778">
        <ele>1949.8</ele>
        <time>2026-07-19T11:10:38Z</time>
      </trkpt>
      <trkpt lat="45.19233" lon="5.96762">
        <ele>1950.6</ele>
        <time>2026-07-19T11:10:46Z</time>
      </trkpt>
      <trkpt lat="45.19234" lon="5.9676">
        <ele>1951</ele>
        <time>2026-07-19T11:10:48Z</time>
      </trkpt>
      <trkpt lat="45.19236" lon="5.96753">
        <ele>1949.6</ele>
        <time>2026-07-19T11:10:52Z</time>
      </trkpt>
      <trkpt lat="45.19236" lon="5.96751">
        <ele>1949.4</ele>
        <time>2026-07-19T11:10:53Z</time>
      </trkpt>
      <trkpt lat="45.19238" lon="5.96748">
        <ele>1948.4</ele>
        <time>2026-07-19T11:10:55Z</time>
      </trkpt>
      <trkpt lat="45.1924" lon="5.96743">
        <ele>1946.6</ele>
        <time>2026-07-19T11:10:58Z</time>
      </trkpt>
      <trkpt lat="45.19241" lon="5.96738">
        <ele>1945.2</ele>
        <time>2026-07-19T11:11:01Z</time>
      </trkpt>
      <trkpt lat="45.19242" lon="5.96736">
        <ele>1945</ele>
        <time>2026-07-19T11:11:02Z</time>
      </trkpt>
      <trkpt lat="45.19246" lon="5.96724">
        <ele>1945.8</ele>
        <time>2026-07-19T11:11:10Z</time>
      </trkpt>
      <trkpt lat="45.19247" lon="5.96723">
        <ele>1946.4</ele>
        <time>2026-07-19T11:11:11Z</time>
      </trkpt>
      <trkpt lat="45.19248" lon="5.9672">
        <ele>1947.8</ele>
        <time>2026-07-19T11:11:14Z</time>
      </trkpt>
      <trkpt lat="45.19248" lon="5.9672">
        <ele>1949.6</ele>
        <time>2026-07-19T11:11:16Z</time>
      </trkpt>
      <trkpt lat="45.19248" lon="5.9672">
        <ele>1950.6</ele>
        <time>2026-07-19T11:11:17Z</time>
      </trkpt>
      <trkpt lat="45.19249" lon="5.96719">
        <ele>1951.2</ele>
        <time>2026-07-19T11:11:18Z</time>
      </trkpt>
      <trkpt lat="45.19248" lon="5.96713">
        <ele>1951.6</ele>
        <time>2026-07-19T11:11:24Z</time>
      </trkpt>
      <trkpt lat="45.19248" lon="5.96713">
        <ele>1952.4</ele>
        <time>2026-07-19T11:11:25Z</time>
      </trkpt>
      <trkpt lat="45.19252" lon="5.96705">
        <ele>1952.6</ele>
        <time>2026-07-19T11:11:32Z</time>
      </trkpt>
      <trkpt lat="45.19256" lon="5.967">
        <ele>1951.6</ele>
        <time>2026-07-19T11:11:42Z</time>
      </trkpt>
      <trkpt lat="45.19257" lon="5.96699">
        <ele>1951.2</ele>
        <time>2026-07-19T11:11:45Z</time>
      </trkpt>
      <trkpt lat="45.19257" lon="5.96699">
        <ele>1949.4</ele>
        <time>2026-07-19T11:11:48Z</time>
      </trkpt>
      <trkpt lat="45.19256" lon="5.96699">
        <ele>1948.2</ele>
        <time>2026-07-19T11:11:50Z</time>
      </trkpt>
      <trkpt lat="45.19256" lon="5.96699">
        <ele>1946.8</ele>
        <time>2026-07-19T11:11:54Z</time>
      </trkpt>
      <trkpt lat="45.19256" lon="5.967">
        <ele>1946.6</ele>
        <time>2026-07-19T11:11:55Z</time>
      </trkpt>
      <trkpt lat="45.19256" lon="5.967">
        <ele>1945.6</ele>
        <time>2026-07-19T11:12:00Z</time>
      </trkpt>
      <trkpt lat="45.19255" lon="5.96702">
        <ele>1944.2</ele>
        <time>2026-07-19T11:12:10Z</time>
      </trkpt>
      <trkpt lat="45.19255" lon="5.96702">
        <ele>1944</ele>
        <time>2026-07-19T11:12:11Z</time>
      </trkpt>
      <trkpt lat="45.19256" lon="5.96701">
        <ele>1943</ele>
        <time>2026-07-19T11:12:13Z</time>
      </trkpt>
      <trkpt lat="45.19256" lon="5.96701">
        <ele>1941.4</ele>
        <time>2026-07-19T11:12:16Z</time>
      </trkpt>
      <trkpt lat="45.19253" lon="5.96706">
        <ele>1942.4</ele>
        <time>2026-07-19T11:12:20Z</time>
      </trkpt>
      <trkpt lat="45.19253" lon="5.96707">
        <ele>1942.8</ele>
        <time>2026-07-19T11:12:21Z</time>
      </trkpt>
      <trkpt lat="45.19252" lon="5.96708">
        <ele>1943.8</ele>
        <time>2026-07-19T11:12:23Z</time>
      </trkpt>
      <trkpt lat="45.1925" lon="5.96711">
        <ele>1945</ele>
        <time>2026-07-19T11:12:26Z</time>
      </trkpt>
      <trkpt lat="45.19249" lon="5.96714">
        <ele>1945.2</ele>
        <time>2026-07-19T11:12:29Z</time>
      </trkpt>
      <trkpt lat="45.19247" lon="5.96718">
        <ele>1945.2</ele>
        <time>2026-07-19T11:12:33Z</time>
      </trkpt>
      <trkpt lat="45.19243" lon="5.96723">
        <ele>1946.2</ele>
        <time>2026-07-19T11:12:39Z</time>
      </trkpt>
      <trkpt lat="45.19243" lon="5.96727">
        <ele>1947.4</ele>
        <time>2026-07-19T11:12:43Z</time>
      </trkpt>
      <trkpt lat="45.19245" lon="5.96727">
        <ele>1948.8</ele>
        <time>2026-07-19T11:12:45Z</time>
      </trkpt>
      <trkpt lat="45.19246" lon="5.96726">
        <ele>1950.2</ele>
        <time>2026-07-19T11:12:47Z</time>
      </trkpt>
      <trkpt lat="45.19247" lon="5.96725">
        <ele>1951.8</ele>
        <time>2026-07-19T11:12:50Z</time>
      </trkpt>
      <trkpt lat="45.19248" lon="5.96725">
        <ele>1953</ele>
        <time>2026-07-19T11:12:55Z</time>
      </trkpt>
      <trkpt lat="45.19248" lon="5.96724">
        <ele>1954.2</ele>
        <time>2026-07-19T11:12:57Z</time>
      </trkpt>
      <trkpt lat="45.19248" lon="5.96724">
        <ele>1954.6</ele>
        <time>2026-07-19T11:12:58Z</time>
      </trkpt>
      <trkpt lat="45.19247" lon="5.96724">
        <ele>1955.4</ele>
        <time>2026-07-19T11:13:03Z</time>
      </trkpt>
      <trkpt lat="45.19243" lon="5.96728">
        <ele>1956.2</ele>
        <time>2026-07-19T11:13:09Z</time>
      </trkpt>
      <trkpt lat="45.19242" lon="5.96741">
        <ele>1956.2</ele>
        <time>2026-07-19T11:13:15Z</time>
      </trkpt>
      <trkpt lat="45.19241" lon="5.96745">
        <ele>1955.2</ele>
        <time>2026-07-19T11:13:19Z</time>
      </trkpt>
      <trkpt lat="45.19241" lon="5.96746">
        <ele>1955.2</ele>
        <time>2026-07-19T11:13:21Z</time>
      </trkpt>
      <trkpt lat="45.1924" lon="5.96751">
        <ele>1954</ele>
        <time>2026-07-19T11:13:24Z</time>
      </trkpt>
      <trkpt lat="45.19239" lon="5.96755">
        <ele>1952.6</ele>
        <time>2026-07-19T11:13:27Z</time>
      </trkpt>
      <trkpt lat="45.19238" lon="5.96757">
        <ele>1952.2</ele>
        <time>2026-07-19T11:13:28Z</time>
      </trkpt>
      <trkpt lat="45.19237" lon="5.9676">
        <ele>1951.4</ele>
        <time>2026-07-19T11:13:30Z</time>
      </trkpt>
      <trkpt lat="45.19234" lon="5.96768">
        <ele>1950.2</ele>
        <time>2026-07-19T11:13:34Z</time>
      </trkpt>
      <trkpt lat="45.19232" lon="5.96773">
        <ele>1949.8</ele>
        <time>2026-07-19T11:13:36Z</time>
      </trkpt>
      <trkpt lat="45.1923" lon="5.96788">
        <ele>1948.6</ele>
        <time>2026-07-19T11:13:40Z</time>
      </trkpt>
      <trkpt lat="45.1923" lon="5.96795">
        <ele>1947.6</ele>
        <time>2026-07-19T11:13:42Z</time>
      </trkpt>
      <trkpt lat="45.1923" lon="5.96798">
        <ele>1947</ele>
        <time>2026-07-19T11:13:43Z</time>
      </trkpt>
      <trkpt lat="45.19231" lon="5.96804">
        <ele>1945.8</ele>
        <time>2026-07-19T11:13:46Z</time>
      </trkpt>
      <trkpt lat="45.19233" lon="5.9681">
        <ele>1944.8</ele>
        <time>2026-07-19T11:13:49Z</time>
      </trkpt>
      <trkpt lat="45.19233" lon="5.96813">
        <ele>1944.6</ele>
        <time>2026-07-19T11:13:51Z</time>
      </trkpt>
      <trkpt lat="45.19232" lon="5.9682">
        <ele>1943.4</ele>
        <time>2026-07-19T11:13:55Z</time>
      </trkpt>
      <trkpt lat="45.19232" lon="5.96821">
        <ele>1943.2</ele>
        <time>2026-07-19T11:13:56Z</time>
      </trkpt>
      <trkpt lat="45.1923" lon="5.96826">
        <ele>1941.8</ele>
        <time>2026-07-19T11:13:59Z</time>
      </trkpt>
      <trkpt lat="45.19228" lon="5.96829">
        <ele>1940.2</ele>
        <time>2026-07-19T11:14:01Z</time>
      </trkpt>
      <trkpt lat="45.19226" lon="5.96832">
        <ele>1938.8</ele>
        <time>2026-07-19T11:14:03Z</time>
      </trkpt>
      <trkpt lat="45.19222" lon="5.96839">
        <ele>1937.4</ele>
        <time>2026-07-19T11:14:05Z</time>
      </trkpt>
      <trkpt lat="45.19219" lon="5.96842">
        <ele>1937</ele>
        <time>2026-07-19T11:14:06Z</time>
      </trkpt>
      <trkpt lat="45.19217" lon="5.96843">
        <ele>1936.2</ele>
        <time>2026-07-19T11:14:07Z</time>
      </trkpt>
      <trkpt lat="45.19209" lon="5.96842">
        <ele>1934.6</ele>
        <time>2026-07-19T11:14:10Z</time>
      </trkpt>
      <trkpt lat="45.19203" lon="5.9684">
        <ele>1934.4</ele>
        <time>2026-07-19T11:14:14Z</time>
      </trkpt>
      <trkpt lat="45.1919" lon="5.9683">
        <ele>1933.2</ele>
        <time>2026-07-19T11:14:21Z</time>
      </trkpt>
      <trkpt lat="45.19189" lon="5.96828">
        <ele>1933</ele>
        <time>2026-07-19T11:14:22Z</time>
      </trkpt>
      <trkpt lat="45.19182" lon="5.96822">
        <ele>1931.6</ele>
        <time>2026-07-19T11:14:27Z</time>
      </trkpt>
      <trkpt lat="45.19183" lon="5.9682">
        <ele>1930.4</ele>
        <time>2026-07-19T11:14:28Z</time>
      </trkpt>
      <trkpt lat="45.19191" lon="5.96811">
        <ele>1929.6</ele>
        <time>2026-07-19T11:14:33Z</time>
      </trkpt>
      <trkpt lat="45.19192" lon="5.96808">
        <ele>1929.4</ele>
        <time>2026-07-19T11:14:35Z</time>
      </trkpt>
      <trkpt lat="45.19191" lon="5.96805">
        <ele>1928</ele>
        <time>2026-07-19T11:14:37Z</time>
      </trkpt>
      <trkpt lat="45.19188" lon="5.96804">
        <ele>1926.4</ele>
        <time>2026-07-19T11:14:38Z</time>
      </trkpt>
      <trkpt lat="45.19184" lon="5.96804">
        <ele>1925</ele>
        <time>2026-07-19T11:14:41Z</time>
      </trkpt>
      <trkpt lat="45.19181" lon="5.96802">
        <ele>1923.6</ele>
        <time>2026-07-19T11:14:43Z</time>
      </trkpt>
      <trkpt lat="45.19179" lon="5.96801">
        <ele>1922.4</ele>
        <time>2026-07-19T11:14:44Z</time>
      </trkpt>
      <trkpt lat="45.19176" lon="5.96798">
        <ele>1920.4</ele>
        <time>2026-07-19T11:14:46Z</time>
      </trkpt>
      <trkpt lat="45.19175" lon="5.96798">
        <ele>1919.2</ele>
        <time>2026-07-19T11:14:47Z</time>
      </trkpt>
      <trkpt lat="45.19172" lon="5.96797">
        <ele>1918</ele>
        <time>2026-07-19T11:14:49Z</time>
      </trkpt>
      <trkpt lat="45.19168" lon="5.96796">
        <ele>1916.4</ele>
        <time>2026-07-19T11:14:51Z</time>
      </trkpt>
      <trkpt lat="45.19166" lon="5.96794">
        <ele>1915.8</ele>
        <time>2026-07-19T11:14:52Z</time>
      </trkpt>
      <trkpt lat="45.19164" lon="5.96793">
        <ele>1914.8</ele>
        <time>2026-07-19T11:14:53Z</time>
      </trkpt>
      <trkpt lat="45.19162" lon="5.96793">
        <ele>1913.4</ele>
        <time>2026-07-19T11:14:54Z</time>
      </trkpt>
      <trkpt lat="45.1916" lon="5.96793">
        <ele>1912</ele>
        <time>2026-07-19T11:14:55Z</time>
      </trkpt>
      <trkpt lat="45.19155" lon="5.96792">
        <ele>1910.2</ele>
        <time>2026-07-19T11:14:57Z</time>
      </trkpt>
      <trkpt lat="45.19153" lon="5.96791">
        <ele>1909.6</ele>
        <time>2026-07-19T11:14:58Z</time>
      </trkpt>
      <trkpt lat="45.19151" lon="5.96791">
        <ele>1909</ele>
        <time>2026-07-19T11:14:59Z</time>
      </trkpt>
      <trkpt lat="45.19143" lon="5.96789">
        <ele>1907.2</ele>
        <time>2026-07-19T11:15:03Z</time>
      </trkpt>
      <trkpt lat="45.19138" lon="5.96788">
        <ele>1905.6</ele>
        <time>2026-07-19T11:15:05Z</time>
      </trkpt>
      <trkpt lat="45.19135" lon="5.96788">
        <ele>1903.8</ele>
        <time>2026-07-19T11:15:07Z</time>
      </trkpt>
      <trkpt lat="45.19133" lon="5.96787">
        <ele>1903</ele>
        <time>2026-07-19T11:15:08Z</time>
      </trkpt>
      <trkpt lat="45.19132" lon="5.96786">
        <ele>1901.6</ele>
        <time>2026-07-19T11:15:09Z</time>
      </trkpt>
      <trkpt lat="45.1913" lon="5.96783">
        <ele>1900.4</ele>
        <time>2026-07-19T11:15:11Z</time>
      </trkpt>
      <trkpt lat="45.19129" lon="5.96781">
        <ele>1899.2</ele>
        <time>2026-07-19T11:15:12Z</time>
      </trkpt>
      <trkpt lat="45.19125" lon="5.9678">
        <ele>1897.4</ele>
        <time>2026-07-19T11:15:14Z</time>
      </trkpt>
      <trkpt lat="45.19122" lon="5.96778">
        <ele>1896.2</ele>
        <time>2026-07-19T11:15:16Z</time>
      </trkpt>
      <trkpt lat="45.1912" lon="5.96778">
        <ele>1895</ele>
        <time>2026-07-19T11:15:17Z</time>
      </trkpt>
      <trkpt lat="45.19119" lon="5.96778">
        <ele>1893.8</ele>
        <time>2026-07-19T11:15:18Z</time>
      </trkpt>
      <trkpt lat="45.19117" lon="5.96778">
        <ele>1892.6</ele>
        <time>2026-07-19T11:15:19Z</time>
      </trkpt>
      <trkpt lat="45.19116" lon="5.96778">
        <ele>1891.8</ele>
        <time>2026-07-19T11:15:20Z</time>
      </trkpt>
      <trkpt lat="45.19114" lon="5.96778">
        <ele>1891</ele>
        <time>2026-07-19T11:15:21Z</time>
      </trkpt>
      <trkpt lat="45.19104" lon="5.9678">
        <ele>1889.8</ele>
        <time>2026-07-19T11:15:24Z</time>
      </trkpt>
      <trkpt lat="45.19092" lon="5.96785">
        <ele>1889.4</ele>
        <time>2026-07-19T11:15:29Z</time>
      </trkpt>
      <trkpt lat="45.19083" lon="5.96798">
        <ele>1890.4</ele>
        <time>2026-07-19T11:15:34Z</time>
      </trkpt>
      <trkpt lat="45.19081" lon="5.96798">
        <ele>1890.4</ele>
        <time>2026-07-19T11:15:35Z</time>
      </trkpt>
      <trkpt lat="45.19076" lon="5.96797">
        <ele>1889.2</ele>
        <time>2026-07-19T11:15:38Z</time>
      </trkpt>
      <trkpt lat="45.19067" lon="5.96799">
        <ele>1888.4</ele>
        <time>2026-07-19T11:15:42Z</time>
      </trkpt>
      <trkpt lat="45.1906" lon="5.968">
        <ele>1888.4</ele>
        <time>2026-07-19T11:15:45Z</time>
      </trkpt>
      <trkpt lat="45.19057" lon="5.96802">
        <ele>1888.4</ele>
        <time>2026-07-19T11:15:47Z</time>
      </trkpt>
      <trkpt lat="45.19055" lon="5.96801">
        <ele>1889.2</ele>
        <time>2026-07-19T11:15:48Z</time>
      </trkpt>
      <trkpt lat="45.1905" lon="5.96798">
        <ele>1888.8</ele>
        <time>2026-07-19T11:15:51Z</time>
      </trkpt>
      <trkpt lat="45.19045" lon="5.96795">
        <ele>1887.2</ele>
        <time>2026-07-19T11:15:54Z</time>
      </trkpt>
      <trkpt lat="45.19045" lon="5.96794">
        <ele>1887.2</ele>
        <time>2026-07-19T11:15:55Z</time>
      </trkpt>
      <trkpt lat="45.19045" lon="5.96793">
        <ele>1887.2</ele>
        <time>2026-07-19T11:15:56Z</time>
      </trkpt>
      <trkpt lat="45.19044" lon="5.96789">
        <ele>1887</ele>
        <time>2026-07-19T11:15:58Z</time>
      </trkpt>
      <trkpt lat="45.19045" lon="5.96788">
        <ele>1887</ele>
        <time>2026-07-19T11:16:00Z</time>
      </trkpt>
      <trkpt lat="45.19046" lon="5.96786">
        <ele>1886.8</ele>
        <time>2026-07-19T11:16:02Z</time>
      </trkpt>
      <trkpt lat="45.19045" lon="5.96784">
        <ele>1885.8</ele>
        <time>2026-07-19T11:16:03Z</time>
      </trkpt>
      <trkpt lat="45.19045" lon="5.96782">
        <ele>1885.6</ele>
        <time>2026-07-19T11:16:04Z</time>
      </trkpt>
      <trkpt lat="45.19045" lon="5.9678">
        <ele>1885.2</ele>
        <time>2026-07-19T11:16:05Z</time>
      </trkpt>
      <trkpt lat="45.19045" lon="5.96777">
        <ele>1884.4</ele>
        <time>2026-07-19T11:16:07Z</time>
      </trkpt>
      <trkpt lat="45.19043" lon="5.9677">
        <ele>1881.8</ele>
        <time>2026-07-19T11:16:11Z</time>
      </trkpt>
      <trkpt lat="45.19045" lon="5.96768">
        <ele>1879.6</ele>
        <time>2026-07-19T11:16:13Z</time>
      </trkpt>
      <trkpt lat="45.19045" lon="5.96767">
        <ele>1878.2</ele>
        <time>2026-07-19T11:16:14Z</time>
      </trkpt>
      <trkpt lat="45.19044" lon="5.96764">
        <ele>1875.6</ele>
        <time>2026-07-19T11:16:16Z</time>
      </trkpt>
      <trkpt lat="45.19044" lon="5.96763">
        <ele>1875</ele>
        <time>2026-07-19T11:16:17Z</time>
      </trkpt>
      <trkpt lat="45.19043" lon="5.96761">
        <ele>1874.2</ele>
        <time>2026-07-19T11:16:18Z</time>
      </trkpt>
      <trkpt lat="45.19043" lon="5.96757">
        <ele>1872.8</ele>
        <time>2026-07-19T11:16:20Z</time>
      </trkpt>
      <trkpt lat="45.19042" lon="5.96753">
        <ele>1870.6</ele>
        <time>2026-07-19T11:16:22Z</time>
      </trkpt>
      <trkpt lat="45.19043" lon="5.96751">
        <ele>1869.6</ele>
        <time>2026-07-19T11:16:23Z</time>
      </trkpt>
      <trkpt lat="45.19045" lon="5.9675">
        <ele>1868.6</ele>
        <time>2026-07-19T11:16:25Z</time>
      </trkpt>
      <trkpt lat="45.19045" lon="5.96748">
        <ele>1867</ele>
        <time>2026-07-19T11:16:27Z</time>
      </trkpt>
      <trkpt lat="45.19043" lon="5.96747">
        <ele>1866.2</ele>
        <time>2026-07-19T11:16:28Z</time>
      </trkpt>
      <trkpt lat="45.19043" lon="5.96744">
        <ele>1865.2</ele>
        <time>2026-07-19T11:16:29Z</time>
      </trkpt>
      <trkpt lat="45.19042" lon="5.96737">
        <ele>1864.8</ele>
        <time>2026-07-19T11:16:32Z</time>
      </trkpt>
      <trkpt lat="45.19041" lon="5.96729">
        <ele>1863.6</ele>
        <time>2026-07-19T11:16:35Z</time>
      </trkpt>
      <trkpt lat="45.1904" lon="5.96724">
        <ele>1862.2</ele>
        <time>2026-07-19T11:16:37Z</time>
      </trkpt>
      <trkpt lat="45.19042" lon="5.96722">
        <ele>1860.8</ele>
        <time>2026-07-19T11:16:39Z</time>
      </trkpt>
      <trkpt lat="45.19044" lon="5.96722">
        <ele>1860.2</ele>
        <time>2026-07-19T11:16:40Z</time>
      </trkpt>
      <trkpt lat="45.19046" lon="5.96722">
        <ele>1859.6</ele>
        <time>2026-07-19T11:16:42Z</time>
      </trkpt>
      <trkpt lat="45.19046" lon="5.96717">
        <ele>1859.2</ele>
        <time>2026-07-19T11:16:44Z</time>
      </trkpt>
      <trkpt lat="45.19042" lon="5.96707">
        <ele>1858.2</ele>
        <time>2026-07-19T11:16:47Z</time>
      </trkpt>
      <trkpt lat="45.19041" lon="5.96704">
        <ele>1857</ele>
        <time>2026-07-19T11:16:48Z</time>
      </trkpt>
      <trkpt lat="45.19037" lon="5.967">
        <ele>1856</ele>
        <time>2026-07-19T11:16:50Z</time>
      </trkpt>
      <trkpt lat="45.19036" lon="5.96698">
        <ele>1855.4</ele>
        <time>2026-07-19T11:16:51Z</time>
      </trkpt>
      <trkpt lat="45.19033" lon="5.96695">
        <ele>1853.8</ele>
        <time>2026-07-19T11:16:53Z</time>
      </trkpt>
      <trkpt lat="45.1903" lon="5.96692">
        <ele>1852.6</ele>
        <time>2026-07-19T11:16:55Z</time>
      </trkpt>
      <trkpt lat="45.19028" lon="5.9669">
        <ele>1851.8</ele>
        <time>2026-07-19T11:16:56Z</time>
      </trkpt>
      <trkpt lat="45.19027" lon="5.96688">
        <ele>1850.8</ele>
        <time>2026-07-19T11:16:57Z</time>
      </trkpt>
      <trkpt lat="45.19027" lon="5.96686">
        <ele>1849.4</ele>
        <time>2026-07-19T11:16:58Z</time>
      </trkpt>
      <trkpt lat="45.19028" lon="5.96684">
        <ele>1848.4</ele>
        <time>2026-07-19T11:16:59Z</time>
      </trkpt>
      <trkpt lat="45.19029" lon="5.96683">
        <ele>1848.6</ele>
        <time>2026-07-19T11:17:00Z</time>
      </trkpt>
      <trkpt lat="45.19028" lon="5.96681">
        <ele>1846.6</ele>
        <time>2026-07-19T11:17:02Z</time>
      </trkpt>
      <trkpt lat="45.19026" lon="5.9668">
        <ele>1845.8</ele>
        <time>2026-07-19T11:17:03Z</time>
      </trkpt>
      <trkpt lat="45.19024" lon="5.96678">
        <ele>1845.2</ele>
        <time>2026-07-19T11:17:04Z</time>
      </trkpt>
      <trkpt lat="45.19022" lon="5.96673">
        <ele>1843.6</ele>
        <time>2026-07-19T11:17:06Z</time>
      </trkpt>
      <trkpt lat="45.19021" lon="5.96672">
        <ele>1842.6</ele>
        <time>2026-07-19T11:17:07Z</time>
      </trkpt>
      <trkpt lat="45.1902" lon="5.9667">
        <ele>1841.8</ele>
        <time>2026-07-19T11:17:08Z</time>
      </trkpt>
      <trkpt lat="45.19019" lon="5.96668">
        <ele>1841.2</ele>
        <time>2026-07-19T11:17:09Z</time>
      </trkpt>
      <trkpt lat="45.19018" lon="5.96664">
        <ele>1841.2</ele>
        <time>2026-07-19T11:17:11Z</time>
      </trkpt>
      <trkpt lat="45.19019" lon="5.96663">
        <ele>1840.6</ele>
        <time>2026-07-19T11:17:12Z</time>
      </trkpt>
      <trkpt lat="45.19025" lon="5.96662">
        <ele>1840.2</ele>
        <time>2026-07-19T11:17:16Z</time>
      </trkpt>
      <trkpt lat="45.19025" lon="5.96658">
        <ele>1839.6</ele>
        <time>2026-07-19T11:17:19Z</time>
      </trkpt>
      <trkpt lat="45.19024" lon="5.96657">
        <ele>1839</ele>
        <time>2026-07-19T11:17:20Z</time>
      </trkpt>
      <trkpt lat="45.19023" lon="5.96655">
        <ele>1838</ele>
        <time>2026-07-19T11:17:21Z</time>
      </trkpt>
      <trkpt lat="45.19022" lon="5.96653">
        <ele>1836.6</ele>
        <time>2026-07-19T11:17:22Z</time>
      </trkpt>
      <trkpt lat="45.1902" lon="5.96649">
        <ele>1835</ele>
        <time>2026-07-19T11:17:24Z</time>
      </trkpt>
      <trkpt lat="45.19018" lon="5.96645">
        <ele>1833</ele>
        <time>2026-07-19T11:17:26Z</time>
      </trkpt>
      <trkpt lat="45.19015" lon="5.96641">
        <ele>1830.8</ele>
        <time>2026-07-19T11:17:28Z</time>
      </trkpt>
      <trkpt lat="45.19014" lon="5.96639">
        <ele>1829.2</ele>
        <time>2026-07-19T11:17:29Z</time>
      </trkpt>
      <trkpt lat="45.19012" lon="5.96636">
        <ele>1827.2</ele>
        <time>2026-07-19T11:17:31Z</time>
      </trkpt>
      <trkpt lat="45.19011" lon="5.96634">
        <ele>1825.8</ele>
        <time>2026-07-19T11:17:32Z</time>
      </trkpt>
      <trkpt lat="45.19009" lon="5.96632">
        <ele>1824.6</ele>
        <time>2026-07-19T11:17:33Z</time>
      </trkpt>
      <trkpt lat="45.19007" lon="5.96628">
        <ele>1823.4</ele>
        <time>2026-07-19T11:17:35Z</time>
      </trkpt>
      <trkpt lat="45.19005" lon="5.96625">
        <ele>1822.8</ele>
        <time>2026-07-19T11:17:37Z</time>
      </trkpt>
      <trkpt lat="45.19003" lon="5.96622">
        <ele>1821.6</ele>
        <time>2026-07-19T11:17:39Z</time>
      </trkpt>
      <trkpt lat="45.19001" lon="5.96619">
        <ele>1821</ele>
        <time>2026-07-19T11:17:41Z</time>
      </trkpt>
      <trkpt lat="45.19001" lon="5.96618">
        <ele>1820.2</ele>
        <time>2026-07-19T11:17:42Z</time>
      </trkpt>
      <trkpt lat="45.19001" lon="5.96618">
        <ele>1819.8</ele>
        <time>2026-07-19T11:17:43Z</time>
      </trkpt>
      <trkpt lat="45.19" lon="5.96617">
        <ele>1818.8</ele>
        <time>2026-07-19T11:17:45Z</time>
      </trkpt>
      <trkpt lat="45.18998" lon="5.96615">
        <ele>1817.6</ele>
        <time>2026-07-19T11:17:47Z</time>
      </trkpt>
      <trkpt lat="45.18998" lon="5.96613">
        <ele>1817</ele>
        <time>2026-07-19T11:17:48Z</time>
      </trkpt>
      <trkpt lat="45.18996" lon="5.96613">
        <ele>1816.2</ele>
        <time>2026-07-19T11:17:49Z</time>
      </trkpt>
      <trkpt lat="45.18995" lon="5.9661">
        <ele>1815.2</ele>
        <time>2026-07-19T11:17:51Z</time>
      </trkpt>
      <trkpt lat="45.18996" lon="5.96608">
        <ele>1811.6</ele>
        <time>2026-07-19T11:17:52Z</time>
      </trkpt>
      <trkpt lat="45.18997" lon="5.96606">
        <ele>1811</ele>
        <time>2026-07-19T11:17:54Z</time>
      </trkpt>
      <trkpt lat="45.18997" lon="5.96604">
        <ele>1810.8</ele>
        <time>2026-07-19T11:17:55Z</time>
      </trkpt>
      <trkpt lat="45.18995" lon="5.96603">
        <ele>1810.6</ele>
        <time>2026-07-19T11:17:56Z</time>
      </trkpt>
      <trkpt lat="45.18993" lon="5.96599">
        <ele>1810.4</ele>
        <time>2026-07-19T11:17:58Z</time>
      </trkpt>
      <trkpt lat="45.18988" lon="5.96594">
        <ele>1810.2</ele>
        <time>2026-07-19T11:18:03Z</time>
      </trkpt>
      <trkpt lat="45.18987" lon="5.96594">
        <ele>1810</ele>
        <time>2026-07-19T11:18:04Z</time>
      </trkpt>
      <trkpt lat="45.18986" lon="5.96592">
        <ele>1809</ele>
        <time>2026-07-19T11:18:09Z</time>
      </trkpt>
      <trkpt lat="45.18985" lon="5.9659">
        <ele>1808.2</ele>
        <time>2026-07-19T11:18:10Z</time>
      </trkpt>
      <trkpt lat="45.18984" lon="5.96589">
        <ele>1807.6</ele>
        <time>2026-07-19T11:18:11Z</time>
      </trkpt>
      <trkpt lat="45.18981" lon="5.96584">
        <ele>1806.2</ele>
        <time>2026-07-19T11:18:14Z</time>
      </trkpt>
      <trkpt lat="45.18977" lon="5.9658">
        <ele>1804</ele>
        <time>2026-07-19T11:18:17Z</time>
      </trkpt>
      <trkpt lat="45.18975" lon="5.96577">
        <ele>1802.2</ele>
        <time>2026-07-19T11:18:19Z</time>
      </trkpt>
      <trkpt lat="45.18973" lon="5.96575">
        <ele>1801.6</ele>
        <time>2026-07-19T11:18:21Z</time>
      </trkpt>
      <trkpt lat="45.18973" lon="5.96574">
        <ele>1801</ele>
        <time>2026-07-19T11:18:22Z</time>
      </trkpt>
      <trkpt lat="45.18972" lon="5.9657">
        <ele>1799.4</ele>
        <time>2026-07-19T11:18:24Z</time>
      </trkpt>
      <trkpt lat="45.18969" lon="5.96566">
        <ele>1798.4</ele>
        <time>2026-07-19T11:18:26Z</time>
      </trkpt>
      <trkpt lat="45.18968" lon="5.96564">
        <ele>1798.2</ele>
        <time>2026-07-19T11:18:27Z</time>
      </trkpt>
      <trkpt lat="45.18963" lon="5.96552">
        <ele>1797.4</ele>
        <time>2026-07-19T11:18:32Z</time>
      </trkpt>
      <trkpt lat="45.18961" lon="5.96548">
        <ele>1797</ele>
        <time>2026-07-19T11:18:34Z</time>
      </trkpt>
      <trkpt lat="45.18959" lon="5.96544">
        <ele>1797</ele>
        <time>2026-07-19T11:18:36Z</time>
      </trkpt>
      <trkpt lat="45.18961" lon="5.96541">
        <ele>1797</ele>
        <time>2026-07-19T11:18:38Z</time>
      </trkpt>
      <trkpt lat="45.18962" lon="5.96541">
        <ele>1796.4</ele>
        <time>2026-07-19T11:18:39Z</time>
      </trkpt>
      <trkpt lat="45.18963" lon="5.96541">
        <ele>1795.8</ele>
        <time>2026-07-19T11:18:40Z</time>
      </trkpt>
      <trkpt lat="45.1897" lon="5.96542">
        <ele>1794.2</ele>
        <time>2026-07-19T11:18:44Z</time>
      </trkpt>
      <trkpt lat="45.18977" lon="5.96542">
        <ele>1793</ele>
        <time>2026-07-19T11:18:48Z</time>
      </trkpt>
      <trkpt lat="45.1898" lon="5.9654">
        <ele>1792.4</ele>
        <time>2026-07-19T11:18:50Z</time>
      </trkpt>
      <trkpt lat="45.18981" lon="5.96539">
        <ele>1791.8</ele>
        <time>2026-07-19T11:18:51Z</time>
      </trkpt>
      <trkpt lat="45.18982" lon="5.9654">
        <ele>1788.8</ele>
        <time>2026-07-19T11:18:52Z</time>
      </trkpt>
      <trkpt lat="45.18984" lon="5.96541">
        <ele>1787.4</ele>
        <time>2026-07-19T11:18:53Z</time>
      </trkpt>
      <trkpt lat="45.18986" lon="5.96541">
        <ele>1786.8</ele>
        <time>2026-07-19T11:18:54Z</time>
      </trkpt>
      <trkpt lat="45.18989" lon="5.9654">
        <ele>1785.8</ele>
        <time>2026-07-19T11:18:56Z</time>
      </trkpt>
      <trkpt lat="45.18993" lon="5.96537">
        <ele>1784.8</ele>
        <time>2026-07-19T11:18:59Z</time>
      </trkpt>
      <trkpt lat="45.18996" lon="5.96536">
        <ele>1784.4</ele>
        <time>2026-07-19T11:19:01Z</time>
      </trkpt>
      <trkpt lat="45.19002" lon="5.96531">
        <ele>1783</ele>
        <time>2026-07-19T11:19:05Z</time>
      </trkpt>
      <trkpt lat="45.19004" lon="5.9653">
        <ele>1783</ele>
        <time>2026-07-19T11:19:06Z</time>
      </trkpt>
      <trkpt lat="45.19007" lon="5.96529">
        <ele>1781.6</ele>
        <time>2026-07-19T11:19:08Z</time>
      </trkpt>
      <trkpt lat="45.19012" lon="5.96525">
        <ele>1780.4</ele>
        <time>2026-07-19T11:19:11Z</time>
      </trkpt>
      <trkpt lat="45.19014" lon="5.96524">
        <ele>1780.2</ele>
        <time>2026-07-19T11:19:12Z</time>
      </trkpt>
      <trkpt lat="45.19023" lon="5.96519">
        <ele>1779.8</ele>
        <time>2026-07-19T11:19:17Z</time>
      </trkpt>
      <trkpt lat="45.19025" lon="5.96517">
        <ele>1779</ele>
        <time>2026-07-19T11:19:19Z</time>
      </trkpt>
      <trkpt lat="45.19033" lon="5.96513">
        <ele>1777.8</ele>
        <time>2026-07-19T11:19:24Z</time>
      </trkpt>
      <trkpt lat="45.19038" lon="5.96512">
        <ele>1776.4</ele>
        <time>2026-07-19T11:19:27Z</time>
      </trkpt>
      <trkpt lat="45.19039" lon="5.96511">
        <ele>1774.6</ele>
        <time>2026-07-19T11:19:29Z</time>
      </trkpt>
      <trkpt lat="45.19038" lon="5.96509">
        <ele>1773.4</ele>
        <time>2026-07-19T11:19:30Z</time>
      </trkpt>
      <trkpt lat="45.19036" lon="5.96508">
        <ele>1772.2</ele>
        <time>2026-07-19T11:19:31Z</time>
      </trkpt>
      <trkpt lat="45.19034" lon="5.96506">
        <ele>1770.4</ele>
        <time>2026-07-19T11:19:33Z</time>
      </trkpt>
      <trkpt lat="45.19033" lon="5.96505">
        <ele>1769.4</ele>
        <time>2026-07-19T11:19:34Z</time>
      </trkpt>
      <trkpt lat="45.19032" lon="5.96503">
        <ele>1767</ele>
        <time>2026-07-19T11:19:35Z</time>
      </trkpt>
      <trkpt lat="45.19031" lon="5.96502">
        <ele>1765.4</ele>
        <time>2026-07-19T11:19:36Z</time>
      </trkpt>
      <trkpt lat="45.19031" lon="5.96501">
        <ele>1764</ele>
        <time>2026-07-19T11:19:37Z</time>
      </trkpt>
      <trkpt lat="45.1903" lon="5.965">
        <ele>1762.4</ele>
        <time>2026-07-19T11:19:38Z</time>
      </trkpt>
      <trkpt lat="45.19029" lon="5.96499">
        <ele>1760.8</ele>
        <time>2026-07-19T11:19:39Z</time>
      </trkpt>
      <trkpt lat="45.19028" lon="5.96499">
        <ele>1759</ele>
        <time>2026-07-19T11:19:41Z</time>
      </trkpt>
      <trkpt lat="45.19025" lon="5.96498">
        <ele>1756.8</ele>
        <time>2026-07-19T11:19:43Z</time>
      </trkpt>
      <trkpt lat="45.19024" lon="5.96497">
        <ele>1755.6</ele>
        <time>2026-07-19T11:19:44Z</time>
      </trkpt>
      <trkpt lat="45.19023" lon="5.96495">
        <ele>1755</ele>
        <time>2026-07-19T11:19:45Z</time>
      </trkpt>
      <trkpt lat="45.19022" lon="5.96493">
        <ele>1754.4</ele>
        <time>2026-07-19T11:19:46Z</time>
      </trkpt>
      <trkpt lat="45.1902" lon="5.9649">
        <ele>1752.6</ele>
        <time>2026-07-19T11:19:48Z</time>
      </trkpt>
      <trkpt lat="45.19018" lon="5.96487">
        <ele>1751</ele>
        <time>2026-07-19T11:19:50Z</time>
      </trkpt>
      <trkpt lat="45.19015" lon="5.96483">
        <ele>1749.4</ele>
        <time>2026-07-19T11:19:52Z</time>
      </trkpt>
      <trkpt lat="45.19014" lon="5.96482">
        <ele>1748.2</ele>
        <time>2026-07-19T11:19:53Z</time>
      </trkpt>
      <trkpt lat="45.19011" lon="5.96479">
        <ele>1746.8</ele>
        <time>2026-07-19T11:19:55Z</time>
      </trkpt>
      <trkpt lat="45.19008" lon="5.96474">
        <ele>1745.4</ele>
        <time>2026-07-19T11:19:58Z</time>
      </trkpt>
      <trkpt lat="45.19007" lon="5.96472">
        <ele>1744.8</ele>
        <time>2026-07-19T11:19:59Z</time>
      </trkpt>
      <trkpt lat="45.19006" lon="5.9647">
        <ele>1743.4</ele>
        <time>2026-07-19T11:20:00Z</time>
      </trkpt>
      <trkpt lat="45.19003" lon="5.96468">
        <ele>1741.6</ele>
        <time>2026-07-19T11:20:02Z</time>
      </trkpt>
      <trkpt lat="45.18999" lon="5.96465">
        <ele>1739.8</ele>
        <time>2026-07-19T11:20:05Z</time>
      </trkpt>
      <trkpt lat="45.18994" lon="5.96461">
        <ele>1738.4</ele>
        <time>2026-07-19T11:20:08Z</time>
      </trkpt>
      <trkpt lat="45.18991" lon="5.9646">
        <ele>1737</ele>
        <time>2026-07-19T11:20:10Z</time>
      </trkpt>
      <trkpt lat="45.18989" lon="5.96458">
        <ele>1737.8</ele>
        <time>2026-07-19T11:20:11Z</time>
      </trkpt>
      <trkpt lat="45.18982" lon="5.96454">
        <ele>1735.6</ele>
        <time>2026-07-19T11:20:16Z</time>
      </trkpt>
      <trkpt lat="45.1898" lon="5.96455">
        <ele>1735.4</ele>
        <time>2026-07-19T11:20:17Z</time>
      </trkpt>
      <trkpt lat="45.18977" lon="5.96454">
        <ele>1736.6</ele>
        <time>2026-07-19T11:20:19Z</time>
      </trkpt>
      <trkpt lat="45.18975" lon="5.9645">
        <ele>1736.6</ele>
        <time>2026-07-19T11:20:21Z</time>
      </trkpt>
      <trkpt lat="45.18969" lon="5.96436">
        <ele>1736.2</ele>
        <time>2026-07-19T11:20:27Z</time>
      </trkpt>
      <trkpt lat="45.18967" lon="5.96432">
        <ele>1735.4</ele>
        <time>2026-07-19T11:20:29Z</time>
      </trkpt>
      <trkpt lat="45.18964" lon="5.96429">
        <ele>1734</ele>
        <time>2026-07-19T11:20:32Z</time>
      </trkpt>
      <trkpt lat="45.18956" lon="5.96425">
        <ele>1733.8</ele>
        <time>2026-07-19T11:20:38Z</time>
      </trkpt>
      <trkpt lat="45.18952" lon="5.96426">
        <ele>1734.8</ele>
        <time>2026-07-19T11:20:42Z</time>
      </trkpt>
      <trkpt lat="45.18951" lon="5.96426">
        <ele>1735</ele>
        <time>2026-07-19T11:20:44Z</time>
      </trkpt>
      <trkpt lat="45.1895" lon="5.96426">
        <ele>1734.6</ele>
        <time>2026-07-19T11:20:45Z</time>
      </trkpt>
      <trkpt lat="45.18947" lon="5.96424">
        <ele>1734.8</ele>
        <time>2026-07-19T11:20:50Z</time>
      </trkpt>
      <trkpt lat="45.18947" lon="5.96423">
        <ele>1735.6</ele>
        <time>2026-07-19T11:20:52Z</time>
      </trkpt>
      <trkpt lat="45.18946" lon="5.9642">
        <ele>1738.2</ele>
        <time>2026-07-19T11:20:55Z</time>
      </trkpt>
      <trkpt lat="45.18945" lon="5.96417">
        <ele>1738.8</ele>
        <time>2026-07-19T11:20:59Z</time>
      </trkpt>
      <trkpt lat="45.18944" lon="5.96414">
        <ele>1739.4</ele>
        <time>2026-07-19T11:21:01Z</time>
      </trkpt>
      <trkpt lat="45.18942" lon="5.96405">
        <ele>1740.8</ele>
        <time>2026-07-19T11:21:05Z</time>
      </trkpt>
      <trkpt lat="45.1894" lon="5.96403">
        <ele>1741.4</ele>
        <time>2026-07-19T11:21:06Z</time>
      </trkpt>
      <trkpt lat="45.18938" lon="5.964">
        <ele>1742</ele>
        <time>2026-07-19T11:21:07Z</time>
      </trkpt>
      <trkpt lat="45.18936" lon="5.96393">
        <ele>1743</ele>
        <time>2026-07-19T11:21:09Z</time>
      </trkpt>
      <trkpt lat="45.18934" lon="5.96387">
        <ele>1744.2</ele>
        <time>2026-07-19T11:21:11Z</time>
      </trkpt>
      <trkpt lat="45.18931" lon="5.96378">
        <ele>1745.6</ele>
        <time>2026-07-19T11:21:14Z</time>
      </trkpt>
      <trkpt lat="45.18929" lon="5.96375">
        <ele>1747</ele>
        <time>2026-07-19T11:21:15Z</time>
      </trkpt>
      <trkpt lat="45.18929" lon="5.96373">
        <ele>1746.8</ele>
        <time>2026-07-19T11:21:16Z</time>
      </trkpt>
      <trkpt lat="45.18925" lon="5.96362">
        <ele>1745.6</ele>
        <time>2026-07-19T11:21:21Z</time>
      </trkpt>
      <trkpt lat="45.18925" lon="5.9636">
        <ele>1744.4</ele>
        <time>2026-07-19T11:21:22Z</time>
      </trkpt>
      <trkpt lat="45.18924" lon="5.96355">
        <ele>1743.4</ele>
        <time>2026-07-19T11:21:24Z</time>
      </trkpt>
      <trkpt lat="45.18921" lon="5.96346">
        <ele>1742.8</ele>
        <time>2026-07-19T11:21:27Z</time>
      </trkpt>
      <trkpt lat="45.18916" lon="5.96333">
        <ele>1742.2</ele>
        <time>2026-07-19T11:21:31Z</time>
      </trkpt>
      <trkpt lat="45.18914" lon="5.96329">
        <ele>1741</ele>
        <time>2026-07-19T11:21:33Z</time>
      </trkpt>
      <trkpt lat="45.18913" lon="5.96326">
        <ele>1740.6</ele>
        <time>2026-07-19T11:21:34Z</time>
      </trkpt>
      <trkpt lat="45.18913" lon="5.96322">
        <ele>1739.4</ele>
        <time>2026-07-19T11:21:36Z</time>
      </trkpt>
      <trkpt lat="45.18913" lon="5.96319">
        <ele>1739.6</ele>
        <time>2026-07-19T11:21:37Z</time>
      </trkpt>
      <trkpt lat="45.18911" lon="5.96314">
        <ele>1738.8</ele>
        <time>2026-07-19T11:21:39Z</time>
      </trkpt>
      <trkpt lat="45.18908" lon="5.96311">
        <ele>1738</ele>
        <time>2026-07-19T11:21:41Z</time>
      </trkpt>
      <trkpt lat="45.18904" lon="5.96307">
        <ele>1736.8</ele>
        <time>2026-07-19T11:21:43Z</time>
      </trkpt>
      <trkpt lat="45.18902" lon="5.96305">
        <ele>1735.6</ele>
        <time>2026-07-19T11:21:44Z</time>
      </trkpt>
      <trkpt lat="45.18899" lon="5.96302">
        <ele>1735.6</ele>
        <time>2026-07-19T11:21:45Z</time>
      </trkpt>
      <trkpt lat="45.18895" lon="5.96296">
        <ele>1734.4</ele>
        <time>2026-07-19T11:21:47Z</time>
      </trkpt>
      <trkpt lat="45.18891" lon="5.96288">
        <ele>1733</ele>
        <time>2026-07-19T11:21:50Z</time>
      </trkpt>
      <trkpt lat="45.18889" lon="5.96287">
        <ele>1732</ele>
        <time>2026-07-19T11:21:51Z</time>
      </trkpt>
      <trkpt lat="45.18887" lon="5.96284">
        <ele>1731.8</ele>
        <time>2026-07-19T11:21:52Z</time>
      </trkpt>
      <trkpt lat="45.18881" lon="5.96275">
        <ele>1731.4</ele>
        <time>2026-07-19T11:21:56Z</time>
      </trkpt>
      <trkpt lat="45.1888" lon="5.96273">
        <ele>1731.4</ele>
        <time>2026-07-19T11:21:57Z</time>
      </trkpt>
      <trkpt lat="45.18878" lon="5.96269">
        <ele>1730.4</ele>
        <time>2026-07-19T11:22:00Z</time>
      </trkpt>
      <trkpt lat="45.18877" lon="5.96267">
        <ele>1730.2</ele>
        <time>2026-07-19T11:22:01Z</time>
      </trkpt>
      <trkpt lat="45.18876" lon="5.96265">
        <ele>1728.8</ele>
        <time>2026-07-19T11:22:02Z</time>
      </trkpt>
      <trkpt lat="45.18872" lon="5.96259">
        <ele>1726.4</ele>
        <time>2026-07-19T11:22:05Z</time>
      </trkpt>
      <trkpt lat="45.18871" lon="5.96254">
        <ele>1725.8</ele>
        <time>2026-07-19T11:22:07Z</time>
      </trkpt>
      <trkpt lat="45.1887" lon="5.96252">
        <ele>1724</ele>
        <time>2026-07-19T11:22:08Z</time>
      </trkpt>
      <trkpt lat="45.18869" lon="5.9625">
        <ele>1721.8</ele>
        <time>2026-07-19T11:22:09Z</time>
      </trkpt>
      <trkpt lat="45.18868" lon="5.96248">
        <ele>1719.4</ele>
        <time>2026-07-19T11:22:10Z</time>
      </trkpt>
      <trkpt lat="45.18867" lon="5.96246">
        <ele>1717.6</ele>
        <time>2026-07-19T11:22:11Z</time>
      </trkpt>
      <trkpt lat="45.18865" lon="5.96245">
        <ele>1714.4</ele>
        <time>2026-07-19T11:22:12Z</time>
      </trkpt>
      <trkpt lat="45.18864" lon="5.96244">
        <ele>1710.4</ele>
        <time>2026-07-19T11:22:13Z</time>
      </trkpt>
      <trkpt lat="45.18863" lon="5.96242">
        <ele>1707.6</ele>
        <time>2026-07-19T11:22:14Z</time>
      </trkpt>
      <trkpt lat="45.18861" lon="5.96241">
        <ele>1705.2</ele>
        <time>2026-07-19T11:22:15Z</time>
      </trkpt>
      <trkpt lat="45.1886" lon="5.96239">
        <ele>1702</ele>
        <time>2026-07-19T11:22:16Z</time>
      </trkpt>
      <trkpt lat="45.18859" lon="5.96237">
        <ele>1701</ele>
        <time>2026-07-19T11:22:17Z</time>
      </trkpt>
      <trkpt lat="45.18858" lon="5.96235">
        <ele>1699.6</ele>
        <time>2026-07-19T11:22:18Z</time>
      </trkpt>
      <trkpt lat="45.18856" lon="5.9623">
        <ele>1698.2</ele>
        <time>2026-07-19T11:22:20Z</time>
      </trkpt>
      <trkpt lat="45.18854" lon="5.96228">
        <ele>1696.8</ele>
        <time>2026-07-19T11:22:22Z</time>
      </trkpt>
      <trkpt lat="45.18854" lon="5.96228">
        <ele>1696.2</ele>
        <time>2026-07-19T11:22:23Z</time>
      </trkpt>
      <trkpt lat="45.18854" lon="5.96228">
        <ele>1696.2</ele>
        <time>2026-07-19T11:22:24Z</time>
      </trkpt>
      <trkpt lat="45.18854" lon="5.96227">
        <ele>1695.2</ele>
        <time>2026-07-19T11:22:25Z</time>
      </trkpt>
      <trkpt lat="45.18851" lon="5.96222">
        <ele>1694.6</ele>
        <time>2026-07-19T11:22:30Z</time>
      </trkpt>
      <trkpt lat="45.18851" lon="5.96219">
        <ele>1693.8</ele>
        <time>2026-07-19T11:22:31Z</time>
      </trkpt>
      <trkpt lat="45.18844" lon="5.96207">
        <ele>1693.2</ele>
        <time>2026-07-19T11:22:36Z</time>
      </trkpt>
      <trkpt lat="45.1884" lon="5.96202">
        <ele>1692.6</ele>
        <time>2026-07-19T11:22:38Z</time>
      </trkpt>
      <trkpt lat="45.18835" lon="5.96193">
        <ele>1692</ele>
        <time>2026-07-19T11:22:42Z</time>
      </trkpt>
      <trkpt lat="45.18829" lon="5.96188">
        <ele>1692</ele>
        <time>2026-07-19T11:22:48Z</time>
      </trkpt>
      <trkpt lat="45.18828" lon="5.96188">
        <ele>1692.6</ele>
        <time>2026-07-19T11:22:51Z</time>
      </trkpt>
      <trkpt lat="45.18828" lon="5.96188">
        <ele>1692.4</ele>
        <time>2026-07-19T11:22:54Z</time>
      </trkpt>
      <trkpt lat="45.18828" lon="5.96189">
        <ele>1691.4</ele>
        <time>2026-07-19T11:22:58Z</time>
      </trkpt>
      <trkpt lat="45.18827" lon="5.96189">
        <ele>1692.4</ele>
        <time>2026-07-19T11:23:04Z</time>
      </trkpt>
      <trkpt lat="45.18827" lon="5.96189">
        <ele>1692.2</ele>
        <time>2026-07-19T11:23:09Z</time>
      </trkpt>
      <trkpt lat="45.18827" lon="5.9619">
        <ele>1691.2</ele>
        <time>2026-07-19T11:23:13Z</time>
      </trkpt>
      <trkpt lat="45.18828" lon="5.96189">
        <ele>1691.8</ele>
        <time>2026-07-19T11:23:22Z</time>
      </trkpt>
      <trkpt lat="45.18828" lon="5.96188">
        <ele>1691.2</ele>
        <time>2026-07-19T11:23:40Z</time>
      </trkpt>
      <trkpt lat="45.18829" lon="5.96188">
        <ele>1690.8</ele>
        <time>2026-07-19T11:23:55Z</time>
      </trkpt>
      <trkpt lat="45.1883" lon="5.96188">
        <ele>1690.2</ele>
        <time>2026-07-19T11:24:13Z</time>
      </trkpt>
      <trkpt lat="45.18828" lon="5.96189">
        <ele>1692.4</ele>
        <time>2026-07-19T11:24:29Z</time>
      </trkpt>
      <trkpt lat="45.18828" lon="5.9619">
        <ele>1694</ele>
        <time>2026-07-19T11:24:30Z</time>
      </trkpt>
      <trkpt lat="45.18827" lon="5.9619">
        <ele>1695.2</ele>
        <time>2026-07-19T11:24:44Z</time>
      </trkpt>
      <trkpt lat="45.18827" lon="5.9619">
        <ele>1695.2</ele>
        <time>2026-07-19T11:24:45Z</time>
      </trkpt>
      <trkpt lat="45.18826" lon="5.9619">
        <ele>1696.4</ele>
        <time>2026-07-19T11:24:59Z</time>
      </trkpt>
      <trkpt lat="45.18826" lon="5.9619">
        <ele>1696.4</ele>
        <time>2026-07-19T11:25:00Z</time>
      </trkpt>
      <trkpt lat="45.18823" lon="5.96191">
        <ele>1696.6</ele>
        <time>2026-07-19T11:25:13Z</time>
      </trkpt>
      <trkpt lat="45.18817" lon="5.96194">
        <ele>1696.4</ele>
        <time>2026-07-19T11:25:17Z</time>
      </trkpt>
      <trkpt lat="45.18813" lon="5.96196">
        <ele>1696.4</ele>
        <time>2026-07-19T11:25:19Z</time>
      </trkpt>
      <trkpt lat="45.18803" lon="5.96199">
        <ele>1696</ele>
        <time>2026-07-19T11:25:25Z</time>
      </trkpt>
      <trkpt lat="45.18803" lon="5.96199">
        <ele>1696</ele>
        <time>2026-07-19T11:25:26Z</time>
      </trkpt>
      <trkpt lat="45.18797" lon="5.96198">
        <ele>1695.2</ele>
        <time>2026-07-19T11:25:35Z</time>
      </trkpt>
      <trkpt lat="45.18796" lon="5.96198">
        <ele>1694.6</ele>
        <time>2026-07-19T11:25:36Z</time>
      </trkpt>
      <trkpt lat="45.18795" lon="5.96198">
        <ele>1693.8</ele>
        <time>2026-07-19T11:25:38Z</time>
      </trkpt>
      <trkpt lat="45.18796" lon="5.96198">
        <ele>1692.2</ele>
        <time>2026-07-19T11:25:42Z</time>
      </trkpt>
      <trkpt lat="45.18796" lon="5.96198">
        <ele>1692</ele>
        <time>2026-07-19T11:25:43Z</time>
      </trkpt>
      <trkpt lat="45.18796" lon="5.96198">
        <ele>1690.8</ele>
        <time>2026-07-19T11:25:51Z</time>
      </trkpt>
      <trkpt lat="45.18797" lon="5.96199">
        <ele>1689.4</ele>
        <time>2026-07-19T11:25:55Z</time>
      </trkpt>
      <trkpt lat="45.18797" lon="5.96199">
        <ele>1689.4</ele>
        <time>2026-07-19T11:25:57Z</time>
      </trkpt>
      <trkpt lat="45.18797" lon="5.96199">
        <ele>1688.2</ele>
        <time>2026-07-19T11:26:04Z</time>
      </trkpt>
      <trkpt lat="45.18797" lon="5.96199">
        <ele>1689.2</ele>
        <time>2026-07-19T11:26:14Z</time>
      </trkpt>
      <trkpt lat="45.18797" lon="5.96199">
        <ele>1689.6</ele>
        <time>2026-07-19T11:26:15Z</time>
      </trkpt>
      <trkpt lat="45.18793" lon="5.96195">
        <ele>1689.6</ele>
        <time>2026-07-19T11:26:23Z</time>
      </trkpt>
      <trkpt lat="45.1879" lon="5.96191">
        <ele>1689.8</ele>
        <time>2026-07-19T11:26:25Z</time>
      </trkpt>
      <trkpt lat="45.18784" lon="5.96188">
        <ele>1688.4</ele>
        <time>2026-07-19T11:26:28Z</time>
      </trkpt>
      <trkpt lat="45.18782" lon="5.96187">
        <ele>1687.2</ele>
        <time>2026-07-19T11:26:29Z</time>
      </trkpt>
      <trkpt lat="45.18774" lon="5.96184">
        <ele>1685.8</ele>
        <time>2026-07-19T11:26:32Z</time>
      </trkpt>
      <trkpt lat="45.18767" lon="5.96176">
        <ele>1685.8</ele>
        <time>2026-07-19T11:26:36Z</time>
      </trkpt>
      <trkpt lat="45.18759" lon="5.96166">
        <ele>1685.6</ele>
        <time>2026-07-19T11:26:42Z</time>
      </trkpt>
      <trkpt lat="45.18757" lon="5.96165">
        <ele>1684.6</ele>
        <time>2026-07-19T11:26:44Z</time>
      </trkpt>
      <trkpt lat="45.18754" lon="5.96163">
        <ele>1683</ele>
        <time>2026-07-19T11:26:46Z</time>
      </trkpt>
      <trkpt lat="45.18753" lon="5.96162">
        <ele>1682.4</ele>
        <time>2026-07-19T11:26:47Z</time>
      </trkpt>
      <trkpt lat="45.18749" lon="5.96161">
        <ele>1681.6</ele>
        <time>2026-07-19T11:26:49Z</time>
      </trkpt>
      <trkpt lat="45.18742" lon="5.96161">
        <ele>1680.4</ele>
        <time>2026-07-19T11:26:52Z</time>
      </trkpt>
      <trkpt lat="45.18736" lon="5.96159">
        <ele>1679.2</ele>
        <time>2026-07-19T11:26:55Z</time>
      </trkpt>
      <trkpt lat="45.18729" lon="5.96157">
        <ele>1678</ele>
        <time>2026-07-19T11:26:58Z</time>
      </trkpt>
      <trkpt lat="45.18723" lon="5.96157">
        <ele>1676.8</ele>
        <time>2026-07-19T11:27:01Z</time>
      </trkpt>
      <trkpt lat="45.18721" lon="5.96158">
        <ele>1676.8</ele>
        <time>2026-07-19T11:27:02Z</time>
      </trkpt>
      <trkpt lat="45.1871" lon="5.96164">
        <ele>1678.4</ele>
        <time>2026-07-19T11:27:09Z</time>
      </trkpt>
      <trkpt lat="45.18708" lon="5.96165">
        <ele>1678.8</ele>
        <time>2026-07-19T11:27:10Z</time>
      </trkpt>
      <trkpt lat="45.18707" lon="5.96165">
        <ele>1679</ele>
        <time>2026-07-19T11:27:11Z</time>
      </trkpt>
      <trkpt lat="45.18702" lon="5.96166">
        <ele>1679.6</ele>
        <time>2026-07-19T11:27:15Z</time>
      </trkpt>
      <trkpt lat="45.18701" lon="5.96166">
        <ele>1680.2</ele>
        <time>2026-07-19T11:27:16Z</time>
      </trkpt>
      <trkpt lat="45.18698" lon="5.96167">
        <ele>1680.8</ele>
        <time>2026-07-19T11:27:18Z</time>
      </trkpt>
      <trkpt lat="45.18692" lon="5.96165">
        <ele>1682</ele>
        <time>2026-07-19T11:27:21Z</time>
      </trkpt>
      <trkpt lat="45.18688" lon="5.96166">
        <ele>1681.8</ele>
        <time>2026-07-19T11:27:23Z</time>
      </trkpt>
      <trkpt lat="45.18685" lon="5.96165">
        <ele>1682</ele>
        <time>2026-07-19T11:27:24Z</time>
      </trkpt>
      <trkpt lat="45.18683" lon="5.96162">
        <ele>1681.8</ele>
        <time>2026-07-19T11:27:27Z</time>
      </trkpt>
      <trkpt lat="45.18682" lon="5.96161">
        <ele>1681.4</ele>
        <time>2026-07-19T11:27:28Z</time>
      </trkpt>
      <trkpt lat="45.18677" lon="5.96161">
        <ele>1681.2</ele>
        <time>2026-07-19T11:27:32Z</time>
      </trkpt>
      <trkpt lat="45.18673" lon="5.96155">
        <ele>1680.8</ele>
        <time>2026-07-19T11:27:38Z</time>
      </trkpt>
      <trkpt lat="45.18671" lon="5.9615">
        <ele>1681.6</ele>
        <time>2026-07-19T11:27:44Z</time>
      </trkpt>
      <trkpt lat="45.18671" lon="5.9615">
        <ele>1681</ele>
        <time>2026-07-19T11:27:45Z</time>
      </trkpt>
      <trkpt lat="45.18669" lon="5.96145">
        <ele>1680.2</ele>
        <time>2026-07-19T11:27:56Z</time>
      </trkpt>
      <trkpt lat="45.18667" lon="5.96138">
        <ele>1680</ele>
        <time>2026-07-19T11:27:59Z</time>
      </trkpt>
      <trkpt lat="45.18667" lon="5.96135">
        <ele>1680</ele>
        <time>2026-07-19T11:28:00Z</time>
      </trkpt>
      <trkpt lat="45.18668" lon="5.96133">
        <ele>1679.8</ele>
        <time>2026-07-19T11:28:01Z</time>
      </trkpt>
      <trkpt lat="45.18672" lon="5.9612">
        <ele>1679</ele>
        <time>2026-07-19T11:28:05Z</time>
      </trkpt>
      <trkpt lat="45.18675" lon="5.96116">
        <ele>1678.6</ele>
        <time>2026-07-19T11:28:07Z</time>
      </trkpt>
      <trkpt lat="45.18683" lon="5.96108">
        <ele>1677.2</ele>
        <time>2026-07-19T11:28:11Z</time>
      </trkpt>
      <trkpt lat="45.18686" lon="5.96104">
        <ele>1675.6</ele>
        <time>2026-07-19T11:28:13Z</time>
      </trkpt>
      <trkpt lat="45.18688" lon="5.961">
        <ele>1674</ele>
        <time>2026-07-19T11:28:15Z</time>
      </trkpt>
      <trkpt lat="45.1869" lon="5.96097">
        <ele>1672.6</ele>
        <time>2026-07-19T11:28:17Z</time>
      </trkpt>
      <trkpt lat="45.18691" lon="5.96095">
        <ele>1671.4</ele>
        <time>2026-07-19T11:28:20Z</time>
      </trkpt>
      <trkpt lat="45.18691" lon="5.96095">
        <ele>1670.8</ele>
        <time>2026-07-19T11:28:21Z</time>
      </trkpt>
      <trkpt lat="45.18691" lon="5.96095">
        <ele>1670.2</ele>
        <time>2026-07-19T11:28:22Z</time>
      </trkpt>
      <trkpt lat="45.18694" lon="5.96092">
        <ele>1670.6</ele>
        <time>2026-07-19T11:28:30Z</time>
      </trkpt>
      <trkpt lat="45.18693" lon="5.9609">
        <ele>1669</ele>
        <time>2026-07-19T11:28:36Z</time>
      </trkpt>
      <trkpt lat="45.18694" lon="5.9609">
        <ele>1668.2</ele>
        <time>2026-07-19T11:28:44Z</time>
      </trkpt>
      <trkpt lat="45.18694" lon="5.9609">
        <ele>1667.8</ele>
        <time>2026-07-19T11:28:51Z</time>
      </trkpt>
      <trkpt lat="45.18694" lon="5.96091">
        <ele>1666.6</ele>
        <time>2026-07-19T11:28:56Z</time>
      </trkpt>
      <trkpt lat="45.18694" lon="5.96091">
        <ele>1666.6</ele>
        <time>2026-07-19T11:28:57Z</time>
      </trkpt>
      <trkpt lat="45.18694" lon="5.96091">
        <ele>1665.4</ele>
        <time>2026-07-19T11:29:02Z</time>
      </trkpt>
      <trkpt lat="45.18694" lon="5.96091">
        <ele>1666.2</ele>
        <time>2026-07-19T11:29:12Z</time>
      </trkpt>
      <trkpt lat="45.18694" lon="5.96091">
        <ele>1666.6</ele>
        <time>2026-07-19T11:29:13Z</time>
      </trkpt>
      <trkpt lat="45.18693" lon="5.96092">
        <ele>1666</ele>
        <time>2026-07-19T11:29:26Z</time>
      </trkpt>
      <trkpt lat="45.18693" lon="5.96091">
        <ele>1666.2</ele>
        <time>2026-07-19T11:29:39Z</time>
      </trkpt>
      <trkpt lat="45.18693" lon="5.96091">
        <ele>1666</ele>
        <time>2026-07-19T11:29:51Z</time>
      </trkpt>
      <trkpt lat="45.18693" lon="5.96091">
        <ele>1665.4</ele>
        <time>2026-07-19T11:30:02Z</time>
      </trkpt>
      <trkpt lat="45.18693" lon="5.96091">
        <ele>1665.8</ele>
        <time>2026-07-19T11:30:06Z</time>
      </trkpt>
      <trkpt lat="45.18693" lon="5.96092">
        <ele>1666.6</ele>
        <time>2026-07-19T11:30:09Z</time>
      </trkpt>
      <trkpt lat="45.18692" lon="5.96093">
        <ele>1665.2</ele>
        <time>2026-07-19T11:30:18Z</time>
      </trkpt>
      <trkpt lat="45.18692" lon="5.96093">
        <ele>1665</ele>
        <time>2026-07-19T11:30:19Z</time>
      </trkpt>
      <trkpt lat="45.18693" lon="5.96094">
        <ele>1664.2</ele>
        <time>2026-07-19T11:30:33Z</time>
      </trkpt>
      <trkpt lat="45.18699" lon="5.96091">
        <ele>1663.6</ele>
        <time>2026-07-19T11:30:38Z</time>
      </trkpt>
      <trkpt lat="45.18703" lon="5.96078">
        <ele>1662.8</ele>
        <time>2026-07-19T11:30:42Z</time>
      </trkpt>
      <trkpt lat="45.18704" lon="5.96075">
        <ele>1662.6</ele>
        <time>2026-07-19T11:30:43Z</time>
      </trkpt>
      <trkpt lat="45.18705" lon="5.96064">
        <ele>1661.6</ele>
        <time>2026-07-19T11:30:46Z</time>
      </trkpt>
      <trkpt lat="45.18706" lon="5.9606">
        <ele>1661</ele>
        <time>2026-07-19T11:30:47Z</time>
      </trkpt>
      <trkpt lat="45.1871" lon="5.96053">
        <ele>1660</ele>
        <time>2026-07-19T11:30:50Z</time>
      </trkpt>
      <trkpt lat="45.18713" lon="5.96048">
        <ele>1659.8</ele>
        <time>2026-07-19T11:30:52Z</time>
      </trkpt>
      <trkpt lat="45.18717" lon="5.9604">
        <ele>1658.2</ele>
        <time>2026-07-19T11:30:55Z</time>
      </trkpt>
      <trkpt lat="45.18719" lon="5.96033">
        <ele>1657.8</ele>
        <time>2026-07-19T11:30:57Z</time>
      </trkpt>
      <trkpt lat="45.18718" lon="5.96025">
        <ele>1657</ele>
        <time>2026-07-19T11:30:59Z</time>
      </trkpt>
      <trkpt lat="45.1872" lon="5.96018">
        <ele>1656</ele>
        <time>2026-07-19T11:31:01Z</time>
      </trkpt>
      <trkpt lat="45.1872" lon="5.96014">
        <ele>1655.4</ele>
        <time>2026-07-19T11:31:02Z</time>
      </trkpt>
      <trkpt lat="45.1872" lon="5.9601">
        <ele>1654.2</ele>
        <time>2026-07-19T11:31:03Z</time>
      </trkpt>
      <trkpt lat="45.18721" lon="5.96003">
        <ele>1652</ele>
        <time>2026-07-19T11:31:05Z</time>
      </trkpt>
      <trkpt lat="45.18722" lon="5.96">
        <ele>1651</ele>
        <time>2026-07-19T11:31:06Z</time>
      </trkpt>
      <trkpt lat="45.18722" lon="5.95997">
        <ele>1650</ele>
        <time>2026-07-19T11:31:07Z</time>
      </trkpt>
      <trkpt lat="45.18722" lon="5.95994">
        <ele>1648.6</ele>
        <time>2026-07-19T11:31:08Z</time>
      </trkpt>
      <trkpt lat="45.18723" lon="5.95989">
        <ele>1647</ele>
        <time>2026-07-19T11:31:10Z</time>
      </trkpt>
      <trkpt lat="45.18722" lon="5.95985">
        <ele>1645.6</ele>
        <time>2026-07-19T11:31:12Z</time>
      </trkpt>
      <trkpt lat="45.18721" lon="5.95982">
        <ele>1643.8</ele>
        <time>2026-07-19T11:31:14Z</time>
      </trkpt>
      <trkpt lat="45.1872" lon="5.95977">
        <ele>1642.4</ele>
        <time>2026-07-19T11:31:16Z</time>
      </trkpt>
      <trkpt lat="45.1872" lon="5.95974">
        <ele>1641.8</ele>
        <time>2026-07-19T11:31:17Z</time>
      </trkpt>
      <trkpt lat="45.18722" lon="5.95968">
        <ele>1640.8</ele>
        <time>2026-07-19T11:31:19Z</time>
      </trkpt>
      <trkpt lat="45.18723" lon="5.95966">
        <ele>1639.8</ele>
        <time>2026-07-19T11:31:20Z</time>
      </trkpt>
      <trkpt lat="45.18725" lon="5.95962">
        <ele>1639.2</ele>
        <time>2026-07-19T11:31:22Z</time>
      </trkpt>
      <trkpt lat="45.18731" lon="5.95952">
        <ele>1638.2</ele>
        <time>2026-07-19T11:31:27Z</time>
      </trkpt>
      <trkpt lat="45.18732" lon="5.95949">
        <ele>1636.8</ele>
        <time>2026-07-19T11:31:28Z</time>
      </trkpt>
      <trkpt lat="45.18735" lon="5.95941">
        <ele>1635</ele>
        <time>2026-07-19T11:31:31Z</time>
      </trkpt>
      <trkpt lat="45.18736" lon="5.9594">
        <ele>1633.6</ele>
        <time>2026-07-19T11:31:32Z</time>
      </trkpt>
      <trkpt lat="45.18737" lon="5.9594">
        <ele>1633.2</ele>
        <time>2026-07-19T11:31:33Z</time>
      </trkpt>
      <trkpt lat="45.18741" lon="5.95939">
        <ele>1632.2</ele>
        <time>2026-07-19T11:31:35Z</time>
      </trkpt>
      <trkpt lat="45.18745" lon="5.95934">
        <ele>1631.8</ele>
        <time>2026-07-19T11:31:38Z</time>
      </trkpt>
      <trkpt lat="45.18749" lon="5.95928">
        <ele>1631.8</ele>
        <time>2026-07-19T11:31:43Z</time>
      </trkpt>
      <trkpt lat="45.1875" lon="5.95927">
        <ele>1631.2</ele>
        <time>2026-07-19T11:31:44Z</time>
      </trkpt>
      <trkpt lat="45.1875" lon="5.95925">
        <ele>1631.2</ele>
        <time>2026-07-19T11:31:45Z</time>
      </trkpt>
      <trkpt lat="45.1875" lon="5.95924">
        <ele>1631</ele>
        <time>2026-07-19T11:31:46Z</time>
      </trkpt>
      <trkpt lat="45.18753" lon="5.95918">
        <ele>1630.8</ele>
        <time>2026-07-19T11:31:50Z</time>
      </trkpt>
      <trkpt lat="45.18756" lon="5.9591">
        <ele>1632</ele>
        <time>2026-07-19T11:31:56Z</time>
      </trkpt>
      <trkpt lat="45.18758" lon="5.95906">
        <ele>1631.4</ele>
        <time>2026-07-19T11:31:58Z</time>
      </trkpt>
      <trkpt lat="45.18758" lon="5.95903">
        <ele>1630.4</ele>
        <time>2026-07-19T11:31:59Z</time>
      </trkpt>
      <trkpt lat="45.18757" lon="5.95898">
        <ele>1628.4</ele>
        <time>2026-07-19T11:32:01Z</time>
      </trkpt>
      <trkpt lat="45.18757" lon="5.95896">
        <ele>1628</ele>
        <time>2026-07-19T11:32:02Z</time>
      </trkpt>
      <trkpt lat="45.18758" lon="5.95895">
        <ele>1626.6</ele>
        <time>2026-07-19T11:32:03Z</time>
      </trkpt>
      <trkpt lat="45.1876" lon="5.9589">
        <ele>1625</ele>
        <time>2026-07-19T11:32:05Z</time>
      </trkpt>
      <trkpt lat="45.18761" lon="5.95888">
        <ele>1624.4</ele>
        <time>2026-07-19T11:32:06Z</time>
      </trkpt>
      <trkpt lat="45.18762" lon="5.95887">
        <ele>1623.4</ele>
        <time>2026-07-19T11:32:07Z</time>
      </trkpt>
      <trkpt lat="45.18762" lon="5.95884">
        <ele>1622.6</ele>
        <time>2026-07-19T11:32:08Z</time>
      </trkpt>
      <trkpt lat="45.18763" lon="5.95882">
        <ele>1621.8</ele>
        <time>2026-07-19T11:32:09Z</time>
      </trkpt>
      <trkpt lat="45.18763" lon="5.95877">
        <ele>1620.6</ele>
        <time>2026-07-19T11:32:11Z</time>
      </trkpt>
      <trkpt lat="45.18763" lon="5.95876">
        <ele>1619.8</ele>
        <time>2026-07-19T11:32:12Z</time>
      </trkpt>
      <trkpt lat="45.18764" lon="5.95874">
        <ele>1618.6</ele>
        <time>2026-07-19T11:32:13Z</time>
      </trkpt>
      <trkpt lat="45.18767" lon="5.95873">
        <ele>1617.2</ele>
        <time>2026-07-19T11:32:15Z</time>
      </trkpt>
      <trkpt lat="45.18768" lon="5.95873">
        <ele>1617</ele>
        <time>2026-07-19T11:32:16Z</time>
      </trkpt>
      <trkpt lat="45.18769" lon="5.95873">
        <ele>1615.8</ele>
        <time>2026-07-19T11:32:17Z</time>
      </trkpt>
      <trkpt lat="45.18771" lon="5.9587">
        <ele>1614.6</ele>
        <time>2026-07-19T11:32:19Z</time>
      </trkpt>
      <trkpt lat="45.18771" lon="5.95866">
        <ele>1613.6</ele>
        <time>2026-07-19T11:32:21Z</time>
      </trkpt>
      <trkpt lat="45.18771" lon="5.95865">
        <ele>1613.4</ele>
        <time>2026-07-19T11:32:22Z</time>
      </trkpt>
      <trkpt lat="45.18772" lon="5.95864">
        <ele>1612.2</ele>
        <time>2026-07-19T11:32:24Z</time>
      </trkpt>
      <trkpt lat="45.18773" lon="5.95863">
        <ele>1610.8</ele>
        <time>2026-07-19T11:32:26Z</time>
      </trkpt>
      <trkpt lat="45.18774" lon="5.95861">
        <ele>1609.6</ele>
        <time>2026-07-19T11:32:27Z</time>
      </trkpt>
      <trkpt lat="45.18775" lon="5.95861">
        <ele>1608.4</ele>
        <time>2026-07-19T11:32:28Z</time>
      </trkpt>
      <trkpt lat="45.18778" lon="5.95862">
        <ele>1607.2</ele>
        <time>2026-07-19T11:32:30Z</time>
      </trkpt>
      <trkpt lat="45.18779" lon="5.95862">
        <ele>1606.6</ele>
        <time>2026-07-19T11:32:31Z</time>
      </trkpt>
      <trkpt lat="45.1878" lon="5.95863">
        <ele>1604.8</ele>
        <time>2026-07-19T11:32:32Z</time>
      </trkpt>
      <trkpt lat="45.18782" lon="5.95864">
        <ele>1604</ele>
        <time>2026-07-19T11:32:33Z</time>
      </trkpt>
      <trkpt lat="45.18783" lon="5.95864">
        <ele>1603.4</ele>
        <time>2026-07-19T11:32:34Z</time>
      </trkpt>
      <trkpt lat="45.18784" lon="5.95864">
        <ele>1602.6</ele>
        <time>2026-07-19T11:32:35Z</time>
      </trkpt>
      <trkpt lat="45.18785" lon="5.95863">
        <ele>1601.6</ele>
        <time>2026-07-19T11:32:36Z</time>
      </trkpt>
      <trkpt lat="45.18786" lon="5.95863">
        <ele>1601</ele>
        <time>2026-07-19T11:32:37Z</time>
      </trkpt>
      <trkpt lat="45.18787" lon="5.95862">
        <ele>1599.8</ele>
        <time>2026-07-19T11:32:38Z</time>
      </trkpt>
      <trkpt lat="45.18788" lon="5.95858">
        <ele>1598.4</ele>
        <time>2026-07-19T11:32:40Z</time>
      </trkpt>
      <trkpt lat="45.18789" lon="5.95857">
        <ele>1597.8</ele>
        <time>2026-07-19T11:32:41Z</time>
      </trkpt>
      <trkpt lat="45.1879" lon="5.95857">
        <ele>1597.8</ele>
        <time>2026-07-19T11:32:42Z</time>
      </trkpt>
      <trkpt lat="45.18791" lon="5.95854">
        <ele>1597.8</ele>
        <time>2026-07-19T11:32:44Z</time>
      </trkpt>
      <trkpt lat="45.18791" lon="5.95848">
        <ele>1597.2</ele>
        <time>2026-07-19T11:32:47Z</time>
      </trkpt>
      <trkpt lat="45.18792" lon="5.95846">
        <ele>1596.8</ele>
        <time>2026-07-19T11:32:49Z</time>
      </trkpt>
      <trkpt lat="45.18793" lon="5.95848">
        <ele>1594.4</ele>
        <time>2026-07-19T11:32:50Z</time>
      </trkpt>
      <trkpt lat="45.18795" lon="5.95849">
        <ele>1594</ele>
        <time>2026-07-19T11:32:52Z</time>
      </trkpt>
      <trkpt lat="45.18796" lon="5.95849">
        <ele>1593</ele>
        <time>2026-07-19T11:32:55Z</time>
      </trkpt>
      <trkpt lat="45.18797" lon="5.95849">
        <ele>1592.8</ele>
        <time>2026-07-19T11:32:56Z</time>
      </trkpt>
      <trkpt lat="45.18799" lon="5.95844">
        <ele>1591.6</ele>
        <time>2026-07-19T11:33:01Z</time>
      </trkpt>
      <trkpt lat="45.188" lon="5.95843">
        <ele>1591.8</ele>
        <time>2026-07-19T11:33:02Z</time>
      </trkpt>
      <trkpt lat="45.18802" lon="5.95843">
        <ele>1591.2</ele>
        <time>2026-07-19T11:33:04Z</time>
      </trkpt>
      <trkpt lat="45.18806" lon="5.95844">
        <ele>1590.8</ele>
        <time>2026-07-19T11:33:09Z</time>
      </trkpt>
      <trkpt lat="45.18809" lon="5.95839">
        <ele>1590.6</ele>
        <time>2026-07-19T11:33:13Z</time>
      </trkpt>
      <trkpt lat="45.18809" lon="5.95837">
        <ele>1590.4</ele>
        <time>2026-07-19T11:33:14Z</time>
      </trkpt>
      <trkpt lat="45.18811" lon="5.95834">
        <ele>1590.4</ele>
        <time>2026-07-19T11:33:16Z</time>
      </trkpt>
      <trkpt lat="45.18811" lon="5.95828">
        <ele>1589</ele>
        <time>2026-07-19T11:33:20Z</time>
      </trkpt>
      <trkpt lat="45.1881" lon="5.95825">
        <ele>1588.4</ele>
        <time>2026-07-19T11:33:22Z</time>
      </trkpt>
      <trkpt lat="45.1881" lon="5.95822">
        <ele>1587.4</ele>
        <time>2026-07-19T11:33:25Z</time>
      </trkpt>
      <trkpt lat="45.1881" lon="5.95819">
        <ele>1586.2</ele>
        <time>2026-07-19T11:33:27Z</time>
      </trkpt>
      <trkpt lat="45.18812" lon="5.95819">
        <ele>1585</ele>
        <time>2026-07-19T11:33:29Z</time>
      </trkpt>
      <trkpt lat="45.18813" lon="5.95819">
        <ele>1584.4</ele>
        <time>2026-07-19T11:33:30Z</time>
      </trkpt>
      <trkpt lat="45.18815" lon="5.95819">
        <ele>1583.8</ele>
        <time>2026-07-19T11:33:31Z</time>
      </trkpt>
      <trkpt lat="45.18817" lon="5.95814">
        <ele>1582.2</ele>
        <time>2026-07-19T11:33:35Z</time>
      </trkpt>
      <trkpt lat="45.18818" lon="5.95811">
        <ele>1581.6</ele>
        <time>2026-07-19T11:33:37Z</time>
      </trkpt>
      <trkpt lat="45.18819" lon="5.95807">
        <ele>1580.6</ele>
        <time>2026-07-19T11:33:39Z</time>
      </trkpt>
      <trkpt lat="45.18819" lon="5.95804">
        <ele>1579.4</ele>
        <time>2026-07-19T11:33:41Z</time>
      </trkpt>
      <trkpt lat="45.18821" lon="5.95796">
        <ele>1577.8</ele>
        <time>2026-07-19T11:33:44Z</time>
      </trkpt>
      <trkpt lat="45.18821" lon="5.95786">
        <ele>1576.4</ele>
        <time>2026-07-19T11:33:47Z</time>
      </trkpt>
      <trkpt lat="45.18821" lon="5.95778">
        <ele>1576</ele>
        <time>2026-07-19T11:33:49Z</time>
      </trkpt>
      <trkpt lat="45.18824" lon="5.95757">
        <ele>1575.6</ele>
        <time>2026-07-19T11:33:55Z</time>
      </trkpt>
      <trkpt lat="45.18825" lon="5.9575">
        <ele>1575.2</ele>
        <time>2026-07-19T11:33:57Z</time>
      </trkpt>
      <trkpt lat="45.18829" lon="5.95741">
        <ele>1575.6</ele>
        <time>2026-07-19T11:34:00Z</time>
      </trkpt>
      <trkpt lat="45.1883" lon="5.95735">
        <ele>1574.2</ele>
        <time>2026-07-19T11:34:03Z</time>
      </trkpt>
      <trkpt lat="45.18831" lon="5.95733">
        <ele>1574</ele>
        <time>2026-07-19T11:34:04Z</time>
      </trkpt>
      <trkpt lat="45.18832" lon="5.95732">
        <ele>1573.6</ele>
        <time>2026-07-19T11:34:05Z</time>
      </trkpt>
      <trkpt lat="45.18834" lon="5.95729">
        <ele>1572.6</ele>
        <time>2026-07-19T11:34:07Z</time>
      </trkpt>
      <trkpt lat="45.1884" lon="5.95726">
        <ele>1571.2</ele>
        <time>2026-07-19T11:34:11Z</time>
      </trkpt>
      <trkpt lat="45.18844" lon="5.95723">
        <ele>1572.2</ele>
        <time>2026-07-19T11:34:13Z</time>
      </trkpt>
      <trkpt lat="45.18849" lon="5.95717">
        <ele>1570.8</ele>
        <time>2026-07-19T11:34:16Z</time>
      </trkpt>
      <trkpt lat="45.1885" lon="5.95715">
        <ele>1570.2</ele>
        <time>2026-07-19T11:34:17Z</time>
      </trkpt>
      <trkpt lat="45.18852" lon="5.95713">
        <ele>1569</ele>
        <time>2026-07-19T11:34:18Z</time>
      </trkpt>
      <trkpt lat="45.18853" lon="5.95712">
        <ele>1567.6</ele>
        <time>2026-07-19T11:34:19Z</time>
      </trkpt>
      <trkpt lat="45.18855" lon="5.95711">
        <ele>1566.6</ele>
        <time>2026-07-19T11:34:20Z</time>
      </trkpt>
      <trkpt lat="45.18857" lon="5.95709">
        <ele>1565.8</ele>
        <time>2026-07-19T11:34:22Z</time>
      </trkpt>
      <trkpt lat="45.18858" lon="5.95707">
        <ele>1565.2</ele>
        <time>2026-07-19T11:34:23Z</time>
      </trkpt>
      <trkpt lat="45.18862" lon="5.95703">
        <ele>1563.6</ele>
        <time>2026-07-19T11:34:26Z</time>
      </trkpt>
      <trkpt lat="45.18864" lon="5.95699">
        <ele>1562.6</ele>
        <time>2026-07-19T11:34:28Z</time>
      </trkpt>
      <trkpt lat="45.18866" lon="5.95697">
        <ele>1562.4</ele>
        <time>2026-07-19T11:34:29Z</time>
      </trkpt>
      <trkpt lat="45.18869" lon="5.95693">
        <ele>1560.8</ele>
        <time>2026-07-19T11:34:31Z</time>
      </trkpt>
      <trkpt lat="45.18876" lon="5.95687">
        <ele>1559.6</ele>
        <time>2026-07-19T11:34:34Z</time>
      </trkpt>
      <trkpt lat="45.18884" lon="5.95681">
        <ele>1558.2</ele>
        <time>2026-07-19T11:34:37Z</time>
      </trkpt>
      <trkpt lat="45.18887" lon="5.95677">
        <ele>1556.6</ele>
        <time>2026-07-19T11:34:39Z</time>
      </trkpt>
      <trkpt lat="45.18887" lon="5.95676">
        <ele>1556</ele>
        <time>2026-07-19T11:34:40Z</time>
      </trkpt>
      <trkpt lat="45.18887" lon="5.95674">
        <ele>1555.2</ele>
        <time>2026-07-19T11:34:41Z</time>
      </trkpt>
      <trkpt lat="45.18887" lon="5.95671">
        <ele>1553.2</ele>
        <time>2026-07-19T11:34:44Z</time>
      </trkpt>
      <trkpt lat="45.18889" lon="5.9567">
        <ele>1552.8</ele>
        <time>2026-07-19T11:34:46Z</time>
      </trkpt>
      <trkpt lat="45.1889" lon="5.95668">
        <ele>1551.2</ele>
        <time>2026-07-19T11:34:48Z</time>
      </trkpt>
      <trkpt lat="45.18892" lon="5.95667">
        <ele>1549.8</ele>
        <time>2026-07-19T11:34:51Z</time>
      </trkpt>
      <trkpt lat="45.18895" lon="5.95667">
        <ele>1548.2</ele>
        <time>2026-07-19T11:34:53Z</time>
      </trkpt>
      <trkpt lat="45.18896" lon="5.95664">
        <ele>1546</ele>
        <time>2026-07-19T11:34:55Z</time>
      </trkpt>
      <trkpt lat="45.18899" lon="5.95662">
        <ele>1545</ele>
        <time>2026-07-19T11:34:57Z</time>
      </trkpt>
      <trkpt lat="45.18902" lon="5.9566">
        <ele>1544</ele>
        <time>2026-07-19T11:34:59Z</time>
      </trkpt>
      <trkpt lat="45.18903" lon="5.95659">
        <ele>1543.2</ele>
        <time>2026-07-19T11:35:00Z</time>
      </trkpt>
      <trkpt lat="45.18906" lon="5.95657">
        <ele>1541.4</ele>
        <time>2026-07-19T11:35:02Z</time>
      </trkpt>
      <trkpt lat="45.18908" lon="5.95656">
        <ele>1539.6</ele>
        <time>2026-07-19T11:35:04Z</time>
      </trkpt>
      <trkpt lat="45.18909" lon="5.95654">
        <ele>1537.6</ele>
        <time>2026-07-19T11:35:06Z</time>
      </trkpt>
      <trkpt lat="45.18912" lon="5.95653">
        <ele>1535</ele>
        <time>2026-07-19T11:35:08Z</time>
      </trkpt>
      <trkpt lat="45.18912" lon="5.95652">
        <ele>1533.8</ele>
        <time>2026-07-19T11:35:09Z</time>
      </trkpt>
      <trkpt lat="45.18916" lon="5.95649">
        <ele>1533.4</ele>
        <time>2026-07-19T11:35:12Z</time>
      </trkpt>
      <trkpt lat="45.18924" lon="5.95641">
        <ele>1532.4</ele>
        <time>2026-07-19T11:35:17Z</time>
      </trkpt>
      <trkpt lat="45.18926" lon="5.95639">
        <ele>1533.2</ele>
        <time>2026-07-19T11:35:18Z</time>
      </trkpt>
      <trkpt lat="45.18937" lon="5.95629">
        <ele>1531</ele>
        <time>2026-07-19T11:35:25Z</time>
      </trkpt>
      <trkpt lat="45.18938" lon="5.95628">
        <ele>1530.4</ele>
        <time>2026-07-19T11:35:26Z</time>
      </trkpt>
      <trkpt lat="45.18939" lon="5.95626">
        <ele>1529.4</ele>
        <time>2026-07-19T11:35:27Z</time>
      </trkpt>
      <trkpt lat="45.18942" lon="5.95624">
        <ele>1531</ele>
        <time>2026-07-19T11:35:29Z</time>
      </trkpt>
      <trkpt lat="45.18944" lon="5.95622">
        <ele>1529.6</ele>
        <time>2026-07-19T11:35:31Z</time>
      </trkpt>
      <trkpt lat="45.18946" lon="5.95622">
        <ele>1529.8</ele>
        <time>2026-07-19T11:35:32Z</time>
      </trkpt>
      <trkpt lat="45.18956" lon="5.95619">
        <ele>1530.2</ele>
        <time>2026-07-19T11:35:38Z</time>
      </trkpt>
      <trkpt lat="45.18962" lon="5.95616">
        <ele>1527.8</ele>
        <time>2026-07-19T11:35:42Z</time>
      </trkpt>
      <trkpt lat="45.18963" lon="5.95615">
        <ele>1526.2</ele>
        <time>2026-07-19T11:35:43Z</time>
      </trkpt>
      <trkpt lat="45.18964" lon="5.95614">
        <ele>1525.6</ele>
        <time>2026-07-19T11:35:44Z</time>
      </trkpt>
      <trkpt lat="45.18965" lon="5.95614">
        <ele>1524.8</ele>
        <time>2026-07-19T11:35:45Z</time>
      </trkpt>
      <trkpt lat="45.18967" lon="5.95614">
        <ele>1523.6</ele>
        <time>2026-07-19T11:35:46Z</time>
      </trkpt>
      <trkpt lat="45.18969" lon="5.95614">
        <ele>1522.2</ele>
        <time>2026-07-19T11:35:47Z</time>
      </trkpt>
      <trkpt lat="45.18973" lon="5.95615">
        <ele>1520.6</ele>
        <time>2026-07-19T11:35:49Z</time>
      </trkpt>
      <trkpt lat="45.18975" lon="5.95616">
        <ele>1519.4</ele>
        <time>2026-07-19T11:35:50Z</time>
      </trkpt>
      <trkpt lat="45.18976" lon="5.95615">
        <ele>1518.2</ele>
        <time>2026-07-19T11:35:51Z</time>
      </trkpt>
      <trkpt lat="45.18979" lon="5.95613">
        <ele>1517</ele>
        <time>2026-07-19T11:35:53Z</time>
      </trkpt>
      <trkpt lat="45.18985" lon="5.95608">
        <ele>1516.2</ele>
        <time>2026-07-19T11:35:57Z</time>
      </trkpt>
      <trkpt lat="45.18985" lon="5.95608">
        <ele>1515.6</ele>
        <time>2026-07-19T11:35:58Z</time>
      </trkpt>
      <trkpt lat="45.18986" lon="5.95607">
        <ele>1515</ele>
        <time>2026-07-19T11:36:00Z</time>
      </trkpt>
      <trkpt lat="45.18985" lon="5.95605">
        <ele>1514.4</ele>
        <time>2026-07-19T11:36:03Z</time>
      </trkpt>
      <trkpt lat="45.18982" lon="5.95605">
        <ele>1516.2</ele>
        <time>2026-07-19T11:36:09Z</time>
      </trkpt>
      <trkpt lat="45.18982" lon="5.95604">
        <ele>1516.2</ele>
        <time>2026-07-19T11:36:10Z</time>
      </trkpt>
      <trkpt lat="45.18981" lon="5.95603">
        <ele>1518</ele>
        <time>2026-07-19T11:36:17Z</time>
      </trkpt>
      <trkpt lat="45.18982" lon="5.95603">
        <ele>1518.2</ele>
        <time>2026-07-19T11:36:18Z</time>
      </trkpt>
      <trkpt lat="45.18984" lon="5.95601">
        <ele>1518.6</ele>
        <time>2026-07-19T11:36:25Z</time>
      </trkpt>
      <trkpt lat="45.18988" lon="5.95595">
        <ele>1517.8</ele>
        <time>2026-07-19T11:36:29Z</time>
      </trkpt>
      <trkpt lat="45.18991" lon="5.95594">
        <ele>1516.8</ele>
        <time>2026-07-19T11:36:31Z</time>
      </trkpt>
      <trkpt lat="45.18992" lon="5.95594">
        <ele>1515.4</ele>
        <time>2026-07-19T11:36:32Z</time>
      </trkpt>
      <trkpt lat="45.18994" lon="5.95593">
        <ele>1514.2</ele>
        <time>2026-07-19T11:36:33Z</time>
      </trkpt>
      <trkpt lat="45.18996" lon="5.95592">
        <ele>1512.8</ele>
        <time>2026-07-19T11:36:34Z</time>
      </trkpt>
      <trkpt lat="45.18996" lon="5.95591">
        <ele>1511.6</ele>
        <time>2026-07-19T11:36:35Z</time>
      </trkpt>
      <trkpt lat="45.18997" lon="5.95589">
        <ele>1511.8</ele>
        <time>2026-07-19T11:36:36Z</time>
      </trkpt>
      <trkpt lat="45.18998" lon="5.95586">
        <ele>1511</ele>
        <time>2026-07-19T11:36:37Z</time>
      </trkpt>
      <trkpt lat="45.19" lon="5.95584">
        <ele>1510</ele>
        <time>2026-07-19T11:36:38Z</time>
      </trkpt>
      <trkpt lat="45.19008" lon="5.95575">
        <ele>1509</ele>
        <time>2026-07-19T11:36:43Z</time>
      </trkpt>
      <trkpt lat="45.1901" lon="5.95573">
        <ele>1508.8</ele>
        <time>2026-07-19T11:36:44Z</time>
      </trkpt>
      <trkpt lat="45.19014" lon="5.9557">
        <ele>1507.2</ele>
        <time>2026-07-19T11:36:46Z</time>
      </trkpt>
      <trkpt lat="45.19016" lon="5.95567">
        <ele>1506</ele>
        <time>2026-07-19T11:36:48Z</time>
      </trkpt>
      <trkpt lat="45.19018" lon="5.95565">
        <ele>1504.4</ele>
        <time>2026-07-19T11:36:49Z</time>
      </trkpt>
      <trkpt lat="45.19023" lon="5.95557">
        <ele>1502.6</ele>
        <time>2026-07-19T11:36:52Z</time>
      </trkpt>
      <trkpt lat="45.19025" lon="5.95556">
        <ele>1501.4</ele>
        <time>2026-07-19T11:36:53Z</time>
      </trkpt>
      <trkpt lat="45.19027" lon="5.95555">
        <ele>1500</ele>
        <time>2026-07-19T11:36:54Z</time>
      </trkpt>
      <trkpt lat="45.19029" lon="5.95555">
        <ele>1498.4</ele>
        <time>2026-07-19T11:36:55Z</time>
      </trkpt>
      <trkpt lat="45.19034" lon="5.95555">
        <ele>1496.8</ele>
        <time>2026-07-19T11:36:57Z</time>
      </trkpt>
      <trkpt lat="45.19038" lon="5.95553">
        <ele>1495.6</ele>
        <time>2026-07-19T11:37:00Z</time>
      </trkpt>
      <trkpt lat="45.19041" lon="5.95548">
        <ele>1497.6</ele>
        <time>2026-07-19T11:37:03Z</time>
      </trkpt>
      <trkpt lat="45.19041" lon="5.95546">
        <ele>1499.2</ele>
        <time>2026-07-19T11:37:04Z</time>
      </trkpt>
      <trkpt lat="45.19041" lon="5.95541">
        <ele>1500.6</ele>
        <time>2026-07-19T11:37:06Z</time>
      </trkpt>
      <trkpt lat="45.1904" lon="5.95537">
        <ele>1499.4</ele>
        <time>2026-07-19T11:37:09Z</time>
      </trkpt>
      <trkpt lat="45.19041" lon="5.95534">
        <ele>1500</ele>
        <time>2026-07-19T11:37:12Z</time>
      </trkpt>
      <trkpt lat="45.19041" lon="5.95533">
        <ele>1500.4</ele>
        <time>2026-07-19T11:37:13Z</time>
      </trkpt>
      <trkpt lat="45.19044" lon="5.95533">
        <ele>1500.4</ele>
        <time>2026-07-19T11:37:16Z</time>
      </trkpt>
      <trkpt lat="45.19047" lon="5.95533">
        <ele>1499.2</ele>
        <time>2026-07-19T11:37:19Z</time>
      </trkpt>
      <trkpt lat="45.19048" lon="5.95533">
        <ele>1498.4</ele>
        <time>2026-07-19T11:37:20Z</time>
      </trkpt>
      <trkpt lat="45.19049" lon="5.95534">
        <ele>1497.6</ele>
        <time>2026-07-19T11:37:21Z</time>
      </trkpt>
      <trkpt lat="45.1905" lon="5.95532">
        <ele>1496</ele>
        <time>2026-07-19T11:37:23Z</time>
      </trkpt>
      <trkpt lat="45.1905" lon="5.95526">
        <ele>1495.6</ele>
        <time>2026-07-19T11:37:25Z</time>
      </trkpt>
      <trkpt lat="45.19051" lon="5.9552">
        <ele>1496.6</ele>
        <time>2026-07-19T11:37:28Z</time>
      </trkpt>
      <trkpt lat="45.19054" lon="5.95518">
        <ele>1494.6</ele>
        <time>2026-07-19T11:37:30Z</time>
      </trkpt>
      <trkpt lat="45.19062" lon="5.9551">
        <ele>1494</ele>
        <time>2026-07-19T11:37:36Z</time>
      </trkpt>
      <trkpt lat="45.19064" lon="5.95507">
        <ele>1493.4</ele>
        <time>2026-07-19T11:37:38Z</time>
      </trkpt>
      <trkpt lat="45.19069" lon="5.95501">
        <ele>1491.4</ele>
        <time>2026-07-19T11:37:42Z</time>
      </trkpt>
      <trkpt lat="45.19071" lon="5.95501">
        <ele>1490.8</ele>
        <time>2026-07-19T11:37:43Z</time>
      </trkpt>
      <trkpt lat="45.19073" lon="5.95498">
        <ele>1490</ele>
        <time>2026-07-19T11:37:45Z</time>
      </trkpt>
      <trkpt lat="45.19077" lon="5.95494">
        <ele>1487.6</ele>
        <time>2026-07-19T11:37:48Z</time>
      </trkpt>
      <trkpt lat="45.19083" lon="5.95491">
        <ele>1487.8</ele>
        <time>2026-07-19T11:37:51Z</time>
      </trkpt>
      <trkpt lat="45.19088" lon="5.95487">
        <ele>1486.2</ele>
        <time>2026-07-19T11:37:55Z</time>
      </trkpt>
      <trkpt lat="45.1909" lon="5.95483">
        <ele>1484.2</ele>
        <time>2026-07-19T11:37:58Z</time>
      </trkpt>
      <trkpt lat="45.19094" lon="5.95476">
        <ele>1482.8</ele>
        <time>2026-07-19T11:38:02Z</time>
      </trkpt>
      <trkpt lat="45.19099" lon="5.95468">
        <ele>1482.2</ele>
        <time>2026-07-19T11:38:06Z</time>
      </trkpt>
      <trkpt lat="45.191" lon="5.95466">
        <ele>1481.6</ele>
        <time>2026-07-19T11:38:07Z</time>
      </trkpt>
      <trkpt lat="45.19102" lon="5.95465">
        <ele>1479.8</ele>
        <time>2026-07-19T11:38:09Z</time>
      </trkpt>
      <trkpt lat="45.19106" lon="5.95464">
        <ele>1478.2</ele>
        <time>2026-07-19T11:38:11Z</time>
      </trkpt>
      <trkpt lat="45.1911" lon="5.95463">
        <ele>1477.6</ele>
        <time>2026-07-19T11:38:13Z</time>
      </trkpt>
      <trkpt lat="45.19119" lon="5.95461">
        <ele>1475</ele>
        <time>2026-07-19T11:38:18Z</time>
      </trkpt>
      <trkpt lat="45.19122" lon="5.95461">
        <ele>1473.6</ele>
        <time>2026-07-19T11:38:19Z</time>
      </trkpt>
      <trkpt lat="45.19123" lon="5.95459">
        <ele>1473.2</ele>
        <time>2026-07-19T11:38:20Z</time>
      </trkpt>
      <trkpt lat="45.19126" lon="5.95456">
        <ele>1473.2</ele>
        <time>2026-07-19T11:38:22Z</time>
      </trkpt>
      <trkpt lat="45.19131" lon="5.95454">
        <ele>1472.4</ele>
        <time>2026-07-19T11:38:25Z</time>
      </trkpt>
      <trkpt lat="45.19136" lon="5.95451">
        <ele>1474.4</ele>
        <time>2026-07-19T11:38:27Z</time>
      </trkpt>
      <trkpt lat="45.19142" lon="5.95444">
        <ele>1473</ele>
        <time>2026-07-19T11:38:32Z</time>
      </trkpt>
      <trkpt lat="45.19144" lon="5.95444">
        <ele>1471</ele>
        <time>2026-07-19T11:38:34Z</time>
      </trkpt>
      <trkpt lat="45.19146" lon="5.95443">
        <ele>1469.6</ele>
        <time>2026-07-19T11:38:35Z</time>
      </trkpt>
      <trkpt lat="45.19149" lon="5.9544">
        <ele>1467.6</ele>
        <time>2026-07-19T11:38:37Z</time>
      </trkpt>
      <trkpt lat="45.19153" lon="5.95435">
        <ele>1466.6</ele>
        <time>2026-07-19T11:38:39Z</time>
      </trkpt>
      <trkpt lat="45.19154" lon="5.95432">
        <ele>1466</ele>
        <time>2026-07-19T11:38:40Z</time>
      </trkpt>
      <trkpt lat="45.19157" lon="5.95428">
        <ele>1464.2</ele>
        <time>2026-07-19T11:38:42Z</time>
      </trkpt>
      <trkpt lat="45.1916" lon="5.95426">
        <ele>1462</ele>
        <time>2026-07-19T11:38:44Z</time>
      </trkpt>
      <trkpt lat="45.19163" lon="5.95424">
        <ele>1460</ele>
        <time>2026-07-19T11:38:45Z</time>
      </trkpt>
      <trkpt lat="45.19166" lon="5.95422">
        <ele>1458.2</ele>
        <time>2026-07-19T11:38:47Z</time>
      </trkpt>
      <trkpt lat="45.19168" lon="5.95419">
        <ele>1456.4</ele>
        <time>2026-07-19T11:38:49Z</time>
      </trkpt>
      <trkpt lat="45.1917" lon="5.95419">
        <ele>1453.8</ele>
        <time>2026-07-19T11:38:50Z</time>
      </trkpt>
      <trkpt lat="45.1917" lon="5.95416">
        <ele>1452.8</ele>
        <time>2026-07-19T11:38:51Z</time>
      </trkpt>
      <trkpt lat="45.19171" lon="5.95415">
        <ele>1451.8</ele>
        <time>2026-07-19T11:38:52Z</time>
      </trkpt>
      <trkpt lat="45.19174" lon="5.95412">
        <ele>1450.2</ele>
        <time>2026-07-19T11:38:55Z</time>
      </trkpt>
      <trkpt lat="45.19175" lon="5.95411">
        <ele>1450.2</ele>
        <time>2026-07-19T11:38:56Z</time>
      </trkpt>
      <trkpt lat="45.19175" lon="5.9541">
        <ele>1450.4</ele>
        <time>2026-07-19T11:38:57Z</time>
      </trkpt>
      <trkpt lat="45.19177" lon="5.9541">
        <ele>1448.6</ele>
        <time>2026-07-19T11:38:59Z</time>
      </trkpt>
      <trkpt lat="45.1918" lon="5.95412">
        <ele>1446.8</ele>
        <time>2026-07-19T11:39:02Z</time>
      </trkpt>
      <trkpt lat="45.19183" lon="5.95414">
        <ele>1446.8</ele>
        <time>2026-07-19T11:39:04Z</time>
      </trkpt>
      <trkpt lat="45.19184" lon="5.95415">
        <ele>1446.8</ele>
        <time>2026-07-19T11:39:05Z</time>
      </trkpt>
      <trkpt lat="45.19186" lon="5.95416">
        <ele>1448.2</ele>
        <time>2026-07-19T11:39:06Z</time>
      </trkpt>
      <trkpt lat="45.19188" lon="5.95416">
        <ele>1449.8</ele>
        <time>2026-07-19T11:39:07Z</time>
      </trkpt>
      <trkpt lat="45.19194" lon="5.95417">
        <ele>1451.4</ele>
        <time>2026-07-19T11:39:10Z</time>
      </trkpt>
      <trkpt lat="45.19197" lon="5.95416">
        <ele>1454.4</ele>
        <time>2026-07-19T11:39:11Z</time>
      </trkpt>
      <trkpt lat="45.192" lon="5.95415">
        <ele>1455</ele>
        <time>2026-07-19T11:39:14Z</time>
      </trkpt>
      <trkpt lat="45.19204" lon="5.95415">
        <ele>1455.2</ele>
        <time>2026-07-19T11:39:16Z</time>
      </trkpt>
      <trkpt lat="45.19207" lon="5.95414">
        <ele>1455.6</ele>
        <time>2026-07-19T11:39:17Z</time>
      </trkpt>
      <trkpt lat="45.19216" lon="5.95406">
        <ele>1455.4</ele>
        <time>2026-07-19T11:39:23Z</time>
      </trkpt>
      <trkpt lat="45.19218" lon="5.95405">
        <ele>1454.8</ele>
        <time>2026-07-19T11:39:25Z</time>
      </trkpt>
      <trkpt lat="45.19219" lon="5.95405">
        <ele>1454</ele>
        <time>2026-07-19T11:39:26Z</time>
      </trkpt>
      <trkpt lat="45.19222" lon="5.95408">
        <ele>1452.6</ele>
        <time>2026-07-19T11:39:28Z</time>
      </trkpt>
      <trkpt lat="45.19224" lon="5.95409">
        <ele>1452</ele>
        <time>2026-07-19T11:39:29Z</time>
      </trkpt>
      <trkpt lat="45.19225" lon="5.95411">
        <ele>1451.2</ele>
        <time>2026-07-19T11:39:30Z</time>
      </trkpt>
      <trkpt lat="45.19226" lon="5.9541">
        <ele>1450.2</ele>
        <time>2026-07-19T11:39:33Z</time>
      </trkpt>
      <trkpt lat="45.19227" lon="5.95409">
        <ele>1449.4</ele>
        <time>2026-07-19T11:39:34Z</time>
      </trkpt>
      <trkpt lat="45.19227" lon="5.95409">
        <ele>1448.2</ele>
        <time>2026-07-19T11:39:35Z</time>
      </trkpt>
      <trkpt lat="45.19229" lon="5.95409">
        <ele>1447</ele>
        <time>2026-07-19T11:39:36Z</time>
      </trkpt>
      <trkpt lat="45.19232" lon="5.95408">
        <ele>1445.2</ele>
        <time>2026-07-19T11:39:38Z</time>
      </trkpt>
      <trkpt lat="45.19233" lon="5.95406">
        <ele>1445</ele>
        <time>2026-07-19T11:39:39Z</time>
      </trkpt>
      <trkpt lat="45.19235" lon="5.95405">
        <ele>1444.6</ele>
        <time>2026-07-19T11:39:40Z</time>
      </trkpt>
      <trkpt lat="45.19236" lon="5.95404">
        <ele>1444.2</ele>
        <time>2026-07-19T11:39:41Z</time>
      </trkpt>
      <trkpt lat="45.19239" lon="5.954">
        <ele>1442.6</ele>
        <time>2026-07-19T11:39:43Z</time>
      </trkpt>
      <trkpt lat="45.19244" lon="5.95398">
        <ele>1438.6</ele>
        <time>2026-07-19T11:39:45Z</time>
      </trkpt>
      <trkpt lat="45.19246" lon="5.95398">
        <ele>1436.8</ele>
        <time>2026-07-19T11:39:46Z</time>
      </trkpt>
      <trkpt lat="45.19247" lon="5.954">
        <ele>1435.4</ele>
        <time>2026-07-19T11:39:47Z</time>
      </trkpt>
      <trkpt lat="45.1925" lon="5.95403">
        <ele>1434.2</ele>
        <time>2026-07-19T11:39:49Z</time>
      </trkpt>
      <trkpt lat="45.19255" lon="5.95404">
        <ele>1435.6</ele>
        <time>2026-07-19T11:39:52Z</time>
      </trkpt>
      <trkpt lat="45.19257" lon="5.95402">
        <ele>1435.8</ele>
        <time>2026-07-19T11:39:53Z</time>
      </trkpt>
      <trkpt lat="45.19261" lon="5.95404">
        <ele>1437.8</ele>
        <time>2026-07-19T11:39:57Z</time>
      </trkpt>
      <trkpt lat="45.19262" lon="5.95406">
        <ele>1438.6</ele>
        <time>2026-07-19T11:39:58Z</time>
      </trkpt>
      <trkpt lat="45.19263" lon="5.95408">
        <ele>1439.4</ele>
        <time>2026-07-19T11:39:59Z</time>
      </trkpt>
      <trkpt lat="45.19267" lon="5.95412">
        <ele>1438.6</ele>
        <time>2026-07-19T11:40:02Z</time>
      </trkpt>
      <trkpt lat="45.1927" lon="5.95413">
        <ele>1439.8</ele>
        <time>2026-07-19T11:40:05Z</time>
      </trkpt>
      <trkpt lat="45.19271" lon="5.95414">
        <ele>1441.6</ele>
        <time>2026-07-19T11:40:06Z</time>
      </trkpt>
      <trkpt lat="45.19272" lon="5.95417">
        <ele>1444.8</ele>
        <time>2026-07-19T11:40:07Z</time>
      </trkpt>
      <trkpt lat="45.19274" lon="5.95419">
        <ele>1446.8</ele>
        <time>2026-07-19T11:40:08Z</time>
      </trkpt>
      <trkpt lat="45.19278" lon="5.95421">
        <ele>1449.6</ele>
        <time>2026-07-19T11:40:10Z</time>
      </trkpt>
      <trkpt lat="45.19278" lon="5.95424">
        <ele>1452.6</ele>
        <time>2026-07-19T11:40:11Z</time>
      </trkpt>
      <trkpt lat="45.19281" lon="5.95431">
        <ele>1453.8</ele>
        <time>2026-07-19T11:40:15Z</time>
      </trkpt>
      <trkpt lat="45.19282" lon="5.95432">
        <ele>1455</ele>
        <time>2026-07-19T11:40:16Z</time>
      </trkpt>
      <trkpt lat="45.19287" lon="5.95435">
        <ele>1453.6</ele>
        <time>2026-07-19T11:40:19Z</time>
      </trkpt>
      <trkpt lat="45.1929" lon="5.95437">
        <ele>1452</ele>
        <time>2026-07-19T11:40:22Z</time>
      </trkpt>
      <trkpt lat="45.19295" lon="5.95434">
        <ele>1451.2</ele>
        <time>2026-07-19T11:40:24Z</time>
      </trkpt>
      <trkpt lat="45.19299" lon="5.95436">
        <ele>1453.4</ele>
        <time>2026-07-19T11:40:28Z</time>
      </trkpt>
      <trkpt lat="45.19301" lon="5.95434">
        <ele>1454.4</ele>
        <time>2026-07-19T11:40:29Z</time>
      </trkpt>
      <trkpt lat="45.19303" lon="5.95432">
        <ele>1454.6</ele>
        <time>2026-07-19T11:40:30Z</time>
      </trkpt>
      <trkpt lat="45.19308" lon="5.95435">
        <ele>1453</ele>
        <time>2026-07-19T11:40:34Z</time>
      </trkpt>
      <trkpt lat="45.19309" lon="5.95436">
        <ele>1452.6</ele>
        <time>2026-07-19T11:40:35Z</time>
      </trkpt>
      <trkpt lat="45.19311" lon="5.95437">
        <ele>1451.6</ele>
        <time>2026-07-19T11:40:37Z</time>
      </trkpt>
      <trkpt lat="45.19315" lon="5.9544">
        <ele>1450.8</ele>
        <time>2026-07-19T11:40:40Z</time>
      </trkpt>
      <trkpt lat="45.19317" lon="5.95443">
        <ele>1450.2</ele>
        <time>2026-07-19T11:40:42Z</time>
      </trkpt>
      <trkpt lat="45.1932" lon="5.95445">
        <ele>1449</ele>
        <time>2026-07-19T11:40:45Z</time>
      </trkpt>
      <trkpt lat="45.19323" lon="5.95443">
        <ele>1448</ele>
        <time>2026-07-19T11:40:47Z</time>
      </trkpt>
      <trkpt lat="45.19324" lon="5.95443">
        <ele>1447.8</ele>
        <time>2026-07-19T11:40:48Z</time>
      </trkpt>
      <trkpt lat="45.19327" lon="5.95443">
        <ele>1446.6</ele>
        <time>2026-07-19T11:40:50Z</time>
      </trkpt>
      <trkpt lat="45.19328" lon="5.95443">
        <ele>1445.4</ele>
        <time>2026-07-19T11:40:51Z</time>
      </trkpt>
      <trkpt lat="45.19333" lon="5.95439">
        <ele>1443.4</ele>
        <time>2026-07-19T11:40:53Z</time>
      </trkpt>
      <trkpt lat="45.19336" lon="5.95436">
        <ele>1442.4</ele>
        <time>2026-07-19T11:40:55Z</time>
      </trkpt>
      <trkpt lat="45.19338" lon="5.95434">
        <ele>1441</ele>
        <time>2026-07-19T11:41:00Z</time>
      </trkpt>
      <trkpt lat="45.1934" lon="5.95434">
        <ele>1441.8</ele>
        <time>2026-07-19T11:41:03Z</time>
      </trkpt>
      <trkpt lat="45.19346" lon="5.95438">
        <ele>1439.4</ele>
        <time>2026-07-19T11:41:09Z</time>
      </trkpt>
      <trkpt lat="45.19348" lon="5.95439">
        <ele>1438.2</ele>
        <time>2026-07-19T11:41:10Z</time>
      </trkpt>
      <trkpt lat="45.19351" lon="5.95438">
        <ele>1435</ele>
        <time>2026-07-19T11:41:12Z</time>
      </trkpt>
      <trkpt lat="45.19353" lon="5.95438">
        <ele>1434</ele>
        <time>2026-07-19T11:41:13Z</time>
      </trkpt>
      <trkpt lat="45.19356" lon="5.95437">
        <ele>1433.8</ele>
        <time>2026-07-19T11:41:14Z</time>
      </trkpt>
      <trkpt lat="45.19359" lon="5.95437">
        <ele>1433.2</ele>
        <time>2026-07-19T11:41:16Z</time>
      </trkpt>
      <trkpt lat="45.1936" lon="5.95438">
        <ele>1432.6</ele>
        <time>2026-07-19T11:41:17Z</time>
      </trkpt>
      <trkpt lat="45.19362" lon="5.95438">
        <ele>1431.4</ele>
        <time>2026-07-19T11:41:18Z</time>
      </trkpt>
      <trkpt lat="45.19364" lon="5.95437">
        <ele>1430.4</ele>
        <time>2026-07-19T11:41:19Z</time>
      </trkpt>
      <trkpt lat="45.19368" lon="5.95436">
        <ele>1429</ele>
        <time>2026-07-19T11:41:21Z</time>
      </trkpt>
      <trkpt lat="45.1937" lon="5.95438">
        <ele>1429.4</ele>
        <time>2026-07-19T11:41:23Z</time>
      </trkpt>
      <trkpt lat="45.1937" lon="5.95439">
        <ele>1429.4</ele>
        <time>2026-07-19T11:41:24Z</time>
      </trkpt>
      <trkpt lat="45.19373" lon="5.95441">
        <ele>1427.4</ele>
        <time>2026-07-19T11:41:27Z</time>
      </trkpt>
      <trkpt lat="45.19374" lon="5.95442">
        <ele>1425.8</ele>
        <time>2026-07-19T11:41:28Z</time>
      </trkpt>
      <trkpt lat="45.19376" lon="5.95444">
        <ele>1423.2</ele>
        <time>2026-07-19T11:41:30Z</time>
      </trkpt>
      <trkpt lat="45.19377" lon="5.95446">
        <ele>1421.8</ele>
        <time>2026-07-19T11:41:31Z</time>
      </trkpt>
      <trkpt lat="45.19378" lon="5.95448">
        <ele>1420.8</ele>
        <time>2026-07-19T11:41:32Z</time>
      </trkpt>
      <trkpt lat="45.19381" lon="5.95451">
        <ele>1420.4</ele>
        <time>2026-07-19T11:41:34Z</time>
      </trkpt>
      <trkpt lat="45.19383" lon="5.95452">
        <ele>1419.6</ele>
        <time>2026-07-19T11:41:35Z</time>
      </trkpt>
      <trkpt lat="45.19385" lon="5.95453">
        <ele>1419.8</ele>
        <time>2026-07-19T11:41:36Z</time>
      </trkpt>
      <trkpt lat="45.19392" lon="5.95459">
        <ele>1418.6</ele>
        <time>2026-07-19T11:41:42Z</time>
      </trkpt>
      <trkpt lat="45.19394" lon="5.95461">
        <ele>1417.2</ele>
        <time>2026-07-19T11:41:43Z</time>
      </trkpt>
      <trkpt lat="45.19398" lon="5.95471">
        <ele>1419.2</ele>
        <time>2026-07-19T11:41:47Z</time>
      </trkpt>
      <trkpt lat="45.194" lon="5.95476">
        <ele>1420.8</ele>
        <time>2026-07-19T11:41:49Z</time>
      </trkpt>
      <trkpt lat="45.19402" lon="5.95479">
        <ele>1420.6</ele>
        <time>2026-07-19T11:41:51Z</time>
      </trkpt>
      <trkpt lat="45.19411" lon="5.9549">
        <ele>1420.4</ele>
        <time>2026-07-19T11:41:59Z</time>
      </trkpt>
      <trkpt lat="45.19411" lon="5.95492">
        <ele>1421.8</ele>
        <time>2026-07-19T11:42:00Z</time>
      </trkpt>
      <trkpt lat="45.19412" lon="5.95495">
        <ele>1423</ele>
        <time>2026-07-19T11:42:01Z</time>
      </trkpt>
      <trkpt lat="45.19419" lon="5.95497">
        <ele>1421.2</ele>
        <time>2026-07-19T11:42:04Z</time>
      </trkpt>
      <trkpt lat="45.19421" lon="5.95497">
        <ele>1421</ele>
        <time>2026-07-19T11:42:05Z</time>
      </trkpt>
      <trkpt lat="45.19425" lon="5.95495">
        <ele>1419.8</ele>
        <time>2026-07-19T11:42:07Z</time>
      </trkpt>
      <trkpt lat="45.1943" lon="5.95492">
        <ele>1417.6</ele>
        <time>2026-07-19T11:42:10Z</time>
      </trkpt>
      <trkpt lat="45.19432" lon="5.95491">
        <ele>1416.4</ele>
        <time>2026-07-19T11:42:11Z</time>
      </trkpt>
      <trkpt lat="45.19438" lon="5.9549">
        <ele>1415.2</ele>
        <time>2026-07-19T11:42:16Z</time>
      </trkpt>
      <trkpt lat="45.1944" lon="5.95491">
        <ele>1415</ele>
        <time>2026-07-19T11:42:18Z</time>
      </trkpt>
      <trkpt lat="45.19443" lon="5.9549">
        <ele>1413.8</ele>
        <time>2026-07-19T11:42:19Z</time>
      </trkpt>
      <trkpt lat="45.19448" lon="5.95486">
        <ele>1413.4</ele>
        <time>2026-07-19T11:42:22Z</time>
      </trkpt>
      <trkpt lat="45.19453" lon="5.95478">
        <ele>1415.6</ele>
        <time>2026-07-19T11:42:26Z</time>
      </trkpt>
      <trkpt lat="45.19453" lon="5.95474">
        <ele>1416.6</ele>
        <time>2026-07-19T11:42:27Z</time>
      </trkpt>
      <trkpt lat="45.19455" lon="5.95469">
        <ele>1416.4</ele>
        <time>2026-07-19T11:42:29Z</time>
      </trkpt>
      <trkpt lat="45.19456" lon="5.95467">
        <ele>1415.8</ele>
        <time>2026-07-19T11:42:30Z</time>
      </trkpt>
      <trkpt lat="45.19458" lon="5.95461">
        <ele>1416.8</ele>
        <time>2026-07-19T11:42:32Z</time>
      </trkpt>
      <trkpt lat="45.19458" lon="5.95459">
        <ele>1417.8</ele>
        <time>2026-07-19T11:42:33Z</time>
      </trkpt>
      <trkpt lat="45.19458" lon="5.95457">
        <ele>1419</ele>
        <time>2026-07-19T11:42:34Z</time>
      </trkpt>
      <trkpt lat="45.19459" lon="5.95455">
        <ele>1421.8</ele>
        <time>2026-07-19T11:42:35Z</time>
      </trkpt>
      <trkpt lat="45.1946" lon="5.95454">
        <ele>1425</ele>
        <time>2026-07-19T11:42:36Z</time>
      </trkpt>
      <trkpt lat="45.1946" lon="5.95453">
        <ele>1427.6</ele>
        <time>2026-07-19T11:42:37Z</time>
      </trkpt>
      <trkpt lat="45.19461" lon="5.95453">
        <ele>1429.4</ele>
        <time>2026-07-19T11:42:38Z</time>
      </trkpt>
      <trkpt lat="45.19463" lon="5.95451">
        <ele>1431</ele>
        <time>2026-07-19T11:42:40Z</time>
      </trkpt>
      <trkpt lat="45.19464" lon="5.95449">
        <ele>1432</ele>
        <time>2026-07-19T11:42:42Z</time>
      </trkpt>
      <trkpt lat="45.19464" lon="5.95449">
        <ele>1432.2</ele>
        <time>2026-07-19T11:42:43Z</time>
      </trkpt>
      <trkpt lat="45.19467" lon="5.95445">
        <ele>1431.2</ele>
        <time>2026-07-19T11:42:46Z</time>
      </trkpt>
      <trkpt lat="45.19471" lon="5.95442">
        <ele>1432</ele>
        <time>2026-07-19T11:42:51Z</time>
      </trkpt>
      <trkpt lat="45.19471" lon="5.9544">
        <ele>1433.2</ele>
        <time>2026-07-19T11:42:53Z</time>
      </trkpt>
      <trkpt lat="45.19473" lon="5.95437">
        <ele>1433</ele>
        <time>2026-07-19T11:42:56Z</time>
      </trkpt>
      <trkpt lat="45.19473" lon="5.95437">
        <ele>1433.4</ele>
        <time>2026-07-19T11:42:57Z</time>
      </trkpt>
      <trkpt lat="45.19475" lon="5.95436">
        <ele>1435.6</ele>
        <time>2026-07-19T11:42:59Z</time>
      </trkpt>
      <trkpt lat="45.19475" lon="5.95436">
        <ele>1435.6</ele>
        <time>2026-07-19T11:43:00Z</time>
      </trkpt>
      <trkpt lat="45.19476" lon="5.95437">
        <ele>1438</ele>
        <time>2026-07-19T11:43:01Z</time>
      </trkpt>
      <trkpt lat="45.19478" lon="5.95435">
        <ele>1439.2</ele>
        <time>2026-07-19T11:43:03Z</time>
      </trkpt>
      <trkpt lat="45.19482" lon="5.95431">
        <ele>1439.4</ele>
        <time>2026-07-19T11:43:09Z</time>
      </trkpt>
      <trkpt lat="45.19484" lon="5.95429">
        <ele>1438.8</ele>
        <time>2026-07-19T11:43:16Z</time>
      </trkpt>
      <trkpt lat="45.19486" lon="5.95428">
        <ele>1438.6</ele>
        <time>2026-07-19T11:43:17Z</time>
      </trkpt>
      <trkpt lat="45.19489" lon="5.95426">
        <ele>1440.4</ele>
        <time>2026-07-19T11:43:19Z</time>
      </trkpt>
      <trkpt lat="45.19494" lon="5.95421">
        <ele>1442.2</ele>
        <time>2026-07-19T11:43:21Z</time>
      </trkpt>
      <trkpt lat="45.19496" lon="5.95419">
        <ele>1442.4</ele>
        <time>2026-07-19T11:43:22Z</time>
      </trkpt>
      <trkpt lat="45.19503" lon="5.95411">
        <ele>1443</ele>
        <time>2026-07-19T11:43:29Z</time>
      </trkpt>
      <trkpt lat="45.19505" lon="5.95409">
        <ele>1443.6</ele>
        <time>2026-07-19T11:43:30Z</time>
      </trkpt>
      <trkpt lat="45.19508" lon="5.95403">
        <ele>1444.8</ele>
        <time>2026-07-19T11:43:34Z</time>
      </trkpt>
      <trkpt lat="45.19513" lon="5.95398">
        <ele>1443.6</ele>
        <time>2026-07-19T11:43:38Z</time>
      </trkpt>
      <trkpt lat="45.19516" lon="5.95397">
        <ele>1442</ele>
        <time>2026-07-19T11:43:40Z</time>
      </trkpt>
      <trkpt lat="45.19523" lon="5.95393">
        <ele>1441.4</ele>
        <time>2026-07-19T11:43:45Z</time>
      </trkpt>
      <trkpt lat="45.19526" lon="5.95391">
        <ele>1440.4</ele>
        <time>2026-07-19T11:43:47Z</time>
      </trkpt>
      <trkpt lat="45.19531" lon="5.95388">
        <ele>1440.2</ele>
        <time>2026-07-19T11:43:52Z</time>
      </trkpt>
      <trkpt lat="45.19533" lon="5.95386">
        <ele>1438.8</ele>
        <time>2026-07-19T11:43:53Z</time>
      </trkpt>
      <trkpt lat="45.19534" lon="5.95386">
        <ele>1437.8</ele>
        <time>2026-07-19T11:43:54Z</time>
      </trkpt>
      <trkpt lat="45.19537" lon="5.95382">
        <ele>1436.2</ele>
        <time>2026-07-19T11:43:56Z</time>
      </trkpt>
      <trkpt lat="45.19538" lon="5.95381">
        <ele>1435.4</ele>
        <time>2026-07-19T11:43:57Z</time>
      </trkpt>
      <trkpt lat="45.19539" lon="5.9538">
        <ele>1434.8</ele>
        <time>2026-07-19T11:43:58Z</time>
      </trkpt>
      <trkpt lat="45.19543" lon="5.95378">
        <ele>1433.6</ele>
        <time>2026-07-19T11:44:00Z</time>
      </trkpt>
      <trkpt lat="45.19542" lon="5.9538">
        <ele>1437.2</ele>
        <time>2026-07-19T11:44:01Z</time>
      </trkpt>
      <trkpt lat="45.19542" lon="5.95382">
        <ele>1441.6</ele>
        <time>2026-07-19T11:44:02Z</time>
      </trkpt>
      <trkpt lat="45.19542" lon="5.95385">
        <ele>1443.8</ele>
        <time>2026-07-19T11:44:03Z</time>
      </trkpt>
      <trkpt lat="45.19543" lon="5.95385">
        <ele>1445.4</ele>
        <time>2026-07-19T11:44:04Z</time>
      </trkpt>
      <trkpt lat="45.19548" lon="5.95385">
        <ele>1446.4</ele>
        <time>2026-07-19T11:44:09Z</time>
      </trkpt>
      <trkpt lat="45.19548" lon="5.95385">
        <ele>1447.8</ele>
        <time>2026-07-19T11:44:10Z</time>
      </trkpt>
      <trkpt lat="45.19549" lon="5.95384">
        <ele>1449.2</ele>
        <time>2026-07-19T11:44:11Z</time>
      </trkpt>
      <trkpt lat="45.1955" lon="5.95384">
        <ele>1450.6</ele>
        <time>2026-07-19T11:44:12Z</time>
      </trkpt>
      <trkpt lat="45.19551" lon="5.95384">
        <ele>1451.2</ele>
        <time>2026-07-19T11:44:13Z</time>
      </trkpt>
      <trkpt lat="45.19555" lon="5.95383">
        <ele>1450.4</ele>
        <time>2026-07-19T11:44:15Z</time>
      </trkpt>
      <trkpt lat="45.1956" lon="5.9538">
        <ele>1448.6</ele>
        <time>2026-07-19T11:44:17Z</time>
      </trkpt>
      <trkpt lat="45.19569" lon="5.95373">
        <ele>1448.8</ele>
        <time>2026-07-19T11:44:21Z</time>
      </trkpt>
      <trkpt lat="45.19576" lon="5.95366">
        <ele>1450</ele>
        <time>2026-07-19T11:44:27Z</time>
      </trkpt>
      <trkpt lat="45.19578" lon="5.95365">
        <ele>1450</ele>
        <time>2026-07-19T11:44:28Z</time>
      </trkpt>
      <trkpt lat="45.1958" lon="5.95361">
        <ele>1451.8</ele>
        <time>2026-07-19T11:44:31Z</time>
      </trkpt>
      <trkpt lat="45.19585" lon="5.95357">
        <ele>1451.6</ele>
        <time>2026-07-19T11:44:36Z</time>
      </trkpt>
      <trkpt lat="45.19586" lon="5.95356">
        <ele>1450.4</ele>
        <time>2026-07-19T11:44:37Z</time>
      </trkpt>
      <trkpt lat="45.19587" lon="5.95354">
        <ele>1449.2</ele>
        <time>2026-07-19T11:44:38Z</time>
      </trkpt>
      <trkpt lat="45.19588" lon="5.95351">
        <ele>1447.4</ele>
        <time>2026-07-19T11:44:40Z</time>
      </trkpt>
      <trkpt lat="45.19589" lon="5.95349">
        <ele>1446.6</ele>
        <time>2026-07-19T11:44:43Z</time>
      </trkpt>
      <trkpt lat="45.19591" lon="5.95349">
        <ele>1446.2</ele>
        <time>2026-07-19T11:44:45Z</time>
      </trkpt>
      <trkpt lat="45.19592" lon="5.95349">
        <ele>1444.2</ele>
        <time>2026-07-19T11:44:46Z</time>
      </trkpt>
      <trkpt lat="45.19593" lon="5.95347">
        <ele>1443</ele>
        <time>2026-07-19T11:44:48Z</time>
      </trkpt>
      <trkpt lat="45.19595" lon="5.95346">
        <ele>1442.8</ele>
        <time>2026-07-19T11:44:50Z</time>
      </trkpt>
      <trkpt lat="45.19599" lon="5.95338">
        <ele>1442.6</ele>
        <time>2026-07-19T11:44:57Z</time>
      </trkpt>
      <trkpt lat="45.196" lon="5.95335">
        <ele>1441.8</ele>
        <time>2026-07-19T11:45:00Z</time>
      </trkpt>
      <trkpt lat="45.196" lon="5.95326">
        <ele>1443</ele>
        <time>2026-07-19T11:45:06Z</time>
      </trkpt>
      <trkpt lat="45.19602" lon="5.95321">
        <ele>1444.2</ele>
        <time>2026-07-19T11:45:09Z</time>
      </trkpt>
      <trkpt lat="45.19603" lon="5.95317">
        <ele>1443.8</ele>
        <time>2026-07-19T11:45:12Z</time>
      </trkpt>
      <trkpt lat="45.19604" lon="5.95312">
        <ele>1444.2</ele>
        <time>2026-07-19T11:45:16Z</time>
      </trkpt>
      <trkpt lat="45.19604" lon="5.95311">
        <ele>1443.6</ele>
        <time>2026-07-19T11:45:17Z</time>
      </trkpt>
      <trkpt lat="45.19605" lon="5.9531">
        <ele>1443.2</ele>
        <time>2026-07-19T11:45:19Z</time>
      </trkpt>
      <trkpt lat="45.19604" lon="5.95309">
        <ele>1442.8</ele>
        <time>2026-07-19T11:45:20Z</time>
      </trkpt>
      <trkpt lat="45.19604" lon="5.95308">
        <ele>1441.8</ele>
        <time>2026-07-19T11:45:21Z</time>
      </trkpt>
      <trkpt lat="45.19604" lon="5.95308">
        <ele>1441.6</ele>
        <time>2026-07-19T11:45:22Z</time>
      </trkpt>
      <trkpt lat="45.19603" lon="5.95307">
        <ele>1441.4</ele>
        <time>2026-07-19T11:45:26Z</time>
      </trkpt>
      <trkpt lat="45.19604" lon="5.95301">
        <ele>1443</ele>
        <time>2026-07-19T11:45:31Z</time>
      </trkpt>
      <trkpt lat="45.19605" lon="5.95299">
        <ele>1443.6</ele>
        <time>2026-07-19T11:45:33Z</time>
      </trkpt>
      <trkpt lat="45.19603" lon="5.95296">
        <ele>1442.4</ele>
        <time>2026-07-19T11:45:36Z</time>
      </trkpt>
      <trkpt lat="45.19603" lon="5.95294">
        <ele>1442.6</ele>
        <time>2026-07-19T11:45:38Z</time>
      </trkpt>
      <trkpt lat="45.19603" lon="5.95293">
        <ele>1443</ele>
        <time>2026-07-19T11:45:40Z</time>
      </trkpt>
      <trkpt lat="45.19603" lon="5.95292">
        <ele>1443.4</ele>
        <time>2026-07-19T11:45:41Z</time>
      </trkpt>
      <trkpt lat="45.19604" lon="5.95292">
        <ele>1444.2</ele>
        <time>2026-07-19T11:45:42Z</time>
      </trkpt>
      <trkpt lat="45.19605" lon="5.9529">
        <ele>1444.6</ele>
        <time>2026-07-19T11:45:44Z</time>
      </trkpt>
      <trkpt lat="45.19605" lon="5.9529">
        <ele>1445.6</ele>
        <time>2026-07-19T11:45:49Z</time>
      </trkpt>
      <trkpt lat="45.19604" lon="5.95288">
        <ele>1447.4</ele>
        <time>2026-07-19T11:45:54Z</time>
      </trkpt>
      <trkpt lat="45.19603" lon="5.95285">
        <ele>1448.6</ele>
        <time>2026-07-19T11:45:55Z</time>
      </trkpt>
      <trkpt lat="45.19608" lon="5.95276">
        <ele>1448.4</ele>
        <time>2026-07-19T11:45:57Z</time>
      </trkpt>
      <trkpt lat="45.1961" lon="5.95271">
        <ele>1448.4</ele>
        <time>2026-07-19T11:45:58Z</time>
      </trkpt>
      <trkpt lat="45.1961" lon="5.95266">
        <ele>1447.4</ele>
        <time>2026-07-19T11:46:00Z</time>
      </trkpt>
      <trkpt lat="45.19615" lon="5.95254">
        <ele>1448.4</ele>
        <time>2026-07-19T11:46:04Z</time>
      </trkpt>
      <trkpt lat="45.19617" lon="5.95246">
        <ele>1445.4</ele>
        <time>2026-07-19T11:46:07Z</time>
      </trkpt>
      <trkpt lat="45.19618" lon="5.95244">
        <ele>1444</ele>
        <time>2026-07-19T11:46:08Z</time>
      </trkpt>
      <trkpt lat="45.19619" lon="5.95243">
        <ele>1442.8</ele>
        <time>2026-07-19T11:46:09Z</time>
      </trkpt>
      <trkpt lat="45.19619" lon="5.95241">
        <ele>1441.6</ele>
        <time>2026-07-19T11:46:10Z</time>
      </trkpt>
      <trkpt lat="45.19621" lon="5.95233">
        <ele>1440</ele>
        <time>2026-07-19T11:46:14Z</time>
      </trkpt>
      <trkpt lat="45.19621" lon="5.95232">
        <ele>1439.2</ele>
        <time>2026-07-19T11:46:15Z</time>
      </trkpt>
      <trkpt lat="45.19621" lon="5.9523">
        <ele>1438.4</ele>
        <time>2026-07-19T11:46:16Z</time>
      </trkpt>
      <trkpt lat="45.1962" lon="5.95227">
        <ele>1436.6</ele>
        <time>2026-07-19T11:46:17Z</time>
      </trkpt>
      <trkpt lat="45.19619" lon="5.95225">
        <ele>1435.2</ele>
        <time>2026-07-19T11:46:18Z</time>
      </trkpt>
      <trkpt lat="45.1962" lon="5.95222">
        <ele>1433.4</ele>
        <time>2026-07-19T11:46:20Z</time>
      </trkpt>
      <trkpt lat="45.19619" lon="5.95218">
        <ele>1431.8</ele>
        <time>2026-07-19T11:46:22Z</time>
      </trkpt>
      <trkpt lat="45.19621" lon="5.95214">
        <ele>1430.2</ele>
        <time>2026-07-19T11:46:24Z</time>
      </trkpt>
      <trkpt lat="45.19625" lon="5.95207">
        <ele>1431.6</ele>
        <time>2026-07-19T11:46:27Z</time>
      </trkpt>
      <trkpt lat="45.19627" lon="5.95206">
        <ele>1432.8</ele>
        <time>2026-07-19T11:46:28Z</time>
      </trkpt>
      <trkpt lat="45.1963" lon="5.95203">
        <ele>1434.2</ele>
        <time>2026-07-19T11:46:30Z</time>
      </trkpt>
      <trkpt lat="45.19632" lon="5.95202">
        <ele>1436</ele>
        <time>2026-07-19T11:46:31Z</time>
      </trkpt>
      <trkpt lat="45.19636" lon="5.95197">
        <ele>1436.2</ele>
        <time>2026-07-19T11:46:34Z</time>
      </trkpt>
      <trkpt lat="45.19641" lon="5.95193">
        <ele>1438.8</ele>
        <time>2026-07-19T11:46:36Z</time>
      </trkpt>
      <trkpt lat="45.19644" lon="5.9519">
        <ele>1437.4</ele>
        <time>2026-07-19T11:46:38Z</time>
      </trkpt>
      <trkpt lat="45.19646" lon="5.95183">
        <ele>1436.2</ele>
        <time>2026-07-19T11:46:41Z</time>
      </trkpt>
      <trkpt lat="45.19647" lon="5.9518">
        <ele>1435.4</ele>
        <time>2026-07-19T11:46:42Z</time>
      </trkpt>
      <trkpt lat="45.19647" lon="5.95178">
        <ele>1434.6</ele>
        <time>2026-07-19T11:46:43Z</time>
      </trkpt>
      <trkpt lat="45.19647" lon="5.95174">
        <ele>1434</ele>
        <time>2026-07-19T11:46:44Z</time>
      </trkpt>
      <trkpt lat="45.19647" lon="5.95169">
        <ele>1433.2</ele>
        <time>2026-07-19T11:46:46Z</time>
      </trkpt>
      <trkpt lat="45.19647" lon="5.95163">
        <ele>1433.8</ele>
        <time>2026-07-19T11:46:48Z</time>
      </trkpt>
      <trkpt lat="45.19646" lon="5.95161">
        <ele>1434.4</ele>
        <time>2026-07-19T11:46:49Z</time>
      </trkpt>
      <trkpt lat="45.19646" lon="5.95158">
        <ele>1435.8</ele>
        <time>2026-07-19T11:46:50Z</time>
      </trkpt>
      <trkpt lat="45.19644" lon="5.95145">
        <ele>1434.4</ele>
        <time>2026-07-19T11:46:56Z</time>
      </trkpt>
      <trkpt lat="45.19643" lon="5.95137">
        <ele>1432.4</ele>
        <time>2026-07-19T11:46:59Z</time>
      </trkpt>
      <trkpt lat="45.19643" lon="5.95131">
        <ele>1431.2</ele>
        <time>2026-07-19T11:47:01Z</time>
      </trkpt>
      <trkpt lat="45.19644" lon="5.95128">
        <ele>1431</ele>
        <time>2026-07-19T11:47:02Z</time>
      </trkpt>
      <trkpt lat="45.19643" lon="5.95114">
        <ele>1429.8</ele>
        <time>2026-07-19T11:47:07Z</time>
      </trkpt>
      <trkpt lat="45.1964" lon="5.9511">
        <ele>1428.6</ele>
        <time>2026-07-19T11:47:09Z</time>
      </trkpt>
      <trkpt lat="45.19638" lon="5.95107">
        <ele>1427</ele>
        <time>2026-07-19T11:47:12Z</time>
      </trkpt>
      <trkpt lat="45.19637" lon="5.95105">
        <ele>1425.4</ele>
        <time>2026-07-19T11:47:14Z</time>
      </trkpt>
      <trkpt lat="45.19634" lon="5.95102">
        <ele>1423.4</ele>
        <time>2026-07-19T11:47:16Z</time>
      </trkpt>
      <trkpt lat="45.19632" lon="5.95098">
        <ele>1421.4</ele>
        <time>2026-07-19T11:47:18Z</time>
      </trkpt>
      <trkpt lat="45.19629" lon="5.95096">
        <ele>1419.6</ele>
        <time>2026-07-19T11:47:20Z</time>
      </trkpt>
      <trkpt lat="45.19628" lon="5.95094">
        <ele>1418.4</ele>
        <time>2026-07-19T11:47:22Z</time>
      </trkpt>
      <trkpt lat="45.19627" lon="5.95092">
        <ele>1417</ele>
        <time>2026-07-19T11:47:24Z</time>
      </trkpt>
      <trkpt lat="45.19628" lon="5.95091">
        <ele>1418.2</ele>
        <time>2026-07-19T11:47:26Z</time>
      </trkpt>
      <trkpt lat="45.19628" lon="5.9509">
        <ele>1416.6</ele>
        <time>2026-07-19T11:47:28Z</time>
      </trkpt>
      <trkpt lat="45.19627" lon="5.9509">
        <ele>1415.6</ele>
        <time>2026-07-19T11:47:29Z</time>
      </trkpt>
      <trkpt lat="45.19626" lon="5.95089">
        <ele>1414.8</ele>
        <time>2026-07-19T11:47:30Z</time>
      </trkpt>
      <trkpt lat="45.19625" lon="5.95088">
        <ele>1414.6</ele>
        <time>2026-07-19T11:47:31Z</time>
      </trkpt>
      <trkpt lat="45.19623" lon="5.95085">
        <ele>1414.4</ele>
        <time>2026-07-19T11:47:34Z</time>
      </trkpt>
      <trkpt lat="45.19622" lon="5.95082">
        <ele>1417</ele>
        <time>2026-07-19T11:47:35Z</time>
      </trkpt>
      <trkpt lat="45.19621" lon="5.9508">
        <ele>1419.4</ele>
        <time>2026-07-19T11:47:36Z</time>
      </trkpt>
      <trkpt lat="45.1962" lon="5.95077">
        <ele>1422.4</ele>
        <time>2026-07-19T11:47:37Z</time>
      </trkpt>
      <trkpt lat="45.1962" lon="5.95075">
        <ele>1424</ele>
        <time>2026-07-19T11:47:38Z</time>
      </trkpt>
      <trkpt lat="45.19619" lon="5.95073">
        <ele>1425.8</ele>
        <time>2026-07-19T11:47:39Z</time>
      </trkpt>
      <trkpt lat="45.19619" lon="5.95072">
        <ele>1427.4</ele>
        <time>2026-07-19T11:47:40Z</time>
      </trkpt>
      <trkpt lat="45.19618" lon="5.9507">
        <ele>1429</ele>
        <time>2026-07-19T11:47:41Z</time>
      </trkpt>
      <trkpt lat="45.19617" lon="5.95068">
        <ele>1430.2</ele>
        <time>2026-07-19T11:47:43Z</time>
      </trkpt>
      <trkpt lat="45.19617" lon="5.95067">
        <ele>1431.6</ele>
        <time>2026-07-19T11:47:44Z</time>
      </trkpt>
      <trkpt lat="45.19618" lon="5.95065">
        <ele>1432.8</ele>
        <time>2026-07-19T11:47:45Z</time>
      </trkpt>
      <trkpt lat="45.19618" lon="5.95062">
        <ele>1434.6</ele>
        <time>2026-07-19T11:47:47Z</time>
      </trkpt>
      <trkpt lat="45.19618" lon="5.95061">
        <ele>1435</ele>
        <time>2026-07-19T11:47:48Z</time>
      </trkpt>
      <trkpt lat="45.19618" lon="5.9506">
        <ele>1435.2</ele>
        <time>2026-07-19T11:47:49Z</time>
      </trkpt>
      <trkpt lat="45.19617" lon="5.95058">
        <ele>1435.8</ele>
        <time>2026-07-19T11:47:50Z</time>
      </trkpt>
      <trkpt lat="45.19617" lon="5.95057">
        <ele>1435.6</ele>
        <time>2026-07-19T11:47:51Z</time>
      </trkpt>
      <trkpt lat="45.19618" lon="5.95051">
        <ele>1436.4</ele>
        <time>2026-07-19T11:47:58Z</time>
      </trkpt>
      <trkpt lat="45.19619" lon="5.95049">
        <ele>1438</ele>
        <time>2026-07-19T11:47:59Z</time>
      </trkpt>
      <trkpt lat="45.19621" lon="5.95045">
        <ele>1439.2</ele>
        <time>2026-07-19T11:48:03Z</time>
      </trkpt>
      <trkpt lat="45.19622" lon="5.95042">
        <ele>1440.8</ele>
        <time>2026-07-19T11:48:05Z</time>
      </trkpt>
      <trkpt lat="45.19628" lon="5.95031">
        <ele>1441.2</ele>
        <time>2026-07-19T11:48:12Z</time>
      </trkpt>
      <trkpt lat="45.1963" lon="5.95028">
        <ele>1442</ele>
        <time>2026-07-19T11:48:13Z</time>
      </trkpt>
      <trkpt lat="45.19632" lon="5.95021">
        <ele>1442.2</ele>
        <time>2026-07-19T11:48:16Z</time>
      </trkpt>
      <trkpt lat="45.19631" lon="5.95018">
        <ele>1443.6</ele>
        <time>2026-07-19T11:48:17Z</time>
      </trkpt>
      <trkpt lat="45.1963" lon="5.95013">
        <ele>1445</ele>
        <time>2026-07-19T11:48:20Z</time>
      </trkpt>
      <trkpt lat="45.19629" lon="5.9501">
        <ele>1446.8</ele>
        <time>2026-07-19T11:48:22Z</time>
      </trkpt>
      <trkpt lat="45.19628" lon="5.95008">
        <ele>1446.4</ele>
        <time>2026-07-19T11:48:23Z</time>
      </trkpt>
      <trkpt lat="45.19627" lon="5.95">
        <ele>1444.8</ele>
        <time>2026-07-19T11:48:27Z</time>
      </trkpt>
      <trkpt lat="45.19628" lon="5.94993">
        <ele>1443.6</ele>
        <time>2026-07-19T11:48:30Z</time>
      </trkpt>
      <trkpt lat="45.19628" lon="5.9499">
        <ele>1442.2</ele>
        <time>2026-07-19T11:48:31Z</time>
      </trkpt>
      <trkpt lat="45.1963" lon="5.9498">
        <ele>1440.8</ele>
        <time>2026-07-19T11:48:35Z</time>
      </trkpt>
      <trkpt lat="45.19631" lon="5.94978">
        <ele>1440.4</ele>
        <time>2026-07-19T11:48:36Z</time>
      </trkpt>
      <trkpt lat="45.19632" lon="5.94973">
        <ele>1439.6</ele>
        <time>2026-07-19T11:48:39Z</time>
      </trkpt>
      <trkpt lat="45.19634" lon="5.94965">
        <ele>1438.2</ele>
        <time>2026-07-19T11:48:43Z</time>
      </trkpt>
      <trkpt lat="45.19633" lon="5.94962">
        <ele>1437</ele>
        <time>2026-07-19T11:48:44Z</time>
      </trkpt>
      <trkpt lat="45.19634" lon="5.94953">
        <ele>1436.4</ele>
        <time>2026-07-19T11:48:48Z</time>
      </trkpt>
      <trkpt lat="45.19635" lon="5.94952">
        <ele>1436.8</ele>
        <time>2026-07-19T11:48:49Z</time>
      </trkpt>
      <trkpt lat="45.19635" lon="5.94947">
        <ele>1434.2</ele>
        <time>2026-07-19T11:48:51Z</time>
      </trkpt>
      <trkpt lat="45.19635" lon="5.94945">
        <ele>1432.2</ele>
        <time>2026-07-19T11:48:52Z</time>
      </trkpt>
      <trkpt lat="45.19634" lon="5.94943">
        <ele>1430.4</ele>
        <time>2026-07-19T11:48:53Z</time>
      </trkpt>
      <trkpt lat="45.19634" lon="5.9494">
        <ele>1429.6</ele>
        <time>2026-07-19T11:48:55Z</time>
      </trkpt>
      <trkpt lat="45.19634" lon="5.94939">
        <ele>1428</ele>
        <time>2026-07-19T11:48:56Z</time>
      </trkpt>
      <trkpt lat="45.19632" lon="5.94934">
        <ele>1426.4</ele>
        <time>2026-07-19T11:48:59Z</time>
      </trkpt>
      <trkpt lat="45.19631" lon="5.94932">
        <ele>1425.2</ele>
        <time>2026-07-19T11:49:00Z</time>
      </trkpt>
      <trkpt lat="45.1963" lon="5.9492">
        <ele>1424</ele>
        <time>2026-07-19T11:49:04Z</time>
      </trkpt>
      <trkpt lat="45.19631" lon="5.94916">
        <ele>1422.6</ele>
        <time>2026-07-19T11:49:05Z</time>
      </trkpt>
      <trkpt lat="45.19631" lon="5.94906">
        <ele>1421.4</ele>
        <time>2026-07-19T11:49:08Z</time>
      </trkpt>
      <trkpt lat="45.19632" lon="5.949">
        <ele>1421.6</ele>
        <time>2026-07-19T11:49:10Z</time>
      </trkpt>
      <trkpt lat="45.19631" lon="5.94898">
        <ele>1420.4</ele>
        <time>2026-07-19T11:49:11Z</time>
      </trkpt>
      <trkpt lat="45.19631" lon="5.94895">
        <ele>1419.8</ele>
        <time>2026-07-19T11:49:12Z</time>
      </trkpt>
      <trkpt lat="45.19632" lon="5.9489">
        <ele>1421.4</ele>
        <time>2026-07-19T11:49:14Z</time>
      </trkpt>
      <trkpt lat="45.19631" lon="5.94886">
        <ele>1421.6</ele>
        <time>2026-07-19T11:49:16Z</time>
      </trkpt>
      <trkpt lat="45.1963" lon="5.94883">
        <ele>1422.8</ele>
        <time>2026-07-19T11:49:18Z</time>
      </trkpt>
      <trkpt lat="45.1963" lon="5.94878">
        <ele>1424</ele>
        <time>2026-07-19T11:49:23Z</time>
      </trkpt>
      <trkpt lat="45.19629" lon="5.94877">
        <ele>1423</ele>
        <time>2026-07-19T11:49:27Z</time>
      </trkpt>
      <trkpt lat="45.19628" lon="5.94876">
        <ele>1421.6</ele>
        <time>2026-07-19T11:49:29Z</time>
      </trkpt>
      <trkpt lat="45.19628" lon="5.94871">
        <ele>1419.8</ele>
        <time>2026-07-19T11:49:32Z</time>
      </trkpt>
      <trkpt lat="45.19628" lon="5.94869">
        <ele>1418.6</ele>
        <time>2026-07-19T11:49:33Z</time>
      </trkpt>
      <trkpt lat="45.19628" lon="5.94866">
        <ele>1417.2</ele>
        <time>2026-07-19T11:49:35Z</time>
      </trkpt>
      <trkpt lat="45.19626" lon="5.94853">
        <ele>1419.6</ele>
        <time>2026-07-19T11:49:40Z</time>
      </trkpt>
      <trkpt lat="45.19624" lon="5.9485">
        <ele>1420</ele>
        <time>2026-07-19T11:49:42Z</time>
      </trkpt>
      <trkpt lat="45.19623" lon="5.94849">
        <ele>1419.6</ele>
        <time>2026-07-19T11:49:45Z</time>
      </trkpt>
      <trkpt lat="45.19622" lon="5.94845">
        <ele>1419</ele>
        <time>2026-07-19T11:49:47Z</time>
      </trkpt>
      <trkpt lat="45.19622" lon="5.94842">
        <ele>1418.2</ele>
        <time>2026-07-19T11:49:48Z</time>
      </trkpt>
      <trkpt lat="45.19621" lon="5.94827">
        <ele>1417.2</ele>
        <time>2026-07-19T11:49:53Z</time>
      </trkpt>
      <trkpt lat="45.19622" lon="5.94818">
        <ele>1419.6</ele>
        <time>2026-07-19T11:49:56Z</time>
      </trkpt>
      <trkpt lat="45.19622" lon="5.94809">
        <ele>1420.8</ele>
        <time>2026-07-19T11:49:59Z</time>
      </trkpt>
      <trkpt lat="45.19619" lon="5.94788">
        <ele>1420.4</ele>
        <time>2026-07-19T11:50:07Z</time>
      </trkpt>
      <trkpt lat="45.19618" lon="5.94783">
        <ele>1419.6</ele>
        <time>2026-07-19T11:50:09Z</time>
      </trkpt>
      <trkpt lat="45.19618" lon="5.94775">
        <ele>1418.4</ele>
        <time>2026-07-19T11:50:12Z</time>
      </trkpt>
      <trkpt lat="45.19617" lon="5.94773">
        <ele>1418</ele>
        <time>2026-07-19T11:50:13Z</time>
      </trkpt>
      <trkpt lat="45.19615" lon="5.94769">
        <ele>1416.4</ele>
        <time>2026-07-19T11:50:15Z</time>
      </trkpt>
      <trkpt lat="45.19615" lon="5.94766">
        <ele>1415.2</ele>
        <time>2026-07-19T11:50:16Z</time>
      </trkpt>
      <trkpt lat="45.19614" lon="5.94761">
        <ele>1413.8</ele>
        <time>2026-07-19T11:50:18Z</time>
      </trkpt>
      <trkpt lat="45.19614" lon="5.94759">
        <ele>1413.2</ele>
        <time>2026-07-19T11:50:19Z</time>
      </trkpt>
      <trkpt lat="45.19613" lon="5.94757">
        <ele>1412.4</ele>
        <time>2026-07-19T11:50:20Z</time>
      </trkpt>
      <trkpt lat="45.19613" lon="5.94752">
        <ele>1411.2</ele>
        <time>2026-07-19T11:50:22Z</time>
      </trkpt>
      <trkpt lat="45.19613" lon="5.94746">
        <ele>1409.8</ele>
        <time>2026-07-19T11:50:25Z</time>
      </trkpt>
      <trkpt lat="45.19613" lon="5.94743">
        <ele>1409</ele>
        <time>2026-07-19T11:50:26Z</time>
      </trkpt>
      <trkpt lat="45.19612" lon="5.94741">
        <ele>1407.4</ele>
        <time>2026-07-19T11:50:27Z</time>
      </trkpt>
      <trkpt lat="45.19611" lon="5.94737">
        <ele>1408.4</ele>
        <time>2026-07-19T11:50:28Z</time>
      </trkpt>
      <trkpt lat="45.19609" lon="5.94734">
        <ele>1409.8</ele>
        <time>2026-07-19T11:50:29Z</time>
      </trkpt>
      <trkpt lat="45.19607" lon="5.9473">
        <ele>1409.6</ele>
        <time>2026-07-19T11:50:31Z</time>
      </trkpt>
      <trkpt lat="45.19606" lon="5.94729">
        <ele>1409.8</ele>
        <time>2026-07-19T11:50:33Z</time>
      </trkpt>
      <trkpt lat="45.19606" lon="5.94728">
        <ele>1408</ele>
        <time>2026-07-19T11:50:36Z</time>
      </trkpt>
      <trkpt lat="45.19606" lon="5.94728">
        <ele>1407.4</ele>
        <time>2026-07-19T11:50:37Z</time>
      </trkpt>
      <trkpt lat="45.19606" lon="5.94727">
        <ele>1406.2</ele>
        <time>2026-07-19T11:50:38Z</time>
      </trkpt>
      <trkpt lat="45.19605" lon="5.94724">
        <ele>1403.2</ele>
        <time>2026-07-19T11:50:40Z</time>
      </trkpt>
      <trkpt lat="45.19603" lon="5.94716">
        <ele>1403.2</ele>
        <time>2026-07-19T11:50:43Z</time>
      </trkpt>
      <trkpt lat="45.196" lon="5.94711">
        <ele>1404.2</ele>
        <time>2026-07-19T11:50:45Z</time>
      </trkpt>
      <trkpt lat="45.19598" lon="5.94703">
        <ele>1404</ele>
        <time>2026-07-19T11:50:49Z</time>
      </trkpt>
      <trkpt lat="45.19597" lon="5.94702">
        <ele>1403.2</ele>
        <time>2026-07-19T11:50:50Z</time>
      </trkpt>
      <trkpt lat="45.19598" lon="5.94699">
        <ele>1401.6</ele>
        <time>2026-07-19T11:50:52Z</time>
      </trkpt>
      <trkpt lat="45.19598" lon="5.94694">
        <ele>1400</ele>
        <time>2026-07-19T11:50:54Z</time>
      </trkpt>
      <trkpt lat="45.19597" lon="5.94691">
        <ele>1399.6</ele>
        <time>2026-07-19T11:50:55Z</time>
      </trkpt>
      <trkpt lat="45.19597" lon="5.94686">
        <ele>1398.2</ele>
        <time>2026-07-19T11:50:57Z</time>
      </trkpt>
      <trkpt lat="45.19596" lon="5.94684">
        <ele>1397.2</ele>
        <time>2026-07-19T11:50:58Z</time>
      </trkpt>
      <trkpt lat="45.19595" lon="5.94678">
        <ele>1395.6</ele>
        <time>2026-07-19T11:51:00Z</time>
      </trkpt>
      <trkpt lat="45.19594" lon="5.94673">
        <ele>1394.6</ele>
        <time>2026-07-19T11:51:02Z</time>
      </trkpt>
      <trkpt lat="45.19593" lon="5.94671">
        <ele>1394.4</ele>
        <time>2026-07-19T11:51:03Z</time>
      </trkpt>
      <trkpt lat="45.19592" lon="5.94659">
        <ele>1392.8</ele>
        <time>2026-07-19T11:51:07Z</time>
      </trkpt>
      <trkpt lat="45.19591" lon="5.94656">
        <ele>1392.4</ele>
        <time>2026-07-19T11:51:08Z</time>
      </trkpt>
      <trkpt lat="45.1959" lon="5.9465">
        <ele>1391.6</ele>
        <time>2026-07-19T11:51:10Z</time>
      </trkpt>
      <trkpt lat="45.19587" lon="5.94635">
        <ele>1390.4</ele>
        <time>2026-07-19T11:51:15Z</time>
      </trkpt>
      <trkpt lat="45.19587" lon="5.94633">
        <ele>1390</ele>
        <time>2026-07-19T11:51:16Z</time>
      </trkpt>
      <trkpt lat="45.19588" lon="5.94626">
        <ele>1389</ele>
        <time>2026-07-19T11:51:18Z</time>
      </trkpt>
      <trkpt lat="45.19587" lon="5.94622">
        <ele>1388.2</ele>
        <time>2026-07-19T11:51:20Z</time>
      </trkpt>
      <trkpt lat="45.19587" lon="5.9462">
        <ele>1387.6</ele>
        <time>2026-07-19T11:51:21Z</time>
      </trkpt>
      <trkpt lat="45.19585" lon="5.94615">
        <ele>1384.8</ele>
        <time>2026-07-19T11:51:23Z</time>
      </trkpt>
      <trkpt lat="45.19584" lon="5.9461">
        <ele>1383.6</ele>
        <time>2026-07-19T11:51:25Z</time>
      </trkpt>
      <trkpt lat="45.19584" lon="5.94607">
        <ele>1383</ele>
        <time>2026-07-19T11:51:26Z</time>
      </trkpt>
      <trkpt lat="45.19585" lon="5.9459">
        <ele>1382.4</ele>
        <time>2026-07-19T11:51:31Z</time>
      </trkpt>
      <trkpt lat="45.19585" lon="5.94588">
        <ele>1382</ele>
        <time>2026-07-19T11:51:32Z</time>
      </trkpt>
      <trkpt lat="45.19586" lon="5.94582">
        <ele>1381.2</ele>
        <time>2026-07-19T11:51:35Z</time>
      </trkpt>
      <trkpt lat="45.19587" lon="5.94577">
        <ele>1379.6</ele>
        <time>2026-07-19T11:51:37Z</time>
      </trkpt>
      <trkpt lat="45.19587" lon="5.94573">
        <ele>1379.6</ele>
        <time>2026-07-19T11:51:38Z</time>
      </trkpt>
      <trkpt lat="45.19586" lon="5.94564">
        <ele>1381.4</ele>
        <time>2026-07-19T11:51:42Z</time>
      </trkpt>
      <trkpt lat="45.19585" lon="5.9456">
        <ele>1383.8</ele>
        <time>2026-07-19T11:51:43Z</time>
      </trkpt>
      <trkpt lat="45.19583" lon="5.94549">
        <ele>1385</ele>
        <time>2026-07-19T11:51:46Z</time>
      </trkpt>
      <trkpt lat="45.19582" lon="5.94541">
        <ele>1386.4</ele>
        <time>2026-07-19T11:51:48Z</time>
      </trkpt>
      <trkpt lat="45.19582" lon="5.94538">
        <ele>1386.8</ele>
        <time>2026-07-19T11:51:49Z</time>
      </trkpt>
      <trkpt lat="45.1958" lon="5.94523">
        <ele>1385.2</ele>
        <time>2026-07-19T11:51:54Z</time>
      </trkpt>
      <trkpt lat="45.19579" lon="5.94518">
        <ele>1384.4</ele>
        <time>2026-07-19T11:51:56Z</time>
      </trkpt>
      <trkpt lat="45.19579" lon="5.94515">
        <ele>1384</ele>
        <time>2026-07-19T11:51:57Z</time>
      </trkpt>
      <trkpt lat="45.19579" lon="5.94503">
        <ele>1381.8</ele>
        <time>2026-07-19T11:52:00Z</time>
      </trkpt>
      <trkpt lat="45.19578" lon="5.94501">
        <ele>1380.2</ele>
        <time>2026-07-19T11:52:01Z</time>
      </trkpt>
      <trkpt lat="45.19579" lon="5.94498">
        <ele>1379.2</ele>
        <time>2026-07-19T11:52:02Z</time>
      </trkpt>
      <trkpt lat="45.19579" lon="5.94496">
        <ele>1378.6</ele>
        <time>2026-07-19T11:52:03Z</time>
      </trkpt>
      <trkpt lat="45.19579" lon="5.94493">
        <ele>1376.8</ele>
        <time>2026-07-19T11:52:04Z</time>
      </trkpt>
      <trkpt lat="45.19579" lon="5.94488">
        <ele>1374.8</ele>
        <time>2026-07-19T11:52:06Z</time>
      </trkpt>
      <trkpt lat="45.19579" lon="5.94482">
        <ele>1373.4</ele>
        <time>2026-07-19T11:52:08Z</time>
      </trkpt>
      <trkpt lat="45.19579" lon="5.94478">
        <ele>1372</ele>
        <time>2026-07-19T11:52:09Z</time>
      </trkpt>
      <trkpt lat="45.19579" lon="5.94475">
        <ele>1372</ele>
        <time>2026-07-19T11:52:10Z</time>
      </trkpt>
      <trkpt lat="45.19577" lon="5.94468">
        <ele>1370.6</ele>
        <time>2026-07-19T11:52:12Z</time>
      </trkpt>
      <trkpt lat="45.19575" lon="5.94458">
        <ele>1372.2</ele>
        <time>2026-07-19T11:52:15Z</time>
      </trkpt>
      <trkpt lat="45.19573" lon="5.94453">
        <ele>1372</ele>
        <time>2026-07-19T11:52:17Z</time>
      </trkpt>
      <trkpt lat="45.19573" lon="5.94448">
        <ele>1370.6</ele>
        <time>2026-07-19T11:52:19Z</time>
      </trkpt>
      <trkpt lat="45.19573" lon="5.94444">
        <ele>1371.8</ele>
        <time>2026-07-19T11:52:21Z</time>
      </trkpt>
      <trkpt lat="45.19573" lon="5.9444">
        <ele>1373.2</ele>
        <time>2026-07-19T11:52:23Z</time>
      </trkpt>
      <trkpt lat="45.19573" lon="5.94436">
        <ele>1374.6</ele>
        <time>2026-07-19T11:52:25Z</time>
      </trkpt>
      <trkpt lat="45.19573" lon="5.94431">
        <ele>1375.8</ele>
        <time>2026-07-19T11:52:27Z</time>
      </trkpt>
      <trkpt lat="45.19574" lon="5.94428">
        <ele>1377.8</ele>
        <time>2026-07-19T11:52:28Z</time>
      </trkpt>
      <trkpt lat="45.19572" lon="5.94418">
        <ele>1376.6</ele>
        <time>2026-07-19T11:52:31Z</time>
      </trkpt>
      <trkpt lat="45.19573" lon="5.94413">
        <ele>1378</ele>
        <time>2026-07-19T11:52:33Z</time>
      </trkpt>
      <trkpt lat="45.19573" lon="5.94411">
        <ele>1378.6</ele>
        <time>2026-07-19T11:52:34Z</time>
      </trkpt>
      <trkpt lat="45.19575" lon="5.94409">
        <ele>1379.4</ele>
        <time>2026-07-19T11:52:35Z</time>
      </trkpt>
      <trkpt lat="45.1958" lon="5.944">
        <ele>1377.6</ele>
        <time>2026-07-19T11:52:39Z</time>
      </trkpt>
      <trkpt lat="45.19582" lon="5.94397">
        <ele>1377.2</ele>
        <time>2026-07-19T11:52:40Z</time>
      </trkpt>
      <trkpt lat="45.19584" lon="5.94392">
        <ele>1376.2</ele>
        <time>2026-07-19T11:52:42Z</time>
      </trkpt>
      <trkpt lat="45.19585" lon="5.9439">
        <ele>1374.8</ele>
        <time>2026-07-19T11:52:43Z</time>
      </trkpt>
      <trkpt lat="45.19587" lon="5.94382">
        <ele>1376</ele>
        <time>2026-07-19T11:52:46Z</time>
      </trkpt>
      <trkpt lat="45.19587" lon="5.94379">
        <ele>1375.8</ele>
        <time>2026-07-19T11:52:47Z</time>
      </trkpt>
      <trkpt lat="45.19591" lon="5.94363">
        <ele>1378.6</ele>
        <time>2026-07-19T11:52:52Z</time>
      </trkpt>
      <trkpt lat="45.19593" lon="5.9436">
        <ele>1380.6</ele>
        <time>2026-07-19T11:52:53Z</time>
      </trkpt>
      <trkpt lat="45.19594" lon="5.94358">
        <ele>1381.2</ele>
        <time>2026-07-19T11:52:54Z</time>
      </trkpt>
      <trkpt lat="45.19595" lon="5.94356">
        <ele>1382</ele>
        <time>2026-07-19T11:52:55Z</time>
      </trkpt>
      <trkpt lat="45.19599" lon="5.94352">
        <ele>1383.4</ele>
        <time>2026-07-19T11:52:57Z</time>
      </trkpt>
      <trkpt lat="45.19605" lon="5.94345">
        <ele>1384.6</ele>
        <time>2026-07-19T11:53:00Z</time>
      </trkpt>
      <trkpt lat="45.19607" lon="5.94343">
        <ele>1384.8</ele>
        <time>2026-07-19T11:53:01Z</time>
      </trkpt>
      <trkpt lat="45.19612" lon="5.94335">
        <ele>1383</ele>
        <time>2026-07-19T11:53:04Z</time>
      </trkpt>
      <trkpt lat="45.19616" lon="5.94333">
        <ele>1384.2</ele>
        <time>2026-07-19T11:53:05Z</time>
      </trkpt>
      <trkpt lat="45.19621" lon="5.94324">
        <ele>1382.8</ele>
        <time>2026-07-19T11:53:08Z</time>
      </trkpt>
      <trkpt lat="45.19626" lon="5.94312">
        <ele>1380.8</ele>
        <time>2026-07-19T11:53:12Z</time>
      </trkpt>
      <trkpt lat="45.1963" lon="5.94302">
        <ele>1379</ele>
        <time>2026-07-19T11:53:15Z</time>
      </trkpt>
      <trkpt lat="45.19636" lon="5.94288">
        <ele>1377.8</ele>
        <time>2026-07-19T11:53:19Z</time>
      </trkpt>
      <trkpt lat="45.1964" lon="5.94282">
        <ele>1377.6</ele>
        <time>2026-07-19T11:53:21Z</time>
      </trkpt>
      <trkpt lat="45.19647" lon="5.94268">
        <ele>1376.6</ele>
        <time>2026-07-19T11:53:26Z</time>
      </trkpt>
      <trkpt lat="45.19651" lon="5.94259">
        <ele>1377</ele>
        <time>2026-07-19T11:53:29Z</time>
      </trkpt>
      <trkpt lat="45.19654" lon="5.9425">
        <ele>1378.2</ele>
        <time>2026-07-19T11:53:32Z</time>
      </trkpt>
      <trkpt lat="45.19657" lon="5.94244">
        <ele>1378.8</ele>
        <time>2026-07-19T11:53:34Z</time>
      </trkpt>
      <trkpt lat="45.19661" lon="5.94239">
        <ele>1380.4</ele>
        <time>2026-07-19T11:53:36Z</time>
      </trkpt>
      <trkpt lat="45.19666" lon="5.94229">
        <ele>1379</ele>
        <time>2026-07-19T11:53:40Z</time>
      </trkpt>
      <trkpt lat="45.19667" lon="5.94226">
        <ele>1378</ele>
        <time>2026-07-19T11:53:41Z</time>
      </trkpt>
      <trkpt lat="45.19667" lon="5.94222">
        <ele>1376.4</ele>
        <time>2026-07-19T11:53:42Z</time>
      </trkpt>
      <trkpt lat="45.19668" lon="5.94212">
        <ele>1374.6</ele>
        <time>2026-07-19T11:53:45Z</time>
      </trkpt>
      <trkpt lat="45.19668" lon="5.94208">
        <ele>1373.2</ele>
        <time>2026-07-19T11:53:46Z</time>
      </trkpt>
      <trkpt lat="45.19669" lon="5.94202">
        <ele>1370.2</ele>
        <time>2026-07-19T11:53:48Z</time>
      </trkpt>
      <trkpt lat="45.19669" lon="5.94198">
        <ele>1368.2</ele>
        <time>2026-07-19T11:53:49Z</time>
      </trkpt>
      <trkpt lat="45.19669" lon="5.94194">
        <ele>1367</ele>
        <time>2026-07-19T11:53:50Z</time>
      </trkpt>
      <trkpt lat="45.19669" lon="5.94183">
        <ele>1365.6</ele>
        <time>2026-07-19T11:53:53Z</time>
      </trkpt>
      <trkpt lat="45.19669" lon="5.94179">
        <ele>1365.6</ele>
        <time>2026-07-19T11:53:54Z</time>
      </trkpt>
      <trkpt lat="45.19672" lon="5.94162">
        <ele>1365.8</ele>
        <time>2026-07-19T11:54:00Z</time>
      </trkpt>
      <trkpt lat="45.19677" lon="5.94151">
        <ele>1363.8</ele>
        <time>2026-07-19T11:54:04Z</time>
      </trkpt>
      <trkpt lat="45.1968" lon="5.94146">
        <ele>1362.2</ele>
        <time>2026-07-19T11:54:06Z</time>
      </trkpt>
      <trkpt lat="45.19681" lon="5.94143">
        <ele>1361.4</ele>
        <time>2026-07-19T11:54:07Z</time>
      </trkpt>
      <trkpt lat="45.19683" lon="5.94141">
        <ele>1361</ele>
        <time>2026-07-19T11:54:08Z</time>
      </trkpt>
      <trkpt lat="45.19686" lon="5.94135">
        <ele>1359.6</ele>
        <time>2026-07-19T11:54:10Z</time>
      </trkpt>
      <trkpt lat="45.19688" lon="5.94129">
        <ele>1357.2</ele>
        <time>2026-07-19T11:54:12Z</time>
      </trkpt>
      <trkpt lat="45.1969" lon="5.94126">
        <ele>1355.6</ele>
        <time>2026-07-19T11:54:13Z</time>
      </trkpt>
      <trkpt lat="45.19694" lon="5.94113">
        <ele>1356</ele>
        <time>2026-07-19T11:54:16Z</time>
      </trkpt>
      <trkpt lat="45.19695" lon="5.94102">
        <ele>1354</ele>
        <time>2026-07-19T11:54:19Z</time>
      </trkpt>
      <trkpt lat="45.19694" lon="5.94098">
        <ele>1351.8</ele>
        <time>2026-07-19T11:54:20Z</time>
      </trkpt>
      <trkpt lat="45.19694" lon="5.94094">
        <ele>1351.2</ele>
        <time>2026-07-19T11:54:21Z</time>
      </trkpt>
      <trkpt lat="45.19694" lon="5.9409">
        <ele>1349.8</ele>
        <time>2026-07-19T11:54:22Z</time>
      </trkpt>
      <trkpt lat="45.19694" lon="5.94083">
        <ele>1348.6</ele>
        <time>2026-07-19T11:54:24Z</time>
      </trkpt>
      <trkpt lat="45.19693" lon="5.9408">
        <ele>1347.4</ele>
        <time>2026-07-19T11:54:25Z</time>
      </trkpt>
      <trkpt lat="45.19692" lon="5.94075">
        <ele>1347</ele>
        <time>2026-07-19T11:54:26Z</time>
      </trkpt>
      <trkpt lat="45.19692" lon="5.94053">
        <ele>1349.2</ele>
        <time>2026-07-19T11:54:31Z</time>
      </trkpt>
      <trkpt lat="45.19692" lon="5.94044">
        <ele>1350.6</ele>
        <time>2026-07-19T11:54:33Z</time>
      </trkpt>
      <trkpt lat="45.19692" lon="5.94032">
        <ele>1351.8</ele>
        <time>2026-07-19T11:54:36Z</time>
      </trkpt>
      <trkpt lat="45.19692" lon="5.94017">
        <ele>1350.8</ele>
        <time>2026-07-19T11:54:40Z</time>
      </trkpt>
      <trkpt lat="45.19692" lon="5.94014">
        <ele>1350.6</ele>
        <time>2026-07-19T11:54:41Z</time>
      </trkpt>
      <trkpt lat="45.19692" lon="5.94003">
        <ele>1352.8</ele>
        <time>2026-07-19T11:54:44Z</time>
      </trkpt>
      <trkpt lat="45.19692" lon="5.93998">
        <ele>1354</ele>
        <time>2026-07-19T11:54:45Z</time>
      </trkpt>
      <trkpt lat="45.19691" lon="5.93994">
        <ele>1354</ele>
        <time>2026-07-19T11:54:46Z</time>
      </trkpt>
      <trkpt lat="45.19688" lon="5.93981">
        <ele>1355.2</ele>
        <time>2026-07-19T11:54:50Z</time>
      </trkpt>
      <trkpt lat="45.19688" lon="5.93973">
        <ele>1356.8</ele>
        <time>2026-07-19T11:54:52Z</time>
      </trkpt>
      <trkpt lat="45.19688" lon="5.93965">
        <ele>1359.4</ele>
        <time>2026-07-19T11:54:54Z</time>
      </trkpt>
      <trkpt lat="45.19688" lon="5.93961">
        <ele>1360.4</ele>
        <time>2026-07-19T11:54:55Z</time>
      </trkpt>
      <trkpt lat="45.19687" lon="5.93948">
        <ele>1361</ele>
        <time>2026-07-19T11:54:59Z</time>
      </trkpt>
      <trkpt lat="45.19687" lon="5.93941">
        <ele>1362</ele>
        <time>2026-07-19T11:55:01Z</time>
      </trkpt>
      <trkpt lat="45.19688" lon="5.93933">
        <ele>1364</ele>
        <time>2026-07-19T11:55:04Z</time>
      </trkpt>
      <trkpt lat="45.19688" lon="5.9393">
        <ele>1364.4</ele>
        <time>2026-07-19T11:55:05Z</time>
      </trkpt>
      <trkpt lat="45.19684" lon="5.93911">
        <ele>1365.2</ele>
        <time>2026-07-19T11:55:11Z</time>
      </trkpt>
      <trkpt lat="45.19683" lon="5.93908">
        <ele>1365.2</ele>
        <time>2026-07-19T11:55:12Z</time>
      </trkpt>
      <trkpt lat="45.19683" lon="5.93886">
        <ele>1366.2</ele>
        <time>2026-07-19T11:55:18Z</time>
      </trkpt>
      <trkpt lat="45.19683" lon="5.93883">
        <ele>1366.4</ele>
        <time>2026-07-19T11:55:19Z</time>
      </trkpt>
      <trkpt lat="45.19683" lon="5.93877">
        <ele>1365.4</ele>
        <time>2026-07-19T11:55:21Z</time>
      </trkpt>
      <trkpt lat="45.19682" lon="5.93869">
        <ele>1363</ele>
        <time>2026-07-19T11:55:24Z</time>
      </trkpt>
      <trkpt lat="45.19681" lon="5.93866">
        <ele>1361.6</ele>
        <time>2026-07-19T11:55:25Z</time>
      </trkpt>
      <trkpt lat="45.19681" lon="5.93863">
        <ele>1360.4</ele>
        <time>2026-07-19T11:55:26Z</time>
      </trkpt>
      <trkpt lat="45.19679" lon="5.93844">
        <ele>1359.6</ele>
        <time>2026-07-19T11:55:31Z</time>
      </trkpt>
      <trkpt lat="45.19679" lon="5.9384">
        <ele>1359</ele>
        <time>2026-07-19T11:55:32Z</time>
      </trkpt>
      <trkpt lat="45.19678" lon="5.93834">
        <ele>1357.4</ele>
        <time>2026-07-19T11:55:34Z</time>
      </trkpt>
      <trkpt lat="45.19678" lon="5.93828">
        <ele>1356.2</ele>
        <time>2026-07-19T11:55:36Z</time>
      </trkpt>
      <trkpt lat="45.19677" lon="5.9382">
        <ele>1355.2</ele>
        <time>2026-07-19T11:55:38Z</time>
      </trkpt>
      <trkpt lat="45.19677" lon="5.93812">
        <ele>1355</ele>
        <time>2026-07-19T11:55:40Z</time>
      </trkpt>
      <trkpt lat="45.19676" lon="5.93797">
        <ele>1355.6</ele>
        <time>2026-07-19T11:55:44Z</time>
      </trkpt>
      <trkpt lat="45.19675" lon="5.93781">
        <ele>1352.8</ele>
        <time>2026-07-19T11:55:50Z</time>
      </trkpt>
      <trkpt lat="45.19675" lon="5.93778">
        <ele>1352.2</ele>
        <time>2026-07-19T11:55:51Z</time>
      </trkpt>
      <trkpt lat="45.19674" lon="5.93776">
        <ele>1351.4</ele>
        <time>2026-07-19T11:55:52Z</time>
      </trkpt>
      <trkpt lat="45.19674" lon="5.93765">
        <ele>1350.2</ele>
        <time>2026-07-19T11:55:55Z</time>
      </trkpt>
      <trkpt lat="45.19673" lon="5.93756">
        <ele>1348.8</ele>
        <time>2026-07-19T11:55:58Z</time>
      </trkpt>
      <trkpt lat="45.19672" lon="5.93753">
        <ele>1347.6</ele>
        <time>2026-07-19T11:55:59Z</time>
      </trkpt>
      <trkpt lat="45.19672" lon="5.9375">
        <ele>1346.2</ele>
        <time>2026-07-19T11:56:00Z</time>
      </trkpt>
      <trkpt lat="45.19671" lon="5.93745">
        <ele>1345</ele>
        <time>2026-07-19T11:56:01Z</time>
      </trkpt>
      <trkpt lat="45.1967" lon="5.93742">
        <ele>1343.8</ele>
        <time>2026-07-19T11:56:02Z</time>
      </trkpt>
      <trkpt lat="45.19668" lon="5.93729">
        <ele>1342.6</ele>
        <time>2026-07-19T11:56:05Z</time>
      </trkpt>
      <trkpt lat="45.19666" lon="5.93721">
        <ele>1341.4</ele>
        <time>2026-07-19T11:56:07Z</time>
      </trkpt>
      <trkpt lat="45.19661" lon="5.93707">
        <ele>1343.2</ele>
        <time>2026-07-19T11:56:11Z</time>
      </trkpt>
      <trkpt lat="45.1966" lon="5.93705">
        <ele>1344.4</ele>
        <time>2026-07-19T11:56:12Z</time>
      </trkpt>
      <trkpt lat="45.19658" lon="5.93702">
        <ele>1347</ele>
        <time>2026-07-19T11:56:13Z</time>
      </trkpt>
      <trkpt lat="45.19654" lon="5.93699">
        <ele>1348.2</ele>
        <time>2026-07-19T11:56:16Z</time>
      </trkpt>
      <trkpt lat="45.19652" lon="5.93696">
        <ele>1348.2</ele>
        <time>2026-07-19T11:56:18Z</time>
      </trkpt>
      <trkpt lat="45.19646" lon="5.93686">
        <ele>1349.6</ele>
        <time>2026-07-19T11:56:25Z</time>
      </trkpt>
      <trkpt lat="45.19644" lon="5.93682">
        <ele>1351.2</ele>
        <time>2026-07-19T11:56:27Z</time>
      </trkpt>
      <trkpt lat="45.1964" lon="5.93672">
        <ele>1352.4</ele>
        <time>2026-07-19T11:56:32Z</time>
      </trkpt>
      <trkpt lat="45.19639" lon="5.93667">
        <ele>1353</ele>
        <time>2026-07-19T11:56:35Z</time>
      </trkpt>
      <trkpt lat="45.19636" lon="5.93658">
        <ele>1354</ele>
        <time>2026-07-19T11:56:41Z</time>
      </trkpt>
      <trkpt lat="45.19634" lon="5.93654">
        <ele>1354</ele>
        <time>2026-07-19T11:56:44Z</time>
      </trkpt>
      <trkpt lat="45.19634" lon="5.93651">
        <ele>1354.6</ele>
        <time>2026-07-19T11:56:47Z</time>
      </trkpt>
      <trkpt lat="45.19632" lon="5.93645">
        <ele>1355.8</ele>
        <time>2026-07-19T11:56:51Z</time>
      </trkpt>
      <trkpt lat="45.19631" lon="5.9364">
        <ele>1356.8</ele>
        <time>2026-07-19T11:56:54Z</time>
      </trkpt>
      <trkpt lat="45.19631" lon="5.93638">
        <ele>1357.8</ele>
        <time>2026-07-19T11:56:55Z</time>
      </trkpt>
      <trkpt lat="45.1963" lon="5.93632">
        <ele>1359.6</ele>
        <time>2026-07-19T11:56:58Z</time>
      </trkpt>
      <trkpt lat="45.19627" lon="5.93625">
        <ele>1360.8</ele>
        <time>2026-07-19T11:57:03Z</time>
      </trkpt>
      <trkpt lat="45.19626" lon="5.93624">
        <ele>1360.8</ele>
        <time>2026-07-19T11:57:04Z</time>
      </trkpt>
      <trkpt lat="45.19624" lon="5.93621">
        <ele>1362.2</ele>
        <time>2026-07-19T11:57:06Z</time>
      </trkpt>
      <trkpt lat="45.19623" lon="5.93618">
        <ele>1363.4</ele>
        <time>2026-07-19T11:57:08Z</time>
      </trkpt>
      <trkpt lat="45.19621" lon="5.93615">
        <ele>1365.4</ele>
        <time>2026-07-19T11:57:11Z</time>
      </trkpt>
      <trkpt lat="45.19621" lon="5.93614">
        <ele>1366.6</ele>
        <time>2026-07-19T11:57:12Z</time>
      </trkpt>
      <trkpt lat="45.19622" lon="5.93612">
        <ele>1368.2</ele>
        <time>2026-07-19T11:57:14Z</time>
      </trkpt>
      <trkpt lat="45.19622" lon="5.9361">
        <ele>1369.6</ele>
        <time>2026-07-19T11:57:16Z</time>
      </trkpt>
      <trkpt lat="45.19623" lon="5.93607">
        <ele>1371</ele>
        <time>2026-07-19T11:57:18Z</time>
      </trkpt>
      <trkpt lat="45.19622" lon="5.93606">
        <ele>1371.6</ele>
        <time>2026-07-19T11:57:19Z</time>
      </trkpt>
      <trkpt lat="45.19622" lon="5.93605">
        <ele>1372.4</ele>
        <time>2026-07-19T11:57:20Z</time>
      </trkpt>
      <trkpt lat="45.19622" lon="5.93604">
        <ele>1374.2</ele>
        <time>2026-07-19T11:57:21Z</time>
      </trkpt>
      <trkpt lat="45.19621" lon="5.93601">
        <ele>1376</ele>
        <time>2026-07-19T11:57:23Z</time>
      </trkpt>
      <trkpt lat="45.19618" lon="5.93598">
        <ele>1377</ele>
        <time>2026-07-19T11:57:26Z</time>
      </trkpt>
      <trkpt lat="45.19617" lon="5.93597">
        <ele>1377.6</ele>
        <time>2026-07-19T11:57:27Z</time>
      </trkpt>
      <trkpt lat="45.19616" lon="5.93595">
        <ele>1379.4</ele>
        <time>2026-07-19T11:57:29Z</time>
      </trkpt>
      <trkpt lat="45.19614" lon="5.93592">
        <ele>1382</ele>
        <time>2026-07-19T11:57:32Z</time>
      </trkpt>
      <trkpt lat="45.19614" lon="5.93591">
        <ele>1383.2</ele>
        <time>2026-07-19T11:57:33Z</time>
      </trkpt>
      <trkpt lat="45.19612" lon="5.93589">
        <ele>1384.2</ele>
        <time>2026-07-19T11:57:35Z</time>
      </trkpt>
      <trkpt lat="45.19611" lon="5.93588">
        <ele>1384.6</ele>
        <time>2026-07-19T11:57:36Z</time>
      </trkpt>
      <trkpt lat="45.19609" lon="5.93584">
        <ele>1386</ele>
        <time>2026-07-19T11:57:39Z</time>
      </trkpt>
      <trkpt lat="45.19609" lon="5.9358">
        <ele>1387.4</ele>
        <time>2026-07-19T11:57:41Z</time>
      </trkpt>
      <trkpt lat="45.19606" lon="5.93577">
        <ele>1386.8</ele>
        <time>2026-07-19T11:57:43Z</time>
      </trkpt>
      <trkpt lat="45.19603" lon="5.93572">
        <ele>1386.2</ele>
        <time>2026-07-19T11:57:47Z</time>
      </trkpt>
      <trkpt lat="45.19602" lon="5.93567">
        <ele>1385.8</ele>
        <time>2026-07-19T11:57:51Z</time>
      </trkpt>
      <trkpt lat="45.19605" lon="5.93557">
        <ele>1383.8</ele>
        <time>2026-07-19T11:57:54Z</time>
      </trkpt>
      <trkpt lat="45.19608" lon="5.9355">
        <ele>1382.8</ele>
        <time>2026-07-19T11:57:56Z</time>
      </trkpt>
      <trkpt lat="45.19609" lon="5.93547">
        <ele>1384.4</ele>
        <time>2026-07-19T11:57:57Z</time>
      </trkpt>
      <trkpt lat="45.19611" lon="5.93542">
        <ele>1385.6</ele>
        <time>2026-07-19T11:58:00Z</time>
      </trkpt>
      <trkpt lat="45.19614" lon="5.93532">
        <ele>1384.8</ele>
        <time>2026-07-19T11:58:05Z</time>
      </trkpt>
      <trkpt lat="45.19614" lon="5.9353">
        <ele>1383.8</ele>
        <time>2026-07-19T11:58:06Z</time>
      </trkpt>
      <trkpt lat="45.19614" lon="5.93525">
        <ele>1382.8</ele>
        <time>2026-07-19T11:58:08Z</time>
      </trkpt>
      <trkpt lat="45.19614" lon="5.93518">
        <ele>1381.4</ele>
        <time>2026-07-19T11:58:12Z</time>
      </trkpt>
      <trkpt lat="45.19614" lon="5.93516">
        <ele>1380.4</ele>
        <time>2026-07-19T11:58:13Z</time>
      </trkpt>
      <trkpt lat="45.19615" lon="5.93514">
        <ele>1379.6</ele>
        <time>2026-07-19T11:58:14Z</time>
      </trkpt>
      <trkpt lat="45.19614" lon="5.93511">
        <ele>1377.4</ele>
        <time>2026-07-19T11:58:16Z</time>
      </trkpt>
      <trkpt lat="45.19613" lon="5.93508">
        <ele>1375.6</ele>
        <time>2026-07-19T11:58:18Z</time>
      </trkpt>
      <trkpt lat="45.19613" lon="5.93501">
        <ele>1374.6</ele>
        <time>2026-07-19T11:58:21Z</time>
      </trkpt>
      <trkpt lat="45.19613" lon="5.93499">
        <ele>1374.4</ele>
        <time>2026-07-19T11:58:22Z</time>
      </trkpt>
      <trkpt lat="45.19611" lon="5.93493">
        <ele>1372.8</ele>
        <time>2026-07-19T11:58:25Z</time>
      </trkpt>
      <trkpt lat="45.1961" lon="5.9349">
        <ele>1371</ele>
        <time>2026-07-19T11:58:27Z</time>
      </trkpt>
      <trkpt lat="45.19609" lon="5.93489">
        <ele>1370</ele>
        <time>2026-07-19T11:58:28Z</time>
      </trkpt>
      <trkpt lat="45.19608" lon="5.93488">
        <ele>1369.2</ele>
        <time>2026-07-19T11:58:29Z</time>
      </trkpt>
      <trkpt lat="45.19608" lon="5.93485">
        <ele>1368</ele>
        <time>2026-07-19T11:58:31Z</time>
      </trkpt>
      <trkpt lat="45.19607" lon="5.93477">
        <ele>1366.6</ele>
        <time>2026-07-19T11:58:36Z</time>
      </trkpt>
      <trkpt lat="45.19606" lon="5.93474">
        <ele>1365.8</ele>
        <time>2026-07-19T11:58:38Z</time>
      </trkpt>
      <trkpt lat="45.19607" lon="5.93472">
        <ele>1365.2</ele>
        <time>2026-07-19T11:58:39Z</time>
      </trkpt>
      <trkpt lat="45.19604" lon="5.93464">
        <ele>1364</ele>
        <time>2026-07-19T11:58:44Z</time>
      </trkpt>
      <trkpt lat="45.19603" lon="5.93463">
        <ele>1364</ele>
        <time>2026-07-19T11:58:45Z</time>
      </trkpt>
      <trkpt lat="45.19602" lon="5.93457">
        <ele>1365.8</ele>
        <time>2026-07-19T11:58:48Z</time>
      </trkpt>
      <trkpt lat="45.19601" lon="5.93453">
        <ele>1367</ele>
        <time>2026-07-19T11:58:50Z</time>
      </trkpt>
      <trkpt lat="45.19599" lon="5.9345">
        <ele>1368.6</ele>
        <time>2026-07-19T11:58:52Z</time>
      </trkpt>
      <trkpt lat="45.19596" lon="5.93444">
        <ele>1369.4</ele>
        <time>2026-07-19T11:58:56Z</time>
      </trkpt>
      <trkpt lat="45.19594" lon="5.93441">
        <ele>1369.6</ele>
        <time>2026-07-19T11:58:58Z</time>
      </trkpt>
      <trkpt lat="45.19594" lon="5.9344">
        <ele>1369.8</ele>
        <time>2026-07-19T11:58:59Z</time>
      </trkpt>
      <trkpt lat="45.19586" lon="5.93428">
        <ele>1368.6</ele>
        <time>2026-07-19T11:59:08Z</time>
      </trkpt>
      <trkpt lat="45.19585" lon="5.93417">
        <ele>1367.6</ele>
        <time>2026-07-19T11:59:14Z</time>
      </trkpt>
      <trkpt lat="45.19586" lon="5.93415">
        <ele>1367.8</ele>
        <time>2026-07-19T11:59:15Z</time>
      </trkpt>
      <trkpt lat="45.19587" lon="5.93412">
        <ele>1367.8</ele>
        <time>2026-07-19T11:59:16Z</time>
      </trkpt>
      <trkpt lat="45.19592" lon="5.93403">
        <ele>1368.6</ele>
        <time>2026-07-19T11:59:19Z</time>
      </trkpt>
      <trkpt lat="45.19599" lon="5.93391">
        <ele>1368.2</ele>
        <time>2026-07-19T11:59:23Z</time>
      </trkpt>
      <trkpt lat="45.19602" lon="5.93385">
        <ele>1367.4</ele>
        <time>2026-07-19T11:59:25Z</time>
      </trkpt>
      <trkpt lat="45.19614" lon="5.93367">
        <ele>1366.4</ele>
        <time>2026-07-19T11:59:32Z</time>
      </trkpt>
      <trkpt lat="45.19616" lon="5.93365">
        <ele>1366.2</ele>
        <time>2026-07-19T11:59:33Z</time>
      </trkpt>
      <trkpt lat="45.19622" lon="5.93357">
        <ele>1364.8</ele>
        <time>2026-07-19T11:59:37Z</time>
      </trkpt>
      <trkpt lat="45.19626" lon="5.9335">
        <ele>1364</ele>
        <time>2026-07-19T11:59:40Z</time>
      </trkpt>
      <trkpt lat="45.19631" lon="5.93345">
        <ele>1363.6</ele>
        <time>2026-07-19T11:59:42Z</time>
      </trkpt>
      <trkpt lat="45.1964" lon="5.93338">
        <ele>1362.4</ele>
        <time>2026-07-19T11:59:46Z</time>
      </trkpt>
      <trkpt lat="45.19645" lon="5.93334">
        <ele>1362.6</ele>
        <time>2026-07-19T11:59:48Z</time>
      </trkpt>
      <trkpt lat="45.19653" lon="5.93326">
        <ele>1361.2</ele>
        <time>2026-07-19T11:59:51Z</time>
      </trkpt>
      <trkpt lat="45.19659" lon="5.9332">
        <ele>1360</ele>
        <time>2026-07-19T11:59:54Z</time>
      </trkpt>
      <trkpt lat="45.19664" lon="5.93316">
        <ele>1361.4</ele>
        <time>2026-07-19T11:59:56Z</time>
      </trkpt>
      <trkpt lat="45.19667" lon="5.93313">
        <ele>1363</ele>
        <time>2026-07-19T11:59:57Z</time>
      </trkpt>
      <trkpt lat="45.19672" lon="5.93309">
        <ele>1364.4</ele>
        <time>2026-07-19T11:59:59Z</time>
      </trkpt>
      <trkpt lat="45.19674" lon="5.93307">
        <ele>1365.6</ele>
        <time>2026-07-19T12:00:00Z</time>
      </trkpt>
      <trkpt lat="45.19679" lon="5.93304">
        <ele>1365.6</ele>
        <time>2026-07-19T12:00:02Z</time>
      </trkpt>
      <trkpt lat="45.19685" lon="5.93299">
        <ele>1364</ele>
        <time>2026-07-19T12:00:05Z</time>
      </trkpt>
      <trkpt lat="45.1969" lon="5.93294">
        <ele>1363</ele>
        <time>2026-07-19T12:00:07Z</time>
      </trkpt>
      <trkpt lat="45.19696" lon="5.93288">
        <ele>1361.6</ele>
        <time>2026-07-19T12:00:10Z</time>
      </trkpt>
      <trkpt lat="45.19698" lon="5.93286">
        <ele>1361</ele>
        <time>2026-07-19T12:00:11Z</time>
      </trkpt>
      <trkpt lat="45.19702" lon="5.93281">
        <ele>1360.4</ele>
        <time>2026-07-19T12:00:13Z</time>
      </trkpt>
      <trkpt lat="45.19707" lon="5.93272">
        <ele>1358.6</ele>
        <time>2026-07-19T12:00:16Z</time>
      </trkpt>
      <trkpt lat="45.19711" lon="5.93267">
        <ele>1357.4</ele>
        <time>2026-07-19T12:00:18Z</time>
      </trkpt>
      <trkpt lat="45.19713" lon="5.93265">
        <ele>1357</ele>
        <time>2026-07-19T12:00:19Z</time>
      </trkpt>
      <trkpt lat="45.19715" lon="5.93262">
        <ele>1356.2</ele>
        <time>2026-07-19T12:00:20Z</time>
      </trkpt>
      <trkpt lat="45.19721" lon="5.93253">
        <ele>1354.6</ele>
        <time>2026-07-19T12:00:23Z</time>
      </trkpt>
      <trkpt lat="45.19724" lon="5.93247">
        <ele>1352.2</ele>
        <time>2026-07-19T12:00:25Z</time>
      </trkpt>
      <trkpt lat="45.19727" lon="5.93242">
        <ele>1350</ele>
        <time>2026-07-19T12:00:27Z</time>
      </trkpt>
      <trkpt lat="45.19728" lon="5.93239">
        <ele>1348.8</ele>
        <time>2026-07-19T12:00:28Z</time>
      </trkpt>
      <trkpt lat="45.19731" lon="5.93233">
        <ele>1347.4</ele>
        <time>2026-07-19T12:00:30Z</time>
      </trkpt>
      <trkpt lat="45.19733" lon="5.9323">
        <ele>1346.4</ele>
        <time>2026-07-19T12:00:31Z</time>
      </trkpt>
      <trkpt lat="45.19736" lon="5.93225">
        <ele>1346.6</ele>
        <time>2026-07-19T12:00:33Z</time>
      </trkpt>
      <trkpt lat="45.1975" lon="5.9321">
        <ele>1347.2</ele>
        <time>2026-07-19T12:00:40Z</time>
      </trkpt>
      <trkpt lat="45.19752" lon="5.93209">
        <ele>1347.4</ele>
        <time>2026-07-19T12:00:41Z</time>
      </trkpt>
      <trkpt lat="45.19758" lon="5.93204">
        <ele>1348.8</ele>
        <time>2026-07-19T12:00:43Z</time>
      </trkpt>
      <trkpt lat="45.19765" lon="5.932">
        <ele>1350.6</ele>
        <time>2026-07-19T12:00:46Z</time>
      </trkpt>
      <trkpt lat="45.19767" lon="5.93199">
        <ele>1351.4</ele>
        <time>2026-07-19T12:00:47Z</time>
      </trkpt>
      <trkpt lat="45.19769" lon="5.93198">
        <ele>1352</ele>
        <time>2026-07-19T12:00:48Z</time>
      </trkpt>
      <trkpt lat="45.19771" lon="5.93197">
        <ele>1353.6</ele>
        <time>2026-07-19T12:00:49Z</time>
      </trkpt>
      <trkpt lat="45.19774" lon="5.93196">
        <ele>1354.8</ele>
        <time>2026-07-19T12:00:50Z</time>
      </trkpt>
      <trkpt lat="45.19779" lon="5.93194">
        <ele>1356</ele>
        <time>2026-07-19T12:00:52Z</time>
      </trkpt>
      <trkpt lat="45.19784" lon="5.93192">
        <ele>1357.2</ele>
        <time>2026-07-19T12:00:54Z</time>
      </trkpt>
      <trkpt lat="45.19788" lon="5.93189">
        <ele>1357.8</ele>
        <time>2026-07-19T12:00:58Z</time>
      </trkpt>
    </trkseg>
  </trk>
</gpx>